<?xml version='1.0' encoding='UTF-8'?><gpx version="1.1" creator="JPX - https://github.com/jenetics/jpx" xmlns="http://www.topografix.com/GPX/1/1"><trk><trkseg><trkpt lat="44.6222777" lon="9.9689212"><ele>371.0</ele><time>2026-05-02T08:11:59.761Z</time></trkpt><trkpt lat="44.6222134" lon="9.9688213"><ele>371.0</ele><time>2026-05-02T08:41:52.757Z</time></trkpt><trkpt lat="44.6222369" lon="9.9687268"><ele>371.0</ele><time>2026-05-02T08:41:55.757Z</time></trkpt><trkpt lat="44.6223182" lon="9.9687351"><ele>371.0</ele><time>2026-05-02T08:41:57.757Z</time></trkpt><trkpt lat="44.6224136" lon="9.968766"><ele>371.0</ele><time>2026-05-02T08:41:59.757Z</time></trkpt><trkpt lat="44.6225079" lon="9.9688535"><ele>371.0</ele><time>2026-05-02T08:42:01.757Z</time></trkpt><trkpt lat="44.6225888" lon="9.9689432"><ele>371.0</ele><time>2026-05-02T08:42:03.757Z</time></trkpt><trkpt lat="44.6226921" lon="9.96905"><ele>371.0</ele><time>2026-05-02T08:42:05.757Z</time></trkpt><trkpt lat="44.6227521" lon="9.9690946"><ele>371.0</ele><time>2026-05-02T08:42:06.757Z</time></trkpt><trkpt lat="44.6228171" lon="9.9691347"><ele>371.0</ele><time>2026-05-02T08:42:07.757Z</time></trkpt><trkpt lat="44.6229421" lon="9.969189"><ele>368.6666666666667</ele><time>2026-05-02T08:42:09.757Z</time></trkpt><trkpt lat="44.6230089" lon="9.9692153"><ele>366.33333333333337</ele><time>2026-05-02T08:42:10.758Z</time></trkpt><trkpt lat="44.6230706" lon="9.9692445"><ele>364.0</ele><time>2026-05-02T08:42:11.757Z</time></trkpt><trkpt lat="44.6231323" lon="9.9692678"><ele>361.6666666666667</ele><time>2026-05-02T08:42:12.757Z</time></trkpt><trkpt lat="44.6232535" lon="9.9693088"><ele>359.3333333333333</ele><time>2026-05-02T08:42:14.758Z</time></trkpt><trkpt lat="44.6233694" lon="9.9693012"><ele>357.0</ele><time>2026-05-02T08:42:16.757Z</time></trkpt><trkpt lat="44.6234504" lon="9.9692314"><ele>359.1666666666667</ele><time>2026-05-02T08:42:18.757Z</time></trkpt><trkpt lat="44.6234819" lon="9.9691225"><ele>361.3333333333333</ele><time>2026-05-02T08:42:20.758Z</time></trkpt><trkpt lat="44.6235143" lon="9.9690287"><ele>363.5</ele><time>2026-05-02T08:42:23.757Z</time></trkpt><trkpt lat="44.6235347" lon="9.968883"><ele>365.66666666666663</ele><time>2026-05-02T08:42:28.758Z</time></trkpt><trkpt lat="44.6235439" lon="9.9687768"><ele>367.8333333333333</ele><time>2026-05-02T08:42:30.757Z</time></trkpt><trkpt lat="44.6235498" lon="9.9686402"><ele>370.0</ele><time>2026-05-02T08:42:31.757Z</time></trkpt><trkpt lat="44.6235445" lon="9.9685455"><ele>370.0</ele><time>2026-05-02T08:42:32.757Z</time></trkpt><trkpt lat="44.623538" lon="9.9683984"><ele>370.0</ele><time>2026-05-02T08:42:33.757Z</time></trkpt><trkpt lat="44.6235156" lon="9.9682824"><ele>370.0</ele><time>2026-05-02T08:42:34.758Z</time></trkpt><trkpt lat="44.6234743" lon="9.9682042"><ele>370.0</ele><time>2026-05-02T08:42:35.757Z</time></trkpt><trkpt lat="44.6233941" lon="9.9681275"><ele>370.0</ele><time>2026-05-02T08:42:37.757Z</time></trkpt><trkpt lat="44.6233246" lon="9.9680348"><ele>371.3333333333333</ele><time>2026-05-02T08:42:39.757Z</time></trkpt><trkpt lat="44.6232897" lon="9.9679565"><ele>372.66666666666663</ele><time>2026-05-02T08:42:40.757Z</time></trkpt><trkpt lat="44.6232685" lon="9.9678688"><ele>374.0</ele><time>2026-05-02T08:42:41.758Z</time></trkpt><trkpt lat="44.6232482" lon="9.9677842"><ele>375.3333333333333</ele><time>2026-05-02T08:42:42.757Z</time></trkpt><trkpt lat="44.6232188" lon="9.9676935"><ele>376.6666666666667</ele><time>2026-05-02T08:42:43.757Z</time></trkpt><trkpt lat="44.6231948" lon="9.9676086"><ele>378.0</ele><time>2026-05-02T08:42:44.757Z</time></trkpt><trkpt lat="44.6231001" lon="9.9674609"><ele>379.6666666666667</ele><time>2026-05-02T08:42:46.757Z</time></trkpt><trkpt lat="44.6230346" lon="9.9673985"><ele>381.33333333333337</ele><time>2026-05-02T08:42:47.758Z</time></trkpt><trkpt lat="44.6229752" lon="9.9673373"><ele>383.0</ele><time>2026-05-02T08:42:48.757Z</time></trkpt><trkpt lat="44.6229013" lon="9.9672733"><ele>384.6666666666667</ele><time>2026-05-02T08:42:49.757Z</time></trkpt><trkpt lat="44.6228372" lon="9.9672276"><ele>386.33333333333337</ele><time>2026-05-02T08:42:50.757Z</time></trkpt><trkpt lat="44.622776" lon="9.9672019"><ele>388.0</ele><time>2026-05-02T08:42:51.757Z</time></trkpt><trkpt lat="44.6226546" lon="9.9672237"><ele>388.83333333333337</ele><time>2026-05-02T08:42:53.758Z</time></trkpt><trkpt lat="44.6225695" lon="9.9672779"><ele>389.6666666666667</ele><time>2026-05-02T08:42:55.758Z</time></trkpt><trkpt lat="44.6224979" lon="9.9672693"><ele>390.5</ele><time>2026-05-02T08:42:57.757Z</time></trkpt><trkpt lat="44.6224341" lon="9.9672237"><ele>391.33333333333337</ele><time>2026-05-02T08:42:59.758Z</time></trkpt><trkpt lat="44.6224096" lon="9.9671259"><ele>392.1666666666667</ele><time>2026-05-02T08:43:00.758Z</time></trkpt><trkpt lat="44.6223883" lon="9.9670116"><ele>393.0</ele><time>2026-05-02T08:43:01.758Z</time></trkpt><trkpt lat="44.6223615" lon="9.9669151"><ele>393.0</ele><time>2026-05-02T08:43:02.757Z</time></trkpt><trkpt lat="44.622358" lon="9.9668189"><ele>393.0</ele><time>2026-05-02T08:43:03.757Z</time></trkpt><trkpt lat="44.6223415" lon="9.9666515"><ele>393.0</ele><time>2026-05-02T08:43:05.757Z</time></trkpt><trkpt lat="44.6223429" lon="9.9664947"><ele>393.0</ele><time>2026-05-02T08:43:07.757Z</time></trkpt><trkpt lat="44.6223533" lon="9.9664014"><ele>393.0</ele><time>2026-05-02T08:43:08.757Z</time></trkpt><trkpt lat="44.6223259" lon="9.9661972"><ele>396.2</ele><time>2026-05-02T08:43:10.757Z</time></trkpt><trkpt lat="44.6223304" lon="9.9659793"><ele>399.4</ele><time>2026-05-02T08:43:12.758Z</time></trkpt><trkpt lat="44.6223343" lon="9.9658673"><ele>402.59999999999997</ele><time>2026-05-02T08:43:13.757Z</time></trkpt><trkpt lat="44.6223566" lon="9.9657304"><ele>405.79999999999995</ele><time>2026-05-02T08:43:14.757Z</time></trkpt><trkpt lat="44.6223501" lon="9.9655947"><ele>409.0</ele><time>2026-05-02T08:43:15.758Z</time></trkpt><trkpt lat="44.62235" lon="9.965474"><ele>411.1666666666667</ele><time>2026-05-02T08:43:16.758Z</time></trkpt><trkpt lat="44.6223283" lon="9.965343"><ele>413.33333333333337</ele><time>2026-05-02T08:43:17.757Z</time></trkpt><trkpt lat="44.6223209" lon="9.9652328"><ele>415.5</ele><time>2026-05-02T08:43:18.757Z</time></trkpt><trkpt lat="44.6223287" lon="9.965087"><ele>417.66666666666663</ele><time>2026-05-02T08:43:19.758Z</time></trkpt><trkpt lat="44.6223259" lon="9.9649807"><ele>419.8333333333333</ele><time>2026-05-02T08:43:20.757Z</time></trkpt><trkpt lat="44.6223087" lon="9.9648824"><ele>422.0</ele><time>2026-05-02T08:43:21.757Z</time></trkpt><trkpt lat="44.6223031" lon="9.9647774"><ele>423.99999999999994</ele><time>2026-05-02T08:43:22.758Z</time></trkpt><trkpt lat="44.6222835" lon="9.9646872"><ele>426.0</ele><time>2026-05-02T08:43:23.757Z</time></trkpt><trkpt lat="44.6222979" lon="9.9645453"><ele>428.0</ele><time>2026-05-02T08:43:25.757Z</time></trkpt><trkpt lat="44.6222962" lon="9.964444"><ele>430.0</ele><time>2026-05-02T08:43:31.757Z</time></trkpt><trkpt lat="44.6222903" lon="9.9643194"><ele>431.99999999999994</ele><time>2026-05-02T08:43:43.757Z</time></trkpt><trkpt lat="44.6222949" lon="9.9641779"><ele>434.0</ele><time>2026-05-02T08:43:45.757Z</time></trkpt><trkpt lat="44.6222545" lon="9.9640387"><ele>436.0</ele><time>2026-05-02T08:43:47.757Z</time></trkpt><trkpt lat="44.6221916" lon="9.9639028"><ele>438.0</ele><time>2026-05-02T08:43:49.757Z</time></trkpt><trkpt lat="44.6220981" lon="9.9638041"><ele>440.0</ele><time>2026-05-02T08:43:51.757Z</time></trkpt><trkpt lat="44.6219736" lon="9.9637135"><ele>442.0</ele><time>2026-05-02T08:43:53.758Z</time></trkpt><trkpt lat="44.6219282" lon="9.9635957"><ele>442.00000000000006</ele><time>2026-05-02T08:43:55.756Z</time></trkpt><trkpt lat="44.6219073" lon="9.9634976"><ele>442.0</ele><time>2026-05-02T08:43:57.756Z</time></trkpt><trkpt lat="44.6219748" lon="9.9633277"><ele>442.0</ele><time>2026-05-02T08:43:59.756Z</time></trkpt><trkpt lat="44.6220016" lon="9.9632411"><ele>442.0</ele><time>2026-05-02T08:44:00.756Z</time></trkpt><trkpt lat="44.6220212" lon="9.9631056"><ele>442.00000000000006</ele><time>2026-05-02T08:44:02.756Z</time></trkpt><trkpt lat="44.6220315" lon="9.963012"><ele>442.0</ele><time>2026-05-02T08:44:10.756Z</time></trkpt><trkpt lat="44.6221182" lon="9.9629715"><ele>444.0</ele><time>2026-05-02T08:44:14.756Z</time></trkpt><trkpt lat="44.622163" lon="9.9628951"><ele>446.0</ele><time>2026-05-02T08:44:20.756Z</time></trkpt><trkpt lat="44.6222356" lon="9.962875"><ele>448.0</ele><time>2026-05-02T08:44:24.756Z</time></trkpt><trkpt lat="44.6223271" lon="9.9628878"><ele>450.0</ele><time>2026-05-02T08:44:52.756Z</time></trkpt><trkpt lat="44.6224035" lon="9.9628665"><ele>451.99999999999994</ele><time>2026-05-02T08:44:55.756Z</time></trkpt><trkpt lat="44.6224511" lon="9.9629256"><ele>454.0</ele><time>2026-05-02T08:45:00.756Z</time></trkpt><trkpt lat="44.6223866" lon="9.96291"><ele>456.0</ele><time>2026-05-02T08:45:08.756Z</time></trkpt><trkpt lat="44.6222861" lon="9.9628603"><ele>456.0</ele><time>2026-05-02T08:45:10.756Z</time></trkpt><trkpt lat="44.6222131" lon="9.962849"><ele>456.0</ele><time>2026-05-02T08:45:12.756Z</time></trkpt><trkpt lat="44.6221445" lon="9.9628994"><ele>456.0</ele><time>2026-05-02T08:45:14.756Z</time></trkpt><trkpt lat="44.622092" lon="9.9629519"><ele>456.0</ele><time>2026-05-02T08:45:16.756Z</time></trkpt><trkpt lat="44.6220329" lon="9.9630025"><ele>456.0</ele><time>2026-05-02T08:45:57.756Z</time></trkpt><trkpt lat="44.6220201" lon="9.9631404"><ele>456.0</ele><time>2026-05-02T08:46:00.756Z</time></trkpt><trkpt lat="44.6219879" lon="9.9632298"><ele>456.1666666666667</ele><time>2026-05-02T08:46:02.757Z</time></trkpt><trkpt lat="44.6219435" lon="9.9633301"><ele>456.33333333333337</ele><time>2026-05-02T08:46:04.756Z</time></trkpt><trkpt lat="44.6219032" lon="9.9634399"><ele>456.5</ele><time>2026-05-02T08:46:06.756Z</time></trkpt><trkpt lat="44.621896" lon="9.9635397"><ele>456.6666666666667</ele><time>2026-05-02T08:46:08.756Z</time></trkpt><trkpt lat="44.6219547" lon="9.963634"><ele>456.83333333333337</ele><time>2026-05-02T08:46:11.756Z</time></trkpt><trkpt lat="44.6220364" lon="9.9637026"><ele>457.0</ele><time>2026-05-02T08:46:13.756Z</time></trkpt><trkpt lat="44.6221245" lon="9.9637776"><ele>454.8</ele><time>2026-05-02T08:46:15.756Z</time></trkpt><trkpt lat="44.6221988" lon="9.9638518"><ele>452.6</ele><time>2026-05-02T08:46:17.757Z</time></trkpt><trkpt lat="44.6222657" lon="9.9639445"><ele>450.40000000000003</ele><time>2026-05-02T08:46:20.756Z</time></trkpt><trkpt lat="44.6222731" lon="9.9640718"><ele>448.20000000000005</ele><time>2026-05-02T08:46:24.756Z</time></trkpt><trkpt lat="44.6222803" lon="9.9642651"><ele>446.0</ele><time>2026-05-02T08:46:26.756Z</time></trkpt><trkpt lat="44.6222795" lon="9.9644011"><ele>443.6</ele><time>2026-05-02T08:46:27.756Z</time></trkpt><trkpt lat="44.6222717" lon="9.9644939"><ele>441.20000000000005</ele><time>2026-05-02T08:46:28.756Z</time></trkpt><trkpt lat="44.6222666" lon="9.9646514"><ele>438.79999999999995</ele><time>2026-05-02T08:46:30.756Z</time></trkpt><trkpt lat="44.6222828" lon="9.9648141"><ele>436.4</ele><time>2026-05-02T08:46:32.756Z</time></trkpt><trkpt lat="44.6222982" lon="9.9650109"><ele>434.0</ele><time>2026-05-02T08:46:34.757Z</time></trkpt><trkpt lat="44.622306" lon="9.9650998"><ele>431.99999999999994</ele><time>2026-05-02T08:46:35.757Z</time></trkpt><trkpt lat="44.6223144" lon="9.9652001"><ele>430.0</ele><time>2026-05-02T08:46:36.756Z</time></trkpt><trkpt lat="44.6223041" lon="9.965334"><ele>428.0</ele><time>2026-05-02T08:46:38.756Z</time></trkpt><trkpt lat="44.6223164" lon="9.965439"><ele>426.0</ele><time>2026-05-02T08:46:40.756Z</time></trkpt><trkpt lat="44.622328" lon="9.9655359"><ele>423.99999999999994</ele><time>2026-05-02T08:46:42.757Z</time></trkpt><trkpt lat="44.6223107" lon="9.9656844"><ele>422.0</ele><time>2026-05-02T08:46:44.756Z</time></trkpt><trkpt lat="44.622297" lon="9.9658455"><ele>419.40000000000003</ele><time>2026-05-02T08:46:46.757Z</time></trkpt><trkpt lat="44.6222909" lon="9.9660169"><ele>416.8</ele><time>2026-05-02T08:46:48.757Z</time></trkpt><trkpt lat="44.6223017" lon="9.9661406"><ele>414.2</ele><time>2026-05-02T08:46:50.756Z</time></trkpt><trkpt lat="44.6223085" lon="9.9662882"><ele>411.6</ele><time>2026-05-02T08:46:52.756Z</time></trkpt><trkpt lat="44.6222993" lon="9.9663785"><ele>409.0</ele><time>2026-05-02T08:46:53.756Z</time></trkpt><trkpt lat="44.6222854" lon="9.9665012"><ele>409.0</ele><time>2026-05-02T08:46:55.756Z</time></trkpt><trkpt lat="44.6222735" lon="9.9666465"><ele>409.0</ele><time>2026-05-02T08:46:58.756Z</time></trkpt><trkpt lat="44.6222755" lon="9.9667791"><ele>409.0</ele><time>2026-05-02T08:47:00.756Z</time></trkpt><trkpt lat="44.6223264" lon="9.9668646"><ele>409.0</ele><time>2026-05-02T08:47:02.756Z</time></trkpt><trkpt lat="44.6223401" lon="9.9669853"><ele>409.0</ele><time>2026-05-02T08:47:21.756Z</time></trkpt><trkpt lat="44.6223688" lon="9.9671045"><ele>409.0</ele><time>2026-05-02T08:47:24.756Z</time></trkpt><trkpt lat="44.6223797" lon="9.9670047"><ele>409.0</ele><time>2026-05-02T08:47:36.756Z</time></trkpt><trkpt lat="44.6223425" lon="9.9668062"><ele>409.0</ele><time>2026-05-02T08:47:38.756Z</time></trkpt><trkpt lat="44.6223379" lon="9.9666742"><ele>409.0</ele><time>2026-05-02T08:47:39.756Z</time></trkpt><trkpt lat="44.6223251" lon="9.9665752"><ele>409.0</ele><time>2026-05-02T08:47:40.756Z</time></trkpt><trkpt lat="44.622338" lon="9.966455"><ele>409.0</ele><time>2026-05-02T08:47:41.757Z</time></trkpt><trkpt lat="44.6223294" lon="9.9663618"><ele>409.0</ele><time>2026-05-02T08:47:42.756Z</time></trkpt><trkpt lat="44.6223424" lon="9.9662349"><ele>409.0</ele><time>2026-05-02T08:47:43.756Z</time></trkpt><trkpt lat="44.6223417" lon="9.9660722"><ele>409.0</ele><time>2026-05-02T08:47:44.756Z</time></trkpt><trkpt lat="44.6223336" lon="9.9659514"><ele>409.0</ele><time>2026-05-02T08:47:45.756Z</time></trkpt><trkpt lat="44.6223368" lon="9.9658012"><ele>411.1666666666667</ele><time>2026-05-02T08:47:46.756Z</time></trkpt><trkpt lat="44.6223412" lon="9.9656519"><ele>413.33333333333337</ele><time>2026-05-02T08:47:47.756Z</time></trkpt><trkpt lat="44.6223508" lon="9.9655133"><ele>415.5</ele><time>2026-05-02T08:47:48.756Z</time></trkpt><trkpt lat="44.6223415" lon="9.965415"><ele>417.66666666666663</ele><time>2026-05-02T08:47:49.756Z</time></trkpt><trkpt lat="44.6223459" lon="9.9653071"><ele>419.8333333333333</ele><time>2026-05-02T08:47:50.756Z</time></trkpt><trkpt lat="44.6223457" lon="9.965212"><ele>422.0</ele><time>2026-05-02T08:47:51.756Z</time></trkpt><trkpt lat="44.6223421" lon="9.9650844"><ele>423.99999999999994</ele><time>2026-05-02T08:47:52.756Z</time></trkpt><trkpt lat="44.6223352" lon="9.964966"><ele>426.0</ele><time>2026-05-02T08:47:53.756Z</time></trkpt><trkpt lat="44.6223138" lon="9.9648666"><ele>428.0</ele><time>2026-05-02T08:47:54.756Z</time></trkpt><trkpt lat="44.622297" lon="9.9647454"><ele>430.0</ele><time>2026-05-02T08:47:55.756Z</time></trkpt><trkpt lat="44.6222811" lon="9.9646272"><ele>431.99999999999994</ele><time>2026-05-02T08:47:56.756Z</time></trkpt><trkpt lat="44.6222643" lon="9.9644931"><ele>434.0</ele><time>2026-05-02T08:47:57.757Z</time></trkpt><trkpt lat="44.6223084" lon="9.964397"><ele>434.0</ele><time>2026-05-02T08:47:58.757Z</time></trkpt><trkpt lat="44.6223111" lon="9.9642914"><ele>434.0</ele><time>2026-05-02T08:47:59.756Z</time></trkpt><trkpt lat="44.622315" lon="9.9641774"><ele>434.0</ele><time>2026-05-02T08:48:00.757Z</time></trkpt><trkpt lat="44.6223245" lon="9.9640834"><ele>434.0</ele><time>2026-05-02T08:48:01.756Z</time></trkpt><trkpt lat="44.6222894" lon="9.9639871"><ele>434.0</ele><time>2026-05-02T08:48:04.757Z</time></trkpt><trkpt lat="44.6222295" lon="9.9639202"><ele>434.0</ele><time>2026-05-02T08:48:07.756Z</time></trkpt><trkpt lat="44.6221712" lon="9.9638728"><ele>434.0</ele><time>2026-05-02T08:48:08.756Z</time></trkpt><trkpt lat="44.62212" lon="9.9638165"><ele>435.6</ele><time>2026-05-02T08:48:09.757Z</time></trkpt><trkpt lat="44.6220126" lon="9.963717"><ele>437.2</ele><time>2026-05-02T08:48:11.756Z</time></trkpt><trkpt lat="44.6219259" lon="9.9636396"><ele>438.80000000000007</ele><time>2026-05-02T08:48:13.756Z</time></trkpt><trkpt lat="44.6219001" lon="9.9635229"><ele>440.40000000000003</ele><time>2026-05-02T08:48:15.756Z</time></trkpt><trkpt lat="44.621922" lon="9.9633952"><ele>442.0</ele><time>2026-05-02T08:48:17.756Z</time></trkpt><trkpt lat="44.6219815" lon="9.963266"><ele>444.33333333333337</ele><time>2026-05-02T08:48:19.757Z</time></trkpt><trkpt lat="44.6220195" lon="9.963138"><ele>446.6666666666667</ele><time>2026-05-02T08:48:21.756Z</time></trkpt><trkpt lat="44.6220423" lon="9.9630305"><ele>449.0</ele><time>2026-05-02T08:48:23.756Z</time></trkpt><trkpt lat="44.6221091" lon="9.9629689"><ele>451.33333333333337</ele><time>2026-05-02T08:48:30.756Z</time></trkpt><trkpt lat="44.6221794" lon="9.9628748"><ele>453.6666666666667</ele><time>2026-05-02T08:48:33.756Z</time></trkpt><trkpt lat="44.62225" lon="9.9628441"><ele>456.0</ele><time>2026-05-02T08:48:35.756Z</time></trkpt><trkpt lat="44.6223198" lon="9.9628879"><ele>456.0</ele><time>2026-05-02T08:48:36.757Z</time></trkpt><trkpt lat="44.622399" lon="9.9628952"><ele>456.0</ele><time>2026-05-02T08:48:37.756Z</time></trkpt><trkpt lat="44.6225052" lon="9.9629348"><ele>456.0</ele><time>2026-05-02T08:48:39.756Z</time></trkpt><trkpt lat="44.6226288" lon="9.9629557"><ele>456.0</ele><time>2026-05-02T08:48:41.756Z</time></trkpt><trkpt lat="44.6227238" lon="9.9629745"><ele>456.0</ele><time>2026-05-02T08:48:43.758Z</time></trkpt><trkpt lat="44.6228008" lon="9.9630215"><ele>457.0</ele><time>2026-05-02T08:48:44.757Z</time></trkpt><trkpt lat="44.6228739" lon="9.963072"><ele>458.0</ele><time>2026-05-02T08:48:45.756Z</time></trkpt><trkpt lat="44.6229474" lon="9.963124"><ele>459.0</ele><time>2026-05-02T08:48:46.756Z</time></trkpt><trkpt lat="44.6230558" lon="9.9631279"><ele>460.0</ele><time>2026-05-02T08:48:48.756Z</time></trkpt><trkpt lat="44.6231206" lon="9.9630872"><ele>461.0</ele><time>2026-05-02T08:48:49.756Z</time></trkpt><trkpt lat="44.6231864" lon="9.9631009"><ele>462.0</ele><time>2026-05-02T08:48:50.756Z</time></trkpt><trkpt lat="44.6232939" lon="9.9629979"><ele>462.0</ele><time>2026-05-02T08:48:52.756Z</time></trkpt><trkpt lat="44.623354" lon="9.9629322"><ele>462.0</ele><time>2026-05-02T08:48:53.756Z</time></trkpt><trkpt lat="44.6234311" lon="9.9628568"><ele>462.0</ele><time>2026-05-02T08:48:54.757Z</time></trkpt><trkpt lat="44.6234949" lon="9.9627776"><ele>462.0</ele><time>2026-05-02T08:48:55.756Z</time></trkpt><trkpt lat="44.6235627" lon="9.9627237"><ele>462.0</ele><time>2026-05-02T08:48:56.756Z</time></trkpt><trkpt lat="44.6236408" lon="9.9627766"><ele>462.0</ele><time>2026-05-02T08:48:58.757Z</time></trkpt><trkpt lat="44.6237213" lon="9.9627782"><ele>462.0</ele><time>2026-05-02T08:49:00.756Z</time></trkpt><trkpt lat="44.6237808" lon="9.9627018"><ele>462.00000000000006</ele><time>2026-05-02T08:49:02.756Z</time></trkpt><trkpt lat="44.6238848" lon="9.9626935"><ele>462.00000000000006</ele><time>2026-05-02T08:49:05.756Z</time></trkpt><trkpt lat="44.6240004" lon="9.9626585"><ele>462.0</ele><time>2026-05-02T08:49:07.756Z</time></trkpt><trkpt lat="44.6240809" lon="9.9626043"><ele>462.0</ele><time>2026-05-02T08:49:08.756Z</time></trkpt><trkpt lat="44.6241473" lon="9.9625564"><ele>465.0</ele><time>2026-05-02T08:49:09.756Z</time></trkpt><trkpt lat="44.6242703" lon="9.9625138"><ele>468.0</ele><time>2026-05-02T08:49:11.756Z</time></trkpt><trkpt lat="44.6243314" lon="9.9624486"><ele>471.0</ele><time>2026-05-02T08:49:12.756Z</time></trkpt><trkpt lat="44.6243889" lon="9.9623842"><ele>474.0</ele><time>2026-05-02T08:49:13.756Z</time></trkpt><trkpt lat="44.6244391" lon="9.9623084"><ele>477.0</ele><time>2026-05-02T08:49:14.756Z</time></trkpt><trkpt lat="44.6245085" lon="9.9622364"><ele>480.0</ele><time>2026-05-02T08:49:15.756Z</time></trkpt><trkpt lat="44.6246214" lon="9.9621531"><ele>480.2</ele><time>2026-05-02T08:49:17.756Z</time></trkpt><trkpt lat="44.6246947" lon="9.9621247"><ele>480.4</ele><time>2026-05-02T08:49:18.756Z</time></trkpt><trkpt lat="44.6248215" lon="9.9621339"><ele>480.6</ele><time>2026-05-02T08:49:20.757Z</time></trkpt><trkpt lat="44.6248958" lon="9.9621262"><ele>480.8</ele><time>2026-05-02T08:49:21.756Z</time></trkpt><trkpt lat="44.62496" lon="9.9621085"><ele>481.0</ele><time>2026-05-02T08:49:22.756Z</time></trkpt><trkpt lat="44.6250651" lon="9.9620237"><ele>481.0</ele><time>2026-05-02T08:49:24.756Z</time></trkpt><trkpt lat="44.6251428" lon="9.9619089"><ele>481.0</ele><time>2026-05-02T08:49:26.756Z</time></trkpt><trkpt lat="44.625171" lon="9.9617825"><ele>481.0</ele><time>2026-05-02T08:49:28.756Z</time></trkpt><trkpt lat="44.6251542" lon="9.9616615"><ele>481.0</ele><time>2026-05-02T08:49:30.756Z</time></trkpt><trkpt lat="44.6251159" lon="9.9615374"><ele>481.0</ele><time>2026-05-02T08:49:32.757Z</time></trkpt><trkpt lat="44.62509" lon="9.9613762"><ele>484.8</ele><time>2026-05-02T08:49:34.756Z</time></trkpt><trkpt lat="44.6250903" lon="9.9612086"><ele>488.6</ele><time>2026-05-02T08:49:36.756Z</time></trkpt><trkpt lat="44.6250863" lon="9.9611158"><ele>492.4</ele><time>2026-05-02T08:49:37.756Z</time></trkpt><trkpt lat="44.6251266" lon="9.9609993"><ele>496.2</ele><time>2026-05-02T08:49:39.755Z</time></trkpt><trkpt lat="44.6250982" lon="9.9608727"><ele>500.0</ele><time>2026-05-02T08:49:41.755Z</time></trkpt><trkpt lat="44.625051" lon="9.9607814"><ele>503.16666666666663</ele><time>2026-05-02T08:49:43.755Z</time></trkpt><trkpt lat="44.6250482" lon="9.9606805"><ele>506.3333333333333</ele><time>2026-05-02T08:49:45.755Z</time></trkpt><trkpt lat="44.625107" lon="9.9605956"><ele>509.5</ele><time>2026-05-02T08:49:47.756Z</time></trkpt><trkpt lat="44.6251079" lon="9.9604717"><ele>512.6666666666666</ele><time>2026-05-02T08:49:49.755Z</time></trkpt><trkpt lat="44.625118" lon="9.9603659"><ele>515.8333333333334</ele><time>2026-05-02T08:49:51.755Z</time></trkpt><trkpt lat="44.6251579" lon="9.960279"><ele>519.0</ele><time>2026-05-02T08:49:53.756Z</time></trkpt><trkpt lat="44.6251412" lon="9.9603799"><ele>519.0</ele><time>2026-05-02T08:51:39.755Z</time></trkpt><trkpt lat="44.6251264" lon="9.9605197"><ele>519.0</ele><time>2026-05-02T08:51:41.755Z</time></trkpt><trkpt lat="44.6251113" lon="9.9606614"><ele>519.0</ele><time>2026-05-02T08:51:43.755Z</time></trkpt><trkpt lat="44.6250819" lon="9.9607765"><ele>519.0</ele><time>2026-05-02T08:51:45.755Z</time></trkpt><trkpt lat="44.6251066" lon="9.9609049"><ele>519.0</ele><time>2026-05-02T08:51:48.755Z</time></trkpt><trkpt lat="44.6251533" lon="9.96101"><ele>515.8333333333334</ele><time>2026-05-02T08:51:51.755Z</time></trkpt><trkpt lat="44.6251485" lon="9.9611019"><ele>512.6666666666666</ele><time>2026-05-02T08:51:53.755Z</time></trkpt><trkpt lat="44.6251287" lon="9.9611998"><ele>509.5</ele><time>2026-05-02T08:51:55.755Z</time></trkpt><trkpt lat="44.6251022" lon="9.9613"><ele>506.3333333333333</ele><time>2026-05-02T08:51:58.755Z</time></trkpt><trkpt lat="44.6250885" lon="9.9613871"><ele>503.16666666666663</ele><time>2026-05-02T08:53:12.755Z</time></trkpt><trkpt lat="44.6250905" lon="9.9612369"><ele>500.0</ele><time>2026-05-02T08:53:32.755Z</time></trkpt><trkpt lat="44.6251093" lon="9.9610719"><ele>500.0</ele><time>2026-05-02T08:53:34.756Z</time></trkpt><trkpt lat="44.6251082" lon="9.9609248"><ele>500.0</ele><time>2026-05-02T08:53:36.755Z</time></trkpt><trkpt lat="44.6250455" lon="9.9608185"><ele>500.0</ele><time>2026-05-02T08:53:38.755Z</time></trkpt><trkpt lat="44.6250572" lon="9.9607113"><ele>500.0</ele><time>2026-05-02T08:53:40.755Z</time></trkpt><trkpt lat="44.625101" lon="9.9606435"><ele>500.0</ele><time>2026-05-02T08:53:41.755Z</time></trkpt><trkpt lat="44.6251206" lon="9.9604741"><ele>503.8</ele><time>2026-05-02T08:53:43.755Z</time></trkpt><trkpt lat="44.6251329" lon="9.9603765"><ele>507.6</ele><time>2026-05-02T08:53:44.756Z</time></trkpt><trkpt lat="44.6251463" lon="9.9602887"><ele>511.4</ele><time>2026-05-02T08:53:45.756Z</time></trkpt><trkpt lat="44.6251983" lon="9.9601594"><ele>515.2</ele><time>2026-05-02T08:53:47.755Z</time></trkpt><trkpt lat="44.6252783" lon="9.9601606"><ele>519.0</ele><time>2026-05-02T08:53:48.755Z</time></trkpt><trkpt lat="44.6253955" lon="9.9600211"><ele>521.6</ele><time>2026-05-02T08:53:50.755Z</time></trkpt><trkpt lat="44.625476" lon="9.9599493"><ele>524.2</ele><time>2026-05-02T08:53:51.756Z</time></trkpt><trkpt lat="44.6255437" lon="9.9599042"><ele>526.8000000000001</ele><time>2026-05-02T08:53:52.755Z</time></trkpt><trkpt lat="44.6256005" lon="9.9598494"><ele>529.4</ele><time>2026-05-02T08:53:53.755Z</time></trkpt><trkpt lat="44.6256568" lon="9.9597315"><ele>532.0</ele><time>2026-05-02T08:53:55.755Z</time></trkpt><trkpt lat="44.6256639" lon="9.9595715"><ele>532.0</ele><time>2026-05-02T08:53:57.755Z</time></trkpt><trkpt lat="44.6256615" lon="9.9594261"><ele>532.0</ele><time>2026-05-02T08:53:59.755Z</time></trkpt><trkpt lat="44.6256904" lon="9.9592934"><ele>532.0</ele><time>2026-05-02T08:54:01.757Z</time></trkpt><trkpt lat="44.6257435" lon="9.9591805"><ele>532.0</ele><time>2026-05-02T08:54:03.756Z</time></trkpt><trkpt lat="44.6257548" lon="9.959075"><ele>532.0</ele><time>2026-05-02T08:54:06.755Z</time></trkpt><trkpt lat="44.625721" lon="9.9589796"><ele>535.6</ele><time>2026-05-02T08:54:08.756Z</time></trkpt><trkpt lat="44.6257609" lon="9.9588728"><ele>539.2</ele><time>2026-05-02T08:54:11.755Z</time></trkpt><trkpt lat="44.6258789" lon="9.9588888"><ele>542.8</ele><time>2026-05-02T08:54:13.755Z</time></trkpt><trkpt lat="44.6259878" lon="9.9588472"><ele>546.4</ele><time>2026-05-02T08:54:15.755Z</time></trkpt><trkpt lat="44.6260328" lon="9.9587813"><ele>550.0</ele><time>2026-05-02T08:54:16.756Z</time></trkpt><trkpt lat="44.6260689" lon="9.9586787"><ele>550.0</ele><time>2026-05-02T08:54:17.756Z</time></trkpt><trkpt lat="44.6260947" lon="9.9585497"><ele>550.0</ele><time>2026-05-02T08:54:18.757Z</time></trkpt><trkpt lat="44.6261186" lon="9.9584112"><ele>550.0</ele><time>2026-05-02T08:54:19.755Z</time></trkpt><trkpt lat="44.6261386" lon="9.958256"><ele>550.0</ele><time>2026-05-02T08:54:20.755Z</time></trkpt><trkpt lat="44.6261588" lon="9.9580915"><ele>550.0</ele><time>2026-05-02T08:54:21.755Z</time></trkpt><trkpt lat="44.626175" lon="9.9579271"><ele>552.6</ele><time>2026-05-02T08:54:22.756Z</time></trkpt><trkpt lat="44.6261882" lon="9.9577664"><ele>555.2</ele><time>2026-05-02T08:54:23.755Z</time></trkpt><trkpt lat="44.6262016" lon="9.9576155"><ele>557.8</ele><time>2026-05-02T08:54:24.755Z</time></trkpt><trkpt lat="44.6262238" lon="9.957483"><ele>560.4</ele><time>2026-05-02T08:54:25.757Z</time></trkpt><trkpt lat="44.6262603" lon="9.9573663"><ele>563.0</ele><time>2026-05-02T08:54:26.755Z</time></trkpt><trkpt lat="44.6263143" lon="9.9572777"><ele>566.1999999999999</ele><time>2026-05-02T08:54:27.755Z</time></trkpt><trkpt lat="44.6263852" lon="9.9571985"><ele>569.4</ele><time>2026-05-02T08:54:28.755Z</time></trkpt><trkpt lat="44.6264699" lon="9.9571323"><ele>572.5999999999999</ele><time>2026-05-02T08:54:29.755Z</time></trkpt><trkpt lat="44.6265547" lon="9.9570829"><ele>575.8</ele><time>2026-05-02T08:54:30.756Z</time></trkpt><trkpt lat="44.6266527" lon="9.9570891"><ele>579.0</ele><time>2026-05-02T08:54:31.755Z</time></trkpt><trkpt lat="44.6267471" lon="9.957097"><ele>579.0</ele><time>2026-05-02T08:54:32.755Z</time></trkpt><trkpt lat="44.6268462" lon="9.9571335"><ele>579.0</ele><time>2026-05-02T08:54:33.755Z</time></trkpt><trkpt lat="44.6269417" lon="9.9571738"><ele>579.0</ele><time>2026-05-02T08:54:34.756Z</time></trkpt><trkpt lat="44.6270422" lon="9.9572346"><ele>579.0</ele><time>2026-05-02T08:54:35.755Z</time></trkpt><trkpt lat="44.6271292" lon="9.9572738"><ele>579.0</ele><time>2026-05-02T08:54:36.756Z</time></trkpt><trkpt lat="44.6272124" lon="9.9572972"><ele>579.5714285714286</ele><time>2026-05-02T08:54:37.755Z</time></trkpt><trkpt lat="44.6272889" lon="9.9572889"><ele>580.1428571428571</ele><time>2026-05-02T08:54:38.755Z</time></trkpt><trkpt lat="44.6273533" lon="9.957265"><ele>580.7142857142858</ele><time>2026-05-02T08:54:39.755Z</time></trkpt><trkpt lat="44.6274153" lon="9.9572059"><ele>581.2857142857142</ele><time>2026-05-02T08:54:40.756Z</time></trkpt><trkpt lat="44.6274645" lon="9.957141"><ele>581.8571428571429</ele><time>2026-05-02T08:54:41.756Z</time></trkpt><trkpt lat="44.6275183" lon="9.9570723"><ele>582.4285714285714</ele><time>2026-05-02T08:54:42.755Z</time></trkpt><trkpt lat="44.6275816" lon="9.9570209"><ele>583.0</ele><time>2026-05-02T08:54:43.755Z</time></trkpt><trkpt lat="44.6276557" lon="9.9569949"><ele>583.0</ele><time>2026-05-02T08:54:44.755Z</time></trkpt><trkpt lat="44.6277423" lon="9.956989"><ele>583.0</ele><time>2026-05-02T08:54:45.755Z</time></trkpt><trkpt lat="44.6278262" lon="9.9569848"><ele>583.0</ele><time>2026-05-02T08:54:46.755Z</time></trkpt><trkpt lat="44.6279133" lon="9.9570096"><ele>583.0</ele><time>2026-05-02T08:54:47.755Z</time></trkpt><trkpt lat="44.6279937" lon="9.9570072"><ele>583.0</ele><time>2026-05-02T08:54:48.756Z</time></trkpt><trkpt lat="44.6280641" lon="9.9570052"><ele>583.0</ele><time>2026-05-02T08:54:49.755Z</time></trkpt><trkpt lat="44.6281639" lon="9.9569645"><ele>581.8</ele><time>2026-05-02T08:54:51.755Z</time></trkpt><trkpt lat="44.6281847" lon="9.9568732"><ele>580.5999999999999</ele><time>2026-05-02T08:54:53.755Z</time></trkpt><trkpt lat="44.6281374" lon="9.9568035"><ele>579.4000000000001</ele><time>2026-05-02T08:54:55.756Z</time></trkpt><trkpt lat="44.6280038" lon="9.9567354"><ele>578.2</ele><time>2026-05-02T08:54:57.755Z</time></trkpt><trkpt lat="44.627936" lon="9.9566908"><ele>577.0</ele><time>2026-05-02T08:54:58.755Z</time></trkpt><trkpt lat="44.6278346" lon="9.9566297"><ele>583.0</ele><time>2026-05-02T08:54:59.755Z</time></trkpt><trkpt lat="44.6277069" lon="9.9565692"><ele>589.0</ele><time>2026-05-02T08:55:00.756Z</time></trkpt><trkpt lat="44.6275658" lon="9.9565541"><ele>595.0</ele><time>2026-05-02T08:55:01.755Z</time></trkpt><trkpt lat="44.6274389" lon="9.9566093"><ele>601.0</ele><time>2026-05-02T08:55:02.755Z</time></trkpt><trkpt lat="44.6273249" lon="9.9566093"><ele>601.0</ele><time>2026-05-02T08:55:03.755Z</time></trkpt><trkpt lat="44.6272435" lon="9.9566451"><ele>601.0</ele><time>2026-05-02T08:55:05.755Z</time></trkpt><trkpt lat="44.6271754" lon="9.956611"><ele>601.0</ele><time>2026-05-02T08:55:08.755Z</time></trkpt><trkpt lat="44.6272039" lon="9.9565149"><ele>601.0</ele><time>2026-05-02T08:55:11.755Z</time></trkpt><trkpt lat="44.6271599" lon="9.9564484"><ele>601.0</ele><time>2026-05-02T08:56:19.755Z</time></trkpt><trkpt lat="44.627226" lon="9.9563723"><ele>601.0</ele><time>2026-05-02T08:56:21.755Z</time></trkpt><trkpt lat="44.6272852" lon="9.9563367"><ele>601.0</ele><time>2026-05-02T08:56:22.756Z</time></trkpt><trkpt lat="44.6273423" lon="9.956299"><ele>601.0</ele><time>2026-05-02T08:56:23.755Z</time></trkpt><trkpt lat="44.6274651" lon="9.9562006"><ele>601.0</ele><time>2026-05-02T08:56:25.756Z</time></trkpt><trkpt lat="44.6275481" lon="9.9561529"><ele>601.0</ele><time>2026-05-02T08:56:26.755Z</time></trkpt><trkpt lat="44.627623" lon="9.9560978"><ele>601.0</ele><time>2026-05-02T08:56:27.755Z</time></trkpt><trkpt lat="44.6276989" lon="9.9560304"><ele>601.0</ele><time>2026-05-02T08:56:28.755Z</time></trkpt><trkpt lat="44.6277762" lon="9.9559575"><ele>599.8</ele><time>2026-05-02T08:56:29.755Z</time></trkpt><trkpt lat="44.6278504" lon="9.955885"><ele>598.6</ele><time>2026-05-02T08:56:30.755Z</time></trkpt><trkpt lat="44.6279243" lon="9.9558017"><ele>597.4</ele><time>2026-05-02T08:56:31.755Z</time></trkpt><trkpt lat="44.6279985" lon="9.9557109"><ele>596.2</ele><time>2026-05-02T08:56:32.755Z</time></trkpt><trkpt lat="44.6280744" lon="9.9556167"><ele>595.0</ele><time>2026-05-02T08:56:33.755Z</time></trkpt><trkpt lat="44.6281488" lon="9.9555185"><ele>598.8</ele><time>2026-05-02T08:56:34.755Z</time></trkpt><trkpt lat="44.6282269" lon="9.9554261"><ele>602.6</ele><time>2026-05-02T08:56:35.756Z</time></trkpt><trkpt lat="44.6283087" lon="9.9553475"><ele>606.4</ele><time>2026-05-02T08:56:36.755Z</time></trkpt><trkpt lat="44.6283964" lon="9.9552785"><ele>610.2</ele><time>2026-05-02T08:56:37.755Z</time></trkpt><trkpt lat="44.6284764" lon="9.9552122"><ele>614.0</ele><time>2026-05-02T08:56:38.755Z</time></trkpt><trkpt lat="44.6285514" lon="9.9551555"><ele>614.0</ele><time>2026-05-02T08:56:39.756Z</time></trkpt><trkpt lat="44.6286059" lon="9.9550818"><ele>614.0</ele><time>2026-05-02T08:56:40.755Z</time></trkpt><trkpt lat="44.6286302" lon="9.9549975"><ele>614.0</ele><time>2026-05-02T08:56:41.755Z</time></trkpt><trkpt lat="44.6285696" lon="9.9548616"><ele>614.0</ele><time>2026-05-02T08:56:43.755Z</time></trkpt><trkpt lat="44.6284996" lon="9.954839"><ele>614.0</ele><time>2026-05-02T08:56:44.755Z</time></trkpt><trkpt lat="44.6284189" lon="9.9548315"><ele>614.0</ele><time>2026-05-02T08:56:45.755Z</time></trkpt><trkpt lat="44.6283424" lon="9.9548119"><ele>616.8</ele><time>2026-05-02T08:56:46.755Z</time></trkpt><trkpt lat="44.6282578" lon="9.9548015"><ele>619.5999999999999</ele><time>2026-05-02T08:56:47.755Z</time></trkpt><trkpt lat="44.6281748" lon="9.9547877"><ele>622.4</ele><time>2026-05-02T08:56:48.755Z</time></trkpt><trkpt lat="44.6280855" lon="9.9547781"><ele>625.1999999999999</ele><time>2026-05-02T08:56:49.755Z</time></trkpt><trkpt lat="44.6279901" lon="9.9548413"><ele>628.0</ele><time>2026-05-02T08:56:50.755Z</time></trkpt><trkpt lat="44.6279087" lon="9.9548942"><ele>628.0</ele><time>2026-05-02T08:56:51.755Z</time></trkpt><trkpt lat="44.6278345" lon="9.9549582"><ele>628.0</ele><time>2026-05-02T08:56:52.755Z</time></trkpt><trkpt lat="44.6277604" lon="9.9550222"><ele>628.0</ele><time>2026-05-02T08:56:53.756Z</time></trkpt><trkpt lat="44.627686" lon="9.9550663"><ele>628.0</ele><time>2026-05-02T08:56:54.756Z</time></trkpt><trkpt lat="44.6275988" lon="9.9551215"><ele>628.0</ele><time>2026-05-02T08:56:55.755Z</time></trkpt><trkpt lat="44.6275023" lon="9.9551473"><ele>628.0</ele><time>2026-05-02T08:56:56.755Z</time></trkpt><trkpt lat="44.6273984" lon="9.9551389"><ele>627.4</ele><time>2026-05-02T08:56:57.756Z</time></trkpt><trkpt lat="44.6272952" lon="9.9551565"><ele>626.8</ele><time>2026-05-02T08:56:58.755Z</time></trkpt><trkpt lat="44.6271892" lon="9.9551616"><ele>626.2</ele><time>2026-05-02T08:56:59.755Z</time></trkpt><trkpt lat="44.6270843" lon="9.9551457"><ele>625.6</ele><time>2026-05-02T08:57:00.755Z</time></trkpt><trkpt lat="44.6269768" lon="9.9551268"><ele>625.0</ele><time>2026-05-02T08:57:01.756Z</time></trkpt><trkpt lat="44.6268653" lon="9.9550681"><ele>625.0</ele><time>2026-05-02T08:57:02.755Z</time></trkpt><trkpt lat="44.6267496" lon="9.9550379"><ele>625.0</ele><time>2026-05-02T08:57:03.755Z</time></trkpt><trkpt lat="44.6266335" lon="9.9550142"><ele>625.0</ele><time>2026-05-02T08:57:04.755Z</time></trkpt><trkpt lat="44.6265268" lon="9.9549704"><ele>625.0</ele><time>2026-05-02T08:57:05.755Z</time></trkpt><trkpt lat="44.6264251" lon="9.9548923"><ele>626.75</ele><time>2026-05-02T08:57:06.756Z</time></trkpt><trkpt lat="44.6263233" lon="9.9547977"><ele>628.5</ele><time>2026-05-02T08:57:07.756Z</time></trkpt><trkpt lat="44.6262233" lon="9.9546978"><ele>630.25</ele><time>2026-05-02T08:57:08.755Z</time></trkpt><trkpt lat="44.6261326" lon="9.9545854"><ele>632.0</ele><time>2026-05-02T08:57:09.755Z</time></trkpt><trkpt lat="44.626039" lon="9.9544716"><ele>632.0</ele><time>2026-05-02T08:57:10.755Z</time></trkpt><trkpt lat="44.625951" lon="9.954354"><ele>632.0</ele><time>2026-05-02T08:57:11.756Z</time></trkpt><trkpt lat="44.6258642" lon="9.9542353"><ele>632.0</ele><time>2026-05-02T08:57:12.755Z</time></trkpt><trkpt lat="44.6257804" lon="9.9541218"><ele>632.0</ele><time>2026-05-02T08:57:13.756Z</time></trkpt><trkpt lat="44.6257058" lon="9.9539971"><ele>634.0</ele><time>2026-05-02T08:57:14.755Z</time></trkpt><trkpt lat="44.625628" lon="9.953871"><ele>636.0</ele><time>2026-05-02T08:57:15.755Z</time></trkpt><trkpt lat="44.625559" lon="9.9537379"><ele>638.0</ele><time>2026-05-02T08:57:16.755Z</time></trkpt><trkpt lat="44.6254938" lon="9.9536023"><ele>640.0</ele><time>2026-05-02T08:57:17.755Z</time></trkpt><trkpt lat="44.6254272" lon="9.9534649"><ele>643.75</ele><time>2026-05-02T08:57:18.755Z</time></trkpt><trkpt lat="44.6253481" lon="9.9533383"><ele>647.5</ele><time>2026-05-02T08:57:19.756Z</time></trkpt><trkpt lat="44.6252505" lon="9.9532419"><ele>651.25</ele><time>2026-05-02T08:57:20.755Z</time></trkpt><trkpt lat="44.6251366" lon="9.9531858"><ele>655.0</ele><time>2026-05-02T08:57:21.755Z</time></trkpt><trkpt lat="44.6250201" lon="9.9531414"><ele>655.0</ele><time>2026-05-02T08:57:22.755Z</time></trkpt><trkpt lat="44.6249026" lon="9.9531014"><ele>655.0</ele><time>2026-05-02T08:57:23.756Z</time></trkpt><trkpt lat="44.6247889" lon="9.9530798"><ele>655.0</ele><time>2026-05-02T08:57:24.755Z</time></trkpt><trkpt lat="44.6246693" lon="9.9531157"><ele>655.0</ele><time>2026-05-02T08:57:25.755Z</time></trkpt><trkpt lat="44.6245602" lon="9.9531789"><ele>658.75</ele><time>2026-05-02T08:57:26.755Z</time></trkpt><trkpt lat="44.6244504" lon="9.9532681"><ele>662.5</ele><time>2026-05-02T08:57:27.755Z</time></trkpt><trkpt lat="44.6243498" lon="9.9533507"><ele>666.25</ele><time>2026-05-02T08:57:28.757Z</time></trkpt><trkpt lat="44.6242439" lon="9.9534435"><ele>670.0</ele><time>2026-05-02T08:57:29.755Z</time></trkpt><trkpt lat="44.624138" lon="9.9535282"><ele>660.25</ele><time>2026-05-02T08:57:30.756Z</time></trkpt><trkpt lat="44.624035" lon="9.953611"><ele>650.5</ele><time>2026-05-02T08:57:31.755Z</time></trkpt><trkpt lat="44.6239308" lon="9.9536958"><ele>640.75</ele><time>2026-05-02T08:57:32.755Z</time></trkpt><trkpt lat="44.6238221" lon="9.9537686"><ele>631.0</ele><time>2026-05-02T08:57:33.756Z</time></trkpt><trkpt lat="44.6237093" lon="9.9538205"><ele>634.0</ele><time>2026-05-02T08:57:34.755Z</time></trkpt><trkpt lat="44.6235976" lon="9.9538652"><ele>637.0</ele><time>2026-05-02T08:57:35.755Z</time></trkpt><trkpt lat="44.62349" lon="9.9538965"><ele>640.0</ele><time>2026-05-02T08:57:36.755Z</time></trkpt><trkpt lat="44.6233997" lon="9.9538971"><ele>643.0</ele><time>2026-05-02T08:57:37.755Z</time></trkpt><trkpt lat="44.6233323" lon="9.9538555"><ele>646.0</ele><time>2026-05-02T08:57:38.755Z</time></trkpt><trkpt lat="44.6233006" lon="9.9537731"><ele>646.0</ele><time>2026-05-02T08:57:39.755Z</time></trkpt><trkpt lat="44.6233033" lon="9.9536714"><ele>646.0</ele><time>2026-05-02T08:57:40.756Z</time></trkpt><trkpt lat="44.6233378" lon="9.9535741"><ele>646.0</ele><time>2026-05-02T08:57:41.755Z</time></trkpt><trkpt lat="44.6233819" lon="9.9534681"><ele>646.0</ele><time>2026-05-02T08:57:42.755Z</time></trkpt><trkpt lat="44.6234119" lon="9.9533499"><ele>646.0</ele><time>2026-05-02T08:57:43.755Z</time></trkpt><trkpt lat="44.6234318" lon="9.9532242"><ele>646.0</ele><time>2026-05-02T08:57:44.755Z</time></trkpt><trkpt lat="44.623452" lon="9.9531013"><ele>649.0</ele><time>2026-05-02T08:57:45.755Z</time></trkpt><trkpt lat="44.6234694" lon="9.9529782"><ele>652.0</ele><time>2026-05-02T08:57:46.755Z</time></trkpt><trkpt lat="44.6234862" lon="9.9528614"><ele>655.0</ele><time>2026-05-02T08:57:47.755Z</time></trkpt><trkpt lat="44.6234986" lon="9.9527366"><ele>658.0</ele><time>2026-05-02T08:57:48.755Z</time></trkpt><trkpt lat="44.6235226" lon="9.9526061"><ele>661.0</ele><time>2026-05-02T08:57:49.754Z</time></trkpt><trkpt lat="44.6235428" lon="9.9524803"><ele>661.1999999999999</ele><time>2026-05-02T08:57:50.754Z</time></trkpt><trkpt lat="44.6235614" lon="9.9523535"><ele>661.4</ele><time>2026-05-02T08:57:51.755Z</time></trkpt><trkpt lat="44.6235787" lon="9.9522254"><ele>661.6</ele><time>2026-05-02T08:57:52.754Z</time></trkpt><trkpt lat="44.6236084" lon="9.9521061"><ele>661.8</ele><time>2026-05-02T08:57:53.754Z</time></trkpt><trkpt lat="44.6236583" lon="9.9520029"><ele>662.0</ele><time>2026-05-02T08:57:54.754Z</time></trkpt><trkpt lat="44.6237307" lon="9.9519349"><ele>667.2</ele><time>2026-05-02T08:57:55.754Z</time></trkpt><trkpt lat="44.6238193" lon="9.9518883"><ele>672.4000000000001</ele><time>2026-05-02T08:57:56.754Z</time></trkpt><trkpt lat="44.6239068" lon="9.9518378"><ele>677.5999999999999</ele><time>2026-05-02T08:57:57.755Z</time></trkpt><trkpt lat="44.6239832" lon="9.9517542"><ele>682.8</ele><time>2026-05-02T08:57:58.754Z</time></trkpt><trkpt lat="44.6240358" lon="9.9516428"><ele>688.0</ele><time>2026-05-02T08:57:59.755Z</time></trkpt><trkpt lat="44.6240692" lon="9.9515195"><ele>688.0</ele><time>2026-05-02T08:58:00.754Z</time></trkpt><trkpt lat="44.6240841" lon="9.9513865"><ele>688.0</ele><time>2026-05-02T08:58:01.754Z</time></trkpt><trkpt lat="44.6240953" lon="9.9512456"><ele>688.0</ele><time>2026-05-02T08:58:02.754Z</time></trkpt><trkpt lat="44.624113" lon="9.9511073"><ele>688.0</ele><time>2026-05-02T08:58:03.754Z</time></trkpt><trkpt lat="44.6241321" lon="9.9509621"><ele>688.0</ele><time>2026-05-02T08:58:04.755Z</time></trkpt><trkpt lat="44.6241611" lon="9.9508138"><ele>687.5999999999999</ele><time>2026-05-02T08:58:05.754Z</time></trkpt><trkpt lat="44.6241961" lon="9.9506659"><ele>687.1999999999999</ele><time>2026-05-02T08:58:06.754Z</time></trkpt><trkpt lat="44.6242339" lon="9.9505156"><ele>686.8</ele><time>2026-05-02T08:58:07.754Z</time></trkpt><trkpt lat="44.6242525" lon="9.9503563"><ele>686.4</ele><time>2026-05-02T08:58:08.754Z</time></trkpt><trkpt lat="44.6242608" lon="9.9502038"><ele>686.0</ele><time>2026-05-02T08:58:09.754Z</time></trkpt><trkpt lat="44.62423" lon="9.9500252"><ele>686.0</ele><time>2026-05-02T08:58:10.754Z</time></trkpt><trkpt lat="44.6242111" lon="9.9498568"><ele>686.0</ele><time>2026-05-02T08:58:11.755Z</time></trkpt><trkpt lat="44.6241788" lon="9.9496851"><ele>686.0</ele><time>2026-05-02T08:58:12.754Z</time></trkpt><trkpt lat="44.6242291" lon="9.9495132"><ele>686.0</ele><time>2026-05-02T08:58:13.755Z</time></trkpt><trkpt lat="44.6242615" lon="9.9493441"><ele>685.75</ele><time>2026-05-02T08:58:14.754Z</time></trkpt><trkpt lat="44.6243108" lon="9.9491841"><ele>685.5</ele><time>2026-05-02T08:58:15.754Z</time></trkpt><trkpt lat="44.6243628" lon="9.9490154"><ele>685.25</ele><time>2026-05-02T08:58:16.754Z</time></trkpt><trkpt lat="44.6244036" lon="9.9488513"><ele>685.0</ele><time>2026-05-02T08:58:17.754Z</time></trkpt><trkpt lat="44.6244261" lon="9.9486782"><ele>685.0</ele><time>2026-05-02T08:58:18.754Z</time></trkpt><trkpt lat="44.624432" lon="9.9485134"><ele>685.0</ele><time>2026-05-02T08:58:19.754Z</time></trkpt><trkpt lat="44.624423" lon="9.9483523"><ele>685.0</ele><time>2026-05-02T08:58:20.754Z</time></trkpt><trkpt lat="44.6244245" lon="9.9481986"><ele>685.0</ele><time>2026-05-02T08:58:21.754Z</time></trkpt><trkpt lat="44.6244953" lon="9.9481307"><ele>685.0</ele><time>2026-05-02T08:58:22.754Z</time></trkpt><trkpt lat="44.6245622" lon="9.9480743"><ele>691.6</ele><time>2026-05-02T08:58:23.754Z</time></trkpt><trkpt lat="44.6246537" lon="9.948039"><ele>698.2</ele><time>2026-05-02T08:58:24.754Z</time></trkpt><trkpt lat="44.6247396" lon="9.947965"><ele>704.8</ele><time>2026-05-02T08:58:25.755Z</time></trkpt><trkpt lat="44.6248031" lon="9.9478445"><ele>711.4</ele><time>2026-05-02T08:58:26.754Z</time></trkpt><trkpt lat="44.6248499" lon="9.9477167"><ele>718.0</ele><time>2026-05-02T08:58:27.754Z</time></trkpt><trkpt lat="44.6249083" lon="9.947588"><ele>715.5</ele><time>2026-05-02T08:58:28.754Z</time></trkpt><trkpt lat="44.624977" lon="9.947468"><ele>713.0</ele><time>2026-05-02T08:58:29.754Z</time></trkpt><trkpt lat="44.6250549" lon="9.9473584"><ele>710.5</ele><time>2026-05-02T08:58:30.754Z</time></trkpt><trkpt lat="44.6251351" lon="9.9472417"><ele>708.0</ele><time>2026-05-02T08:58:31.754Z</time></trkpt><trkpt lat="44.6252165" lon="9.9471191"><ele>708.0</ele><time>2026-05-02T08:58:32.754Z</time></trkpt><trkpt lat="44.6252889" lon="9.9469888"><ele>708.0</ele><time>2026-05-02T08:58:33.754Z</time></trkpt><trkpt lat="44.6253575" lon="9.9468511"><ele>708.0</ele><time>2026-05-02T08:58:34.754Z</time></trkpt><trkpt lat="44.6254245" lon="9.9467036"><ele>708.0</ele><time>2026-05-02T08:58:35.754Z</time></trkpt><trkpt lat="44.6254761" lon="9.9465495"><ele>714.75</ele><time>2026-05-02T08:58:36.754Z</time></trkpt><trkpt lat="44.6254953" lon="9.9463834"><ele>721.5</ele><time>2026-05-02T08:58:37.754Z</time></trkpt><trkpt lat="44.6255091" lon="9.946222"><ele>728.25</ele><time>2026-05-02T08:58:38.754Z</time></trkpt><trkpt lat="44.625456" lon="9.9460463"><ele>735.0</ele><time>2026-05-02T08:58:39.754Z</time></trkpt><trkpt lat="44.625421" lon="9.9458935"><ele>733.75</ele><time>2026-05-02T08:58:40.755Z</time></trkpt><trkpt lat="44.6254147" lon="9.9457352"><ele>732.5</ele><time>2026-05-02T08:58:41.754Z</time></trkpt><trkpt lat="44.6254409" lon="9.9455854"><ele>731.25</ele><time>2026-05-02T08:58:42.755Z</time></trkpt><trkpt lat="44.6254823" lon="9.9454346"><ele>730.0</ele><time>2026-05-02T08:58:43.754Z</time></trkpt><trkpt lat="44.6255345" lon="9.9452744"><ele>730.0</ele><time>2026-05-02T08:58:44.754Z</time></trkpt><trkpt lat="44.6255851" lon="9.9451135"><ele>730.0</ele><time>2026-05-02T08:58:45.756Z</time></trkpt><trkpt lat="44.6256362" lon="9.9449503"><ele>730.0</ele><time>2026-05-02T08:58:46.754Z</time></trkpt><trkpt lat="44.6256831" lon="9.9447761"><ele>730.0</ele><time>2026-05-02T08:58:47.754Z</time></trkpt><trkpt lat="44.6257247" lon="9.9445975"><ele>728.75</ele><time>2026-05-02T08:58:48.754Z</time></trkpt><trkpt lat="44.6257622" lon="9.9444185"><ele>727.5</ele><time>2026-05-02T08:58:49.754Z</time></trkpt><trkpt lat="44.6257937" lon="9.9442496"><ele>726.25</ele><time>2026-05-02T08:58:50.754Z</time></trkpt><trkpt lat="44.6258231" lon="9.9440952"><ele>725.0</ele><time>2026-05-02T08:58:51.754Z</time></trkpt><trkpt lat="44.6258548" lon="9.9439526"><ele>724.8333333333333</ele><time>2026-05-02T08:58:52.754Z</time></trkpt><trkpt lat="44.6258829" lon="9.9438248"><ele>724.6666666666666</ele><time>2026-05-02T08:58:53.755Z</time></trkpt><trkpt lat="44.6259066" lon="9.9437087"><ele>724.5</ele><time>2026-05-02T08:58:54.754Z</time></trkpt><trkpt lat="44.6259087" lon="9.9436018"><ele>724.3333333333334</ele><time>2026-05-02T08:58:55.755Z</time></trkpt><trkpt lat="44.6259023" lon="9.9435015"><ele>724.1666666666667</ele><time>2026-05-02T08:58:56.755Z</time></trkpt><trkpt lat="44.6258819" lon="9.9434095"><ele>724.0</ele><time>2026-05-02T08:58:57.754Z</time></trkpt><trkpt lat="44.6258634" lon="9.9433172"><ele>724.2857142857142</ele><time>2026-05-02T08:58:58.754Z</time></trkpt><trkpt lat="44.6258388" lon="9.9432241"><ele>724.5714285714286</ele><time>2026-05-02T08:58:59.754Z</time></trkpt><trkpt lat="44.6258162" lon="9.9431385"><ele>724.8571428571429</ele><time>2026-05-02T08:59:00.754Z</time></trkpt><trkpt lat="44.6257878" lon="9.9430501"><ele>725.1428571428571</ele><time>2026-05-02T08:59:01.754Z</time></trkpt><trkpt lat="44.6257539" lon="9.9429588"><ele>725.4285714285714</ele><time>2026-05-02T08:59:02.754Z</time></trkpt><trkpt lat="44.6257267" lon="9.9428599"><ele>725.7142857142857</ele><time>2026-05-02T08:59:03.754Z</time></trkpt><trkpt lat="44.6257027" lon="9.9427588"><ele>726.0</ele><time>2026-05-02T08:59:04.754Z</time></trkpt><trkpt lat="44.625683" lon="9.9426541"><ele>726.6666666666666</ele><time>2026-05-02T08:59:05.755Z</time></trkpt><trkpt lat="44.6256638" lon="9.9425448"><ele>727.3333333333334</ele><time>2026-05-02T08:59:06.754Z</time></trkpt><trkpt lat="44.6256354" lon="9.942444"><ele>728.0</ele><time>2026-05-02T08:59:07.754Z</time></trkpt><trkpt lat="44.6256083" lon="9.9423399"><ele>728.6666666666667</ele><time>2026-05-02T08:59:08.755Z</time></trkpt><trkpt lat="44.6255699" lon="9.9422446"><ele>729.3333333333334</ele><time>2026-05-02T08:59:09.754Z</time></trkpt><trkpt lat="44.625531" lon="9.942151"><ele>730.0</ele><time>2026-05-02T08:59:10.752Z</time></trkpt><trkpt lat="44.6254857" lon="9.9420391"><ele>730.0</ele><time>2026-05-02T08:59:11.754Z</time></trkpt><trkpt lat="44.625438" lon="9.9419236"><ele>730.0</ele><time>2026-05-02T08:59:12.754Z</time></trkpt><trkpt lat="44.6253827" lon="9.9418025"><ele>730.0</ele><time>2026-05-02T08:59:13.754Z</time></trkpt><trkpt lat="44.6253303" lon="9.9416759"><ele>730.0</ele><time>2026-05-02T08:59:14.754Z</time></trkpt><trkpt lat="44.6252764" lon="9.9415486"><ele>730.0</ele><time>2026-05-02T08:59:15.754Z</time></trkpt><trkpt lat="44.6252178" lon="9.9414218"><ele>728.8</ele><time>2026-05-02T08:59:16.754Z</time></trkpt><trkpt lat="44.6251592" lon="9.9412991"><ele>727.6</ele><time>2026-05-02T08:59:17.754Z</time></trkpt><trkpt lat="44.6250832" lon="9.9411908"><ele>726.4000000000001</ele><time>2026-05-02T08:59:18.754Z</time></trkpt><trkpt lat="44.6249946" lon="9.9411121"><ele>725.2</ele><time>2026-05-02T08:59:19.754Z</time></trkpt><trkpt lat="44.6248991" lon="9.9410566"><ele>724.0</ele><time>2026-05-02T08:59:20.754Z</time></trkpt><trkpt lat="44.6248006" lon="9.9410071"><ele>724.0</ele><time>2026-05-02T08:59:21.754Z</time></trkpt><trkpt lat="44.6247041" lon="9.9409551"><ele>724.0</ele><time>2026-05-02T08:59:22.754Z</time></trkpt><trkpt lat="44.6246043" lon="9.9409049"><ele>724.0</ele><time>2026-05-02T08:59:23.754Z</time></trkpt><trkpt lat="44.6245007" lon="9.940855"><ele>724.0</ele><time>2026-05-02T08:59:24.755Z</time></trkpt><trkpt lat="44.6243953" lon="9.9408118"><ele>724.0</ele><time>2026-05-02T08:59:25.754Z</time></trkpt><trkpt lat="44.6242882" lon="9.9407688"><ele>726.0</ele><time>2026-05-02T08:59:26.754Z</time></trkpt><trkpt lat="44.624181" lon="9.9407237"><ele>728.0</ele><time>2026-05-02T08:59:27.754Z</time></trkpt><trkpt lat="44.6240712" lon="9.9406751"><ele>730.0</ele><time>2026-05-02T08:59:28.754Z</time></trkpt><trkpt lat="44.62396" lon="9.940619"><ele>732.0</ele><time>2026-05-02T08:59:29.754Z</time></trkpt><trkpt lat="44.6238496" lon="9.9405615"><ele>732.0</ele><time>2026-05-02T08:59:30.754Z</time></trkpt><trkpt lat="44.6237384" lon="9.9405071"><ele>732.0</ele><time>2026-05-02T08:59:31.754Z</time></trkpt><trkpt lat="44.6236252" lon="9.940459"><ele>732.0</ele><time>2026-05-02T08:59:32.755Z</time></trkpt><trkpt lat="44.6235127" lon="9.940412"><ele>732.0</ele><time>2026-05-02T08:59:33.754Z</time></trkpt><trkpt lat="44.6234026" lon="9.9403563"><ele>732.5</ele><time>2026-05-02T08:59:34.754Z</time></trkpt><trkpt lat="44.6232887" lon="9.9403037"><ele>733.0</ele><time>2026-05-02T08:59:35.755Z</time></trkpt><trkpt lat="44.6231775" lon="9.9402511"><ele>733.5</ele><time>2026-05-02T08:59:36.755Z</time></trkpt><trkpt lat="44.6230667" lon="9.9402027"><ele>734.0</ele><time>2026-05-02T08:59:37.754Z</time></trkpt><trkpt lat="44.6229541" lon="9.9401491"><ele>734.0</ele><time>2026-05-02T08:59:38.754Z</time></trkpt><trkpt lat="44.6228381" lon="9.9400989"><ele>734.0</ele><time>2026-05-02T08:59:39.754Z</time></trkpt><trkpt lat="44.6227215" lon="9.9400433"><ele>734.0</ele><time>2026-05-02T08:59:40.754Z</time></trkpt><trkpt lat="44.6226053" lon="9.9399859"><ele>734.0</ele><time>2026-05-02T08:59:41.754Z</time></trkpt><trkpt lat="44.622495" lon="9.9399295"><ele>736.2</ele><time>2026-05-02T08:59:42.755Z</time></trkpt><trkpt lat="44.6223895" lon="9.9398748"><ele>738.4000000000001</ele><time>2026-05-02T08:59:43.754Z</time></trkpt><trkpt lat="44.6222927" lon="9.9398302"><ele>740.6</ele><time>2026-05-02T08:59:44.755Z</time></trkpt><trkpt lat="44.622208" lon="9.9397929"><ele>742.8</ele><time>2026-05-02T08:59:45.754Z</time></trkpt><trkpt lat="44.6221379" lon="9.9397486"><ele>745.0</ele><time>2026-05-02T08:59:46.754Z</time></trkpt><trkpt lat="44.6220567" lon="9.9397115"><ele>745.75</ele><time>2026-05-02T08:59:47.754Z</time></trkpt><trkpt lat="44.6219581" lon="9.9396749"><ele>746.5</ele><time>2026-05-02T08:59:48.754Z</time></trkpt><trkpt lat="44.621848" lon="9.939623"><ele>747.25</ele><time>2026-05-02T08:59:49.754Z</time></trkpt><trkpt lat="44.621732" lon="9.9395732"><ele>748.0</ele><time>2026-05-02T08:59:50.754Z</time></trkpt><trkpt lat="44.6216113" lon="9.9395266"><ele>748.0</ele><time>2026-05-02T08:59:51.754Z</time></trkpt><trkpt lat="44.6215013" lon="9.9394787"><ele>748.0</ele><time>2026-05-02T08:59:52.755Z</time></trkpt><trkpt lat="44.6213941" lon="9.9394482"><ele>748.0</ele><time>2026-05-02T08:59:53.754Z</time></trkpt><trkpt lat="44.621291" lon="9.939453"><ele>748.0</ele><time>2026-05-02T08:59:54.754Z</time></trkpt><trkpt lat="44.6212071" lon="9.9394908"><ele>748.0</ele><time>2026-05-02T08:59:55.754Z</time></trkpt><trkpt lat="44.6211308" lon="9.9395559"><ele>748.5999999999999</ele><time>2026-05-02T08:59:56.754Z</time></trkpt><trkpt lat="44.6210538" lon="9.9396428"><ele>749.1999999999999</ele><time>2026-05-02T08:59:57.754Z</time></trkpt><trkpt lat="44.6209779" lon="9.9397369"><ele>749.8</ele><time>2026-05-02T08:59:58.754Z</time></trkpt><trkpt lat="44.6208916" lon="9.9398205"><ele>750.4</ele><time>2026-05-02T08:59:59.754Z</time></trkpt><trkpt lat="44.6208048" lon="9.9399066"><ele>751.0</ele><time>2026-05-02T09:00:00.754Z</time></trkpt><trkpt lat="44.6207091" lon="9.9400014"><ele>747.5999999999999</ele><time>2026-05-02T09:00:01.756Z</time></trkpt><trkpt lat="44.6206219" lon="9.9401003"><ele>744.2</ele><time>2026-05-02T09:00:02.754Z</time></trkpt><trkpt lat="44.6205422" lon="9.9401998"><ele>740.8</ele><time>2026-05-02T09:00:03.754Z</time></trkpt><trkpt lat="44.6204696" lon="9.9402842"><ele>737.4000000000001</ele><time>2026-05-02T09:00:04.754Z</time></trkpt><trkpt lat="44.6203957" lon="9.9403564"><ele>734.0</ele><time>2026-05-02T09:00:05.754Z</time></trkpt><trkpt lat="44.6203263" lon="9.9404014"><ele>733.5</ele><time>2026-05-02T09:00:06.755Z</time></trkpt><trkpt lat="44.6202548" lon="9.9404074"><ele>733.0</ele><time>2026-05-02T09:00:07.755Z</time></trkpt><trkpt lat="44.6201793" lon="9.9403784"><ele>732.5</ele><time>2026-05-02T09:00:08.755Z</time></trkpt><trkpt lat="44.6200981" lon="9.9403106"><ele>732.0</ele><time>2026-05-02T09:00:09.754Z</time></trkpt><trkpt lat="44.620017" lon="9.9402375"><ele>731.5</ele><time>2026-05-02T09:00:10.755Z</time></trkpt><trkpt lat="44.6199305" lon="9.9401553"><ele>731.0</ele><time>2026-05-02T09:00:11.754Z</time></trkpt><trkpt lat="44.6198437" lon="9.9400601"><ele>731.4</ele><time>2026-05-02T09:00:12.755Z</time></trkpt><trkpt lat="44.619749" lon="9.9399773"><ele>731.8</ele><time>2026-05-02T09:00:13.754Z</time></trkpt><trkpt lat="44.6196531" lon="9.9398971"><ele>732.1999999999999</ele><time>2026-05-02T09:00:14.754Z</time></trkpt><trkpt lat="44.6195531" lon="9.939827"><ele>732.5999999999999</ele><time>2026-05-02T09:00:15.754Z</time></trkpt><trkpt lat="44.6194484" lon="9.9397646"><ele>733.0</ele><time>2026-05-02T09:00:16.754Z</time></trkpt><trkpt lat="44.6193501" lon="9.9397071"><ele>733.0</ele><time>2026-05-02T09:00:17.754Z</time></trkpt><trkpt lat="44.619254" lon="9.9396433"><ele>733.0</ele><time>2026-05-02T09:00:18.755Z</time></trkpt><trkpt lat="44.6191717" lon="9.9395688"><ele>733.0</ele><time>2026-05-02T09:00:19.754Z</time></trkpt><trkpt lat="44.6191042" lon="9.9394983"><ele>733.0</ele><time>2026-05-02T09:00:20.755Z</time></trkpt><trkpt lat="44.6190438" lon="9.9394259"><ele>733.0</ele><time>2026-05-02T09:00:21.754Z</time></trkpt><trkpt lat="44.6189877" lon="9.9393573"><ele>733.0</ele><time>2026-05-02T09:00:22.755Z</time></trkpt><trkpt lat="44.6189355" lon="9.9392997"><ele>733.4</ele><time>2026-05-02T09:00:23.754Z</time></trkpt><trkpt lat="44.6188532" lon="9.93917"><ele>733.8</ele><time>2026-05-02T09:00:25.754Z</time></trkpt><trkpt lat="44.6188095" lon="9.9390601"><ele>734.2</ele><time>2026-05-02T09:00:27.755Z</time></trkpt><trkpt lat="44.6187475" lon="9.9389842"><ele>734.6</ele><time>2026-05-02T09:00:40.754Z</time></trkpt><trkpt lat="44.6186885" lon="9.938949"><ele>735.0</ele><time>2026-05-02T09:00:41.754Z</time></trkpt><trkpt lat="44.6186018" lon="9.9388827"><ele>735.0</ele><time>2026-05-02T09:00:42.754Z</time></trkpt><trkpt lat="44.6185262" lon="9.9388527"><ele>735.0</ele><time>2026-05-02T09:00:43.754Z</time></trkpt><trkpt lat="44.6184102" lon="9.9388103"><ele>735.0</ele><time>2026-05-02T09:00:44.755Z</time></trkpt><trkpt lat="44.6183078" lon="9.9388517"><ele>735.0</ele><time>2026-05-02T09:00:45.754Z</time></trkpt><trkpt lat="44.6181956" lon="9.9388768"><ele>735.0</ele><time>2026-05-02T09:00:46.755Z</time></trkpt><trkpt lat="44.6180883" lon="9.9388891"><ele>735.0</ele><time>2026-05-02T09:00:47.754Z</time></trkpt><trkpt lat="44.6179843" lon="9.9388982"><ele>735.0</ele><time>2026-05-02T09:00:48.755Z</time></trkpt><trkpt lat="44.6178832" lon="9.9389141"><ele>735.0</ele><time>2026-05-02T09:00:49.754Z</time></trkpt><trkpt lat="44.6177951" lon="9.9389319"><ele>735.0</ele><time>2026-05-02T09:00:50.754Z</time></trkpt><trkpt lat="44.6177136" lon="9.9389789"><ele>735.0</ele><time>2026-05-02T09:00:51.754Z</time></trkpt><trkpt lat="44.6176343" lon="9.9390165"><ele>734.5</ele><time>2026-05-02T09:00:52.754Z</time></trkpt><trkpt lat="44.6175611" lon="9.9390603"><ele>734.0</ele><time>2026-05-02T09:00:53.754Z</time></trkpt><trkpt lat="44.6174856" lon="9.9391048"><ele>733.5</ele><time>2026-05-02T09:00:54.754Z</time></trkpt><trkpt lat="44.6174163" lon="9.9391572"><ele>733.0</ele><time>2026-05-02T09:00:55.754Z</time></trkpt><trkpt lat="44.6173461" lon="9.9392181"><ele>732.5</ele><time>2026-05-02T09:00:56.754Z</time></trkpt><trkpt lat="44.6172535" lon="9.9392469"><ele>732.0</ele><time>2026-05-02T09:00:57.754Z</time></trkpt><trkpt lat="44.6171789" lon="9.9392719"><ele>729.6666666666666</ele><time>2026-05-02T09:00:58.754Z</time></trkpt><trkpt lat="44.6171039" lon="9.9393021"><ele>727.3333333333334</ele><time>2026-05-02T09:00:59.755Z</time></trkpt><trkpt lat="44.6170311" lon="9.9393486"><ele>725.0</ele><time>2026-05-02T09:01:00.754Z</time></trkpt><trkpt lat="44.6169649" lon="9.9393736"><ele>722.6666666666667</ele><time>2026-05-02T09:01:01.755Z</time></trkpt><trkpt lat="44.6168712" lon="9.9394114"><ele>720.3333333333334</ele><time>2026-05-02T09:01:02.754Z</time></trkpt><trkpt lat="44.6168024" lon="9.9394641"><ele>718.0</ele><time>2026-05-02T09:01:03.755Z</time></trkpt><trkpt lat="44.6167194" lon="9.9394925"><ele>717.6666666666667</ele><time>2026-05-02T09:01:04.755Z</time></trkpt><trkpt lat="44.616642" lon="9.9395194"><ele>717.3333333333334</ele><time>2026-05-02T09:01:05.755Z</time></trkpt><trkpt lat="44.6165697" lon="9.9395218"><ele>717.0</ele><time>2026-05-02T09:01:06.754Z</time></trkpt><trkpt lat="44.6164963" lon="9.9395"><ele>716.6666666666666</ele><time>2026-05-02T09:01:07.754Z</time></trkpt><trkpt lat="44.6164271" lon="9.9394675"><ele>716.3333333333333</ele><time>2026-05-02T09:01:08.754Z</time></trkpt><trkpt lat="44.6163559" lon="9.9394289"><ele>716.0</ele><time>2026-05-02T09:01:09.754Z</time></trkpt><trkpt lat="44.6162944" lon="9.9393706"><ele>716.0000000000001</ele><time>2026-05-02T09:01:10.754Z</time></trkpt><trkpt lat="44.6162323" lon="9.9393148"><ele>716.0</ele><time>2026-05-02T09:01:11.754Z</time></trkpt><trkpt lat="44.6161672" lon="9.93926"><ele>716.0</ele><time>2026-05-02T09:01:12.754Z</time></trkpt><trkpt lat="44.6161034" lon="9.9392043"><ele>716.0</ele><time>2026-05-02T09:01:13.755Z</time></trkpt><trkpt lat="44.6160382" lon="9.93916"><ele>716.0</ele><time>2026-05-02T09:01:14.754Z</time></trkpt><trkpt lat="44.6159882" lon="9.9390865"><ele>716.0000000000001</ele><time>2026-05-02T09:01:15.755Z</time></trkpt><trkpt lat="44.6159485" lon="9.9389941"><ele>716.0</ele><time>2026-05-02T09:01:16.754Z</time></trkpt><trkpt lat="44.6159097" lon="9.9389058"><ele>715.5999999999999</ele><time>2026-05-02T09:01:17.754Z</time></trkpt><trkpt lat="44.6158325" lon="9.9387761"><ele>715.2</ele><time>2026-05-02T09:01:19.754Z</time></trkpt><trkpt lat="44.6157433" lon="9.9387106"><ele>714.8</ele><time>2026-05-02T09:01:21.754Z</time></trkpt><trkpt lat="44.6156718" lon="9.9385982"><ele>714.4000000000001</ele><time>2026-05-02T09:01:23.754Z</time></trkpt><trkpt lat="44.6155697" lon="9.9385165"><ele>714.0</ele><time>2026-05-02T09:01:25.754Z</time></trkpt><trkpt lat="44.6154308" lon="9.9385211"><ele>714.0</ele><time>2026-05-02T09:01:27.754Z</time></trkpt><trkpt lat="44.6153563" lon="9.9385216"><ele>714.0</ele><time>2026-05-02T09:01:28.755Z</time></trkpt><trkpt lat="44.6152863" lon="9.9385255"><ele>714.0</ele><time>2026-05-02T09:01:29.754Z</time></trkpt><trkpt lat="44.615219" lon="9.9385298"><ele>714.0</ele><time>2026-05-02T09:01:30.754Z</time></trkpt><trkpt lat="44.6150988" lon="9.938484"><ele>714.0</ele><time>2026-05-02T09:01:32.755Z</time></trkpt><trkpt lat="44.6149905" lon="9.9383767"><ele>713.6666666666666</ele><time>2026-05-02T09:01:34.754Z</time></trkpt><trkpt lat="44.6149592" lon="9.9382781"><ele>713.3333333333334</ele><time>2026-05-02T09:01:35.755Z</time></trkpt><trkpt lat="44.6149143" lon="9.9381783"><ele>713.0</ele><time>2026-05-02T09:01:36.755Z</time></trkpt><trkpt lat="44.6149034" lon="9.9380764"><ele>712.6666666666667</ele><time>2026-05-02T09:01:37.754Z</time></trkpt><trkpt lat="44.6148738" lon="9.9379154"><ele>712.3333333333334</ele><time>2026-05-02T09:01:39.754Z</time></trkpt><trkpt lat="44.6147912" lon="9.9378483"><ele>712.0</ele><time>2026-05-02T09:01:41.754Z</time></trkpt><trkpt lat="44.6146996" lon="9.9377736"><ele>712.0</ele><time>2026-05-02T09:01:43.754Z</time></trkpt><trkpt lat="44.6146113" lon="9.9376904"><ele>712.0</ele><time>2026-05-02T09:01:45.754Z</time></trkpt><trkpt lat="44.6145171" lon="9.9376131"><ele>712.0</ele><time>2026-05-02T09:01:47.754Z</time></trkpt><trkpt lat="44.614415" lon="9.9376283"><ele>712.0</ele><time>2026-05-02T09:01:49.754Z</time></trkpt><trkpt lat="44.6143173" lon="9.9376019"><ele>712.0</ele><time>2026-05-02T09:01:51.755Z</time></trkpt><trkpt lat="44.6142138" lon="9.9375657"><ele>710.5</ele><time>2026-05-02T09:01:53.754Z</time></trkpt><trkpt lat="44.6141" lon="9.9374952"><ele>709.0</ele><time>2026-05-02T09:01:55.755Z</time></trkpt><trkpt lat="44.6140343" lon="9.9374637"><ele>707.5</ele><time>2026-05-02T09:01:56.754Z</time></trkpt><trkpt lat="44.6139737" lon="9.9374223"><ele>706.0</ele><time>2026-05-02T09:01:57.754Z</time></trkpt><trkpt lat="44.6139195" lon="9.9373659"><ele>704.5</ele><time>2026-05-02T09:01:58.755Z</time></trkpt><trkpt lat="44.6138632" lon="9.937286"><ele>703.0</ele><time>2026-05-02T09:01:59.754Z</time></trkpt><trkpt lat="44.6138037" lon="9.9372105"><ele>703.0</ele><time>2026-05-02T09:02:00.754Z</time></trkpt><trkpt lat="44.6137116" lon="9.9371275"><ele>703.0</ele><time>2026-05-02T09:02:02.754Z</time></trkpt><trkpt lat="44.6136488" lon="9.9370946"><ele>703.0</ele><time>2026-05-02T09:02:03.755Z</time></trkpt><trkpt lat="44.6135865" lon="9.9370718"><ele>703.0</ele><time>2026-05-02T09:02:04.754Z</time></trkpt><trkpt lat="44.6134647" lon="9.937067"><ele>703.0</ele><time>2026-05-02T09:02:06.754Z</time></trkpt><trkpt lat="44.6134005" lon="9.9370847"><ele>703.0</ele><time>2026-05-02T09:02:07.754Z</time></trkpt><trkpt lat="44.6132872" lon="9.9371515"><ele>700.2</ele><time>2026-05-02T09:02:09.754Z</time></trkpt><trkpt lat="44.6132066" lon="9.9372483"><ele>697.4</ele><time>2026-05-02T09:02:11.755Z</time></trkpt><trkpt lat="44.6131481" lon="9.9373053"><ele>694.6</ele><time>2026-05-02T09:02:14.754Z</time></trkpt><trkpt lat="44.6130491" lon="9.9373371"><ele>691.8000000000001</ele><time>2026-05-02T09:02:26.754Z</time></trkpt><trkpt lat="44.6129447" lon="9.9373424"><ele>689.0</ele><time>2026-05-02T09:02:28.755Z</time></trkpt><trkpt lat="44.6128751" lon="9.9373591"><ele>687.4000000000001</ele><time>2026-05-02T09:02:30.754Z</time></trkpt><trkpt lat="44.6127922" lon="9.9373816"><ele>685.8</ele><time>2026-05-02T09:02:32.755Z</time></trkpt><trkpt lat="44.6127179" lon="9.9374008"><ele>684.2</ele><time>2026-05-02T09:02:34.754Z</time></trkpt><trkpt lat="44.6126419" lon="9.9373801"><ele>682.5999999999999</ele><time>2026-05-02T09:02:36.754Z</time></trkpt><trkpt lat="44.6125513" lon="9.9373304"><ele>681.0</ele><time>2026-05-02T09:02:38.754Z</time></trkpt><trkpt lat="44.6124499" lon="9.9372522"><ele>681.0</ele><time>2026-05-02T09:02:40.754Z</time></trkpt><trkpt lat="44.6123618" lon="9.9371913"><ele>681.0</ele><time>2026-05-02T09:02:42.754Z</time></trkpt><trkpt lat="44.612279" lon="9.9372338"><ele>681.0</ele><time>2026-05-02T09:02:44.754Z</time></trkpt><trkpt lat="44.6121938" lon="9.9372894"><ele>681.0</ele><time>2026-05-02T09:02:47.754Z</time></trkpt><trkpt lat="44.6121033" lon="9.9373226"><ele>681.0</ele><time>2026-05-02T09:02:49.754Z</time></trkpt><trkpt lat="44.6120402" lon="9.9372822"><ele>681.0</ele><time>2026-05-02T09:02:51.754Z</time></trkpt><trkpt lat="44.6119706" lon="9.937201"><ele>680.2857142857143</ele><time>2026-05-02T09:02:53.754Z</time></trkpt><trkpt lat="44.6118961" lon="9.9372238"><ele>679.5714285714286</ele><time>2026-05-02T09:02:55.754Z</time></trkpt><trkpt lat="44.6118321" lon="9.9372639"><ele>678.8571428571429</ele><time>2026-05-02T09:02:58.755Z</time></trkpt><trkpt lat="44.6117683" lon="9.9372944"><ele>678.1428571428571</ele><time>2026-05-02T09:03:01.754Z</time></trkpt><trkpt lat="44.6116978" lon="9.9373201"><ele>677.4285714285714</ele><time>2026-05-02T09:03:03.754Z</time></trkpt><trkpt lat="44.6116369" lon="9.9373524"><ele>676.7142857142858</ele><time>2026-05-02T09:03:05.754Z</time></trkpt><trkpt lat="44.6115579" lon="9.9374242"><ele>676.0</ele><time>2026-05-02T09:03:07.754Z</time></trkpt><trkpt lat="44.6114503" lon="9.9374596"><ele>676.0</ele><time>2026-05-02T09:03:09.754Z</time></trkpt><trkpt lat="44.6113807" lon="9.9374705"><ele>676.0</ele><time>2026-05-02T09:03:10.754Z</time></trkpt><trkpt lat="44.6113056" lon="9.9374887"><ele>676.0</ele><time>2026-05-02T09:03:11.755Z</time></trkpt><trkpt lat="44.6112041" lon="9.9375192"><ele>676.0</ele><time>2026-05-02T09:03:13.754Z</time></trkpt><trkpt lat="44.6111481" lon="9.9375675"><ele>676.0</ele><time>2026-05-02T09:03:22.754Z</time></trkpt><trkpt lat="44.6110926" lon="9.937685"><ele>676.0</ele><time>2026-05-02T09:03:24.754Z</time></trkpt><trkpt lat="44.6110017" lon="9.937803"><ele>675.4285714285714</ele><time>2026-05-02T09:03:26.754Z</time></trkpt><trkpt lat="44.6109446" lon="9.9378518"><ele>674.8571428571429</ele><time>2026-05-02T09:03:27.754Z</time></trkpt><trkpt lat="44.6108832" lon="9.9379119"><ele>674.2857142857142</ele><time>2026-05-02T09:03:28.754Z</time></trkpt><trkpt lat="44.6108437" lon="9.9379986"><ele>673.7142857142858</ele><time>2026-05-02T09:03:29.754Z</time></trkpt><trkpt lat="44.6107869" lon="9.9380778"><ele>673.1428571428571</ele><time>2026-05-02T09:03:30.754Z</time></trkpt><trkpt lat="44.6107242" lon="9.9381349"><ele>672.5714285714286</ele><time>2026-05-02T09:03:31.754Z</time></trkpt><trkpt lat="44.6106683" lon="9.9381942"><ele>672.0</ele><time>2026-05-02T09:03:32.754Z</time></trkpt><trkpt lat="44.6106052" lon="9.9382258"><ele>672.0</ele><time>2026-05-02T09:03:33.754Z</time></trkpt><trkpt lat="44.6105376" lon="9.9382235"><ele>672.0</ele><time>2026-05-02T09:03:34.754Z</time></trkpt><trkpt lat="44.6104646" lon="9.9382376"><ele>672.0</ele><time>2026-05-02T09:03:35.756Z</time></trkpt><trkpt lat="44.6103977" lon="9.9382778"><ele>672.0</ele><time>2026-05-02T09:03:36.754Z</time></trkpt><trkpt lat="44.6103039" lon="9.9383508"><ele>672.0</ele><time>2026-05-02T09:03:38.754Z</time></trkpt><trkpt lat="44.6102211" lon="9.9384141"><ele>672.0</ele><time>2026-05-02T09:03:40.755Z</time></trkpt><trkpt lat="44.6101447" lon="9.9384937"><ele>670.8</ele><time>2026-05-02T09:03:42.755Z</time></trkpt><trkpt lat="44.6100633" lon="9.9385864"><ele>669.6</ele><time>2026-05-02T09:03:44.754Z</time></trkpt><trkpt lat="44.609991" lon="9.9386377"><ele>668.4</ele><time>2026-05-02T09:03:46.754Z</time></trkpt><trkpt lat="44.609894" lon="9.9386914"><ele>667.1999999999999</ele><time>2026-05-02T09:03:48.754Z</time></trkpt><trkpt lat="44.6097936" lon="9.9387829"><ele>666.0</ele><time>2026-05-02T09:03:50.754Z</time></trkpt><trkpt lat="44.6097307" lon="9.9388182"><ele>666.0</ele><time>2026-05-02T09:03:51.754Z</time></trkpt><trkpt lat="44.6096618" lon="9.9388434"><ele>666.0</ele><time>2026-05-02T09:03:52.754Z</time></trkpt><trkpt lat="44.6095958" lon="9.9388493"><ele>666.0</ele><time>2026-05-02T09:03:53.754Z</time></trkpt><trkpt lat="44.6095297" lon="9.9388434"><ele>666.0</ele><time>2026-05-02T09:03:54.756Z</time></trkpt><trkpt lat="44.6094684" lon="9.938817"><ele>666.0</ele><time>2026-05-02T09:03:55.755Z</time></trkpt><trkpt lat="44.6094035" lon="9.9387661"><ele>666.0</ele><time>2026-05-02T09:03:56.754Z</time></trkpt><trkpt lat="44.6093446" lon="9.9387092"><ele>666.0</ele><time>2026-05-02T09:03:57.754Z</time></trkpt><trkpt lat="44.6092837" lon="9.9386463"><ele>666.5999999999999</ele><time>2026-05-02T09:03:58.754Z</time></trkpt><trkpt lat="44.609224" lon="9.9385935"><ele>667.2</ele><time>2026-05-02T09:03:59.754Z</time></trkpt><trkpt lat="44.6091587" lon="9.9385696"><ele>667.8</ele><time>2026-05-02T09:04:00.755Z</time></trkpt><trkpt lat="44.6090438" lon="9.9385467"><ele>668.4000000000001</ele><time>2026-05-02T09:04:02.754Z</time></trkpt><trkpt lat="44.6089288" lon="9.9385583"><ele>669.0</ele><time>2026-05-02T09:04:04.754Z</time></trkpt><trkpt lat="44.6088238" lon="9.9385273"><ele>669.0</ele><time>2026-05-02T09:04:06.754Z</time></trkpt><trkpt lat="44.6087162" lon="9.9384637"><ele>669.0</ele><time>2026-05-02T09:04:08.755Z</time></trkpt><trkpt lat="44.608629" lon="9.9384072"><ele>669.0</ele><time>2026-05-02T09:04:10.754Z</time></trkpt><trkpt lat="44.6085217" lon="9.9383386"><ele>669.0</ele><time>2026-05-02T09:04:12.754Z</time></trkpt><trkpt lat="44.6084568" lon="9.938281"><ele>669.0</ele><time>2026-05-02T09:04:13.754Z</time></trkpt><trkpt lat="44.6083887" lon="9.9382357"><ele>671.0</ele><time>2026-05-02T09:04:14.754Z</time></trkpt><trkpt lat="44.6083246" lon="9.938201"><ele>673.0</ele><time>2026-05-02T09:04:15.756Z</time></trkpt><trkpt lat="44.6082626" lon="9.9381782"><ele>675.0</ele><time>2026-05-02T09:04:16.754Z</time></trkpt><trkpt lat="44.6081593" lon="9.9381337"><ele>677.0</ele><time>2026-05-02T09:04:18.755Z</time></trkpt><trkpt lat="44.6080706" lon="9.9380829"><ele>679.0</ele><time>2026-05-02T09:04:20.755Z</time></trkpt><trkpt lat="44.6080055" lon="9.9380093"><ele>681.0</ele><time>2026-05-02T09:04:22.754Z</time></trkpt><trkpt lat="44.6079291" lon="9.9379324"><ele>681.0</ele><time>2026-05-02T09:04:24.754Z</time></trkpt><trkpt lat="44.6078779" lon="9.9378363"><ele>681.0</ele><time>2026-05-02T09:04:26.755Z</time></trkpt><trkpt lat="44.6078288" lon="9.937722"><ele>681.0</ele><time>2026-05-02T09:04:28.755Z</time></trkpt><trkpt lat="44.6077481" lon="9.9376564"><ele>681.0</ele><time>2026-05-02T09:04:30.754Z</time></trkpt><trkpt lat="44.6076436" lon="9.9376343"><ele>681.0</ele><time>2026-05-02T09:04:32.754Z</time></trkpt><trkpt lat="44.6075555" lon="9.9376529"><ele>679.7142857142858</ele><time>2026-05-02T09:04:34.754Z</time></trkpt><trkpt lat="44.6074963" lon="9.9376894"><ele>678.4285714285714</ele><time>2026-05-02T09:04:36.754Z</time></trkpt><trkpt lat="44.6074325" lon="9.9377131"><ele>677.1428571428571</ele><time>2026-05-02T09:04:38.754Z</time></trkpt><trkpt lat="44.6073563" lon="9.9377383"><ele>675.8571428571429</ele><time>2026-05-02T09:04:40.754Z</time></trkpt><trkpt lat="44.6072956" lon="9.937775"><ele>674.5714285714286</ele><time>2026-05-02T09:04:42.754Z</time></trkpt><trkpt lat="44.6072361" lon="9.9378482"><ele>673.2857142857143</ele><time>2026-05-02T09:04:52.754Z</time></trkpt><trkpt lat="44.6071809" lon="9.9379054"><ele>672.0</ele><time>2026-05-02T09:04:53.754Z</time></trkpt><trkpt lat="44.6070746" lon="9.9379455"><ele>670.7142857142857</ele><time>2026-05-02T09:04:55.755Z</time></trkpt><trkpt lat="44.6069931" lon="9.9379652"><ele>669.4285714285714</ele><time>2026-05-02T09:04:57.754Z</time></trkpt><trkpt lat="44.6069298" lon="9.938022"><ele>668.1428571428571</ele><time>2026-05-02T09:04:59.754Z</time></trkpt><trkpt lat="44.6068954" lon="9.938106"><ele>666.8571428571429</ele><time>2026-05-02T09:05:01.754Z</time></trkpt><trkpt lat="44.6068699" lon="9.938203"><ele>665.5714285714286</ele><time>2026-05-02T09:05:03.754Z</time></trkpt><trkpt lat="44.6068496" lon="9.9382911"><ele>664.2857142857142</ele><time>2026-05-02T09:05:05.754Z</time></trkpt><trkpt lat="44.606827" lon="9.9383753"><ele>663.0</ele><time>2026-05-02T09:05:07.754Z</time></trkpt><trkpt lat="44.6068262" lon="9.9384682"><ele>660.5999999999999</ele><time>2026-05-02T09:05:11.755Z</time></trkpt><trkpt lat="44.6068688" lon="9.9385731"><ele>658.1999999999999</ele><time>2026-05-02T09:05:13.754Z</time></trkpt><trkpt lat="44.6069314" lon="9.9386909"><ele>655.8</ele><time>2026-05-02T09:05:15.754Z</time></trkpt><trkpt lat="44.6069738" lon="9.9388319"><ele>653.4</ele><time>2026-05-02T09:05:17.754Z</time></trkpt><trkpt lat="44.606981" lon="9.9389964"><ele>651.0</ele><time>2026-05-02T09:05:19.754Z</time></trkpt><trkpt lat="44.6069955" lon="9.9390954"><ele>648.4</ele><time>2026-05-02T09:05:20.755Z</time></trkpt><trkpt lat="44.6070131" lon="9.9392572"><ele>645.8</ele><time>2026-05-02T09:05:22.754Z</time></trkpt><trkpt lat="44.6069861" lon="9.9394059"><ele>643.1999999999999</ele><time>2026-05-02T09:05:24.754Z</time></trkpt><trkpt lat="44.6069279" lon="9.9395322"><ele>640.5999999999999</ele><time>2026-05-02T09:05:26.754Z</time></trkpt><trkpt lat="44.6068437" lon="9.9395449"><ele>638.0</ele><time>2026-05-02T09:05:28.754Z</time></trkpt><trkpt lat="44.6067568" lon="9.9395005"><ele>638.0</ele><time>2026-05-02T09:05:30.754Z</time></trkpt><trkpt lat="44.6066631" lon="9.9394577"><ele>638.0</ele><time>2026-05-02T09:05:32.754Z</time></trkpt><trkpt lat="44.6065858" lon="9.9394368"><ele>638.0</ele><time>2026-05-02T09:05:34.755Z</time></trkpt><trkpt lat="44.6065143" lon="9.939454"><ele>638.0</ele><time>2026-05-02T09:05:36.754Z</time></trkpt><trkpt lat="44.6064482" lon="9.9395086"><ele>638.0</ele><time>2026-05-02T09:05:38.754Z</time></trkpt><trkpt lat="44.6063822" lon="9.9395464"><ele>638.0</ele><time>2026-05-02T09:05:41.754Z</time></trkpt><trkpt lat="44.6062877" lon="9.9394926"><ele>638.0</ele><time>2026-05-02T09:06:01.754Z</time></trkpt><trkpt lat="44.6062073" lon="9.9394736"><ele>638.0</ele><time>2026-05-02T09:06:03.754Z</time></trkpt><trkpt lat="44.6061504" lon="9.9394182"><ele>638.0</ele><time>2026-05-02T09:06:05.754Z</time></trkpt><trkpt lat="44.6061124" lon="9.9393131"><ele>638.0</ele><time>2026-05-02T09:06:08.754Z</time></trkpt><trkpt lat="44.6061723" lon="9.9392476"><ele>638.0</ele><time>2026-05-02T09:06:19.754Z</time></trkpt><trkpt lat="44.6062008" lon="9.9391493"><ele>638.0</ele><time>2026-05-02T09:06:21.754Z</time></trkpt><trkpt lat="44.6062075" lon="9.9390118"><ele>637.4</ele><time>2026-05-02T09:06:23.755Z</time></trkpt><trkpt lat="44.6061816" lon="9.9388863"><ele>636.8</ele><time>2026-05-02T09:06:25.754Z</time></trkpt><trkpt lat="44.606136" lon="9.9387584"><ele>636.2</ele><time>2026-05-02T09:06:27.754Z</time></trkpt><trkpt lat="44.6060839" lon="9.9386282"><ele>635.6</ele><time>2026-05-02T09:06:29.755Z</time></trkpt><trkpt lat="44.6060213" lon="9.9384869"><ele>635.0</ele><time>2026-05-02T09:06:31.754Z</time></trkpt><trkpt lat="44.6059571" lon="9.9383428"><ele>637.5</ele><time>2026-05-02T09:06:33.755Z</time></trkpt><trkpt lat="44.6058754" lon="9.9382302"><ele>640.0</ele><time>2026-05-02T09:06:35.756Z</time></trkpt><trkpt lat="44.6057762" lon="9.938151"><ele>642.5</ele><time>2026-05-02T09:06:37.754Z</time></trkpt><trkpt lat="44.6057187" lon="9.9381099"><ele>645.0</ele><time>2026-05-02T09:06:38.754Z</time></trkpt><trkpt lat="44.6056615" lon="9.9380616"><ele>647.5</ele><time>2026-05-02T09:06:39.754Z</time></trkpt><trkpt lat="44.6056099" lon="9.9380037"><ele>650.0</ele><time>2026-05-02T09:06:40.754Z</time></trkpt><trkpt lat="44.6055607" lon="9.9379371"><ele>650.0</ele><time>2026-05-02T09:06:41.754Z</time></trkpt><trkpt lat="44.6055203" lon="9.9378586"><ele>650.0</ele><time>2026-05-02T09:06:42.754Z</time></trkpt><trkpt lat="44.6054856" lon="9.9377677"><ele>650.0</ele><time>2026-05-02T09:06:43.754Z</time></trkpt><trkpt lat="44.6054617" lon="9.9376768"><ele>650.0</ele><time>2026-05-02T09:06:44.754Z</time></trkpt><trkpt lat="44.6054337" lon="9.937582"><ele>650.0</ele><time>2026-05-02T09:06:45.755Z</time></trkpt><trkpt lat="44.6054035" lon="9.9374923"><ele>650.0</ele><time>2026-05-02T09:06:46.754Z</time></trkpt><trkpt lat="44.6053764" lon="9.937399"><ele>650.0</ele><time>2026-05-02T09:06:47.754Z</time></trkpt><trkpt lat="44.6053215" lon="9.93724"><ele>650.0</ele><time>2026-05-02T09:06:49.755Z</time></trkpt><trkpt lat="44.6052779" lon="9.9371457"><ele>650.0</ele><time>2026-05-02T09:06:50.754Z</time></trkpt><trkpt lat="44.60524" lon="9.9370488"><ele>650.0</ele><time>2026-05-02T09:06:51.754Z</time></trkpt><trkpt lat="44.6052092" lon="9.9369502"><ele>650.0</ele><time>2026-05-02T09:06:52.754Z</time></trkpt><trkpt lat="44.6051758" lon="9.9368379"><ele>650.0</ele><time>2026-05-02T09:06:53.754Z</time></trkpt><trkpt lat="44.6051378" lon="9.9367259"><ele>650.0</ele><time>2026-05-02T09:06:54.754Z</time></trkpt><trkpt lat="44.6050972" lon="9.9366078"><ele>652.2</ele><time>2026-05-02T09:06:55.754Z</time></trkpt><trkpt lat="44.6050561" lon="9.936491"><ele>654.4</ele><time>2026-05-02T09:06:56.754Z</time></trkpt><trkpt lat="44.6050157" lon="9.9363728"><ele>656.5999999999999</ele><time>2026-05-02T09:06:57.754Z</time></trkpt><trkpt lat="44.6049716" lon="9.9362477"><ele>658.8</ele><time>2026-05-02T09:06:58.754Z</time></trkpt><trkpt lat="44.604914" lon="9.9361324"><ele>661.0</ele><time>2026-05-02T09:06:59.754Z</time></trkpt><trkpt lat="44.6048519" lon="9.9360087"><ele>663.5</ele><time>2026-05-02T09:07:00.755Z</time></trkpt><trkpt lat="44.604785" lon="9.9358824"><ele>666.0</ele><time>2026-05-02T09:07:01.754Z</time></trkpt><trkpt lat="44.6047146" lon="9.9357481"><ele>668.5</ele><time>2026-05-02T09:07:02.754Z</time></trkpt><trkpt lat="44.6046411" lon="9.9356151"><ele>671.0</ele><time>2026-05-02T09:07:03.754Z</time></trkpt><trkpt lat="44.6045676" lon="9.935475"><ele>667.5</ele><time>2026-05-02T09:07:04.754Z</time></trkpt><trkpt lat="44.6044954" lon="9.9353373"><ele>664.0</ele><time>2026-05-02T09:07:05.755Z</time></trkpt><trkpt lat="44.6044109" lon="9.9352181"><ele>660.5</ele><time>2026-05-02T09:07:06.754Z</time></trkpt><trkpt lat="44.6043116" lon="9.9351398"><ele>657.0</ele><time>2026-05-02T09:07:07.755Z</time></trkpt><trkpt lat="44.6042078" lon="9.9350893"><ele>657.0</ele><time>2026-05-02T09:07:08.754Z</time></trkpt><trkpt lat="44.6041044" lon="9.9350717"><ele>657.0</ele><time>2026-05-02T09:07:09.754Z</time></trkpt><trkpt lat="44.6040061" lon="9.935098"><ele>657.0</ele><time>2026-05-02T09:07:10.754Z</time></trkpt><trkpt lat="44.6039095" lon="9.9351462"><ele>657.0</ele><time>2026-05-02T09:07:11.754Z</time></trkpt><trkpt lat="44.6038104" lon="9.9352025"><ele>657.0</ele><time>2026-05-02T09:07:12.755Z</time></trkpt><trkpt lat="44.6037053" lon="9.9352662"><ele>657.8</ele><time>2026-05-02T09:07:13.754Z</time></trkpt><trkpt lat="44.6036053" lon="9.9353278"><ele>658.6</ele><time>2026-05-02T09:07:14.754Z</time></trkpt><trkpt lat="44.6035109" lon="9.9353735"><ele>659.4</ele><time>2026-05-02T09:07:15.754Z</time></trkpt><trkpt lat="44.6034164" lon="9.9353983"><ele>660.1999999999999</ele><time>2026-05-02T09:07:16.755Z</time></trkpt><trkpt lat="44.6033171" lon="9.9354161"><ele>661.0</ele><time>2026-05-02T09:07:17.754Z</time></trkpt><trkpt lat="44.6032447" lon="9.9353302"><ele>661.0</ele><time>2026-05-02T09:07:18.755Z</time></trkpt><trkpt lat="44.6031717" lon="9.9352415"><ele>661.0</ele><time>2026-05-02T09:07:19.754Z</time></trkpt><trkpt lat="44.6031199" lon="9.9351278"><ele>661.0</ele><time>2026-05-02T09:07:20.754Z</time></trkpt><trkpt lat="44.6030671" lon="9.9350045"><ele>661.0</ele><time>2026-05-02T09:07:21.754Z</time></trkpt><trkpt lat="44.603012" lon="9.9348786"><ele>661.0</ele><time>2026-05-02T09:07:22.755Z</time></trkpt><trkpt lat="44.6029545" lon="9.9347565"><ele>661.8</ele><time>2026-05-02T09:07:23.754Z</time></trkpt><trkpt lat="44.6028921" lon="9.934636"><ele>662.5999999999999</ele><time>2026-05-02T09:07:24.754Z</time></trkpt><trkpt lat="44.6028308" lon="9.934513"><ele>663.4</ele><time>2026-05-02T09:07:25.755Z</time></trkpt><trkpt lat="44.6027676" lon="9.9343881"><ele>664.2</ele><time>2026-05-02T09:07:26.754Z</time></trkpt><trkpt lat="44.6026953" lon="9.9342666"><ele>665.0</ele><time>2026-05-02T09:07:27.755Z</time></trkpt><trkpt lat="44.6026223" lon="9.9341463"><ele>665.0</ele><time>2026-05-02T09:07:28.755Z</time></trkpt><trkpt lat="44.6025523" lon="9.9340187"><ele>665.0</ele><time>2026-05-02T09:07:29.754Z</time></trkpt><trkpt lat="44.6024891" lon="9.9338865"><ele>665.0</ele><time>2026-05-02T09:07:30.754Z</time></trkpt><trkpt lat="44.6024163" lon="9.933764"><ele>665.0</ele><time>2026-05-02T09:07:31.755Z</time></trkpt><trkpt lat="44.6023264" lon="9.9336596"><ele>665.0</ele><time>2026-05-02T09:07:32.754Z</time></trkpt><trkpt lat="44.6022283" lon="9.9335696"><ele>665.0</ele><time>2026-05-02T09:07:33.755Z</time></trkpt><trkpt lat="44.6021254" lon="9.9334814"><ele>665.0</ele><time>2026-05-02T09:07:34.756Z</time></trkpt><trkpt lat="44.6020289" lon="9.9333859"><ele>665.0</ele><time>2026-05-02T09:07:35.754Z</time></trkpt><trkpt lat="44.6019349" lon="9.9332895"><ele>664.5</ele><time>2026-05-02T09:07:36.755Z</time></trkpt><trkpt lat="44.601844" lon="9.9331922"><ele>664.0</ele><time>2026-05-02T09:07:37.755Z</time></trkpt><trkpt lat="44.6017558" lon="9.9330953"><ele>663.5</ele><time>2026-05-02T09:07:38.754Z</time></trkpt><trkpt lat="44.6016722" lon="9.9329884"><ele>663.0</ele><time>2026-05-02T09:07:39.754Z</time></trkpt><trkpt lat="44.6015907" lon="9.9328778"><ele>663.0</ele><time>2026-05-02T09:07:40.755Z</time></trkpt><trkpt lat="44.6015051" lon="9.9327718"><ele>663.0</ele><time>2026-05-02T09:07:41.754Z</time></trkpt><trkpt lat="44.6014111" lon="9.9326886"><ele>663.0</ele><time>2026-05-02T09:07:42.755Z</time></trkpt><trkpt lat="44.6013137" lon="9.9326274"><ele>663.0</ele><time>2026-05-02T09:07:43.754Z</time></trkpt><trkpt lat="44.6012059" lon="9.9326143"><ele>663.0</ele><time>2026-05-02T09:07:44.754Z</time></trkpt><trkpt lat="44.601108" lon="9.9326"><ele>660.8</ele><time>2026-05-02T09:07:45.755Z</time></trkpt><trkpt lat="44.601007" lon="9.9325805"><ele>658.5999999999999</ele><time>2026-05-02T09:07:46.755Z</time></trkpt><trkpt lat="44.600903" lon="9.932557"><ele>656.4000000000001</ele><time>2026-05-02T09:07:47.754Z</time></trkpt><trkpt lat="44.6008083" lon="9.9325082"><ele>654.2</ele><time>2026-05-02T09:07:48.754Z</time></trkpt><trkpt lat="44.6007307" lon="9.9324265"><ele>652.0</ele><time>2026-05-02T09:07:49.754Z</time></trkpt><trkpt lat="44.6006612" lon="9.9323402"><ele>654.4000000000001</ele><time>2026-05-02T09:07:50.755Z</time></trkpt><trkpt lat="44.6005816" lon="9.932266"><ele>656.8000000000001</ele><time>2026-05-02T09:07:51.754Z</time></trkpt><trkpt lat="44.6004882" lon="9.9322143"><ele>659.2</ele><time>2026-05-02T09:07:52.754Z</time></trkpt><trkpt lat="44.6003903" lon="9.932175"><ele>661.6</ele><time>2026-05-02T09:07:53.754Z</time></trkpt><trkpt lat="44.600286" lon="9.9321388"><ele>664.0</ele><time>2026-05-02T09:07:54.755Z</time></trkpt><trkpt lat="44.6001822" lon="9.9321003"><ele>664.0</ele><time>2026-05-02T09:07:55.754Z</time></trkpt><trkpt lat="44.6000822" lon="9.9320621"><ele>664.0</ele><time>2026-05-02T09:07:56.754Z</time></trkpt><trkpt lat="44.5999817" lon="9.9320189"><ele>664.0</ele><time>2026-05-02T09:07:57.755Z</time></trkpt><trkpt lat="44.5998857" lon="9.9319595"><ele>664.0</ele><time>2026-05-02T09:07:58.754Z</time></trkpt><trkpt lat="44.5997928" lon="9.9318691"><ele>664.0</ele><time>2026-05-02T09:07:59.754Z</time></trkpt><trkpt lat="44.5997029" lon="9.9317756"><ele>664.6</ele><time>2026-05-02T09:08:00.754Z</time></trkpt><trkpt lat="44.5996186" lon="9.9316765"><ele>665.2</ele><time>2026-05-02T09:08:01.754Z</time></trkpt><trkpt lat="44.5995483" lon="9.9315619"><ele>665.8000000000001</ele><time>2026-05-02T09:08:02.755Z</time></trkpt><trkpt lat="44.5994888" lon="9.9314361"><ele>666.4000000000001</ele><time>2026-05-02T09:08:03.754Z</time></trkpt><trkpt lat="44.5994351" lon="9.9313083"><ele>667.0</ele><time>2026-05-02T09:08:04.755Z</time></trkpt><trkpt lat="44.5993629" lon="9.9311907"><ele>667.0</ele><time>2026-05-02T09:08:05.755Z</time></trkpt><trkpt lat="44.5992777" lon="9.9310893"><ele>667.0</ele><time>2026-05-02T09:08:06.754Z</time></trkpt><trkpt lat="44.5991918" lon="9.9309986"><ele>667.0</ele><time>2026-05-02T09:08:07.755Z</time></trkpt><trkpt lat="44.5990987" lon="9.9309147"><ele>667.0</ele><time>2026-05-02T09:08:08.754Z</time></trkpt><trkpt lat="44.5990019" lon="9.9308387"><ele>667.0</ele><time>2026-05-02T09:08:09.754Z</time></trkpt><trkpt lat="44.5989054" lon="9.9307592"><ele>667.5</ele><time>2026-05-02T09:08:10.754Z</time></trkpt><trkpt lat="44.5988156" lon="9.9306681"><ele>668.0</ele><time>2026-05-02T09:08:11.754Z</time></trkpt><trkpt lat="44.5987353" lon="9.9305527"><ele>668.5</ele><time>2026-05-02T09:08:12.754Z</time></trkpt><trkpt lat="44.5986574" lon="9.930432"><ele>669.0</ele><time>2026-05-02T09:08:13.754Z</time></trkpt><trkpt lat="44.5985749" lon="9.9303129"><ele>669.0</ele><time>2026-05-02T09:08:14.754Z</time></trkpt><trkpt lat="44.5984962" lon="9.9301928"><ele>669.0</ele><time>2026-05-02T09:08:15.754Z</time></trkpt><trkpt lat="44.5984186" lon="9.9300734"><ele>669.0</ele><time>2026-05-02T09:08:16.754Z</time></trkpt><trkpt lat="44.5983446" lon="9.9299548"><ele>669.0</ele><time>2026-05-02T09:08:17.754Z</time></trkpt><trkpt lat="44.5982838" lon="9.9298315"><ele>673.0</ele><time>2026-05-02T09:08:18.755Z</time></trkpt><trkpt lat="44.5982388" lon="9.9296971"><ele>677.0</ele><time>2026-05-02T09:08:19.754Z</time></trkpt><trkpt lat="44.5982084" lon="9.9295482"><ele>681.0</ele><time>2026-05-02T09:08:20.754Z</time></trkpt><trkpt lat="44.5981864" lon="9.929393"><ele>685.0</ele><time>2026-05-02T09:08:21.754Z</time></trkpt><trkpt lat="44.5981724" lon="9.9292288"><ele>689.0</ele><time>2026-05-02T09:08:22.754Z</time></trkpt><trkpt lat="44.5981686" lon="9.9290616"><ele>691.0</ele><time>2026-05-02T09:08:23.755Z</time></trkpt><trkpt lat="44.5981621" lon="9.9288948"><ele>693.0</ele><time>2026-05-02T09:08:24.755Z</time></trkpt><trkpt lat="44.5981537" lon="9.9287291"><ele>695.0</ele><time>2026-05-02T09:08:25.754Z</time></trkpt><trkpt lat="44.598135" lon="9.9285616"><ele>697.0</ele><time>2026-05-02T09:08:26.754Z</time></trkpt><trkpt lat="44.5981062" lon="9.9283985"><ele>698.0</ele><time>2026-05-02T09:08:27.755Z</time></trkpt><trkpt lat="44.5980728" lon="9.9282437"><ele>699.0</ele><time>2026-05-02T09:08:28.754Z</time></trkpt><trkpt lat="44.598009" lon="9.9280975"><ele>700.0</ele><time>2026-05-02T09:08:29.754Z</time></trkpt><trkpt lat="44.5979398" lon="9.9279641"><ele>701.0</ele><time>2026-05-02T09:08:30.754Z</time></trkpt><trkpt lat="44.5978752" lon="9.9278331"><ele>701.4</ele><time>2026-05-02T09:08:31.755Z</time></trkpt><trkpt lat="44.5978285" lon="9.9276957"><ele>701.8</ele><time>2026-05-02T09:08:32.755Z</time></trkpt><trkpt lat="44.5978111" lon="9.9275539"><ele>702.1999999999999</ele><time>2026-05-02T09:08:33.754Z</time></trkpt><trkpt lat="44.5978131" lon="9.9274088"><ele>702.5999999999999</ele><time>2026-05-02T09:08:34.754Z</time></trkpt><trkpt lat="44.5978237" lon="9.9272518"><ele>703.0</ele><time>2026-05-02T09:08:35.754Z</time></trkpt><trkpt lat="44.5978387" lon="9.9270863"><ele>703.0</ele><time>2026-05-02T09:08:36.754Z</time></trkpt><trkpt lat="44.5978538" lon="9.9269117"><ele>703.0</ele><time>2026-05-02T09:08:37.756Z</time></trkpt><trkpt lat="44.5978707" lon="9.9267369"><ele>703.0</ele><time>2026-05-02T09:08:38.754Z</time></trkpt><trkpt lat="44.5978888" lon="9.9265648"><ele>703.0</ele><time>2026-05-02T09:08:39.754Z</time></trkpt><trkpt lat="44.5979031" lon="9.9263979"><ele>702.0</ele><time>2026-05-02T09:08:40.754Z</time></trkpt><trkpt lat="44.5979269" lon="9.9262516"><ele>701.0</ele><time>2026-05-02T09:08:41.754Z</time></trkpt><trkpt lat="44.5979642" lon="9.9261217"><ele>700.0</ele><time>2026-05-02T09:08:42.754Z</time></trkpt><trkpt lat="44.5980255" lon="9.9260005"><ele>699.0</ele><time>2026-05-02T09:08:43.754Z</time></trkpt><trkpt lat="44.5981054" lon="9.92589"><ele>698.0</ele><time>2026-05-02T09:08:44.754Z</time></trkpt><trkpt lat="44.5981905" lon="9.9257799"><ele>695.0</ele><time>2026-05-02T09:08:45.754Z</time></trkpt><trkpt lat="44.5982837" lon="9.9256651"><ele>692.0</ele><time>2026-05-02T09:08:46.755Z</time></trkpt><trkpt lat="44.5983812" lon="9.9255539"><ele>689.0</ele><time>2026-05-02T09:08:47.754Z</time></trkpt><trkpt lat="44.5984816" lon="9.9254363"><ele>686.0</ele><time>2026-05-02T09:08:48.754Z</time></trkpt><trkpt lat="44.5985814" lon="9.9253181"><ele>685.0</ele><time>2026-05-02T09:08:49.754Z</time></trkpt><trkpt lat="44.5986782" lon="9.9252049"><ele>684.0</ele><time>2026-05-02T09:08:50.755Z</time></trkpt><trkpt lat="44.5987772" lon="9.9250942"><ele>683.0</ele><time>2026-05-02T09:08:51.754Z</time></trkpt><trkpt lat="44.5988768" lon="9.9249815"><ele>682.0</ele><time>2026-05-02T09:08:52.754Z</time></trkpt><trkpt lat="44.5989826" lon="9.9248669"><ele>682.0</ele><time>2026-05-02T09:08:53.754Z</time></trkpt><trkpt lat="44.5990891" lon="9.9247546"><ele>682.0</ele><time>2026-05-02T09:08:54.754Z</time></trkpt><trkpt lat="44.5991947" lon="9.924641"><ele>682.0</ele><time>2026-05-02T09:08:55.754Z</time></trkpt><trkpt lat="44.5993018" lon="9.9245281"><ele>682.0</ele><time>2026-05-02T09:08:56.754Z</time></trkpt><trkpt lat="44.5994081" lon="9.9244135"><ele>683.75</ele><time>2026-05-02T09:08:57.754Z</time></trkpt><trkpt lat="44.5995151" lon="9.9242979"><ele>685.5</ele><time>2026-05-02T09:08:58.754Z</time></trkpt><trkpt lat="44.5996192" lon="9.924167"><ele>687.25</ele><time>2026-05-02T09:08:59.754Z</time></trkpt><trkpt lat="44.5997187" lon="9.9240468"><ele>689.0</ele><time>2026-05-02T09:09:00.755Z</time></trkpt><trkpt lat="44.5998343" lon="9.9239458"><ele>685.5</ele><time>2026-05-02T09:09:01.754Z</time></trkpt><trkpt lat="44.5999581" lon="9.9238675"><ele>682.0</ele><time>2026-05-02T09:09:02.754Z</time></trkpt><trkpt lat="44.6000849" lon="9.9237998"><ele>678.5</ele><time>2026-05-02T09:09:03.754Z</time></trkpt><trkpt lat="44.6002016" lon="9.9237089"><ele>675.0</ele><time>2026-05-02T09:09:04.755Z</time></trkpt><trkpt lat="44.6003166" lon="9.9236098"><ele>675.25</ele><time>2026-05-02T09:09:05.754Z</time></trkpt><trkpt lat="44.6004337" lon="9.9235157"><ele>675.5</ele><time>2026-05-02T09:09:06.754Z</time></trkpt><trkpt lat="44.6005542" lon="9.9234289"><ele>675.75</ele><time>2026-05-02T09:09:07.754Z</time></trkpt><trkpt lat="44.6006689" lon="9.9233339"><ele>676.0</ele><time>2026-05-02T09:09:08.755Z</time></trkpt><trkpt lat="44.6007857" lon="9.9232347"><ele>676.0</ele><time>2026-05-02T09:09:09.755Z</time></trkpt><trkpt lat="44.6009025" lon="9.9231431"><ele>676.0</ele><time>2026-05-02T09:09:10.754Z</time></trkpt><trkpt lat="44.6010231" lon="9.9230593"><ele>676.0</ele><time>2026-05-02T09:09:11.755Z</time></trkpt><trkpt lat="44.6011448" lon="9.9229946"><ele>676.0</ele><time>2026-05-02T09:09:12.754Z</time></trkpt><trkpt lat="44.6012674" lon="9.9229301"><ele>680.0</ele><time>2026-05-02T09:09:13.754Z</time></trkpt><trkpt lat="44.6013845" lon="9.9228525"><ele>684.0</ele><time>2026-05-02T09:09:14.754Z</time></trkpt><trkpt lat="44.6014942" lon="9.9227603"><ele>688.0</ele><time>2026-05-02T09:09:15.754Z</time></trkpt><trkpt lat="44.6015989" lon="9.9226628"><ele>692.0</ele><time>2026-05-02T09:09:16.754Z</time></trkpt><trkpt lat="44.6017069" lon="9.922577"><ele>692.25</ele><time>2026-05-02T09:09:17.755Z</time></trkpt><trkpt lat="44.6018205" lon="9.9225164"><ele>692.5</ele><time>2026-05-02T09:09:18.756Z</time></trkpt><trkpt lat="44.6019441" lon="9.9224872"><ele>692.75</ele><time>2026-05-02T09:09:19.755Z</time></trkpt><trkpt lat="44.6020717" lon="9.922476"><ele>693.0</ele><time>2026-05-02T09:09:20.756Z</time></trkpt><trkpt lat="44.6021961" lon="9.9224674"><ele>693.0</ele><time>2026-05-02T09:09:21.754Z</time></trkpt><trkpt lat="44.6023139" lon="9.9224499"><ele>693.0</ele><time>2026-05-02T09:09:22.754Z</time></trkpt><trkpt lat="44.6024275" lon="9.9224099"><ele>693.0</ele><time>2026-05-02T09:09:23.756Z</time></trkpt><trkpt lat="44.6025344" lon="9.9223477"><ele>693.0</ele><time>2026-05-02T09:09:24.754Z</time></trkpt><trkpt lat="44.6026411" lon="9.9222742"><ele>693.0</ele><time>2026-05-02T09:09:25.755Z</time></trkpt><trkpt lat="44.6027493" lon="9.9222009"><ele>693.0</ele><time>2026-05-02T09:09:26.755Z</time></trkpt><trkpt lat="44.6028548" lon="9.9221226"><ele>693.0</ele><time>2026-05-02T09:09:27.754Z</time></trkpt><trkpt lat="44.6029573" lon="9.9220485"><ele>693.0</ele><time>2026-05-02T09:09:28.755Z</time></trkpt><trkpt lat="44.6030631" lon="9.921984"><ele>693.0</ele><time>2026-05-02T09:09:29.754Z</time></trkpt><trkpt lat="44.6031628" lon="9.9219364"><ele>693.0</ele><time>2026-05-02T09:09:30.755Z</time></trkpt><trkpt lat="44.6032524" lon="9.9219108"><ele>693.0</ele><time>2026-05-02T09:09:31.754Z</time></trkpt><trkpt lat="44.6033232" lon="9.9218837"><ele>693.0</ele><time>2026-05-02T09:09:32.754Z</time></trkpt><trkpt lat="44.6033741" lon="9.9218248"><ele>693.0</ele><time>2026-05-02T09:09:33.754Z</time></trkpt><trkpt lat="44.6034361" lon="9.92166"><ele>693.0</ele><time>2026-05-02T09:09:35.755Z</time></trkpt><trkpt lat="44.6034679" lon="9.9215554"><ele>693.0</ele><time>2026-05-02T09:09:36.755Z</time></trkpt><trkpt lat="44.6035093" lon="9.9214449"><ele>693.0</ele><time>2026-05-02T09:09:37.755Z</time></trkpt><trkpt lat="44.6035554" lon="9.921337"><ele>693.0</ele><time>2026-05-02T09:09:38.754Z</time></trkpt><trkpt lat="44.6036106" lon="9.9212376"><ele>693.0</ele><time>2026-05-02T09:09:39.754Z</time></trkpt><trkpt lat="44.6036753" lon="9.921153"><ele>693.0</ele><time>2026-05-02T09:09:40.754Z</time></trkpt><trkpt lat="44.6037459" lon="9.9210948"><ele>694.8333333333334</ele><time>2026-05-02T09:09:41.755Z</time></trkpt><trkpt lat="44.6038247" lon="9.921072"><ele>696.6666666666666</ele><time>2026-05-02T09:09:42.754Z</time></trkpt><trkpt lat="44.6039059" lon="9.9210829"><ele>698.5</ele><time>2026-05-02T09:09:43.754Z</time></trkpt><trkpt lat="44.6039934" lon="9.9211109"><ele>700.3333333333333</ele><time>2026-05-02T09:09:44.754Z</time></trkpt><trkpt lat="44.6040881" lon="9.9211408"><ele>702.1666666666666</ele><time>2026-05-02T09:09:45.754Z</time></trkpt><trkpt lat="44.604185" lon="9.9211441"><ele>704.0</ele><time>2026-05-02T09:09:46.755Z</time></trkpt><trkpt lat="44.6042842" lon="9.9211351"><ele>704.0</ele><time>2026-05-02T09:09:47.754Z</time></trkpt><trkpt lat="44.6043835" lon="9.9211235"><ele>704.0</ele><time>2026-05-02T09:09:48.754Z</time></trkpt><trkpt lat="44.6044801" lon="9.9211053"><ele>704.0</ele><time>2026-05-02T09:09:49.754Z</time></trkpt><trkpt lat="44.6045782" lon="9.9210791"><ele>704.0</ele><time>2026-05-02T09:09:50.754Z</time></trkpt><trkpt lat="44.6046763" lon="9.9210527"><ele>704.0</ele><time>2026-05-02T09:09:51.754Z</time></trkpt><trkpt lat="44.6047761" lon="9.9210325"><ele>705.4000000000001</ele><time>2026-05-02T09:09:52.754Z</time></trkpt><trkpt lat="44.6048746" lon="9.9210263"><ele>706.8</ele><time>2026-05-02T09:09:53.754Z</time></trkpt><trkpt lat="44.604973" lon="9.9210292"><ele>708.2</ele><time>2026-05-02T09:09:54.754Z</time></trkpt><trkpt lat="44.6050753" lon="9.9210413"><ele>709.5999999999999</ele><time>2026-05-02T09:09:55.755Z</time></trkpt><trkpt lat="44.6051772" lon="9.9210534"><ele>711.0</ele><time>2026-05-02T09:09:56.754Z</time></trkpt><trkpt lat="44.6052834" lon="9.9210519"><ele>711.5999999999999</ele><time>2026-05-02T09:09:57.755Z</time></trkpt><trkpt lat="44.6053891" lon="9.9210306"><ele>712.2</ele><time>2026-05-02T09:09:58.754Z</time></trkpt><trkpt lat="44.6054951" lon="9.9210048"><ele>712.8</ele><time>2026-05-02T09:09:59.754Z</time></trkpt><trkpt lat="44.605601" lon="9.9209756"><ele>713.4000000000001</ele><time>2026-05-02T09:10:00.755Z</time></trkpt><trkpt lat="44.6057074" lon="9.9209447"><ele>714.0</ele><time>2026-05-02T09:10:01.754Z</time></trkpt><trkpt lat="44.6058158" lon="9.9209204"><ele>713.4000000000001</ele><time>2026-05-02T09:10:02.754Z</time></trkpt><trkpt lat="44.6059264" lon="9.920897"><ele>712.8</ele><time>2026-05-02T09:10:03.755Z</time></trkpt><trkpt lat="44.6060386" lon="9.9208775"><ele>712.2</ele><time>2026-05-02T09:10:04.754Z</time></trkpt><trkpt lat="44.6061476" lon="9.920856"><ele>711.5999999999999</ele><time>2026-05-02T09:10:05.755Z</time></trkpt><trkpt lat="44.6062592" lon="9.9208406"><ele>711.0</ele><time>2026-05-02T09:10:06.754Z</time></trkpt><trkpt lat="44.6063659" lon="9.9208372"><ele>711.0</ele><time>2026-05-02T09:10:07.754Z</time></trkpt><trkpt lat="44.6064777" lon="9.9208479"><ele>711.0</ele><time>2026-05-02T09:10:08.754Z</time></trkpt><trkpt lat="44.6065901" lon="9.9208764"><ele>711.0</ele><time>2026-05-02T09:10:09.756Z</time></trkpt><trkpt lat="44.6067016" lon="9.9209024"><ele>711.0</ele><time>2026-05-02T09:10:10.755Z</time></trkpt><trkpt lat="44.6068149" lon="9.9209258"><ele>713.1999999999999</ele><time>2026-05-02T09:10:11.754Z</time></trkpt><trkpt lat="44.6069303" lon="9.9209195"><ele>715.4</ele><time>2026-05-02T09:10:12.754Z</time></trkpt><trkpt lat="44.6070372" lon="9.9209029"><ele>717.6</ele><time>2026-05-02T09:10:13.754Z</time></trkpt><trkpt lat="44.6071375" lon="9.9208485"><ele>719.8</ele><time>2026-05-02T09:10:14.754Z</time></trkpt><trkpt lat="44.6072286" lon="9.9207982"><ele>722.0</ele><time>2026-05-02T09:10:15.755Z</time></trkpt><trkpt lat="44.6073168" lon="9.9207357"><ele>722.0</ele><time>2026-05-02T09:10:16.754Z</time></trkpt><trkpt lat="44.607401" lon="9.9206664"><ele>722.0</ele><time>2026-05-02T09:10:17.754Z</time></trkpt><trkpt lat="44.6074794" lon="9.9205877"><ele>722.0</ele><time>2026-05-02T09:10:18.754Z</time></trkpt><trkpt lat="44.6075486" lon="9.9204942"><ele>722.0</ele><time>2026-05-02T09:10:19.754Z</time></trkpt><trkpt lat="44.6076165" lon="9.920388"><ele>722.0</ele><time>2026-05-02T09:10:20.754Z</time></trkpt><trkpt lat="44.6076853" lon="9.9202846"><ele>722.0</ele><time>2026-05-02T09:10:21.754Z</time></trkpt><trkpt lat="44.6077493" lon="9.9201784"><ele>722.0</ele><time>2026-05-02T09:10:22.755Z</time></trkpt><trkpt lat="44.607816" lon="9.9200662"><ele>722.0</ele><time>2026-05-02T09:10:23.755Z</time></trkpt><trkpt lat="44.6078854" lon="9.9199593"><ele>722.0</ele><time>2026-05-02T09:10:24.754Z</time></trkpt><trkpt lat="44.6079515" lon="9.9198537"><ele>722.0</ele><time>2026-05-02T09:10:25.755Z</time></trkpt><trkpt lat="44.6080364" lon="9.9197502"><ele>723.6</ele><time>2026-05-02T09:10:26.754Z</time></trkpt><trkpt lat="44.6081181" lon="9.9196581"><ele>725.2</ele><time>2026-05-02T09:10:27.754Z</time></trkpt><trkpt lat="44.6082187" lon="9.9195831"><ele>726.8</ele><time>2026-05-02T09:10:28.754Z</time></trkpt><trkpt lat="44.6083203" lon="9.9195262"><ele>728.4</ele><time>2026-05-02T09:10:29.755Z</time></trkpt><trkpt lat="44.6084295" lon="9.9194689"><ele>730.0</ele><time>2026-05-02T09:10:30.754Z</time></trkpt><trkpt lat="44.6085423" lon="9.919471"><ele>730.0</ele><time>2026-05-02T09:10:31.754Z</time></trkpt><trkpt lat="44.6086507" lon="9.9194597"><ele>730.0</ele><time>2026-05-02T09:10:32.755Z</time></trkpt><trkpt lat="44.6087491" lon="9.9194574"><ele>730.0</ele><time>2026-05-02T09:10:33.755Z</time></trkpt><trkpt lat="44.6088348" lon="9.9194137"><ele>730.0</ele><time>2026-05-02T09:10:34.755Z</time></trkpt><trkpt lat="44.608891" lon="9.919324"><ele>730.0</ele><time>2026-05-02T09:10:35.754Z</time></trkpt><trkpt lat="44.6089185" lon="9.9192312"><ele>730.0</ele><time>2026-05-02T09:10:36.754Z</time></trkpt><trkpt lat="44.6089325" lon="9.9191366"><ele>730.0</ele><time>2026-05-02T09:10:37.755Z</time></trkpt><trkpt lat="44.6089355" lon="9.9190405"><ele>730.0</ele><time>2026-05-02T09:10:38.755Z</time></trkpt><trkpt lat="44.6089471" lon="9.9189354"><ele>730.0</ele><time>2026-05-02T09:10:39.754Z</time></trkpt><trkpt lat="44.6089671" lon="9.9188199"><ele>730.0</ele><time>2026-05-02T09:10:40.755Z</time></trkpt><trkpt lat="44.6089911" lon="9.9187078"><ele>730.0</ele><time>2026-05-02T09:10:41.754Z</time></trkpt><trkpt lat="44.6090173" lon="9.9185871"><ele>730.0</ele><time>2026-05-02T09:10:42.754Z</time></trkpt><trkpt lat="44.6090411" lon="9.91846"><ele>730.0</ele><time>2026-05-02T09:10:43.754Z</time></trkpt><trkpt lat="44.6090773" lon="9.9183379"><ele>730.0</ele><time>2026-05-02T09:10:44.754Z</time></trkpt><trkpt lat="44.6091315" lon="9.9182375"><ele>730.0</ele><time>2026-05-02T09:10:45.754Z</time></trkpt><trkpt lat="44.6091985" lon="9.918154"><ele>730.0</ele><time>2026-05-02T09:10:46.754Z</time></trkpt><trkpt lat="44.6092762" lon="9.9180946"><ele>730.3333333333334</ele><time>2026-05-02T09:10:47.755Z</time></trkpt><trkpt lat="44.6093616" lon="9.9180542"><ele>730.6666666666667</ele><time>2026-05-02T09:10:48.754Z</time></trkpt><trkpt lat="44.6094481" lon="9.91803"><ele>731.0</ele><time>2026-05-02T09:10:49.755Z</time></trkpt><trkpt lat="44.6095369" lon="9.918024"><ele>731.3333333333334</ele><time>2026-05-02T09:10:50.754Z</time></trkpt><trkpt lat="44.6096209" lon="9.9180486"><ele>731.6666666666666</ele><time>2026-05-02T09:10:51.755Z</time></trkpt><trkpt lat="44.6096964" lon="9.918108"><ele>732.0</ele><time>2026-05-02T09:10:52.754Z</time></trkpt><trkpt lat="44.6097599" lon="9.918193"><ele>734.8</ele><time>2026-05-02T09:10:53.755Z</time></trkpt><trkpt lat="44.6098074" lon="9.9182977"><ele>737.6</ele><time>2026-05-02T09:10:54.754Z</time></trkpt><trkpt lat="44.6098528" lon="9.9184092"><ele>740.4</ele><time>2026-05-02T09:10:55.754Z</time></trkpt><trkpt lat="44.609898" lon="9.9185215"><ele>743.1999999999999</ele><time>2026-05-02T09:10:56.754Z</time></trkpt><trkpt lat="44.6099453" lon="9.9186403"><ele>746.0</ele><time>2026-05-02T09:10:57.754Z</time></trkpt><trkpt lat="44.6099952" lon="9.9187646"><ele>746.1999999999999</ele><time>2026-05-02T09:10:58.754Z</time></trkpt><trkpt lat="44.6100563" lon="9.9188752"><ele>746.4</ele><time>2026-05-02T09:10:59.755Z</time></trkpt><trkpt lat="44.6101196" lon="9.9189931"><ele>746.6</ele><time>2026-05-02T09:11:00.754Z</time></trkpt><trkpt lat="44.610216" lon="9.9190752"><ele>746.8</ele><time>2026-05-02T09:11:01.754Z</time></trkpt><trkpt lat="44.6103123" lon="9.9191498"><ele>747.0</ele><time>2026-05-02T09:11:02.754Z</time></trkpt><trkpt lat="44.6104093" lon="9.9192277"><ele>749.4000000000001</ele><time>2026-05-02T09:11:03.754Z</time></trkpt><trkpt lat="44.6105026" lon="9.9193182"><ele>751.8000000000001</ele><time>2026-05-02T09:11:04.755Z</time></trkpt><trkpt lat="44.6105817" lon="9.9194217"><ele>754.2</ele><time>2026-05-02T09:11:05.754Z</time></trkpt><trkpt lat="44.6106499" lon="9.9195361"><ele>756.6</ele><time>2026-05-02T09:11:06.755Z</time></trkpt><trkpt lat="44.6107149" lon="9.9196569"><ele>759.0</ele><time>2026-05-02T09:11:07.754Z</time></trkpt><trkpt lat="44.6107817" lon="9.9197713"><ele>759.0</ele><time>2026-05-02T09:11:08.754Z</time></trkpt><trkpt lat="44.6108552" lon="9.9198704"><ele>759.0</ele><time>2026-05-02T09:11:09.755Z</time></trkpt><trkpt lat="44.6109356" lon="9.9199521"><ele>759.0</ele><time>2026-05-02T09:11:10.754Z</time></trkpt><trkpt lat="44.6110318" lon="9.9199966"><ele>759.0</ele><time>2026-05-02T09:11:11.754Z</time></trkpt><trkpt lat="44.6111376" lon="9.9199987"><ele>759.0</ele><time>2026-05-02T09:11:12.754Z</time></trkpt><trkpt lat="44.6112435" lon="9.9199647"><ele>761.6</ele><time>2026-05-02T09:11:13.754Z</time></trkpt><trkpt lat="44.6113485" lon="9.9199221"><ele>764.2</ele><time>2026-05-02T09:11:14.754Z</time></trkpt><trkpt lat="44.6114555" lon="9.9198931"><ele>766.8000000000001</ele><time>2026-05-02T09:11:15.754Z</time></trkpt><trkpt lat="44.6115616" lon="9.919897"><ele>769.4000000000001</ele><time>2026-05-02T09:11:16.754Z</time></trkpt><trkpt lat="44.611661" lon="9.9199434"><ele>772.0</ele><time>2026-05-02T09:11:17.755Z</time></trkpt><trkpt lat="44.6117448" lon="9.9200176"><ele>771.8</ele><time>2026-05-02T09:11:18.754Z</time></trkpt><trkpt lat="44.611825" lon="9.920097"><ele>771.6</ele><time>2026-05-02T09:11:19.755Z</time></trkpt><trkpt lat="44.6119051" lon="9.9201824"><ele>771.4</ele><time>2026-05-02T09:11:20.754Z</time></trkpt><trkpt lat="44.6119809" lon="9.9202682"><ele>771.1999999999999</ele><time>2026-05-02T09:11:21.754Z</time></trkpt><trkpt lat="44.6120505" lon="9.9203482"><ele>771.0</ele><time>2026-05-02T09:11:22.754Z</time></trkpt><trkpt lat="44.6121147" lon="9.9204267"><ele>773.8333333333334</ele><time>2026-05-02T09:11:23.754Z</time></trkpt><trkpt lat="44.6121684" lon="9.9205189"><ele>776.6666666666667</ele><time>2026-05-02T09:11:24.755Z</time></trkpt><trkpt lat="44.6122022" lon="9.9206299"><ele>779.5</ele><time>2026-05-02T09:11:25.754Z</time></trkpt><trkpt lat="44.6122119" lon="9.9207551"><ele>782.3333333333334</ele><time>2026-05-02T09:11:26.754Z</time></trkpt><trkpt lat="44.6121956" lon="9.9208837"><ele>785.1666666666667</ele><time>2026-05-02T09:11:27.755Z</time></trkpt><trkpt lat="44.6121534" lon="9.9210038"><ele>788.0</ele><time>2026-05-02T09:11:28.754Z</time></trkpt><trkpt lat="44.6120972" lon="9.921116"><ele>788.0000000000001</ele><time>2026-05-02T09:11:29.755Z</time></trkpt><trkpt lat="44.6120382" lon="9.9212296"><ele>788.0</ele><time>2026-05-02T09:11:30.754Z</time></trkpt><trkpt lat="44.6119854" lon="9.9213434"><ele>788.0</ele><time>2026-05-02T09:11:31.754Z</time></trkpt><trkpt lat="44.6119399" lon="9.9214474"><ele>788.0</ele><time>2026-05-02T09:11:32.755Z</time></trkpt><trkpt lat="44.6119019" lon="9.9215485"><ele>788.0000000000001</ele><time>2026-05-02T09:11:33.754Z</time></trkpt><trkpt lat="44.6118942" lon="9.9216431"><ele>788.0</ele><time>2026-05-02T09:11:34.755Z</time></trkpt><trkpt lat="44.6119624" lon="9.9217656"><ele>789.5999999999999</ele><time>2026-05-02T09:11:36.755Z</time></trkpt><trkpt lat="44.612076" lon="9.9217307"><ele>791.1999999999999</ele><time>2026-05-02T09:11:38.755Z</time></trkpt><trkpt lat="44.6121432" lon="9.9216718"><ele>792.8</ele><time>2026-05-02T09:11:39.754Z</time></trkpt><trkpt lat="44.6122269" lon="9.9216186"><ele>794.4</ele><time>2026-05-02T09:11:40.754Z</time></trkpt><trkpt lat="44.6123244" lon="9.9215517"><ele>796.0</ele><time>2026-05-02T09:11:41.754Z</time></trkpt><trkpt lat="44.612428" lon="9.9214822"><ele>796.0</ele><time>2026-05-02T09:11:42.754Z</time></trkpt><trkpt lat="44.6125235" lon="9.9213972"><ele>796.0</ele><time>2026-05-02T09:11:43.755Z</time></trkpt><trkpt lat="44.6126149" lon="9.9212776"><ele>796.0</ele><time>2026-05-02T09:11:44.754Z</time></trkpt><trkpt lat="44.6127051" lon="9.92115"><ele>796.0</ele><time>2026-05-02T09:11:45.755Z</time></trkpt><trkpt lat="44.6128011" lon="9.9210237"><ele>798.0</ele><time>2026-05-02T09:11:46.754Z</time></trkpt><trkpt lat="44.6129006" lon="9.920909"><ele>800.0</ele><time>2026-05-02T09:11:47.754Z</time></trkpt><trkpt lat="44.6130007" lon="9.9207981"><ele>802.0</ele><time>2026-05-02T09:11:48.754Z</time></trkpt><trkpt lat="44.6130936" lon="9.9206912"><ele>804.0</ele><time>2026-05-02T09:11:49.754Z</time></trkpt><trkpt lat="44.613178" lon="9.9206016"><ele>804.0</ele><time>2026-05-02T09:11:50.754Z</time></trkpt><trkpt lat="44.613255" lon="9.9205378"><ele>804.0</ele><time>2026-05-02T09:11:51.754Z</time></trkpt><trkpt lat="44.6133255" lon="9.920516"><ele>804.0</ele><time>2026-05-02T09:11:52.754Z</time></trkpt><trkpt lat="44.6134234" lon="9.9206211"><ele>804.0</ele><time>2026-05-02T09:11:54.755Z</time></trkpt><trkpt lat="44.6134355" lon="9.9207222"><ele>804.0</ele><time>2026-05-02T09:11:55.754Z</time></trkpt><trkpt lat="44.6134296" lon="9.9208517"><ele>804.0</ele><time>2026-05-02T09:11:56.755Z</time></trkpt><trkpt lat="44.6134178" lon="9.920976"><ele>804.0</ele><time>2026-05-02T09:11:57.754Z</time></trkpt><trkpt lat="44.6134037" lon="9.9210762"><ele>804.0</ele><time>2026-05-02T09:11:58.755Z</time></trkpt><trkpt lat="44.6134326" lon="9.9211896"><ele>804.0</ele><time>2026-05-02T09:12:00.754Z</time></trkpt><trkpt lat="44.6134737" lon="9.9211169"><ele>804.0</ele><time>2026-05-02T09:12:03.754Z</time></trkpt><trkpt lat="44.6135003" lon="9.9209803"><ele>804.0</ele><time>2026-05-02T09:12:05.754Z</time></trkpt><trkpt lat="44.6135235" lon="9.9208922"><ele>804.0</ele><time>2026-05-02T09:12:06.754Z</time></trkpt><trkpt lat="44.6135674" lon="9.9207006"><ele>804.0</ele><time>2026-05-02T09:12:08.754Z</time></trkpt><trkpt lat="44.6135584" lon="9.9205799"><ele>804.0</ele><time>2026-05-02T09:12:09.754Z</time></trkpt><trkpt lat="44.6135678" lon="9.9204501"><ele>804.0</ele><time>2026-05-02T09:12:10.754Z</time></trkpt><trkpt lat="44.6135672" lon="9.9203229"><ele>804.0</ele><time>2026-05-02T09:12:11.754Z</time></trkpt><trkpt lat="44.6135547" lon="9.9201893"><ele>804.0</ele><time>2026-05-02T09:12:12.754Z</time></trkpt><trkpt lat="44.6135301" lon="9.9200643"><ele>804.0</ele><time>2026-05-02T09:12:13.754Z</time></trkpt><trkpt lat="44.6135035" lon="9.9199402"><ele>804.0</ele><time>2026-05-02T09:12:14.754Z</time></trkpt><trkpt lat="44.6134815" lon="9.9198185"><ele>804.0</ele><time>2026-05-02T09:12:15.755Z</time></trkpt><trkpt lat="44.6134576" lon="9.9196919"><ele>804.0</ele><time>2026-05-02T09:12:16.754Z</time></trkpt><trkpt lat="44.6134278" lon="9.9195713"><ele>804.0</ele><time>2026-05-02T09:12:17.755Z</time></trkpt><trkpt lat="44.6134033" lon="9.9194433"><ele>804.0</ele><time>2026-05-02T09:12:18.755Z</time></trkpt><trkpt lat="44.6133779" lon="9.9193189"><ele>804.0</ele><time>2026-05-02T09:12:19.754Z</time></trkpt><trkpt lat="44.6133503" lon="9.919195"><ele>804.0</ele><time>2026-05-02T09:12:20.754Z</time></trkpt><trkpt lat="44.6133192" lon="9.9190699"><ele>804.0</ele><time>2026-05-02T09:12:21.755Z</time></trkpt><trkpt lat="44.6132906" lon="9.9189472"><ele>804.0</ele><time>2026-05-02T09:12:22.754Z</time></trkpt><trkpt lat="44.6132601" lon="9.9188206"><ele>804.0</ele><time>2026-05-02T09:12:23.754Z</time></trkpt><trkpt lat="44.613231" lon="9.9186973"><ele>804.0</ele><time>2026-05-02T09:12:24.754Z</time></trkpt><trkpt lat="44.6132049" lon="9.9185625"><ele>804.0</ele><time>2026-05-02T09:12:25.754Z</time></trkpt><trkpt lat="44.6131817" lon="9.9184348"><ele>804.0</ele><time>2026-05-02T09:12:26.755Z</time></trkpt><trkpt lat="44.6131577" lon="9.9183078"><ele>804.0</ele><time>2026-05-02T09:12:27.754Z</time></trkpt><trkpt lat="44.6131344" lon="9.9181777"><ele>804.0</ele><time>2026-05-02T09:12:28.754Z</time></trkpt><trkpt lat="44.6131092" lon="9.9180495"><ele>804.0</ele><time>2026-05-02T09:12:29.754Z</time></trkpt><trkpt lat="44.6130789" lon="9.9179248"><ele>804.0</ele><time>2026-05-02T09:12:30.754Z</time></trkpt><trkpt lat="44.6130524" lon="9.9177998"><ele>804.0</ele><time>2026-05-02T09:12:31.755Z</time></trkpt><trkpt lat="44.6130282" lon="9.9176714"><ele>803.6</ele><time>2026-05-02T09:12:32.755Z</time></trkpt><trkpt lat="44.6130009" lon="9.9175496"><ele>803.2</ele><time>2026-05-02T09:12:33.754Z</time></trkpt><trkpt lat="44.6129735" lon="9.9174233"><ele>802.8000000000001</ele><time>2026-05-02T09:12:34.754Z</time></trkpt><trkpt lat="44.6129419" lon="9.9172931"><ele>802.4000000000001</ele><time>2026-05-02T09:12:35.754Z</time></trkpt><trkpt lat="44.6129273" lon="9.9171562"><ele>802.0</ele><time>2026-05-02T09:12:36.755Z</time></trkpt><trkpt lat="44.6129317" lon="9.9170192"><ele>802.0</ele><time>2026-05-02T09:12:37.754Z</time></trkpt><trkpt lat="44.6129581" lon="9.9168773"><ele>802.0</ele><time>2026-05-02T09:12:38.754Z</time></trkpt><trkpt lat="44.6129867" lon="9.9167262"><ele>802.0</ele><time>2026-05-02T09:12:39.755Z</time></trkpt><trkpt lat="44.6130171" lon="9.9165671"><ele>802.0</ele><time>2026-05-02T09:12:40.754Z</time></trkpt><trkpt lat="44.6130451" lon="9.9164026"><ele>801.5</ele><time>2026-05-02T09:12:41.755Z</time></trkpt><trkpt lat="44.6130792" lon="9.9162399"><ele>801.0</ele><time>2026-05-02T09:12:42.754Z</time></trkpt><trkpt lat="44.6131115" lon="9.9160734"><ele>800.5</ele><time>2026-05-02T09:12:43.754Z</time></trkpt><trkpt lat="44.6131475" lon="9.9159038"><ele>800.0</ele><time>2026-05-02T09:12:44.754Z</time></trkpt><trkpt lat="44.6131848" lon="9.9157315"><ele>799.75</ele><time>2026-05-02T09:12:45.754Z</time></trkpt><trkpt lat="44.6132206" lon="9.9155633"><ele>799.5</ele><time>2026-05-02T09:12:46.754Z</time></trkpt><trkpt lat="44.6132521" lon="9.9153927"><ele>799.25</ele><time>2026-05-02T09:12:47.756Z</time></trkpt><trkpt lat="44.6132865" lon="9.9152222"><ele>799.0</ele><time>2026-05-02T09:12:48.755Z</time></trkpt><trkpt lat="44.6133238" lon="9.9150474"><ele>799.0</ele><time>2026-05-02T09:12:49.754Z</time></trkpt><trkpt lat="44.6133668" lon="9.9148766"><ele>799.0</ele><time>2026-05-02T09:12:50.754Z</time></trkpt><trkpt lat="44.6134014" lon="9.914707"><ele>799.0</ele><time>2026-05-02T09:12:51.754Z</time></trkpt><trkpt lat="44.6134241" lon="9.9145311"><ele>799.0</ele><time>2026-05-02T09:12:52.754Z</time></trkpt><trkpt lat="44.6134258" lon="9.9143554"><ele>800.5</ele><time>2026-05-02T09:12:53.755Z</time></trkpt><trkpt lat="44.6134108" lon="9.9141799"><ele>802.0</ele><time>2026-05-02T09:12:54.754Z</time></trkpt><trkpt lat="44.6133886" lon="9.9140116"><ele>803.5</ele><time>2026-05-02T09:12:55.754Z</time></trkpt><trkpt lat="44.6133808" lon="9.9138345"><ele>805.0</ele><time>2026-05-02T09:12:56.754Z</time></trkpt><trkpt lat="44.6133928" lon="9.9136686"><ele>805.0</ele><time>2026-05-02T09:12:57.756Z</time></trkpt><trkpt lat="44.6134172" lon="9.9134996"><ele>805.0</ele><time>2026-05-02T09:12:58.754Z</time></trkpt><trkpt lat="44.613445" lon="9.9133242"><ele>805.0</ele><time>2026-05-02T09:12:59.755Z</time></trkpt><trkpt lat="44.6134736" lon="9.9131428"><ele>805.0</ele><time>2026-05-02T09:13:00.754Z</time></trkpt><trkpt lat="44.6135094" lon="9.9129671"><ele>804.75</ele><time>2026-05-02T09:13:01.754Z</time></trkpt><trkpt lat="44.6135595" lon="9.9127971"><ele>804.5</ele><time>2026-05-02T09:13:02.755Z</time></trkpt><trkpt lat="44.613627" lon="9.912638"><ele>804.25</ele><time>2026-05-02T09:13:03.754Z</time></trkpt><trkpt lat="44.6137075" lon="9.9124857"><ele>804.0</ele><time>2026-05-02T09:13:04.754Z</time></trkpt><trkpt lat="44.6137936" lon="9.9123398"><ele>804.0</ele><time>2026-05-02T09:13:05.755Z</time></trkpt><trkpt lat="44.6138847" lon="9.9121943"><ele>804.0</ele><time>2026-05-02T09:13:06.754Z</time></trkpt><trkpt lat="44.6139603" lon="9.912039"><ele>804.0</ele><time>2026-05-02T09:13:07.755Z</time></trkpt><trkpt lat="44.6140219" lon="9.9118655"><ele>804.0</ele><time>2026-05-02T09:13:08.754Z</time></trkpt><trkpt lat="44.6140661" lon="9.9116798"><ele>803.25</ele><time>2026-05-02T09:13:09.754Z</time></trkpt><trkpt lat="44.6140965" lon="9.9114902"><ele>802.5</ele><time>2026-05-02T09:13:10.754Z</time></trkpt><trkpt lat="44.6141215" lon="9.9113025"><ele>801.75</ele><time>2026-05-02T09:13:11.754Z</time></trkpt><trkpt lat="44.6141505" lon="9.9111172"><ele>801.0</ele><time>2026-05-02T09:13:12.754Z</time></trkpt><trkpt lat="44.614179" lon="9.910932"><ele>800.75</ele><time>2026-05-02T09:13:13.754Z</time></trkpt><trkpt lat="44.6142071" lon="9.9107499"><ele>800.5</ele><time>2026-05-02T09:13:14.754Z</time></trkpt><trkpt lat="44.6142304" lon="9.9105656"><ele>800.25</ele><time>2026-05-02T09:13:15.754Z</time></trkpt><trkpt lat="44.6142426" lon="9.9103826"><ele>800.0</ele><time>2026-05-02T09:13:16.754Z</time></trkpt><trkpt lat="44.6142263" lon="9.9101993"><ele>801.0</ele><time>2026-05-02T09:13:17.754Z</time></trkpt><trkpt lat="44.6141835" lon="9.9100215"><ele>802.0</ele><time>2026-05-02T09:13:18.755Z</time></trkpt><trkpt lat="44.614127" lon="9.9098481"><ele>803.0</ele><time>2026-05-02T09:13:19.754Z</time></trkpt><trkpt lat="44.6140553" lon="9.9096806"><ele>804.0</ele><time>2026-05-02T09:13:20.755Z</time></trkpt><trkpt lat="44.6139842" lon="9.9095164"><ele>804.0</ele><time>2026-05-02T09:13:21.754Z</time></trkpt><trkpt lat="44.6139163" lon="9.9093505"><ele>804.0</ele><time>2026-05-02T09:13:22.754Z</time></trkpt><trkpt lat="44.6138502" lon="9.9091916"><ele>804.0</ele><time>2026-05-02T09:13:23.755Z</time></trkpt><trkpt lat="44.6137988" lon="9.9090226"><ele>804.0</ele><time>2026-05-02T09:13:24.755Z</time></trkpt><trkpt lat="44.6137622" lon="9.90884"><ele>804.5</ele><time>2026-05-02T09:13:25.755Z</time></trkpt><trkpt lat="44.6137334" lon="9.9086477"><ele>805.0</ele><time>2026-05-02T09:13:26.754Z</time></trkpt><trkpt lat="44.6137004" lon="9.9084558"><ele>805.5</ele><time>2026-05-02T09:13:27.754Z</time></trkpt><trkpt lat="44.6136724" lon="9.9082636"><ele>806.0</ele><time>2026-05-02T09:13:28.755Z</time></trkpt><trkpt lat="44.6136495" lon="9.9080712"><ele>806.0</ele><time>2026-05-02T09:13:29.754Z</time></trkpt><trkpt lat="44.613644" lon="9.9078805"><ele>806.0</ele><time>2026-05-02T09:13:30.755Z</time></trkpt><trkpt lat="44.6136552" lon="9.9076839"><ele>806.0</ele><time>2026-05-02T09:13:31.755Z</time></trkpt><trkpt lat="44.6136781" lon="9.9074816"><ele>806.0</ele><time>2026-05-02T09:13:32.754Z</time></trkpt><trkpt lat="44.6137055" lon="9.9072786"><ele>809.25</ele><time>2026-05-02T09:13:33.755Z</time></trkpt><trkpt lat="44.6137377" lon="9.9070782"><ele>812.5</ele><time>2026-05-02T09:13:34.754Z</time></trkpt><trkpt lat="44.6137677" lon="9.9068769"><ele>815.75</ele><time>2026-05-02T09:13:35.754Z</time></trkpt><trkpt lat="44.6137939" lon="9.9066812"><ele>819.0</ele><time>2026-05-02T09:13:36.754Z</time></trkpt><trkpt lat="44.6138181" lon="9.9064899"><ele>819.0</ele><time>2026-05-02T09:13:37.754Z</time></trkpt><trkpt lat="44.6138447" lon="9.9063036"><ele>819.0</ele><time>2026-05-02T09:13:38.754Z</time></trkpt><trkpt lat="44.6138691" lon="9.9061238"><ele>819.0</ele><time>2026-05-02T09:13:39.755Z</time></trkpt><trkpt lat="44.6138777" lon="9.9059455"><ele>819.0</ele><time>2026-05-02T09:13:40.754Z</time></trkpt><trkpt lat="44.6138323" lon="9.9054085"><ele>816.75</ele><time>2026-05-02T09:13:43.754Z</time></trkpt><trkpt lat="44.6138147" lon="9.9052315"><ele>814.5</ele><time>2026-05-02T09:13:44.754Z</time></trkpt><trkpt lat="44.6137886" lon="9.9050509"><ele>812.25</ele><time>2026-05-02T09:13:45.754Z</time></trkpt><trkpt lat="44.6137552" lon="9.9048713"><ele>810.0</ele><time>2026-05-02T09:13:46.754Z</time></trkpt><trkpt lat="44.6137128" lon="9.9046923"><ele>808.75</ele><time>2026-05-02T09:13:47.755Z</time></trkpt><trkpt lat="44.6136593" lon="9.9045165"><ele>807.5</ele><time>2026-05-02T09:13:48.754Z</time></trkpt><trkpt lat="44.613597" lon="9.9043491"><ele>806.25</ele><time>2026-05-02T09:13:49.754Z</time></trkpt><trkpt lat="44.6135274" lon="9.9041818"><ele>805.0</ele><time>2026-05-02T09:13:50.754Z</time></trkpt><trkpt lat="44.6134465" lon="9.90402"><ele>803.5</ele><time>2026-05-02T09:13:51.754Z</time></trkpt><trkpt lat="44.6133719" lon="9.9038535"><ele>802.0</ele><time>2026-05-02T09:13:52.755Z</time></trkpt><trkpt lat="44.6132972" lon="9.9036908"><ele>800.5</ele><time>2026-05-02T09:13:53.755Z</time></trkpt><trkpt lat="44.6132255" lon="9.903521"><ele>799.0</ele><time>2026-05-02T09:13:54.754Z</time></trkpt><trkpt lat="44.6131454" lon="9.9033618"><ele>799.0</ele><time>2026-05-02T09:13:55.754Z</time></trkpt><trkpt lat="44.6130673" lon="9.9031993"><ele>799.0</ele><time>2026-05-02T09:13:56.754Z</time></trkpt><trkpt lat="44.612995" lon="9.9030325"><ele>799.0</ele><time>2026-05-02T09:13:57.754Z</time></trkpt><trkpt lat="44.6129329" lon="9.9028725"><ele>799.0</ele><time>2026-05-02T09:13:58.755Z</time></trkpt><trkpt lat="44.6128948" lon="9.9027184"><ele>798.25</ele><time>2026-05-02T09:13:59.754Z</time></trkpt><trkpt lat="44.6129032" lon="9.90256"><ele>797.5</ele><time>2026-05-02T09:14:00.754Z</time></trkpt><trkpt lat="44.612946" lon="9.9024131"><ele>796.75</ele><time>2026-05-02T09:14:01.754Z</time></trkpt><trkpt lat="44.6129981" lon="9.9022671"><ele>796.0</ele><time>2026-05-02T09:14:02.754Z</time></trkpt><trkpt lat="44.6130495" lon="9.902113"><ele>796.0</ele><time>2026-05-02T09:14:03.754Z</time></trkpt><trkpt lat="44.6130822" lon="9.9019462"><ele>796.0</ele><time>2026-05-02T09:14:04.754Z</time></trkpt><trkpt lat="44.6131038" lon="9.9017669"><ele>796.0</ele><time>2026-05-02T09:14:05.754Z</time></trkpt><trkpt lat="44.6131084" lon="9.9015819"><ele>796.0</ele><time>2026-05-02T09:14:06.754Z</time></trkpt><trkpt lat="44.6131111" lon="9.9014013"><ele>795.25</ele><time>2026-05-02T09:14:07.754Z</time></trkpt><trkpt lat="44.6131063" lon="9.9012047"><ele>794.5</ele><time>2026-05-02T09:14:08.754Z</time></trkpt><trkpt lat="44.6130996" lon="9.9010105"><ele>793.75</ele><time>2026-05-02T09:14:09.754Z</time></trkpt><trkpt lat="44.6130918" lon="9.900819"><ele>793.0</ele><time>2026-05-02T09:14:10.754Z</time></trkpt><trkpt lat="44.6130894" lon="9.9006259"><ele>792.0</ele><time>2026-05-02T09:14:11.754Z</time></trkpt><trkpt lat="44.613073" lon="9.9004312"><ele>791.0</ele><time>2026-05-02T09:14:12.755Z</time></trkpt><trkpt lat="44.6130362" lon="9.900244"><ele>790.0</ele><time>2026-05-02T09:14:13.754Z</time></trkpt><trkpt lat="44.6129737" lon="9.9000744"><ele>789.0</ele><time>2026-05-02T09:14:14.755Z</time></trkpt><trkpt lat="44.6128898" lon="9.89993"><ele>787.5</ele><time>2026-05-02T09:14:15.755Z</time></trkpt><trkpt lat="44.6127777" lon="9.8998099"><ele>786.0</ele><time>2026-05-02T09:14:16.754Z</time></trkpt><trkpt lat="44.6126565" lon="9.8997282"><ele>784.5</ele><time>2026-05-02T09:14:17.754Z</time></trkpt><trkpt lat="44.6125289" lon="9.8996598"><ele>783.0</ele><time>2026-05-02T09:14:18.754Z</time></trkpt><trkpt lat="44.6124121" lon="9.8995827"><ele>783.0</ele><time>2026-05-02T09:14:19.754Z</time></trkpt><trkpt lat="44.6123195" lon="9.8994843"><ele>783.0</ele><time>2026-05-02T09:14:20.754Z</time></trkpt><trkpt lat="44.6122569" lon="9.899356"><ele>783.0</ele><time>2026-05-02T09:14:21.754Z</time></trkpt><trkpt lat="44.6122136" lon="9.8991991"><ele>783.0</ele><time>2026-05-02T09:14:22.754Z</time></trkpt><trkpt lat="44.6121862" lon="9.8990341"><ele>784.5</ele><time>2026-05-02T09:14:23.754Z</time></trkpt><trkpt lat="44.6121633" lon="9.8988576"><ele>786.0</ele><time>2026-05-02T09:14:24.754Z</time></trkpt><trkpt lat="44.6121427" lon="9.8986741"><ele>787.5</ele><time>2026-05-02T09:14:25.754Z</time></trkpt><trkpt lat="44.6121196" lon="9.8984913"><ele>789.0</ele><time>2026-05-02T09:14:26.754Z</time></trkpt><trkpt lat="44.6120877" lon="9.8983176"><ele>789.75</ele><time>2026-05-02T09:14:27.754Z</time></trkpt><trkpt lat="44.6120557" lon="9.898141"><ele>790.5</ele><time>2026-05-02T09:14:28.754Z</time></trkpt><trkpt lat="44.6120211" lon="9.897978"><ele>791.25</ele><time>2026-05-02T09:14:29.754Z</time></trkpt><trkpt lat="44.6119605" lon="9.8978033"><ele>792.0</ele><time>2026-05-02T09:14:30.754Z</time></trkpt><trkpt lat="44.6118466" lon="9.897708"><ele>792.25</ele><time>2026-05-02T09:14:31.754Z</time></trkpt><trkpt lat="44.6117494" lon="9.8975809"><ele>792.5</ele><time>2026-05-02T09:14:32.754Z</time></trkpt><trkpt lat="44.6116444" lon="9.8974703"><ele>792.75</ele><time>2026-05-02T09:14:33.754Z</time></trkpt><trkpt lat="44.6115404" lon="9.897363"><ele>793.0</ele><time>2026-05-02T09:14:34.754Z</time></trkpt><trkpt lat="44.6114239" lon="9.8972617"><ele>793.0</ele><time>2026-05-02T09:14:35.755Z</time></trkpt><trkpt lat="44.611308" lon="9.8971682"><ele>793.0</ele><time>2026-05-02T09:14:36.754Z</time></trkpt><trkpt lat="44.611191" lon="9.8970798"><ele>793.0</ele><time>2026-05-02T09:14:37.754Z</time></trkpt><trkpt lat="44.6110676" lon="9.896996"><ele>793.0</ele><time>2026-05-02T09:14:38.754Z</time></trkpt><trkpt lat="44.6109595" lon="9.8969046"><ele>793.0</ele><time>2026-05-02T09:14:39.754Z</time></trkpt><trkpt lat="44.6108597" lon="9.8968078"><ele>793.0</ele><time>2026-05-02T09:14:40.754Z</time></trkpt><trkpt lat="44.6107733" lon="9.8966867"><ele>793.0</ele><time>2026-05-02T09:14:41.754Z</time></trkpt><trkpt lat="44.6106929" lon="9.8965659"><ele>793.0</ele><time>2026-05-02T09:14:42.754Z</time></trkpt><trkpt lat="44.6106989" lon="9.896375"><ele>793.0</ele><time>2026-05-02T09:14:43.754Z</time></trkpt><trkpt lat="44.6106736" lon="9.896205"><ele>793.0</ele><time>2026-05-02T09:14:44.754Z</time></trkpt><trkpt lat="44.6106634" lon="9.8960205"><ele>793.0</ele><time>2026-05-02T09:14:45.756Z</time></trkpt><trkpt lat="44.6106482" lon="9.8958354"><ele>793.0</ele><time>2026-05-02T09:14:46.755Z</time></trkpt><trkpt lat="44.6106384" lon="9.8956434"><ele>793.0</ele><time>2026-05-02T09:14:47.754Z</time></trkpt><trkpt lat="44.6106208" lon="9.8954499"><ele>793.0</ele><time>2026-05-02T09:14:48.754Z</time></trkpt><trkpt lat="44.6105917" lon="9.8952674"><ele>793.0</ele><time>2026-05-02T09:14:49.754Z</time></trkpt><trkpt lat="44.6105262" lon="9.8950882"><ele>793.0</ele><time>2026-05-02T09:14:50.755Z</time></trkpt><trkpt lat="44.6104499" lon="9.8949187"><ele>792.5</ele><time>2026-05-02T09:14:51.754Z</time></trkpt><trkpt lat="44.6103574" lon="9.8947555"><ele>792.0</ele><time>2026-05-02T09:14:52.754Z</time></trkpt><trkpt lat="44.6102653" lon="9.894598"><ele>791.5</ele><time>2026-05-02T09:14:53.754Z</time></trkpt><trkpt lat="44.6101767" lon="9.8944516"><ele>791.0</ele><time>2026-05-02T09:14:54.755Z</time></trkpt><trkpt lat="44.610098" lon="9.8943063"><ele>788.0</ele><time>2026-05-02T09:14:55.754Z</time></trkpt><trkpt lat="44.6100488" lon="9.8941248"><ele>785.0</ele><time>2026-05-02T09:14:56.754Z</time></trkpt><trkpt lat="44.6100168" lon="9.8939451"><ele>782.0</ele><time>2026-05-02T09:14:57.754Z</time></trkpt><trkpt lat="44.6099916" lon="9.8937603"><ele>779.0</ele><time>2026-05-02T09:14:58.753Z</time></trkpt><trkpt lat="44.6099735" lon="9.8935756"><ele>778.25</ele><time>2026-05-02T09:14:59.754Z</time></trkpt><trkpt lat="44.6099507" lon="9.8933935"><ele>777.5</ele><time>2026-05-02T09:15:00.753Z</time></trkpt><trkpt lat="44.6099238" lon="9.8932152"><ele>776.75</ele><time>2026-05-02T09:15:01.754Z</time></trkpt><trkpt lat="44.6098688" lon="9.8930387"><ele>776.0</ele><time>2026-05-02T09:15:02.753Z</time></trkpt><trkpt lat="44.6097884" lon="9.8928831"><ele>776.0</ele><time>2026-05-02T09:15:03.753Z</time></trkpt><trkpt lat="44.6097053" lon="9.8927378"><ele>776.0</ele><time>2026-05-02T09:15:04.753Z</time></trkpt><trkpt lat="44.609608" lon="9.8926003"><ele>776.0</ele><time>2026-05-02T09:15:05.753Z</time></trkpt><trkpt lat="44.6095013" lon="9.8924618"><ele>776.0</ele><time>2026-05-02T09:15:06.753Z</time></trkpt><trkpt lat="44.6094001" lon="9.8923319"><ele>773.5</ele><time>2026-05-02T09:15:07.753Z</time></trkpt><trkpt lat="44.6093127" lon="9.8922019"><ele>771.0</ele><time>2026-05-02T09:15:08.753Z</time></trkpt><trkpt lat="44.609254" lon="9.8920628"><ele>768.5</ele><time>2026-05-02T09:15:09.753Z</time></trkpt><trkpt lat="44.6092313" lon="9.8919261"><ele>766.0</ele><time>2026-05-02T09:15:10.753Z</time></trkpt><trkpt lat="44.6092474" lon="9.8917727"><ele>765.25</ele><time>2026-05-02T09:15:11.753Z</time></trkpt><trkpt lat="44.60927" lon="9.891607"><ele>764.5</ele><time>2026-05-02T09:15:12.754Z</time></trkpt><trkpt lat="44.6092828" lon="9.8914289"><ele>763.75</ele><time>2026-05-02T09:15:13.753Z</time></trkpt><trkpt lat="44.6092853" lon="9.8912525"><ele>763.0</ele><time>2026-05-02T09:15:14.753Z</time></trkpt><trkpt lat="44.6092738" lon="9.8910889"><ele>763.0</ele><time>2026-05-02T09:15:15.754Z</time></trkpt><trkpt lat="44.6092691" lon="9.8909265"><ele>763.0</ele><time>2026-05-02T09:15:16.753Z</time></trkpt><trkpt lat="44.6091946" lon="9.8908535"><ele>763.0</ele><time>2026-05-02T09:15:17.753Z</time></trkpt><trkpt lat="44.6091018" lon="9.8908045"><ele>763.0</ele><time>2026-05-02T09:15:18.753Z</time></trkpt><trkpt lat="44.6090062" lon="9.8907778"><ele>763.0</ele><time>2026-05-02T09:15:19.753Z</time></trkpt><trkpt lat="44.6088912" lon="9.8907669"><ele>761.75</ele><time>2026-05-02T09:15:20.754Z</time></trkpt><trkpt lat="44.6087709" lon="9.8907492"><ele>760.5</ele><time>2026-05-02T09:15:21.754Z</time></trkpt><trkpt lat="44.6086491" lon="9.890728"><ele>759.25</ele><time>2026-05-02T09:15:22.753Z</time></trkpt><trkpt lat="44.6085314" lon="9.8906794"><ele>758.0</ele><time>2026-05-02T09:15:23.753Z</time></trkpt><trkpt lat="44.608426" lon="9.8906017"><ele>758.0</ele><time>2026-05-02T09:15:24.754Z</time></trkpt><trkpt lat="44.6083286" lon="9.8905094"><ele>758.0</ele><time>2026-05-02T09:15:25.753Z</time></trkpt><trkpt lat="44.6082295" lon="9.8904084"><ele>758.0</ele><time>2026-05-02T09:15:26.753Z</time></trkpt><trkpt lat="44.6081332" lon="9.8902985"><ele>758.0</ele><time>2026-05-02T09:15:27.753Z</time></trkpt><trkpt lat="44.6080327" lon="9.890192"><ele>757.5</ele><time>2026-05-02T09:15:28.753Z</time></trkpt><trkpt lat="44.607934" lon="9.8900775"><ele>757.0</ele><time>2026-05-02T09:15:29.753Z</time></trkpt><trkpt lat="44.6078326" lon="9.8899702"><ele>756.5</ele><time>2026-05-02T09:15:30.753Z</time></trkpt><trkpt lat="44.6077328" lon="9.8898654"><ele>756.0</ele><time>2026-05-02T09:15:31.753Z</time></trkpt><trkpt lat="44.6076447" lon="9.8897517"><ele>756.0</ele><time>2026-05-02T09:15:32.753Z</time></trkpt><trkpt lat="44.6075734" lon="9.8896226"><ele>756.0</ele><time>2026-05-02T09:15:33.753Z</time></trkpt><trkpt lat="44.6075299" lon="9.8894766"><ele>756.0</ele><time>2026-05-02T09:15:34.753Z</time></trkpt><trkpt lat="44.6075118" lon="9.889323"><ele>756.0</ele><time>2026-05-02T09:15:35.753Z</time></trkpt><trkpt lat="44.6075126" lon="9.8891809"><ele>756.0</ele><time>2026-05-02T09:15:36.754Z</time></trkpt><trkpt lat="44.607523" lon="9.8890618"><ele>755.5</ele><time>2026-05-02T09:15:37.753Z</time></trkpt><trkpt lat="44.6075338" lon="9.8889538"><ele>755.0</ele><time>2026-05-02T09:15:38.753Z</time></trkpt><trkpt lat="44.6075478" lon="9.8888565"><ele>754.5</ele><time>2026-05-02T09:15:39.753Z</time></trkpt><trkpt lat="44.607564" lon="9.8887654"><ele>754.0</ele><time>2026-05-02T09:15:40.753Z</time></trkpt><trkpt lat="44.6075849" lon="9.8886108"><ele>753.5</ele><time>2026-05-02T09:15:42.754Z</time></trkpt><trkpt lat="44.6075965" lon="9.8884959"><ele>753.0</ele><time>2026-05-02T09:15:44.753Z</time></trkpt><trkpt lat="44.607604" lon="9.8883858"><ele>753.0</ele><time>2026-05-02T09:15:46.753Z</time></trkpt><trkpt lat="44.6076256" lon="9.8882471"><ele>753.0</ele><time>2026-05-02T09:15:48.753Z</time></trkpt><trkpt lat="44.6076423" lon="9.8880702"><ele>753.0</ele><time>2026-05-02T09:15:50.753Z</time></trkpt><trkpt lat="44.6076506" lon="9.8879751"><ele>753.0</ele><time>2026-05-02T09:15:51.753Z</time></trkpt><trkpt lat="44.6076612" lon="9.8878775"><ele>753.0</ele><time>2026-05-02T09:15:52.754Z</time></trkpt><trkpt lat="44.6076701" lon="9.8877729"><ele>753.0</ele><time>2026-05-02T09:15:53.753Z</time></trkpt><trkpt lat="44.6076835" lon="9.8876694"><ele>754.0</ele><time>2026-05-02T09:15:54.755Z</time></trkpt><trkpt lat="44.6076947" lon="9.8875596"><ele>755.0</ele><time>2026-05-02T09:15:55.753Z</time></trkpt><trkpt lat="44.6077062" lon="9.8874615"><ele>756.0</ele><time>2026-05-02T09:15:56.753Z</time></trkpt><trkpt lat="44.607713" lon="9.8873609"><ele>757.0</ele><time>2026-05-02T09:15:58.753Z</time></trkpt><trkpt lat="44.607707" lon="9.887238"><ele>758.0</ele><time>2026-05-02T09:16:01.754Z</time></trkpt><trkpt lat="44.6076908" lon="9.8870981"><ele>759.0</ele><time>2026-05-02T09:16:03.753Z</time></trkpt><trkpt lat="44.6076437" lon="9.8869755"><ele>759.0</ele><time>2026-05-02T09:16:05.753Z</time></trkpt><trkpt lat="44.6075867" lon="9.8868153"><ele>759.0</ele><time>2026-05-02T09:16:07.753Z</time></trkpt><trkpt lat="44.607549" lon="9.8867249"><ele>759.0</ele><time>2026-05-02T09:16:08.753Z</time></trkpt><trkpt lat="44.6075185" lon="9.8866401"><ele>759.0</ele><time>2026-05-02T09:16:09.753Z</time></trkpt><trkpt lat="44.6074827" lon="9.8865498"><ele>759.0</ele><time>2026-05-02T09:16:10.753Z</time></trkpt><trkpt lat="44.6074467" lon="9.8864569"><ele>759.0</ele><time>2026-05-02T09:16:11.754Z</time></trkpt><trkpt lat="44.6074099" lon="9.8863811"><ele>760.0</ele><time>2026-05-02T09:16:12.753Z</time></trkpt><trkpt lat="44.6073583" lon="9.8862951"><ele>761.0</ele><time>2026-05-02T09:16:14.753Z</time></trkpt><trkpt lat="44.6073159" lon="9.8862256"><ele>762.0</ele><time>2026-05-02T09:16:16.753Z</time></trkpt><trkpt lat="44.6073792" lon="9.8862839"><ele>763.0</ele><time>2026-05-02T09:16:20.753Z</time></trkpt><trkpt lat="44.6074102" lon="9.8863861"><ele>764.0</ele><time>2026-05-02T09:16:23.753Z</time></trkpt><trkpt lat="44.607459" lon="9.8864865"><ele>765.0</ele><time>2026-05-02T09:16:26.753Z</time></trkpt><trkpt lat="44.6075108" lon="9.8866005"><ele>765.0</ele><time>2026-05-02T09:16:28.753Z</time></trkpt><trkpt lat="44.6075725" lon="9.8867418"><ele>765.0</ele><time>2026-05-02T09:16:30.754Z</time></trkpt><trkpt lat="44.6076064" lon="9.8868234"><ele>765.0</ele><time>2026-05-02T09:16:31.753Z</time></trkpt><trkpt lat="44.6076386" lon="9.8869086"><ele>765.0</ele><time>2026-05-02T09:16:32.753Z</time></trkpt><trkpt lat="44.607679" lon="9.8870568"><ele>765.0</ele><time>2026-05-02T09:16:34.753Z</time></trkpt><trkpt lat="44.6077061" lon="9.8872113"><ele>764.0</ele><time>2026-05-02T09:16:36.755Z</time></trkpt><trkpt lat="44.6077043" lon="9.8873003"><ele>763.0</ele><time>2026-05-02T09:16:37.753Z</time></trkpt><trkpt lat="44.6076994" lon="9.8874135"><ele>762.0</ele><time>2026-05-02T09:16:39.753Z</time></trkpt><trkpt lat="44.6077616" lon="9.8873504"><ele>761.0</ele><time>2026-05-02T09:16:44.753Z</time></trkpt><trkpt lat="44.6077941" lon="9.887251"><ele>760.0</ele><time>2026-05-02T09:16:46.753Z</time></trkpt><trkpt lat="44.6078194" lon="9.8871067"><ele>759.0</ele><time>2026-05-02T09:16:48.754Z</time></trkpt><trkpt lat="44.6078466" lon="9.886949"><ele>759.0</ele><time>2026-05-02T09:16:50.753Z</time></trkpt><trkpt lat="44.6078262" lon="9.8868094"><ele>759.0</ele><time>2026-05-02T09:16:52.754Z</time></trkpt><trkpt lat="44.6078124" lon="9.8866177"><ele>759.0</ele><time>2026-05-02T09:16:54.753Z</time></trkpt><trkpt lat="44.6077971" lon="9.8865301"><ele>759.0</ele><time>2026-05-02T09:16:55.754Z</time></trkpt><trkpt lat="44.6077975" lon="9.8864353"><ele>759.0</ele><time>2026-05-02T09:16:56.753Z</time></trkpt><trkpt lat="44.6078183" lon="9.8863355"><ele>759.0</ele><time>2026-05-02T09:16:57.753Z</time></trkpt><trkpt lat="44.607841" lon="9.8862482"><ele>756.6</ele><time>2026-05-02T09:16:58.753Z</time></trkpt><trkpt lat="44.6078613" lon="9.8861602"><ele>754.2</ele><time>2026-05-02T09:16:59.753Z</time></trkpt><trkpt lat="44.6078812" lon="9.8860713"><ele>751.8000000000001</ele><time>2026-05-02T09:17:00.753Z</time></trkpt><trkpt lat="44.6079437" lon="9.8859478"><ele>749.4000000000001</ele><time>2026-05-02T09:17:02.753Z</time></trkpt><trkpt lat="44.6080241" lon="9.8858195"><ele>747.0</ele><time>2026-05-02T09:17:04.753Z</time></trkpt><trkpt lat="44.6081104" lon="9.8857146"><ele>746.4000000000001</ele><time>2026-05-02T09:17:06.753Z</time></trkpt><trkpt lat="44.6081682" lon="9.8855694"><ele>745.8000000000001</ele><time>2026-05-02T09:17:08.754Z</time></trkpt><trkpt lat="44.6081956" lon="9.8854246"><ele>745.2</ele><time>2026-05-02T09:17:10.754Z</time></trkpt><trkpt lat="44.6082293" lon="9.8852579"><ele>744.6</ele><time>2026-05-02T09:17:12.753Z</time></trkpt><trkpt lat="44.6082388" lon="9.8851626"><ele>744.0</ele><time>2026-05-02T09:17:13.753Z</time></trkpt><trkpt lat="44.6082418" lon="9.8850645"><ele>743.1666666666666</ele><time>2026-05-02T09:17:14.754Z</time></trkpt><trkpt lat="44.608251" lon="9.8849652"><ele>742.3333333333334</ele><time>2026-05-02T09:17:15.753Z</time></trkpt><trkpt lat="44.6082753" lon="9.8848743"><ele>741.5</ele><time>2026-05-02T09:17:16.753Z</time></trkpt><trkpt lat="44.6082935" lon="9.8847769"><ele>740.6666666666667</ele><time>2026-05-02T09:17:17.754Z</time></trkpt><trkpt lat="44.6082778" lon="9.8846118"><ele>739.8333333333334</ele><time>2026-05-02T09:17:19.753Z</time></trkpt><trkpt lat="44.60824" lon="9.8845401"><ele>739.0</ele><time>2026-05-02T09:17:20.754Z</time></trkpt><trkpt lat="44.6081956" lon="9.8844661"><ele>739.0</ele><time>2026-05-02T09:17:21.753Z</time></trkpt><trkpt lat="44.6081451" lon="9.8843896"><ele>739.0</ele><time>2026-05-02T09:17:22.754Z</time></trkpt><trkpt lat="44.6080999" lon="9.8843215"><ele>739.0</ele><time>2026-05-02T09:17:23.753Z</time></trkpt><trkpt lat="44.6080494" lon="9.8842548"><ele>739.0</ele><time>2026-05-02T09:17:24.753Z</time></trkpt><trkpt lat="44.6079827" lon="9.8841264"><ele>739.0</ele><time>2026-05-02T09:17:26.753Z</time></trkpt><trkpt lat="44.6079442" lon="9.8839673"><ele>739.0</ele><time>2026-05-02T09:17:28.753Z</time></trkpt><trkpt lat="44.6079322" lon="9.8838746"><ele>738.5714285714286</ele><time>2026-05-02T09:17:29.754Z</time></trkpt><trkpt lat="44.6079285" lon="9.8837789"><ele>738.1428571428571</ele><time>2026-05-02T09:17:30.754Z</time></trkpt><trkpt lat="44.6078854" lon="9.8836819"><ele>737.7142857142858</ele><time>2026-05-02T09:17:31.753Z</time></trkpt><trkpt lat="44.6078584" lon="9.8835905"><ele>737.2857142857142</ele><time>2026-05-02T09:17:32.753Z</time></trkpt><trkpt lat="44.6078358" lon="9.8834937"><ele>736.8571428571428</ele><time>2026-05-02T09:17:33.754Z</time></trkpt><trkpt lat="44.6078217" lon="9.8833997"><ele>736.4285714285714</ele><time>2026-05-02T09:17:34.754Z</time></trkpt><trkpt lat="44.6078053" lon="9.8833057"><ele>736.0</ele><time>2026-05-02T09:17:35.753Z</time></trkpt><trkpt lat="44.6077993" lon="9.8832127"><ele>737.1999999999999</ele><time>2026-05-02T09:17:36.753Z</time></trkpt><trkpt lat="44.6077708" lon="9.8831295"><ele>738.4</ele><time>2026-05-02T09:17:37.753Z</time></trkpt><trkpt lat="44.6077267" lon="9.8829918"><ele>739.6</ele><time>2026-05-02T09:17:39.754Z</time></trkpt><trkpt lat="44.6077467" lon="9.882887"><ele>740.8</ele><time>2026-05-02T09:17:41.754Z</time></trkpt><trkpt lat="44.6077631" lon="9.8827492"><ele>742.0</ele><time>2026-05-02T09:17:43.753Z</time></trkpt><trkpt lat="44.6077855" lon="9.8825903"><ele>740.25</ele><time>2026-05-02T09:17:45.754Z</time></trkpt><trkpt lat="44.6078418" lon="9.8824536"><ele>738.5</ele><time>2026-05-02T09:17:47.753Z</time></trkpt><trkpt lat="44.6078595" lon="9.8822943"><ele>736.75</ele><time>2026-05-02T09:17:49.753Z</time></trkpt><trkpt lat="44.6079172" lon="9.8821478"><ele>735.0</ele><time>2026-05-02T09:17:51.753Z</time></trkpt><trkpt lat="44.6080011" lon="9.8820373"><ele>735.0</ele><time>2026-05-02T09:17:53.754Z</time></trkpt><trkpt lat="44.6080514" lon="9.8819744"><ele>735.0</ele><time>2026-05-02T09:17:54.753Z</time></trkpt><trkpt lat="44.6081426" lon="9.8818353"><ele>735.0</ele><time>2026-05-02T09:17:56.754Z</time></trkpt><trkpt lat="44.6081912" lon="9.8817535"><ele>735.0</ele><time>2026-05-02T09:17:57.753Z</time></trkpt><trkpt lat="44.6082387" lon="9.8816677"><ele>735.0</ele><time>2026-05-02T09:17:58.753Z</time></trkpt><trkpt lat="44.6082876" lon="9.8815611"><ele>735.0</ele><time>2026-05-02T09:17:59.754Z</time></trkpt><trkpt lat="44.6083304" lon="9.8814583"><ele>735.4</ele><time>2026-05-02T09:18:00.753Z</time></trkpt><trkpt lat="44.6083693" lon="9.8813485"><ele>735.8</ele><time>2026-05-02T09:18:01.753Z</time></trkpt><trkpt lat="44.6084147" lon="9.8812485"><ele>736.2</ele><time>2026-05-02T09:18:02.754Z</time></trkpt><trkpt lat="44.6084534" lon="9.8811597"><ele>736.6</ele><time>2026-05-02T09:18:03.754Z</time></trkpt><trkpt lat="44.6085191" lon="9.8810259"><ele>737.0</ele><time>2026-05-02T09:18:05.753Z</time></trkpt><trkpt lat="44.6085865" lon="9.8808924"><ele>737.2857142857143</ele><time>2026-05-02T09:18:07.753Z</time></trkpt><trkpt lat="44.608626" lon="9.8808117"><ele>737.5714285714286</ele><time>2026-05-02T09:18:08.753Z</time></trkpt><trkpt lat="44.608641" lon="9.8807096"><ele>737.8571428571429</ele><time>2026-05-02T09:18:09.753Z</time></trkpt><trkpt lat="44.6086727" lon="9.8806325"><ele>738.1428571428571</ele><time>2026-05-02T09:18:10.754Z</time></trkpt><trkpt lat="44.6087146" lon="9.8805527"><ele>738.4285714285714</ele><time>2026-05-02T09:18:11.753Z</time></trkpt><trkpt lat="44.6087604" lon="9.8804677"><ele>738.7142857142858</ele><time>2026-05-02T09:18:12.753Z</time></trkpt><trkpt lat="44.6088209" lon="9.88039"><ele>739.0</ele><time>2026-05-02T09:18:13.754Z</time></trkpt><trkpt lat="44.6088578" lon="9.8803087"><ele>737.0</ele><time>2026-05-02T09:18:14.753Z</time></trkpt><trkpt lat="44.6089181" lon="9.8802371"><ele>735.0</ele><time>2026-05-02T09:18:15.753Z</time></trkpt><trkpt lat="44.6089544" lon="9.8801263"><ele>733.0</ele><time>2026-05-02T09:18:18.753Z</time></trkpt><trkpt lat="44.6089884" lon="9.8800307"><ele>731.0</ele><time>2026-05-02T09:18:25.753Z</time></trkpt><trkpt lat="44.6090337" lon="9.8799134"><ele>729.0</ele><time>2026-05-02T09:18:27.753Z</time></trkpt><trkpt lat="44.6091114" lon="9.8798038"><ele>727.0</ele><time>2026-05-02T09:18:29.753Z</time></trkpt><trkpt lat="44.6092045" lon="9.8796967"><ele>726.8</ele><time>2026-05-02T09:18:31.754Z</time></trkpt><trkpt lat="44.609281" lon="9.8795763"><ele>726.6</ele><time>2026-05-02T09:18:33.753Z</time></trkpt><trkpt lat="44.6093323" lon="9.8794391"><ele>726.4</ele><time>2026-05-02T09:18:35.753Z</time></trkpt><trkpt lat="44.6093528" lon="9.8793271"><ele>726.1999999999999</ele><time>2026-05-02T09:18:37.753Z</time></trkpt><trkpt lat="44.6093799" lon="9.8792055"><ele>726.0</ele><time>2026-05-02T09:18:39.753Z</time></trkpt><trkpt lat="44.6093569" lon="9.8790566"><ele>725.1999999999999</ele><time>2026-05-02T09:18:41.754Z</time></trkpt><trkpt lat="44.609318" lon="9.8789737"><ele>724.4</ele><time>2026-05-02T09:18:42.753Z</time></trkpt><trkpt lat="44.6092625" lon="9.8788474"><ele>723.6</ele><time>2026-05-02T09:18:44.753Z</time></trkpt><trkpt lat="44.6092476" lon="9.8786693"><ele>722.8</ele><time>2026-05-02T09:18:46.754Z</time></trkpt><trkpt lat="44.6092184" lon="9.8784878"><ele>722.0</ele><time>2026-05-02T09:18:48.753Z</time></trkpt><trkpt lat="44.6091898" lon="9.8783711"><ele>721.8333333333333</ele><time>2026-05-02T09:18:50.754Z</time></trkpt><trkpt lat="44.6091692" lon="9.8782769"><ele>721.6666666666666</ele><time>2026-05-02T09:18:52.753Z</time></trkpt><trkpt lat="44.6092232" lon="9.8781884"><ele>721.5</ele><time>2026-05-02T09:19:09.754Z</time></trkpt><trkpt lat="44.6092903" lon="9.8781139"><ele>721.3333333333334</ele><time>2026-05-02T09:19:11.753Z</time></trkpt><trkpt lat="44.6093273" lon="9.8780332"><ele>721.1666666666667</ele><time>2026-05-02T09:19:12.753Z</time></trkpt><trkpt lat="44.6093861" lon="9.8778988"><ele>721.0</ele><time>2026-05-02T09:19:14.753Z</time></trkpt><trkpt lat="44.6094466" lon="9.8778118"><ele>719.8333333333334</ele><time>2026-05-02T09:19:17.753Z</time></trkpt><trkpt lat="44.6095016" lon="9.8777666"><ele>718.6666666666667</ele><time>2026-05-02T09:19:20.753Z</time></trkpt><trkpt lat="44.6095781" lon="9.8777014"><ele>717.5</ele><time>2026-05-02T09:19:22.753Z</time></trkpt><trkpt lat="44.6096452" lon="9.8776119"><ele>716.3333333333334</ele><time>2026-05-02T09:19:24.753Z</time></trkpt><trkpt lat="44.6097384" lon="9.8775071"><ele>715.1666666666666</ele><time>2026-05-02T09:19:26.753Z</time></trkpt><trkpt lat="44.6097958" lon="9.8774565"><ele>714.0</ele><time>2026-05-02T09:19:27.754Z</time></trkpt><trkpt lat="44.6098864" lon="9.8773789"><ele>714.0</ele><time>2026-05-02T09:19:29.753Z</time></trkpt><trkpt lat="44.6099861" lon="9.8772894"><ele>714.0</ele><time>2026-05-02T09:19:31.753Z</time></trkpt><trkpt lat="44.6100701" lon="9.8772152"><ele>714.0</ele><time>2026-05-02T09:19:33.753Z</time></trkpt><trkpt lat="44.6101223" lon="9.8771144"><ele>714.0</ele><time>2026-05-02T09:19:35.753Z</time></trkpt><trkpt lat="44.6101116" lon="9.8769907"><ele>714.0</ele><time>2026-05-02T09:19:37.753Z</time></trkpt><trkpt lat="44.6100587" lon="9.8768653"><ele>714.0</ele><time>2026-05-02T09:19:39.754Z</time></trkpt><trkpt lat="44.6100066" lon="9.8767632"><ele>714.0</ele><time>2026-05-02T09:19:41.754Z</time></trkpt><trkpt lat="44.6100102" lon="9.8766259"><ele>714.0</ele><time>2026-05-02T09:19:43.753Z</time></trkpt><trkpt lat="44.6100107" lon="9.8764882"><ele>714.0</ele><time>2026-05-02T09:19:45.753Z</time></trkpt><trkpt lat="44.6100206" lon="9.8763916"><ele>714.0</ele><time>2026-05-02T09:19:47.753Z</time></trkpt><trkpt lat="44.6100484" lon="9.8762929"><ele>714.0</ele><time>2026-05-02T09:19:50.754Z</time></trkpt><trkpt lat="44.6100961" lon="9.8761952"><ele>714.0</ele><time>2026-05-02T09:19:53.753Z</time></trkpt><trkpt lat="44.610164" lon="9.8761359"><ele>714.0</ele><time>2026-05-02T09:19:55.753Z</time></trkpt><trkpt lat="44.6102311" lon="9.8760658"><ele>714.0</ele><time>2026-05-02T09:19:58.753Z</time></trkpt><trkpt lat="44.6102834" lon="9.8760004"><ele>714.0</ele><time>2026-05-02T09:20:00.754Z</time></trkpt><trkpt lat="44.6103322" lon="9.8759008"><ele>714.0</ele><time>2026-05-02T09:20:03.753Z</time></trkpt><trkpt lat="44.6103861" lon="9.8758369"><ele>714.0</ele><time>2026-05-02T09:20:05.753Z</time></trkpt><trkpt lat="44.6104344" lon="9.8757746"><ele>710.5</ele><time>2026-05-02T09:20:07.753Z</time></trkpt><trkpt lat="44.6104653" lon="9.8756877"><ele>707.0</ele><time>2026-05-02T09:20:09.753Z</time></trkpt><trkpt lat="44.610512" lon="9.8755888"><ele>703.5</ele><time>2026-05-02T09:20:12.754Z</time></trkpt><trkpt lat="44.6105588" lon="9.8755007"><ele>700.0</ele><time>2026-05-02T09:20:15.753Z</time></trkpt><trkpt lat="44.6106142" lon="9.8753985"><ele>696.5</ele><time>2026-05-02T09:20:17.754Z</time></trkpt><trkpt lat="44.6106673" lon="9.8753188"><ele>693.0</ele><time>2026-05-02T09:20:19.754Z</time></trkpt><trkpt lat="44.6107248" lon="9.8752444"><ele>693.0</ele><time>2026-05-02T09:20:21.754Z</time></trkpt><trkpt lat="44.6107888" lon="9.8751912"><ele>693.0</ele><time>2026-05-02T09:20:23.753Z</time></trkpt><trkpt lat="44.6108528" lon="9.875133"><ele>693.0</ele><time>2026-05-02T09:20:25.753Z</time></trkpt><trkpt lat="44.6109121" lon="9.8750742"><ele>693.0</ele><time>2026-05-02T09:20:28.753Z</time></trkpt><trkpt lat="44.6109619" lon="9.8750067"><ele>693.0</ele><time>2026-05-02T09:21:08.752Z</time></trkpt><trkpt lat="44.6110154" lon="9.874924"><ele>693.0</ele><time>2026-05-02T09:21:10.752Z</time></trkpt><trkpt lat="44.6110765" lon="9.8748546"><ele>692.3333333333334</ele><time>2026-05-02T09:21:13.753Z</time></trkpt><trkpt lat="44.6111474" lon="9.8747821"><ele>691.6666666666666</ele><time>2026-05-02T09:21:15.752Z</time></trkpt><trkpt lat="44.6112027" lon="9.8747313"><ele>691.0</ele><time>2026-05-02T09:21:17.752Z</time></trkpt><trkpt lat="44.6112678" lon="9.8747191"><ele>690.3333333333333</ele><time>2026-05-02T09:21:19.752Z</time></trkpt><trkpt lat="44.611348" lon="9.8747383"><ele>689.6666666666666</ele><time>2026-05-02T09:21:21.753Z</time></trkpt><trkpt lat="44.6114275" lon="9.8747443"><ele>689.0</ele><time>2026-05-02T09:21:23.753Z</time></trkpt><trkpt lat="44.611502" lon="9.8747234"><ele>687.1666666666666</ele><time>2026-05-02T09:21:25.752Z</time></trkpt><trkpt lat="44.6115984" lon="9.8747018"><ele>685.3333333333333</ele><time>2026-05-02T09:21:27.752Z</time></trkpt><trkpt lat="44.611681" lon="9.8747041"><ele>683.5</ele><time>2026-05-02T09:21:29.752Z</time></trkpt><trkpt lat="44.6117532" lon="9.8747177"><ele>681.6666666666666</ele><time>2026-05-02T09:21:31.752Z</time></trkpt><trkpt lat="44.6118297" lon="9.8747873"><ele>679.8333333333334</ele><time>2026-05-02T09:21:33.752Z</time></trkpt><trkpt lat="44.6119162" lon="9.8748573"><ele>678.0</ele><time>2026-05-02T09:21:36.752Z</time></trkpt><trkpt lat="44.611982" lon="9.8749112"><ele>676.1428571428571</ele><time>2026-05-02T09:21:38.752Z</time></trkpt><trkpt lat="44.6120712" lon="9.8749241"><ele>674.2857142857143</ele><time>2026-05-02T09:21:41.752Z</time></trkpt><trkpt lat="44.6121472" lon="9.8748989"><ele>672.4285714285714</ele><time>2026-05-02T09:21:44.753Z</time></trkpt><trkpt lat="44.6122106" lon="9.8748393"><ele>670.5714285714286</ele><time>2026-05-02T09:21:47.754Z</time></trkpt><trkpt lat="44.6122737" lon="9.8747952"><ele>668.7142857142858</ele><time>2026-05-02T09:21:50.753Z</time></trkpt><trkpt lat="44.6123336" lon="9.8747601"><ele>666.8571428571429</ele><time>2026-05-02T09:21:59.752Z</time></trkpt><trkpt lat="44.612392" lon="9.8747239"><ele>665.0</ele><time>2026-05-02T09:22:01.752Z</time></trkpt><trkpt lat="44.6124666" lon="9.8746829"><ele>665.0</ele><time>2026-05-02T09:22:04.753Z</time></trkpt><trkpt lat="44.6125324" lon="9.8746472"><ele>665.0</ele><time>2026-05-02T09:22:07.753Z</time></trkpt><trkpt lat="44.6126134" lon="9.8746304"><ele>665.0</ele><time>2026-05-02T09:22:10.752Z</time></trkpt><trkpt lat="44.6126835" lon="9.8746178"><ele>665.0</ele><time>2026-05-02T09:22:12.752Z</time></trkpt><trkpt lat="44.6127711" lon="9.8745719"><ele>665.0</ele><time>2026-05-02T09:22:15.752Z</time></trkpt><trkpt lat="44.6128367" lon="9.8745445"><ele>665.0</ele><time>2026-05-02T09:22:17.697Z</time></trkpt><trkpt lat="44.6129102" lon="9.8745539"><ele>662.8</ele><time>2026-05-02T09:22:19.753Z</time></trkpt><trkpt lat="44.612979" lon="9.8745681"><ele>660.6</ele><time>2026-05-02T09:22:21.753Z</time></trkpt><trkpt lat="44.6130773" lon="9.8745644"><ele>658.4000000000001</ele><time>2026-05-02T09:22:23.754Z</time></trkpt><trkpt lat="44.6131878" lon="9.8745766"><ele>656.2</ele><time>2026-05-02T09:22:25.752Z</time></trkpt><trkpt lat="44.6132638" lon="9.8745395"><ele>654.0</ele><time>2026-05-02T09:22:35.752Z</time></trkpt><trkpt lat="44.6133648" lon="9.8745098"><ele>654.0</ele><time>2026-05-02T09:22:37.752Z</time></trkpt><trkpt lat="44.6134594" lon="9.8745105"><ele>654.0</ele><time>2026-05-02T09:22:39.753Z</time></trkpt><trkpt lat="44.6135275" lon="9.8744927"><ele>654.0</ele><time>2026-05-02T09:22:40.752Z</time></trkpt><trkpt lat="44.6136408" lon="9.8744442"><ele>654.0</ele><time>2026-05-02T09:22:42.753Z</time></trkpt><trkpt lat="44.6137371" lon="9.8744064"><ele>654.0</ele><time>2026-05-02T09:22:44.752Z</time></trkpt><trkpt lat="44.6138301" lon="9.8743555"><ele>652.1666666666666</ele><time>2026-05-02T09:22:46.752Z</time></trkpt><trkpt lat="44.6139144" lon="9.8743147"><ele>650.3333333333334</ele><time>2026-05-02T09:22:48.752Z</time></trkpt><trkpt lat="44.6139832" lon="9.8742916"><ele>648.5</ele><time>2026-05-02T09:22:50.753Z</time></trkpt><trkpt lat="44.6140525" lon="9.8742432"><ele>646.6666666666667</ele><time>2026-05-02T09:22:52.752Z</time></trkpt><trkpt lat="44.6141091" lon="9.8741445"><ele>644.8333333333334</ele><time>2026-05-02T09:22:54.753Z</time></trkpt><trkpt lat="44.6141911" lon="9.8740801"><ele>643.0</ele><time>2026-05-02T09:22:56.752Z</time></trkpt><trkpt lat="44.614278" lon="9.8740161"><ele>643.0</ele><time>2026-05-02T09:22:58.752Z</time></trkpt><trkpt lat="44.6143409" lon="9.8739467"><ele>643.0</ele><time>2026-05-02T09:23:00.752Z</time></trkpt><trkpt lat="44.6143784" lon="9.8738511"><ele>643.0</ele><time>2026-05-02T09:23:03.752Z</time></trkpt><trkpt lat="44.614416" lon="9.8737764"><ele>643.0</ele><time>2026-05-02T09:23:11.752Z</time></trkpt><trkpt lat="44.6144634" lon="9.8737087"><ele>643.0</ele><time>2026-05-02T09:23:19.753Z</time></trkpt><trkpt lat="44.6145141" lon="9.8736304"><ele>643.0</ele><time>2026-05-02T09:23:26.752Z</time></trkpt><trkpt lat="44.6145567" lon="9.873551"><ele>643.0</ele><time>2026-05-02T09:23:30.752Z</time></trkpt><trkpt lat="44.6145737" lon="9.8734423"><ele>637.8333333333334</ele><time>2026-05-02T09:23:45.753Z</time></trkpt><trkpt lat="44.6145552" lon="9.8733217"><ele>632.6666666666667</ele><time>2026-05-02T09:23:48.752Z</time></trkpt><trkpt lat="44.61455" lon="9.8732064"><ele>627.5</ele><time>2026-05-02T09:23:51.752Z</time></trkpt><trkpt lat="44.6146087" lon="9.8731262"><ele>622.3333333333334</ele><time>2026-05-02T09:23:54.752Z</time></trkpt><trkpt lat="44.6146716" lon="9.873071"><ele>617.1666666666666</ele><time>2026-05-02T09:23:57.752Z</time></trkpt><trkpt lat="44.6147518" lon="9.8730106"><ele>612.0</ele><time>2026-05-02T09:24:00.752Z</time></trkpt><trkpt lat="44.614816" lon="9.872926"><ele>612.0</ele><time>2026-05-02T09:24:03.752Z</time></trkpt><trkpt lat="44.6148324" lon="9.8728387"><ele>612.0</ele><time>2026-05-02T09:24:05.752Z</time></trkpt><trkpt lat="44.614865" lon="9.8727311"><ele>612.0</ele><time>2026-05-02T09:24:07.753Z</time></trkpt><trkpt lat="44.614908" lon="9.8726519"><ele>612.0</ele><time>2026-05-02T09:24:09.752Z</time></trkpt><trkpt lat="44.6150005" lon="9.8726092"><ele>612.0</ele><time>2026-05-02T09:24:11.753Z</time></trkpt><trkpt lat="44.6150835" lon="9.8725554"><ele>612.0</ele><time>2026-05-02T09:24:14.752Z</time></trkpt><trkpt lat="44.6151479" lon="9.8725135"><ele>610.6666666666666</ele><time>2026-05-02T09:24:16.753Z</time></trkpt><trkpt lat="44.6152122" lon="9.8724978"><ele>609.3333333333334</ele><time>2026-05-02T09:24:18.752Z</time></trkpt><trkpt lat="44.6153025" lon="9.8725005"><ele>608.0</ele><time>2026-05-02T09:24:20.752Z</time></trkpt><trkpt lat="44.6154044" lon="9.8724832"><ele>606.6666666666667</ele><time>2026-05-02T09:24:22.752Z</time></trkpt><trkpt lat="44.6154697" lon="9.8724306"><ele>605.3333333333334</ele><time>2026-05-02T09:24:55.752Z</time></trkpt><trkpt lat="44.6155273" lon="9.8723911"><ele>604.0</ele><time>2026-05-02T09:24:57.752Z</time></trkpt><trkpt lat="44.6156238" lon="9.8723945"><ele>601.7142857142858</ele><time>2026-05-02T09:25:00.753Z</time></trkpt><trkpt lat="44.6156974" lon="9.8724252"><ele>599.4285714285714</ele><time>2026-05-02T09:25:02.752Z</time></trkpt><trkpt lat="44.6157717" lon="9.8724517"><ele>597.1428571428571</ele><time>2026-05-02T09:25:04.752Z</time></trkpt><trkpt lat="44.6158355" lon="9.872478"><ele>594.8571428571429</ele><time>2026-05-02T09:25:06.752Z</time></trkpt><trkpt lat="44.6159108" lon="9.8724418"><ele>592.5714285714286</ele><time>2026-05-02T09:25:09.752Z</time></trkpt><trkpt lat="44.6159526" lon="9.8723688"><ele>590.2857142857143</ele><time>2026-05-02T09:25:11.752Z</time></trkpt><trkpt lat="44.6159711" lon="9.8722634"><ele>588.0</ele><time>2026-05-02T09:25:13.752Z</time></trkpt><trkpt lat="44.6159761" lon="9.872126"><ele>588.0</ele><time>2026-05-02T09:25:15.752Z</time></trkpt><trkpt lat="44.6159738" lon="9.872013"><ele>588.0</ele><time>2026-05-02T09:25:17.752Z</time></trkpt><trkpt lat="44.6159589" lon="9.8718995"><ele>588.0</ele><time>2026-05-02T09:25:19.752Z</time></trkpt><trkpt lat="44.6159385" lon="9.8717965"><ele>588.0</ele><time>2026-05-02T09:25:21.753Z</time></trkpt><trkpt lat="44.6159083" lon="9.8717105"><ele>588.0</ele><time>2026-05-02T09:25:25.753Z</time></trkpt><trkpt lat="44.6158813" lon="9.8715963"><ele>588.0</ele><time>2026-05-02T09:25:28.752Z</time></trkpt><trkpt lat="44.6158592" lon="9.8714999"><ele>585.8571428571429</ele><time>2026-05-02T09:25:30.752Z</time></trkpt><trkpt lat="44.6158449" lon="9.8714065"><ele>583.7142857142858</ele><time>2026-05-02T09:25:32.752Z</time></trkpt><trkpt lat="44.6158448" lon="9.8713146"><ele>581.5714285714286</ele><time>2026-05-02T09:25:35.752Z</time></trkpt><trkpt lat="44.6158637" lon="9.8712171"><ele>579.4285714285714</ele><time>2026-05-02T09:25:38.752Z</time></trkpt><trkpt lat="44.6158997" lon="9.8711331"><ele>577.2857142857143</ele><time>2026-05-02T09:25:42.753Z</time></trkpt><trkpt lat="44.615964" lon="9.8711041"><ele>575.1428571428571</ele><time>2026-05-02T09:25:45.753Z</time></trkpt><trkpt lat="44.6160491" lon="9.8710718"><ele>573.0</ele><time>2026-05-02T09:25:48.752Z</time></trkpt><trkpt lat="44.6161242" lon="9.8710082"><ele>573.0</ele><time>2026-05-02T09:25:51.752Z</time></trkpt><trkpt lat="44.6161309" lon="9.8709165"><ele>573.0</ele><time>2026-05-02T09:25:54.753Z</time></trkpt><trkpt lat="44.6161413" lon="9.8708241"><ele>573.0</ele><time>2026-05-02T09:25:56.752Z</time></trkpt><trkpt lat="44.6161503" lon="9.8707248"><ele>573.0</ele><time>2026-05-02T09:25:59.752Z</time></trkpt><trkpt lat="44.6161551" lon="9.8708357"><ele>573.0</ele><time>2026-05-02T09:39:43.749Z</time></trkpt><trkpt lat="44.6161302" lon="9.8709419"><ele>573.0</ele><time>2026-05-02T09:39:45.749Z</time></trkpt><trkpt lat="44.616107" lon="9.871034"><ele>573.0</ele><time>2026-05-02T09:39:47.749Z</time></trkpt><trkpt lat="44.6160701" lon="9.8711087"><ele>573.0</ele><time>2026-05-02T09:39:49.749Z</time></trkpt><trkpt lat="44.6159803" lon="9.8711349"><ele>573.0</ele><time>2026-05-02T09:39:51.749Z</time></trkpt><trkpt lat="44.6158997" lon="9.8711713"><ele>573.0</ele><time>2026-05-02T09:39:53.749Z</time></trkpt><trkpt lat="44.6158625" lon="9.8712561"><ele>573.0</ele><time>2026-05-02T09:39:55.75Z</time></trkpt><trkpt lat="44.6158534" lon="9.871348"><ele>573.0</ele><time>2026-05-02T09:39:57.749Z</time></trkpt><trkpt lat="44.6158406" lon="9.8714394"><ele>573.0</ele><time>2026-05-02T09:40:03.749Z</time></trkpt><trkpt lat="44.6158635" lon="9.8715886"><ele>573.0</ele><time>2026-05-02T09:40:11.749Z</time></trkpt><trkpt lat="44.6159081" lon="9.8717302"><ele>573.0</ele><time>2026-05-02T09:40:13.749Z</time></trkpt><trkpt lat="44.6159451" lon="9.8718705"><ele>573.0</ele><time>2026-05-02T09:40:15.749Z</time></trkpt><trkpt lat="44.6159453" lon="9.8719737"><ele>573.0</ele><time>2026-05-02T09:40:17.75Z</time></trkpt><trkpt lat="44.6159374" lon="9.8721287"><ele>573.0</ele><time>2026-05-02T09:40:19.749Z</time></trkpt><trkpt lat="44.615926" lon="9.8722162"><ele>575.5</ele><time>2026-05-02T09:40:20.749Z</time></trkpt><trkpt lat="44.615925" lon="9.8723067"><ele>578.0</ele><time>2026-05-02T09:40:21.749Z</time></trkpt><trkpt lat="44.6159203" lon="9.8723992"><ele>580.5</ele><time>2026-05-02T09:40:22.75Z</time></trkpt><trkpt lat="44.6158783" lon="9.8724806"><ele>583.0</ele><time>2026-05-02T09:40:24.749Z</time></trkpt><trkpt lat="44.6158158" lon="9.8724913"><ele>585.5</ele><time>2026-05-02T09:40:26.749Z</time></trkpt><trkpt lat="44.6156966" lon="9.872498"><ele>588.0</ele><time>2026-05-02T09:40:28.749Z</time></trkpt><trkpt lat="44.6156251" lon="9.8724996"><ele>588.0</ele><time>2026-05-02T09:40:29.749Z</time></trkpt><trkpt lat="44.6155589" lon="9.8724762"><ele>588.0</ele><time>2026-05-02T09:40:30.749Z</time></trkpt><trkpt lat="44.6154917" lon="9.8724445"><ele>588.0</ele><time>2026-05-02T09:40:32.75Z</time></trkpt><trkpt lat="44.6154169" lon="9.8725029"><ele>588.0</ele><time>2026-05-02T09:40:34.75Z</time></trkpt><trkpt lat="44.6153316" lon="9.8725294"><ele>588.0</ele><time>2026-05-02T09:40:36.749Z</time></trkpt><trkpt lat="44.6152285" lon="9.8725274"><ele>588.0</ele><time>2026-05-02T09:40:38.749Z</time></trkpt><trkpt lat="44.6151332" lon="9.8725382"><ele>590.6666666666666</ele><time>2026-05-02T09:40:40.749Z</time></trkpt><trkpt lat="44.6150695" lon="9.8725704"><ele>593.3333333333334</ele><time>2026-05-02T09:40:42.75Z</time></trkpt><trkpt lat="44.615003" lon="9.8726098"><ele>596.0</ele><time>2026-05-02T09:40:44.749Z</time></trkpt><trkpt lat="44.6149388" lon="9.8726449"><ele>598.6666666666667</ele><time>2026-05-02T09:40:46.749Z</time></trkpt><trkpt lat="44.6148748" lon="9.87268"><ele>601.3333333333334</ele><time>2026-05-02T09:40:48.749Z</time></trkpt><trkpt lat="44.6148235" lon="9.8728047"><ele>604.0</ele><time>2026-05-02T09:41:43.749Z</time></trkpt><trkpt lat="44.6148151" lon="9.8729294"><ele>605.6</ele><time>2026-05-02T09:41:45.748Z</time></trkpt><trkpt lat="44.6147583" lon="9.8730173"><ele>607.2</ele><time>2026-05-02T09:41:48.748Z</time></trkpt><trkpt lat="44.6146865" lon="9.8730504"><ele>608.8000000000001</ele><time>2026-05-02T09:41:50.748Z</time></trkpt><trkpt lat="44.6145929" lon="9.8731322"><ele>610.4</ele><time>2026-05-02T09:41:52.748Z</time></trkpt><trkpt lat="44.6145538" lon="9.8732536"><ele>612.0</ele><time>2026-05-02T09:41:55.748Z</time></trkpt><trkpt lat="44.6145831" lon="9.8733905"><ele>612.1666666666666</ele><time>2026-05-02T09:41:57.748Z</time></trkpt><trkpt lat="44.6145846" lon="9.8735161"><ele>612.3333333333334</ele><time>2026-05-02T09:41:59.748Z</time></trkpt><trkpt lat="44.6145216" lon="9.8736241"><ele>612.5</ele><time>2026-05-02T09:42:01.748Z</time></trkpt><trkpt lat="44.614467" lon="9.8737232"><ele>612.6666666666667</ele><time>2026-05-02T09:42:03.748Z</time></trkpt><trkpt lat="44.6144285" lon="9.8738133"><ele>612.8333333333334</ele><time>2026-05-02T09:42:05.748Z</time></trkpt><trkpt lat="44.6144041" lon="9.8738991"><ele>613.0</ele><time>2026-05-02T09:42:08.748Z</time></trkpt><trkpt lat="44.6143549" lon="9.873994"><ele>618.5999999999999</ele><time>2026-05-02T09:42:10.749Z</time></trkpt><trkpt lat="44.6142729" lon="9.8740609"><ele>624.1999999999999</ele><time>2026-05-02T09:42:12.748Z</time></trkpt><trkpt lat="44.6141853" lon="9.8741458"><ele>629.8</ele><time>2026-05-02T09:42:14.748Z</time></trkpt><trkpt lat="44.6140873" lon="9.8742451"><ele>635.4</ele><time>2026-05-02T09:42:16.748Z</time></trkpt><trkpt lat="44.6140172" lon="9.8743521"><ele>641.0</ele><time>2026-05-02T09:42:18.748Z</time></trkpt><trkpt lat="44.6139353" lon="9.8743347"><ele>641.0</ele><time>2026-05-02T09:42:20.748Z</time></trkpt><trkpt lat="44.6138426" lon="9.8743627"><ele>641.0</ele><time>2026-05-02T09:42:22.749Z</time></trkpt><trkpt lat="44.613723" lon="9.8744348"><ele>641.0</ele><time>2026-05-02T09:42:24.748Z</time></trkpt><trkpt lat="44.6136383" lon="9.8744708"><ele>641.0</ele><time>2026-05-02T09:42:26.748Z</time></trkpt><trkpt lat="44.6135538" lon="9.8744833"><ele>641.0</ele><time>2026-05-02T09:42:46.748Z</time></trkpt><trkpt lat="44.6134799" lon="9.8745145"><ele>643.5999999999999</ele><time>2026-05-02T09:49:45.746Z</time></trkpt><trkpt lat="44.6133538" lon="9.8745398"><ele>646.2</ele><time>2026-05-02T09:49:47.746Z</time></trkpt><trkpt lat="44.6132841" lon="9.8745615"><ele>648.8</ele><time>2026-05-02T09:49:48.747Z</time></trkpt><trkpt lat="44.6132108" lon="9.8745783"><ele>651.4000000000001</ele><time>2026-05-02T09:49:49.746Z</time></trkpt><trkpt lat="44.6131052" lon="9.874581"><ele>654.0</ele><time>2026-05-02T09:49:50.746Z</time></trkpt><trkpt lat="44.6129612" lon="9.8745701"><ele>654.0</ele><time>2026-05-02T09:49:51.747Z</time></trkpt><trkpt lat="44.6128817" lon="9.874548"><ele>654.0</ele><time>2026-05-02T09:50:06.748Z</time></trkpt><trkpt lat="44.6127962" lon="9.8745531"><ele>654.0</ele><time>2026-05-02T09:50:09.746Z</time></trkpt><trkpt lat="44.612715" lon="9.8745967"><ele>654.0</ele><time>2026-05-02T09:50:11.746Z</time></trkpt><trkpt lat="44.6126374" lon="9.8746371"><ele>654.0</ele><time>2026-05-02T09:50:14.746Z</time></trkpt><trkpt lat="44.6125486" lon="9.8746609"><ele>654.0</ele><time>2026-05-02T09:50:16.746Z</time></trkpt><trkpt lat="44.6124587" lon="9.874676"><ele>655.8333333333334</ele><time>2026-05-02T09:50:18.748Z</time></trkpt><trkpt lat="44.6123818" lon="9.8747226"><ele>657.6666666666666</ele><time>2026-05-02T09:50:20.747Z</time></trkpt><trkpt lat="44.6123116" lon="9.8747769"><ele>659.5</ele><time>2026-05-02T09:50:22.746Z</time></trkpt><trkpt lat="44.6122533" lon="9.8748199"><ele>661.3333333333333</ele><time>2026-05-02T09:50:34.746Z</time></trkpt><trkpt lat="44.6121929" lon="9.8748567"><ele>663.1666666666666</ele><time>2026-05-02T09:50:36.746Z</time></trkpt><trkpt lat="44.6120949" lon="9.8748863"><ele>665.0</ele><time>2026-05-02T09:50:38.746Z</time></trkpt><trkpt lat="44.6120005" lon="9.8748946"><ele>667.1666666666666</ele><time>2026-05-02T09:50:40.746Z</time></trkpt><trkpt lat="44.6119242" lon="9.87491"><ele>669.3333333333333</ele><time>2026-05-02T09:50:42.746Z</time></trkpt><trkpt lat="44.6118693" lon="9.8748538"><ele>671.5</ele><time>2026-05-02T09:50:44.746Z</time></trkpt><trkpt lat="44.6117896" lon="9.8747745"><ele>673.6666666666666</ele><time>2026-05-02T09:50:46.746Z</time></trkpt><trkpt lat="44.6117143" lon="9.8747136"><ele>675.8333333333334</ele><time>2026-05-02T09:50:48.746Z</time></trkpt><trkpt lat="44.6116325" lon="9.8747147"><ele>678.0</ele><time>2026-05-02T09:50:50.746Z</time></trkpt><trkpt lat="44.611522" lon="9.8747247"><ele>678.0</ele><time>2026-05-02T09:50:52.747Z</time></trkpt><trkpt lat="44.6114156" lon="9.8747577"><ele>678.0</ele><time>2026-05-02T09:50:54.746Z</time></trkpt><trkpt lat="44.6113025" lon="9.874724"><ele>678.0</ele><time>2026-05-02T09:50:56.746Z</time></trkpt><trkpt lat="44.6112375" lon="9.8747128"><ele>678.0</ele><time>2026-05-02T09:50:57.746Z</time></trkpt><trkpt lat="44.6111417" lon="9.8748024"><ele>678.0</ele><time>2026-05-02T09:50:59.746Z</time></trkpt><trkpt lat="44.6110576" lon="9.8748898"><ele>679.8333333333334</ele><time>2026-05-02T09:51:01.746Z</time></trkpt><trkpt lat="44.6110038" lon="9.8749472"><ele>681.6666666666666</ele><time>2026-05-02T09:51:03.746Z</time></trkpt><trkpt lat="44.6109456" lon="9.875029"><ele>683.5</ele><time>2026-05-02T09:51:05.747Z</time></trkpt><trkpt lat="44.6108869" lon="9.8751007"><ele>685.3333333333333</ele><time>2026-05-02T09:51:07.747Z</time></trkpt><trkpt lat="44.6108196" lon="9.8751718"><ele>687.1666666666666</ele><time>2026-05-02T09:51:09.746Z</time></trkpt><trkpt lat="44.6107483" lon="9.8752424"><ele>689.0</ele><time>2026-05-02T09:51:12.746Z</time></trkpt><trkpt lat="44.6106799" lon="9.875325"><ele>689.6666666666666</ele><time>2026-05-02T09:51:14.747Z</time></trkpt><trkpt lat="44.6106287" lon="9.8753934"><ele>690.3333333333333</ele><time>2026-05-02T09:51:16.746Z</time></trkpt><trkpt lat="44.610582" lon="9.8754969"><ele>691.0</ele><time>2026-05-02T09:51:19.746Z</time></trkpt><trkpt lat="44.6105222" lon="9.8755481"><ele>691.6666666666666</ele><time>2026-05-02T09:51:26.746Z</time></trkpt><trkpt lat="44.6104968" lon="9.8756326"><ele>692.3333333333334</ele><time>2026-05-02T09:51:30.746Z</time></trkpt><trkpt lat="44.6104584" lon="9.8757387"><ele>693.0</ele><time>2026-05-02T09:51:33.746Z</time></trkpt><trkpt lat="44.6103891" lon="9.8758236"><ele>695.6666666666666</ele><time>2026-05-02T09:51:36.567Z</time></trkpt><trkpt lat="44.6103199" lon="9.875855"><ele>698.3333333333334</ele><time>2026-05-02T09:53:28.747Z</time></trkpt><trkpt lat="44.610282" lon="9.8759431"><ele>701.0</ele><time>2026-05-02T09:53:31.754Z</time></trkpt><trkpt lat="44.610228" lon="9.8760139"><ele>703.6666666666667</ele><time>2026-05-02T09:53:33.747Z</time></trkpt><trkpt lat="44.610169" lon="9.8761455"><ele>706.3333333333334</ele><time>2026-05-02T09:53:34.747Z</time></trkpt><trkpt lat="44.6100989" lon="9.8762079"><ele>709.0</ele><time>2026-05-02T09:53:36.746Z</time></trkpt><trkpt lat="44.6100463" lon="9.8763064"><ele>709.8333333333334</ele><time>2026-05-02T09:53:38.746Z</time></trkpt><trkpt lat="44.6100412" lon="9.8764057"><ele>710.6666666666667</ele><time>2026-05-02T09:53:39.746Z</time></trkpt><trkpt lat="44.6100424" lon="9.8765095"><ele>711.5</ele><time>2026-05-02T09:53:41.746Z</time></trkpt><trkpt lat="44.6100399" lon="9.8766526"><ele>712.3333333333334</ele><time>2026-05-02T09:53:43.746Z</time></trkpt><trkpt lat="44.6100321" lon="9.8767927"><ele>713.1666666666666</ele><time>2026-05-02T09:53:45.746Z</time></trkpt><trkpt lat="44.6100943" lon="9.8768921"><ele>714.0</ele><time>2026-05-02T09:53:47.745Z</time></trkpt><trkpt lat="44.6101207" lon="9.8770183"><ele>714.0</ele><time>2026-05-02T09:53:49.746Z</time></trkpt><trkpt lat="44.6101262" lon="9.8771364"><ele>714.0</ele><time>2026-05-02T09:53:51.745Z</time></trkpt><trkpt lat="44.6100639" lon="9.8772397"><ele>714.0</ele><time>2026-05-02T09:58:41.744Z</time></trkpt><trkpt lat="44.6099408" lon="9.8773242"><ele>714.0</ele><time>2026-05-02T09:58:43.744Z</time></trkpt><trkpt lat="44.6098771" lon="9.8773688"><ele>714.0</ele><time>2026-05-02T09:58:44.745Z</time></trkpt><trkpt lat="44.6097617" lon="9.8775016"><ele>714.0</ele><time>2026-05-02T09:58:46.744Z</time></trkpt><trkpt lat="44.6096792" lon="9.8775829"><ele>714.0</ele><time>2026-05-02T09:58:47.745Z</time></trkpt><trkpt lat="44.6096158" lon="9.8776459"><ele>714.0</ele><time>2026-05-02T09:58:48.745Z</time></trkpt><trkpt lat="44.6095593" lon="9.8777317"><ele>714.0</ele><time>2026-05-02T09:58:49.745Z</time></trkpt><trkpt lat="44.6094846" lon="9.8778033"><ele>714.0</ele><time>2026-05-02T09:58:52.745Z</time></trkpt><trkpt lat="44.609418" lon="9.8778597"><ele>714.0</ele><time>2026-05-02T09:58:54.745Z</time></trkpt><trkpt lat="44.6093475" lon="9.8779661"><ele>715.1666666666666</ele><time>2026-05-02T09:58:57.744Z</time></trkpt><trkpt lat="44.6093031" lon="9.8780788"><ele>716.3333333333334</ele><time>2026-05-02T09:58:59.744Z</time></trkpt><trkpt lat="44.609231" lon="9.8781869"><ele>717.5</ele><time>2026-05-02T09:59:01.744Z</time></trkpt><trkpt lat="44.6091794" lon="9.8782695"><ele>718.6666666666667</ele><time>2026-05-02T09:59:03.744Z</time></trkpt><trkpt lat="44.6091791" lon="9.8783678"><ele>719.8333333333334</ele><time>2026-05-02T09:59:05.745Z</time></trkpt><trkpt lat="44.6092181" lon="9.8784685"><ele>721.0</ele><time>2026-05-02T09:59:06.744Z</time></trkpt><trkpt lat="44.6092404" lon="9.8785671"><ele>721.1666666666667</ele><time>2026-05-02T09:59:07.744Z</time></trkpt><trkpt lat="44.6092548" lon="9.878663"><ele>721.3333333333334</ele><time>2026-05-02T09:59:08.745Z</time></trkpt><trkpt lat="44.6092577" lon="9.8787916"><ele>721.5</ele><time>2026-05-02T09:59:09.744Z</time></trkpt><trkpt lat="44.6092725" lon="9.8788924"><ele>721.6666666666666</ele><time>2026-05-02T09:59:10.744Z</time></trkpt><trkpt lat="44.6093379" lon="9.8790408"><ele>721.8333333333333</ele><time>2026-05-02T09:59:12.744Z</time></trkpt><trkpt lat="44.6093668" lon="9.8791342"><ele>722.0</ele><time>2026-05-02T09:59:13.744Z</time></trkpt><trkpt lat="44.6093452" lon="9.8792699"><ele>722.6666666666666</ele><time>2026-05-02T09:59:14.744Z</time></trkpt><trkpt lat="44.6093227" lon="9.879382"><ele>723.3333333333333</ele><time>2026-05-02T09:59:15.744Z</time></trkpt><trkpt lat="44.6093145" lon="9.8794831"><ele>724.0</ele><time>2026-05-02T09:59:16.745Z</time></trkpt><trkpt lat="44.6092975" lon="9.8795733"><ele>724.6666666666666</ele><time>2026-05-02T09:59:17.744Z</time></trkpt><trkpt lat="44.6092434" lon="9.879711"><ele>725.3333333333334</ele><time>2026-05-02T09:59:19.744Z</time></trkpt><trkpt lat="44.6091997" lon="9.8797822"><ele>726.0</ele><time>2026-05-02T09:59:20.744Z</time></trkpt><trkpt lat="44.6091088" lon="9.879883"><ele>726.0</ele><time>2026-05-02T09:59:21.744Z</time></trkpt><trkpt lat="44.6090438" lon="9.8799549"><ele>726.0</ele><time>2026-05-02T09:59:22.744Z</time></trkpt><trkpt lat="44.609002" lon="9.8800319"><ele>726.0</ele><time>2026-05-02T09:59:23.745Z</time></trkpt><trkpt lat="44.6089426" lon="9.88014"><ele>726.0</ele><time>2026-05-02T09:59:24.744Z</time></trkpt><trkpt lat="44.6088744" lon="9.8802503"><ele>726.0</ele><time>2026-05-02T09:59:25.744Z</time></trkpt><trkpt lat="44.6088207" lon="9.8803597"><ele>726.0</ele><time>2026-05-02T09:59:26.745Z</time></trkpt><trkpt lat="44.6087776" lon="9.8804546"><ele>726.1999999999999</ele><time>2026-05-02T09:59:27.744Z</time></trkpt><trkpt lat="44.6087246" lon="9.880536"><ele>726.4</ele><time>2026-05-02T09:59:28.744Z</time></trkpt><trkpt lat="44.608656" lon="9.8807215"><ele>726.6</ele><time>2026-05-02T09:59:30.744Z</time></trkpt><trkpt lat="44.6086094" lon="9.8808609"><ele>726.8</ele><time>2026-05-02T09:59:31.744Z</time></trkpt><trkpt lat="44.6085551" lon="9.8809811"><ele>727.0</ele><time>2026-05-02T09:59:32.744Z</time></trkpt><trkpt lat="44.6085119" lon="9.8810737"><ele>729.5</ele><time>2026-05-02T09:59:33.744Z</time></trkpt><trkpt lat="44.608461" lon="9.8811969"><ele>732.0</ele><time>2026-05-02T09:59:34.745Z</time></trkpt><trkpt lat="44.6084083" lon="9.8813381"><ele>734.5</ele><time>2026-05-02T09:59:35.745Z</time></trkpt><trkpt lat="44.6083346" lon="9.8815091"><ele>737.0</ele><time>2026-05-02T09:59:36.744Z</time></trkpt><trkpt lat="44.6082726" lon="9.8816643"><ele>736.6</ele><time>2026-05-02T09:59:37.744Z</time></trkpt><trkpt lat="44.6081667" lon="9.8817898"><ele>736.2</ele><time>2026-05-02T09:59:38.745Z</time></trkpt><trkpt lat="44.6080789" lon="9.8819107"><ele>735.8</ele><time>2026-05-02T09:59:39.744Z</time></trkpt><trkpt lat="44.6080016" lon="9.8820105"><ele>735.4</ele><time>2026-05-02T09:59:40.744Z</time></trkpt><trkpt lat="44.6079501" lon="9.8820881"><ele>735.0</ele><time>2026-05-02T09:59:41.745Z</time></trkpt><trkpt lat="44.6078889" lon="9.882177"><ele>735.0</ele><time>2026-05-02T09:59:42.745Z</time></trkpt><trkpt lat="44.6078338" lon="9.8822606"><ele>735.0</ele><time>2026-05-02T09:59:43.745Z</time></trkpt><trkpt lat="44.6078438" lon="9.8824025"><ele>735.0</ele><time>2026-05-02T09:59:44.744Z</time></trkpt><trkpt lat="44.6078026" lon="9.8825324"><ele>735.0</ele><time>2026-05-02T09:59:45.745Z</time></trkpt><trkpt lat="44.6077916" lon="9.8826516"><ele>735.0</ele><time>2026-05-02T09:59:46.744Z</time></trkpt><trkpt lat="44.6077549" lon="9.882825"><ele>736.75</ele><time>2026-05-02T09:59:48.745Z</time></trkpt><trkpt lat="44.6077384" lon="9.8829232"><ele>738.5</ele><time>2026-05-02T09:59:49.744Z</time></trkpt><trkpt lat="44.6077493" lon="9.8831106"><ele>740.25</ele><time>2026-05-02T09:59:51.744Z</time></trkpt><trkpt lat="44.6078066" lon="9.8832335"><ele>742.0</ele><time>2026-05-02T09:59:53.744Z</time></trkpt><trkpt lat="44.6078214" lon="9.8834337"><ele>741.0</ele><time>2026-05-02T09:59:55.744Z</time></trkpt><trkpt lat="44.6078347" lon="9.8835332"><ele>740.0</ele><time>2026-05-02T09:59:56.744Z</time></trkpt><trkpt lat="44.6078954" lon="9.8836459"><ele>739.0</ele><time>2026-05-02T09:59:57.744Z</time></trkpt><trkpt lat="44.6079249" lon="9.8837396"><ele>738.0</ele><time>2026-05-02T09:59:58.745Z</time></trkpt><trkpt lat="44.6079559" lon="9.8838296"><ele>737.0</ele><time>2026-05-02T09:59:59.744Z</time></trkpt><trkpt lat="44.6079652" lon="9.883935"><ele>736.0</ele><time>2026-05-02T10:00:00.744Z</time></trkpt><trkpt lat="44.6079873" lon="9.8840181"><ele>736.0</ele><time>2026-05-02T10:00:01.746Z</time></trkpt><trkpt lat="44.6080064" lon="9.8841032"><ele>736.0</ele><time>2026-05-02T10:00:02.745Z</time></trkpt><trkpt lat="44.6080554" lon="9.8842284"><ele>736.0</ele><time>2026-05-02T10:00:04.744Z</time></trkpt><trkpt lat="44.6081257" lon="9.8843011"><ele>736.0</ele><time>2026-05-02T10:00:06.744Z</time></trkpt><trkpt lat="44.608178" lon="9.88436"><ele>736.0</ele><time>2026-05-02T10:00:07.744Z</time></trkpt><trkpt lat="44.6082566" lon="9.8845026"><ele>736.0</ele><time>2026-05-02T10:00:09.744Z</time></trkpt><trkpt lat="44.6082933" lon="9.8845755"><ele>736.5</ele><time>2026-05-02T10:00:10.744Z</time></trkpt><trkpt lat="44.6082988" lon="9.8847443"><ele>737.0</ele><time>2026-05-02T10:00:12.744Z</time></trkpt><trkpt lat="44.6082884" lon="9.8848465"><ele>737.5</ele><time>2026-05-02T10:00:13.744Z</time></trkpt><trkpt lat="44.6082692" lon="9.8849575"><ele>738.0</ele><time>2026-05-02T10:00:14.744Z</time></trkpt><trkpt lat="44.6082559" lon="9.8850469"><ele>738.5</ele><time>2026-05-02T10:00:15.744Z</time></trkpt><trkpt lat="44.6082508" lon="9.8851523"><ele>739.0</ele><time>2026-05-02T10:00:16.744Z</time></trkpt><trkpt lat="44.6082372" lon="9.8852639"><ele>739.7142857142858</ele><time>2026-05-02T10:00:17.744Z</time></trkpt><trkpt lat="44.608224" lon="9.8853672"><ele>740.4285714285714</ele><time>2026-05-02T10:00:18.744Z</time></trkpt><trkpt lat="44.608209" lon="9.8854681"><ele>741.1428571428571</ele><time>2026-05-02T10:00:19.745Z</time></trkpt><trkpt lat="44.608193" lon="9.8855602"><ele>741.8571428571429</ele><time>2026-05-02T10:00:20.744Z</time></trkpt><trkpt lat="44.6081559" lon="9.8856441"><ele>742.5714285714286</ele><time>2026-05-02T10:00:21.745Z</time></trkpt><trkpt lat="44.6081083" lon="9.8857245"><ele>743.2857142857143</ele><time>2026-05-02T10:00:22.744Z</time></trkpt><trkpt lat="44.6080491" lon="9.8857894"><ele>744.0</ele><time>2026-05-02T10:00:23.745Z</time></trkpt><trkpt lat="44.6079871" lon="9.8858518"><ele>744.0</ele><time>2026-05-02T10:00:24.745Z</time></trkpt><trkpt lat="44.6079383" lon="9.8859086"><ele>744.0</ele><time>2026-05-02T10:00:25.745Z</time></trkpt><trkpt lat="44.6078981" lon="9.8859796"><ele>744.0</ele><time>2026-05-02T10:00:26.745Z</time></trkpt><trkpt lat="44.6078085" lon="9.886126"><ele>744.0</ele><time>2026-05-02T10:00:28.744Z</time></trkpt><trkpt lat="44.60782" lon="9.8862608"><ele>744.0</ele><time>2026-05-02T10:00:29.744Z</time></trkpt><trkpt lat="44.607809" lon="9.8863696"><ele>744.0</ele><time>2026-05-02T10:00:30.744Z</time></trkpt><trkpt lat="44.6078322" lon="9.8865815"><ele>744.3333333333334</ele><time>2026-05-02T10:00:32.745Z</time></trkpt><trkpt lat="44.6078465" lon="9.8867154"><ele>744.6666666666666</ele><time>2026-05-02T10:00:33.744Z</time></trkpt><trkpt lat="44.6078442" lon="9.8868345"><ele>745.0</ele><time>2026-05-02T10:00:34.745Z</time></trkpt><trkpt lat="44.6078388" lon="9.8869632"><ele>745.3333333333333</ele><time>2026-05-02T10:00:35.744Z</time></trkpt><trkpt lat="44.6078468" lon="9.887052"><ele>745.6666666666666</ele><time>2026-05-02T10:00:36.744Z</time></trkpt><trkpt lat="44.607827" lon="9.8871719"><ele>746.0</ele><time>2026-05-02T10:00:37.745Z</time></trkpt><trkpt lat="44.6077992" lon="9.8872558"><ele>748.1666666666666</ele><time>2026-05-02T10:00:38.744Z</time></trkpt><trkpt lat="44.6077835" lon="9.8873503"><ele>750.3333333333333</ele><time>2026-05-02T10:00:39.744Z</time></trkpt><trkpt lat="44.6077243" lon="9.8874286"><ele>752.5</ele><time>2026-05-02T10:00:41.744Z</time></trkpt><trkpt lat="44.6076969" lon="9.8875086"><ele>754.6666666666666</ele><time>2026-05-02T10:00:43.744Z</time></trkpt><trkpt lat="44.607713" lon="9.8873749"><ele>756.8333333333334</ele><time>2026-05-02T10:05:08.742Z</time></trkpt><trkpt lat="44.6077143" lon="9.8872254"><ele>759.0</ele><time>2026-05-02T10:05:10.742Z</time></trkpt><trkpt lat="44.6077016" lon="9.8870947"><ele>759.0</ele><time>2026-05-02T10:05:12.742Z</time></trkpt><trkpt lat="44.6076722" lon="9.8869732"><ele>759.0</ele><time>2026-05-02T10:05:14.742Z</time></trkpt><trkpt lat="44.6076327" lon="9.886857"><ele>759.0</ele><time>2026-05-02T10:05:16.743Z</time></trkpt><trkpt lat="44.6075809" lon="9.8867399"><ele>759.0</ele><time>2026-05-02T10:05:18.743Z</time></trkpt><trkpt lat="44.6075312" lon="9.8866134"><ele>759.0</ele><time>2026-05-02T10:05:20.743Z</time></trkpt><trkpt lat="44.6074871" lon="9.8864866"><ele>758.8000000000001</ele><time>2026-05-02T10:05:22.742Z</time></trkpt><trkpt lat="44.6074323" lon="9.8863651"><ele>758.6</ele><time>2026-05-02T10:05:24.742Z</time></trkpt><trkpt lat="44.6073745" lon="9.8862393"><ele>758.4</ele><time>2026-05-02T10:05:26.742Z</time></trkpt><trkpt lat="44.6073235" lon="9.8861103"><ele>758.2</ele><time>2026-05-02T10:05:28.742Z</time></trkpt><trkpt lat="44.6072662" lon="9.8859819"><ele>758.0</ele><time>2026-05-02T10:05:30.742Z</time></trkpt><trkpt lat="44.6072086" lon="9.8858378"><ele>758.0</ele><time>2026-05-02T10:05:32.742Z</time></trkpt><trkpt lat="44.607148" lon="9.8857"><ele>758.0</ele><time>2026-05-02T10:05:34.742Z</time></trkpt><trkpt lat="44.6070809" lon="9.8855628"><ele>758.0</ele><time>2026-05-02T10:05:36.743Z</time></trkpt><trkpt lat="44.6070121" lon="9.8854384"><ele>758.0</ele><time>2026-05-02T10:05:38.742Z</time></trkpt><trkpt lat="44.6069464" lon="9.8853238"><ele>758.8</ele><time>2026-05-02T10:05:40.742Z</time></trkpt><trkpt lat="44.6068783" lon="9.8852186"><ele>759.5999999999999</ele><time>2026-05-02T10:05:42.742Z</time></trkpt><trkpt lat="44.6068035" lon="9.8851249"><ele>760.4000000000001</ele><time>2026-05-02T10:05:44.742Z</time></trkpt><trkpt lat="44.6067375" lon="9.8850167"><ele>761.2</ele><time>2026-05-02T10:05:46.742Z</time></trkpt><trkpt lat="44.6066649" lon="9.8848975"><ele>762.0</ele><time>2026-05-02T10:05:48.742Z</time></trkpt><trkpt lat="44.6065947" lon="9.8847822"><ele>762.4000000000001</ele><time>2026-05-02T10:05:50.742Z</time></trkpt><trkpt lat="44.606523" lon="9.8846675"><ele>762.8000000000001</ele><time>2026-05-02T10:05:52.742Z</time></trkpt><trkpt lat="44.6064549" lon="9.8845582"><ele>763.2</ele><time>2026-05-02T10:05:54.743Z</time></trkpt><trkpt lat="44.6063888" lon="9.8844555"><ele>763.6</ele><time>2026-05-02T10:05:56.743Z</time></trkpt><trkpt lat="44.6063339" lon="9.8843548"><ele>764.0</ele><time>2026-05-02T10:05:58.742Z</time></trkpt><trkpt lat="44.6062666" lon="9.8842593"><ele>763.6</ele><time>2026-05-02T10:06:00.742Z</time></trkpt><trkpt lat="44.6061949" lon="9.8841479"><ele>763.2</ele><time>2026-05-02T10:06:02.743Z</time></trkpt><trkpt lat="44.6061219" lon="9.8840393"><ele>762.8000000000001</ele><time>2026-05-02T10:06:04.742Z</time></trkpt><trkpt lat="44.6060712" lon="9.8839139"><ele>762.4000000000001</ele><time>2026-05-02T10:06:06.742Z</time></trkpt><trkpt lat="44.6060355" lon="9.883784"><ele>762.0</ele><time>2026-05-02T10:06:08.742Z</time></trkpt><trkpt lat="44.6060132" lon="9.8836305"><ele>762.0</ele><time>2026-05-02T10:06:10.742Z</time></trkpt><trkpt lat="44.6059881" lon="9.8834692"><ele>762.0</ele><time>2026-05-02T10:06:12.742Z</time></trkpt><trkpt lat="44.6059596" lon="9.8833112"><ele>762.0</ele><time>2026-05-02T10:06:14.744Z</time></trkpt><trkpt lat="44.6059098" lon="9.8831737"><ele>762.0</ele><time>2026-05-02T10:06:16.742Z</time></trkpt><trkpt lat="44.6058391" lon="9.8830427"><ele>764.25</ele><time>2026-05-02T10:06:18.743Z</time></trkpt><trkpt lat="44.6057543" lon="9.882925"><ele>766.5</ele><time>2026-05-02T10:06:20.742Z</time></trkpt><trkpt lat="44.6056727" lon="9.8827974"><ele>768.75</ele><time>2026-05-02T10:06:22.743Z</time></trkpt><trkpt lat="44.6056039" lon="9.8826602"><ele>771.0</ele><time>2026-05-02T10:06:24.742Z</time></trkpt><trkpt lat="44.605569" lon="9.8824985"><ele>771.0</ele><time>2026-05-02T10:06:26.742Z</time></trkpt><trkpt lat="44.6055517" lon="9.8823287"><ele>771.0</ele><time>2026-05-02T10:06:28.742Z</time></trkpt><trkpt lat="44.6055539" lon="9.8821531"><ele>771.0</ele><time>2026-05-02T10:06:30.742Z</time></trkpt><trkpt lat="44.6055463" lon="9.8819822"><ele>771.0</ele><time>2026-05-02T10:06:32.743Z</time></trkpt><trkpt lat="44.6055494" lon="9.8818079"><ele>770.8571428571429</ele><time>2026-05-02T10:06:34.742Z</time></trkpt><trkpt lat="44.6055431" lon="9.8817188"><ele>770.7142857142857</ele><time>2026-05-02T10:06:35.742Z</time></trkpt><trkpt lat="44.6055404" lon="9.8816273"><ele>770.5714285714286</ele><time>2026-05-02T10:06:36.742Z</time></trkpt><trkpt lat="44.6055381" lon="9.881532"><ele>770.4285714285714</ele><time>2026-05-02T10:06:37.743Z</time></trkpt><trkpt lat="44.6055344" lon="9.8814326"><ele>770.2857142857142</ele><time>2026-05-02T10:06:38.742Z</time></trkpt><trkpt lat="44.6055356" lon="9.8813322"><ele>770.1428571428571</ele><time>2026-05-02T10:06:39.742Z</time></trkpt><trkpt lat="44.6055333" lon="9.8812288"><ele>770.0</ele><time>2026-05-02T10:06:40.742Z</time></trkpt><trkpt lat="44.605528" lon="9.8811271"><ele>770.0</ele><time>2026-05-02T10:06:41.742Z</time></trkpt><trkpt lat="44.6055241" lon="9.8810254"><ele>770.0</ele><time>2026-05-02T10:06:42.743Z</time></trkpt><trkpt lat="44.6055233" lon="9.8809264"><ele>770.0</ele><time>2026-05-02T10:06:43.742Z</time></trkpt><trkpt lat="44.6055285" lon="9.8808285"><ele>770.0</ele><time>2026-05-02T10:06:44.742Z</time></trkpt><trkpt lat="44.6055352" lon="9.8807309"><ele>770.0</ele><time>2026-05-02T10:06:45.743Z</time></trkpt><trkpt lat="44.6055453" lon="9.8806272"><ele>770.0</ele><time>2026-05-02T10:06:46.742Z</time></trkpt><trkpt lat="44.6055577" lon="9.8805259"><ele>770.0</ele><time>2026-05-02T10:06:47.743Z</time></trkpt><trkpt lat="44.6055659" lon="9.8804302"><ele>772.1666666666667</ele><time>2026-05-02T10:06:48.742Z</time></trkpt><trkpt lat="44.6055658" lon="9.8802635"><ele>774.3333333333334</ele><time>2026-05-02T10:06:50.742Z</time></trkpt><trkpt lat="44.6055345" lon="9.8801748"><ele>776.5</ele><time>2026-05-02T10:06:51.742Z</time></trkpt><trkpt lat="44.6054955" lon="9.8800895"><ele>778.6666666666667</ele><time>2026-05-02T10:06:52.742Z</time></trkpt><trkpt lat="44.6054591" lon="9.8800115"><ele>780.8333333333334</ele><time>2026-05-02T10:06:53.742Z</time></trkpt><trkpt lat="44.6054031" lon="9.8799423"><ele>783.0</ele><time>2026-05-02T10:06:54.742Z</time></trkpt><trkpt lat="44.6053328" lon="9.8798293"><ele>783.4</ele><time>2026-05-02T10:06:56.742Z</time></trkpt><trkpt lat="44.6053603" lon="9.8797261"><ele>783.8</ele><time>2026-05-02T10:06:58.742Z</time></trkpt><trkpt lat="44.6054141" lon="9.8795864"><ele>784.2</ele><time>2026-05-02T10:07:00.742Z</time></trkpt><trkpt lat="44.6054737" lon="9.8795039"><ele>784.6</ele><time>2026-05-02T10:07:02.742Z</time></trkpt><trkpt lat="44.605562" lon="9.8794355"><ele>785.0</ele><time>2026-05-02T10:07:04.742Z</time></trkpt><trkpt lat="44.6055837" lon="9.879324"><ele>784.2</ele><time>2026-05-02T10:07:06.742Z</time></trkpt><trkpt lat="44.605568" lon="9.8791501"><ele>783.4</ele><time>2026-05-02T10:07:08.742Z</time></trkpt><trkpt lat="44.6055643" lon="9.87906"><ele>782.5999999999999</ele><time>2026-05-02T10:07:09.742Z</time></trkpt><trkpt lat="44.6055603" lon="9.8788969"><ele>781.8</ele><time>2026-05-02T10:07:11.742Z</time></trkpt><trkpt lat="44.6055303" lon="9.8787902"><ele>781.0</ele><time>2026-05-02T10:07:12.742Z</time></trkpt><trkpt lat="44.6054804" lon="9.8786905"><ele>781.0</ele><time>2026-05-02T10:07:13.742Z</time></trkpt><trkpt lat="44.6054635" lon="9.8785919"><ele>781.0</ele><time>2026-05-02T10:07:14.742Z</time></trkpt><trkpt lat="44.6054338" lon="9.8785038"><ele>781.0</ele><time>2026-05-02T10:07:15.742Z</time></trkpt><trkpt lat="44.605419" lon="9.8784065"><ele>781.0</ele><time>2026-05-02T10:07:16.742Z</time></trkpt><trkpt lat="44.6053977" lon="9.8783226"><ele>781.0</ele><time>2026-05-02T10:07:17.742Z</time></trkpt><trkpt lat="44.6053744" lon="9.8782357"><ele>781.0</ele><time>2026-05-02T10:07:18.742Z</time></trkpt><trkpt lat="44.6053445" lon="9.8781369"><ele>781.0</ele><time>2026-05-02T10:07:19.742Z</time></trkpt><trkpt lat="44.6053317" lon="9.8780475"><ele>783.2857142857143</ele><time>2026-05-02T10:07:20.742Z</time></trkpt><trkpt lat="44.6053099" lon="9.8779613"><ele>785.5714285714287</ele><time>2026-05-02T10:07:21.742Z</time></trkpt><trkpt lat="44.6052959" lon="9.8778714"><ele>787.8571428571429</ele><time>2026-05-02T10:07:22.742Z</time></trkpt><trkpt lat="44.605267" lon="9.8777843"><ele>790.1428571428571</ele><time>2026-05-02T10:07:23.743Z</time></trkpt><trkpt lat="44.6052509" lon="9.8776985"><ele>792.4285714285714</ele><time>2026-05-02T10:07:24.742Z</time></trkpt><trkpt lat="44.6052245" lon="9.8776162"><ele>794.7142857142857</ele><time>2026-05-02T10:07:25.742Z</time></trkpt><trkpt lat="44.6052034" lon="9.8775321"><ele>797.0</ele><time>2026-05-02T10:07:26.742Z</time></trkpt><trkpt lat="44.6052163" lon="9.8773874"><ele>797.0000000000001</ele><time>2026-05-02T10:07:28.742Z</time></trkpt><trkpt lat="44.605247" lon="9.8772495"><ele>797.0</ele><time>2026-05-02T10:07:30.742Z</time></trkpt><trkpt lat="44.6052986" lon="9.877103"><ele>797.0</ele><time>2026-05-02T10:07:32.742Z</time></trkpt><trkpt lat="44.605303" lon="9.8770109"><ele>797.0</ele><time>2026-05-02T10:07:34.743Z</time></trkpt><trkpt lat="44.6053009" lon="9.8769108"><ele>797.0000000000001</ele><time>2026-05-02T10:07:35.742Z</time></trkpt><trkpt lat="44.6052928" lon="9.8767919"><ele>797.0</ele><time>2026-05-02T10:07:36.742Z</time></trkpt><trkpt lat="44.6052584" lon="9.8766308"><ele>796.4000000000001</ele><time>2026-05-02T10:07:38.742Z</time></trkpt><trkpt lat="44.6052474" lon="9.8764841"><ele>795.8000000000001</ele><time>2026-05-02T10:07:40.742Z</time></trkpt><trkpt lat="44.6052538" lon="9.8763928"><ele>795.2</ele><time>2026-05-02T10:07:41.742Z</time></trkpt><trkpt lat="44.6052559" lon="9.8762582"><ele>794.6</ele><time>2026-05-02T10:07:43.742Z</time></trkpt><trkpt lat="44.6052282" lon="9.8761262"><ele>794.0</ele><time>2026-05-02T10:07:45.743Z</time></trkpt><trkpt lat="44.6051833" lon="9.8760231"><ele>792.0</ele><time>2026-05-02T10:07:47.742Z</time></trkpt><trkpt lat="44.6051416" lon="9.8758985"><ele>790.0</ele><time>2026-05-02T10:07:49.742Z</time></trkpt><trkpt lat="44.6051175" lon="9.8757614"><ele>788.0</ele><time>2026-05-02T10:07:51.742Z</time></trkpt><trkpt lat="44.6050567" lon="9.8756433"><ele>786.0</ele><time>2026-05-02T10:07:53.742Z</time></trkpt><trkpt lat="44.6049874" lon="9.875515"><ele>784.0</ele><time>2026-05-02T10:07:55.742Z</time></trkpt><trkpt lat="44.6049099" lon="9.8754118"><ele>784.0</ele><time>2026-05-02T10:07:57.742Z</time></trkpt><trkpt lat="44.6048701" lon="9.8752661"><ele>784.0</ele><time>2026-05-02T10:08:00.742Z</time></trkpt><trkpt lat="44.6048608" lon="9.87511"><ele>784.0</ele><time>2026-05-02T10:08:02.742Z</time></trkpt><trkpt lat="44.6048748" lon="9.87498"><ele>784.0</ele><time>2026-05-02T10:08:04.742Z</time></trkpt><trkpt lat="44.6048722" lon="9.8748704"><ele>784.0</ele><time>2026-05-02T10:08:06.743Z</time></trkpt><trkpt lat="44.6048539" lon="9.8747345"><ele>781.8333333333333</ele><time>2026-05-02T10:08:08.742Z</time></trkpt><trkpt lat="44.6048261" lon="9.8746413"><ele>779.6666666666666</ele><time>2026-05-02T10:08:10.743Z</time></trkpt><trkpt lat="44.6047953" lon="9.874493"><ele>777.5</ele><time>2026-05-02T10:08:12.742Z</time></trkpt><trkpt lat="44.6047702" lon="9.8743941"><ele>775.3333333333333</ele><time>2026-05-02T10:08:13.742Z</time></trkpt><trkpt lat="44.6047137" lon="9.8743072"><ele>773.1666666666666</ele><time>2026-05-02T10:08:14.742Z</time></trkpt><trkpt lat="44.6046893" lon="9.8742223"><ele>771.0</ele><time>2026-05-02T10:08:15.742Z</time></trkpt><trkpt lat="44.6046581" lon="9.8740652"><ele>769.0</ele><time>2026-05-02T10:08:17.742Z</time></trkpt><trkpt lat="44.6046363" lon="9.8739745"><ele>767.0</ele><time>2026-05-02T10:08:18.742Z</time></trkpt><trkpt lat="44.6046818" lon="9.8738613"><ele>765.0</ele><time>2026-05-02T10:08:20.742Z</time></trkpt><trkpt lat="44.6047415" lon="9.8738045"><ele>763.0</ele><time>2026-05-02T10:08:21.742Z</time></trkpt><trkpt lat="44.6048218" lon="9.8737175"><ele>761.0</ele><time>2026-05-02T10:08:23.742Z</time></trkpt><trkpt lat="44.604925" lon="9.8736701"><ele>759.0</ele><time>2026-05-02T10:08:25.741Z</time></trkpt><trkpt lat="44.6050082" lon="9.8736649"><ele>759.0</ele><time>2026-05-02T10:08:27.741Z</time></trkpt><trkpt lat="44.6050891" lon="9.8736216"><ele>759.0</ele><time>2026-05-02T10:08:29.741Z</time></trkpt><trkpt lat="44.60519" lon="9.873576"><ele>759.0</ele><time>2026-05-02T10:08:31.741Z</time></trkpt><trkpt lat="44.6052866" lon="9.8735248"><ele>759.0</ele><time>2026-05-02T10:08:33.741Z</time></trkpt><trkpt lat="44.605381" lon="9.8734751"><ele>759.0</ele><time>2026-05-02T10:08:35.742Z</time></trkpt><trkpt lat="44.6054886" lon="9.8734086"><ele>756.2</ele><time>2026-05-02T10:08:37.741Z</time></trkpt><trkpt lat="44.6055873" lon="9.873398"><ele>753.4000000000001</ele><time>2026-05-02T10:08:39.742Z</time></trkpt><trkpt lat="44.6057353" lon="9.8733757"><ele>750.6</ele><time>2026-05-02T10:08:41.742Z</time></trkpt><trkpt lat="44.6057993" lon="9.8733658"><ele>747.8</ele><time>2026-05-02T10:08:42.741Z</time></trkpt><trkpt lat="44.6058732" lon="9.8733659"><ele>745.0</ele><time>2026-05-02T10:08:44.741Z</time></trkpt><trkpt lat="44.6059608" lon="9.8733718"><ele>745.0</ele><time>2026-05-02T10:08:46.741Z</time></trkpt><trkpt lat="44.6060515" lon="9.8733776"><ele>745.0</ele><time>2026-05-02T10:08:48.741Z</time></trkpt><trkpt lat="44.6061163" lon="9.8733515"><ele>745.0</ele><time>2026-05-02T10:08:49.741Z</time></trkpt><trkpt lat="44.6061712" lon="9.8733004"><ele>745.0</ele><time>2026-05-02T10:08:50.741Z</time></trkpt><trkpt lat="44.6062244" lon="9.8732197"><ele>745.0</ele><time>2026-05-02T10:08:51.741Z</time></trkpt><trkpt lat="44.6062674" lon="9.8731444"><ele>745.0</ele><time>2026-05-02T10:08:54.741Z</time></trkpt><trkpt lat="44.6062859" lon="9.8730544"><ele>745.0</ele><time>2026-05-02T10:08:56.741Z</time></trkpt><trkpt lat="44.6062875" lon="9.872956"><ele>745.0</ele><time>2026-05-02T10:09:04.741Z</time></trkpt><trkpt lat="44.6062099" lon="9.8728662"><ele>745.0</ele><time>2026-05-02T10:09:07.741Z</time></trkpt><trkpt lat="44.6061392" lon="9.8728188"><ele>745.0</ele><time>2026-05-02T10:09:10.741Z</time></trkpt><trkpt lat="44.6061462" lon="9.8726741"><ele>745.0</ele><time>2026-05-02T10:09:13.741Z</time></trkpt><trkpt lat="44.6061954" lon="9.8725764"><ele>745.0</ele><time>2026-05-02T10:09:14.741Z</time></trkpt><trkpt lat="44.6062785" lon="9.8724841"><ele>742.0</ele><time>2026-05-02T10:09:16.741Z</time></trkpt><trkpt lat="44.606395" lon="9.8724079"><ele>739.0</ele><time>2026-05-02T10:09:18.741Z</time></trkpt><trkpt lat="44.6064607" lon="9.872342"><ele>736.0</ele><time>2026-05-02T10:09:19.741Z</time></trkpt><trkpt lat="44.6065764" lon="9.872243"><ele>733.0</ele><time>2026-05-02T10:09:21.741Z</time></trkpt><trkpt lat="44.6066395" lon="9.8721912"><ele>730.0</ele><time>2026-05-02T10:09:22.742Z</time></trkpt><trkpt lat="44.6066895" lon="9.8721157"><ele>730.0</ele><time>2026-05-02T10:09:23.742Z</time></trkpt><trkpt lat="44.606744" lon="9.8719918"><ele>730.0</ele><time>2026-05-02T10:09:25.741Z</time></trkpt><trkpt lat="44.6067881" lon="9.8719145"><ele>730.0</ele><time>2026-05-02T10:09:26.741Z</time></trkpt><trkpt lat="44.606862" lon="9.8718578"><ele>730.0</ele><time>2026-05-02T10:09:28.741Z</time></trkpt><trkpt lat="44.6069326" lon="9.8718103"><ele>730.0</ele><time>2026-05-02T10:09:30.741Z</time></trkpt><trkpt lat="44.6070103" lon="9.8717576"><ele>730.0</ele><time>2026-05-02T10:09:32.741Z</time></trkpt><trkpt lat="44.6070717" lon="9.8716844"><ele>727.0</ele><time>2026-05-02T10:09:34.741Z</time></trkpt><trkpt lat="44.6071349" lon="9.8715704"><ele>724.0</ele><time>2026-05-02T10:09:36.741Z</time></trkpt><trkpt lat="44.6072043" lon="9.8714959"><ele>721.0</ele><time>2026-05-02T10:09:38.741Z</time></trkpt><trkpt lat="44.6073044" lon="9.8714226"><ele>718.0</ele><time>2026-05-02T10:09:40.741Z</time></trkpt><trkpt lat="44.6073928" lon="9.871435"><ele>715.0</ele><time>2026-05-02T10:09:42.741Z</time></trkpt><trkpt lat="44.6074829" lon="9.8713876"><ele>715.0</ele><time>2026-05-02T10:09:45.741Z</time></trkpt><trkpt lat="44.6075608" lon="9.8713461"><ele>715.0</ele><time>2026-05-02T10:09:47.741Z</time></trkpt><trkpt lat="44.6076387" lon="9.8712949"><ele>715.0</ele><time>2026-05-02T10:09:49.741Z</time></trkpt><trkpt lat="44.6077201" lon="9.8712762"><ele>715.0</ele><time>2026-05-02T10:09:51.742Z</time></trkpt><trkpt lat="44.6078094" lon="9.8712841"><ele>715.0</ele><time>2026-05-02T10:09:53.742Z</time></trkpt><trkpt lat="44.6079059" lon="9.8712919"><ele>715.0</ele><time>2026-05-02T10:09:55.741Z</time></trkpt><trkpt lat="44.6079983" lon="9.87126"><ele>712.0</ele><time>2026-05-02T10:09:56.741Z</time></trkpt><trkpt lat="44.6080673" lon="9.8712253"><ele>709.0</ele><time>2026-05-02T10:09:58.741Z</time></trkpt><trkpt lat="44.6081341" lon="9.871209"><ele>706.0</ele><time>2026-05-02T10:10:00.741Z</time></trkpt><trkpt lat="44.6082185" lon="9.8712149"><ele>703.0</ele><time>2026-05-02T10:10:02.742Z</time></trkpt><trkpt lat="44.6084766" lon="9.8712538"><ele>703.0</ele><time>2026-05-02T10:10:08.741Z</time></trkpt><trkpt lat="44.6085854" lon="9.8713073"><ele>703.0</ele><time>2026-05-02T10:10:10.741Z</time></trkpt><trkpt lat="44.6086778" lon="9.8713287"><ele>703.0</ele><time>2026-05-02T10:10:17.741Z</time></trkpt><trkpt lat="44.6087419" lon="9.8713574"><ele>703.0</ele><time>2026-05-02T10:10:19.741Z</time></trkpt><trkpt lat="44.6088437" lon="9.8714261"><ele>703.0</ele><time>2026-05-02T10:10:21.741Z</time></trkpt><trkpt lat="44.6089225" lon="9.8714906"><ele>700.8</ele><time>2026-05-02T10:10:23.742Z</time></trkpt><trkpt lat="44.6089896" lon="9.8715925"><ele>698.5999999999999</ele><time>2026-05-02T10:10:25.741Z</time></trkpt><trkpt lat="44.6090816" lon="9.8716624"><ele>696.4000000000001</ele><time>2026-05-02T10:10:26.742Z</time></trkpt><trkpt lat="44.6091343" lon="9.8717343"><ele>694.2</ele><time>2026-05-02T10:10:27.741Z</time></trkpt><trkpt lat="44.6092275" lon="9.8718263"><ele>692.0</ele><time>2026-05-02T10:10:29.741Z</time></trkpt><trkpt lat="44.6092976" lon="9.871878"><ele>691.8</ele><time>2026-05-02T10:10:31.741Z</time></trkpt><trkpt lat="44.6093883" lon="9.8719091"><ele>691.6</ele><time>2026-05-02T10:10:33.741Z</time></trkpt><trkpt lat="44.609493" lon="9.8718435"><ele>691.4</ele><time>2026-05-02T10:10:35.742Z</time></trkpt><trkpt lat="44.6095759" lon="9.8717852"><ele>691.1999999999999</ele><time>2026-05-02T10:10:37.741Z</time></trkpt><trkpt lat="44.6096992" lon="9.8717252"><ele>691.0</ele><time>2026-05-02T10:10:39.741Z</time></trkpt><trkpt lat="44.6097887" lon="9.871695"><ele>689.5</ele><time>2026-05-02T10:10:40.742Z</time></trkpt><trkpt lat="44.6098749" lon="9.8716912"><ele>688.0</ele><time>2026-05-02T10:10:41.741Z</time></trkpt><trkpt lat="44.6099463" lon="9.8716664"><ele>686.5</ele><time>2026-05-02T10:10:42.741Z</time></trkpt><trkpt lat="44.6100288" lon="9.8715646"><ele>685.0</ele><time>2026-05-02T10:10:44.742Z</time></trkpt><trkpt lat="44.6100831" lon="9.8715197"><ele>683.5</ele><time>2026-05-02T10:10:45.741Z</time></trkpt><trkpt lat="44.6101418" lon="9.8714551"><ele>682.0</ele><time>2026-05-02T10:10:47.742Z</time></trkpt><trkpt lat="44.6101895" lon="9.8713868"><ele>682.0</ele><time>2026-05-02T10:10:51.742Z</time></trkpt><trkpt lat="44.6101926" lon="9.871281"><ele>682.0</ele><time>2026-05-02T10:10:57.741Z</time></trkpt><trkpt lat="44.610186" lon="9.8711537"><ele>682.0</ele><time>2026-05-02T10:10:59.741Z</time></trkpt><trkpt lat="44.6102069" lon="9.8710149"><ele>682.0</ele><time>2026-05-02T10:11:02.741Z</time></trkpt><trkpt lat="44.6102376" lon="9.8708983"><ele>682.0</ele><time>2026-05-02T10:11:04.742Z</time></trkpt><trkpt lat="44.6102871" lon="9.8708233"><ele>682.0</ele><time>2026-05-02T10:11:08.741Z</time></trkpt><trkpt lat="44.6103363" lon="9.8707553"><ele>679.8</ele><time>2026-05-02T10:11:11.741Z</time></trkpt><trkpt lat="44.6103821" lon="9.8706566"><ele>677.6</ele><time>2026-05-02T10:11:15.743Z</time></trkpt><trkpt lat="44.610437" lon="9.8705511"><ele>675.4</ele><time>2026-05-02T10:11:18.741Z</time></trkpt><trkpt lat="44.6104903" lon="9.8704432"><ele>673.1999999999999</ele><time>2026-05-02T10:11:20.742Z</time></trkpt><trkpt lat="44.6105321" lon="9.870355"><ele>671.0</ele><time>2026-05-02T10:11:22.741Z</time></trkpt><trkpt lat="44.6105744" lon="9.8702189"><ele>670.4</ele><time>2026-05-02T10:11:25.741Z</time></trkpt><trkpt lat="44.610597" lon="9.8700347"><ele>669.8</ele><time>2026-05-02T10:11:27.742Z</time></trkpt><trkpt lat="44.6106258" lon="9.869863"><ele>669.1999999999999</ele><time>2026-05-02T10:11:29.741Z</time></trkpt><trkpt lat="44.6106386" lon="9.8697534"><ele>668.5999999999999</ele><time>2026-05-02T10:11:30.741Z</time></trkpt><trkpt lat="44.6106756" lon="9.8696083"><ele>668.0</ele><time>2026-05-02T10:11:32.741Z</time></trkpt><trkpt lat="44.6107173" lon="9.8695141"><ele>668.0</ele><time>2026-05-02T10:11:34.741Z</time></trkpt><trkpt lat="44.6107764" lon="9.8694344"><ele>668.0</ele><time>2026-05-02T10:11:36.741Z</time></trkpt><trkpt lat="44.6108208" lon="9.8693709"><ele>668.0</ele><time>2026-05-02T10:11:38.741Z</time></trkpt><trkpt lat="44.6108723" lon="9.8693159"><ele>668.0</ele><time>2026-05-02T10:11:40.741Z</time></trkpt><trkpt lat="44.6109309" lon="9.8692327"><ele>668.0</ele><time>2026-05-02T10:11:42.741Z</time></trkpt><trkpt lat="44.6110229" lon="9.8691013"><ele>668.0</ele><time>2026-05-02T10:11:44.742Z</time></trkpt><trkpt lat="44.6110796" lon="9.8690026"><ele>664.2</ele><time>2026-05-02T10:11:45.741Z</time></trkpt><trkpt lat="44.6111695" lon="9.8688952"><ele>660.4</ele><time>2026-05-02T10:11:47.741Z</time></trkpt><trkpt lat="44.6112293" lon="9.8688438"><ele>656.6</ele><time>2026-05-02T10:11:48.741Z</time></trkpt><trkpt lat="44.6113701" lon="9.8687168"><ele>652.8000000000001</ele><time>2026-05-02T10:11:53.741Z</time></trkpt><trkpt lat="44.6114009" lon="9.8686391"><ele>649.0</ele><time>2026-05-02T10:11:55.741Z</time></trkpt><trkpt lat="44.6114236" lon="9.868554"><ele>647.3333333333334</ele><time>2026-05-02T10:11:57.741Z</time></trkpt><trkpt lat="44.6114509" lon="9.8684369"><ele>645.6666666666667</ele><time>2026-05-02T10:11:59.741Z</time></trkpt><trkpt lat="44.6114729" lon="9.8683482"><ele>644.0</ele><time>2026-05-02T10:12:01.741Z</time></trkpt><trkpt lat="44.6115118" lon="9.8682674"><ele>642.3333333333334</ele><time>2026-05-02T10:12:03.742Z</time></trkpt><trkpt lat="44.6115977" lon="9.8682375"><ele>640.6666666666666</ele><time>2026-05-02T10:12:05.741Z</time></trkpt><trkpt lat="44.6116967" lon="9.8682041"><ele>639.0</ele><time>2026-05-02T10:12:07.741Z</time></trkpt><trkpt lat="44.6117768" lon="9.8681791"><ele>639.0</ele><time>2026-05-02T10:12:09.741Z</time></trkpt><trkpt lat="44.6118484" lon="9.8682311"><ele>639.0</ele><time>2026-05-02T10:12:11.74Z</time></trkpt><trkpt lat="44.6119617" lon="9.8682453"><ele>639.0</ele><time>2026-05-02T10:12:13.74Z</time></trkpt><trkpt lat="44.6120409" lon="9.8682687"><ele>639.0</ele><time>2026-05-02T10:12:15.74Z</time></trkpt><trkpt lat="44.612148" lon="9.868339"><ele>639.0</ele><time>2026-05-02T10:12:17.74Z</time></trkpt><trkpt lat="44.6122127" lon="9.8683898"><ele>638.4</ele><time>2026-05-02T10:12:18.741Z</time></trkpt><trkpt lat="44.6122923" lon="9.8684708"><ele>637.8</ele><time>2026-05-02T10:12:20.74Z</time></trkpt><trkpt lat="44.6123986" lon="9.8685199"><ele>637.2</ele><time>2026-05-02T10:12:22.741Z</time></trkpt><trkpt lat="44.6124588" lon="9.8685707"><ele>636.6</ele><time>2026-05-02T10:12:47.741Z</time></trkpt><trkpt lat="44.6125422" lon="9.8686457"><ele>636.0</ele><time>2026-05-02T10:12:49.74Z</time></trkpt><trkpt lat="44.6126465" lon="9.8686958"><ele>636.0</ele><time>2026-05-02T10:12:51.74Z</time></trkpt><trkpt lat="44.6127727" lon="9.8687462"><ele>636.0</ele><time>2026-05-02T10:12:53.74Z</time></trkpt><trkpt lat="44.6128338" lon="9.8688083"><ele>636.0</ele><time>2026-05-02T10:12:54.74Z</time></trkpt><trkpt lat="44.6128923" lon="9.8688511"><ele>636.0</ele><time>2026-05-02T10:12:55.74Z</time></trkpt><trkpt lat="44.6129759" lon="9.8688971"><ele>636.0</ele><time>2026-05-02T10:12:57.74Z</time></trkpt><trkpt lat="44.6130413" lon="9.8689042"><ele>636.0</ele><time>2026-05-02T10:12:59.74Z</time></trkpt><trkpt lat="44.613133" lon="9.8688852"><ele>633.2</ele><time>2026-05-02T10:13:02.74Z</time></trkpt><trkpt lat="44.6132335" lon="9.8688417"><ele>630.4000000000001</ele><time>2026-05-02T10:13:04.74Z</time></trkpt><trkpt lat="44.6133271" lon="9.8687797"><ele>627.6</ele><time>2026-05-02T10:13:06.74Z</time></trkpt><trkpt lat="44.6134259" lon="9.8687691"><ele>624.8000000000001</ele><time>2026-05-02T10:13:08.74Z</time></trkpt><trkpt lat="44.6135324" lon="9.8688167"><ele>622.0</ele><time>2026-05-02T10:13:10.74Z</time></trkpt><trkpt lat="44.6135959" lon="9.8688326"><ele>619.4</ele><time>2026-05-02T10:13:11.74Z</time></trkpt><trkpt lat="44.6136598" lon="9.8689281"><ele>616.8000000000001</ele><time>2026-05-02T10:13:12.741Z</time></trkpt><trkpt lat="44.6137292" lon="9.8689863"><ele>614.2</ele><time>2026-05-02T10:13:13.74Z</time></trkpt><trkpt lat="44.613791" lon="9.8691183"><ele>611.6</ele><time>2026-05-02T10:13:15.74Z</time></trkpt><trkpt lat="44.6138265" lon="9.8692041"><ele>609.0</ele><time>2026-05-02T10:13:16.741Z</time></trkpt><trkpt lat="44.6138744" lon="9.8693693"><ele>609.0</ele><time>2026-05-02T10:13:18.74Z</time></trkpt><trkpt lat="44.613921" lon="9.8694476"><ele>609.0</ele><time>2026-05-02T10:13:21.742Z</time></trkpt><trkpt lat="44.6139507" lon="9.8695312"><ele>609.0</ele><time>2026-05-02T10:13:24.74Z</time></trkpt><trkpt lat="44.613985" lon="9.8696069"><ele>609.0</ele><time>2026-05-02T10:13:27.741Z</time></trkpt><trkpt lat="44.614072" lon="9.8696639"><ele>609.0</ele><time>2026-05-02T10:13:31.74Z</time></trkpt><trkpt lat="44.6141409" lon="9.869708"><ele>609.0</ele><time>2026-05-02T10:13:34.741Z</time></trkpt><trkpt lat="44.614235" lon="9.869774"><ele>609.0</ele><time>2026-05-02T10:13:37.74Z</time></trkpt><trkpt lat="44.614295" lon="9.8698238"><ele>609.0</ele><time>2026-05-02T10:13:38.74Z</time></trkpt><trkpt lat="44.6143862" lon="9.8698446"><ele>609.0</ele><time>2026-05-02T10:13:40.741Z</time></trkpt><trkpt lat="44.6144957" lon="9.8698556"><ele>609.0</ele><time>2026-05-02T10:13:42.74Z</time></trkpt><trkpt lat="44.6145851" lon="9.8698122"><ele>609.0</ele><time>2026-05-02T10:13:45.74Z</time></trkpt><trkpt lat="44.6146645" lon="9.8698146"><ele>609.0</ele><time>2026-05-02T10:13:47.741Z</time></trkpt><trkpt lat="44.6147458" lon="9.8698369"><ele>605.8333333333334</ele><time>2026-05-02T10:13:49.74Z</time></trkpt><trkpt lat="44.6148205" lon="9.8698296"><ele>602.6666666666666</ele><time>2026-05-02T10:13:52.741Z</time></trkpt><trkpt lat="44.614898" lon="9.869811"><ele>599.5</ele><time>2026-05-02T10:13:55.74Z</time></trkpt><trkpt lat="44.6149756" lon="9.8698227"><ele>596.3333333333333</ele><time>2026-05-02T10:13:58.74Z</time></trkpt><trkpt lat="44.6150407" lon="9.8698269"><ele>593.1666666666666</ele><time>2026-05-02T10:14:01.74Z</time></trkpt><trkpt lat="44.6151244" lon="9.8698424"><ele>590.0</ele><time>2026-05-02T10:14:03.74Z</time></trkpt><trkpt lat="44.6152129" lon="9.8698446"><ele>585.0</ele><time>2026-05-02T10:14:06.74Z</time></trkpt><trkpt lat="44.6154322" lon="9.8698665"><ele>580.0</ele><time>2026-05-02T10:14:13.74Z</time></trkpt><trkpt lat="44.6155256" lon="9.8698789"><ele>575.0</ele><time>2026-05-02T10:14:15.74Z</time></trkpt><trkpt lat="44.6155947" lon="9.8699108"><ele>570.0</ele><time>2026-05-02T10:14:17.74Z</time></trkpt><trkpt lat="44.615648" lon="9.869959"><ele>570.0</ele><time>2026-05-02T10:14:19.74Z</time></trkpt><trkpt lat="44.6157084" lon="9.8700136"><ele>570.0</ele><time>2026-05-02T10:14:21.74Z</time></trkpt><trkpt lat="44.6157919" lon="9.8700576"><ele>570.0</ele><time>2026-05-02T10:14:24.741Z</time></trkpt><trkpt lat="44.6158797" lon="9.8700565"><ele>570.0</ele><time>2026-05-02T10:14:27.74Z</time></trkpt><trkpt lat="44.6159808" lon="9.8699898"><ele>570.0</ele><time>2026-05-02T10:14:30.74Z</time></trkpt><trkpt lat="44.616052" lon="9.8699906"><ele>570.0</ele><time>2026-05-02T10:14:32.74Z</time></trkpt><trkpt lat="44.6161254" lon="9.8700561"><ele>566.3333333333334</ele><time>2026-05-02T10:14:35.741Z</time></trkpt><trkpt lat="44.6162135" lon="9.8701085"><ele>562.6666666666666</ele><time>2026-05-02T10:14:38.74Z</time></trkpt><trkpt lat="44.6162944" lon="9.8701275"><ele>559.0</ele><time>2026-05-02T10:14:40.74Z</time></trkpt><trkpt lat="44.6163653" lon="9.870175"><ele>555.3333333333333</ele><time>2026-05-02T10:14:42.74Z</time></trkpt><trkpt lat="44.6164262" lon="9.8702368"><ele>551.6666666666666</ele><time>2026-05-02T10:14:44.74Z</time></trkpt><trkpt lat="44.6164667" lon="9.8703407"><ele>548.0</ele><time>2026-05-02T10:14:47.74Z</time></trkpt><trkpt lat="44.6164989" lon="9.8704245"><ele>548.0</ele><time>2026-05-02T10:14:50.741Z</time></trkpt><trkpt lat="44.6165824" lon="9.8704502"><ele>548.0</ele><time>2026-05-02T10:14:54.74Z</time></trkpt><trkpt lat="44.6166352" lon="9.8703968"><ele>548.0</ele><time>2026-05-02T10:14:57.74Z</time></trkpt><trkpt lat="44.616711" lon="9.8703305"><ele>548.0</ele><time>2026-05-02T10:15:00.74Z</time></trkpt><trkpt lat="44.6167825" lon="9.8702839"><ele>548.0</ele><time>2026-05-02T10:15:03.741Z</time></trkpt><trkpt lat="44.6168892" lon="9.8702868"><ele>548.0</ele><time>2026-05-02T10:18:33.739Z</time></trkpt><trkpt lat="44.616983" lon="9.8703225"><ele>548.8333333333333</ele><time>2026-05-02T10:18:35.739Z</time></trkpt><trkpt lat="44.6170439" lon="9.8703551"><ele>549.6666666666666</ele><time>2026-05-02T10:18:37.739Z</time></trkpt><trkpt lat="44.6170969" lon="9.8704047"><ele>550.5</ele><time>2026-05-02T10:18:45.739Z</time></trkpt><trkpt lat="44.6171409" lon="9.8704741"><ele>551.3333333333334</ele><time>2026-05-02T10:18:47.739Z</time></trkpt><trkpt lat="44.6171892" lon="9.8705434"><ele>552.1666666666667</ele><time>2026-05-02T10:18:50.739Z</time></trkpt><trkpt lat="44.6172297" lon="9.8706801"><ele>553.0</ele><time>2026-05-02T10:18:53.739Z</time></trkpt><trkpt lat="44.617275" lon="9.870798"><ele>553.0</ele><time>2026-05-02T10:18:55.74Z</time></trkpt><trkpt lat="44.6173019" lon="9.8709252"><ele>553.0</ele><time>2026-05-02T10:18:57.74Z</time></trkpt><trkpt lat="44.6173317" lon="9.8710633"><ele>553.0</ele><time>2026-05-02T10:18:59.739Z</time></trkpt><trkpt lat="44.6174092" lon="9.8711416"><ele>553.0</ele><time>2026-05-02T10:19:01.741Z</time></trkpt><trkpt lat="44.6175223" lon="9.8711516"><ele>553.0</ele><time>2026-05-02T10:19:03.74Z</time></trkpt><trkpt lat="44.6176329" lon="9.8710805"><ele>553.8333333333334</ele><time>2026-05-02T10:19:05.739Z</time></trkpt><trkpt lat="44.6177454" lon="9.8710133"><ele>554.6666666666667</ele><time>2026-05-02T10:19:07.739Z</time></trkpt><trkpt lat="44.6178495" lon="9.8709949"><ele>555.5</ele><time>2026-05-02T10:19:09.739Z</time></trkpt><trkpt lat="44.6179125" lon="9.8710038"><ele>556.3333333333334</ele><time>2026-05-02T10:19:10.739Z</time></trkpt><trkpt lat="44.6179842" lon="9.8709967"><ele>557.1666666666666</ele><time>2026-05-02T10:19:11.739Z</time></trkpt><trkpt lat="44.6180469" lon="9.8709818"><ele>558.0</ele><time>2026-05-02T10:19:12.74Z</time></trkpt><trkpt lat="44.6181215" lon="9.8710121"><ele>558.0</ele><time>2026-05-02T10:19:14.739Z</time></trkpt><trkpt lat="44.6181894" lon="9.8710827"><ele>558.0</ele><time>2026-05-02T10:19:16.739Z</time></trkpt><trkpt lat="44.6182022" lon="9.8712068"><ele>558.0</ele><time>2026-05-02T10:19:18.738Z</time></trkpt><trkpt lat="44.6182293" lon="9.8713968"><ele>558.0</ele><time>2026-05-02T10:19:20.739Z</time></trkpt><trkpt lat="44.6182717" lon="9.8715145"><ele>558.0</ele><time>2026-05-02T10:19:21.738Z</time></trkpt><trkpt lat="44.6183154" lon="9.8716251"><ele>557.9999999999999</ele><time>2026-05-02T10:19:22.738Z</time></trkpt><trkpt lat="44.6183777" lon="9.871724"><ele>558.0</ele><time>2026-05-02T10:19:23.738Z</time></trkpt><trkpt lat="44.6184234" lon="9.871814"><ele>558.0</ele><time>2026-05-02T10:19:24.738Z</time></trkpt><trkpt lat="44.6184524" lon="9.8718927"><ele>558.0</ele><time>2026-05-02T10:19:25.738Z</time></trkpt><trkpt lat="44.6184139" lon="9.8719885"><ele>558.0</ele><time>2026-05-02T10:19:26.738Z</time></trkpt><trkpt lat="44.618401" lon="9.872079"><ele>557.9999999999999</ele><time>2026-05-02T10:19:27.739Z</time></trkpt><trkpt lat="44.6183869" lon="9.8721684"><ele>558.0</ele><time>2026-05-02T10:19:28.739Z</time></trkpt><trkpt lat="44.6184117" lon="9.8722608"><ele>558.0</ele><time>2026-05-02T10:19:30.738Z</time></trkpt><trkpt lat="44.6184768" lon="9.8722918"><ele>558.0</ele><time>2026-05-02T10:19:39.738Z</time></trkpt><trkpt lat="44.6186002" lon="9.8722686"><ele>558.0</ele><time>2026-05-02T10:19:41.738Z</time></trkpt><trkpt lat="44.6186695" lon="9.8722704"><ele>558.0</ele><time>2026-05-02T10:19:42.738Z</time></trkpt><trkpt lat="44.6187305" lon="9.8722958"><ele>558.0</ele><time>2026-05-02T10:19:43.738Z</time></trkpt><trkpt lat="44.6188216" lon="9.8723305"><ele>558.0</ele><time>2026-05-02T10:19:44.738Z</time></trkpt><trkpt lat="44.6189134" lon="9.8723478"><ele>560.5</ele><time>2026-05-02T10:19:45.738Z</time></trkpt><trkpt lat="44.6189978" lon="9.8723536"><ele>563.0</ele><time>2026-05-02T10:19:46.738Z</time></trkpt><trkpt lat="44.6190793" lon="9.8723628"><ele>565.5</ele><time>2026-05-02T10:19:47.738Z</time></trkpt><trkpt lat="44.6191975" lon="9.8723111"><ele>568.0</ele><time>2026-05-02T10:19:49.739Z</time></trkpt><trkpt lat="44.619197" lon="9.8722222"><ele>570.5</ele><time>2026-05-02T10:19:52.738Z</time></trkpt><trkpt lat="44.6191987" lon="9.8720885"><ele>573.0</ele><time>2026-05-02T10:19:54.738Z</time></trkpt><trkpt lat="44.6192038" lon="9.8719964"><ele>573.0</ele><time>2026-05-02T10:19:55.738Z</time></trkpt><trkpt lat="44.6192179" lon="9.8718627"><ele>573.0</ele><time>2026-05-02T10:19:57.739Z</time></trkpt><trkpt lat="44.6192618" lon="9.8717611"><ele>573.0</ele><time>2026-05-02T10:19:59.738Z</time></trkpt><trkpt lat="44.6193651" lon="9.8717498"><ele>573.0</ele><time>2026-05-02T10:20:01.738Z</time></trkpt><trkpt lat="44.619428" lon="9.8717368"><ele>573.0</ele><time>2026-05-02T10:20:02.738Z</time></trkpt><trkpt lat="44.619546" lon="9.8717056"><ele>577.4</ele><time>2026-05-02T10:20:04.739Z</time></trkpt><trkpt lat="44.6196446" lon="9.8716115"><ele>581.8</ele><time>2026-05-02T10:20:06.738Z</time></trkpt><trkpt lat="44.6197043" lon="9.8715787"><ele>586.2</ele><time>2026-05-02T10:20:07.738Z</time></trkpt><trkpt lat="44.6197619" lon="9.8714875"><ele>590.6</ele><time>2026-05-02T10:20:08.739Z</time></trkpt><trkpt lat="44.6198566" lon="9.8713542"><ele>595.0</ele><time>2026-05-02T10:20:10.738Z</time></trkpt><trkpt lat="44.619938" lon="9.8712099"><ele>595.0</ele><time>2026-05-02T10:20:12.738Z</time></trkpt><trkpt lat="44.6199881" lon="9.8711511"><ele>595.0</ele><time>2026-05-02T10:20:13.738Z</time></trkpt><trkpt lat="44.6201065" lon="9.8711099"><ele>595.0</ele><time>2026-05-02T10:20:15.738Z</time></trkpt><trkpt lat="44.6201909" lon="9.8710287"><ele>595.0</ele><time>2026-05-02T10:20:17.74Z</time></trkpt><trkpt lat="44.6202715" lon="9.87089"><ele>595.0</ele><time>2026-05-02T10:20:19.738Z</time></trkpt><trkpt lat="44.6203278" lon="9.8708126"><ele>597.8571428571429</ele><time>2026-05-02T10:20:20.739Z</time></trkpt><trkpt lat="44.6203699" lon="9.8707324"><ele>600.7142857142858</ele><time>2026-05-02T10:20:21.739Z</time></trkpt><trkpt lat="44.6204065" lon="9.8706517"><ele>603.5714285714286</ele><time>2026-05-02T10:20:22.738Z</time></trkpt><trkpt lat="44.6204247" lon="9.870556"><ele>606.4285714285714</ele><time>2026-05-02T10:20:23.738Z</time></trkpt><trkpt lat="44.6204296" lon="9.870464"><ele>609.2857142857143</ele><time>2026-05-02T10:20:24.739Z</time></trkpt><trkpt lat="44.6204363" lon="9.8703509"><ele>612.1428571428571</ele><time>2026-05-02T10:20:25.738Z</time></trkpt><trkpt lat="44.6204487" lon="9.870249"><ele>615.0</ele><time>2026-05-02T10:20:26.738Z</time></trkpt><trkpt lat="44.6204701" lon="9.8701403"><ele>614.8333333333334</ele><time>2026-05-02T10:20:27.738Z</time></trkpt><trkpt lat="44.6204961" lon="9.8700397"><ele>614.6666666666666</ele><time>2026-05-02T10:20:28.738Z</time></trkpt><trkpt lat="44.6205341" lon="9.869939"><ele>614.5</ele><time>2026-05-02T10:20:29.738Z</time></trkpt><trkpt lat="44.6205647" lon="9.8698424"><ele>614.3333333333333</ele><time>2026-05-02T10:20:30.738Z</time></trkpt><trkpt lat="44.6206001" lon="9.869734"><ele>614.1666666666666</ele><time>2026-05-02T10:20:31.738Z</time></trkpt><trkpt lat="44.6206542" lon="9.8696146"><ele>614.0</ele><time>2026-05-02T10:20:33.739Z</time></trkpt><trkpt lat="44.6207248" lon="9.8696373"><ele>614.0</ele><time>2026-05-02T10:20:55.738Z</time></trkpt><trkpt lat="44.6207748" lon="9.8696994"><ele>614.0</ele><time>2026-05-02T10:20:57.739Z</time></trkpt><trkpt lat="44.6208255" lon="9.8698528"><ele>614.0</ele><time>2026-05-02T10:20:59.738Z</time></trkpt><trkpt lat="44.6208408" lon="9.8699747"><ele>614.0</ele><time>2026-05-02T10:21:00.738Z</time></trkpt><trkpt lat="44.6208766" lon="9.870058"><ele>614.0</ele><time>2026-05-02T10:21:01.738Z</time></trkpt><trkpt lat="44.6209263" lon="9.8701722"><ele>614.0</ele><time>2026-05-02T10:21:02.738Z</time></trkpt><trkpt lat="44.6209849" lon="9.8702603"><ele>614.1666666666666</ele><time>2026-05-02T10:21:03.738Z</time></trkpt><trkpt lat="44.6210375" lon="9.8703704"><ele>614.3333333333333</ele><time>2026-05-02T10:21:04.738Z</time></trkpt><trkpt lat="44.6211144" lon="9.8704376"><ele>614.5</ele><time>2026-05-02T10:21:05.738Z</time></trkpt><trkpt lat="44.6211729" lon="9.8705078"><ele>614.6666666666666</ele><time>2026-05-02T10:21:06.739Z</time></trkpt><trkpt lat="44.6212604" lon="9.8704466"><ele>614.8333333333334</ele><time>2026-05-02T10:21:29.738Z</time></trkpt><trkpt lat="44.6213214" lon="9.8703758"><ele>615.0</ele><time>2026-05-02T10:21:30.738Z</time></trkpt><trkpt lat="44.6213754" lon="9.8703267"><ele>619.0</ele><time>2026-05-02T10:21:31.738Z</time></trkpt><trkpt lat="44.6214659" lon="9.870209"><ele>623.0</ele><time>2026-05-02T10:21:33.738Z</time></trkpt><trkpt lat="44.6215305" lon="9.8700574"><ele>627.0</ele><time>2026-05-02T10:21:35.738Z</time></trkpt><trkpt lat="44.6216089" lon="9.8699664"><ele>631.0</ele><time>2026-05-02T10:21:36.739Z</time></trkpt><trkpt lat="44.6216953" lon="9.8698744"><ele>631.5</ele><time>2026-05-02T10:21:37.738Z</time></trkpt><trkpt lat="44.6217736" lon="9.8698187"><ele>632.0</ele><time>2026-05-02T10:21:38.738Z</time></trkpt><trkpt lat="44.6218662" lon="9.8698201"><ele>632.5</ele><time>2026-05-02T10:21:39.738Z</time></trkpt><trkpt lat="44.6219294" lon="9.869754"><ele>633.0</ele><time>2026-05-02T10:21:40.738Z</time></trkpt><trkpt lat="44.622035" lon="9.8697457"><ele>633.5</ele><time>2026-05-02T10:21:41.738Z</time></trkpt><trkpt lat="44.6221139" lon="9.8697238"><ele>634.0</ele><time>2026-05-02T10:21:42.738Z</time></trkpt><trkpt lat="44.622164" lon="9.8696667"><ele>638.0</ele><time>2026-05-02T10:21:43.738Z</time></trkpt><trkpt lat="44.6222524" lon="9.8696027"><ele>642.0</ele><time>2026-05-02T10:21:44.738Z</time></trkpt><trkpt lat="44.6223503" lon="9.8695178"><ele>646.0</ele><time>2026-05-02T10:21:46.738Z</time></trkpt><trkpt lat="44.6224099" lon="9.8694646"><ele>650.0</ele><time>2026-05-02T10:21:47.739Z</time></trkpt><trkpt lat="44.6224794" lon="9.8693793"><ele>654.0</ele><time>2026-05-02T10:21:48.738Z</time></trkpt><trkpt lat="44.6225567" lon="9.8692994"><ele>654.3333333333334</ele><time>2026-05-02T10:21:49.738Z</time></trkpt><trkpt lat="44.6226034" lon="9.8692262"><ele>654.6666666666666</ele><time>2026-05-02T10:21:50.739Z</time></trkpt><trkpt lat="44.6226742" lon="9.8691299"><ele>655.0</ele><time>2026-05-02T10:21:51.738Z</time></trkpt><trkpt lat="44.6227178" lon="9.8690208"><ele>655.3333333333333</ele><time>2026-05-02T10:21:52.738Z</time></trkpt><trkpt lat="44.6227468" lon="9.8689306"><ele>655.6666666666666</ele><time>2026-05-02T10:21:53.738Z</time></trkpt><trkpt lat="44.6227746" lon="9.8687714"><ele>656.0</ele><time>2026-05-02T10:21:55.738Z</time></trkpt><trkpt lat="44.6227883" lon="9.8686809"><ele>661.0</ele><time>2026-05-02T10:21:56.738Z</time></trkpt><trkpt lat="44.6228227" lon="9.8685938"><ele>666.0</ele><time>2026-05-02T10:21:58.738Z</time></trkpt><trkpt lat="44.6229015" lon="9.8685439"><ele>671.0</ele><time>2026-05-02T10:22:00.739Z</time></trkpt><trkpt lat="44.6230094" lon="9.8685371"><ele>676.0</ele><time>2026-05-02T10:22:14.738Z</time></trkpt><trkpt lat="44.6230727" lon="9.8685606"><ele>681.0</ele><time>2026-05-02T10:22:15.738Z</time></trkpt><trkpt lat="44.6231861" lon="9.8686399"><ele>681.0</ele><time>2026-05-02T10:22:17.739Z</time></trkpt><trkpt lat="44.6232356" lon="9.8686992"><ele>681.0</ele><time>2026-05-02T10:22:18.737Z</time></trkpt><trkpt lat="44.623283" lon="9.8687702"><ele>681.0</ele><time>2026-05-02T10:22:20.737Z</time></trkpt><trkpt lat="44.6233228" lon="9.8688966"><ele>681.0</ele><time>2026-05-02T10:22:25.737Z</time></trkpt><trkpt lat="44.6233467" lon="9.8689945"><ele>681.0</ele><time>2026-05-02T10:22:26.737Z</time></trkpt><trkpt lat="44.6233751" lon="9.8690976"><ele>681.0</ele><time>2026-05-02T10:22:27.737Z</time></trkpt><trkpt lat="44.6234023" lon="9.869191"><ele>680.1666666666666</ele><time>2026-05-02T10:22:28.737Z</time></trkpt><trkpt lat="44.6234203" lon="9.8692838"><ele>679.3333333333334</ele><time>2026-05-02T10:22:29.737Z</time></trkpt><trkpt lat="44.6234366" lon="9.8693805"><ele>678.5</ele><time>2026-05-02T10:22:30.737Z</time></trkpt><trkpt lat="44.6234819" lon="9.8695148"><ele>677.6666666666667</ele><time>2026-05-02T10:22:32.739Z</time></trkpt><trkpt lat="44.6235925" lon="9.8695476"><ele>676.8333333333334</ele><time>2026-05-02T10:22:34.737Z</time></trkpt><trkpt lat="44.623677" lon="9.869567"><ele>676.0</ele><time>2026-05-02T10:22:35.737Z</time></trkpt><trkpt lat="44.6237674" lon="9.8696065"><ele>680.1999999999999</ele><time>2026-05-02T10:22:36.737Z</time></trkpt><trkpt lat="44.6238413" lon="9.8696797"><ele>684.4</ele><time>2026-05-02T10:22:37.738Z</time></trkpt><trkpt lat="44.6239147" lon="9.8697711"><ele>688.6</ele><time>2026-05-02T10:22:38.737Z</time></trkpt><trkpt lat="44.6240026" lon="9.8698608"><ele>692.8</ele><time>2026-05-02T10:22:39.737Z</time></trkpt><trkpt lat="44.624067" lon="9.8699472"><ele>697.0</ele><time>2026-05-02T10:22:40.737Z</time></trkpt><trkpt lat="44.624122" lon="9.8700663"><ele>695.8</ele><time>2026-05-02T10:22:41.737Z</time></trkpt><trkpt lat="44.6241673" lon="9.8702125"><ele>694.6</ele><time>2026-05-02T10:22:42.737Z</time></trkpt><trkpt lat="44.6242107" lon="9.8703696"><ele>693.4</ele><time>2026-05-02T10:22:43.737Z</time></trkpt><trkpt lat="44.6242453" lon="9.8705092"><ele>692.1999999999999</ele><time>2026-05-02T10:22:44.737Z</time></trkpt><trkpt lat="44.6242829" lon="9.8706302"><ele>691.0</ele><time>2026-05-02T10:22:45.738Z</time></trkpt><trkpt lat="44.6243397" lon="9.8707348"><ele>691.0</ele><time>2026-05-02T10:22:46.737Z</time></trkpt><trkpt lat="44.6244023" lon="9.8708133"><ele>691.0</ele><time>2026-05-02T10:22:47.737Z</time></trkpt><trkpt lat="44.6244721" lon="9.8708677"><ele>691.0</ele><time>2026-05-02T10:22:48.737Z</time></trkpt><trkpt lat="44.6245496" lon="9.8708952"><ele>691.0</ele><time>2026-05-02T10:22:49.737Z</time></trkpt><trkpt lat="44.6246362" lon="9.8708978"><ele>691.0</ele><time>2026-05-02T10:22:50.737Z</time></trkpt><trkpt lat="44.6247243" lon="9.8708597"><ele>691.0</ele><time>2026-05-02T10:22:51.738Z</time></trkpt><trkpt lat="44.624808" lon="9.8707989"><ele>693.6666666666667</ele><time>2026-05-02T10:22:52.738Z</time></trkpt><trkpt lat="44.624893" lon="9.8707411"><ele>696.3333333333334</ele><time>2026-05-02T10:22:53.737Z</time></trkpt><trkpt lat="44.6249752" lon="9.8706857"><ele>699.0</ele><time>2026-05-02T10:22:54.737Z</time></trkpt><trkpt lat="44.6250514" lon="9.8706349"><ele>701.6666666666666</ele><time>2026-05-02T10:22:55.737Z</time></trkpt><trkpt lat="44.625134" lon="9.8705944"><ele>704.3333333333333</ele><time>2026-05-02T10:22:56.737Z</time></trkpt><trkpt lat="44.6251784" lon="9.8705141"><ele>707.0</ele><time>2026-05-02T10:22:57.737Z</time></trkpt><trkpt lat="44.6251615" lon="9.8703681"><ele>707.0</ele><time>2026-05-02T10:22:59.738Z</time></trkpt><trkpt lat="44.625109" lon="9.8703081"><ele>707.0</ele><time>2026-05-02T10:23:00.738Z</time></trkpt><trkpt lat="44.625056" lon="9.8702331"><ele>707.0</ele><time>2026-05-02T10:23:01.737Z</time></trkpt><trkpt lat="44.6250256" lon="9.8701402"><ele>707.0</ele><time>2026-05-02T10:23:02.738Z</time></trkpt><trkpt lat="44.6250101" lon="9.8700455"><ele>707.0</ele><time>2026-05-02T10:23:03.738Z</time></trkpt><trkpt lat="44.625004" lon="9.8699391"><ele>707.0</ele><time>2026-05-02T10:23:04.737Z</time></trkpt><trkpt lat="44.625001" lon="9.8698231"><ele>707.0</ele><time>2026-05-02T10:23:05.737Z</time></trkpt><trkpt lat="44.6250001" lon="9.8696952"><ele>709.0</ele><time>2026-05-02T10:23:06.737Z</time></trkpt><trkpt lat="44.6250045" lon="9.86958"><ele>711.0</ele><time>2026-05-02T10:23:07.737Z</time></trkpt><trkpt lat="44.6250157" lon="9.8694613"><ele>713.0</ele><time>2026-05-02T10:23:08.738Z</time></trkpt><trkpt lat="44.6250467" lon="9.8693562"><ele>715.0</ele><time>2026-05-02T10:23:09.738Z</time></trkpt><trkpt lat="44.6251008" lon="9.8692858"><ele>717.0</ele><time>2026-05-02T10:23:10.737Z</time></trkpt><trkpt lat="44.6251704" lon="9.8692441"><ele>719.0</ele><time>2026-05-02T10:23:11.737Z</time></trkpt><trkpt lat="44.6252428" lon="9.8691978"><ele>722.0</ele><time>2026-05-02T10:23:12.737Z</time></trkpt><trkpt lat="44.6253364" lon="9.8691775"><ele>725.0</ele><time>2026-05-02T10:23:13.738Z</time></trkpt><trkpt lat="44.6254248" lon="9.8691334"><ele>728.0</ele><time>2026-05-02T10:23:14.737Z</time></trkpt><trkpt lat="44.6255125" lon="9.8690928"><ele>731.0</ele><time>2026-05-02T10:23:15.737Z</time></trkpt><trkpt lat="44.6256009" lon="9.8690559"><ele>734.0</ele><time>2026-05-02T10:23:16.737Z</time></trkpt><trkpt lat="44.625692" lon="9.8690093"><ele>734.0</ele><time>2026-05-02T10:23:17.738Z</time></trkpt><trkpt lat="44.6257811" lon="9.868952"><ele>734.0</ele><time>2026-05-02T10:23:18.738Z</time></trkpt><trkpt lat="44.6258707" lon="9.8688997"><ele>734.0</ele><time>2026-05-02T10:23:19.737Z</time></trkpt><trkpt lat="44.6259627" lon="9.8688499"><ele>734.0</ele><time>2026-05-02T10:23:20.737Z</time></trkpt><trkpt lat="44.6260515" lon="9.8688065"><ele>734.0</ele><time>2026-05-02T10:23:21.737Z</time></trkpt><trkpt lat="44.6261322" lon="9.868769"><ele>736.6666666666666</ele><time>2026-05-02T10:23:22.737Z</time></trkpt><trkpt lat="44.626217" lon="9.8687267"><ele>739.3333333333333</ele><time>2026-05-02T10:23:23.737Z</time></trkpt><trkpt lat="44.6262968" lon="9.868676"><ele>742.0</ele><time>2026-05-02T10:23:24.737Z</time></trkpt><trkpt lat="44.6263614" lon="9.8686039"><ele>744.6666666666666</ele><time>2026-05-02T10:23:25.738Z</time></trkpt><trkpt lat="44.6264206" lon="9.8685212"><ele>747.3333333333334</ele><time>2026-05-02T10:23:26.737Z</time></trkpt><trkpt lat="44.6264788" lon="9.868441"><ele>750.0</ele><time>2026-05-02T10:23:27.738Z</time></trkpt><trkpt lat="44.6265422" lon="9.868378"><ele>750.0</ele><time>2026-05-02T10:23:28.737Z</time></trkpt><trkpt lat="44.6266142" lon="9.8683372"><ele>750.0</ele><time>2026-05-02T10:23:29.737Z</time></trkpt><trkpt lat="44.6266965" lon="9.8683339"><ele>750.0</ele><time>2026-05-02T10:23:30.738Z</time></trkpt><trkpt lat="44.6267766" lon="9.8683632"><ele>750.0</ele><time>2026-05-02T10:23:31.737Z</time></trkpt><trkpt lat="44.6268455" lon="9.8684099"><ele>750.0</ele><time>2026-05-02T10:23:32.737Z</time></trkpt><trkpt lat="44.6269079" lon="9.8684451"><ele>750.0</ele><time>2026-05-02T10:23:33.738Z</time></trkpt><trkpt lat="44.6270309" lon="9.8684036"><ele>753.1666666666666</ele><time>2026-05-02T10:23:35.737Z</time></trkpt><trkpt lat="44.6270886" lon="9.8683554"><ele>756.3333333333333</ele><time>2026-05-02T10:23:36.737Z</time></trkpt><trkpt lat="44.6271399" lon="9.8682989"><ele>759.5</ele><time>2026-05-02T10:23:37.737Z</time></trkpt><trkpt lat="44.6272375" lon="9.8681932"><ele>762.6666666666666</ele><time>2026-05-02T10:23:39.737Z</time></trkpt><trkpt lat="44.6272835" lon="9.8681258"><ele>765.8333333333333</ele><time>2026-05-02T10:23:40.737Z</time></trkpt><trkpt lat="44.6273238" lon="9.8680521"><ele>769.0</ele><time>2026-05-02T10:23:41.737Z</time></trkpt><trkpt lat="44.6273707" lon="9.8678896"><ele>769.0</ele><time>2026-05-02T10:23:43.738Z</time></trkpt><trkpt lat="44.6274101" lon="9.8677439"><ele>769.0</ele><time>2026-05-02T10:23:45.738Z</time></trkpt><trkpt lat="44.6274492" lon="9.867591"><ele>769.0</ele><time>2026-05-02T10:23:47.737Z</time></trkpt><trkpt lat="44.6274968" lon="9.8674356"><ele>769.0</ele><time>2026-05-02T10:23:49.737Z</time></trkpt><trkpt lat="44.6275347" lon="9.8672679"><ele>768.9999999999999</ele><time>2026-05-02T10:23:51.737Z</time></trkpt><trkpt lat="44.6275771" lon="9.867098"><ele>769.0</ele><time>2026-05-02T10:23:53.737Z</time></trkpt><trkpt lat="44.6276095" lon="9.8670139"><ele>769.0</ele><time>2026-05-02T10:23:54.737Z</time></trkpt><trkpt lat="44.6276419" lon="9.8669178"><ele>769.0</ele><time>2026-05-02T10:23:55.737Z</time></trkpt><trkpt lat="44.6276637" lon="9.8668272"><ele>768.9999999999999</ele><time>2026-05-02T10:23:56.738Z</time></trkpt><trkpt lat="44.6276858" lon="9.8667351"><ele>769.0</ele><time>2026-05-02T10:23:57.737Z</time></trkpt><trkpt lat="44.6277105" lon="9.8666455"><ele>768.7142857142857</ele><time>2026-05-02T10:23:58.739Z</time></trkpt><trkpt lat="44.6277345" lon="9.8665591"><ele>768.4285714285714</ele><time>2026-05-02T10:23:59.737Z</time></trkpt><trkpt lat="44.6277611" lon="9.8664722"><ele>768.1428571428571</ele><time>2026-05-02T10:24:00.737Z</time></trkpt><trkpt lat="44.6277827" lon="9.8663796"><ele>767.8571428571429</ele><time>2026-05-02T10:24:01.737Z</time></trkpt><trkpt lat="44.6278109" lon="9.8662946"><ele>767.5714285714287</ele><time>2026-05-02T10:24:02.737Z</time></trkpt><trkpt lat="44.6278423" lon="9.8662041"><ele>767.2857142857143</ele><time>2026-05-02T10:24:03.737Z</time></trkpt><trkpt lat="44.6278653" lon="9.8661048"><ele>767.0</ele><time>2026-05-02T10:24:04.738Z</time></trkpt><trkpt lat="44.6278891" lon="9.866015"><ele>770.2857142857143</ele><time>2026-05-02T10:24:05.738Z</time></trkpt><trkpt lat="44.6279093" lon="9.8659305"><ele>773.5714285714287</ele><time>2026-05-02T10:24:06.737Z</time></trkpt><trkpt lat="44.6279351" lon="9.8658398"><ele>776.8571428571429</ele><time>2026-05-02T10:24:07.737Z</time></trkpt><trkpt lat="44.6279609" lon="9.8657473"><ele>780.1428571428571</ele><time>2026-05-02T10:24:08.737Z</time></trkpt><trkpt lat="44.6279799" lon="9.8656528"><ele>783.4285714285714</ele><time>2026-05-02T10:24:09.737Z</time></trkpt><trkpt lat="44.6279837" lon="9.8655532"><ele>786.7142857142857</ele><time>2026-05-02T10:24:10.737Z</time></trkpt><trkpt lat="44.6279679" lon="9.8654522"><ele>790.0</ele><time>2026-05-02T10:24:11.737Z</time></trkpt><trkpt lat="44.6279366" lon="9.8653597"><ele>789.9999999999999</ele><time>2026-05-02T10:24:12.737Z</time></trkpt><trkpt lat="44.6278965" lon="9.8652648"><ele>790.0</ele><time>2026-05-02T10:24:13.738Z</time></trkpt><trkpt lat="44.6278624" lon="9.8651616"><ele>790.0</ele><time>2026-05-02T10:24:14.737Z</time></trkpt><trkpt lat="44.6278492" lon="9.8650496"><ele>790.0</ele><time>2026-05-02T10:24:15.737Z</time></trkpt><trkpt lat="44.6278559" lon="9.8649353"><ele>789.9999999999999</ele><time>2026-05-02T10:24:16.737Z</time></trkpt><trkpt lat="44.6278832" lon="9.8648106"><ele>790.0</ele><time>2026-05-02T10:24:17.737Z</time></trkpt><trkpt lat="44.6279235" lon="9.8646952"><ele>790.8</ele><time>2026-05-02T10:24:18.737Z</time></trkpt><trkpt lat="44.6279637" lon="9.8645797"><ele>791.6</ele><time>2026-05-02T10:24:19.738Z</time></trkpt><trkpt lat="44.6280029" lon="9.8644574"><ele>792.4000000000001</ele><time>2026-05-02T10:24:20.737Z</time></trkpt><trkpt lat="44.6280277" lon="9.8643279"><ele>793.2</ele><time>2026-05-02T10:24:21.737Z</time></trkpt><trkpt lat="44.6280363" lon="9.8641895"><ele>794.0</ele><time>2026-05-02T10:24:22.737Z</time></trkpt><trkpt lat="44.6280367" lon="9.8640477"><ele>794.6</ele><time>2026-05-02T10:24:23.738Z</time></trkpt><trkpt lat="44.6280333" lon="9.8639057"><ele>795.2</ele><time>2026-05-02T10:24:24.737Z</time></trkpt><trkpt lat="44.6280246" lon="9.8637652"><ele>795.8000000000001</ele><time>2026-05-02T10:24:25.737Z</time></trkpt><trkpt lat="44.6280189" lon="9.8636248"><ele>796.4000000000001</ele><time>2026-05-02T10:24:26.738Z</time></trkpt><trkpt lat="44.6280153" lon="9.8634889"><ele>797.0</ele><time>2026-05-02T10:24:27.737Z</time></trkpt><trkpt lat="44.6280128" lon="9.8633596"><ele>797.4000000000001</ele><time>2026-05-02T10:24:28.737Z</time></trkpt><trkpt lat="44.6280129" lon="9.8632261"><ele>797.8000000000001</ele><time>2026-05-02T10:24:29.738Z</time></trkpt><trkpt lat="44.6280269" lon="9.8630978"><ele>798.2</ele><time>2026-05-02T10:24:30.737Z</time></trkpt><trkpt lat="44.6280518" lon="9.8629772"><ele>798.6</ele><time>2026-05-02T10:24:31.738Z</time></trkpt><trkpt lat="44.6280934" lon="9.8628696"><ele>799.0</ele><time>2026-05-02T10:24:32.737Z</time></trkpt><trkpt lat="44.6281348" lon="9.8627484"><ele>799.0</ele><time>2026-05-02T10:24:33.737Z</time></trkpt><trkpt lat="44.6281724" lon="9.8626208"><ele>799.0</ele><time>2026-05-02T10:24:34.737Z</time></trkpt><trkpt lat="44.6282239" lon="9.8624945"><ele>799.0</ele><time>2026-05-02T10:24:35.738Z</time></trkpt><trkpt lat="44.6282856" lon="9.8623859"><ele>799.0</ele><time>2026-05-02T10:24:36.738Z</time></trkpt><trkpt lat="44.6283571" lon="9.8622915"><ele>799.0</ele><time>2026-05-02T10:24:37.737Z</time></trkpt><trkpt lat="44.6284352" lon="9.862201"><ele>799.2</ele><time>2026-05-02T10:24:38.737Z</time></trkpt><trkpt lat="44.6285078" lon="9.862109"><ele>799.4000000000001</ele><time>2026-05-02T10:24:39.738Z</time></trkpt><trkpt lat="44.6285852" lon="9.8620197"><ele>799.6</ele><time>2026-05-02T10:24:40.737Z</time></trkpt><trkpt lat="44.6286674" lon="9.8619431"><ele>799.8</ele><time>2026-05-02T10:24:41.738Z</time></trkpt><trkpt lat="44.6287534" lon="9.8618545"><ele>800.0</ele><time>2026-05-02T10:24:42.737Z</time></trkpt><trkpt lat="44.6288445" lon="9.861772"><ele>800.0</ele><time>2026-05-02T10:24:43.737Z</time></trkpt><trkpt lat="44.6289353" lon="9.8616855"><ele>800.0</ele><time>2026-05-02T10:24:44.738Z</time></trkpt><trkpt lat="44.6290272" lon="9.8616045"><ele>800.0</ele><time>2026-05-02T10:24:45.737Z</time></trkpt><trkpt lat="44.6291123" lon="9.861518"><ele>800.0</ele><time>2026-05-02T10:24:46.737Z</time></trkpt><trkpt lat="44.6291945" lon="9.8614197"><ele>800.0</ele><time>2026-05-02T10:24:47.737Z</time></trkpt><trkpt lat="44.6292724" lon="9.8613251"><ele>800.0000000000001</ele><time>2026-05-02T10:24:48.739Z</time></trkpt><trkpt lat="44.6293519" lon="9.8612491"><ele>800.0</ele><time>2026-05-02T10:24:49.737Z</time></trkpt><trkpt lat="44.629432" lon="9.8611969"><ele>800.0</ele><time>2026-05-02T10:24:50.737Z</time></trkpt><trkpt lat="44.6295112" lon="9.8611539"><ele>800.0</ele><time>2026-05-02T10:24:51.737Z</time></trkpt><trkpt lat="44.6295819" lon="9.8611119"><ele>800.0000000000001</ele><time>2026-05-02T10:24:52.737Z</time></trkpt><trkpt lat="44.6296415" lon="9.8610581"><ele>800.0</ele><time>2026-05-02T10:24:53.737Z</time></trkpt><trkpt lat="44.6296901" lon="9.8609976"><ele>801.5000000000001</ele><time>2026-05-02T10:24:54.737Z</time></trkpt><trkpt lat="44.6297373" lon="9.8609263"><ele>803.0</ele><time>2026-05-02T10:24:55.738Z</time></trkpt><trkpt lat="44.6297822" lon="9.8608368"><ele>804.5</ele><time>2026-05-02T10:24:56.737Z</time></trkpt><trkpt lat="44.6298258" lon="9.8607447"><ele>806.0</ele><time>2026-05-02T10:24:57.738Z</time></trkpt><trkpt lat="44.6298737" lon="9.8606491"><ele>807.5000000000001</ele><time>2026-05-02T10:24:58.737Z</time></trkpt><trkpt lat="44.6299253" lon="9.8605566"><ele>809.0</ele><time>2026-05-02T10:24:59.738Z</time></trkpt><trkpt lat="44.6299772" lon="9.8604613"><ele>809.0000000000001</ele><time>2026-05-02T10:25:00.737Z</time></trkpt><trkpt lat="44.630021" lon="9.8603604"><ele>809.0</ele><time>2026-05-02T10:25:01.737Z</time></trkpt><trkpt lat="44.6300721" lon="9.8602662"><ele>809.0</ele><time>2026-05-02T10:25:02.737Z</time></trkpt><trkpt lat="44.6301311" lon="9.860165"><ele>809.0</ele><time>2026-05-02T10:25:03.738Z</time></trkpt><trkpt lat="44.6301815" lon="9.8600588"><ele>809.0000000000001</ele><time>2026-05-02T10:25:04.737Z</time></trkpt><trkpt lat="44.6302385" lon="9.8599488"><ele>809.0</ele><time>2026-05-02T10:25:05.737Z</time></trkpt><trkpt lat="44.6302948" lon="9.8598415"><ele>812.6</ele><time>2026-05-02T10:25:06.738Z</time></trkpt><trkpt lat="44.6303488" lon="9.8597334"><ele>816.2</ele><time>2026-05-02T10:25:07.737Z</time></trkpt><trkpt lat="44.6303974" lon="9.8596198"><ele>819.8000000000001</ele><time>2026-05-02T10:25:08.737Z</time></trkpt><trkpt lat="44.6304294" lon="9.8594885"><ele>823.4000000000001</ele><time>2026-05-02T10:25:09.737Z</time></trkpt><trkpt lat="44.6304557" lon="9.859352"><ele>827.0</ele><time>2026-05-02T10:25:10.738Z</time></trkpt><trkpt lat="44.630466" lon="9.8592088"><ele>827.4000000000001</ele><time>2026-05-02T10:25:11.737Z</time></trkpt><trkpt lat="44.630466" lon="9.8590643"><ele>827.8000000000001</ele><time>2026-05-02T10:25:12.737Z</time></trkpt><trkpt lat="44.6304614" lon="9.8589225"><ele>828.2</ele><time>2026-05-02T10:25:13.737Z</time></trkpt><trkpt lat="44.630449" lon="9.8587804"><ele>828.6</ele><time>2026-05-02T10:25:14.738Z</time></trkpt><trkpt lat="44.6304227" lon="9.8586392"><ele>829.0</ele><time>2026-05-02T10:25:15.737Z</time></trkpt><trkpt lat="44.6303904" lon="9.8585004"><ele>829.0</ele><time>2026-05-02T10:25:16.737Z</time></trkpt><trkpt lat="44.6303551" lon="9.8583742"><ele>829.0</ele><time>2026-05-02T10:25:17.737Z</time></trkpt><trkpt lat="44.6303233" lon="9.8582557"><ele>829.0</ele><time>2026-05-02T10:25:18.737Z</time></trkpt><trkpt lat="44.6303014" lon="9.8581351"><ele>829.0</ele><time>2026-05-02T10:25:19.737Z</time></trkpt><trkpt lat="44.6302764" lon="9.8580095"><ele>829.0</ele><time>2026-05-02T10:25:20.737Z</time></trkpt><trkpt lat="44.6302656" lon="9.8578745"><ele>826.4000000000001</ele><time>2026-05-02T10:25:21.737Z</time></trkpt><trkpt lat="44.6302577" lon="9.8577467"><ele>823.8</ele><time>2026-05-02T10:25:22.738Z</time></trkpt><trkpt lat="44.6302485" lon="9.8576094"><ele>821.2</ele><time>2026-05-02T10:25:23.737Z</time></trkpt><trkpt lat="44.6302418" lon="9.857463"><ele>818.5999999999999</ele><time>2026-05-02T10:25:24.738Z</time></trkpt><trkpt lat="44.6302375" lon="9.8573177"><ele>816.0</ele><time>2026-05-02T10:25:25.737Z</time></trkpt><trkpt lat="44.6302331" lon="9.8571729"><ele>816.0</ele><time>2026-05-02T10:25:26.737Z</time></trkpt><trkpt lat="44.630232" lon="9.8570265"><ele>816.0</ele><time>2026-05-02T10:25:27.738Z</time></trkpt><trkpt lat="44.6302233" lon="9.8568822"><ele>816.0</ele><time>2026-05-02T10:25:28.738Z</time></trkpt><trkpt lat="44.6302054" lon="9.8567436"><ele>816.0</ele><time>2026-05-02T10:25:29.738Z</time></trkpt><trkpt lat="44.6301934" lon="9.8566109"><ele>816.0</ele><time>2026-05-02T10:25:30.737Z</time></trkpt><trkpt lat="44.6301907" lon="9.856469"><ele>817.5999999999999</ele><time>2026-05-02T10:25:31.736Z</time></trkpt><trkpt lat="44.6301833" lon="9.856328"><ele>819.2</ele><time>2026-05-02T10:25:32.736Z</time></trkpt><trkpt lat="44.6301476" lon="9.8561969"><ele>820.8</ele><time>2026-05-02T10:25:33.736Z</time></trkpt><trkpt lat="44.6300912" lon="9.8560779"><ele>822.4000000000001</ele><time>2026-05-02T10:25:34.736Z</time></trkpt><trkpt lat="44.630015" lon="9.855978"><ele>824.0</ele><time>2026-05-02T10:25:35.737Z</time></trkpt><trkpt lat="44.6299246" lon="9.8558845"><ele>826.25</ele><time>2026-05-02T10:25:36.737Z</time></trkpt><trkpt lat="44.6298248" lon="9.8558123"><ele>828.5</ele><time>2026-05-02T10:25:37.736Z</time></trkpt><trkpt lat="44.6297146" lon="9.8557707"><ele>830.75</ele><time>2026-05-02T10:25:38.736Z</time></trkpt><trkpt lat="44.629602" lon="9.8557496"><ele>833.0</ele><time>2026-05-02T10:25:39.736Z</time></trkpt><trkpt lat="44.6294896" lon="9.8557195"><ele>831.0</ele><time>2026-05-02T10:25:40.736Z</time></trkpt><trkpt lat="44.6293828" lon="9.8556746"><ele>829.0</ele><time>2026-05-02T10:25:41.736Z</time></trkpt><trkpt lat="44.629295" lon="9.8555985"><ele>827.0</ele><time>2026-05-02T10:25:42.736Z</time></trkpt><trkpt lat="44.629218" lon="9.8555034"><ele>825.0</ele><time>2026-05-02T10:25:43.736Z</time></trkpt><trkpt lat="44.6291502" lon="9.8554036"><ele>823.0</ele><time>2026-05-02T10:25:44.736Z</time></trkpt><trkpt lat="44.6290852" lon="9.8552916"><ele>823.0</ele><time>2026-05-02T10:25:45.736Z</time></trkpt><trkpt lat="44.6290235" lon="9.8551798"><ele>823.0</ele><time>2026-05-02T10:25:46.736Z</time></trkpt><trkpt lat="44.6289654" lon="9.8550705"><ele>823.0</ele><time>2026-05-02T10:25:47.736Z</time></trkpt><trkpt lat="44.6289037" lon="9.8549589"><ele>823.0</ele><time>2026-05-02T10:25:48.737Z</time></trkpt><trkpt lat="44.6288361" lon="9.854852"><ele>823.0</ele><time>2026-05-02T10:25:49.737Z</time></trkpt><trkpt lat="44.628765" lon="9.8547518"><ele>821.8</ele><time>2026-05-02T10:25:50.736Z</time></trkpt><trkpt lat="44.6286907" lon="9.8546594"><ele>820.5999999999999</ele><time>2026-05-02T10:25:51.736Z</time></trkpt><trkpt lat="44.6286165" lon="9.8545697"><ele>819.4000000000001</ele><time>2026-05-02T10:25:52.736Z</time></trkpt><trkpt lat="44.6285398" lon="9.8544805"><ele>818.2</ele><time>2026-05-02T10:25:53.736Z</time></trkpt><trkpt lat="44.6284647" lon="9.8543938"><ele>817.0</ele><time>2026-05-02T10:25:54.736Z</time></trkpt><trkpt lat="44.6283851" lon="9.8543059"><ele>819.2</ele><time>2026-05-02T10:25:55.736Z</time></trkpt><trkpt lat="44.6283063" lon="9.8542163"><ele>821.4000000000001</ele><time>2026-05-02T10:25:56.736Z</time></trkpt><trkpt lat="44.6282252" lon="9.8541206"><ele>823.5999999999999</ele><time>2026-05-02T10:25:57.736Z</time></trkpt><trkpt lat="44.6281475" lon="9.8540231"><ele>825.8</ele><time>2026-05-02T10:25:58.737Z</time></trkpt><trkpt lat="44.6280667" lon="9.8539195"><ele>828.0</ele><time>2026-05-02T10:25:59.736Z</time></trkpt><trkpt lat="44.6279786" lon="9.8538186"><ele>828.0</ele><time>2026-05-02T10:26:00.736Z</time></trkpt><trkpt lat="44.6278898" lon="9.8537237"><ele>828.0</ele><time>2026-05-02T10:26:01.736Z</time></trkpt><trkpt lat="44.6278033" lon="9.8536345"><ele>828.0</ele><time>2026-05-02T10:26:02.736Z</time></trkpt><trkpt lat="44.6277103" lon="9.8535475"><ele>828.0</ele><time>2026-05-02T10:26:03.736Z</time></trkpt><trkpt lat="44.6276164" lon="9.8534732"><ele>828.0</ele><time>2026-05-02T10:26:04.736Z</time></trkpt><trkpt lat="44.6275185" lon="9.8534087"><ele>826.5999999999999</ele><time>2026-05-02T10:26:05.736Z</time></trkpt><trkpt lat="44.627417" lon="9.8533483"><ele>825.1999999999999</ele><time>2026-05-02T10:26:06.736Z</time></trkpt><trkpt lat="44.6273185" lon="9.8532966"><ele>823.8</ele><time>2026-05-02T10:26:07.736Z</time></trkpt><trkpt lat="44.6272179" lon="9.8532463"><ele>822.4</ele><time>2026-05-02T10:26:08.737Z</time></trkpt><trkpt lat="44.6271157" lon="9.8531966"><ele>821.0</ele><time>2026-05-02T10:26:09.736Z</time></trkpt><trkpt lat="44.6270133" lon="9.8531521"><ele>819.1999999999999</ele><time>2026-05-02T10:26:10.737Z</time></trkpt><trkpt lat="44.6269083" lon="9.8531113"><ele>817.4</ele><time>2026-05-02T10:26:11.736Z</time></trkpt><trkpt lat="44.6268073" lon="9.8530763"><ele>815.6</ele><time>2026-05-02T10:26:12.736Z</time></trkpt><trkpt lat="44.6267001" lon="9.8530433"><ele>813.8</ele><time>2026-05-02T10:26:13.736Z</time></trkpt><trkpt lat="44.6265816" lon="9.853006"><ele>812.0</ele><time>2026-05-02T10:26:14.737Z</time></trkpt><trkpt lat="44.6264676" lon="9.8529782"><ele>812.0</ele><time>2026-05-02T10:26:15.736Z</time></trkpt><trkpt lat="44.6263608" lon="9.8529233"><ele>812.0</ele><time>2026-05-02T10:26:16.736Z</time></trkpt><trkpt lat="44.6262568" lon="9.8528453"><ele>812.0</ele><time>2026-05-02T10:26:17.736Z</time></trkpt><trkpt lat="44.6261573" lon="9.8527648"><ele>812.0</ele><time>2026-05-02T10:26:18.736Z</time></trkpt><trkpt lat="44.6260573" lon="9.8526797"><ele>811.0</ele><time>2026-05-02T10:26:19.736Z</time></trkpt><trkpt lat="44.6259581" lon="9.8525883"><ele>810.0</ele><time>2026-05-02T10:26:20.736Z</time></trkpt><trkpt lat="44.6258608" lon="9.8524971"><ele>809.0</ele><time>2026-05-02T10:26:21.736Z</time></trkpt><trkpt lat="44.6257603" lon="9.8524143"><ele>808.0</ele><time>2026-05-02T10:26:22.736Z</time></trkpt><trkpt lat="44.6256575" lon="9.8523328"><ele>808.0</ele><time>2026-05-02T10:26:23.736Z</time></trkpt><trkpt lat="44.6255562" lon="9.8522383"><ele>808.0</ele><time>2026-05-02T10:26:24.736Z</time></trkpt><trkpt lat="44.6254611" lon="9.852151"><ele>808.0</ele><time>2026-05-02T10:26:25.736Z</time></trkpt><trkpt lat="44.6253723" lon="9.8520682"><ele>808.0</ele><time>2026-05-02T10:26:26.736Z</time></trkpt><trkpt lat="44.6252795" lon="9.8519826"><ele>806.25</ele><time>2026-05-02T10:26:27.737Z</time></trkpt><trkpt lat="44.6251779" lon="9.8518949"><ele>804.5</ele><time>2026-05-02T10:26:28.737Z</time></trkpt><trkpt lat="44.6250803" lon="9.8518061"><ele>802.75</ele><time>2026-05-02T10:26:29.737Z</time></trkpt><trkpt lat="44.6249739" lon="9.8517295"><ele>801.0</ele><time>2026-05-02T10:26:30.737Z</time></trkpt><trkpt lat="44.6248626" lon="9.8516705"><ele>801.0</ele><time>2026-05-02T10:26:31.736Z</time></trkpt><trkpt lat="44.6247481" lon="9.8516261"><ele>801.0</ele><time>2026-05-02T10:26:32.736Z</time></trkpt><trkpt lat="44.6246458" lon="9.8515949"><ele>801.0</ele><time>2026-05-02T10:26:33.737Z</time></trkpt><trkpt lat="44.6245336" lon="9.8515617"><ele>801.0</ele><time>2026-05-02T10:26:34.736Z</time></trkpt><trkpt lat="44.6244142" lon="9.8515343"><ele>799.0</ele><time>2026-05-02T10:26:35.736Z</time></trkpt><trkpt lat="44.6242967" lon="9.8515013"><ele>797.0</ele><time>2026-05-02T10:26:36.736Z</time></trkpt><trkpt lat="44.6241735" lon="9.8514688"><ele>795.0</ele><time>2026-05-02T10:26:37.737Z</time></trkpt><trkpt lat="44.6240482" lon="9.8514322"><ele>793.0</ele><time>2026-05-02T10:26:38.736Z</time></trkpt><trkpt lat="44.6239317" lon="9.8513921"><ele>793.0</ele><time>2026-05-02T10:26:39.736Z</time></trkpt><trkpt lat="44.6238086" lon="9.8513645"><ele>793.0</ele><time>2026-05-02T10:26:40.736Z</time></trkpt><trkpt lat="44.6236844" lon="9.8513455"><ele>793.0</ele><time>2026-05-02T10:26:41.736Z</time></trkpt><trkpt lat="44.6235642" lon="9.8513614"><ele>793.0</ele><time>2026-05-02T10:26:42.736Z</time></trkpt><trkpt lat="44.6234456" lon="9.8514026"><ele>792.5</ele><time>2026-05-02T10:26:43.737Z</time></trkpt><trkpt lat="44.623335" lon="9.8514573"><ele>792.0</ele><time>2026-05-02T10:26:44.737Z</time></trkpt><trkpt lat="44.6232223" lon="9.8515167"><ele>791.5</ele><time>2026-05-02T10:26:45.736Z</time></trkpt><trkpt lat="44.6231101" lon="9.8515668"><ele>791.0</ele><time>2026-05-02T10:26:46.737Z</time></trkpt><trkpt lat="44.6229977" lon="9.8515995"><ele>791.0</ele><time>2026-05-02T10:26:47.736Z</time></trkpt><trkpt lat="44.6228817" lon="9.8516249"><ele>791.0</ele><time>2026-05-02T10:26:48.736Z</time></trkpt><trkpt lat="44.6227659" lon="9.8516437"><ele>791.0</ele><time>2026-05-02T10:26:49.737Z</time></trkpt><trkpt lat="44.6226488" lon="9.8516484"><ele>791.0</ele><time>2026-05-02T10:26:50.736Z</time></trkpt><trkpt lat="44.6225367" lon="9.8516629"><ele>790.8</ele><time>2026-05-02T10:26:51.737Z</time></trkpt><trkpt lat="44.6224237" lon="9.8516531"><ele>790.5999999999999</ele><time>2026-05-02T10:26:52.736Z</time></trkpt><trkpt lat="44.6223161" lon="9.8516081"><ele>790.4</ele><time>2026-05-02T10:26:53.736Z</time></trkpt><trkpt lat="44.622216" lon="9.8515383"><ele>790.2</ele><time>2026-05-02T10:26:54.736Z</time></trkpt><trkpt lat="44.6221324" lon="9.8514535"><ele>790.0</ele><time>2026-05-02T10:26:55.736Z</time></trkpt><trkpt lat="44.6220512" lon="9.851362"><ele>789.2</ele><time>2026-05-02T10:26:56.737Z</time></trkpt><trkpt lat="44.6219722" lon="9.8512709"><ele>788.4</ele><time>2026-05-02T10:26:57.737Z</time></trkpt><trkpt lat="44.6218974" lon="9.8511808"><ele>787.5999999999999</ele><time>2026-05-02T10:26:58.736Z</time></trkpt><trkpt lat="44.6218325" lon="9.8510975"><ele>786.8</ele><time>2026-05-02T10:26:59.736Z</time></trkpt><trkpt lat="44.6217544" lon="9.8510041"><ele>786.0</ele><time>2026-05-02T10:27:01.736Z</time></trkpt><trkpt lat="44.6216877" lon="9.8509831"><ele>786.0</ele><time>2026-05-02T10:27:05.736Z</time></trkpt><trkpt lat="44.6215931" lon="9.8510147"><ele>786.0</ele><time>2026-05-02T10:27:08.736Z</time></trkpt><trkpt lat="44.6215047" lon="9.8510249"><ele>786.0</ele><time>2026-05-02T10:27:10.736Z</time></trkpt><trkpt lat="44.6213796" lon="9.8510669"><ele>786.0</ele><time>2026-05-02T10:27:12.736Z</time></trkpt><trkpt lat="44.6212538" lon="9.8510978"><ele>786.0</ele><time>2026-05-02T10:27:14.736Z</time></trkpt><trkpt lat="44.6211768" lon="9.851102"><ele>787.3333333333334</ele><time>2026-05-02T10:27:15.736Z</time></trkpt><trkpt lat="44.6210984" lon="9.8511176"><ele>788.6666666666667</ele><time>2026-05-02T10:27:16.737Z</time></trkpt><trkpt lat="44.6210201" lon="9.8511345"><ele>790.0</ele><time>2026-05-02T10:27:17.736Z</time></trkpt><trkpt lat="44.6209235" lon="9.851161"><ele>791.3333333333334</ele><time>2026-05-02T10:27:18.737Z</time></trkpt><trkpt lat="44.6208603" lon="9.8511936"><ele>792.6666666666667</ele><time>2026-05-02T10:27:19.736Z</time></trkpt><trkpt lat="44.6207814" lon="9.8512155"><ele>794.0</ele><time>2026-05-02T10:27:20.737Z</time></trkpt><trkpt lat="44.6207104" lon="9.8512147"><ele>794.0000000000001</ele><time>2026-05-02T10:27:21.736Z</time></trkpt><trkpt lat="44.6206365" lon="9.8512096"><ele>794.0</ele><time>2026-05-02T10:27:22.736Z</time></trkpt><trkpt lat="44.6205633" lon="9.8512025"><ele>794.0</ele><time>2026-05-02T10:27:23.736Z</time></trkpt><trkpt lat="44.6204413" lon="9.8511989"><ele>794.0</ele><time>2026-05-02T10:27:25.737Z</time></trkpt><trkpt lat="44.6203705" lon="9.8511998"><ele>794.0000000000001</ele><time>2026-05-02T10:27:26.736Z</time></trkpt><trkpt lat="44.6202882" lon="9.8511911"><ele>794.0</ele><time>2026-05-02T10:27:27.736Z</time></trkpt><trkpt lat="44.6202182" lon="9.8511946"><ele>796.0000000000001</ele><time>2026-05-02T10:27:28.736Z</time></trkpt><trkpt lat="44.620155" lon="9.8511736"><ele>798.0</ele><time>2026-05-02T10:27:29.736Z</time></trkpt><trkpt lat="44.6200724" lon="9.851168"><ele>800.0</ele><time>2026-05-02T10:27:30.736Z</time></trkpt><trkpt lat="44.619955" lon="9.8512091"><ele>802.0</ele><time>2026-05-02T10:27:32.736Z</time></trkpt><trkpt lat="44.6198753" lon="9.8512198"><ele>804.0000000000001</ele><time>2026-05-02T10:27:33.736Z</time></trkpt><trkpt lat="44.6198049" lon="9.8512303"><ele>806.0</ele><time>2026-05-02T10:27:34.736Z</time></trkpt><trkpt lat="44.6197208" lon="9.8512667"><ele>806.0000000000001</ele><time>2026-05-02T10:27:35.736Z</time></trkpt><trkpt lat="44.6196476" lon="9.8512848"><ele>806.0</ele><time>2026-05-02T10:27:36.736Z</time></trkpt><trkpt lat="44.6195806" lon="9.8513024"><ele>806.0</ele><time>2026-05-02T10:27:37.736Z</time></trkpt><trkpt lat="44.6194848" lon="9.8512725"><ele>806.0</ele><time>2026-05-02T10:27:39.736Z</time></trkpt><trkpt lat="44.6194251" lon="9.8512025"><ele>806.0000000000001</ele><time>2026-05-02T10:27:41.736Z</time></trkpt><trkpt lat="44.6193568" lon="9.8511146"><ele>806.0</ele><time>2026-05-02T10:27:44.736Z</time></trkpt><trkpt lat="44.6193084" lon="9.8510337"><ele>806.0</ele><time>2026-05-02T10:27:46.736Z</time></trkpt><trkpt lat="44.6192556" lon="9.8509592"><ele>806.0</ele><time>2026-05-02T10:27:48.736Z</time></trkpt><trkpt lat="44.6191863" lon="9.8508797"><ele>806.0</ele><time>2026-05-02T10:27:50.736Z</time></trkpt><trkpt lat="44.6191063" lon="9.8508923"><ele>806.0</ele><time>2026-05-02T10:27:52.736Z</time></trkpt><trkpt lat="44.6189825" lon="9.8509477"><ele>806.0</ele><time>2026-05-02T10:27:54.737Z</time></trkpt><trkpt lat="44.6188849" lon="9.8509889"><ele>806.0000000000001</ele><time>2026-05-02T10:27:55.736Z</time></trkpt><trkpt lat="44.6188054" lon="9.8510182"><ele>806.0</ele><time>2026-05-02T10:27:56.737Z</time></trkpt><trkpt lat="44.6187267" lon="9.8510205"><ele>806.0</ele><time>2026-05-02T10:27:57.737Z</time></trkpt><trkpt lat="44.6186427" lon="9.8510463"><ele>806.0</ele><time>2026-05-02T10:27:58.736Z</time></trkpt><trkpt lat="44.6185331" lon="9.8510711"><ele>806.0000000000001</ele><time>2026-05-02T10:27:59.737Z</time></trkpt><trkpt lat="44.6184434" lon="9.8510657"><ele>806.0</ele><time>2026-05-02T10:28:00.736Z</time></trkpt><trkpt lat="44.6183713" lon="9.8510486"><ele>804.6666666666667</ele><time>2026-05-02T10:28:01.736Z</time></trkpt><trkpt lat="44.6182541" lon="9.85096"><ele>803.3333333333334</ele><time>2026-05-02T10:28:03.736Z</time></trkpt><trkpt lat="44.618194" lon="9.8509007"><ele>802.0</ele><time>2026-05-02T10:28:04.736Z</time></trkpt><trkpt lat="44.618147" lon="9.8508137"><ele>800.6666666666667</ele><time>2026-05-02T10:28:05.737Z</time></trkpt><trkpt lat="44.618093" lon="9.8507389"><ele>799.3333333333334</ele><time>2026-05-02T10:28:06.736Z</time></trkpt><trkpt lat="44.6180436" lon="9.8506492"><ele>798.0</ele><time>2026-05-02T10:28:07.737Z</time></trkpt><trkpt lat="44.6179965" lon="9.8505804"><ele>798.0</ele><time>2026-05-02T10:28:08.737Z</time></trkpt><trkpt lat="44.6178876" lon="9.8504895"><ele>798.0</ele><time>2026-05-02T10:28:10.737Z</time></trkpt><trkpt lat="44.6178321" lon="9.8504355"><ele>798.0</ele><time>2026-05-02T10:28:11.736Z</time></trkpt><trkpt lat="44.6177247" lon="9.8503453"><ele>798.0</ele><time>2026-05-02T10:28:13.737Z</time></trkpt><trkpt lat="44.6176103" lon="9.850262"><ele>798.0</ele><time>2026-05-02T10:28:15.736Z</time></trkpt><trkpt lat="44.6175504" lon="9.8502227"><ele>795.8333333333334</ele><time>2026-05-02T10:28:16.736Z</time></trkpt><trkpt lat="44.6174887" lon="9.8501714"><ele>793.6666666666667</ele><time>2026-05-02T10:28:17.736Z</time></trkpt><trkpt lat="44.6174257" lon="9.8501191"><ele>791.5</ele><time>2026-05-02T10:28:18.737Z</time></trkpt><trkpt lat="44.6173567" lon="9.8500597"><ele>789.3333333333334</ele><time>2026-05-02T10:28:19.736Z</time></trkpt><trkpt lat="44.6172659" lon="9.8500092"><ele>787.1666666666667</ele><time>2026-05-02T10:28:21.736Z</time></trkpt><trkpt lat="44.6171813" lon="9.8500167"><ele>785.0</ele><time>2026-05-02T10:28:23.736Z</time></trkpt><trkpt lat="44.6171053" lon="9.8501072"><ele>785.0000000000001</ele><time>2026-05-02T10:28:26.736Z</time></trkpt><trkpt lat="44.6170258" lon="9.8502181"><ele>785.0</ele><time>2026-05-02T10:28:28.736Z</time></trkpt><trkpt lat="44.616982" lon="9.8502835"><ele>785.0</ele><time>2026-05-02T10:28:29.736Z</time></trkpt><trkpt lat="44.6169311" lon="9.8503496"><ele>785.0</ele><time>2026-05-02T10:28:30.736Z</time></trkpt><trkpt lat="44.616877" lon="9.8504229"><ele>785.0000000000001</ele><time>2026-05-02T10:28:31.736Z</time></trkpt><trkpt lat="44.6167855" lon="9.8505215"><ele>785.0</ele><time>2026-05-02T10:28:33.736Z</time></trkpt><trkpt lat="44.616716" lon="9.8505652"><ele>784.0</ele><time>2026-05-02T10:28:35.736Z</time></trkpt><trkpt lat="44.6166509" lon="9.8505437"><ele>783.0</ele><time>2026-05-02T10:28:37.736Z</time></trkpt><trkpt lat="44.6165875" lon="9.8505052"><ele>782.0</ele><time>2026-05-02T10:28:39.736Z</time></trkpt><trkpt lat="44.6165155" lon="9.8504674"><ele>781.0</ele><time>2026-05-02T10:28:41.737Z</time></trkpt><trkpt lat="44.6164437" lon="9.8504253"><ele>780.0</ele><time>2026-05-02T10:28:43.736Z</time></trkpt><trkpt lat="44.616372" lon="9.8503844"><ele>779.0</ele><time>2026-05-02T10:28:45.736Z</time></trkpt><trkpt lat="44.6163011" lon="9.8503506"><ele>778.0</ele><time>2026-05-02T10:28:48.736Z</time></trkpt><trkpt lat="44.6162001" lon="9.8503332"><ele>776.9999999999999</ele><time>2026-05-02T10:28:54.736Z</time></trkpt><trkpt lat="44.6161385" lon="9.8503103"><ele>776.0</ele><time>2026-05-02T10:28:55.736Z</time></trkpt><trkpt lat="44.6160643" lon="9.850284"><ele>775.0</ele><time>2026-05-02T10:28:56.736Z</time></trkpt><trkpt lat="44.6159836" lon="9.8502662"><ele>774.0</ele><time>2026-05-02T10:28:57.737Z</time></trkpt><trkpt lat="44.6158951" lon="9.8502498"><ele>772.9999999999999</ele><time>2026-05-02T10:28:58.737Z</time></trkpt><trkpt lat="44.6158029" lon="9.8502338"><ele>772.0</ele><time>2026-05-02T10:28:59.736Z</time></trkpt><trkpt lat="44.6157066" lon="9.8502195"><ele>772.0</ele><time>2026-05-02T10:29:00.736Z</time></trkpt><trkpt lat="44.6156062" lon="9.850204"><ele>772.0</ele><time>2026-05-02T10:29:01.737Z</time></trkpt><trkpt lat="44.6155048" lon="9.8501922"><ele>772.0</ele><time>2026-05-02T10:29:02.736Z</time></trkpt><trkpt lat="44.6154013" lon="9.8501959"><ele>772.0</ele><time>2026-05-02T10:29:03.736Z</time></trkpt><trkpt lat="44.6153007" lon="9.8502076"><ele>772.0</ele><time>2026-05-02T10:29:04.737Z</time></trkpt><trkpt lat="44.6151952" lon="9.8502162"><ele>771.75</ele><time>2026-05-02T10:29:05.736Z</time></trkpt><trkpt lat="44.6150855" lon="9.850234"><ele>771.5</ele><time>2026-05-02T10:29:06.736Z</time></trkpt><trkpt lat="44.6149713" lon="9.8502392"><ele>771.25</ele><time>2026-05-02T10:29:07.736Z</time></trkpt><trkpt lat="44.6148592" lon="9.8502128"><ele>771.0</ele><time>2026-05-02T10:29:08.737Z</time></trkpt><trkpt lat="44.6147459" lon="9.8501698"><ele>770.75</ele><time>2026-05-02T10:29:09.736Z</time></trkpt><trkpt lat="44.6146377" lon="9.8501005"><ele>770.5</ele><time>2026-05-02T10:29:10.737Z</time></trkpt><trkpt lat="44.6145355" lon="9.8500056"><ele>770.25</ele><time>2026-05-02T10:29:11.737Z</time></trkpt><trkpt lat="44.6144419" lon="9.8498845"><ele>770.0</ele><time>2026-05-02T10:29:12.737Z</time></trkpt><trkpt lat="44.6143602" lon="9.8497469"><ele>770.0000000000001</ele><time>2026-05-02T10:29:13.736Z</time></trkpt><trkpt lat="44.6142971" lon="9.8496113"><ele>770.0</ele><time>2026-05-02T10:29:14.737Z</time></trkpt><trkpt lat="44.6142418" lon="9.8494989"><ele>770.0</ele><time>2026-05-02T10:29:15.736Z</time></trkpt><trkpt lat="44.6141986" lon="9.849403"><ele>770.0</ele><time>2026-05-02T10:29:16.737Z</time></trkpt><trkpt lat="44.6141623" lon="9.8493194"><ele>770.0000000000001</ele><time>2026-05-02T10:29:17.736Z</time></trkpt><trkpt lat="44.6141276" lon="9.8492442"><ele>770.0</ele><time>2026-05-02T10:29:18.737Z</time></trkpt><trkpt lat="44.6140977" lon="9.8491631"><ele>772.0</ele><time>2026-05-02T10:29:19.736Z</time></trkpt><trkpt lat="44.6140409" lon="9.8490173"><ele>774.0</ele><time>2026-05-02T10:29:21.736Z</time></trkpt><trkpt lat="44.6139828" lon="9.8488747"><ele>776.0</ele><time>2026-05-02T10:29:23.735Z</time></trkpt><trkpt lat="44.6139424" lon="9.8487526"><ele>778.0</ele><time>2026-05-02T10:29:25.735Z</time></trkpt><trkpt lat="44.6138965" lon="9.8486255"><ele>780.0</ele><time>2026-05-02T10:29:27.735Z</time></trkpt><trkpt lat="44.6138444" lon="9.8484737"><ele>779.0</ele><time>2026-05-02T10:29:29.735Z</time></trkpt><trkpt lat="44.6137989" lon="9.8483401"><ele>778.0</ele><time>2026-05-02T10:29:31.735Z</time></trkpt><trkpt lat="44.6137667" lon="9.8482438"><ele>777.0</ele><time>2026-05-02T10:29:33.735Z</time></trkpt><trkpt lat="44.6137385" lon="9.8481112"><ele>776.0</ele><time>2026-05-02T10:29:36.735Z</time></trkpt><trkpt lat="44.6137033" lon="9.8480023"><ele>775.0</ele><time>2026-05-02T10:29:38.735Z</time></trkpt><trkpt lat="44.6136508" lon="9.8478745"><ele>774.9999999999999</ele><time>2026-05-02T10:29:40.736Z</time></trkpt><trkpt lat="44.6135987" lon="9.8477107"><ele>775.0</ele><time>2026-05-02T10:29:42.735Z</time></trkpt><trkpt lat="44.6135734" lon="9.8476231"><ele>775.0</ele><time>2026-05-02T10:29:43.736Z</time></trkpt><trkpt lat="44.6135318" lon="9.8475346"><ele>775.0</ele><time>2026-05-02T10:29:44.735Z</time></trkpt><trkpt lat="44.6134773" lon="9.8474412"><ele>774.9999999999999</ele><time>2026-05-02T10:29:45.735Z</time></trkpt><trkpt lat="44.6134277" lon="9.8473465"><ele>775.0</ele><time>2026-05-02T10:29:46.735Z</time></trkpt><trkpt lat="44.6133768" lon="9.8472491"><ele>776.0</ele><time>2026-05-02T10:29:47.736Z</time></trkpt><trkpt lat="44.6133216" lon="9.8471531"><ele>777.0</ele><time>2026-05-02T10:29:48.735Z</time></trkpt><trkpt lat="44.6132618" lon="9.8470615"><ele>778.0</ele><time>2026-05-02T10:29:49.735Z</time></trkpt><trkpt lat="44.6131984" lon="9.8469666"><ele>779.0</ele><time>2026-05-02T10:29:50.735Z</time></trkpt><trkpt lat="44.6131342" lon="9.8468699"><ele>780.0</ele><time>2026-05-02T10:29:51.735Z</time></trkpt><trkpt lat="44.613069" lon="9.8467786"><ele>780.8</ele><time>2026-05-02T10:29:52.735Z</time></trkpt><trkpt lat="44.6130014" lon="9.846684"><ele>781.6</ele><time>2026-05-02T10:29:53.735Z</time></trkpt><trkpt lat="44.6129327" lon="9.8465886"><ele>782.4000000000001</ele><time>2026-05-02T10:29:54.735Z</time></trkpt><trkpt lat="44.6128581" lon="9.8464967"><ele>783.2</ele><time>2026-05-02T10:29:55.735Z</time></trkpt><trkpt lat="44.6127743" lon="9.846406"><ele>784.0</ele><time>2026-05-02T10:29:56.736Z</time></trkpt><trkpt lat="44.6126848" lon="9.8463233"><ele>784.0</ele><time>2026-05-02T10:29:57.736Z</time></trkpt><trkpt lat="44.6125868" lon="9.8462565"><ele>784.0</ele><time>2026-05-02T10:29:58.735Z</time></trkpt><trkpt lat="44.6124801" lon="9.8462067"><ele>784.0</ele><time>2026-05-02T10:29:59.735Z</time></trkpt><trkpt lat="44.6123659" lon="9.8461682"><ele>784.0</ele><time>2026-05-02T10:30:00.735Z</time></trkpt><trkpt lat="44.6122544" lon="9.8461319"><ele>784.0</ele><time>2026-05-02T10:30:01.735Z</time></trkpt><trkpt lat="44.6121397" lon="9.8460866"><ele>784.0</ele><time>2026-05-02T10:30:02.736Z</time></trkpt><trkpt lat="44.6120361" lon="9.8460153"><ele>784.0</ele><time>2026-05-02T10:30:03.735Z</time></trkpt><trkpt lat="44.6119408" lon="9.8459343"><ele>784.0</ele><time>2026-05-02T10:30:04.735Z</time></trkpt><trkpt lat="44.6118458" lon="9.8458536"><ele>785.2</ele><time>2026-05-02T10:30:05.735Z</time></trkpt><trkpt lat="44.611752" lon="9.8457791"><ele>786.4000000000001</ele><time>2026-05-02T10:30:06.735Z</time></trkpt><trkpt lat="44.6116544" lon="9.8457043"><ele>787.6</ele><time>2026-05-02T10:30:07.735Z</time></trkpt><trkpt lat="44.6115535" lon="9.8456396"><ele>788.8</ele><time>2026-05-02T10:30:08.735Z</time></trkpt><trkpt lat="44.6114532" lon="9.8455889"><ele>790.0</ele><time>2026-05-02T10:30:09.735Z</time></trkpt><trkpt lat="44.6113537" lon="9.8455396"><ele>790.0</ele><time>2026-05-02T10:30:10.736Z</time></trkpt><trkpt lat="44.6112546" lon="9.8455002"><ele>790.0</ele><time>2026-05-02T10:30:11.736Z</time></trkpt><trkpt lat="44.6111585" lon="9.8454495"><ele>790.0</ele><time>2026-05-02T10:30:12.735Z</time></trkpt><trkpt lat="44.6110737" lon="9.8453784"><ele>790.0</ele><time>2026-05-02T10:30:13.735Z</time></trkpt><trkpt lat="44.6110069" lon="9.845279"><ele>790.0</ele><time>2026-05-02T10:30:14.735Z</time></trkpt><trkpt lat="44.610974" lon="9.8451533"><ele>790.8333333333333</ele><time>2026-05-02T10:30:15.736Z</time></trkpt><trkpt lat="44.6109508" lon="9.8450272"><ele>791.6666666666666</ele><time>2026-05-02T10:30:16.735Z</time></trkpt><trkpt lat="44.6109263" lon="9.8449054"><ele>792.5</ele><time>2026-05-02T10:30:17.736Z</time></trkpt><trkpt lat="44.6109047" lon="9.8447894"><ele>793.3333333333333</ele><time>2026-05-02T10:30:18.735Z</time></trkpt><trkpt lat="44.6108786" lon="9.8446829"><ele>794.1666666666666</ele><time>2026-05-02T10:30:19.735Z</time></trkpt><trkpt lat="44.6108437" lon="9.8445939"><ele>795.0</ele><time>2026-05-02T10:30:20.735Z</time></trkpt><trkpt lat="44.6107982" lon="9.8445105"><ele>795.0</ele><time>2026-05-02T10:30:21.735Z</time></trkpt><trkpt lat="44.6107387" lon="9.8444289"><ele>795.0</ele><time>2026-05-02T10:30:22.735Z</time></trkpt><trkpt lat="44.6106726" lon="9.8443477"><ele>795.0</ele><time>2026-05-02T10:30:23.735Z</time></trkpt><trkpt lat="44.6105985" lon="9.8442697"><ele>795.0</ele><time>2026-05-02T10:30:24.735Z</time></trkpt><trkpt lat="44.6105188" lon="9.8441905"><ele>795.0</ele><time>2026-05-02T10:30:25.735Z</time></trkpt><trkpt lat="44.6104322" lon="9.8441174"><ele>796.0</ele><time>2026-05-02T10:30:26.735Z</time></trkpt><trkpt lat="44.6103433" lon="9.8440411"><ele>797.0</ele><time>2026-05-02T10:30:27.735Z</time></trkpt><trkpt lat="44.6102534" lon="9.843974"><ele>798.0</ele><time>2026-05-02T10:30:28.735Z</time></trkpt><trkpt lat="44.6101603" lon="9.8439079"><ele>799.0</ele><time>2026-05-02T10:30:29.735Z</time></trkpt><trkpt lat="44.610063" lon="9.8438576"><ele>800.0</ele><time>2026-05-02T10:30:30.735Z</time></trkpt><trkpt lat="44.6099575" lon="9.8438408"><ele>800.0</ele><time>2026-05-02T10:30:31.736Z</time></trkpt><trkpt lat="44.609848" lon="9.8438624"><ele>800.0</ele><time>2026-05-02T10:30:32.736Z</time></trkpt><trkpt lat="44.6097443" lon="9.8439176"><ele>800.0</ele><time>2026-05-02T10:30:33.735Z</time></trkpt><trkpt lat="44.6096612" lon="9.8439937"><ele>800.0</ele><time>2026-05-02T10:30:34.735Z</time></trkpt><trkpt lat="44.6095865" lon="9.8440783"><ele>800.0</ele><time>2026-05-02T10:30:35.736Z</time></trkpt><trkpt lat="44.6095108" lon="9.8441722"><ele>800.2</ele><time>2026-05-02T10:30:36.735Z</time></trkpt><trkpt lat="44.6094346" lon="9.84427"><ele>800.4</ele><time>2026-05-02T10:30:37.735Z</time></trkpt><trkpt lat="44.6093666" lon="9.8443731"><ele>800.5999999999999</ele><time>2026-05-02T10:30:38.735Z</time></trkpt><trkpt lat="44.6092978" lon="9.8444778"><ele>800.8</ele><time>2026-05-02T10:30:39.735Z</time></trkpt><trkpt lat="44.6092186" lon="9.8445747"><ele>801.0</ele><time>2026-05-02T10:30:40.735Z</time></trkpt><trkpt lat="44.6091366" lon="9.8446607"><ele>801.0</ele><time>2026-05-02T10:30:41.736Z</time></trkpt><trkpt lat="44.6090483" lon="9.8447131"><ele>801.0</ele><time>2026-05-02T10:30:42.735Z</time></trkpt><trkpt lat="44.6089482" lon="9.844714"><ele>801.0</ele><time>2026-05-02T10:30:43.735Z</time></trkpt><trkpt lat="44.608864" lon="9.8446883"><ele>801.0</ele><time>2026-05-02T10:30:44.735Z</time></trkpt><trkpt lat="44.6087907" lon="9.844569"><ele>801.0</ele><time>2026-05-02T10:30:45.735Z</time></trkpt><trkpt lat="44.6087191" lon="9.8444795"><ele>800.8</ele><time>2026-05-02T10:30:46.735Z</time></trkpt><trkpt lat="44.6086397" lon="9.8444145"><ele>800.5999999999999</ele><time>2026-05-02T10:30:47.735Z</time></trkpt><trkpt lat="44.6085398" lon="9.8443758"><ele>800.4</ele><time>2026-05-02T10:30:48.735Z</time></trkpt><trkpt lat="44.6084383" lon="9.8443534"><ele>800.2</ele><time>2026-05-02T10:30:49.735Z</time></trkpt><trkpt lat="44.6083308" lon="9.8443381"><ele>800.0</ele><time>2026-05-02T10:30:50.735Z</time></trkpt><trkpt lat="44.6082286" lon="9.8443029"><ele>802.6</ele><time>2026-05-02T10:30:51.735Z</time></trkpt><trkpt lat="44.6081272" lon="9.8442557"><ele>805.2</ele><time>2026-05-02T10:30:52.735Z</time></trkpt><trkpt lat="44.6080363" lon="9.8441658"><ele>807.8</ele><time>2026-05-02T10:30:53.735Z</time></trkpt><trkpt lat="44.6079499" lon="9.8440609"><ele>810.4</ele><time>2026-05-02T10:30:54.736Z</time></trkpt><trkpt lat="44.6078604" lon="9.8439685"><ele>813.0</ele><time>2026-05-02T10:30:55.735Z</time></trkpt><trkpt lat="44.6077623" lon="9.8438936"><ele>813.0</ele><time>2026-05-02T10:30:56.735Z</time></trkpt><trkpt lat="44.6076565" lon="9.8438318"><ele>813.0</ele><time>2026-05-02T10:30:57.735Z</time></trkpt><trkpt lat="44.6075509" lon="9.8437918"><ele>813.0</ele><time>2026-05-02T10:30:58.735Z</time></trkpt><trkpt lat="44.6074394" lon="9.8437775"><ele>813.0</ele><time>2026-05-02T10:30:59.735Z</time></trkpt><trkpt lat="44.6073306" lon="9.8437832"><ele>813.0</ele><time>2026-05-02T10:31:00.735Z</time></trkpt><trkpt lat="44.607224" lon="9.8438157"><ele>813.0</ele><time>2026-05-02T10:31:01.735Z</time></trkpt><trkpt lat="44.607122" lon="9.8438572"><ele>813.0</ele><time>2026-05-02T10:31:02.735Z</time></trkpt><trkpt lat="44.6070211" lon="9.843911"><ele>813.0</ele><time>2026-05-02T10:31:03.735Z</time></trkpt><trkpt lat="44.6069227" lon="9.8439659"><ele>813.0</ele><time>2026-05-02T10:31:04.736Z</time></trkpt><trkpt lat="44.6068238" lon="9.8440221"><ele>813.0</ele><time>2026-05-02T10:31:05.735Z</time></trkpt><trkpt lat="44.6067272" lon="9.8440714"><ele>815.0</ele><time>2026-05-02T10:31:06.735Z</time></trkpt><trkpt lat="44.6066335" lon="9.844121"><ele>817.0</ele><time>2026-05-02T10:31:07.735Z</time></trkpt><trkpt lat="44.6065334" lon="9.8441524"><ele>819.0</ele><time>2026-05-02T10:31:08.735Z</time></trkpt><trkpt lat="44.6064327" lon="9.8441486"><ele>821.0</ele><time>2026-05-02T10:31:09.735Z</time></trkpt><trkpt lat="44.6063381" lon="9.8441004"><ele>823.0</ele><time>2026-05-02T10:31:10.735Z</time></trkpt><trkpt lat="44.6062562" lon="9.8440226"><ele>823.0</ele><time>2026-05-02T10:31:11.735Z</time></trkpt><trkpt lat="44.6061829" lon="9.843924"><ele>823.0</ele><time>2026-05-02T10:31:12.735Z</time></trkpt><trkpt lat="44.6061056" lon="9.8438319"><ele>823.0</ele><time>2026-05-02T10:31:13.736Z</time></trkpt><trkpt lat="44.606024" lon="9.8437466"><ele>823.0</ele><time>2026-05-02T10:31:14.735Z</time></trkpt><trkpt lat="44.6059314" lon="9.8436835"><ele>823.0</ele><time>2026-05-02T10:31:15.735Z</time></trkpt><trkpt lat="44.6058314" lon="9.843639"><ele>823.2</ele><time>2026-05-02T10:31:16.735Z</time></trkpt><trkpt lat="44.6057263" lon="9.8436287"><ele>823.4</ele><time>2026-05-02T10:31:17.737Z</time></trkpt><trkpt lat="44.6056199" lon="9.8436492"><ele>823.6</ele><time>2026-05-02T10:31:18.735Z</time></trkpt><trkpt lat="44.6055207" lon="9.8437041"><ele>823.8000000000001</ele><time>2026-05-02T10:31:19.736Z</time></trkpt><trkpt lat="44.605434" lon="9.843786"><ele>824.0</ele><time>2026-05-02T10:31:20.735Z</time></trkpt><trkpt lat="44.605359" lon="9.8438863"><ele>825.8000000000001</ele><time>2026-05-02T10:31:21.736Z</time></trkpt><trkpt lat="44.6052891" lon="9.8439806"><ele>827.6</ele><time>2026-05-02T10:31:22.735Z</time></trkpt><trkpt lat="44.6052077" lon="9.8440484"><ele>829.4</ele><time>2026-05-02T10:31:23.735Z</time></trkpt><trkpt lat="44.6051132" lon="9.844049"><ele>831.2</ele><time>2026-05-02T10:31:24.735Z</time></trkpt><trkpt lat="44.6050345" lon="9.8440067"><ele>833.0</ele><time>2026-05-02T10:31:25.735Z</time></trkpt><trkpt lat="44.6049729" lon="9.8439192"><ele>833.0</ele><time>2026-05-02T10:31:26.735Z</time></trkpt><trkpt lat="44.6049247" lon="9.8438129"><ele>833.0</ele><time>2026-05-02T10:31:27.735Z</time></trkpt><trkpt lat="44.6048772" lon="9.8436948"><ele>833.0</ele><time>2026-05-02T10:31:28.735Z</time></trkpt><trkpt lat="44.6048317" lon="9.8435659"><ele>833.0</ele><time>2026-05-02T10:31:29.736Z</time></trkpt><trkpt lat="44.6047921" lon="9.8434437"><ele>833.0</ele><time>2026-05-02T10:31:30.735Z</time></trkpt><trkpt lat="44.6047504" lon="9.8433229"><ele>835.5999999999999</ele><time>2026-05-02T10:31:31.735Z</time></trkpt><trkpt lat="44.6047067" lon="9.8432012"><ele>838.1999999999999</ele><time>2026-05-02T10:31:32.736Z</time></trkpt><trkpt lat="44.604655" lon="9.8430783"><ele>840.8</ele><time>2026-05-02T10:31:33.736Z</time></trkpt><trkpt lat="44.6046083" lon="9.8429586"><ele>843.4</ele><time>2026-05-02T10:31:34.735Z</time></trkpt><trkpt lat="44.6045615" lon="9.8428388"><ele>846.0</ele><time>2026-05-02T10:31:35.735Z</time></trkpt><trkpt lat="44.6045175" lon="9.8427222"><ele>846.4</ele><time>2026-05-02T10:31:36.735Z</time></trkpt><trkpt lat="44.6044733" lon="9.8426052"><ele>846.8</ele><time>2026-05-02T10:31:37.736Z</time></trkpt><trkpt lat="44.604425" lon="9.8424923"><ele>847.1999999999999</ele><time>2026-05-02T10:31:38.735Z</time></trkpt><trkpt lat="44.6043781" lon="9.8423829"><ele>847.5999999999999</ele><time>2026-05-02T10:31:39.735Z</time></trkpt><trkpt lat="44.6043318" lon="9.8422706"><ele>848.0</ele><time>2026-05-02T10:31:40.735Z</time></trkpt><trkpt lat="44.6042867" lon="9.8421539"><ele>848.0000000000001</ele><time>2026-05-02T10:31:41.735Z</time></trkpt><trkpt lat="44.6042424" lon="9.8420406"><ele>848.0</ele><time>2026-05-02T10:31:42.735Z</time></trkpt><trkpt lat="44.6041981" lon="9.8419306"><ele>848.0</ele><time>2026-05-02T10:31:43.735Z</time></trkpt><trkpt lat="44.6041613" lon="9.841819"><ele>848.0</ele><time>2026-05-02T10:31:44.735Z</time></trkpt><trkpt lat="44.6041184" lon="9.8417138"><ele>848.0000000000001</ele><time>2026-05-02T10:31:45.735Z</time></trkpt><trkpt lat="44.6040828" lon="9.8416221"><ele>848.0</ele><time>2026-05-02T10:31:46.735Z</time></trkpt><trkpt lat="44.6040479" lon="9.8415474"><ele>849.8333333333334</ele><time>2026-05-02T10:31:47.735Z</time></trkpt><trkpt lat="44.6039718" lon="9.8414169"><ele>851.6666666666667</ele><time>2026-05-02T10:31:49.735Z</time></trkpt><trkpt lat="44.6038953" lon="9.8413306"><ele>853.5</ele><time>2026-05-02T10:31:51.736Z</time></trkpt><trkpt lat="44.6038367" lon="9.8412936"><ele>855.3333333333333</ele><time>2026-05-02T10:31:53.735Z</time></trkpt><trkpt lat="44.6038042" lon="9.8412122"><ele>857.1666666666666</ele><time>2026-05-02T10:31:57.735Z</time></trkpt><trkpt lat="44.6038618" lon="9.8411354"><ele>859.0</ele><time>2026-05-02T10:32:02.735Z</time></trkpt><trkpt lat="44.6039196" lon="9.8410826"><ele>859.0</ele><time>2026-05-02T10:32:04.735Z</time></trkpt><trkpt lat="44.6040355" lon="9.8410326"><ele>859.0000000000001</ele><time>2026-05-02T10:32:06.736Z</time></trkpt><trkpt lat="44.604111" lon="9.8410047"><ele>859.0000000000001</ele><time>2026-05-02T10:32:07.736Z</time></trkpt><trkpt lat="44.6041947" lon="9.8409819"><ele>859.0</ele><time>2026-05-02T10:32:08.735Z</time></trkpt><trkpt lat="44.6042858" lon="9.8409574"><ele>859.0</ele><time>2026-05-02T10:32:09.735Z</time></trkpt><trkpt lat="44.6043837" lon="9.8409528"><ele>858.9999999999999</ele><time>2026-05-02T10:32:10.735Z</time></trkpt><trkpt lat="44.6044723" lon="9.8409757"><ele>859.0</ele><time>2026-05-02T10:32:11.735Z</time></trkpt><trkpt lat="44.6045552" lon="9.841022"><ele>859.0</ele><time>2026-05-02T10:32:12.735Z</time></trkpt><trkpt lat="44.6046427" lon="9.8410501"><ele>859.0</ele><time>2026-05-02T10:32:13.735Z</time></trkpt><trkpt lat="44.6047356" lon="9.8410485"><ele>858.9999999999999</ele><time>2026-05-02T10:32:14.735Z</time></trkpt><trkpt lat="44.6048146" lon="9.8410441"><ele>859.0</ele><time>2026-05-02T10:32:15.735Z</time></trkpt><trkpt lat="44.6049066" lon="9.841032"><ele>861.0</ele><time>2026-05-02T10:32:16.736Z</time></trkpt><trkpt lat="44.6049967" lon="9.8410639"><ele>863.0000000000001</ele><time>2026-05-02T10:32:17.735Z</time></trkpt><trkpt lat="44.6050865" lon="9.8411212"><ele>865.0000000000001</ele><time>2026-05-02T10:32:18.735Z</time></trkpt><trkpt lat="44.6051798" lon="9.8411478"><ele>867.0</ele><time>2026-05-02T10:32:19.735Z</time></trkpt><trkpt lat="44.6052818" lon="9.8411689"><ele>869.0</ele><time>2026-05-02T10:32:20.735Z</time></trkpt><trkpt lat="44.605365" lon="9.8411971"><ele>870.0</ele><time>2026-05-02T10:32:21.735Z</time></trkpt><trkpt lat="44.6054581" lon="9.8411732"><ele>871.0000000000001</ele><time>2026-05-02T10:32:22.735Z</time></trkpt><trkpt lat="44.6055466" lon="9.8411311"><ele>872.0000000000001</ele><time>2026-05-02T10:32:23.737Z</time></trkpt><trkpt lat="44.6056297" lon="9.8410697"><ele>873.0</ele><time>2026-05-02T10:32:24.735Z</time></trkpt><trkpt lat="44.6057128" lon="9.8410088"><ele>874.0</ele><time>2026-05-02T10:32:25.735Z</time></trkpt><trkpt lat="44.6057972" lon="9.8409365"><ele>875.4000000000001</ele><time>2026-05-02T10:32:26.735Z</time></trkpt><trkpt lat="44.6058817" lon="9.840862"><ele>876.8000000000001</ele><time>2026-05-02T10:32:27.736Z</time></trkpt><trkpt lat="44.6059652" lon="9.8407849"><ele>878.1999999999999</ele><time>2026-05-02T10:32:28.736Z</time></trkpt><trkpt lat="44.6060481" lon="9.8407074"><ele>879.5999999999999</ele><time>2026-05-02T10:32:29.735Z</time></trkpt><trkpt lat="44.6061359" lon="9.840626"><ele>881.0</ele><time>2026-05-02T10:32:30.735Z</time></trkpt><trkpt lat="44.6062223" lon="9.8405399"><ele>881.0</ele><time>2026-05-02T10:32:31.736Z</time></trkpt><trkpt lat="44.6063054" lon="9.840445"><ele>880.9999999999999</ele><time>2026-05-02T10:32:32.735Z</time></trkpt><trkpt lat="44.6063872" lon="9.8403554"><ele>880.9999999999999</ele><time>2026-05-02T10:32:33.735Z</time></trkpt><trkpt lat="44.6064749" lon="9.8402869"><ele>881.0</ele><time>2026-05-02T10:32:34.735Z</time></trkpt><trkpt lat="44.6065534" lon="9.8401999"><ele>881.0</ele><time>2026-05-02T10:32:35.735Z</time></trkpt><trkpt lat="44.6066328" lon="9.8401222"><ele>880.4</ele><time>2026-05-02T10:32:36.735Z</time></trkpt><trkpt lat="44.6067252" lon="9.8400648"><ele>879.8</ele><time>2026-05-02T10:32:37.735Z</time></trkpt><trkpt lat="44.6068236" lon="9.8399866"><ele>879.1999999999999</ele><time>2026-05-02T10:32:38.736Z</time></trkpt><trkpt lat="44.6069164" lon="9.8399093"><ele>878.5999999999999</ele><time>2026-05-02T10:32:39.735Z</time></trkpt><trkpt lat="44.6069909" lon="9.8398091"><ele>878.0</ele><time>2026-05-02T10:32:40.735Z</time></trkpt><trkpt lat="44.6070632" lon="9.8397097"><ele>878.0</ele><time>2026-05-02T10:32:41.735Z</time></trkpt><trkpt lat="44.6071285" lon="9.8396104"><ele>878.0</ele><time>2026-05-02T10:32:42.735Z</time></trkpt><trkpt lat="44.6071987" lon="9.8395297"><ele>878.0</ele><time>2026-05-02T10:32:43.735Z</time></trkpt><trkpt lat="44.6072795" lon="9.8394452"><ele>878.0</ele><time>2026-05-02T10:32:44.735Z</time></trkpt><trkpt lat="44.607351" lon="9.8393418"><ele>878.0</ele><time>2026-05-02T10:32:45.735Z</time></trkpt><trkpt lat="44.6074202" lon="9.8392316"><ele>879.0</ele><time>2026-05-02T10:32:46.735Z</time></trkpt><trkpt lat="44.6074849" lon="9.8391217"><ele>880.0</ele><time>2026-05-02T10:32:47.735Z</time></trkpt><trkpt lat="44.6075527" lon="9.8390098"><ele>881.0</ele><time>2026-05-02T10:32:48.735Z</time></trkpt><trkpt lat="44.6076267" lon="9.8389067"><ele>882.0</ele><time>2026-05-02T10:32:49.736Z</time></trkpt><trkpt lat="44.607702" lon="9.8388105"><ele>883.0</ele><time>2026-05-02T10:32:50.735Z</time></trkpt><trkpt lat="44.6077708" lon="9.8387162"><ele>881.1666666666666</ele><time>2026-05-02T10:32:51.735Z</time></trkpt><trkpt lat="44.607829" lon="9.8386106"><ele>879.3333333333333</ele><time>2026-05-02T10:32:52.735Z</time></trkpt><trkpt lat="44.607883" lon="9.8385331"><ele>877.5</ele><time>2026-05-02T10:32:53.735Z</time></trkpt><trkpt lat="44.6079134" lon="9.8384346"><ele>875.6666666666667</ele><time>2026-05-02T10:32:54.735Z</time></trkpt><trkpt lat="44.6079522" lon="9.8383317"><ele>873.8333333333334</ele><time>2026-05-02T10:32:55.736Z</time></trkpt><trkpt lat="44.6079884" lon="9.8382063"><ele>872.0</ele><time>2026-05-02T10:32:56.735Z</time></trkpt><trkpt lat="44.6080198" lon="9.8380847"><ele>872.0</ele><time>2026-05-02T10:32:57.735Z</time></trkpt><trkpt lat="44.608056" lon="9.8379605"><ele>872.0</ele><time>2026-05-02T10:32:58.735Z</time></trkpt><trkpt lat="44.6080933" lon="9.8378296"><ele>872.0</ele><time>2026-05-02T10:32:59.735Z</time></trkpt><trkpt lat="44.6081357" lon="9.8377018"><ele>872.0</ele><time>2026-05-02T10:33:00.736Z</time></trkpt><trkpt lat="44.6081527" lon="9.8375536"><ele>872.0</ele><time>2026-05-02T10:33:01.735Z</time></trkpt><trkpt lat="44.6081887" lon="9.8374023"><ele>872.0</ele><time>2026-05-02T10:33:02.735Z</time></trkpt><trkpt lat="44.608227" lon="9.8372635"><ele>872.0</ele><time>2026-05-02T10:33:03.735Z</time></trkpt><trkpt lat="44.6082594" lon="9.8371233"><ele>872.0</ele><time>2026-05-02T10:33:04.735Z</time></trkpt><trkpt lat="44.6083053" lon="9.8370039"><ele>872.0</ele><time>2026-05-02T10:33:05.736Z</time></trkpt><trkpt lat="44.6083357" lon="9.8368542"><ele>872.0</ele><time>2026-05-02T10:33:06.735Z</time></trkpt><trkpt lat="44.6083764" lon="9.8367138"><ele>872.0</ele><time>2026-05-02T10:33:07.735Z</time></trkpt><trkpt lat="44.6084071" lon="9.8365573"><ele>872.0</ele><time>2026-05-02T10:33:08.735Z</time></trkpt><trkpt lat="44.6084473" lon="9.8363968"><ele>872.0</ele><time>2026-05-02T10:33:09.736Z</time></trkpt><trkpt lat="44.6084992" lon="9.8362401"><ele>872.0</ele><time>2026-05-02T10:33:10.735Z</time></trkpt><trkpt lat="44.6085462" lon="9.8360759"><ele>873.2</ele><time>2026-05-02T10:33:11.736Z</time></trkpt><trkpt lat="44.6086008" lon="9.8359189"><ele>874.4000000000001</ele><time>2026-05-02T10:33:12.735Z</time></trkpt><trkpt lat="44.6086657" lon="9.8357876"><ele>875.5999999999999</ele><time>2026-05-02T10:33:13.735Z</time></trkpt><trkpt lat="44.6087397" lon="9.8356819"><ele>876.8</ele><time>2026-05-02T10:33:14.735Z</time></trkpt><trkpt lat="44.6088065" lon="9.8355832"><ele>878.0</ele><time>2026-05-02T10:33:15.737Z</time></trkpt><trkpt lat="44.6088908" lon="9.8354987"><ele>875.3333333333334</ele><time>2026-05-02T10:33:16.735Z</time></trkpt><trkpt lat="44.6089641" lon="9.8353982"><ele>872.6666666666667</ele><time>2026-05-02T10:33:17.735Z</time></trkpt><trkpt lat="44.6090237" lon="9.8352783"><ele>870.0</ele><time>2026-05-02T10:33:18.735Z</time></trkpt><trkpt lat="44.609066" lon="9.8351691"><ele>867.3333333333333</ele><time>2026-05-02T10:33:19.735Z</time></trkpt><trkpt lat="44.6090869" lon="9.8350718"><ele>864.6666666666666</ele><time>2026-05-02T10:33:20.735Z</time></trkpt><trkpt lat="44.6091105" lon="9.8349702"><ele>862.0</ele><time>2026-05-02T10:33:21.735Z</time></trkpt><trkpt lat="44.6091113" lon="9.8348503"><ele>861.9999999999999</ele><time>2026-05-02T10:33:22.735Z</time></trkpt><trkpt lat="44.6091066" lon="9.8347285"><ele>862.0</ele><time>2026-05-02T10:33:23.735Z</time></trkpt><trkpt lat="44.6091003" lon="9.8346072"><ele>862.0</ele><time>2026-05-02T10:33:24.735Z</time></trkpt><trkpt lat="44.6090991" lon="9.8344886"><ele>862.0</ele><time>2026-05-02T10:33:25.735Z</time></trkpt><trkpt lat="44.6091112" lon="9.8343769"><ele>861.9999999999999</ele><time>2026-05-02T10:33:26.736Z</time></trkpt><trkpt lat="44.6091356" lon="9.8342676"><ele>862.0</ele><time>2026-05-02T10:33:27.735Z</time></trkpt><trkpt lat="44.6091727" lon="9.8341569"><ele>860.8333333333333</ele><time>2026-05-02T10:33:28.735Z</time></trkpt><trkpt lat="44.6092123" lon="9.8340531"><ele>859.6666666666666</ele><time>2026-05-02T10:33:29.735Z</time></trkpt><trkpt lat="44.609252" lon="9.8339447"><ele>858.5</ele><time>2026-05-02T10:33:30.735Z</time></trkpt><trkpt lat="44.6092978" lon="9.8338448"><ele>857.3333333333333</ele><time>2026-05-02T10:33:31.735Z</time></trkpt><trkpt lat="44.6093338" lon="9.833745"><ele>856.1666666666666</ele><time>2026-05-02T10:33:32.735Z</time></trkpt><trkpt lat="44.6093757" lon="9.8336496"><ele>855.0</ele><time>2026-05-02T10:33:33.735Z</time></trkpt><trkpt lat="44.6094155" lon="9.8335486"><ele>854.5714285714286</ele><time>2026-05-02T10:33:34.735Z</time></trkpt><trkpt lat="44.6094494" lon="9.833466"><ele>854.1428571428571</ele><time>2026-05-02T10:33:35.735Z</time></trkpt><trkpt lat="44.6094844" lon="9.8333686"><ele>853.7142857142857</ele><time>2026-05-02T10:33:36.734Z</time></trkpt><trkpt lat="44.6095211" lon="9.8332788"><ele>853.2857142857142</ele><time>2026-05-02T10:33:37.734Z</time></trkpt><trkpt lat="44.6095697" lon="9.8331942"><ele>852.8571428571429</ele><time>2026-05-02T10:33:38.734Z</time></trkpt><trkpt lat="44.6096155" lon="9.8331286"><ele>852.4285714285713</ele><time>2026-05-02T10:33:39.734Z</time></trkpt><trkpt lat="44.6096643" lon="9.8330716"><ele>852.0</ele><time>2026-05-02T10:33:40.734Z</time></trkpt><trkpt lat="44.6097511" lon="9.8329551"><ele>851.5</ele><time>2026-05-02T10:33:42.734Z</time></trkpt><trkpt lat="44.6097645" lon="9.8328603"><ele>851.0</ele><time>2026-05-02T10:33:43.735Z</time></trkpt><trkpt lat="44.6097956" lon="9.832781"><ele>850.5</ele><time>2026-05-02T10:33:44.734Z</time></trkpt><trkpt lat="44.6098049" lon="9.8326577"><ele>850.0</ele><time>2026-05-02T10:33:46.734Z</time></trkpt><trkpt lat="44.6098488" lon="9.8325481"><ele>849.5</ele><time>2026-05-02T10:33:48.734Z</time></trkpt><trkpt lat="44.6099423" lon="9.8324774"><ele>849.0</ele><time>2026-05-02T10:33:50.732Z</time></trkpt><trkpt lat="44.6099921" lon="9.8323949"><ele>848.0</ele><time>2026-05-02T10:33:51.734Z</time></trkpt><trkpt lat="44.6100176" lon="9.8322934"><ele>847.0</ele><time>2026-05-02T10:33:52.734Z</time></trkpt><trkpt lat="44.6100146" lon="9.8320542"><ele>846.0</ele><time>2026-05-02T10:33:54.734Z</time></trkpt><trkpt lat="44.6100107" lon="9.8319391"><ele>845.0</ele><time>2026-05-02T10:33:55.734Z</time></trkpt><trkpt lat="44.6099969" lon="9.8318269"><ele>844.0</ele><time>2026-05-02T10:33:57.734Z</time></trkpt><trkpt lat="44.6099294" lon="9.8318217"><ele>843.6</ele><time>2026-05-02T10:33:59.734Z</time></trkpt><trkpt lat="44.6098615" lon="9.8316624"><ele>843.2</ele><time>2026-05-02T10:34:02.734Z</time></trkpt><trkpt lat="44.6098358" lon="9.8315812"><ele>842.8000000000001</ele><time>2026-05-02T10:34:03.734Z</time></trkpt><trkpt lat="44.6098087" lon="9.8315009"><ele>842.4000000000001</ele><time>2026-05-02T10:34:04.735Z</time></trkpt><trkpt lat="44.6098032" lon="9.831368"><ele>842.0</ele><time>2026-05-02T10:34:06.734Z</time></trkpt><trkpt lat="44.609786" lon="9.8312291"><ele>842.0</ele><time>2026-05-02T10:34:08.734Z</time></trkpt><trkpt lat="44.6097622" lon="9.8311094"><ele>842.0</ele><time>2026-05-02T10:34:09.734Z</time></trkpt><trkpt lat="44.6097574" lon="9.8309898"><ele>842.0</ele><time>2026-05-02T10:34:10.734Z</time></trkpt><trkpt lat="44.6097503" lon="9.8308128"><ele>842.0</ele><time>2026-05-02T10:34:12.734Z</time></trkpt><trkpt lat="44.609775" lon="9.8306436"><ele>842.0</ele><time>2026-05-02T10:34:14.734Z</time></trkpt><trkpt lat="44.6097167" lon="9.8305107"><ele>842.6666666666667</ele><time>2026-05-02T10:34:16.734Z</time></trkpt><trkpt lat="44.6097064" lon="9.8304208"><ele>843.3333333333334</ele><time>2026-05-02T10:34:17.734Z</time></trkpt><trkpt lat="44.6097109" lon="9.8302862"><ele>844.0</ele><time>2026-05-02T10:34:19.735Z</time></trkpt><trkpt lat="44.6097343" lon="9.8301998"><ele>844.6666666666667</ele><time>2026-05-02T10:34:21.734Z</time></trkpt><trkpt lat="44.6097567" lon="9.8300914"><ele>845.3333333333334</ele><time>2026-05-02T10:34:23.734Z</time></trkpt><trkpt lat="44.6097871" lon="9.8299953"><ele>846.0</ele><time>2026-05-02T10:34:27.734Z</time></trkpt><trkpt lat="44.6097722" lon="9.8298935"><ele>847.5</ele><time>2026-05-02T10:34:34.734Z</time></trkpt><trkpt lat="44.6097619" lon="9.8297872"><ele>849.0</ele><time>2026-05-02T10:34:35.734Z</time></trkpt><trkpt lat="44.6097645" lon="9.8296524"><ele>850.5</ele><time>2026-05-02T10:34:38.734Z</time></trkpt><trkpt lat="44.6097403" lon="9.8295453"><ele>852.0</ele><time>2026-05-02T10:34:40.734Z</time></trkpt><trkpt lat="44.6097242" lon="9.8294316"><ele>853.5</ele><time>2026-05-02T10:34:42.734Z</time></trkpt><trkpt lat="44.6097422" lon="9.8293272"><ele>855.0</ele><time>2026-05-02T10:34:44.735Z</time></trkpt><trkpt lat="44.6097118" lon="9.8292376"><ele>855.4</ele><time>2026-05-02T10:34:46.734Z</time></trkpt><trkpt lat="44.6096356" lon="9.8291904"><ele>855.8</ele><time>2026-05-02T10:34:48.734Z</time></trkpt><trkpt lat="44.6095568" lon="9.829056"><ele>856.2</ele><time>2026-05-02T10:34:50.734Z</time></trkpt><trkpt lat="44.6095073" lon="9.8289326"><ele>856.6</ele><time>2026-05-02T10:34:52.734Z</time></trkpt><trkpt lat="44.6094904" lon="9.8288157"><ele>857.0</ele><time>2026-05-02T10:34:54.734Z</time></trkpt><trkpt lat="44.6095264" lon="9.8286801"><ele>857.0000000000001</ele><time>2026-05-02T10:34:56.734Z</time></trkpt><trkpt lat="44.6095693" lon="9.8285809"><ele>857.0</ele><time>2026-05-02T10:34:58.734Z</time></trkpt><trkpt lat="44.6096124" lon="9.8284889"><ele>857.0</ele><time>2026-05-02T10:35:00.734Z</time></trkpt><trkpt lat="44.609693" lon="9.8284202"><ele>857.0</ele><time>2026-05-02T10:35:03.734Z</time></trkpt><trkpt lat="44.6097653" lon="9.8283432"><ele>857.0000000000001</ele><time>2026-05-02T10:35:06.734Z</time></trkpt><trkpt lat="44.6098185" lon="9.8282619"><ele>857.0</ele><time>2026-05-02T10:35:08.734Z</time></trkpt><trkpt lat="44.6098427" lon="9.8281639"><ele>856.6666666666667</ele><time>2026-05-02T10:35:11.734Z</time></trkpt><trkpt lat="44.6098458" lon="9.8280708"><ele>856.3333333333334</ele><time>2026-05-02T10:35:14.734Z</time></trkpt><trkpt lat="44.6098537" lon="9.8279712"><ele>856.0</ele><time>2026-05-02T10:35:16.734Z</time></trkpt><trkpt lat="44.6098365" lon="9.8278345"><ele>855.6666666666667</ele><time>2026-05-02T10:35:19.734Z</time></trkpt><trkpt lat="44.6098399" lon="9.8277351"><ele>855.3333333333334</ele><time>2026-05-02T10:35:21.735Z</time></trkpt><trkpt lat="44.6098789" lon="9.8276325"><ele>855.0</ele><time>2026-05-02T10:35:23.734Z</time></trkpt><trkpt lat="44.6099386" lon="9.8275512"><ele>853.6666666666666</ele><time>2026-05-02T10:35:25.734Z</time></trkpt><trkpt lat="44.6099831" lon="9.8274534"><ele>852.3333333333333</ele><time>2026-05-02T10:35:27.734Z</time></trkpt><trkpt lat="44.6099821" lon="9.8273411"><ele>851.0</ele><time>2026-05-02T10:35:29.734Z</time></trkpt><trkpt lat="44.6099946" lon="9.8272338"><ele>849.6666666666666</ele><time>2026-05-02T10:35:31.734Z</time></trkpt><trkpt lat="44.6100289" lon="9.8271162"><ele>848.3333333333333</ele><time>2026-05-02T10:35:33.735Z</time></trkpt><trkpt lat="44.6100672" lon="9.8270184"><ele>847.0</ele><time>2026-05-02T10:35:34.734Z</time></trkpt><trkpt lat="44.6101231" lon="9.826884"><ele>846.4999999999999</ele><time>2026-05-02T10:35:36.734Z</time></trkpt><trkpt lat="44.6101616" lon="9.8267545"><ele>846.0</ele><time>2026-05-02T10:35:38.734Z</time></trkpt><trkpt lat="44.6102271" lon="9.8266786"><ele>845.5</ele><time>2026-05-02T10:35:40.734Z</time></trkpt><trkpt lat="44.6103134" lon="9.8266759"><ele>845.0</ele><time>2026-05-02T10:35:42.734Z</time></trkpt><trkpt lat="44.6104017" lon="9.8267354"><ele>844.4999999999999</ele><time>2026-05-02T10:35:44.734Z</time></trkpt><trkpt lat="44.6104659" lon="9.8267584"><ele>844.0</ele><time>2026-05-02T10:35:46.734Z</time></trkpt><trkpt lat="44.6105568" lon="9.8267079"><ele>841.3333333333333</ele><time>2026-05-02T10:35:48.734Z</time></trkpt><trkpt lat="44.6106381" lon="9.8266093"><ele>838.6666666666666</ele><time>2026-05-02T10:35:50.734Z</time></trkpt><trkpt lat="44.6105798" lon="9.8265724"><ele>836.0</ele><time>2026-05-02T10:35:51.734Z</time></trkpt><trkpt lat="44.6105906" lon="9.8264633"><ele>833.3333333333333</ele><time>2026-05-02T10:35:53.734Z</time></trkpt><trkpt lat="44.6106394" lon="9.826403"><ele>830.6666666666666</ele><time>2026-05-02T10:35:56.735Z</time></trkpt><trkpt lat="44.6106846" lon="9.8263214"><ele>828.0</ele><time>2026-05-02T10:36:00.734Z</time></trkpt><trkpt lat="44.6107293" lon="9.8262114"><ele>828.0</ele><time>2026-05-02T10:36:04.734Z</time></trkpt><trkpt lat="44.6107752" lon="9.8261269"><ele>828.0</ele><time>2026-05-02T10:36:24.734Z</time></trkpt><trkpt lat="44.6108223" lon="9.826048"><ele>828.0</ele><time>2026-05-02T10:36:29.734Z</time></trkpt><trkpt lat="44.6108874" lon="9.8259702"><ele>828.0</ele><time>2026-05-02T10:36:33.735Z</time></trkpt><trkpt lat="44.6109364" lon="9.8259021"><ele>828.0</ele><time>2026-05-02T10:36:35.734Z</time></trkpt><trkpt lat="44.6109928" lon="9.8258421"><ele>828.0</ele><time>2026-05-02T10:36:38.734Z</time></trkpt><trkpt lat="44.6110682" lon="9.8257824"><ele>829.5</ele><time>2026-05-02T10:36:42.735Z</time></trkpt><trkpt lat="44.6111157" lon="9.8257091"><ele>831.0</ele><time>2026-05-02T10:36:45.734Z</time></trkpt><trkpt lat="44.6111622" lon="9.8256378"><ele>832.5</ele><time>2026-05-02T10:36:48.734Z</time></trkpt><trkpt lat="44.6112182" lon="9.825582"><ele>834.0</ele><time>2026-05-02T10:36:51.734Z</time></trkpt><trkpt lat="44.6112471" lon="9.8254977"><ele>835.5</ele><time>2026-05-02T10:36:54.734Z</time></trkpt><trkpt lat="44.6113052" lon="9.8254077"><ele>837.0</ele><time>2026-05-02T10:36:57.734Z</time></trkpt><trkpt lat="44.6113664" lon="9.8253009"><ele>832.6</ele><time>2026-05-02T10:40:52.733Z</time></trkpt><trkpt lat="44.6114226" lon="9.8252226"><ele>828.2</ele><time>2026-05-02T10:40:55.734Z</time></trkpt><trkpt lat="44.6114851" lon="9.8251554"><ele>823.8</ele><time>2026-05-02T10:40:57.733Z</time></trkpt><trkpt lat="44.6115479" lon="9.8250775"><ele>819.4</ele><time>2026-05-02T10:40:59.734Z</time></trkpt><trkpt lat="44.6116315" lon="9.824943"><ele>815.0</ele><time>2026-05-02T10:41:01.733Z</time></trkpt><trkpt lat="44.6117101" lon="9.8248227"><ele>815.0</ele><time>2026-05-02T10:41:03.733Z</time></trkpt><trkpt lat="44.6118327" lon="9.8247176"><ele>815.0</ele><time>2026-05-02T10:41:05.733Z</time></trkpt><trkpt lat="44.6118951" lon="9.8246794"><ele>815.0</ele><time>2026-05-02T10:41:06.733Z</time></trkpt><trkpt lat="44.6120125" lon="9.824588"><ele>815.0</ele><time>2026-05-02T10:41:08.733Z</time></trkpt><trkpt lat="44.612082" lon="9.8245"><ele>815.0</ele><time>2026-05-02T10:41:10.733Z</time></trkpt><trkpt lat="44.6121594" lon="9.8244"><ele>811.1428571428571</ele><time>2026-05-02T10:41:12.733Z</time></trkpt><trkpt lat="44.6122053" lon="9.8243289"><ele>807.2857142857142</ele><time>2026-05-02T10:41:13.734Z</time></trkpt><trkpt lat="44.6122518" lon="9.8242447"><ele>803.4285714285714</ele><time>2026-05-02T10:41:15.733Z</time></trkpt><trkpt lat="44.612319" lon="9.8242473"><ele>799.5714285714286</ele><time>2026-05-02T10:41:17.733Z</time></trkpt><trkpt lat="44.612383" lon="9.8243104"><ele>795.7142857142858</ele><time>2026-05-02T10:41:19.733Z</time></trkpt><trkpt lat="44.6124389" lon="9.8243826"><ele>791.8571428571429</ele><time>2026-05-02T10:41:21.734Z</time></trkpt><trkpt lat="44.6124829" lon="9.8244509"><ele>788.0</ele><time>2026-05-02T10:41:23.733Z</time></trkpt><trkpt lat="44.6125249" lon="9.8245276"><ele>787.6666666666667</ele><time>2026-05-02T10:41:26.734Z</time></trkpt><trkpt lat="44.6125727" lon="9.8246135"><ele>787.3333333333334</ele><time>2026-05-02T10:41:29.733Z</time></trkpt><trkpt lat="44.6126181" lon="9.8246796"><ele>787.0</ele><time>2026-05-02T10:41:31.733Z</time></trkpt><trkpt lat="44.6126951" lon="9.8247583"><ele>786.6666666666667</ele><time>2026-05-02T10:41:34.733Z</time></trkpt><trkpt lat="44.6127637" lon="9.8247326"><ele>786.3333333333334</ele><time>2026-05-02T10:41:36.733Z</time></trkpt><trkpt lat="44.612832" lon="9.8246674"><ele>786.0</ele><time>2026-05-02T10:41:38.733Z</time></trkpt><trkpt lat="44.6128532" lon="9.8245269"><ele>786.4</ele><time>2026-05-02T10:41:40.733Z</time></trkpt><trkpt lat="44.6128599" lon="9.8244244"><ele>786.8</ele><time>2026-05-02T10:41:41.733Z</time></trkpt><trkpt lat="44.6128295" lon="9.8242478"><ele>787.1999999999999</ele><time>2026-05-02T10:41:43.733Z</time></trkpt><trkpt lat="44.612777" lon="9.8240949"><ele>787.5999999999999</ele><time>2026-05-02T10:41:45.733Z</time></trkpt><trkpt lat="44.6127399" lon="9.8239932"><ele>788.0</ele><time>2026-05-02T10:41:46.734Z</time></trkpt><trkpt lat="44.6127304" lon="9.8239052"><ele>788.0000000000001</ele><time>2026-05-02T10:41:47.733Z</time></trkpt><trkpt lat="44.6127614" lon="9.8237874"><ele>788.0</ele><time>2026-05-02T10:41:49.734Z</time></trkpt><trkpt lat="44.6127181" lon="9.8236974"><ele>788.0</ele><time>2026-05-02T10:41:52.733Z</time></trkpt><trkpt lat="44.6126502" lon="9.8236889"><ele>788.0</ele><time>2026-05-02T10:41:54.733Z</time></trkpt><trkpt lat="44.6125727" lon="9.8236159"><ele>788.0000000000001</ele><time>2026-05-02T10:41:56.734Z</time></trkpt><trkpt lat="44.6125081" lon="9.8235654"><ele>788.0</ele><time>2026-05-02T10:41:57.733Z</time></trkpt><trkpt lat="44.6124574" lon="9.8234734"><ele>787.5000000000001</ele><time>2026-05-02T10:41:58.733Z</time></trkpt><trkpt lat="44.6124515" lon="9.8233615"><ele>787.0</ele><time>2026-05-02T10:41:59.734Z</time></trkpt><trkpt lat="44.6124447" lon="9.8232615"><ele>786.5</ele><time>2026-05-02T10:42:00.733Z</time></trkpt><trkpt lat="44.6124785" lon="9.8231491"><ele>786.0</ele><time>2026-05-02T10:42:01.733Z</time></trkpt><trkpt lat="44.6125062" lon="9.8230545"><ele>785.5000000000001</ele><time>2026-05-02T10:42:02.734Z</time></trkpt><trkpt lat="44.6125391" lon="9.8229776"><ele>785.0</ele><time>2026-05-02T10:42:03.733Z</time></trkpt><trkpt lat="44.612601" lon="9.8228854"><ele>785.0000000000001</ele><time>2026-05-02T10:42:04.733Z</time></trkpt><trkpt lat="44.6126404" lon="9.8227808"><ele>785.0</ele><time>2026-05-02T10:42:05.734Z</time></trkpt><trkpt lat="44.6126444" lon="9.8226693"><ele>785.0</ele><time>2026-05-02T10:42:06.733Z</time></trkpt><trkpt lat="44.6126462" lon="9.8225572"><ele>785.0</ele><time>2026-05-02T10:42:07.734Z</time></trkpt><trkpt lat="44.6126294" lon="9.8224452"><ele>785.0000000000001</ele><time>2026-05-02T10:42:08.733Z</time></trkpt><trkpt lat="44.6126371" lon="9.8223135"><ele>785.0</ele><time>2026-05-02T10:42:09.733Z</time></trkpt><trkpt lat="44.6126514" lon="9.8221942"><ele>785.4</ele><time>2026-05-02T10:42:10.733Z</time></trkpt><trkpt lat="44.6126683" lon="9.8220653"><ele>785.8</ele><time>2026-05-02T10:42:11.734Z</time></trkpt><trkpt lat="44.6127034" lon="9.8219378"><ele>786.2</ele><time>2026-05-02T10:42:12.733Z</time></trkpt><trkpt lat="44.6127355" lon="9.8218068"><ele>786.6</ele><time>2026-05-02T10:42:13.733Z</time></trkpt><trkpt lat="44.6127939" lon="9.8217203"><ele>787.0</ele><time>2026-05-02T10:42:14.734Z</time></trkpt><trkpt lat="44.6128678" lon="9.8216355"><ele>787.0</ele><time>2026-05-02T10:42:15.734Z</time></trkpt><trkpt lat="44.6129402" lon="9.8215614"><ele>787.0</ele><time>2026-05-02T10:42:16.734Z</time></trkpt><trkpt lat="44.6129765" lon="9.8214288"><ele>787.0</ele><time>2026-05-02T10:42:17.733Z</time></trkpt><trkpt lat="44.612998" lon="9.8213024"><ele>787.0</ele><time>2026-05-02T10:42:18.732Z</time></trkpt><trkpt lat="44.6129979" lon="9.8211793"><ele>787.0</ele><time>2026-05-02T10:42:19.732Z</time></trkpt><trkpt lat="44.6130122" lon="9.8210497"><ele>789.6</ele><time>2026-05-02T10:42:20.732Z</time></trkpt><trkpt lat="44.6130342" lon="9.8209486"><ele>792.2</ele><time>2026-05-02T10:42:21.732Z</time></trkpt><trkpt lat="44.6130531" lon="9.8208252"><ele>794.8</ele><time>2026-05-02T10:42:22.732Z</time></trkpt><trkpt lat="44.6130528" lon="9.8206832"><ele>797.4</ele><time>2026-05-02T10:42:23.732Z</time></trkpt><trkpt lat="44.6130707" lon="9.8205237"><ele>800.0</ele><time>2026-05-02T10:42:24.733Z</time></trkpt><trkpt lat="44.6130753" lon="9.820376"><ele>800.0</ele><time>2026-05-02T10:42:25.733Z</time></trkpt><trkpt lat="44.613109" lon="9.8202068"><ele>800.0</ele><time>2026-05-02T10:42:26.732Z</time></trkpt><trkpt lat="44.6131239" lon="9.8200903"><ele>800.0</ele><time>2026-05-02T10:42:27.732Z</time></trkpt><trkpt lat="44.6131288" lon="9.819968"><ele>800.0</ele><time>2026-05-02T10:42:28.732Z</time></trkpt><trkpt lat="44.6131047" lon="9.8198409"><ele>800.0</ele><time>2026-05-02T10:42:29.732Z</time></trkpt><trkpt lat="44.6130507" lon="9.8197544"><ele>802.25</ele><time>2026-05-02T10:42:30.732Z</time></trkpt><trkpt lat="44.6129663" lon="9.8196173"><ele>804.5</ele><time>2026-05-02T10:42:32.732Z</time></trkpt><trkpt lat="44.6128967" lon="9.8196757"><ele>806.75</ele><time>2026-05-02T10:42:33.732Z</time></trkpt><trkpt lat="44.6127597" lon="9.8196822"><ele>809.0</ele><time>2026-05-02T10:42:35.732Z</time></trkpt><trkpt lat="44.6127307" lon="9.8195169"><ele>815.8000000000001</ele><time>2026-05-02T10:42:37.732Z</time></trkpt><trkpt lat="44.6127113" lon="9.8193958"><ele>822.6</ele><time>2026-05-02T10:42:38.732Z</time></trkpt><trkpt lat="44.6126649" lon="9.8192899"><ele>829.4</ele><time>2026-05-02T10:42:39.732Z</time></trkpt><trkpt lat="44.6126341" lon="9.8191412"><ele>836.2</ele><time>2026-05-02T10:42:40.732Z</time></trkpt><trkpt lat="44.612601" lon="9.8190017"><ele>843.0</ele><time>2026-05-02T10:42:41.732Z</time></trkpt><trkpt lat="44.6125585" lon="9.8188689"><ele>844.0</ele><time>2026-05-02T10:42:42.732Z</time></trkpt><trkpt lat="44.612472" lon="9.8187084"><ele>845.0</ele><time>2026-05-02T10:42:43.732Z</time></trkpt><trkpt lat="44.6124833" lon="9.8185685"><ele>846.0</ele><time>2026-05-02T10:42:44.732Z</time></trkpt><trkpt lat="44.6124336" lon="9.8184103"><ele>847.0</ele><time>2026-05-02T10:42:45.732Z</time></trkpt><trkpt lat="44.6123588" lon="9.8183014"><ele>847.2</ele><time>2026-05-02T10:42:46.732Z</time></trkpt><trkpt lat="44.612246" lon="9.8182775"><ele>847.4000000000001</ele><time>2026-05-02T10:42:47.732Z</time></trkpt><trkpt lat="44.612186" lon="9.8181792"><ele>847.5999999999999</ele><time>2026-05-02T10:42:48.732Z</time></trkpt><trkpt lat="44.61215" lon="9.8180729"><ele>847.8</ele><time>2026-05-02T10:42:49.733Z</time></trkpt><trkpt lat="44.6121245" lon="9.8179429"><ele>848.0</ele><time>2026-05-02T10:42:50.733Z</time></trkpt><trkpt lat="44.6121125" lon="9.8177997"><ele>848.8</ele><time>2026-05-02T10:42:51.733Z</time></trkpt><trkpt lat="44.6121104" lon="9.8176503"><ele>849.5999999999999</ele><time>2026-05-02T10:42:52.732Z</time></trkpt><trkpt lat="44.6121243" lon="9.8175065"><ele>850.4000000000001</ele><time>2026-05-02T10:42:53.732Z</time></trkpt><trkpt lat="44.6121437" lon="9.8173621"><ele>851.2</ele><time>2026-05-02T10:42:54.732Z</time></trkpt><trkpt lat="44.6121292" lon="9.8172189"><ele>852.0</ele><time>2026-05-02T10:42:55.732Z</time></trkpt><trkpt lat="44.6121467" lon="9.8170744"><ele>852.0</ele><time>2026-05-02T10:42:56.732Z</time></trkpt><trkpt lat="44.6121641" lon="9.816931"><ele>852.0</ele><time>2026-05-02T10:42:57.732Z</time></trkpt><trkpt lat="44.6121294" lon="9.8168104"><ele>852.0</ele><time>2026-05-02T10:42:58.732Z</time></trkpt><trkpt lat="44.6120839" lon="9.8167074"><ele>852.0</ele><time>2026-05-02T10:42:59.732Z</time></trkpt><trkpt lat="44.6120264" lon="9.8166414"><ele>852.0</ele><time>2026-05-02T10:43:00.732Z</time></trkpt><trkpt lat="44.6119998" lon="9.8165509"><ele>852.0</ele><time>2026-05-02T10:43:01.732Z</time></trkpt><trkpt lat="44.6119528" lon="9.8164594"><ele>859.0</ele><time>2026-05-02T10:43:02.732Z</time></trkpt><trkpt lat="44.6119207" lon="9.816321"><ele>866.0</ele><time>2026-05-02T10:43:03.733Z</time></trkpt><trkpt lat="44.6119239" lon="9.8161941"><ele>873.0</ele><time>2026-05-02T10:43:04.732Z</time></trkpt><trkpt lat="44.6118893" lon="9.8160611"><ele>880.0</ele><time>2026-05-02T10:43:05.732Z</time></trkpt><trkpt lat="44.611855" lon="9.815912"><ele>887.0</ele><time>2026-05-02T10:43:06.732Z</time></trkpt><trkpt lat="44.6118353" lon="9.8157719"><ele>887.8333333333334</ele><time>2026-05-02T10:43:07.733Z</time></trkpt><trkpt lat="44.6118502" lon="9.815654"><ele>888.6666666666667</ele><time>2026-05-02T10:43:08.732Z</time></trkpt><trkpt lat="44.6118538" lon="9.8155265"><ele>889.5</ele><time>2026-05-02T10:43:09.732Z</time></trkpt><trkpt lat="44.6118615" lon="9.8154165"><ele>890.3333333333333</ele><time>2026-05-02T10:43:10.732Z</time></trkpt><trkpt lat="44.6118614" lon="9.815297"><ele>891.1666666666666</ele><time>2026-05-02T10:43:11.732Z</time></trkpt><trkpt lat="44.6118434" lon="9.8151848"><ele>892.0</ele><time>2026-05-02T10:43:12.732Z</time></trkpt><trkpt lat="44.6118219" lon="9.8150846"><ele>893.0</ele><time>2026-05-02T10:43:13.732Z</time></trkpt><trkpt lat="44.611794" lon="9.814978"><ele>894.0</ele><time>2026-05-02T10:43:14.732Z</time></trkpt><trkpt lat="44.6117076" lon="9.8148762"><ele>895.0</ele><time>2026-05-02T10:43:15.732Z</time></trkpt><trkpt lat="44.6116522" lon="9.8147597"><ele>896.0</ele><time>2026-05-02T10:43:16.732Z</time></trkpt><trkpt lat="44.61162" lon="9.8146402"><ele>897.0</ele><time>2026-05-02T10:43:17.732Z</time></trkpt><trkpt lat="44.6115738" lon="9.8145298"><ele>897.0</ele><time>2026-05-02T10:43:18.732Z</time></trkpt><trkpt lat="44.6115331" lon="9.8143974"><ele>897.0</ele><time>2026-05-02T10:43:19.732Z</time></trkpt><trkpt lat="44.6114883" lon="9.8142787"><ele>897.0</ele><time>2026-05-02T10:43:20.733Z</time></trkpt><trkpt lat="44.6114213" lon="9.814153"><ele>897.0</ele><time>2026-05-02T10:43:21.732Z</time></trkpt><trkpt lat="44.6113611" lon="9.8140391"><ele>897.0</ele><time>2026-05-02T10:43:22.733Z</time></trkpt><trkpt lat="44.6112971" lon="9.8139394"><ele>896.0</ele><time>2026-05-02T10:43:23.732Z</time></trkpt><trkpt lat="44.6112297" lon="9.8138389"><ele>895.0</ele><time>2026-05-02T10:43:24.732Z</time></trkpt><trkpt lat="44.6111719" lon="9.8137092"><ele>894.0</ele><time>2026-05-02T10:43:25.732Z</time></trkpt><trkpt lat="44.6110911" lon="9.8135788"><ele>893.0</ele><time>2026-05-02T10:43:26.732Z</time></trkpt><trkpt lat="44.611023" lon="9.8134638"><ele>892.0</ele><time>2026-05-02T10:43:27.733Z</time></trkpt><trkpt lat="44.6109507" lon="9.8133479"><ele>896.8</ele><time>2026-05-02T10:43:28.732Z</time></trkpt><trkpt lat="44.610961" lon="9.8132155"><ele>901.6</ele><time>2026-05-02T10:43:29.732Z</time></trkpt><trkpt lat="44.6109576" lon="9.8130999"><ele>906.3999999999999</ele><time>2026-05-02T10:43:30.732Z</time></trkpt><trkpt lat="44.6109694" lon="9.8129602"><ele>911.1999999999999</ele><time>2026-05-02T10:43:31.732Z</time></trkpt><trkpt lat="44.6109812" lon="9.8128344"><ele>916.0</ele><time>2026-05-02T10:43:32.732Z</time></trkpt><trkpt lat="44.6109648" lon="9.8127004"><ele>915.1999999999999</ele><time>2026-05-02T10:43:33.732Z</time></trkpt><trkpt lat="44.6109463" lon="9.8126002"><ele>914.3999999999999</ele><time>2026-05-02T10:43:34.732Z</time></trkpt><trkpt lat="44.6109388" lon="9.8124843"><ele>913.6</ele><time>2026-05-02T10:43:35.732Z</time></trkpt><trkpt lat="44.6109159" lon="9.8123163"><ele>912.8</ele><time>2026-05-02T10:43:36.732Z</time></trkpt><trkpt lat="44.6109491" lon="9.8121661"><ele>912.0</ele><time>2026-05-02T10:43:37.732Z</time></trkpt><trkpt lat="44.6109261" lon="9.811998"><ele>912.0</ele><time>2026-05-02T10:43:38.732Z</time></trkpt><trkpt lat="44.6109242" lon="9.811854"><ele>912.0</ele><time>2026-05-02T10:43:39.733Z</time></trkpt><trkpt lat="44.6109065" lon="9.811705"><ele>912.0</ele><time>2026-05-02T10:43:40.732Z</time></trkpt><trkpt lat="44.6108973" lon="9.811577"><ele>912.0</ele><time>2026-05-02T10:43:41.733Z</time></trkpt><trkpt lat="44.6108973" lon="9.8114542"><ele>912.0</ele><time>2026-05-02T10:43:42.732Z</time></trkpt><trkpt lat="44.6108717" lon="9.8113598"><ele>912.5</ele><time>2026-05-02T10:43:43.732Z</time></trkpt><trkpt lat="44.6108413" lon="9.8112272"><ele>913.0</ele><time>2026-05-02T10:43:44.732Z</time></trkpt><trkpt lat="44.610846" lon="9.8111169"><ele>913.5</ele><time>2026-05-02T10:43:45.732Z</time></trkpt><trkpt lat="44.6108244" lon="9.8110046"><ele>914.0</ele><time>2026-05-02T10:43:46.732Z</time></trkpt><trkpt lat="44.6108001" lon="9.8108836"><ele>914.5</ele><time>2026-05-02T10:43:47.732Z</time></trkpt><trkpt lat="44.6108183" lon="9.810761"><ele>915.0</ele><time>2026-05-02T10:43:48.733Z</time></trkpt><trkpt lat="44.6108157" lon="9.8106407"><ele>916.2</ele><time>2026-05-02T10:43:49.732Z</time></trkpt><trkpt lat="44.6108292" lon="9.8105141"><ele>917.4</ele><time>2026-05-02T10:43:50.732Z</time></trkpt><trkpt lat="44.6108411" lon="9.8103763"><ele>918.5999999999999</ele><time>2026-05-02T10:43:51.732Z</time></trkpt><trkpt lat="44.6108687" lon="9.8102624"><ele>919.8</ele><time>2026-05-02T10:43:52.733Z</time></trkpt><trkpt lat="44.610894" lon="9.8101416"><ele>921.0</ele><time>2026-05-02T10:43:53.732Z</time></trkpt><trkpt lat="44.6109358" lon="9.8100299"><ele>922.4</ele><time>2026-05-02T10:43:54.732Z</time></trkpt><trkpt lat="44.6109622" lon="9.809882"><ele>923.8</ele><time>2026-05-02T10:43:55.732Z</time></trkpt><trkpt lat="44.6109245" lon="9.8097841"><ele>925.1999999999999</ele><time>2026-05-02T10:43:56.732Z</time></trkpt><trkpt lat="44.610886" lon="9.8096487"><ele>926.5999999999999</ele><time>2026-05-02T10:43:57.732Z</time></trkpt><trkpt lat="44.6107842" lon="9.8095968"><ele>928.0</ele><time>2026-05-02T10:43:58.732Z</time></trkpt><trkpt lat="44.6107148" lon="9.8095293"><ele>928.0</ele><time>2026-05-02T10:43:59.732Z</time></trkpt><trkpt lat="44.6106603" lon="9.8093863"><ele>928.0</ele><time>2026-05-02T10:44:00.732Z</time></trkpt><trkpt lat="44.6106551" lon="9.8092515"><ele>928.0</ele><time>2026-05-02T10:44:01.733Z</time></trkpt><trkpt lat="44.6106165" lon="9.8091181"><ele>928.0</ele><time>2026-05-02T10:44:02.732Z</time></trkpt><trkpt lat="44.6106104" lon="9.8089843"><ele>928.0</ele><time>2026-05-02T10:44:03.732Z</time></trkpt><trkpt lat="44.6106083" lon="9.8088445"><ele>928.5999999999999</ele><time>2026-05-02T10:44:04.732Z</time></trkpt><trkpt lat="44.6106206" lon="9.808712"><ele>929.1999999999999</ele><time>2026-05-02T10:44:05.733Z</time></trkpt><trkpt lat="44.6105811" lon="9.8085818"><ele>929.8</ele><time>2026-05-02T10:44:06.732Z</time></trkpt><trkpt lat="44.6105618" lon="9.8084522"><ele>930.4</ele><time>2026-05-02T10:44:07.733Z</time></trkpt><trkpt lat="44.6105314" lon="9.808328"><ele>931.0</ele><time>2026-05-02T10:44:08.732Z</time></trkpt><trkpt lat="44.6105202" lon="9.8081969"><ele>931.4999999999999</ele><time>2026-05-02T10:44:09.732Z</time></trkpt><trkpt lat="44.6104892" lon="9.8080824"><ele>932.0</ele><time>2026-05-02T10:44:10.732Z</time></trkpt><trkpt lat="44.6104536" lon="9.8079559"><ele>932.5</ele><time>2026-05-02T10:44:11.732Z</time></trkpt><trkpt lat="44.6104395" lon="9.8078544"><ele>933.0</ele><time>2026-05-02T10:44:12.733Z</time></trkpt><trkpt lat="44.6104464" lon="9.8077248"><ele>933.4999999999999</ele><time>2026-05-02T10:44:13.732Z</time></trkpt><trkpt lat="44.6104398" lon="9.8076121"><ele>934.0</ele><time>2026-05-02T10:44:14.732Z</time></trkpt><trkpt lat="44.6104195" lon="9.8075054"><ele>935.2</ele><time>2026-05-02T10:44:15.732Z</time></trkpt><trkpt lat="44.6103923" lon="9.8074094"><ele>936.4000000000001</ele><time>2026-05-02T10:44:16.732Z</time></trkpt><trkpt lat="44.6103211" lon="9.8073134"><ele>937.6</ele><time>2026-05-02T10:44:18.732Z</time></trkpt><trkpt lat="44.6102051" lon="9.8072394"><ele>938.8</ele><time>2026-05-02T10:44:20.732Z</time></trkpt><trkpt lat="44.6101425" lon="9.8071418"><ele>940.0</ele><time>2026-05-02T10:44:21.733Z</time></trkpt><trkpt lat="44.6100847" lon="9.8070053"><ele>945.0</ele><time>2026-05-02T10:44:22.732Z</time></trkpt><trkpt lat="44.6100486" lon="9.8069209"><ele>950.0</ele><time>2026-05-02T10:44:23.732Z</time></trkpt><trkpt lat="44.6099445" lon="9.8068308"><ele>955.0</ele><time>2026-05-02T10:44:25.732Z</time></trkpt><trkpt lat="44.6098425" lon="9.8068547"><ele>960.0</ele><time>2026-05-02T10:44:27.732Z</time></trkpt><trkpt lat="44.6097974" lon="9.8069593"><ele>965.0</ele><time>2026-05-02T10:44:28.732Z</time></trkpt><trkpt lat="44.6097587" lon="9.8070438"><ele>965.0000000000001</ele><time>2026-05-02T10:44:29.732Z</time></trkpt><trkpt lat="44.6097148" lon="9.8071207"><ele>965.0</ele><time>2026-05-02T10:44:30.733Z</time></trkpt><trkpt lat="44.6096516" lon="9.8072048"><ele>965.0</ele><time>2026-05-02T10:44:31.732Z</time></trkpt><trkpt lat="44.6096018" lon="9.8073029"><ele>965.0</ele><time>2026-05-02T10:44:32.732Z</time></trkpt><trkpt lat="44.6095454" lon="9.8073781"><ele>965.0000000000001</ele><time>2026-05-02T10:44:33.732Z</time></trkpt><trkpt lat="44.609465" lon="9.8073915"><ele>965.0</ele><time>2026-05-02T10:44:34.732Z</time></trkpt><trkpt lat="44.6093529" lon="9.8074163"><ele>968.4</ele><time>2026-05-02T10:44:36.732Z</time></trkpt><trkpt lat="44.609276" lon="9.8072671"><ele>971.8</ele><time>2026-05-02T10:44:37.732Z</time></trkpt><trkpt lat="44.609199" lon="9.8072127"><ele>975.2</ele><time>2026-05-02T10:44:38.732Z</time></trkpt><trkpt lat="44.6091429" lon="9.8071475"><ele>978.6</ele><time>2026-05-02T10:44:39.732Z</time></trkpt><trkpt lat="44.6090787" lon="9.8071291"><ele>982.0</ele><time>2026-05-02T10:44:40.733Z</time></trkpt><trkpt lat="44.6089672" lon="9.807118"><ele>981.9999999999999</ele><time>2026-05-02T10:44:42.732Z</time></trkpt><trkpt lat="44.6089015" lon="9.8071474"><ele>982.0</ele><time>2026-05-02T10:44:43.732Z</time></trkpt><trkpt lat="44.6088437" lon="9.8071978"><ele>982.0</ele><time>2026-05-02T10:44:44.732Z</time></trkpt><trkpt lat="44.6087728" lon="9.8072446"><ele>982.0</ele><time>2026-05-02T10:44:45.732Z</time></trkpt><trkpt lat="44.6087128" lon="9.8072973"><ele>981.9999999999999</ele><time>2026-05-02T10:44:46.734Z</time></trkpt><trkpt lat="44.6086383" lon="9.8073728"><ele>982.0</ele><time>2026-05-02T10:44:47.733Z</time></trkpt><trkpt lat="44.6085618" lon="9.8074792"><ele>984.3333333333333</ele><time>2026-05-02T10:44:48.732Z</time></trkpt><trkpt lat="44.608509" lon="9.8075814"><ele>986.6666666666666</ele><time>2026-05-02T10:44:49.732Z</time></trkpt><trkpt lat="44.60847" lon="9.8076877"><ele>989.0</ele><time>2026-05-02T10:44:50.732Z</time></trkpt><trkpt lat="44.6083971" lon="9.8077715"><ele>991.3333333333333</ele><time>2026-05-02T10:44:51.733Z</time></trkpt><trkpt lat="44.6083104" lon="9.8078642"><ele>993.6666666666666</ele><time>2026-05-02T10:44:53.732Z</time></trkpt><trkpt lat="44.6082431" lon="9.8078945"><ele>996.0</ele><time>2026-05-02T10:44:54.732Z</time></trkpt><trkpt lat="44.6081693" lon="9.8079183"><ele>996.0</ele><time>2026-05-02T10:44:55.732Z</time></trkpt><trkpt lat="44.6081068" lon="9.8079748"><ele>996.0</ele><time>2026-05-02T10:44:56.732Z</time></trkpt><trkpt lat="44.6080425" lon="9.8080681"><ele>996.0</ele><time>2026-05-02T10:44:57.732Z</time></trkpt><trkpt lat="44.607974" lon="9.8082721"><ele>996.0</ele><time>2026-05-02T10:44:59.732Z</time></trkpt><trkpt lat="44.607901" lon="9.8084439"><ele>996.1666666666666</ele><time>2026-05-02T10:45:01.732Z</time></trkpt><trkpt lat="44.6078753" lon="9.8085563"><ele>996.3333333333333</ele><time>2026-05-02T10:45:02.732Z</time></trkpt><trkpt lat="44.6078322" lon="9.8086726"><ele>996.5</ele><time>2026-05-02T10:45:03.733Z</time></trkpt><trkpt lat="44.607804" lon="9.8087618"><ele>996.6666666666666</ele><time>2026-05-02T10:45:04.732Z</time></trkpt><trkpt lat="44.6077637" lon="9.8088917"><ele>996.8333333333333</ele><time>2026-05-02T10:45:05.732Z</time></trkpt><trkpt lat="44.6077516" lon="9.8090037"><ele>997.0</ele><time>2026-05-02T10:45:06.733Z</time></trkpt><trkpt lat="44.6077062" lon="9.8091143"><ele>1001.3333333333333</ele><time>2026-05-02T10:45:07.732Z</time></trkpt><trkpt lat="44.6076858" lon="9.8092373"><ele>1005.6666666666666</ele><time>2026-05-02T10:45:08.732Z</time></trkpt><trkpt lat="44.6076397" lon="9.8093404"><ele>1010.0</ele><time>2026-05-02T10:45:09.732Z</time></trkpt><trkpt lat="44.6076128" lon="9.8094409"><ele>1014.3333333333333</ele><time>2026-05-02T10:45:10.732Z</time></trkpt><trkpt lat="44.6075919" lon="9.8095375"><ele>1018.6666666666666</ele><time>2026-05-02T10:45:11.732Z</time></trkpt><trkpt lat="44.6075905" lon="9.809653"><ele>1023.0</ele><time>2026-05-02T10:45:12.733Z</time></trkpt><trkpt lat="44.6075852" lon="9.8097924"><ele>1023.1666666666666</ele><time>2026-05-02T10:45:13.732Z</time></trkpt><trkpt lat="44.6075696" lon="9.8098987"><ele>1023.3333333333333</ele><time>2026-05-02T10:45:14.732Z</time></trkpt><trkpt lat="44.6075523" lon="9.8100272"><ele>1023.5</ele><time>2026-05-02T10:45:15.732Z</time></trkpt><trkpt lat="44.6075505" lon="9.8101346"><ele>1023.6666666666666</ele><time>2026-05-02T10:45:16.732Z</time></trkpt><trkpt lat="44.6075651" lon="9.8102302"><ele>1023.8333333333333</ele><time>2026-05-02T10:45:17.733Z</time></trkpt><trkpt lat="44.6075594" lon="9.8103343"><ele>1024.0</ele><time>2026-05-02T10:45:18.733Z</time></trkpt><trkpt lat="44.607547" lon="9.8104489"><ele>1025.2</ele><time>2026-05-02T10:45:19.732Z</time></trkpt><trkpt lat="44.6074924" lon="9.8105699"><ele>1026.4</ele><time>2026-05-02T10:45:20.733Z</time></trkpt><trkpt lat="44.6074525" lon="9.8106952"><ele>1027.6</ele><time>2026-05-02T10:45:21.732Z</time></trkpt><trkpt lat="44.6073381" lon="9.8107023"><ele>1028.8</ele><time>2026-05-02T10:45:22.732Z</time></trkpt><trkpt lat="44.6072766" lon="9.8107831"><ele>1030.0</ele><time>2026-05-02T10:45:23.733Z</time></trkpt><trkpt lat="44.6072156" lon="9.8108331"><ele>1030.0</ele><time>2026-05-02T10:45:24.732Z</time></trkpt><trkpt lat="44.6071608" lon="9.8109299"><ele>1030.0</ele><time>2026-05-02T10:45:25.733Z</time></trkpt><trkpt lat="44.6071162" lon="9.8110052"><ele>1030.0</ele><time>2026-05-02T10:45:26.732Z</time></trkpt><trkpt lat="44.6070614" lon="9.8110963"><ele>1030.0</ele><time>2026-05-02T10:45:27.733Z</time></trkpt><trkpt lat="44.6070432" lon="9.8112226"><ele>1030.0</ele><time>2026-05-02T10:45:28.732Z</time></trkpt><trkpt lat="44.6070219" lon="9.811348"><ele>1030.0</ele><time>2026-05-02T10:45:29.732Z</time></trkpt><trkpt lat="44.607045" lon="9.811461"><ele>1031.0</ele><time>2026-05-02T10:45:30.732Z</time></trkpt><trkpt lat="44.6070217" lon="9.8115801"><ele>1032.0</ele><time>2026-05-02T10:45:31.732Z</time></trkpt><trkpt lat="44.6070065" lon="9.8116938"><ele>1033.0</ele><time>2026-05-02T10:45:32.732Z</time></trkpt><trkpt lat="44.6070138" lon="9.8118106"><ele>1034.0</ele><time>2026-05-02T10:45:33.732Z</time></trkpt><trkpt lat="44.6069929" lon="9.8119396"><ele>1035.0</ele><time>2026-05-02T10:45:34.732Z</time></trkpt><trkpt lat="44.6069341" lon="9.81206"><ele>1038.6</ele><time>2026-05-02T10:45:35.732Z</time></trkpt><trkpt lat="44.6068966" lon="9.8121725"><ele>1042.2</ele><time>2026-05-02T10:45:36.732Z</time></trkpt><trkpt lat="44.6068136" lon="9.812254"><ele>1045.8</ele><time>2026-05-02T10:45:37.732Z</time></trkpt><trkpt lat="44.6067311" lon="9.8123829"><ele>1049.4</ele><time>2026-05-02T10:45:39.732Z</time></trkpt><trkpt lat="44.6066788" lon="9.8124437"><ele>1053.0</ele><time>2026-05-02T10:45:40.732Z</time></trkpt><trkpt lat="44.6066208" lon="9.8125201"><ele>1053.0</ele><time>2026-05-02T10:45:41.732Z</time></trkpt><trkpt lat="44.6065923" lon="9.8126345"><ele>1053.0</ele><time>2026-05-02T10:45:42.732Z</time></trkpt><trkpt lat="44.6065533" lon="9.8127084"><ele>1053.0</ele><time>2026-05-02T10:45:43.732Z</time></trkpt><trkpt lat="44.6065355" lon="9.8128208"><ele>1053.0</ele><time>2026-05-02T10:45:44.734Z</time></trkpt><trkpt lat="44.6065049" lon="9.8129347"><ele>1053.0</ele><time>2026-05-02T10:45:45.733Z</time></trkpt><trkpt lat="44.6065256" lon="9.8130568"><ele>1053.0</ele><time>2026-05-02T10:45:46.732Z</time></trkpt><trkpt lat="44.6065428" lon="9.8131555"><ele>1053.0</ele><time>2026-05-02T10:45:47.732Z</time></trkpt><trkpt lat="44.6065433" lon="9.8132749"><ele>1053.0</ele><time>2026-05-02T10:45:48.732Z</time></trkpt><trkpt lat="44.6065552" lon="9.8134157"><ele>1053.0</ele><time>2026-05-02T10:45:49.733Z</time></trkpt><trkpt lat="44.6065359" lon="9.8135655"><ele>1053.0</ele><time>2026-05-02T10:45:50.733Z</time></trkpt><trkpt lat="44.6065283" lon="9.8137214"><ele>1053.0</ele><time>2026-05-02T10:45:51.732Z</time></trkpt><trkpt lat="44.6065122" lon="9.8138702"><ele>1053.0</ele><time>2026-05-02T10:45:52.732Z</time></trkpt><trkpt lat="44.606496" lon="9.8140065"><ele>1053.0</ele><time>2026-05-02T10:45:53.732Z</time></trkpt><trkpt lat="44.6064834" lon="9.814144"><ele>1053.0</ele><time>2026-05-02T10:45:54.732Z</time></trkpt><trkpt lat="44.6064436" lon="9.8142688"><ele>1053.0</ele><time>2026-05-02T10:45:55.732Z</time></trkpt><trkpt lat="44.6063525" lon="9.8143777"><ele>1053.0</ele><time>2026-05-02T10:45:56.732Z</time></trkpt><trkpt lat="44.6062712" lon="9.8144866"><ele>1052.1666666666667</ele><time>2026-05-02T10:45:57.733Z</time></trkpt><trkpt lat="44.6062113" lon="9.8145659"><ele>1051.3333333333333</ele><time>2026-05-02T10:45:58.732Z</time></trkpt><trkpt lat="44.6061476" lon="9.8146578"><ele>1050.5</ele><time>2026-05-02T10:45:59.732Z</time></trkpt><trkpt lat="44.6061059" lon="9.814739"><ele>1049.6666666666665</ele><time>2026-05-02T10:46:00.732Z</time></trkpt><trkpt lat="44.6060702" lon="9.8148418"><ele>1048.8333333333333</ele><time>2026-05-02T10:46:01.733Z</time></trkpt><trkpt lat="44.606008" lon="9.8149267"><ele>1048.0</ele><time>2026-05-02T10:46:02.733Z</time></trkpt><trkpt lat="44.6059269" lon="9.8149917"><ele>1053.8</ele><time>2026-05-02T10:46:03.733Z</time></trkpt><trkpt lat="44.605836" lon="9.8150658"><ele>1059.6</ele><time>2026-05-02T10:46:04.732Z</time></trkpt><trkpt lat="44.6057258" lon="9.8151722"><ele>1065.4</ele><time>2026-05-02T10:46:05.732Z</time></trkpt><trkpt lat="44.605689" lon="9.8152667"><ele>1071.2</ele><time>2026-05-02T10:46:06.732Z</time></trkpt><trkpt lat="44.6056392" lon="9.815367"><ele>1077.0</ele><time>2026-05-02T10:46:07.732Z</time></trkpt><trkpt lat="44.6055793" lon="9.8154723"><ele>1077.0</ele><time>2026-05-02T10:46:08.732Z</time></trkpt><trkpt lat="44.6055216" lon="9.8155839"><ele>1077.0</ele><time>2026-05-02T10:46:09.732Z</time></trkpt><trkpt lat="44.6055377" lon="9.8157035"><ele>1077.0</ele><time>2026-05-02T10:46:10.733Z</time></trkpt><trkpt lat="44.6055146" lon="9.8158211"><ele>1077.0</ele><time>2026-05-02T10:46:11.732Z</time></trkpt><trkpt lat="44.6054646" lon="9.8159686"><ele>1077.0</ele><time>2026-05-02T10:46:12.732Z</time></trkpt><trkpt lat="44.6053792" lon="9.8160765"><ele>1082.4</ele><time>2026-05-02T10:46:13.732Z</time></trkpt><trkpt lat="44.6053235" lon="9.8162122"><ele>1087.8000000000002</ele><time>2026-05-02T10:46:14.732Z</time></trkpt><trkpt lat="44.6052845" lon="9.8163341"><ele>1093.2</ele><time>2026-05-02T10:46:15.732Z</time></trkpt><trkpt lat="44.6052479" lon="9.8164455"><ele>1098.6000000000001</ele><time>2026-05-02T10:46:16.732Z</time></trkpt><trkpt lat="44.6051835" lon="9.8165613"><ele>1104.0</ele><time>2026-05-02T10:46:17.733Z</time></trkpt><trkpt lat="44.605114" lon="9.8166471"><ele>1104.0</ele><time>2026-05-02T10:46:18.732Z</time></trkpt><trkpt lat="44.6050599" lon="9.8167375"><ele>1104.0</ele><time>2026-05-02T10:46:19.732Z</time></trkpt><trkpt lat="44.6050196" lon="9.816643"><ele>1104.0</ele><time>2026-05-02T10:46:20.732Z</time></trkpt><trkpt lat="44.6050226" lon="9.8164942"><ele>1104.0</ele><time>2026-05-02T10:46:23.732Z</time></trkpt><trkpt lat="44.6050396" lon="9.8163476"><ele>1104.0</ele><time>2026-05-02T10:46:25.732Z</time></trkpt><trkpt lat="44.6049541" lon="9.8163274"><ele>1104.0</ele><time>2026-05-02T10:46:27.732Z</time></trkpt><trkpt lat="44.6048773" lon="9.8163891"><ele>1104.0</ele><time>2026-05-02T10:46:29.732Z</time></trkpt><trkpt lat="44.6048184" lon="9.8164302"><ele>1104.0</ele><time>2026-05-02T10:46:30.732Z</time></trkpt><trkpt lat="44.6047495" lon="9.8165062"><ele>1104.0</ele><time>2026-05-02T10:46:31.732Z</time></trkpt><trkpt lat="44.6046894" lon="9.8165827"><ele>1104.0</ele><time>2026-05-02T10:46:32.732Z</time></trkpt><trkpt lat="44.6045957" lon="9.8166999"><ele>1104.0</ele><time>2026-05-02T10:46:33.732Z</time></trkpt><trkpt lat="44.6045306" lon="9.8168363"><ele>1108.2</ele><time>2026-05-02T10:46:34.732Z</time></trkpt><trkpt lat="44.6044699" lon="9.816962"><ele>1112.4</ele><time>2026-05-02T10:46:35.732Z</time></trkpt><trkpt lat="44.6043943" lon="9.8170567"><ele>1116.6</ele><time>2026-05-02T10:46:36.734Z</time></trkpt><trkpt lat="44.6043285" lon="9.8171844"><ele>1120.8</ele><time>2026-05-02T10:46:37.732Z</time></trkpt><trkpt lat="44.6042552" lon="9.8172662"><ele>1125.0</ele><time>2026-05-02T10:46:38.732Z</time></trkpt><trkpt lat="44.6041563" lon="9.8173653"><ele>1125.0</ele><time>2026-05-02T10:46:39.732Z</time></trkpt><trkpt lat="44.6040618" lon="9.8174869"><ele>1125.0</ele><time>2026-05-02T10:46:40.732Z</time></trkpt><trkpt lat="44.6039726" lon="9.8176048"><ele>1125.0</ele><time>2026-05-02T10:46:41.732Z</time></trkpt><trkpt lat="44.6038972" lon="9.8177168"><ele>1125.0</ele><time>2026-05-02T10:46:42.732Z</time></trkpt><trkpt lat="44.6038371" lon="9.8178556"><ele>1122.75</ele><time>2026-05-02T10:46:43.732Z</time></trkpt><trkpt lat="44.6037403" lon="9.8179886"><ele>1120.5</ele><time>2026-05-02T10:46:44.732Z</time></trkpt><trkpt lat="44.6036348" lon="9.8181442"><ele>1118.25</ele><time>2026-05-02T10:46:45.732Z</time></trkpt><trkpt lat="44.6035916" lon="9.8182455"><ele>1116.0</ele><time>2026-05-02T10:46:46.732Z</time></trkpt><trkpt lat="44.6035088" lon="9.8183308"><ele>1121.0</ele><time>2026-05-02T10:46:47.732Z</time></trkpt><trkpt lat="44.6034338" lon="9.8184269"><ele>1126.0</ele><time>2026-05-02T10:46:48.732Z</time></trkpt><trkpt lat="44.6033318" lon="9.8185338"><ele>1131.0</ele><time>2026-05-02T10:46:49.732Z</time></trkpt><trkpt lat="44.6032418" lon="9.8186534"><ele>1136.0</ele><time>2026-05-02T10:46:50.732Z</time></trkpt><trkpt lat="44.6031794" lon="9.8187819"><ele>1136.0</ele><time>2026-05-02T10:46:51.733Z</time></trkpt><trkpt lat="44.6031016" lon="9.8189437"><ele>1136.0</ele><time>2026-05-02T10:46:52.732Z</time></trkpt><trkpt lat="44.6030337" lon="9.8190708"><ele>1136.0</ele><time>2026-05-02T10:46:53.732Z</time></trkpt><trkpt lat="44.6029235" lon="9.8191562"><ele>1136.0</ele><time>2026-05-02T10:46:54.732Z</time></trkpt><trkpt lat="44.6028521" lon="9.8192563"><ele>1139.2</ele><time>2026-05-02T10:46:55.732Z</time></trkpt><trkpt lat="44.6027868" lon="9.8193666"><ele>1142.3999999999999</ele><time>2026-05-02T10:46:56.732Z</time></trkpt><trkpt lat="44.6027356" lon="9.8194571"><ele>1145.6</ele><time>2026-05-02T10:46:57.732Z</time></trkpt><trkpt lat="44.6026806" lon="9.81955"><ele>1148.8</ele><time>2026-05-02T10:46:58.732Z</time></trkpt><trkpt lat="44.6026434" lon="9.819646"><ele>1152.0</ele><time>2026-05-02T10:46:59.733Z</time></trkpt><trkpt lat="44.6025957" lon="9.8197908"><ele>1152.0</ele><time>2026-05-02T10:47:01.732Z</time></trkpt><trkpt lat="44.6025094" lon="9.8198358"><ele>1152.0</ele><time>2026-05-02T10:47:04.733Z</time></trkpt><trkpt lat="44.6024446" lon="9.819785"><ele>1152.0</ele><time>2026-05-02T10:47:05.733Z</time></trkpt><trkpt lat="44.6023903" lon="9.819738"><ele>1152.0</ele><time>2026-05-02T10:47:06.732Z</time></trkpt><trkpt lat="44.6023314" lon="9.8196548"><ele>1152.0</ele><time>2026-05-02T10:47:07.732Z</time></trkpt><trkpt lat="44.6022796" lon="9.8195297"><ele>1152.0</ele><time>2026-05-02T10:47:08.732Z</time></trkpt><trkpt lat="44.6022001" lon="9.8193943"><ele>1151.6666666666667</ele><time>2026-05-02T10:47:09.732Z</time></trkpt><trkpt lat="44.6021284" lon="9.8192943"><ele>1151.3333333333333</ele><time>2026-05-02T10:47:10.732Z</time></trkpt><trkpt lat="44.6020718" lon="9.8191931"><ele>1151.0</ele><time>2026-05-02T10:47:11.732Z</time></trkpt><trkpt lat="44.6020421" lon="9.8190942"><ele>1150.6666666666665</ele><time>2026-05-02T10:47:12.732Z</time></trkpt><trkpt lat="44.6019957" lon="9.8190233"><ele>1150.3333333333333</ele><time>2026-05-02T10:47:13.732Z</time></trkpt><trkpt lat="44.6019188" lon="9.8189699"><ele>1150.0</ele><time>2026-05-02T10:47:15.733Z</time></trkpt><trkpt lat="44.6018607" lon="9.8189301"><ele>1152.5</ele><time>2026-05-02T10:47:16.732Z</time></trkpt><trkpt lat="44.6017492" lon="9.8188579"><ele>1155.0</ele><time>2026-05-02T10:47:18.732Z</time></trkpt><trkpt lat="44.6016759" lon="9.8188317"><ele>1157.5</ele><time>2026-05-02T10:47:19.732Z</time></trkpt><trkpt lat="44.6016031" lon="9.8188019"><ele>1160.0</ele><time>2026-05-02T10:47:20.732Z</time></trkpt><trkpt lat="44.6015315" lon="9.8188317"><ele>1162.5</ele><time>2026-05-02T10:47:21.732Z</time></trkpt><trkpt lat="44.6014652" lon="9.8188427"><ele>1165.0</ele><time>2026-05-02T10:47:22.732Z</time></trkpt><trkpt lat="44.6013867" lon="9.8188594"><ele>1165.0</ele><time>2026-05-02T10:47:23.732Z</time></trkpt><trkpt lat="44.6013098" lon="9.8189069"><ele>1165.0</ele><time>2026-05-02T10:47:24.732Z</time></trkpt><trkpt lat="44.6012424" lon="9.8189475"><ele>1165.0</ele><time>2026-05-02T10:47:25.732Z</time></trkpt><trkpt lat="44.6011505" lon="9.81901"><ele>1165.0</ele><time>2026-05-02T10:47:26.732Z</time></trkpt><trkpt lat="44.6010838" lon="9.8190807"><ele>1165.0</ele><time>2026-05-02T10:47:27.733Z</time></trkpt><trkpt lat="44.6010282" lon="9.8191569"><ele>1165.0</ele><time>2026-05-02T10:47:28.732Z</time></trkpt><trkpt lat="44.6009276" lon="9.8191983"><ele>1167.2</ele><time>2026-05-02T10:47:30.733Z</time></trkpt><trkpt lat="44.6008286" lon="9.8192063"><ele>1169.4</ele><time>2026-05-02T10:47:32.732Z</time></trkpt><trkpt lat="44.6007828" lon="9.8190575"><ele>1171.6</ele><time>2026-05-02T10:47:34.732Z</time></trkpt><trkpt lat="44.6007479" lon="9.8189803"><ele>1173.8</ele><time>2026-05-02T10:47:35.732Z</time></trkpt><trkpt lat="44.6007245" lon="9.8188346"><ele>1176.0</ele><time>2026-05-02T10:47:37.732Z</time></trkpt><trkpt lat="44.6006746" lon="9.8186999"><ele>1176.0</ele><time>2026-05-02T10:47:39.732Z</time></trkpt><trkpt lat="44.6006635" lon="9.8186104"><ele>1176.0</ele><time>2026-05-02T10:47:40.732Z</time></trkpt><trkpt lat="44.6006866" lon="9.8184465"><ele>1176.0</ele><time>2026-05-02T10:47:42.732Z</time></trkpt><trkpt lat="44.6007159" lon="9.8183602"><ele>1176.0</ele><time>2026-05-02T10:47:43.733Z</time></trkpt><trkpt lat="44.6007492" lon="9.8182545"><ele>1176.0</ele><time>2026-05-02T10:47:44.732Z</time></trkpt><trkpt lat="44.6007795" lon="9.8181514"><ele>1176.0</ele><time>2026-05-02T10:47:45.732Z</time></trkpt><trkpt lat="44.6008082" lon="9.8180448"><ele>1175.0</ele><time>2026-05-02T10:47:46.732Z</time></trkpt><trkpt lat="44.6008316" lon="9.817952"><ele>1174.0</ele><time>2026-05-02T10:47:47.732Z</time></trkpt><trkpt lat="44.6008575" lon="9.8178523"><ele>1173.0</ele><time>2026-05-02T10:47:48.732Z</time></trkpt><trkpt lat="44.600883" lon="9.8177565"><ele>1172.0</ele><time>2026-05-02T10:47:49.732Z</time></trkpt><trkpt lat="44.6009106" lon="9.8176396"><ele>1171.0</ele><time>2026-05-02T10:47:50.732Z</time></trkpt><trkpt lat="44.6009339" lon="9.8175394"><ele>1170.0</ele><time>2026-05-02T10:47:51.732Z</time></trkpt><trkpt lat="44.600915" lon="9.8174101"><ele>1168.8333333333333</ele><time>2026-05-02T10:47:53.733Z</time></trkpt><trkpt lat="44.600848" lon="9.8174097"><ele>1167.6666666666667</ele><time>2026-05-02T10:47:54.732Z</time></trkpt><trkpt lat="44.600772" lon="9.8174276"><ele>1166.5</ele><time>2026-05-02T10:47:55.732Z</time></trkpt><trkpt lat="44.6007019" lon="9.8174668"><ele>1165.3333333333335</ele><time>2026-05-02T10:47:56.732Z</time></trkpt><trkpt lat="44.6006042" lon="9.8175483"><ele>1164.1666666666667</ele><time>2026-05-02T10:47:57.732Z</time></trkpt><trkpt lat="44.600521" lon="9.8175966"><ele>1163.0</ele><time>2026-05-02T10:47:58.733Z</time></trkpt><trkpt lat="44.6004576" lon="9.81762"><ele>1163.0</ele><time>2026-05-02T10:47:59.732Z</time></trkpt><trkpt lat="44.6003538" lon="9.817562"><ele>1163.0</ele><time>2026-05-02T10:48:01.732Z</time></trkpt><trkpt lat="44.6003128" lon="9.8174045"><ele>1163.0</ele><time>2026-05-02T10:48:03.732Z</time></trkpt><trkpt lat="44.6003013" lon="9.8173046"><ele>1163.0</ele><time>2026-05-02T10:48:04.733Z</time></trkpt><trkpt lat="44.6002939" lon="9.817205"><ele>1163.0</ele><time>2026-05-02T10:48:05.732Z</time></trkpt><trkpt lat="44.6002965" lon="9.8171055"><ele>1163.0</ele><time>2026-05-02T10:48:06.732Z</time></trkpt><trkpt lat="44.6003021" lon="9.8170021"><ele>1162.3333333333335</ele><time>2026-05-02T10:48:07.733Z</time></trkpt><trkpt lat="44.6003031" lon="9.8168998"><ele>1161.6666666666667</ele><time>2026-05-02T10:48:08.732Z</time></trkpt><trkpt lat="44.6003386" lon="9.8167951"><ele>1161.0</ele><time>2026-05-02T10:48:09.732Z</time></trkpt><trkpt lat="44.600396" lon="9.8167005"><ele>1160.3333333333333</ele><time>2026-05-02T10:48:10.732Z</time></trkpt><trkpt lat="44.6004429" lon="9.8166089"><ele>1159.6666666666665</ele><time>2026-05-02T10:48:11.732Z</time></trkpt><trkpt lat="44.6004917" lon="9.8165235"><ele>1159.0</ele><time>2026-05-02T10:48:12.732Z</time></trkpt><trkpt lat="44.6005257" lon="9.816428"><ele>1158.7142857142858</ele><time>2026-05-02T10:48:13.733Z</time></trkpt><trkpt lat="44.6005324" lon="9.8163278"><ele>1158.4285714285716</ele><time>2026-05-02T10:48:14.733Z</time></trkpt><trkpt lat="44.6005426" lon="9.8162198"><ele>1158.142857142857</ele><time>2026-05-02T10:48:15.732Z</time></trkpt><trkpt lat="44.6004722" lon="9.8161635"><ele>1157.857142857143</ele><time>2026-05-02T10:48:16.732Z</time></trkpt><trkpt lat="44.6004273" lon="9.816098"><ele>1157.5714285714284</ele><time>2026-05-02T10:48:17.732Z</time></trkpt><trkpt lat="44.6003587" lon="9.8160673"><ele>1157.2857142857142</ele><time>2026-05-02T10:48:18.732Z</time></trkpt><trkpt lat="44.6002957" lon="9.8160432"><ele>1157.0</ele><time>2026-05-02T10:48:19.733Z</time></trkpt><trkpt lat="44.6002237" lon="9.8160324"><ele>1153.8</ele><time>2026-05-02T10:48:20.732Z</time></trkpt><trkpt lat="44.6001385" lon="9.8159752"><ele>1150.6</ele><time>2026-05-02T10:48:22.733Z</time></trkpt><trkpt lat="44.6001224" lon="9.8158044"><ele>1147.3999999999999</ele><time>2026-05-02T10:48:24.732Z</time></trkpt><trkpt lat="44.6001601" lon="9.815636"><ele>1144.2</ele><time>2026-05-02T10:48:26.732Z</time></trkpt><trkpt lat="44.6001799" lon="9.8155321"><ele>1141.0</ele><time>2026-05-02T10:48:27.732Z</time></trkpt><trkpt lat="44.6001577" lon="9.8154493"><ele>1141.0</ele><time>2026-05-02T10:48:28.732Z</time></trkpt><trkpt lat="44.6001419" lon="9.8153299"><ele>1141.0</ele><time>2026-05-02T10:48:30.731Z</time></trkpt><trkpt lat="44.6000739" lon="9.8152224"><ele>1141.0</ele><time>2026-05-02T10:48:32.731Z</time></trkpt><trkpt lat="44.6000248" lon="9.8151451"><ele>1141.0</ele><time>2026-05-02T10:48:33.731Z</time></trkpt><trkpt lat="44.599965" lon="9.8150857"><ele>1141.0</ele><time>2026-05-02T10:48:34.731Z</time></trkpt><trkpt lat="44.5998909" lon="9.8150471"><ele>1141.0</ele><time>2026-05-02T10:48:35.732Z</time></trkpt><trkpt lat="44.5997432" lon="9.8150383"><ele>1138.6666666666665</ele><time>2026-05-02T10:48:37.731Z</time></trkpt><trkpt lat="44.5996337" lon="9.8150558"><ele>1136.3333333333333</ele><time>2026-05-02T10:48:39.731Z</time></trkpt><trkpt lat="44.599564" lon="9.8150558"><ele>1134.0</ele><time>2026-05-02T10:48:40.731Z</time></trkpt><trkpt lat="44.5994851" lon="9.8151033"><ele>1131.6666666666667</ele><time>2026-05-02T10:48:41.731Z</time></trkpt><trkpt lat="44.5994075" lon="9.8151512"><ele>1129.3333333333335</ele><time>2026-05-02T10:48:42.731Z</time></trkpt><trkpt lat="44.5993452" lon="9.8152346"><ele>1127.0</ele><time>2026-05-02T10:48:43.731Z</time></trkpt><trkpt lat="44.5992795" lon="9.8152978"><ele>1127.0</ele><time>2026-05-02T10:48:44.732Z</time></trkpt><trkpt lat="44.5992152" lon="9.8153385"><ele>1127.0</ele><time>2026-05-02T10:48:45.731Z</time></trkpt><trkpt lat="44.5991429" lon="9.81535"><ele>1127.0</ele><time>2026-05-02T10:48:46.731Z</time></trkpt><trkpt lat="44.5990711" lon="9.8153512"><ele>1127.0</ele><time>2026-05-02T10:48:47.731Z</time></trkpt><trkpt lat="44.5990033" lon="9.8153522"><ele>1127.0</ele><time>2026-05-02T10:48:48.731Z</time></trkpt><trkpt lat="44.5989195" lon="9.815329"><ele>1127.0</ele><time>2026-05-02T10:48:50.732Z</time></trkpt><trkpt lat="44.5988421" lon="9.8152905"><ele>1127.0</ele><time>2026-05-02T10:48:52.731Z</time></trkpt><trkpt lat="44.5987687" lon="9.8152086"><ele>1127.0</ele><time>2026-05-02T10:48:54.732Z</time></trkpt><trkpt lat="44.5987705" lon="9.8150729"><ele>1127.0</ele><time>2026-05-02T10:48:56.732Z</time></trkpt><trkpt lat="44.5987688" lon="9.8149536"><ele>1127.0</ele><time>2026-05-02T10:48:58.731Z</time></trkpt><trkpt lat="44.5987464" lon="9.8148539"><ele>1127.0</ele><time>2026-05-02T10:49:00.731Z</time></trkpt><trkpt lat="44.5987013" lon="9.8147523"><ele>1127.0</ele><time>2026-05-02T10:49:02.731Z</time></trkpt><trkpt lat="44.598654" lon="9.8146387"><ele>1124.6666666666667</ele><time>2026-05-02T10:49:04.732Z</time></trkpt><trkpt lat="44.5986388" lon="9.8145354"><ele>1122.3333333333335</ele><time>2026-05-02T10:49:07.732Z</time></trkpt><trkpt lat="44.598674" lon="9.8144404"><ele>1120.0</ele><time>2026-05-02T10:49:11.731Z</time></trkpt><trkpt lat="44.598594" lon="9.8145217"><ele>1117.6666666666667</ele><time>2026-05-02T11:06:36.727Z</time></trkpt><trkpt lat="44.5985276" lon="9.8145908"><ele>1115.3333333333333</ele><time>2026-05-02T11:06:38.728Z</time></trkpt><trkpt lat="44.5984404" lon="9.814659"><ele>1113.0</ele><time>2026-05-02T11:06:40.727Z</time></trkpt><trkpt lat="44.5983382" lon="9.8147331"><ele>1111.6666666666667</ele><time>2026-05-02T11:06:42.727Z</time></trkpt><trkpt lat="44.5982825" lon="9.8147764"><ele>1110.3333333333333</ele><time>2026-05-02T11:06:43.727Z</time></trkpt><trkpt lat="44.5981752" lon="9.8148629"><ele>1109.0</ele><time>2026-05-02T11:06:45.727Z</time></trkpt><trkpt lat="44.5981217" lon="9.8149117"><ele>1107.6666666666665</ele><time>2026-05-02T11:06:46.727Z</time></trkpt><trkpt lat="44.5980667" lon="9.8149586"><ele>1106.3333333333333</ele><time>2026-05-02T11:06:47.728Z</time></trkpt><trkpt lat="44.5980137" lon="9.8150121"><ele>1105.0</ele><time>2026-05-02T11:06:48.727Z</time></trkpt><trkpt lat="44.5978982" lon="9.8150908"><ele>1102.0</ele><time>2026-05-02T11:06:50.727Z</time></trkpt><trkpt lat="44.5977874" lon="9.8151747"><ele>1099.0</ele><time>2026-05-02T11:06:52.727Z</time></trkpt><trkpt lat="44.5977369" lon="9.8152275"><ele>1096.0</ele><time>2026-05-02T11:06:53.728Z</time></trkpt><trkpt lat="44.5976395" lon="9.8153025"><ele>1093.0</ele><time>2026-05-02T11:06:55.728Z</time></trkpt><trkpt lat="44.5975586" lon="9.8153926"><ele>1090.0</ele><time>2026-05-02T11:06:57.728Z</time></trkpt><trkpt lat="44.597554" lon="9.815509"><ele>1090.0</ele><time>2026-05-02T11:06:59.727Z</time></trkpt><trkpt lat="44.5975622" lon="9.8156349"><ele>1090.0</ele><time>2026-05-02T11:07:01.727Z</time></trkpt><trkpt lat="44.597585" lon="9.8157799"><ele>1090.0</ele><time>2026-05-02T11:07:03.727Z</time></trkpt><trkpt lat="44.5976069" lon="9.8159064"><ele>1090.0</ele><time>2026-05-02T11:07:05.728Z</time></trkpt><trkpt lat="44.5976022" lon="9.8160102"><ele>1090.0</ele><time>2026-05-02T11:07:07.728Z</time></trkpt><trkpt lat="44.5975965" lon="9.816119"><ele>1090.0</ele><time>2026-05-02T11:07:09.727Z</time></trkpt><trkpt lat="44.5975967" lon="9.8162155"><ele>1093.0</ele><time>2026-05-02T11:07:10.727Z</time></trkpt><trkpt lat="44.5975628" lon="9.816312"><ele>1096.0</ele><time>2026-05-02T11:07:11.727Z</time></trkpt><trkpt lat="44.5974882" lon="9.8164336"><ele>1099.0</ele><time>2026-05-02T11:07:13.727Z</time></trkpt><trkpt lat="44.5973879" lon="9.8165028"><ele>1102.0</ele><time>2026-05-02T11:07:15.728Z</time></trkpt><trkpt lat="44.5972771" lon="9.8165984"><ele>1105.0</ele><time>2026-05-02T11:07:17.728Z</time></trkpt><trkpt lat="44.5972091" lon="9.8167413"><ele>1104.8333333333333</ele><time>2026-05-02T11:07:19.728Z</time></trkpt><trkpt lat="44.5971817" lon="9.8168326"><ele>1104.6666666666665</ele><time>2026-05-02T11:07:20.729Z</time></trkpt><trkpt lat="44.5971447" lon="9.816922"><ele>1104.5</ele><time>2026-05-02T11:07:21.728Z</time></trkpt><trkpt lat="44.5970925" lon="9.8169884"><ele>1104.3333333333333</ele><time>2026-05-02T11:07:22.727Z</time></trkpt><trkpt lat="44.5970022" lon="9.8170645"><ele>1104.1666666666667</ele><time>2026-05-02T11:07:24.727Z</time></trkpt><trkpt lat="44.5968911" lon="9.8170966"><ele>1104.0</ele><time>2026-05-02T11:07:26.727Z</time></trkpt><trkpt lat="44.5968085" lon="9.8171516"><ele>1104.0</ele><time>2026-05-02T11:07:28.728Z</time></trkpt><trkpt lat="44.5967406" lon="9.8172703"><ele>1104.0</ele><time>2026-05-02T11:07:30.728Z</time></trkpt><trkpt lat="44.5966598" lon="9.817354"><ele>1104.0</ele><time>2026-05-02T11:07:32.727Z</time></trkpt><trkpt lat="44.5965419" lon="9.817383"><ele>1104.0</ele><time>2026-05-02T11:07:34.729Z</time></trkpt><trkpt lat="44.5964858" lon="9.8175075"><ele>1104.0</ele><time>2026-05-02T11:07:36.727Z</time></trkpt><trkpt lat="44.5964604" lon="9.817664"><ele>1104.5</ele><time>2026-05-02T11:07:38.727Z</time></trkpt><trkpt lat="44.5965025" lon="9.8178046"><ele>1105.0</ele><time>2026-05-02T11:07:40.728Z</time></trkpt><trkpt lat="44.5965641" lon="9.8179524"><ele>1105.5</ele><time>2026-05-02T11:07:42.727Z</time></trkpt><trkpt lat="44.5965956" lon="9.8180385"><ele>1106.0</ele><time>2026-05-02T11:07:43.727Z</time></trkpt><trkpt lat="44.5966194" lon="9.8181295"><ele>1106.5</ele><time>2026-05-02T11:07:44.727Z</time></trkpt><trkpt lat="44.5966391" lon="9.8182234"><ele>1107.0</ele><time>2026-05-02T11:07:45.728Z</time></trkpt><trkpt lat="44.596656" lon="9.8183181"><ele>1107.0</ele><time>2026-05-02T11:07:46.727Z</time></trkpt><trkpt lat="44.5966762" lon="9.8184172"><ele>1107.0</ele><time>2026-05-02T11:07:47.727Z</time></trkpt><trkpt lat="44.5966995" lon="9.8185074"><ele>1107.0</ele><time>2026-05-02T11:07:48.728Z</time></trkpt><trkpt lat="44.596725" lon="9.8186454"><ele>1107.0</ele><time>2026-05-02T11:07:50.727Z</time></trkpt><trkpt lat="44.5966921" lon="9.8187609"><ele>1107.0</ele><time>2026-05-02T11:07:52.727Z</time></trkpt><trkpt lat="44.5966715" lon="9.8188687"><ele>1107.0</ele><time>2026-05-02T11:07:54.727Z</time></trkpt><trkpt lat="44.5966161" lon="9.8189989"><ele>1110.0</ele><time>2026-05-02T11:07:57.727Z</time></trkpt><trkpt lat="44.5965417" lon="9.8191036"><ele>1113.0</ele><time>2026-05-02T11:07:59.728Z</time></trkpt><trkpt lat="44.5964284" lon="9.819157"><ele>1116.0</ele><time>2026-05-02T11:08:01.727Z</time></trkpt><trkpt lat="44.5963027" lon="9.8191928"><ele>1119.0</ele><time>2026-05-02T11:08:03.728Z</time></trkpt><trkpt lat="44.5962207" lon="9.8193055"><ele>1116.5</ele><time>2026-05-02T11:08:05.727Z</time></trkpt><trkpt lat="44.5961639" lon="9.8193523"><ele>1114.0</ele><time>2026-05-02T11:08:06.727Z</time></trkpt><trkpt lat="44.5961848" lon="9.8195943"><ele>1111.5</ele><time>2026-05-02T11:08:08.728Z</time></trkpt><trkpt lat="44.5961777" lon="9.819699"><ele>1109.0</ele><time>2026-05-02T11:08:09.727Z</time></trkpt><trkpt lat="44.5961694" lon="9.8197926"><ele>1106.5</ele><time>2026-05-02T11:08:10.727Z</time></trkpt><trkpt lat="44.5961696" lon="9.819888"><ele>1104.0</ele><time>2026-05-02T11:08:11.729Z</time></trkpt><trkpt lat="44.5961967" lon="9.8200479"><ele>1108.5</ele><time>2026-05-02T11:08:13.728Z</time></trkpt><trkpt lat="44.5962016" lon="9.8201547"><ele>1113.0</ele><time>2026-05-02T11:08:15.727Z</time></trkpt><trkpt lat="44.5961519" lon="9.8202178"><ele>1117.5</ele><time>2026-05-02T11:08:17.727Z</time></trkpt><trkpt lat="44.596106" lon="9.8202865"><ele>1122.0</ele><time>2026-05-02T11:08:19.727Z</time></trkpt><trkpt lat="44.5960475" lon="9.8203364"><ele>1126.5</ele><time>2026-05-02T11:08:39.727Z</time></trkpt><trkpt lat="44.5959676" lon="9.8204154"><ele>1131.0</ele><time>2026-05-02T11:08:42.728Z</time></trkpt><trkpt lat="44.595889" lon="9.820482"><ele>1131.0</ele><time>2026-05-02T11:08:44.727Z</time></trkpt><trkpt lat="44.5957914" lon="9.8205042"><ele>1131.0</ele><time>2026-05-02T11:08:45.727Z</time></trkpt><trkpt lat="44.5957226" lon="9.8205166"><ele>1131.0</ele><time>2026-05-02T11:08:46.728Z</time></trkpt><trkpt lat="44.5956226" lon="9.8205135"><ele>1131.0</ele><time>2026-05-02T11:08:48.727Z</time></trkpt><trkpt lat="44.5955214" lon="9.8205726"><ele>1131.0</ele><time>2026-05-02T11:08:50.727Z</time></trkpt><trkpt lat="44.5954268" lon="9.8205991"><ele>1131.0</ele><time>2026-05-02T11:08:57.727Z</time></trkpt><trkpt lat="44.5953685" lon="9.8206437"><ele>1131.0</ele><time>2026-05-02T11:08:58.727Z</time></trkpt><trkpt lat="44.5953093" lon="9.8206878"><ele>1131.0</ele><time>2026-05-02T11:08:59.727Z</time></trkpt><trkpt lat="44.5951802" lon="9.8207108"><ele>1131.0</ele><time>2026-05-02T11:09:01.727Z</time></trkpt><trkpt lat="44.5951053" lon="9.8206971"><ele>1131.0</ele><time>2026-05-02T11:09:03.727Z</time></trkpt><trkpt lat="44.5949957" lon="9.8207016"><ele>1131.0</ele><time>2026-05-02T11:09:05.728Z</time></trkpt><trkpt lat="44.5949194" lon="9.8207027"><ele>1129.5</ele><time>2026-05-02T11:09:06.727Z</time></trkpt><trkpt lat="44.5948546" lon="9.8207016"><ele>1128.0</ele><time>2026-05-02T11:09:07.728Z</time></trkpt><trkpt lat="44.5947923" lon="9.820682"><ele>1126.5</ele><time>2026-05-02T11:09:08.727Z</time></trkpt><trkpt lat="44.5947307" lon="9.8206581"><ele>1125.0</ele><time>2026-05-02T11:09:09.727Z</time></trkpt><trkpt lat="44.5946106" lon="9.8206158"><ele>1123.5</ele><time>2026-05-02T11:09:11.727Z</time></trkpt><trkpt lat="44.5945352" lon="9.8205411"><ele>1122.0</ele><time>2026-05-02T11:09:13.727Z</time></trkpt><trkpt lat="44.5944556" lon="9.8205058"><ele>1121.3333333333333</ele><time>2026-05-02T11:09:15.727Z</time></trkpt><trkpt lat="44.5943712" lon="9.820434"><ele>1120.6666666666667</ele><time>2026-05-02T11:09:17.728Z</time></trkpt><trkpt lat="44.5942984" lon="9.8203915"><ele>1120.0</ele><time>2026-05-02T11:09:19.727Z</time></trkpt><trkpt lat="44.5942027" lon="9.8203898"><ele>1119.3333333333335</ele><time>2026-05-02T11:09:43.727Z</time></trkpt><trkpt lat="44.5941438" lon="9.8203371"><ele>1118.6666666666667</ele><time>2026-05-02T11:09:44.726Z</time></trkpt><trkpt lat="44.5940761" lon="9.8202734"><ele>1118.0</ele><time>2026-05-02T11:09:46.726Z</time></trkpt><trkpt lat="44.5940103" lon="9.820164"><ele>1120.0</ele><time>2026-05-02T11:09:48.726Z</time></trkpt><trkpt lat="44.5939168" lon="9.8200737"><ele>1122.0</ele><time>2026-05-02T11:09:50.726Z</time></trkpt><trkpt lat="44.5938002" lon="9.8199911"><ele>1124.0</ele><time>2026-05-02T11:09:52.726Z</time></trkpt><trkpt lat="44.5937429" lon="9.8199488"><ele>1126.0</ele><time>2026-05-02T11:09:53.726Z</time></trkpt><trkpt lat="44.5936671" lon="9.8199072"><ele>1128.0</ele><time>2026-05-02T11:09:54.727Z</time></trkpt><trkpt lat="44.5935662" lon="9.8198274"><ele>1132.8</ele><time>2026-05-02T11:09:56.726Z</time></trkpt><trkpt lat="44.5935117" lon="9.8197659"><ele>1137.6</ele><time>2026-05-02T11:09:57.726Z</time></trkpt><trkpt lat="44.5934494" lon="9.8197032"><ele>1142.4</ele><time>2026-05-02T11:09:58.726Z</time></trkpt><trkpt lat="44.5933569" lon="9.8196129"><ele>1147.2</ele><time>2026-05-02T11:10:00.727Z</time></trkpt><trkpt lat="44.5932526" lon="9.8194839"><ele>1152.0</ele><time>2026-05-02T11:10:02.726Z</time></trkpt><trkpt lat="44.5931821" lon="9.8193834"><ele>1151.0</ele><time>2026-05-02T11:10:04.726Z</time></trkpt><trkpt lat="44.593111" lon="9.8192945"><ele>1150.0</ele><time>2026-05-02T11:10:06.726Z</time></trkpt><trkpt lat="44.5930373" lon="9.8191986"><ele>1149.0</ele><time>2026-05-02T11:10:08.727Z</time></trkpt><trkpt lat="44.5929706" lon="9.8191402"><ele>1148.0</ele><time>2026-05-02T11:10:10.727Z</time></trkpt><trkpt lat="44.5929025" lon="9.8191629"><ele>1147.0</ele><time>2026-05-02T11:10:11.726Z</time></trkpt><trkpt lat="44.5928355" lon="9.8191683"><ele>1146.0</ele><time>2026-05-02T11:10:12.727Z</time></trkpt><trkpt lat="44.5927622" lon="9.8191388"><ele>1150.8</ele><time>2026-05-02T11:10:14.726Z</time></trkpt><trkpt lat="44.5926917" lon="9.8191045"><ele>1155.6</ele><time>2026-05-02T11:10:17.726Z</time></trkpt><trkpt lat="44.592596" lon="9.8191529"><ele>1160.4</ele><time>2026-05-02T11:10:20.726Z</time></trkpt><trkpt lat="44.5925153" lon="9.81921"><ele>1165.2</ele><time>2026-05-02T11:10:22.728Z</time></trkpt><trkpt lat="44.5924212" lon="9.8192529"><ele>1170.0</ele><time>2026-05-02T11:10:24.727Z</time></trkpt><trkpt lat="44.5923388" lon="9.8192306"><ele>1170.0</ele><time>2026-05-02T11:10:26.726Z</time></trkpt><trkpt lat="44.5922444" lon="9.8192072"><ele>1170.0</ele><time>2026-05-02T11:10:28.726Z</time></trkpt><trkpt lat="44.5921593" lon="9.8191833"><ele>1170.0</ele><time>2026-05-02T11:10:30.726Z</time></trkpt><trkpt lat="44.5920754" lon="9.819116"><ele>1170.0</ele><time>2026-05-02T11:10:32.726Z</time></trkpt><trkpt lat="44.5919967" lon="9.8190502"><ele>1170.0</ele><time>2026-05-02T11:10:58.726Z</time></trkpt><trkpt lat="44.5918897" lon="9.8190005"><ele>1170.6</ele><time>2026-05-02T11:11:01.726Z</time></trkpt><trkpt lat="44.5917562" lon="9.818964"><ele>1171.2</ele><time>2026-05-02T11:11:03.726Z</time></trkpt><trkpt lat="44.5916836" lon="9.8190319"><ele>1171.8</ele><time>2026-05-02T11:11:05.726Z</time></trkpt><trkpt lat="44.5916355" lon="9.8191029"><ele>1172.4</ele><time>2026-05-02T11:11:07.727Z</time></trkpt><trkpt lat="44.5915797" lon="9.8191917"><ele>1173.0</ele><time>2026-05-02T11:11:08.726Z</time></trkpt><trkpt lat="44.5915057" lon="9.8193212"><ele>1173.6</ele><time>2026-05-02T11:11:10.726Z</time></trkpt><trkpt lat="44.5914639" lon="9.8194173"><ele>1174.1999999999998</ele><time>2026-05-02T11:11:11.726Z</time></trkpt><trkpt lat="44.5914519" lon="9.8195331"><ele>1174.8</ele><time>2026-05-02T11:11:12.726Z</time></trkpt><trkpt lat="44.5914118" lon="9.8197117"><ele>1175.3999999999999</ele><time>2026-05-02T11:11:14.728Z</time></trkpt><trkpt lat="44.5913957" lon="9.8197993"><ele>1176.0</ele><time>2026-05-02T11:11:15.726Z</time></trkpt><trkpt lat="44.5913617" lon="9.8199351"><ele>1176.0</ele><time>2026-05-02T11:11:16.726Z</time></trkpt><trkpt lat="44.5913344" lon="9.8200283"><ele>1176.0</ele><time>2026-05-02T11:11:17.726Z</time></trkpt><trkpt lat="44.5912836" lon="9.8201411"><ele>1176.0</ele><time>2026-05-02T11:11:18.726Z</time></trkpt><trkpt lat="44.5912096" lon="9.8202774"><ele>1176.0</ele><time>2026-05-02T11:11:19.726Z</time></trkpt><trkpt lat="44.5911401" lon="9.820361"><ele>1176.0</ele><time>2026-05-02T11:11:20.727Z</time></trkpt><trkpt lat="44.59104" lon="9.8204662"><ele>1174.3333333333333</ele><time>2026-05-02T11:11:22.726Z</time></trkpt><trkpt lat="44.5909861" lon="9.8205398"><ele>1172.6666666666667</ele><time>2026-05-02T11:11:23.726Z</time></trkpt><trkpt lat="44.5909254" lon="9.8206069"><ele>1171.0</ele><time>2026-05-02T11:11:24.726Z</time></trkpt><trkpt lat="44.5908661" lon="9.8206723"><ele>1169.3333333333335</ele><time>2026-05-02T11:11:25.726Z</time></trkpt><trkpt lat="44.5908007" lon="9.8207291"><ele>1167.6666666666667</ele><time>2026-05-02T11:11:26.726Z</time></trkpt><trkpt lat="44.5907304" lon="9.8208244"><ele>1166.0</ele><time>2026-05-02T11:11:27.726Z</time></trkpt><trkpt lat="44.5906705" lon="9.8208851"><ele>1166.0</ele><time>2026-05-02T11:11:28.726Z</time></trkpt><trkpt lat="44.5905655" lon="9.8208694"><ele>1166.0</ele><time>2026-05-02T11:11:30.727Z</time></trkpt><trkpt lat="44.590443" lon="9.8208899"><ele>1166.0</ele><time>2026-05-02T11:11:32.727Z</time></trkpt><trkpt lat="44.5903704" lon="9.8209059"><ele>1166.0</ele><time>2026-05-02T11:11:33.726Z</time></trkpt><trkpt lat="44.5902995" lon="9.8209126"><ele>1166.0</ele><time>2026-05-02T11:11:34.726Z</time></trkpt><trkpt lat="44.5902068" lon="9.8209114"><ele>1164.6666666666667</ele><time>2026-05-02T11:11:37.726Z</time></trkpt><trkpt lat="44.590134" lon="9.8208964"><ele>1163.3333333333335</ele><time>2026-05-02T11:11:39.726Z</time></trkpt><trkpt lat="44.5900406" lon="9.8208822"><ele>1162.0</ele><time>2026-05-02T11:11:41.726Z</time></trkpt><trkpt lat="44.5899572" lon="9.8208658"><ele>1160.6666666666667</ele><time>2026-05-02T11:11:43.726Z</time></trkpt><trkpt lat="44.5898815" lon="9.8208688"><ele>1159.3333333333333</ele><time>2026-05-02T11:11:59.726Z</time></trkpt><trkpt lat="44.5897871" lon="9.8208661"><ele>1158.0</ele><time>2026-05-02T11:12:12.726Z</time></trkpt><trkpt lat="44.5897154" lon="9.8208396"><ele>1158.0</ele><time>2026-05-02T11:12:13.727Z</time></trkpt><trkpt lat="44.5896352" lon="9.8207947"><ele>1158.0</ele><time>2026-05-02T11:12:14.726Z</time></trkpt><trkpt lat="44.5895595" lon="9.8207603"><ele>1158.0</ele><time>2026-05-02T11:12:15.726Z</time></trkpt><trkpt lat="44.5894937" lon="9.8207226"><ele>1158.0</ele><time>2026-05-02T11:12:16.726Z</time></trkpt><trkpt lat="44.589435" lon="9.8206783"><ele>1158.0</ele><time>2026-05-02T11:12:17.726Z</time></trkpt><trkpt lat="44.589376" lon="9.8206428"><ele>1158.0</ele><time>2026-05-02T11:12:18.726Z</time></trkpt><trkpt lat="44.5892637" lon="9.8206015"><ele>1156.0</ele><time>2026-05-02T11:12:20.727Z</time></trkpt><trkpt lat="44.5892008" lon="9.820583"><ele>1154.0</ele><time>2026-05-02T11:12:21.727Z</time></trkpt><trkpt lat="44.5891401" lon="9.8205572"><ele>1152.0</ele><time>2026-05-02T11:12:22.726Z</time></trkpt><trkpt lat="44.5890122" lon="9.8205435"><ele>1150.0</ele><time>2026-05-02T11:12:24.726Z</time></trkpt><trkpt lat="44.5889478" lon="9.8205346"><ele>1148.0</ele><time>2026-05-02T11:12:25.726Z</time></trkpt><trkpt lat="44.5888754" lon="9.8205233"><ele>1146.0</ele><time>2026-05-02T11:12:26.726Z</time></trkpt><trkpt lat="44.5887908" lon="9.8205212"><ele>1146.0</ele><time>2026-05-02T11:12:27.727Z</time></trkpt><trkpt lat="44.5887216" lon="9.8205129"><ele>1146.0</ele><time>2026-05-02T11:12:28.726Z</time></trkpt><trkpt lat="44.5886313" lon="9.8204874"><ele>1146.0</ele><time>2026-05-02T11:12:30.726Z</time></trkpt><trkpt lat="44.5885639" lon="9.8204749"><ele>1146.0</ele><time>2026-05-02T11:12:32.726Z</time></trkpt><trkpt lat="44.5884763" lon="9.8204935"><ele>1146.0</ele><time>2026-05-02T11:12:34.726Z</time></trkpt><trkpt lat="44.5883956" lon="9.8204777"><ele>1146.0</ele><time>2026-05-02T11:12:36.727Z</time></trkpt><trkpt lat="44.5882966" lon="9.8204479"><ele>1145.5</ele><time>2026-05-02T11:12:38.726Z</time></trkpt><trkpt lat="44.5881689" lon="9.8204163"><ele>1145.0</ele><time>2026-05-02T11:12:40.726Z</time></trkpt><trkpt lat="44.5881005" lon="9.820401"><ele>1144.5</ele><time>2026-05-02T11:12:41.726Z</time></trkpt><trkpt lat="44.5879799" lon="9.8203888"><ele>1144.0</ele><time>2026-05-02T11:12:43.726Z</time></trkpt><trkpt lat="44.5878418" lon="9.8203578"><ele>1143.1666666666665</ele><time>2026-05-02T11:12:45.726Z</time></trkpt><trkpt lat="44.5877717" lon="9.8203588"><ele>1142.3333333333333</ele><time>2026-05-02T11:12:46.726Z</time></trkpt><trkpt lat="44.5877032" lon="9.8203291"><ele>1141.5</ele><time>2026-05-02T11:12:47.727Z</time></trkpt><trkpt lat="44.5876458" lon="9.8202892"><ele>1140.6666666666667</ele><time>2026-05-02T11:12:48.726Z</time></trkpt><trkpt lat="44.5875462" lon="9.8202333"><ele>1139.8333333333335</ele><time>2026-05-02T11:12:50.726Z</time></trkpt><trkpt lat="44.5874657" lon="9.8201992"><ele>1139.0</ele><time>2026-05-02T11:12:51.727Z</time></trkpt><trkpt lat="44.5873943" lon="9.8201593"><ele>1142.3333333333335</ele><time>2026-05-02T11:12:52.728Z</time></trkpt><trkpt lat="44.5873147" lon="9.8201359"><ele>1145.6666666666667</ele><time>2026-05-02T11:12:53.726Z</time></trkpt><trkpt lat="44.5872585" lon="9.8200898"><ele>1149.0</ele><time>2026-05-02T11:12:54.726Z</time></trkpt><trkpt lat="44.5871907" lon="9.8200618"><ele>1152.3333333333333</ele><time>2026-05-02T11:12:55.727Z</time></trkpt><trkpt lat="44.5870724" lon="9.8200004"><ele>1155.6666666666665</ele><time>2026-05-02T11:12:57.727Z</time></trkpt><trkpt lat="44.5870195" lon="9.819913"><ele>1159.0</ele><time>2026-05-02T11:12:58.727Z</time></trkpt><trkpt lat="44.5869553" lon="9.8197976"><ele>1159.0</ele><time>2026-05-02T11:13:00.728Z</time></trkpt><trkpt lat="44.5868843" lon="9.8196814"><ele>1159.0</ele><time>2026-05-02T11:13:02.727Z</time></trkpt><trkpt lat="44.5868424" lon="9.8195972"><ele>1159.0</ele><time>2026-05-02T11:13:04.727Z</time></trkpt><trkpt lat="44.5867935" lon="9.8194503"><ele>1159.0</ele><time>2026-05-02T11:13:06.726Z</time></trkpt><trkpt lat="44.586753" lon="9.8193094"><ele>1159.0</ele><time>2026-05-02T11:13:08.727Z</time></trkpt><trkpt lat="44.5867709" lon="9.8192215"><ele>1161.4</ele><time>2026-05-02T11:13:09.727Z</time></trkpt><trkpt lat="44.5867071" lon="9.8191592"><ele>1163.8000000000002</ele><time>2026-05-02T11:13:10.726Z</time></trkpt><trkpt lat="44.5866938" lon="9.8190564"><ele>1166.1999999999998</ele><time>2026-05-02T11:13:11.726Z</time></trkpt><trkpt lat="44.5867083" lon="9.8188972"><ele>1168.6</ele><time>2026-05-02T11:13:13.727Z</time></trkpt><trkpt lat="44.5866957" lon="9.8187728"><ele>1171.0</ele><time>2026-05-02T11:13:15.728Z</time></trkpt><trkpt lat="44.5866697" lon="9.818621"><ele>1171.0</ele><time>2026-05-02T11:13:17.726Z</time></trkpt><trkpt lat="44.5866397" lon="9.8185234"><ele>1171.0</ele><time>2026-05-02T11:13:18.726Z</time></trkpt><trkpt lat="44.5865623" lon="9.8183797"><ele>1171.0</ele><time>2026-05-02T11:13:20.726Z</time></trkpt><trkpt lat="44.5865146" lon="9.8183074"><ele>1171.0</ele><time>2026-05-02T11:13:21.726Z</time></trkpt><trkpt lat="44.5864518" lon="9.8182479"><ele>1171.0</ele><time>2026-05-02T11:13:22.726Z</time></trkpt><trkpt lat="44.5863574" lon="9.8181197"><ele>1171.0</ele><time>2026-05-02T11:13:24.726Z</time></trkpt><trkpt lat="44.5862993" lon="9.8180674"><ele>1171.0</ele><time>2026-05-02T11:13:25.726Z</time></trkpt><trkpt lat="44.5861906" lon="9.8179653"><ele>1171.0</ele><time>2026-05-02T11:13:27.726Z</time></trkpt><trkpt lat="44.5861205" lon="9.8179281"><ele>1171.0</ele><time>2026-05-02T11:13:28.727Z</time></trkpt><trkpt lat="44.586036" lon="9.8179094"><ele>1171.0</ele><time>2026-05-02T11:13:30.726Z</time></trkpt><trkpt lat="44.5859773" lon="9.8178008"><ele>1171.0</ele><time>2026-05-02T11:13:32.726Z</time></trkpt><trkpt lat="44.5859205" lon="9.8177291"><ele>1171.0</ele><time>2026-05-02T11:13:34.726Z</time></trkpt><trkpt lat="44.5858911" lon="9.817617"><ele>1171.0</ele><time>2026-05-02T11:13:36.727Z</time></trkpt><trkpt lat="44.5858876" lon="9.8175201"><ele>1171.0</ele><time>2026-05-02T11:13:38.726Z</time></trkpt><trkpt lat="44.5858745" lon="9.8174326"><ele>1171.0</ele><time>2026-05-02T11:14:02.726Z</time></trkpt><trkpt lat="44.5858746" lon="9.8172945"><ele>1171.0</ele><time>2026-05-02T11:14:04.726Z</time></trkpt><trkpt lat="44.5858378" lon="9.8171226"><ele>1170.0</ele><time>2026-05-02T11:14:06.726Z</time></trkpt><trkpt lat="44.5858181" lon="9.817032"><ele>1169.0</ele><time>2026-05-02T11:14:07.726Z</time></trkpt><trkpt lat="44.5858256" lon="9.8168952"><ele>1168.0</ele><time>2026-05-02T11:14:09.726Z</time></trkpt><trkpt lat="44.5858597" lon="9.8167676"><ele>1167.0</ele><time>2026-05-02T11:14:11.726Z</time></trkpt><trkpt lat="44.5858501" lon="9.816637"><ele>1166.0</ele><time>2026-05-02T11:14:13.726Z</time></trkpt><trkpt lat="44.5858643" lon="9.81653"><ele>1165.0</ele><time>2026-05-02T11:14:15.726Z</time></trkpt><trkpt lat="44.585836" lon="9.8164434"><ele>1163.5</ele><time>2026-05-02T11:14:18.726Z</time></trkpt><trkpt lat="44.585801" lon="9.8163621"><ele>1162.0</ele><time>2026-05-02T11:14:21.727Z</time></trkpt><trkpt lat="44.5857636" lon="9.8162685"><ele>1160.5</ele><time>2026-05-02T11:14:23.727Z</time></trkpt><trkpt lat="44.5857523" lon="9.8161586"><ele>1159.0</ele><time>2026-05-02T11:14:25.726Z</time></trkpt><trkpt lat="44.5857439" lon="9.8160031"><ele>1157.5</ele><time>2026-05-02T11:14:27.727Z</time></trkpt><trkpt lat="44.5857282" lon="9.8158827"><ele>1156.0</ele><time>2026-05-02T11:14:29.727Z</time></trkpt><trkpt lat="44.5857124" lon="9.8157866"><ele>1154.6666666666665</ele><time>2026-05-02T11:14:31.726Z</time></trkpt><trkpt lat="44.5856927" lon="9.8156934"><ele>1153.3333333333333</ele><time>2026-05-02T11:14:33.726Z</time></trkpt><trkpt lat="44.5856699" lon="9.8155854"><ele>1152.0</ele><time>2026-05-02T11:14:36.726Z</time></trkpt><trkpt lat="44.5856409" lon="9.8155051"><ele>1150.6666666666667</ele><time>2026-05-02T11:14:40.726Z</time></trkpt><trkpt lat="44.5855907" lon="9.8153762"><ele>1149.3333333333335</ele><time>2026-05-02T11:14:42.726Z</time></trkpt><trkpt lat="44.5855753" lon="9.8152735"><ele>1148.0</ele><time>2026-05-02T11:14:44.727Z</time></trkpt><trkpt lat="44.5855442" lon="9.8151506"><ele>1146.6666666666667</ele><time>2026-05-02T11:14:46.726Z</time></trkpt><trkpt lat="44.5855161" lon="9.8150454"><ele>1145.3333333333335</ele><time>2026-05-02T11:14:48.726Z</time></trkpt><trkpt lat="44.5855033" lon="9.8149362"><ele>1144.0</ele><time>2026-05-02T11:14:50.726Z</time></trkpt><trkpt lat="44.58548" lon="9.8148242"><ele>1142.6666666666667</ele><time>2026-05-02T11:14:52.726Z</time></trkpt><trkpt lat="44.5854683" lon="9.8147313"><ele>1141.3333333333333</ele><time>2026-05-02T11:14:54.726Z</time></trkpt><trkpt lat="44.5854548" lon="9.8146334"><ele>1140.0</ele><time>2026-05-02T11:14:57.727Z</time></trkpt><trkpt lat="44.5854121" lon="9.8145374"><ele>1140.0</ele><time>2026-05-02T11:15:02.726Z</time></trkpt><trkpt lat="44.5853701" lon="9.8144558"><ele>1140.0</ele><time>2026-05-02T11:15:05.727Z</time></trkpt><trkpt lat="44.5853224" lon="9.8143892"><ele>1140.0</ele><time>2026-05-02T11:15:08.726Z</time></trkpt><trkpt lat="44.585287" lon="9.8142943"><ele>1140.0</ele><time>2026-05-02T11:15:12.726Z</time></trkpt><trkpt lat="44.5852591" lon="9.8142"><ele>1140.0</ele><time>2026-05-02T11:15:16.726Z</time></trkpt><trkpt lat="44.5853038" lon="9.8141122"><ele>1140.0</ele><time>2026-05-02T11:15:20.727Z</time></trkpt><trkpt lat="44.5852745" lon="9.814028"><ele>1140.0</ele><time>2026-05-02T11:15:36.726Z</time></trkpt><trkpt lat="44.585289" lon="9.8139262"><ele>1134.8333333333333</ele><time>2026-05-02T11:15:40.726Z</time></trkpt><trkpt lat="44.5852528" lon="9.8138467"><ele>1129.6666666666667</ele><time>2026-05-02T11:15:43.727Z</time></trkpt><trkpt lat="44.5852285" lon="9.8137495"><ele>1124.5</ele><time>2026-05-02T11:15:46.726Z</time></trkpt><trkpt lat="44.5851404" lon="9.8137473"><ele>1119.3333333333335</ele><time>2026-05-02T11:20:07.726Z</time></trkpt><trkpt lat="44.5850655" lon="9.8137322"><ele>1114.1666666666667</ele><time>2026-05-02T11:20:10.727Z</time></trkpt><trkpt lat="44.5849801" lon="9.8137118"><ele>1109.0</ele><time>2026-05-02T11:20:13.726Z</time></trkpt><trkpt lat="44.5848933" lon="9.813663"><ele>1109.0</ele><time>2026-05-02T11:20:16.727Z</time></trkpt><trkpt lat="44.5848143" lon="9.8136184"><ele>1109.0</ele><time>2026-05-02T11:20:18.726Z</time></trkpt><trkpt lat="44.5847433" lon="9.8135414"><ele>1109.0</ele><time>2026-05-02T11:20:19.726Z</time></trkpt><trkpt lat="44.5846567" lon="9.8135152"><ele>1109.0</ele><time>2026-05-02T11:20:29.727Z</time></trkpt><trkpt lat="44.5845287" lon="9.8134454"><ele>1109.0</ele><time>2026-05-02T11:20:31.726Z</time></trkpt><trkpt lat="44.5844662" lon="9.8133884"><ele>1105.0</ele><time>2026-05-02T11:20:32.726Z</time></trkpt><trkpt lat="44.5844357" lon="9.8133026"><ele>1101.0</ele><time>2026-05-02T11:20:33.726Z</time></trkpt><trkpt lat="44.5843704" lon="9.8132098"><ele>1097.0</ele><time>2026-05-02T11:20:35.726Z</time></trkpt><trkpt lat="44.5842944" lon="9.8131294"><ele>1093.0</ele><time>2026-05-02T11:20:37.726Z</time></trkpt><trkpt lat="44.5842269" lon="9.8130276"><ele>1089.0</ele><time>2026-05-02T11:20:39.727Z</time></trkpt><trkpt lat="44.5841692" lon="9.8129137"><ele>1089.0</ele><time>2026-05-02T11:20:41.726Z</time></trkpt><trkpt lat="44.5841325" lon="9.8128087"><ele>1089.0</ele><time>2026-05-02T11:20:42.727Z</time></trkpt><trkpt lat="44.5840946" lon="9.8126602"><ele>1089.0</ele><time>2026-05-02T11:20:44.727Z</time></trkpt><trkpt lat="44.5840673" lon="9.8125748"><ele>1089.0</ele><time>2026-05-02T11:20:45.726Z</time></trkpt><trkpt lat="44.5840184" lon="9.8124167"><ele>1089.0</ele><time>2026-05-02T11:20:47.728Z</time></trkpt><trkpt lat="44.5839875" lon="9.8123375"><ele>1089.0</ele><time>2026-05-02T11:20:48.726Z</time></trkpt><trkpt lat="44.5839127" lon="9.8122146"><ele>1090.0</ele><time>2026-05-02T11:20:50.726Z</time></trkpt><trkpt lat="44.5838277" lon="9.812095"><ele>1091.0</ele><time>2026-05-02T11:20:52.727Z</time></trkpt><trkpt lat="44.583774" lon="9.8120473"><ele>1092.0</ele><time>2026-05-02T11:20:53.726Z</time></trkpt><trkpt lat="44.5836817" lon="9.8119345"><ele>1093.0</ele><time>2026-05-02T11:20:55.726Z</time></trkpt><trkpt lat="44.5836226" lon="9.8118859"><ele>1094.0</ele><time>2026-05-02T11:20:56.726Z</time></trkpt><trkpt lat="44.5835283" lon="9.8118112"><ele>1094.0</ele><time>2026-05-02T11:20:58.727Z</time></trkpt><trkpt lat="44.5834485" lon="9.8118"><ele>1094.0</ele><time>2026-05-02T11:21:00.726Z</time></trkpt><trkpt lat="44.5833824" lon="9.8117937"><ele>1094.0</ele><time>2026-05-02T11:21:02.725Z</time></trkpt><trkpt lat="44.5833052" lon="9.8117789"><ele>1094.0</ele><time>2026-05-02T11:21:19.725Z</time></trkpt><trkpt lat="44.5831792" lon="9.8117617"><ele>1094.0</ele><time>2026-05-02T11:21:24.725Z</time></trkpt><trkpt lat="44.5830831" lon="9.8117429"><ele>1094.0</ele><time>2026-05-02T11:21:26.725Z</time></trkpt><trkpt lat="44.5829808" lon="9.8117163"><ele>1094.0</ele><time>2026-05-02T11:21:28.725Z</time></trkpt><trkpt lat="44.5828881" lon="9.8116624"><ele>1094.0</ele><time>2026-05-02T11:21:30.725Z</time></trkpt><trkpt lat="44.5828134" lon="9.811633"><ele>1094.0</ele><time>2026-05-02T11:21:32.726Z</time></trkpt><trkpt lat="44.5827382" lon="9.8116108"><ele>1094.0</ele><time>2026-05-02T11:21:34.725Z</time></trkpt><trkpt lat="44.5826617" lon="9.8115738"><ele>1094.0</ele><time>2026-05-02T11:21:36.726Z</time></trkpt><trkpt lat="44.5825748" lon="9.8115495"><ele>1094.0</ele><time>2026-05-02T11:21:38.725Z</time></trkpt><trkpt lat="44.5824964" lon="9.8115389"><ele>1095.3333333333335</ele><time>2026-05-02T11:21:40.725Z</time></trkpt><trkpt lat="44.5823965" lon="9.8115435"><ele>1096.6666666666667</ele><time>2026-05-02T11:21:42.726Z</time></trkpt><trkpt lat="44.5822747" lon="9.8115264"><ele>1098.0</ele><time>2026-05-02T11:21:44.725Z</time></trkpt><trkpt lat="44.5821804" lon="9.811534"><ele>1099.3333333333333</ele><time>2026-05-02T11:21:46.725Z</time></trkpt><trkpt lat="44.5821171" lon="9.811573"><ele>1100.6666666666665</ele><time>2026-05-02T11:21:47.725Z</time></trkpt><trkpt lat="44.5820619" lon="9.8116163"><ele>1102.0</ele><time>2026-05-02T11:21:48.725Z</time></trkpt><trkpt lat="44.5819845" lon="9.8116791"><ele>1102.0</ele><time>2026-05-02T11:21:50.725Z</time></trkpt><trkpt lat="44.5818763" lon="9.8116512"><ele>1102.0</ele><time>2026-05-02T11:21:52.725Z</time></trkpt><trkpt lat="44.5817982" lon="9.8115817"><ele>1102.0</ele><time>2026-05-02T11:21:54.726Z</time></trkpt><trkpt lat="44.5817628" lon="9.8114829"><ele>1102.0</ele><time>2026-05-02T11:21:56.725Z</time></trkpt><trkpt lat="44.5817463" lon="9.8113688"><ele>1102.0</ele><time>2026-05-02T11:21:58.725Z</time></trkpt><trkpt lat="44.581723" lon="9.8112376"><ele>1102.0</ele><time>2026-05-02T11:22:00.725Z</time></trkpt><trkpt lat="44.58171" lon="9.8111117"><ele>1102.0</ele><time>2026-05-02T11:22:02.725Z</time></trkpt><trkpt lat="44.5817115" lon="9.8109885"><ele>1102.0</ele><time>2026-05-02T11:22:04.726Z</time></trkpt><trkpt lat="44.5816692" lon="9.8108833"><ele>1102.0</ele><time>2026-05-02T11:22:12.725Z</time></trkpt><trkpt lat="44.5816337" lon="9.8107854"><ele>1102.0</ele><time>2026-05-02T11:22:14.725Z</time></trkpt><trkpt lat="44.5816273" lon="9.8106699"><ele>1102.0</ele><time>2026-05-02T11:22:16.725Z</time></trkpt><trkpt lat="44.5816459" lon="9.8105244"><ele>1102.2</ele><time>2026-05-02T11:22:18.725Z</time></trkpt><trkpt lat="44.5816766" lon="9.8103399"><ele>1102.4</ele><time>2026-05-02T11:22:20.725Z</time></trkpt><trkpt lat="44.5816942" lon="9.8102486"><ele>1102.6</ele><time>2026-05-02T11:22:21.725Z</time></trkpt><trkpt lat="44.5817561" lon="9.8101398"><ele>1102.8</ele><time>2026-05-02T11:22:24.725Z</time></trkpt><trkpt lat="44.5818024" lon="9.8100485"><ele>1103.0</ele><time>2026-05-02T11:22:26.725Z</time></trkpt><trkpt lat="44.5818377" lon="9.8099464"><ele>1103.0</ele><time>2026-05-02T11:22:28.725Z</time></trkpt><trkpt lat="44.5818088" lon="9.809855"><ele>1103.0</ele><time>2026-05-02T11:22:29.726Z</time></trkpt><trkpt lat="44.581812" lon="9.8097293"><ele>1103.0</ele><time>2026-05-02T11:22:31.725Z</time></trkpt><trkpt lat="44.5818003" lon="9.809606"><ele>1103.0</ele><time>2026-05-02T11:22:33.725Z</time></trkpt><trkpt lat="44.5818062" lon="9.8094781"><ele>1103.0</ele><time>2026-05-02T11:22:35.725Z</time></trkpt><trkpt lat="44.5818463" lon="9.8093114"><ele>1102.0</ele><time>2026-05-02T11:22:37.725Z</time></trkpt><trkpt lat="44.5818559" lon="9.8092192"><ele>1101.0</ele><time>2026-05-02T11:22:38.725Z</time></trkpt><trkpt lat="44.5818558" lon="9.8091123"><ele>1100.0</ele><time>2026-05-02T11:22:39.725Z</time></trkpt><trkpt lat="44.5818584" lon="9.8090212"><ele>1099.0</ele><time>2026-05-02T11:22:40.725Z</time></trkpt><trkpt lat="44.5818544" lon="9.8088715"><ele>1098.0</ele><time>2026-05-02T11:22:42.725Z</time></trkpt><trkpt lat="44.5818289" lon="9.8087724"><ele>1097.0</ele><time>2026-05-02T11:22:44.725Z</time></trkpt><trkpt lat="44.5818047" lon="9.8086592"><ele>1097.0</ele><time>2026-05-02T11:22:46.725Z</time></trkpt><trkpt lat="44.5817644" lon="9.8085178"><ele>1097.0</ele><time>2026-05-02T11:22:48.725Z</time></trkpt><trkpt lat="44.5817338" lon="9.8084033"><ele>1097.0</ele><time>2026-05-02T11:22:50.725Z</time></trkpt><trkpt lat="44.5817004" lon="9.8082667"><ele>1097.0</ele><time>2026-05-02T11:22:52.725Z</time></trkpt><trkpt lat="44.5816451" lon="9.8082015"><ele>1097.0</ele><time>2026-05-02T11:23:05.725Z</time></trkpt><trkpt lat="44.581576" lon="9.8081361"><ele>1098.5</ele><time>2026-05-02T11:23:07.725Z</time></trkpt><trkpt lat="44.5815144" lon="9.8079932"><ele>1100.0</ele><time>2026-05-02T11:23:09.725Z</time></trkpt><trkpt lat="44.5814675" lon="9.8078895"><ele>1101.5</ele><time>2026-05-02T11:23:11.725Z</time></trkpt><trkpt lat="44.5814241" lon="9.8078181"><ele>1103.0</ele><time>2026-05-02T11:23:13.725Z</time></trkpt><trkpt lat="44.5813564" lon="9.8077481"><ele>1104.5</ele><time>2026-05-02T11:23:16.725Z</time></trkpt><trkpt lat="44.5812908" lon="9.8076982"><ele>1106.0</ele><time>2026-05-02T11:23:19.725Z</time></trkpt><trkpt lat="44.5812288" lon="9.8076457"><ele>1105.2</ele><time>2026-05-02T11:23:21.726Z</time></trkpt><trkpt lat="44.5811668" lon="9.8075913"><ele>1104.3999999999999</ele><time>2026-05-02T11:23:23.725Z</time></trkpt><trkpt lat="44.5810988" lon="9.8075632"><ele>1103.6</ele><time>2026-05-02T11:23:25.725Z</time></trkpt><trkpt lat="44.5809577" lon="9.8075155"><ele>1102.8</ele><time>2026-05-02T11:23:27.726Z</time></trkpt><trkpt lat="44.5808632" lon="9.8075086"><ele>1102.0</ele><time>2026-05-02T11:23:29.725Z</time></trkpt><trkpt lat="44.5807728" lon="9.8075231"><ele>1102.0</ele><time>2026-05-02T11:23:31.726Z</time></trkpt><trkpt lat="44.5806942" lon="9.8075773"><ele>1102.0</ele><time>2026-05-02T11:23:33.725Z</time></trkpt><trkpt lat="44.580599" lon="9.8075827"><ele>1102.0</ele><time>2026-05-02T11:23:34.725Z</time></trkpt><trkpt lat="44.5805561" lon="9.807667"><ele>1102.0</ele><time>2026-05-02T11:23:36.725Z</time></trkpt><trkpt lat="44.5804659" lon="9.8076821"><ele>1102.0</ele><time>2026-05-02T11:23:38.725Z</time></trkpt><trkpt lat="44.5803954" lon="9.8076795"><ele>1102.0</ele><time>2026-05-02T11:23:39.725Z</time></trkpt><trkpt lat="44.5803151" lon="9.8076516"><ele>1102.4</ele><time>2026-05-02T11:23:40.725Z</time></trkpt><trkpt lat="44.580246" lon="9.8076141"><ele>1102.8000000000002</ele><time>2026-05-02T11:23:41.725Z</time></trkpt><trkpt lat="44.5801788" lon="9.8075674"><ele>1103.2</ele><time>2026-05-02T11:23:42.725Z</time></trkpt><trkpt lat="44.5800577" lon="9.8075447"><ele>1103.6000000000001</ele><time>2026-05-02T11:23:44.725Z</time></trkpt><trkpt lat="44.5799374" lon="9.8075431"><ele>1104.0</ele><time>2026-05-02T11:23:46.726Z</time></trkpt><trkpt lat="44.5798216" lon="9.8075179"><ele>1104.0</ele><time>2026-05-02T11:23:48.726Z</time></trkpt><trkpt lat="44.5797535" lon="9.8075444"><ele>1104.0</ele><time>2026-05-02T11:23:49.726Z</time></trkpt><trkpt lat="44.5796651" lon="9.807554"><ele>1104.0</ele><time>2026-05-02T11:23:51.725Z</time></trkpt><trkpt lat="44.5795913" lon="9.8075215"><ele>1104.0</ele><time>2026-05-02T11:23:53.726Z</time></trkpt><trkpt lat="44.5794918" lon="9.8074538"><ele>1104.0</ele><time>2026-05-02T11:23:55.725Z</time></trkpt><trkpt lat="44.5793792" lon="9.8073942"><ele>1104.1666666666667</ele><time>2026-05-02T11:23:57.726Z</time></trkpt><trkpt lat="44.5793172" lon="9.8073567"><ele>1104.3333333333333</ele><time>2026-05-02T11:23:58.726Z</time></trkpt><trkpt lat="44.5792518" lon="9.8073139"><ele>1104.5</ele><time>2026-05-02T11:23:59.725Z</time></trkpt><trkpt lat="44.5791813" lon="9.8072781"><ele>1104.6666666666665</ele><time>2026-05-02T11:24:00.726Z</time></trkpt><trkpt lat="44.5791049" lon="9.8072362"><ele>1104.8333333333333</ele><time>2026-05-02T11:24:01.725Z</time></trkpt><trkpt lat="44.5790314" lon="9.8072074"><ele>1105.0</ele><time>2026-05-02T11:24:02.725Z</time></trkpt><trkpt lat="44.5789586" lon="9.8071423"><ele>1105.0</ele><time>2026-05-02T11:24:03.725Z</time></trkpt><trkpt lat="44.5789025" lon="9.8070936"><ele>1105.0</ele><time>2026-05-02T11:24:04.726Z</time></trkpt><trkpt lat="44.5787949" lon="9.8070386"><ele>1105.0</ele><time>2026-05-02T11:24:06.725Z</time></trkpt><trkpt lat="44.5786891" lon="9.8069858"><ele>1105.0</ele><time>2026-05-02T11:24:08.725Z</time></trkpt><trkpt lat="44.5785878" lon="9.8069302"><ele>1105.0</ele><time>2026-05-02T11:24:10.725Z</time></trkpt><trkpt lat="44.5784969" lon="9.8068823"><ele>1105.4</ele><time>2026-05-02T11:24:12.725Z</time></trkpt><trkpt lat="44.5784105" lon="9.8067778"><ele>1105.8</ele><time>2026-05-02T11:24:14.726Z</time></trkpt><trkpt lat="44.5783171" lon="9.8066462"><ele>1106.2</ele><time>2026-05-02T11:24:16.726Z</time></trkpt><trkpt lat="44.5782635" lon="9.806596"><ele>1106.6</ele><time>2026-05-02T11:24:17.725Z</time></trkpt><trkpt lat="44.5781866" lon="9.8065361"><ele>1107.0</ele><time>2026-05-02T11:24:18.725Z</time></trkpt><trkpt lat="44.5781223" lon="9.8064997"><ele>1107.0</ele><time>2026-05-02T11:24:19.725Z</time></trkpt><trkpt lat="44.5780567" lon="9.8064619"><ele>1107.0</ele><time>2026-05-02T11:24:20.725Z</time></trkpt><trkpt lat="44.5779852" lon="9.8064182"><ele>1107.0</ele><time>2026-05-02T11:24:21.726Z</time></trkpt><trkpt lat="44.5779048" lon="9.8064252"><ele>1107.0</ele><time>2026-05-02T11:24:22.725Z</time></trkpt><trkpt lat="44.5778271" lon="9.8063815"><ele>1107.0</ele><time>2026-05-02T11:24:23.725Z</time></trkpt><trkpt lat="44.5777608" lon="9.806342"><ele>1107.0</ele><time>2026-05-02T11:24:24.726Z</time></trkpt><trkpt lat="44.5776849" lon="9.806309"><ele>1106.8333333333333</ele><time>2026-05-02T11:24:25.725Z</time></trkpt><trkpt lat="44.5776161" lon="9.8062743"><ele>1106.6666666666667</ele><time>2026-05-02T11:24:26.726Z</time></trkpt><trkpt lat="44.5775564" lon="9.8062279"><ele>1106.5</ele><time>2026-05-02T11:24:27.726Z</time></trkpt><trkpt lat="44.5774853" lon="9.8061728"><ele>1106.3333333333335</ele><time>2026-05-02T11:24:28.725Z</time></trkpt><trkpt lat="44.5774148" lon="9.8061218"><ele>1106.1666666666667</ele><time>2026-05-02T11:24:29.725Z</time></trkpt><trkpt lat="44.5773573" lon="9.8060417"><ele>1106.0</ele><time>2026-05-02T11:24:30.727Z</time></trkpt><trkpt lat="44.5772921" lon="9.8059923"><ele>1106.0</ele><time>2026-05-02T11:24:31.725Z</time></trkpt><trkpt lat="44.5772277" lon="9.8059407"><ele>1106.0</ele><time>2026-05-02T11:24:32.726Z</time></trkpt><trkpt lat="44.5771719" lon="9.8058911"><ele>1106.0</ele><time>2026-05-02T11:24:33.725Z</time></trkpt><trkpt lat="44.5770726" lon="9.8057877"><ele>1106.0</ele><time>2026-05-02T11:24:35.725Z</time></trkpt><trkpt lat="44.5770176" lon="9.8057205"><ele>1106.0</ele><time>2026-05-02T11:24:36.725Z</time></trkpt><trkpt lat="44.5769727" lon="9.8056441"><ele>1106.0</ele><time>2026-05-02T11:24:37.726Z</time></trkpt><trkpt lat="44.576897" lon="9.8056065"><ele>1106.3999999999999</ele><time>2026-05-02T11:24:38.725Z</time></trkpt><trkpt lat="44.5767965" lon="9.805493"><ele>1106.8</ele><time>2026-05-02T11:24:40.726Z</time></trkpt><trkpt lat="44.5767713" lon="9.8054074"><ele>1107.1999999999998</ele><time>2026-05-02T11:24:41.725Z</time></trkpt><trkpt lat="44.5767003" lon="9.8052628"><ele>1107.6</ele><time>2026-05-02T11:24:43.725Z</time></trkpt><trkpt lat="44.5766624" lon="9.805177"><ele>1108.0</ele><time>2026-05-02T11:24:44.725Z</time></trkpt><trkpt lat="44.5765745" lon="9.8049935"><ele>1108.0</ele><time>2026-05-02T11:24:46.725Z</time></trkpt><trkpt lat="44.5765266" lon="9.8049174"><ele>1108.0</ele><time>2026-05-02T11:24:47.725Z</time></trkpt><trkpt lat="44.576486" lon="9.8048456"><ele>1108.0</ele><time>2026-05-02T11:24:48.725Z</time></trkpt><trkpt lat="44.5764338" lon="9.8047713"><ele>1108.0</ele><time>2026-05-02T11:24:49.725Z</time></trkpt><trkpt lat="44.5763924" lon="9.8046825"><ele>1108.0</ele><time>2026-05-02T11:24:50.725Z</time></trkpt><trkpt lat="44.57636" lon="9.8045861"><ele>1108.0</ele><time>2026-05-02T11:24:51.725Z</time></trkpt><trkpt lat="44.5763067" lon="9.8044289"><ele>1108.0</ele><time>2026-05-02T11:24:53.725Z</time></trkpt><trkpt lat="44.5762081" lon="9.8043448"><ele>1108.0</ele><time>2026-05-02T11:24:55.725Z</time></trkpt><trkpt lat="44.5761179" lon="9.8042891"><ele>1108.0</ele><time>2026-05-02T11:24:57.725Z</time></trkpt><trkpt lat="44.5760685" lon="9.8041961"><ele>1108.0</ele><time>2026-05-02T11:24:59.726Z</time></trkpt><trkpt lat="44.5759962" lon="9.8041053"><ele>1108.0</ele><time>2026-05-02T11:25:01.726Z</time></trkpt><trkpt lat="44.5759223" lon="9.8040584"><ele>1108.6666666666665</ele><time>2026-05-02T11:25:09.725Z</time></trkpt><trkpt lat="44.5758695" lon="9.8039754"><ele>1109.3333333333333</ele><time>2026-05-02T11:25:11.726Z</time></trkpt><trkpt lat="44.5758525" lon="9.8038851"><ele>1110.0</ele><time>2026-05-02T11:25:13.725Z</time></trkpt><trkpt lat="44.5758302" lon="9.8037461"><ele>1110.6666666666667</ele><time>2026-05-02T11:25:15.725Z</time></trkpt><trkpt lat="44.5757919" lon="9.8036667"><ele>1111.3333333333335</ele><time>2026-05-02T11:25:16.725Z</time></trkpt><trkpt lat="44.5757735" lon="9.8035771"><ele>1112.0</ele><time>2026-05-02T11:25:17.725Z</time></trkpt><trkpt lat="44.5757352" lon="9.8034133"><ele>1113.6</ele><time>2026-05-02T11:25:19.725Z</time></trkpt><trkpt lat="44.5757368" lon="9.8032955"><ele>1115.2</ele><time>2026-05-02T11:25:20.725Z</time></trkpt><trkpt lat="44.575732" lon="9.8031607"><ele>1116.8</ele><time>2026-05-02T11:25:21.725Z</time></trkpt><trkpt lat="44.5757283" lon="9.8030519"><ele>1118.4</ele><time>2026-05-02T11:25:22.725Z</time></trkpt><trkpt lat="44.5757215" lon="9.8029421"><ele>1120.0</ele><time>2026-05-02T11:25:23.725Z</time></trkpt><trkpt lat="44.5757065" lon="9.8027676"><ele>1120.0</ele><time>2026-05-02T11:25:25.725Z</time></trkpt><trkpt lat="44.5756696" lon="9.8026908"><ele>1120.0</ele><time>2026-05-02T11:25:26.725Z</time></trkpt><trkpt lat="44.5755959" lon="9.8026018"><ele>1120.0</ele><time>2026-05-02T11:25:27.725Z</time></trkpt><trkpt lat="44.5755302" lon="9.8024974"><ele>1120.0</ele><time>2026-05-02T11:25:28.726Z</time></trkpt><trkpt lat="44.5754778" lon="9.8024351"><ele>1120.0</ele><time>2026-05-02T11:25:29.725Z</time></trkpt><trkpt lat="44.575438" lon="9.8023525"><ele>1120.0</ele><time>2026-05-02T11:25:30.725Z</time></trkpt><trkpt lat="44.5753837" lon="9.8022828"><ele>1119.3333333333333</ele><time>2026-05-02T11:25:31.725Z</time></trkpt><trkpt lat="44.5753444" lon="9.8021887"><ele>1118.6666666666665</ele><time>2026-05-02T11:25:32.726Z</time></trkpt><trkpt lat="44.5753255" lon="9.8020912"><ele>1118.0</ele><time>2026-05-02T11:25:33.725Z</time></trkpt><trkpt lat="44.5753277" lon="9.8019906"><ele>1117.3333333333333</ele><time>2026-05-02T11:25:34.725Z</time></trkpt><trkpt lat="44.5752648" lon="9.8019107"><ele>1116.6666666666667</ele><time>2026-05-02T11:25:35.725Z</time></trkpt><trkpt lat="44.5752104" lon="9.8018197"><ele>1116.0</ele><time>2026-05-02T11:25:36.725Z</time></trkpt><trkpt lat="44.5751683" lon="9.8016716"><ele>1116.0</ele><time>2026-05-02T11:25:37.725Z</time></trkpt><trkpt lat="44.5750953" lon="9.801532"><ele>1116.0</ele><time>2026-05-02T11:25:39.725Z</time></trkpt><trkpt lat="44.5750663" lon="9.8014126"><ele>1116.0</ele><time>2026-05-02T11:25:41.725Z</time></trkpt><trkpt lat="44.575069" lon="9.8012818"><ele>1116.0</ele><time>2026-05-02T11:25:43.725Z</time></trkpt><trkpt lat="44.5750634" lon="9.8011569"><ele>1116.0</ele><time>2026-05-02T11:25:45.725Z</time></trkpt><trkpt lat="44.5750533" lon="9.8010189"><ele>1121.6</ele><time>2026-05-02T11:25:47.725Z</time></trkpt><trkpt lat="44.575021" lon="9.8008829"><ele>1127.1999999999998</ele><time>2026-05-02T11:25:49.726Z</time></trkpt><trkpt lat="44.5749869" lon="9.8007452"><ele>1132.8000000000002</ele><time>2026-05-02T11:25:51.726Z</time></trkpt><trkpt lat="44.5749779" lon="9.8005852"><ele>1138.4</ele><time>2026-05-02T11:25:53.726Z</time></trkpt><trkpt lat="44.574973" lon="9.8004745"><ele>1144.0</ele><time>2026-05-02T11:25:55.725Z</time></trkpt><trkpt lat="44.5749683" lon="9.8003423"><ele>1144.0</ele><time>2026-05-02T11:26:24.725Z</time></trkpt><trkpt lat="44.5749555" lon="9.8002492"><ele>1144.0</ele><time>2026-05-02T11:26:25.726Z</time></trkpt><trkpt lat="44.5749536" lon="9.8001271"><ele>1144.0</ele><time>2026-05-02T11:26:26.726Z</time></trkpt><trkpt lat="44.5749568" lon="9.7999994"><ele>1144.0</ele><time>2026-05-02T11:26:27.725Z</time></trkpt><trkpt lat="44.5749552" lon="9.7999071"><ele>1144.0</ele><time>2026-05-02T11:26:28.725Z</time></trkpt><trkpt lat="44.5748902" lon="9.7997978"><ele>1144.0</ele><time>2026-05-02T11:26:30.725Z</time></trkpt><trkpt lat="44.5747994" lon="9.7997803"><ele>1146.2</ele><time>2026-05-02T11:26:35.725Z</time></trkpt><trkpt lat="44.574733" lon="9.7997984"><ele>1148.4</ele><time>2026-05-02T11:26:36.725Z</time></trkpt><trkpt lat="44.5746228" lon="9.7998506"><ele>1150.6</ele><time>2026-05-02T11:26:38.725Z</time></trkpt><trkpt lat="44.5745741" lon="9.7999134"><ele>1152.8</ele><time>2026-05-02T11:26:39.727Z</time></trkpt><trkpt lat="44.574507" lon="9.8000131"><ele>1155.0</ele><time>2026-05-02T11:26:41.725Z</time></trkpt><trkpt lat="44.5743981" lon="9.8000726"><ele>1156.4</ele><time>2026-05-02T11:26:43.725Z</time></trkpt><trkpt lat="44.5742848" lon="9.8000556"><ele>1157.8</ele><time>2026-05-02T11:26:45.725Z</time></trkpt><trkpt lat="44.5742259" lon="9.8000184"><ele>1159.2</ele><time>2026-05-02T11:26:46.725Z</time></trkpt><trkpt lat="44.5740936" lon="9.7999939"><ele>1160.6</ele><time>2026-05-02T11:26:48.725Z</time></trkpt><trkpt lat="44.5740179" lon="9.7999807"><ele>1162.0</ele><time>2026-05-02T11:26:49.726Z</time></trkpt><trkpt lat="44.5739435" lon="9.799967"><ele>1162.0</ele><time>2026-05-02T11:26:50.726Z</time></trkpt><trkpt lat="44.5738794" lon="9.7999565"><ele>1162.0</ele><time>2026-05-02T11:26:51.725Z</time></trkpt><trkpt lat="44.5737966" lon="9.7998806"><ele>1162.0</ele><time>2026-05-02T11:26:53.725Z</time></trkpt><trkpt lat="44.5737265" lon="9.7999049"><ele>1162.0</ele><time>2026-05-02T11:26:55.725Z</time></trkpt><trkpt lat="44.5736324" lon="9.7999558"><ele>1162.0</ele><time>2026-05-02T11:26:57.725Z</time></trkpt><trkpt lat="44.5735334" lon="9.7999443"><ele>1162.0</ele><time>2026-05-02T11:26:59.725Z</time></trkpt><trkpt lat="44.5734128" lon="9.7999673"><ele>1163.2</ele><time>2026-05-02T11:27:01.725Z</time></trkpt><trkpt lat="44.5733174" lon="9.7999784"><ele>1164.4</ele><time>2026-05-02T11:27:03.726Z</time></trkpt><trkpt lat="44.5732316" lon="9.7999397"><ele>1165.6</ele><time>2026-05-02T11:27:05.726Z</time></trkpt><trkpt lat="44.5731512" lon="9.7998817"><ele>1166.8</ele><time>2026-05-02T11:27:07.726Z</time></trkpt><trkpt lat="44.5730567" lon="9.799874"><ele>1168.0</ele><time>2026-05-02T11:27:09.725Z</time></trkpt><trkpt lat="44.5729642" lon="9.7998901"><ele>1168.0</ele><time>2026-05-02T11:27:11.726Z</time></trkpt><trkpt lat="44.5728929" lon="9.7999158"><ele>1168.0</ele><time>2026-05-02T11:27:13.726Z</time></trkpt><trkpt lat="44.5728405" lon="9.7999789"><ele>1168.0</ele><time>2026-05-02T11:27:51.725Z</time></trkpt><trkpt lat="44.5727526" lon="9.8000358"><ele>1168.0</ele><time>2026-05-02T11:27:54.725Z</time></trkpt><trkpt lat="44.5726886" lon="9.8000885"><ele>1168.0</ele><time>2026-05-02T11:27:55.727Z</time></trkpt><trkpt lat="44.5726142" lon="9.8001954"><ele>1168.0</ele><time>2026-05-02T11:27:56.726Z</time></trkpt><trkpt lat="44.5725693" lon="9.8003439"><ele>1167.0</ele><time>2026-05-02T11:27:57.726Z</time></trkpt><trkpt lat="44.5725032" lon="9.8004544"><ele>1166.0</ele><time>2026-05-02T11:27:58.725Z</time></trkpt><trkpt lat="44.5724506" lon="9.800569"><ele>1165.0</ele><time>2026-05-02T11:27:59.725Z</time></trkpt><trkpt lat="44.5723938" lon="9.8006875"><ele>1164.0</ele><time>2026-05-02T11:28:00.725Z</time></trkpt><trkpt lat="44.5723423" lon="9.8008196"><ele>1163.0</ele><time>2026-05-02T11:28:01.726Z</time></trkpt><trkpt lat="44.5722937" lon="9.80094"><ele>1163.1666666666667</ele><time>2026-05-02T11:28:02.726Z</time></trkpt><trkpt lat="44.5722811" lon="9.8010614"><ele>1163.3333333333335</ele><time>2026-05-02T11:28:03.725Z</time></trkpt><trkpt lat="44.5722405" lon="9.8011521"><ele>1163.5</ele><time>2026-05-02T11:28:04.725Z</time></trkpt><trkpt lat="44.5721636" lon="9.8012398"><ele>1163.6666666666667</ele><time>2026-05-02T11:28:05.725Z</time></trkpt><trkpt lat="44.5721081" lon="9.8013008"><ele>1163.8333333333333</ele><time>2026-05-02T11:28:06.725Z</time></trkpt><trkpt lat="44.5720419" lon="9.8013863"><ele>1164.0</ele><time>2026-05-02T11:28:07.726Z</time></trkpt><trkpt lat="44.5719974" lon="9.8014691"><ele>1164.0</ele><time>2026-05-02T11:28:08.725Z</time></trkpt><trkpt lat="44.5719307" lon="9.8015408"><ele>1164.0</ele><time>2026-05-02T11:28:09.725Z</time></trkpt><trkpt lat="44.5718768" lon="9.8016103"><ele>1164.0</ele><time>2026-05-02T11:28:10.725Z</time></trkpt><trkpt lat="44.5718081" lon="9.8016517"><ele>1164.0</ele><time>2026-05-02T11:28:11.725Z</time></trkpt><trkpt lat="44.5717533" lon="9.8017138"><ele>1164.0</ele><time>2026-05-02T11:28:12.725Z</time></trkpt><trkpt lat="44.5716438" lon="9.8018063"><ele>1164.0</ele><time>2026-05-02T11:28:14.725Z</time></trkpt><trkpt lat="44.5715758" lon="9.8018602"><ele>1163.6666666666667</ele><time>2026-05-02T11:28:15.725Z</time></trkpt><trkpt lat="44.5715028" lon="9.801916"><ele>1163.3333333333333</ele><time>2026-05-02T11:28:16.725Z</time></trkpt><trkpt lat="44.5714364" lon="9.8019862"><ele>1163.0</ele><time>2026-05-02T11:28:17.726Z</time></trkpt><trkpt lat="44.5713511" lon="9.8020172"><ele>1162.6666666666665</ele><time>2026-05-02T11:28:18.725Z</time></trkpt><trkpt lat="44.5713002" lon="9.8020929"><ele>1162.3333333333333</ele><time>2026-05-02T11:28:19.725Z</time></trkpt><trkpt lat="44.5712396" lon="9.802173"><ele>1162.0</ele><time>2026-05-02T11:28:21.725Z</time></trkpt><trkpt lat="44.5711784" lon="9.8022675"><ele>1161.8</ele><time>2026-05-02T11:28:23.726Z</time></trkpt><trkpt lat="44.5710763" lon="9.8023383"><ele>1161.6</ele><time>2026-05-02T11:28:25.726Z</time></trkpt><trkpt lat="44.5710087" lon="9.8023706"><ele>1161.3999999999999</ele><time>2026-05-02T11:28:26.725Z</time></trkpt><trkpt lat="44.5709417" lon="9.8024078"><ele>1161.2</ele><time>2026-05-02T11:28:27.726Z</time></trkpt><trkpt lat="44.5708661" lon="9.8024462"><ele>1161.0</ele><time>2026-05-02T11:28:28.725Z</time></trkpt><trkpt lat="44.570752" lon="9.8025188"><ele>1161.0</ele><time>2026-05-02T11:28:30.726Z</time></trkpt><trkpt lat="44.5706384" lon="9.8026135"><ele>1161.0</ele><time>2026-05-02T11:28:32.725Z</time></trkpt><trkpt lat="44.5705636" lon="9.8026866"><ele>1161.0</ele><time>2026-05-02T11:28:34.725Z</time></trkpt><trkpt lat="44.5704843" lon="9.8027411"><ele>1161.0</ele><time>2026-05-02T11:28:36.725Z</time></trkpt><trkpt lat="44.5703959" lon="9.8027992"><ele>1161.0</ele><time>2026-05-02T11:28:38.725Z</time></trkpt><trkpt lat="44.5703263" lon="9.8028605"><ele>1159.6666666666667</ele><time>2026-05-02T11:28:40.726Z</time></trkpt><trkpt lat="44.5702533" lon="9.8029062"><ele>1158.3333333333333</ele><time>2026-05-02T11:28:42.725Z</time></trkpt><trkpt lat="44.5701708" lon="9.8029369"><ele>1157.0</ele><time>2026-05-02T11:28:44.726Z</time></trkpt><trkpt lat="44.5700784" lon="9.802975"><ele>1155.6666666666665</ele><time>2026-05-02T11:28:46.726Z</time></trkpt><trkpt lat="44.5699908" lon="9.8030289"><ele>1154.3333333333333</ele><time>2026-05-02T11:28:48.726Z</time></trkpt><trkpt lat="44.5699083" lon="9.803077"><ele>1153.0</ele><time>2026-05-02T11:28:50.725Z</time></trkpt><trkpt lat="44.5698328" lon="9.8031216"><ele>1153.0</ele><time>2026-05-02T11:28:52.725Z</time></trkpt><trkpt lat="44.5697693" lon="9.8031474"><ele>1153.0</ele><time>2026-05-02T11:28:58.725Z</time></trkpt><trkpt lat="44.5697031" lon="9.803142"><ele>1153.0</ele><time>2026-05-02T11:28:59.725Z</time></trkpt><trkpt lat="44.5696137" lon="9.8031778"><ele>1153.0</ele><time>2026-05-02T11:29:00.725Z</time></trkpt><trkpt lat="44.569555" lon="9.8032098"><ele>1153.0</ele><time>2026-05-02T11:29:01.725Z</time></trkpt><trkpt lat="44.5694824" lon="9.8032504"><ele>1153.0</ele><time>2026-05-02T11:29:02.726Z</time></trkpt><trkpt lat="44.5693899" lon="9.8032673"><ele>1153.0</ele><time>2026-05-02T11:29:04.726Z</time></trkpt><trkpt lat="44.5692873" lon="9.8032871"><ele>1153.0</ele><time>2026-05-02T11:29:06.725Z</time></trkpt><trkpt lat="44.5691848" lon="9.8033129"><ele>1153.0</ele><time>2026-05-02T11:29:08.725Z</time></trkpt><trkpt lat="44.5691083" lon="9.8034581"><ele>1153.0</ele><time>2026-05-02T11:29:10.726Z</time></trkpt><trkpt lat="44.5690695" lon="9.8035417"><ele>1153.0</ele><time>2026-05-02T11:29:11.725Z</time></trkpt><trkpt lat="44.5690194" lon="9.8036142"><ele>1153.0</ele><time>2026-05-02T11:29:12.726Z</time></trkpt><trkpt lat="44.56896" lon="9.8036936"><ele>1153.0</ele><time>2026-05-02T11:29:13.726Z</time></trkpt><trkpt lat="44.5689149" lon="9.8037974"><ele>1153.0</ele><time>2026-05-02T11:29:15.725Z</time></trkpt><trkpt lat="44.5688312" lon="9.8038769"><ele>1153.0</ele><time>2026-05-02T11:29:17.725Z</time></trkpt><trkpt lat="44.5687436" lon="9.8039698"><ele>1153.0</ele><time>2026-05-02T11:29:19.726Z</time></trkpt><trkpt lat="44.5686514" lon="9.8040346"><ele>1157.2</ele><time>2026-05-02T11:29:21.725Z</time></trkpt><trkpt lat="44.5685708" lon="9.8041137"><ele>1161.4</ele><time>2026-05-02T11:29:23.725Z</time></trkpt><trkpt lat="44.5684778" lon="9.8041995"><ele>1165.6000000000001</ele><time>2026-05-02T11:29:25.725Z</time></trkpt><trkpt lat="44.5683725" lon="9.8042484"><ele>1169.8</ele><time>2026-05-02T11:29:27.725Z</time></trkpt><trkpt lat="44.568254" lon="9.8041797"><ele>1174.0</ele><time>2026-05-02T11:29:29.725Z</time></trkpt><trkpt lat="44.5681675" lon="9.8041509"><ele>1174.0</ele><time>2026-05-02T11:29:30.725Z</time></trkpt><trkpt lat="44.5680787" lon="9.8040496"><ele>1174.0</ele><time>2026-05-02T11:29:32.725Z</time></trkpt><trkpt lat="44.567996" lon="9.8040157"><ele>1174.0</ele><time>2026-05-02T11:29:33.725Z</time></trkpt><trkpt lat="44.5678668" lon="9.8039845"><ele>1174.0</ele><time>2026-05-02T11:29:35.725Z</time></trkpt><trkpt lat="44.5677596" lon="9.803938"><ele>1174.0</ele><time>2026-05-02T11:29:37.726Z</time></trkpt><trkpt lat="44.5676977" lon="9.8039662"><ele>1176.0</ele><time>2026-05-02T11:29:39.725Z</time></trkpt><trkpt lat="44.5675909" lon="9.8040082"><ele>1178.0</ele><time>2026-05-02T11:29:41.725Z</time></trkpt><trkpt lat="44.5675173" lon="9.8040381"><ele>1180.0</ele><time>2026-05-02T11:29:42.727Z</time></trkpt><trkpt lat="44.5674446" lon="9.8040306"><ele>1182.0</ele><time>2026-05-02T11:29:43.725Z</time></trkpt><trkpt lat="44.567378" lon="9.8040039"><ele>1184.0</ele><time>2026-05-02T11:29:44.726Z</time></trkpt><trkpt lat="44.5673066" lon="9.8039859"><ele>1186.0</ele><time>2026-05-02T11:29:45.726Z</time></trkpt><trkpt lat="44.5672418" lon="9.8039722"><ele>1186.0</ele><time>2026-05-02T11:29:46.725Z</time></trkpt><trkpt lat="44.5671702" lon="9.8039372"><ele>1186.0</ele><time>2026-05-02T11:29:47.725Z</time></trkpt><trkpt lat="44.5671031" lon="9.8039055"><ele>1186.0</ele><time>2026-05-02T11:29:48.726Z</time></trkpt><trkpt lat="44.5670194" lon="9.8038741"><ele>1186.0</ele><time>2026-05-02T11:29:49.727Z</time></trkpt><trkpt lat="44.5668693" lon="9.8037783"><ele>1186.0</ele><time>2026-05-02T11:29:51.726Z</time></trkpt><trkpt lat="44.5668091" lon="9.8037228"><ele>1187.1666666666665</ele><time>2026-05-02T11:29:52.725Z</time></trkpt><trkpt lat="44.5667124" lon="9.8036574"><ele>1188.3333333333333</ele><time>2026-05-02T11:29:54.725Z</time></trkpt><trkpt lat="44.5666071" lon="9.803627"><ele>1189.5</ele><time>2026-05-02T11:29:56.725Z</time></trkpt><trkpt lat="44.5665342" lon="9.8036048"><ele>1190.6666666666667</ele><time>2026-05-02T11:29:58.725Z</time></trkpt><trkpt lat="44.5664708" lon="9.8035834"><ele>1191.8333333333335</ele><time>2026-05-02T11:30:00.725Z</time></trkpt><trkpt lat="44.5663967" lon="9.8035799"><ele>1193.0</ele><time>2026-05-02T11:30:03.726Z</time></trkpt><trkpt lat="44.5662439" lon="9.8035861"><ele>1192.6666666666667</ele><time>2026-05-02T11:30:05.725Z</time></trkpt><trkpt lat="44.5661446" lon="9.8036254"><ele>1192.3333333333335</ele><time>2026-05-02T11:30:07.726Z</time></trkpt><trkpt lat="44.5660867" lon="9.8036741"><ele>1192.0</ele><time>2026-05-02T11:30:09.725Z</time></trkpt><trkpt lat="44.5660077" lon="9.8036505"><ele>1191.6666666666667</ele><time>2026-05-02T11:30:11.725Z</time></trkpt><trkpt lat="44.5659515" lon="9.8035323"><ele>1191.3333333333333</ele><time>2026-05-02T11:30:13.725Z</time></trkpt><trkpt lat="44.5659355" lon="9.8034425"><ele>1191.0</ele><time>2026-05-02T11:30:14.725Z</time></trkpt><trkpt lat="44.5658779" lon="9.8033158"><ele>1188.6</ele><time>2026-05-02T11:30:16.725Z</time></trkpt><trkpt lat="44.5657935" lon="9.8032369"><ele>1186.1999999999998</ele><time>2026-05-02T11:30:18.725Z</time></trkpt><trkpt lat="44.5656771" lon="9.803166"><ele>1183.8000000000002</ele><time>2026-05-02T11:30:20.725Z</time></trkpt><trkpt lat="44.5655859" lon="9.8031659"><ele>1181.4</ele><time>2026-05-02T11:30:21.726Z</time></trkpt><trkpt lat="44.5655218" lon="9.8032258"><ele>1179.0</ele><time>2026-05-02T11:30:22.725Z</time></trkpt><trkpt lat="44.5654576" lon="9.8032191"><ele>1179.0</ele><time>2026-05-02T11:30:23.725Z</time></trkpt><trkpt lat="44.5653911" lon="9.8032243"><ele>1179.0</ele><time>2026-05-02T11:30:24.725Z</time></trkpt><trkpt lat="44.5653301" lon="9.8032674"><ele>1179.0</ele><time>2026-05-02T11:30:25.725Z</time></trkpt><trkpt lat="44.565243" lon="9.8032861"><ele>1179.0</ele><time>2026-05-02T11:30:26.725Z</time></trkpt><trkpt lat="44.5651727" lon="9.8032975"><ele>1179.0</ele><time>2026-05-02T11:30:27.725Z</time></trkpt><trkpt lat="44.565088" lon="9.8033269"><ele>1179.0</ele><time>2026-05-02T11:30:28.725Z</time></trkpt><trkpt lat="44.5650038" lon="9.8033444"><ele>1180.4</ele><time>2026-05-02T11:30:29.726Z</time></trkpt><trkpt lat="44.5649196" lon="9.8033295"><ele>1181.8000000000002</ele><time>2026-05-02T11:30:30.725Z</time></trkpt><trkpt lat="44.5647924" lon="9.8033429"><ele>1183.1999999999998</ele><time>2026-05-02T11:30:32.725Z</time></trkpt><trkpt lat="44.5647214" lon="9.8034534"><ele>1184.6</ele><time>2026-05-02T11:30:34.725Z</time></trkpt><trkpt lat="44.5646597" lon="9.8035777"><ele>1186.0</ele><time>2026-05-02T11:30:36.726Z</time></trkpt><trkpt lat="44.5645496" lon="9.8036238"><ele>1187.8333333333333</ele><time>2026-05-02T11:30:38.725Z</time></trkpt><trkpt lat="44.5644745" lon="9.80361"><ele>1189.6666666666665</ele><time>2026-05-02T11:30:39.725Z</time></trkpt><trkpt lat="44.5643445" lon="9.8036226"><ele>1191.5</ele><time>2026-05-02T11:30:41.725Z</time></trkpt><trkpt lat="44.5642541" lon="9.8036002"><ele>1193.3333333333333</ele><time>2026-05-02T11:30:42.726Z</time></trkpt><trkpt lat="44.5641881" lon="9.8035892"><ele>1195.1666666666667</ele><time>2026-05-02T11:30:43.725Z</time></trkpt><trkpt lat="44.5641183" lon="9.8035703"><ele>1197.0</ele><time>2026-05-02T11:30:44.725Z</time></trkpt><trkpt lat="44.563954" lon="9.8035196"><ele>1197.0</ele><time>2026-05-02T11:30:46.725Z</time></trkpt><trkpt lat="44.5638795" lon="9.8035174"><ele>1197.0</ele><time>2026-05-02T11:30:47.726Z</time></trkpt><trkpt lat="44.5638113" lon="9.8034994"><ele>1197.0</ele><time>2026-05-02T11:30:48.725Z</time></trkpt><trkpt lat="44.5637399" lon="9.8035196"><ele>1197.0</ele><time>2026-05-02T11:30:49.725Z</time></trkpt><trkpt lat="44.5636015" lon="9.8035069"><ele>1197.0</ele><time>2026-05-02T11:30:51.725Z</time></trkpt><trkpt lat="44.5635044" lon="9.8034818"><ele>1196.5</ele><time>2026-05-02T11:30:53.725Z</time></trkpt><trkpt lat="44.5634402" lon="9.8034586"><ele>1196.0</ele><time>2026-05-02T11:30:55.726Z</time></trkpt><trkpt lat="44.5633928" lon="9.803393"><ele>1195.5</ele><time>2026-05-02T11:30:57.726Z</time></trkpt><trkpt lat="44.5633742" lon="9.803208"><ele>1195.0</ele><time>2026-05-02T11:31:00.725Z</time></trkpt><trkpt lat="44.5633117" lon="9.8032608"><ele>1194.5</ele><time>2026-05-02T11:31:17.725Z</time></trkpt><trkpt lat="44.5632243" lon="9.8032455"><ele>1194.0</ele><time>2026-05-02T11:31:19.725Z</time></trkpt><trkpt lat="44.5631427" lon="9.8032328"><ele>1194.0</ele><time>2026-05-02T11:31:21.725Z</time></trkpt><trkpt lat="44.5630309" lon="9.8032227"><ele>1194.0</ele><time>2026-05-02T11:31:23.725Z</time></trkpt><trkpt lat="44.5629821" lon="9.8031028"><ele>1194.0</ele><time>2026-05-02T11:31:24.725Z</time></trkpt><trkpt lat="44.5629332" lon="9.8030109"><ele>1194.0</ele><time>2026-05-02T11:31:25.725Z</time></trkpt><trkpt lat="44.5628751" lon="9.8028846"><ele>1194.0</ele><time>2026-05-02T11:31:27.727Z</time></trkpt><trkpt lat="44.5628231" lon="9.8027946"><ele>1193.8333333333333</ele><time>2026-05-02T11:31:29.725Z</time></trkpt><trkpt lat="44.5627343" lon="9.802753"><ele>1193.6666666666667</ele><time>2026-05-02T11:31:31.725Z</time></trkpt><trkpt lat="44.5626219" lon="9.802714"><ele>1193.5</ele><time>2026-05-02T11:31:33.725Z</time></trkpt><trkpt lat="44.5625607" lon="9.8026652"><ele>1193.3333333333335</ele><time>2026-05-02T11:31:34.725Z</time></trkpt><trkpt lat="44.5624976" lon="9.8026358"><ele>1193.1666666666667</ele><time>2026-05-02T11:31:35.726Z</time></trkpt><trkpt lat="44.5624036" lon="9.802585"><ele>1193.0</ele><time>2026-05-02T11:31:37.725Z</time></trkpt><trkpt lat="44.5623297" lon="9.8025334"><ele>1194.5</ele><time>2026-05-02T11:31:39.726Z</time></trkpt><trkpt lat="44.5622017" lon="9.8024998"><ele>1196.0</ele><time>2026-05-02T11:31:41.725Z</time></trkpt><trkpt lat="44.5621321" lon="9.8024887"><ele>1197.5</ele><time>2026-05-02T11:31:42.725Z</time></trkpt><trkpt lat="44.5620612" lon="9.8024775"><ele>1199.0</ele><time>2026-05-02T11:31:43.725Z</time></trkpt><trkpt lat="44.5619875" lon="9.8024736"><ele>1200.5</ele><time>2026-05-02T11:31:44.726Z</time></trkpt><trkpt lat="44.5619224" lon="9.8024933"><ele>1202.0</ele><time>2026-05-02T11:31:45.725Z</time></trkpt><trkpt lat="44.5618079" lon="9.802538"><ele>1202.0</ele><time>2026-05-02T11:31:47.725Z</time></trkpt><trkpt lat="44.5617197" lon="9.8025539"><ele>1202.0</ele><time>2026-05-02T11:31:49.725Z</time></trkpt><trkpt lat="44.5616153" lon="9.8025783"><ele>1202.0</ele><time>2026-05-02T11:31:51.725Z</time></trkpt><trkpt lat="44.5615484" lon="9.8025949"><ele>1202.0</ele><time>2026-05-02T11:31:52.725Z</time></trkpt><trkpt lat="44.5614779" lon="9.8026086"><ele>1202.0</ele><time>2026-05-02T11:31:53.725Z</time></trkpt><trkpt lat="44.5614016" lon="9.8026425"><ele>1202.0</ele><time>2026-05-02T11:31:54.725Z</time></trkpt><trkpt lat="44.5613315" lon="9.8026528"><ele>1202.0</ele><time>2026-05-02T11:31:55.726Z</time></trkpt><trkpt lat="44.5612644" lon="9.802648"><ele>1202.0</ele><time>2026-05-02T11:31:56.725Z</time></trkpt><trkpt lat="44.5611869" lon="9.8026537"><ele>1202.0</ele><time>2026-05-02T11:31:57.725Z</time></trkpt><trkpt lat="44.5611176" lon="9.8026761"><ele>1202.0</ele><time>2026-05-02T11:31:58.726Z</time></trkpt><trkpt lat="44.5610475" lon="9.8026514"><ele>1202.0</ele><time>2026-05-02T11:31:59.725Z</time></trkpt><trkpt lat="44.5609282" lon="9.8026213"><ele>1202.0</ele><time>2026-05-02T11:32:01.725Z</time></trkpt><trkpt lat="44.560814" lon="9.8025943"><ele>1201.6</ele><time>2026-05-02T11:32:03.725Z</time></trkpt><trkpt lat="44.5607303" lon="9.8026213"><ele>1201.2</ele><time>2026-05-02T11:32:05.726Z</time></trkpt><trkpt lat="44.5606427" lon="9.8026447"><ele>1200.8</ele><time>2026-05-02T11:32:07.725Z</time></trkpt><trkpt lat="44.5605348" lon="9.8026746"><ele>1200.4</ele><time>2026-05-02T11:32:09.725Z</time></trkpt><trkpt lat="44.5604403" lon="9.8027398"><ele>1200.0</ele><time>2026-05-02T11:32:11.725Z</time></trkpt><trkpt lat="44.5603409" lon="9.8028153"><ele>1202.6</ele><time>2026-05-02T11:32:13.725Z</time></trkpt><trkpt lat="44.5602773" lon="9.802845"><ele>1205.2</ele><time>2026-05-02T11:32:14.725Z</time></trkpt><trkpt lat="44.5601845" lon="9.8028387"><ele>1207.8</ele><time>2026-05-02T11:32:16.725Z</time></trkpt><trkpt lat="44.5601136" lon="9.8028395"><ele>1210.4</ele><time>2026-05-02T11:32:17.725Z</time></trkpt><trkpt lat="44.5600004" lon="9.8028436"><ele>1213.0</ele><time>2026-05-02T11:32:19.725Z</time></trkpt><trkpt lat="44.5598919" lon="9.8028647"><ele>1213.0</ele><time>2026-05-02T11:32:21.725Z</time></trkpt><trkpt lat="44.5598324" lon="9.8029132"><ele>1213.0</ele><time>2026-05-02T11:32:22.725Z</time></trkpt><trkpt lat="44.5597798" lon="9.8029659"><ele>1213.0</ele><time>2026-05-02T11:32:23.725Z</time></trkpt><trkpt lat="44.5597082" lon="9.8030246"><ele>1213.0</ele><time>2026-05-02T11:32:24.726Z</time></trkpt><trkpt lat="44.5595943" lon="9.8030455"><ele>1213.0</ele><time>2026-05-02T11:32:26.726Z</time></trkpt><trkpt lat="44.5595132" lon="9.8030877"><ele>1213.0</ele><time>2026-05-02T11:32:28.725Z</time></trkpt><trkpt lat="44.5594499" lon="9.8031858"><ele>1210.4</ele><time>2026-05-02T11:32:29.725Z</time></trkpt><trkpt lat="44.5593758" lon="9.8032839"><ele>1207.8</ele><time>2026-05-02T11:32:31.726Z</time></trkpt><trkpt lat="44.5592941" lon="9.8033493"><ele>1205.2</ele><time>2026-05-02T11:32:33.726Z</time></trkpt><trkpt lat="44.5592183" lon="9.8033758"><ele>1202.6</ele><time>2026-05-02T11:32:42.726Z</time></trkpt><trkpt lat="44.5591393" lon="9.803439"><ele>1200.0</ele><time>2026-05-02T11:32:44.725Z</time></trkpt><trkpt lat="44.5590625" lon="9.8035709"><ele>1199.2</ele><time>2026-05-02T11:32:46.725Z</time></trkpt><trkpt lat="44.558999" lon="9.8036563"><ele>1198.4</ele><time>2026-05-02T11:32:47.725Z</time></trkpt><trkpt lat="44.5589167" lon="9.8037263"><ele>1197.6</ele><time>2026-05-02T11:32:48.726Z</time></trkpt><trkpt lat="44.5588696" lon="9.8037909"><ele>1196.8</ele><time>2026-05-02T11:32:49.725Z</time></trkpt><trkpt lat="44.5587703" lon="9.8038644"><ele>1196.0</ele><time>2026-05-02T11:32:50.725Z</time></trkpt><trkpt lat="44.5586826" lon="9.8039249"><ele>1195.3333333333335</ele><time>2026-05-02T11:32:51.726Z</time></trkpt><trkpt lat="44.5586342" lon="9.8040802"><ele>1194.6666666666667</ele><time>2026-05-02T11:32:53.725Z</time></trkpt><trkpt lat="44.5585847" lon="9.8041354"><ele>1194.0</ele><time>2026-05-02T11:32:54.726Z</time></trkpt><trkpt lat="44.5584752" lon="9.8041804"><ele>1193.3333333333333</ele><time>2026-05-02T11:32:56.725Z</time></trkpt><trkpt lat="44.5584114" lon="9.8041903"><ele>1192.6666666666665</ele><time>2026-05-02T11:32:57.725Z</time></trkpt><trkpt lat="44.558343" lon="9.8042216"><ele>1192.0</ele><time>2026-05-02T11:32:58.725Z</time></trkpt><trkpt lat="44.5582094" lon="9.8042338"><ele>1192.0</ele><time>2026-05-02T11:33:00.725Z</time></trkpt><trkpt lat="44.5581291" lon="9.804257"><ele>1192.0</ele><time>2026-05-02T11:33:01.725Z</time></trkpt><trkpt lat="44.5580683" lon="9.8042926"><ele>1192.0</ele><time>2026-05-02T11:33:02.725Z</time></trkpt><trkpt lat="44.5580029" lon="9.8043717"><ele>1192.0</ele><time>2026-05-02T11:33:03.725Z</time></trkpt><trkpt lat="44.5578924" lon="9.8044185"><ele>1192.0</ele><time>2026-05-02T11:33:05.725Z</time></trkpt><trkpt lat="44.5578258" lon="9.8044522"><ele>1192.0</ele><time>2026-05-02T11:33:06.726Z</time></trkpt><trkpt lat="44.55774" lon="9.8044671"><ele>1190.0</ele><time>2026-05-02T11:33:07.725Z</time></trkpt><trkpt lat="44.5576677" lon="9.8045197"><ele>1188.0</ele><time>2026-05-02T11:33:08.725Z</time></trkpt><trkpt lat="44.5576062" lon="9.8045473"><ele>1186.0</ele><time>2026-05-02T11:33:09.725Z</time></trkpt><trkpt lat="44.5574915" lon="9.8045829"><ele>1184.0</ele><time>2026-05-02T11:33:11.725Z</time></trkpt><trkpt lat="44.5574224" lon="9.8045786"><ele>1182.0</ele><time>2026-05-02T11:33:12.725Z</time></trkpt><trkpt lat="44.5573404" lon="9.8045937"><ele>1180.0</ele><time>2026-05-02T11:33:14.725Z</time></trkpt><trkpt lat="44.5572716" lon="9.8046288"><ele>1180.0</ele><time>2026-05-02T11:33:16.725Z</time></trkpt><trkpt lat="44.5572196" lon="9.8047356"><ele>1180.0</ele><time>2026-05-02T11:33:19.725Z</time></trkpt><trkpt lat="44.5571616" lon="9.8048345"><ele>1180.0</ele><time>2026-05-02T11:33:21.725Z</time></trkpt><trkpt lat="44.5570981" lon="9.8048965"><ele>1180.0</ele><time>2026-05-02T11:33:23.725Z</time></trkpt><trkpt lat="44.5570254" lon="9.8049474"><ele>1180.0</ele><time>2026-05-02T11:33:25.726Z</time></trkpt><trkpt lat="44.5569212" lon="9.8050654"><ele>1179.6</ele><time>2026-05-02T11:33:27.726Z</time></trkpt><trkpt lat="44.5568653" lon="9.8051347"><ele>1179.2</ele><time>2026-05-02T11:33:28.725Z</time></trkpt><trkpt lat="44.5568163" lon="9.8052109"><ele>1178.8</ele><time>2026-05-02T11:33:29.726Z</time></trkpt><trkpt lat="44.5567374" lon="9.8053468"><ele>1178.4</ele><time>2026-05-02T11:33:31.725Z</time></trkpt><trkpt lat="44.5566401" lon="9.8054129"><ele>1178.0</ele><time>2026-05-02T11:33:33.725Z</time></trkpt><trkpt lat="44.5565547" lon="9.8054871"><ele>1176.1666666666667</ele><time>2026-05-02T11:33:35.727Z</time></trkpt><trkpt lat="44.5564827" lon="9.8055815"><ele>1174.3333333333335</ele><time>2026-05-02T11:33:37.725Z</time></trkpt><trkpt lat="44.5564451" lon="9.8056715"><ele>1172.5</ele><time>2026-05-02T11:33:43.726Z</time></trkpt><trkpt lat="44.5564011" lon="9.8057383"><ele>1170.6666666666667</ele><time>2026-05-02T11:34:12.726Z</time></trkpt><trkpt lat="44.5563109" lon="9.8057276"><ele>1168.8333333333333</ele><time>2026-05-02T11:34:15.725Z</time></trkpt><trkpt lat="44.5562458" lon="9.805707"><ele>1167.0</ele><time>2026-05-02T11:34:26.726Z</time></trkpt><trkpt lat="44.5562209" lon="9.8057887"><ele>1165.6666666666667</ele><time>2026-05-02T11:35:59.726Z</time></trkpt><trkpt lat="44.5561873" lon="9.8058834"><ele>1164.3333333333333</ele><time>2026-05-02T11:36:01.725Z</time></trkpt><trkpt lat="44.5561188" lon="9.8059956"><ele>1163.0</ele><time>2026-05-02T11:36:03.725Z</time></trkpt><trkpt lat="44.5560431" lon="9.8060821"><ele>1161.6666666666665</ele><time>2026-05-02T11:36:05.725Z</time></trkpt><trkpt lat="44.5559907" lon="9.8061527"><ele>1160.3333333333333</ele><time>2026-05-02T11:36:07.725Z</time></trkpt><trkpt lat="44.5559315" lon="9.8062248"><ele>1159.0</ele><time>2026-05-02T11:36:10.725Z</time></trkpt><trkpt lat="44.5558683" lon="9.8062853"><ele>1157.5714285714287</ele><time>2026-05-02T11:36:13.726Z</time></trkpt><trkpt lat="44.5558357" lon="9.8063665"><ele>1156.142857142857</ele><time>2026-05-02T11:36:16.726Z</time></trkpt><trkpt lat="44.5558394" lon="9.806471"><ele>1154.7142857142858</ele><time>2026-05-02T11:36:19.725Z</time></trkpt><trkpt lat="44.5558717" lon="9.8065704"><ele>1153.2857142857142</ele><time>2026-05-02T11:36:22.725Z</time></trkpt><trkpt lat="44.55592" lon="9.8066462"><ele>1151.857142857143</ele><time>2026-05-02T11:36:25.725Z</time></trkpt><trkpt lat="44.5558865" lon="9.8067242"><ele>1150.4285714285716</ele><time>2026-05-02T11:36:30.725Z</time></trkpt><trkpt lat="44.5558178" lon="9.8067863"><ele>1149.0</ele><time>2026-05-02T11:36:33.725Z</time></trkpt><trkpt lat="44.555741" lon="9.8068553"><ele>1146.6000000000001</ele><time>2026-05-02T11:36:35.726Z</time></trkpt><trkpt lat="44.5556764" lon="9.8069793"><ele>1144.2</ele><time>2026-05-02T11:36:37.725Z</time></trkpt><trkpt lat="44.5556092" lon="9.8070958"><ele>1141.8000000000002</ele><time>2026-05-02T11:36:39.725Z</time></trkpt><trkpt lat="44.5555436" lon="9.8071657"><ele>1139.4</ele><time>2026-05-02T11:36:41.725Z</time></trkpt><trkpt lat="44.5554896" lon="9.807251"><ele>1137.0</ele><time>2026-05-02T11:36:43.725Z</time></trkpt><trkpt lat="44.5554422" lon="9.8073452"><ele>1137.0</ele><time>2026-05-02T11:36:45.725Z</time></trkpt><trkpt lat="44.5554096" lon="9.8074432"><ele>1137.0</ele><time>2026-05-02T11:36:46.726Z</time></trkpt><trkpt lat="44.5553263" lon="9.8075655"><ele>1137.0</ele><time>2026-05-02T11:36:48.726Z</time></trkpt><trkpt lat="44.5552206" lon="9.8076771"><ele>1137.0</ele><time>2026-05-02T11:36:50.725Z</time></trkpt><trkpt lat="44.5551962" lon="9.8078427"><ele>1137.6666666666667</ele><time>2026-05-02T11:36:52.725Z</time></trkpt><trkpt lat="44.555169" lon="9.8079265"><ele>1138.3333333333333</ele><time>2026-05-02T11:36:53.725Z</time></trkpt><trkpt lat="44.5551351" lon="9.8080076"><ele>1139.0</ele><time>2026-05-02T11:36:54.725Z</time></trkpt><trkpt lat="44.5550822" lon="9.808118"><ele>1139.6666666666665</ele><time>2026-05-02T11:36:56.725Z</time></trkpt><trkpt lat="44.5550328" lon="9.8082091"><ele>1140.3333333333333</ele><time>2026-05-02T11:36:58.726Z</time></trkpt><trkpt lat="44.5549544" lon="9.8082298"><ele>1141.0</ele><time>2026-05-02T11:36:59.725Z</time></trkpt><trkpt lat="44.554932" lon="9.8083169"><ele>1141.0</ele><time>2026-05-02T11:37:00.725Z</time></trkpt><trkpt lat="44.5548709" lon="9.8084293"><ele>1141.0</ele><time>2026-05-02T11:37:02.725Z</time></trkpt><trkpt lat="44.5547932" lon="9.8085544"><ele>1141.0</ele><time>2026-05-02T11:37:04.726Z</time></trkpt><trkpt lat="44.5547007" lon="9.8085909"><ele>1141.0</ele><time>2026-05-02T11:37:05.725Z</time></trkpt><trkpt lat="44.5546643" lon="9.8087334"><ele>1141.0</ele><time>2026-05-02T11:37:07.727Z</time></trkpt><trkpt lat="44.5546519" lon="9.8088311"><ele>1140.8333333333333</ele><time>2026-05-02T11:37:08.725Z</time></trkpt><trkpt lat="44.5546284" lon="9.8089498"><ele>1140.6666666666665</ele><time>2026-05-02T11:37:09.726Z</time></trkpt><trkpt lat="44.5546192" lon="9.8090454"><ele>1140.5</ele><time>2026-05-02T11:37:10.726Z</time></trkpt><trkpt lat="44.5546374" lon="9.8091818"><ele>1140.3333333333333</ele><time>2026-05-02T11:37:11.725Z</time></trkpt><trkpt lat="44.5546139" lon="9.8092853"><ele>1140.1666666666667</ele><time>2026-05-02T11:37:12.725Z</time></trkpt><trkpt lat="44.5545755" lon="9.8094093"><ele>1140.0</ele><time>2026-05-02T11:37:13.725Z</time></trkpt><trkpt lat="44.5545372" lon="9.8095147"><ele>1140.0</ele><time>2026-05-02T11:37:14.725Z</time></trkpt><trkpt lat="44.5545066" lon="9.8096134"><ele>1140.0</ele><time>2026-05-02T11:37:15.725Z</time></trkpt><trkpt lat="44.5544643" lon="9.8096968"><ele>1140.0</ele><time>2026-05-02T11:37:16.726Z</time></trkpt><trkpt lat="44.5543957" lon="9.8097886"><ele>1140.0</ele><time>2026-05-02T11:37:18.725Z</time></trkpt><trkpt lat="44.5543523" lon="9.8099163"><ele>1140.0</ele><time>2026-05-02T11:37:20.725Z</time></trkpt><trkpt lat="44.5543155" lon="9.8100744"><ele>1137.4</ele><time>2026-05-02T11:37:22.726Z</time></trkpt><trkpt lat="44.5542758" lon="9.8101995"><ele>1134.8</ele><time>2026-05-02T11:37:24.725Z</time></trkpt><trkpt lat="44.5541929" lon="9.8103028"><ele>1132.2</ele><time>2026-05-02T11:37:26.725Z</time></trkpt><trkpt lat="44.5541259" lon="9.8104268"><ele>1129.6</ele><time>2026-05-02T11:37:28.726Z</time></trkpt><trkpt lat="44.5541104" lon="9.8105223"><ele>1127.0</ele><time>2026-05-02T11:37:29.726Z</time></trkpt><trkpt lat="44.5540778" lon="9.8106055"><ele>1127.0</ele><time>2026-05-02T11:37:30.726Z</time></trkpt><trkpt lat="44.5540584" lon="9.8106998"><ele>1127.0</ele><time>2026-05-02T11:37:31.725Z</time></trkpt><trkpt lat="44.5539991" lon="9.8107677"><ele>1127.0</ele><time>2026-05-02T11:37:32.725Z</time></trkpt><trkpt lat="44.553924" lon="9.8107937"><ele>1127.0</ele><time>2026-05-02T11:37:33.725Z</time></trkpt><trkpt lat="44.5538671" lon="9.8108667"><ele>1127.0</ele><time>2026-05-02T11:37:35.725Z</time></trkpt><trkpt lat="44.5537884" lon="9.8109519"><ele>1127.0</ele><time>2026-05-02T11:37:40.725Z</time></trkpt><trkpt lat="44.5537066" lon="9.8110073"><ele>1128.0</ele><time>2026-05-02T11:37:43.725Z</time></trkpt><trkpt lat="44.5536565" lon="9.8110776"><ele>1129.0</ele><time>2026-05-02T11:37:47.725Z</time></trkpt><trkpt lat="44.5536054" lon="9.8111445"><ele>1130.0</ele><time>2026-05-02T11:37:49.725Z</time></trkpt><trkpt lat="44.5535528" lon="9.8112564"><ele>1131.0</ele><time>2026-05-02T11:37:51.725Z</time></trkpt><trkpt lat="44.5534857" lon="9.8113752"><ele>1132.0</ele><time>2026-05-02T11:37:53.725Z</time></trkpt><trkpt lat="44.5534049" lon="9.8115109"><ele>1132.0</ele><time>2026-05-02T11:37:55.725Z</time></trkpt><trkpt lat="44.5533523" lon="9.8115908"><ele>1132.0</ele><time>2026-05-02T11:37:56.726Z</time></trkpt><trkpt lat="44.5532935" lon="9.811671"><ele>1132.0</ele><time>2026-05-02T11:37:58.725Z</time></trkpt><trkpt lat="44.5531782" lon="9.8117339"><ele>1132.0</ele><time>2026-05-02T11:38:00.725Z</time></trkpt><trkpt lat="44.5531019" lon="9.8118262"><ele>1132.0</ele><time>2026-05-02T11:38:02.725Z</time></trkpt><trkpt lat="44.5530405" lon="9.8118812"><ele>1132.3333333333333</ele><time>2026-05-02T11:38:04.725Z</time></trkpt><trkpt lat="44.5529706" lon="9.8119004"><ele>1132.6666666666665</ele><time>2026-05-02T11:38:07.725Z</time></trkpt><trkpt lat="44.5529072" lon="9.8119035"><ele>1133.0</ele><time>2026-05-02T11:38:09.725Z</time></trkpt><trkpt lat="44.5528243" lon="9.8119347"><ele>1133.3333333333333</ele><time>2026-05-02T11:38:10.726Z</time></trkpt><trkpt lat="44.5527173" lon="9.8119586"><ele>1133.6666666666667</ele><time>2026-05-02T11:38:12.726Z</time></trkpt><trkpt lat="44.5526498" lon="9.811953"><ele>1134.0</ele><time>2026-05-02T11:38:13.725Z</time></trkpt><trkpt lat="44.5525817" lon="9.8119305"><ele>1134.0</ele><time>2026-05-02T11:38:14.725Z</time></trkpt><trkpt lat="44.5525169" lon="9.8119212"><ele>1134.0</ele><time>2026-05-02T11:38:15.725Z</time></trkpt><trkpt lat="44.5524522" lon="9.8118938"><ele>1134.0</ele><time>2026-05-02T11:38:16.725Z</time></trkpt><trkpt lat="44.5523676" lon="9.8118155"><ele>1134.0</ele><time>2026-05-02T11:38:18.725Z</time></trkpt><trkpt lat="44.5523075" lon="9.8117577"><ele>1134.0</ele><time>2026-05-02T12:07:30.724Z</time></trkpt><trkpt lat="44.5523444" lon="9.8118724"><ele>1134.0</ele><time>2026-05-02T12:07:46.722Z</time></trkpt><trkpt lat="44.5523688" lon="9.8119892"><ele>1134.0</ele><time>2026-05-02T12:07:48.723Z</time></trkpt><trkpt lat="44.5523356" lon="9.8121007"><ele>1134.0</ele><time>2026-05-02T12:07:50.722Z</time></trkpt><trkpt lat="44.5522618" lon="9.81218"><ele>1134.0</ele><time>2026-05-02T12:07:52.722Z</time></trkpt><trkpt lat="44.5521721" lon="9.8122318"><ele>1134.0</ele><time>2026-05-02T12:07:54.722Z</time></trkpt><trkpt lat="44.5520994" lon="9.8122756"><ele>1134.0</ele><time>2026-05-02T12:07:57.722Z</time></trkpt><trkpt lat="44.552018" lon="9.812341"><ele>1134.0</ele><time>2026-05-02T12:07:59.722Z</time></trkpt><trkpt lat="44.5519567" lon="9.8123832"><ele>1135.2</ele><time>2026-05-02T12:08:00.723Z</time></trkpt><trkpt lat="44.5518998" lon="9.8124863"><ele>1136.4</ele><time>2026-05-02T12:08:02.723Z</time></trkpt><trkpt lat="44.5518297" lon="9.8125546"><ele>1137.6</ele><time>2026-05-02T12:08:04.722Z</time></trkpt><trkpt lat="44.5517666" lon="9.8126006"><ele>1138.8</ele><time>2026-05-02T12:08:05.722Z</time></trkpt><trkpt lat="44.5516313" lon="9.8126354"><ele>1140.0</ele><time>2026-05-02T12:08:07.722Z</time></trkpt><trkpt lat="44.5514871" lon="9.8126768"><ele>1137.4</ele><time>2026-05-02T12:08:09.723Z</time></trkpt><trkpt lat="44.5513689" lon="9.8127227"><ele>1134.8</ele><time>2026-05-02T12:08:10.723Z</time></trkpt><trkpt lat="44.5512812" lon="9.8127762"><ele>1132.2</ele><time>2026-05-02T12:08:11.722Z</time></trkpt><trkpt lat="44.5512187" lon="9.8128317"><ele>1129.6</ele><time>2026-05-02T12:08:12.722Z</time></trkpt><trkpt lat="44.5511461" lon="9.8128894"><ele>1127.0</ele><time>2026-05-02T12:08:13.723Z</time></trkpt><trkpt lat="44.5510751" lon="9.8129539"><ele>1127.0</ele><time>2026-05-02T12:08:14.722Z</time></trkpt><trkpt lat="44.5509846" lon="9.8130084"><ele>1127.0</ele><time>2026-05-02T12:08:15.722Z</time></trkpt><trkpt lat="44.5508833" lon="9.8130588"><ele>1127.0</ele><time>2026-05-02T12:08:16.722Z</time></trkpt><trkpt lat="44.5508104" lon="9.813124"><ele>1127.0</ele><time>2026-05-02T12:08:17.722Z</time></trkpt><trkpt lat="44.5507355" lon="9.8132201"><ele>1127.0</ele><time>2026-05-02T12:08:18.722Z</time></trkpt><trkpt lat="44.5506539" lon="9.8132992"><ele>1127.0</ele><time>2026-05-02T12:08:19.722Z</time></trkpt><trkpt lat="44.5505836" lon="9.8133805"><ele>1127.0</ele><time>2026-05-02T12:08:20.722Z</time></trkpt><trkpt lat="44.550507" lon="9.8135032"><ele>1127.0</ele><time>2026-05-02T12:08:22.722Z</time></trkpt><trkpt lat="44.5504587" lon="9.8135712"><ele>1127.0</ele><time>2026-05-02T12:08:23.722Z</time></trkpt><trkpt lat="44.550411" lon="9.8136508"><ele>1127.0</ele><time>2026-05-02T12:08:24.722Z</time></trkpt><trkpt lat="44.5503283" lon="9.8137582"><ele>1128.3333333333335</ele><time>2026-05-02T12:08:26.722Z</time></trkpt><trkpt lat="44.5503034" lon="9.8138486"><ele>1129.6666666666667</ele><time>2026-05-02T12:08:28.722Z</time></trkpt><trkpt lat="44.5502541" lon="9.8139869"><ele>1131.0</ele><time>2026-05-02T12:08:30.722Z</time></trkpt><trkpt lat="44.5502289" lon="9.8140695"><ele>1132.3333333333333</ele><time>2026-05-02T12:08:31.722Z</time></trkpt><trkpt lat="44.5501752" lon="9.8141748"><ele>1133.6666666666665</ele><time>2026-05-02T12:08:32.723Z</time></trkpt><trkpt lat="44.5501596" lon="9.81428"><ele>1135.0</ele><time>2026-05-02T12:08:33.722Z</time></trkpt><trkpt lat="44.5501332" lon="9.8143886"><ele>1132.0</ele><time>2026-05-02T12:08:34.722Z</time></trkpt><trkpt lat="44.5501098" lon="9.8144871"><ele>1129.0</ele><time>2026-05-02T12:08:35.722Z</time></trkpt><trkpt lat="44.5500777" lon="9.8145834"><ele>1126.0</ele><time>2026-05-02T12:08:36.722Z</time></trkpt><trkpt lat="44.5500139" lon="9.8147112"><ele>1123.0</ele><time>2026-05-02T12:08:38.722Z</time></trkpt><trkpt lat="44.5500059" lon="9.8148072"><ele>1120.0</ele><time>2026-05-02T12:08:39.722Z</time></trkpt><trkpt lat="44.5499946" lon="9.8149699"><ele>1117.0</ele><time>2026-05-02T12:08:41.722Z</time></trkpt><trkpt lat="44.5499908" lon="9.8150747"><ele>1114.1666666666665</ele><time>2026-05-02T12:08:42.722Z</time></trkpt><trkpt lat="44.5499763" lon="9.8152235"><ele>1111.3333333333333</ele><time>2026-05-02T12:08:44.723Z</time></trkpt><trkpt lat="44.5499086" lon="9.8152989"><ele>1108.5</ele><time>2026-05-02T12:08:45.722Z</time></trkpt><trkpt lat="44.5498676" lon="9.815398"><ele>1105.6666666666667</ele><time>2026-05-02T12:08:46.722Z</time></trkpt><trkpt lat="44.5498066" lon="9.8154831"><ele>1102.8333333333335</ele><time>2026-05-02T12:08:47.722Z</time></trkpt><trkpt lat="44.5497564" lon="9.8155571"><ele>1100.0</ele><time>2026-05-02T12:08:48.722Z</time></trkpt><trkpt lat="44.5497009" lon="9.8156351"><ele>1100.0</ele><time>2026-05-02T12:08:50.723Z</time></trkpt><trkpt lat="44.5496498" lon="9.8157321"><ele>1100.0</ele><time>2026-05-02T12:08:52.722Z</time></trkpt><trkpt lat="44.5496148" lon="9.8158677"><ele>1100.0</ele><time>2026-05-02T12:08:54.722Z</time></trkpt><trkpt lat="44.5495738" lon="9.8160085"><ele>1100.0</ele><time>2026-05-02T12:08:56.722Z</time></trkpt><trkpt lat="44.5495408" lon="9.8160839"><ele>1100.0</ele><time>2026-05-02T12:08:57.722Z</time></trkpt><trkpt lat="44.5494865" lon="9.8162146"><ele>1099.6</ele><time>2026-05-02T12:08:59.724Z</time></trkpt><trkpt lat="44.5494652" lon="9.8163206"><ele>1099.2</ele><time>2026-05-02T12:09:01.722Z</time></trkpt><trkpt lat="44.5493786" lon="9.8164367"><ele>1098.8</ele><time>2026-05-02T12:09:03.722Z</time></trkpt><trkpt lat="44.5493251" lon="9.8164947"><ele>1098.4</ele><time>2026-05-02T12:09:04.722Z</time></trkpt><trkpt lat="44.5492269" lon="9.8165892"><ele>1098.0</ele><time>2026-05-02T12:09:06.722Z</time></trkpt><trkpt lat="44.5491574" lon="9.8166308"><ele>1098.0</ele><time>2026-05-02T12:09:07.724Z</time></trkpt><trkpt lat="44.5490701" lon="9.8166569"><ele>1098.0</ele><time>2026-05-02T12:09:09.723Z</time></trkpt><trkpt lat="44.5489627" lon="9.816711"><ele>1098.0</ele><time>2026-05-02T12:09:11.722Z</time></trkpt><trkpt lat="44.5488983" lon="9.8167361"><ele>1098.0</ele><time>2026-05-02T12:09:12.722Z</time></trkpt><trkpt lat="44.5487558" lon="9.8167419"><ele>1098.0</ele><time>2026-05-02T12:09:14.722Z</time></trkpt><trkpt lat="44.5486686" lon="9.8167286"><ele>1099.3333333333333</ele><time>2026-05-02T12:09:15.722Z</time></trkpt><trkpt lat="44.5485895" lon="9.8167444"><ele>1100.6666666666667</ele><time>2026-05-02T12:09:17.724Z</time></trkpt><trkpt lat="44.5485022" lon="9.816739"><ele>1102.0</ele><time>2026-05-02T12:09:19.722Z</time></trkpt><trkpt lat="44.5484338" lon="9.8167514"><ele>1103.3333333333335</ele><time>2026-05-02T12:09:21.722Z</time></trkpt><trkpt lat="44.5483501" lon="9.816775"><ele>1104.6666666666667</ele><time>2026-05-02T12:09:23.722Z</time></trkpt><trkpt lat="44.5482727" lon="9.8168098"><ele>1106.0</ele><time>2026-05-02T12:09:25.722Z</time></trkpt><trkpt lat="44.548182" lon="9.8169179"><ele>1103.1666666666667</ele><time>2026-05-02T12:09:28.723Z</time></trkpt><trkpt lat="44.5480728" lon="9.816986"><ele>1100.3333333333335</ele><time>2026-05-02T12:09:30.722Z</time></trkpt><trkpt lat="44.5480097" lon="9.8170455"><ele>1097.5</ele><time>2026-05-02T12:09:31.722Z</time></trkpt><trkpt lat="44.5479482" lon="9.8170904"><ele>1094.6666666666667</ele><time>2026-05-02T12:09:32.723Z</time></trkpt><trkpt lat="44.5478868" lon="9.8171548"><ele>1091.8333333333333</ele><time>2026-05-02T12:09:33.723Z</time></trkpt><trkpt lat="44.5478175" lon="9.8171952"><ele>1089.0</ele><time>2026-05-02T12:09:34.722Z</time></trkpt><trkpt lat="44.5477434" lon="9.8172523"><ele>1089.0</ele><time>2026-05-02T12:09:35.722Z</time></trkpt><trkpt lat="44.54768" lon="9.8173079"><ele>1089.0</ele><time>2026-05-02T12:09:36.722Z</time></trkpt><trkpt lat="44.5476354" lon="9.8173905"><ele>1089.0</ele><time>2026-05-02T12:09:37.722Z</time></trkpt><trkpt lat="44.54762" lon="9.8175025"><ele>1089.0</ele><time>2026-05-02T12:09:39.722Z</time></trkpt><trkpt lat="44.5476128" lon="9.8176644"><ele>1089.0</ele><time>2026-05-02T12:09:41.722Z</time></trkpt><trkpt lat="44.547582" lon="9.8177786"><ele>1089.0</ele><time>2026-05-02T12:09:43.723Z</time></trkpt><trkpt lat="44.5475213" lon="9.8178584"><ele>1086.6666666666667</ele><time>2026-05-02T12:09:45.722Z</time></trkpt><trkpt lat="44.5474835" lon="9.8179634"><ele>1084.3333333333333</ele><time>2026-05-02T12:09:48.723Z</time></trkpt><trkpt lat="44.547436" lon="9.8180222"><ele>1082.0</ele><time>2026-05-02T12:09:49.722Z</time></trkpt><trkpt lat="44.5473947" lon="9.8180911"><ele>1079.6666666666665</ele><time>2026-05-02T12:09:50.722Z</time></trkpt><trkpt lat="44.5473" lon="9.8181744"><ele>1077.3333333333333</ele><time>2026-05-02T12:09:52.723Z</time></trkpt><trkpt lat="44.5472144" lon="9.8181991"><ele>1075.0</ele><time>2026-05-02T12:09:54.722Z</time></trkpt><trkpt lat="44.5471495" lon="9.8181927"><ele>1075.0000000000002</ele><time>2026-05-02T12:09:57.722Z</time></trkpt><trkpt lat="44.5470803" lon="9.8181805"><ele>1075.0</ele><time>2026-05-02T12:09:59.723Z</time></trkpt><trkpt lat="44.5470094" lon="9.818204"><ele>1075.0</ele><time>2026-05-02T12:10:01.723Z</time></trkpt><trkpt lat="44.5469368" lon="9.8182158"><ele>1075.0</ele><time>2026-05-02T12:10:04.722Z</time></trkpt><trkpt lat="44.5469459" lon="9.8183348"><ele>1075.0</ele><time>2026-05-02T12:10:07.723Z</time></trkpt><trkpt lat="44.5469375" lon="9.8184326"><ele>1075.0000000000002</ele><time>2026-05-02T12:10:09.723Z</time></trkpt><trkpt lat="44.5469178" lon="9.8185322"><ele>1075.0</ele><time>2026-05-02T12:10:11.722Z</time></trkpt><trkpt lat="44.5468999" lon="9.8186316"><ele>1071.0</ele><time>2026-05-02T12:10:14.723Z</time></trkpt><trkpt lat="44.5468397" lon="9.8187098"><ele>1067.0</ele><time>2026-05-02T12:10:18.722Z</time></trkpt><trkpt lat="44.5467573" lon="9.8186981"><ele>1063.0</ele><time>2026-05-02T12:10:20.722Z</time></trkpt><trkpt lat="44.5466579" lon="9.8186878"><ele>1059.0</ele><time>2026-05-02T12:10:22.722Z</time></trkpt><trkpt lat="44.5465937" lon="9.8187162"><ele>1055.0</ele><time>2026-05-02T12:10:23.723Z</time></trkpt><trkpt lat="44.5465374" lon="9.8187642"><ele>1051.0</ele><time>2026-05-02T12:10:24.722Z</time></trkpt><trkpt lat="44.5464783" lon="9.818822"><ele>1051.0</ele><time>2026-05-02T12:10:25.722Z</time></trkpt><trkpt lat="44.5464553" lon="9.8189748"><ele>1051.0</ele><time>2026-05-02T12:10:27.722Z</time></trkpt><trkpt lat="44.5463954" lon="9.8190198"><ele>1051.0</ele><time>2026-05-02T12:10:29.722Z</time></trkpt><trkpt lat="44.5463037" lon="9.8190081"><ele>1051.0</ele><time>2026-05-02T12:10:32.722Z</time></trkpt><trkpt lat="44.5462378" lon="9.818991"><ele>1051.0</ele><time>2026-05-02T12:10:34.722Z</time></trkpt><trkpt lat="44.5461507" lon="9.8190135"><ele>1051.0</ele><time>2026-05-02T12:10:36.723Z</time></trkpt><trkpt lat="44.5460524" lon="9.8190232"><ele>1050.6</ele><time>2026-05-02T12:10:38.723Z</time></trkpt><trkpt lat="44.5459611" lon="9.8190516"><ele>1050.1999999999998</ele><time>2026-05-02T12:10:41.722Z</time></trkpt><trkpt lat="44.5459007" lon="9.8190976"><ele>1049.8000000000002</ele><time>2026-05-02T12:10:43.722Z</time></trkpt><trkpt lat="44.5457968" lon="9.8191581"><ele>1049.4</ele><time>2026-05-02T12:10:45.723Z</time></trkpt><trkpt lat="44.5457368" lon="9.819213"><ele>1049.0</ele><time>2026-05-02T12:10:46.722Z</time></trkpt><trkpt lat="44.5456751" lon="9.8193531"><ele>1046.0</ele><time>2026-05-02T12:10:48.722Z</time></trkpt><trkpt lat="44.5456286" lon="9.8194217"><ele>1043.0</ele><time>2026-05-02T12:10:49.722Z</time></trkpt><trkpt lat="44.5456095" lon="9.8195173"><ele>1040.0</ele><time>2026-05-02T12:10:50.722Z</time></trkpt><trkpt lat="44.545583" lon="9.8196008"><ele>1037.0</ele><time>2026-05-02T12:10:51.723Z</time></trkpt><trkpt lat="44.5455308" lon="9.8196508"><ele>1034.0</ele><time>2026-05-02T12:10:52.722Z</time></trkpt><trkpt lat="44.5454206" lon="9.8197492"><ele>1031.0</ele><time>2026-05-02T12:10:54.722Z</time></trkpt><trkpt lat="44.545337" lon="9.8198675"><ele>1031.0</ele><time>2026-05-02T12:10:56.722Z</time></trkpt><trkpt lat="44.5452853" lon="9.8199332"><ele>1031.0</ele><time>2026-05-02T12:10:57.722Z</time></trkpt><trkpt lat="44.5452348" lon="9.8199922"><ele>1031.0</ele><time>2026-05-02T12:10:58.722Z</time></trkpt><trkpt lat="44.5451881" lon="9.8200686"><ele>1031.0</ele><time>2026-05-02T12:10:59.722Z</time></trkpt><trkpt lat="44.545142" lon="9.8201336"><ele>1031.0</ele><time>2026-05-02T12:11:00.722Z</time></trkpt><trkpt lat="44.5450923" lon="9.8201934"><ele>1031.0</ele><time>2026-05-02T12:11:01.722Z</time></trkpt><trkpt lat="44.5450409" lon="9.8202527"><ele>1031.0</ele><time>2026-05-02T12:11:02.722Z</time></trkpt><trkpt lat="44.5449638" lon="9.8203949"><ele>1027.8</ele><time>2026-05-02T12:11:04.722Z</time></trkpt><trkpt lat="44.5449517" lon="9.8204851"><ele>1024.6</ele><time>2026-05-02T12:11:05.722Z</time></trkpt><trkpt lat="44.5449101" lon="9.8206338"><ele>1021.4</ele><time>2026-05-02T12:11:07.722Z</time></trkpt><trkpt lat="44.5448578" lon="9.8207692"><ele>1018.2</ele><time>2026-05-02T12:11:09.722Z</time></trkpt><trkpt lat="44.5448012" lon="9.8208435"><ele>1015.0</ele><time>2026-05-02T12:11:10.722Z</time></trkpt><trkpt lat="44.5447473" lon="9.8209785"><ele>1012.6666666666666</ele><time>2026-05-02T12:11:12.722Z</time></trkpt><trkpt lat="44.5447053" lon="9.8211192"><ele>1010.3333333333333</ele><time>2026-05-02T12:11:14.722Z</time></trkpt><trkpt lat="44.544666" lon="9.8211908"><ele>1008.0</ele><time>2026-05-02T12:11:16.722Z</time></trkpt><trkpt lat="44.5446326" lon="9.8213031"><ele>1005.6666666666667</ele><time>2026-05-02T12:11:19.722Z</time></trkpt><trkpt lat="44.5445963" lon="9.8213938"><ele>1003.3333333333334</ele><time>2026-05-02T12:11:21.723Z</time></trkpt><trkpt lat="44.5445712" lon="9.8215023"><ele>1001.0</ele><time>2026-05-02T12:11:23.723Z</time></trkpt><trkpt lat="44.5445775" lon="9.8216048"><ele>1001.0000000000001</ele><time>2026-05-02T12:11:25.723Z</time></trkpt><trkpt lat="44.5445839" lon="9.8217163"><ele>1001.0</ele><time>2026-05-02T12:11:27.723Z</time></trkpt><trkpt lat="44.5445593" lon="9.8218064"><ele>1001.0</ele><time>2026-05-02T12:11:29.722Z</time></trkpt><trkpt lat="44.5445257" lon="9.8219002"><ele>1001.0</ele><time>2026-05-02T12:11:31.722Z</time></trkpt><trkpt lat="44.5444709" lon="9.8219602"><ele>1001.0000000000001</ele><time>2026-05-02T12:11:33.722Z</time></trkpt><trkpt lat="44.5444079" lon="9.8220201"><ele>1001.0</ele><time>2026-05-02T12:11:35.722Z</time></trkpt><trkpt lat="44.5443302" lon="9.822124"><ele>1001.1999999999999</ele><time>2026-05-02T12:11:37.722Z</time></trkpt><trkpt lat="44.5442869" lon="9.8222311"><ele>1001.3999999999999</ele><time>2026-05-02T12:11:39.722Z</time></trkpt><trkpt lat="44.5442551" lon="9.8223494"><ele>1001.6</ele><time>2026-05-02T12:11:41.722Z</time></trkpt><trkpt lat="44.5442091" lon="9.8225055"><ele>1001.8</ele><time>2026-05-02T12:11:43.722Z</time></trkpt><trkpt lat="44.5441616" lon="9.8226462"><ele>1002.0</ele><time>2026-05-02T12:11:45.722Z</time></trkpt><trkpt lat="44.544121" lon="9.8227258"><ele>999.1666666666666</ele><time>2026-05-02T12:11:46.723Z</time></trkpt><trkpt lat="44.5440803" lon="9.8227982"><ele>996.3333333333333</ele><time>2026-05-02T12:11:47.722Z</time></trkpt><trkpt lat="44.543973" lon="9.8228853"><ele>993.5</ele><time>2026-05-02T12:11:49.723Z</time></trkpt><trkpt lat="44.5439186" lon="9.8229675"><ele>990.6666666666666</ele><time>2026-05-02T12:11:51.722Z</time></trkpt><trkpt lat="44.5438752" lon="9.8230639"><ele>987.8333333333333</ele><time>2026-05-02T12:11:53.722Z</time></trkpt><trkpt lat="44.5438585" lon="9.8231743"><ele>985.0</ele><time>2026-05-02T12:11:55.722Z</time></trkpt><trkpt lat="44.5438365" lon="9.8232823"><ele>985.0</ele><time>2026-05-02T12:11:57.722Z</time></trkpt><trkpt lat="44.5438133" lon="9.8234056"><ele>985.0</ele><time>2026-05-02T12:11:59.722Z</time></trkpt><trkpt lat="44.5437802" lon="9.8235258"><ele>985.0</ele><time>2026-05-02T12:12:01.722Z</time></trkpt><trkpt lat="44.5437289" lon="9.8236339"><ele>985.0</ele><time>2026-05-02T12:12:04.722Z</time></trkpt><trkpt lat="44.543675" lon="9.823724"><ele>985.0</ele><time>2026-05-02T12:12:06.722Z</time></trkpt><trkpt lat="44.5436131" lon="9.823832"><ele>986.0</ele><time>2026-05-02T12:12:08.723Z</time></trkpt><trkpt lat="44.5435561" lon="9.8239704"><ele>987.0</ele><time>2026-05-02T12:12:10.722Z</time></trkpt><trkpt lat="44.5435501" lon="9.8240591"><ele>988.0</ele><time>2026-05-02T12:12:11.722Z</time></trkpt><trkpt lat="44.543549" lon="9.8241619"><ele>989.0</ele><time>2026-05-02T12:12:12.722Z</time></trkpt><trkpt lat="44.5435186" lon="9.8242576"><ele>990.0</ele><time>2026-05-02T12:12:13.722Z</time></trkpt><trkpt lat="44.5434334" lon="9.8244176"><ele>987.0</ele><time>2026-05-02T12:12:15.722Z</time></trkpt><trkpt lat="44.5434241" lon="9.8245137"><ele>984.0</ele><time>2026-05-02T12:12:16.722Z</time></trkpt><trkpt lat="44.543392" lon="9.8245976"><ele>981.0</ele><time>2026-05-02T12:12:17.723Z</time></trkpt><trkpt lat="44.5433003" lon="9.8246913"><ele>978.0</ele><time>2026-05-02T12:12:19.722Z</time></trkpt><trkpt lat="44.5432975" lon="9.8247884"><ele>975.0</ele><time>2026-05-02T12:12:21.722Z</time></trkpt><trkpt lat="44.5432545" lon="9.8248862"><ele>972.0</ele><time>2026-05-02T12:12:23.722Z</time></trkpt><trkpt lat="44.5432029" lon="9.8249899"><ele>972.0</ele><time>2026-05-02T12:12:25.722Z</time></trkpt><trkpt lat="44.5431839" lon="9.8251162"><ele>972.0</ele><time>2026-05-02T12:12:28.722Z</time></trkpt><trkpt lat="44.5431423" lon="9.8252127"><ele>972.0</ele><time>2026-05-02T12:12:30.722Z</time></trkpt><trkpt lat="44.5431397" lon="9.825361"><ele>972.0</ele><time>2026-05-02T12:12:32.723Z</time></trkpt><trkpt lat="44.5431732" lon="9.8254614"><ele>972.0</ele><time>2026-05-02T12:12:34.722Z</time></trkpt><trkpt lat="44.5432123" lon="9.8255314"><ele>972.0</ele><time>2026-05-02T12:12:36.722Z</time></trkpt><trkpt lat="44.5432624" lon="9.8254715"><ele>968.6666666666666</ele><time>2026-05-02T12:12:37.723Z</time></trkpt><trkpt lat="44.5433732" lon="9.8253214"><ele>965.3333333333333</ele><time>2026-05-02T12:12:39.723Z</time></trkpt><trkpt lat="44.5434243" lon="9.8252644"><ele>962.0</ele><time>2026-05-02T12:12:40.723Z</time></trkpt><trkpt lat="44.5435114" lon="9.8252196"><ele>958.6666666666666</ele><time>2026-05-02T12:12:42.722Z</time></trkpt><trkpt lat="44.5435707" lon="9.8252568"><ele>955.3333333333333</ele><time>2026-05-02T12:12:44.722Z</time></trkpt><trkpt lat="44.5436209" lon="9.8253228"><ele>952.0</ele><time>2026-05-02T12:12:46.722Z</time></trkpt><trkpt lat="44.5435982" lon="9.8254254"><ele>951.9999999999999</ele><time>2026-05-02T12:12:50.722Z</time></trkpt><trkpt lat="44.5435971" lon="9.8255323"><ele>952.0</ele><time>2026-05-02T12:12:52.723Z</time></trkpt><trkpt lat="44.5435719" lon="9.8256279"><ele>952.0</ele><time>2026-05-02T12:12:54.722Z</time></trkpt><trkpt lat="44.5435321" lon="9.8257207"><ele>952.0</ele><time>2026-05-02T12:12:57.722Z</time></trkpt><trkpt lat="44.5434994" lon="9.8258467"><ele>951.9999999999999</ele><time>2026-05-02T12:13:00.722Z</time></trkpt><trkpt lat="44.5434789" lon="9.8259363"><ele>952.0</ele><time>2026-05-02T12:13:02.722Z</time></trkpt><trkpt lat="44.5434851" lon="9.8260659"><ele>950.1428571428571</ele><time>2026-05-02T12:13:06.722Z</time></trkpt><trkpt lat="44.5434753" lon="9.8261628"><ele>948.2857142857142</ele><time>2026-05-02T12:13:08.722Z</time></trkpt><trkpt lat="44.5434641" lon="9.8262566"><ele>946.4285714285714</ele><time>2026-05-02T12:13:10.722Z</time></trkpt><trkpt lat="44.5434458" lon="9.8263648"><ele>944.5714285714286</ele><time>2026-05-02T12:13:12.722Z</time></trkpt><trkpt lat="44.5434316" lon="9.8264516"><ele>942.7142857142857</ele><time>2026-05-02T12:13:14.722Z</time></trkpt><trkpt lat="44.5434284" lon="9.8265564"><ele>940.8571428571429</ele><time>2026-05-02T12:13:16.722Z</time></trkpt><trkpt lat="44.5434557" lon="9.8266589"><ele>939.0</ele><time>2026-05-02T12:13:17.723Z</time></trkpt><trkpt lat="44.5434529" lon="9.8267942"><ele>937.3333333333334</ele><time>2026-05-02T12:13:19.722Z</time></trkpt><trkpt lat="44.5434407" lon="9.8269159"><ele>935.6666666666667</ele><time>2026-05-02T12:13:22.722Z</time></trkpt><trkpt lat="44.5434178" lon="9.8270011"><ele>934.0</ele><time>2026-05-02T12:13:24.722Z</time></trkpt><trkpt lat="44.5433995" lon="9.8271035"><ele>932.3333333333334</ele><time>2026-05-02T12:13:26.722Z</time></trkpt><trkpt lat="44.5434044" lon="9.8272278"><ele>930.6666666666667</ele><time>2026-05-02T12:13:28.724Z</time></trkpt><trkpt lat="44.5433995" lon="9.8273423"><ele>929.0</ele><time>2026-05-02T12:13:30.722Z</time></trkpt><trkpt lat="44.5433826" lon="9.8274284"><ele>929.0000000000001</ele><time>2026-05-02T12:13:32.722Z</time></trkpt><trkpt lat="44.5433834" lon="9.8275329"><ele>929.0</ele><time>2026-05-02T12:13:34.722Z</time></trkpt><trkpt lat="44.5434031" lon="9.8276467"><ele>929.0</ele><time>2026-05-02T12:13:36.722Z</time></trkpt><trkpt lat="44.5434237" lon="9.8277505"><ele>929.0</ele><time>2026-05-02T12:13:37.722Z</time></trkpt><trkpt lat="44.5434224" lon="9.8278624"><ele>929.0000000000001</ele><time>2026-05-02T12:13:38.722Z</time></trkpt><trkpt lat="44.5434397" lon="9.8279568"><ele>929.0</ele><time>2026-05-02T12:13:39.724Z</time></trkpt><trkpt lat="44.5434429" lon="9.828058"><ele>927.5000000000001</ele><time>2026-05-02T12:13:40.723Z</time></trkpt><trkpt lat="44.5434307" lon="9.8281562"><ele>926.0</ele><time>2026-05-02T12:13:41.722Z</time></trkpt><trkpt lat="44.5434266" lon="9.8282597"><ele>924.5</ele><time>2026-05-02T12:13:42.722Z</time></trkpt><trkpt lat="44.5434146" lon="9.8283488"><ele>923.0</ele><time>2026-05-02T12:13:43.722Z</time></trkpt><trkpt lat="44.5434021" lon="9.8285109"><ele>921.5000000000001</ele><time>2026-05-02T12:13:45.722Z</time></trkpt><trkpt lat="44.5434062" lon="9.8286808"><ele>920.0</ele><time>2026-05-02T12:13:47.722Z</time></trkpt><trkpt lat="44.5434116" lon="9.8287854"><ele>919.8333333333334</ele><time>2026-05-02T12:13:48.722Z</time></trkpt><trkpt lat="44.5434251" lon="9.8288933"><ele>919.6666666666667</ele><time>2026-05-02T12:13:49.722Z</time></trkpt><trkpt lat="44.5434313" lon="9.8289823"><ele>919.5</ele><time>2026-05-02T12:13:50.722Z</time></trkpt><trkpt lat="44.5434106" lon="9.8291434"><ele>919.3333333333333</ele><time>2026-05-02T12:13:52.722Z</time></trkpt><trkpt lat="44.5433917" lon="9.8292342"><ele>919.1666666666666</ele><time>2026-05-02T12:13:53.722Z</time></trkpt><trkpt lat="44.5433615" lon="9.8293354"><ele>919.0</ele><time>2026-05-02T12:13:54.724Z</time></trkpt><trkpt lat="44.5433928" lon="9.8294434"><ele>918.3333333333333</ele><time>2026-05-02T12:13:55.722Z</time></trkpt><trkpt lat="44.543418" lon="9.8295509"><ele>917.6666666666666</ele><time>2026-05-02T12:13:56.722Z</time></trkpt><trkpt lat="44.5434386" lon="9.8296447"><ele>917.0</ele><time>2026-05-02T12:13:57.722Z</time></trkpt><trkpt lat="44.5434521" lon="9.829732"><ele>916.3333333333333</ele><time>2026-05-02T12:13:58.722Z</time></trkpt><trkpt lat="44.5434564" lon="9.8298946"><ele>915.6666666666666</ele><time>2026-05-02T12:14:00.722Z</time></trkpt><trkpt lat="44.5434547" lon="9.82999"><ele>915.0</ele><time>2026-05-02T12:14:01.722Z</time></trkpt><trkpt lat="44.5434726" lon="9.8300809"><ele>915.0</ele><time>2026-05-02T12:14:02.723Z</time></trkpt><trkpt lat="44.5434886" lon="9.8302403"><ele>915.0</ele><time>2026-05-02T12:14:04.723Z</time></trkpt><trkpt lat="44.5434921" lon="9.8303879"><ele>915.0</ele><time>2026-05-02T12:14:06.722Z</time></trkpt><trkpt lat="44.543498" lon="9.8305614"><ele>915.0</ele><time>2026-05-02T12:14:08.722Z</time></trkpt><trkpt lat="44.54349" lon="9.8306715"><ele>915.0</ele><time>2026-05-02T12:14:09.722Z</time></trkpt><trkpt lat="44.5434868" lon="9.8307799"><ele>915.0</ele><time>2026-05-02T12:14:10.722Z</time></trkpt><trkpt lat="44.5434972" lon="9.8308821"><ele>915.0</ele><time>2026-05-02T12:14:11.722Z</time></trkpt><trkpt lat="44.5435197" lon="9.8309808"><ele>915.0</ele><time>2026-05-02T12:14:12.722Z</time></trkpt><trkpt lat="44.5435469" lon="9.8310635"><ele>915.0</ele><time>2026-05-02T12:14:13.723Z</time></trkpt><trkpt lat="44.5435933" lon="9.8311869"><ele>915.0</ele><time>2026-05-02T12:14:15.722Z</time></trkpt><trkpt lat="44.543607" lon="9.8313038"><ele>915.0</ele><time>2026-05-02T12:14:18.722Z</time></trkpt><trkpt lat="44.5436193" lon="9.831395"><ele>910.0</ele><time>2026-05-02T12:14:20.722Z</time></trkpt><trkpt lat="44.5436343" lon="9.8314826"><ele>905.0</ele><time>2026-05-02T12:14:22.722Z</time></trkpt><trkpt lat="44.5436347" lon="9.831586"><ele>900.0</ele><time>2026-05-02T12:14:26.722Z</time></trkpt><trkpt lat="44.5436859" lon="9.8316384"><ele>895.0</ele><time>2026-05-02T12:14:30.722Z</time></trkpt><trkpt lat="44.5436806" lon="9.8315357"><ele>890.0</ele><time>2026-05-02T12:32:36.72Z</time></trkpt><trkpt lat="44.5437208" lon="9.8314472"><ele>885.0</ele><time>2026-05-02T12:32:39.719Z</time></trkpt><trkpt lat="44.5437987" lon="9.8313349"><ele>885.0</ele><time>2026-05-02T12:32:41.719Z</time></trkpt><trkpt lat="44.5438474" lon="9.8312606"><ele>885.0</ele><time>2026-05-02T12:32:42.719Z</time></trkpt><trkpt lat="44.5439058" lon="9.8311773"><ele>885.0</ele><time>2026-05-02T12:32:43.719Z</time></trkpt><trkpt lat="44.543968" lon="9.831088"><ele>885.0</ele><time>2026-05-02T12:32:44.719Z</time></trkpt><trkpt lat="44.5440251" lon="9.8309964"><ele>885.0</ele><time>2026-05-02T12:32:45.719Z</time></trkpt><trkpt lat="44.5440908" lon="9.8309127"><ele>885.0</ele><time>2026-05-02T12:32:46.719Z</time></trkpt><trkpt lat="44.5441531" lon="9.8308287"><ele>886.1666666666666</ele><time>2026-05-02T12:32:47.719Z</time></trkpt><trkpt lat="44.544215" lon="9.8307475"><ele>887.3333333333333</ele><time>2026-05-02T12:32:48.719Z</time></trkpt><trkpt lat="44.5442715" lon="9.8306596"><ele>888.5</ele><time>2026-05-02T12:32:49.72Z</time></trkpt><trkpt lat="44.5443333" lon="9.8305817"><ele>889.6666666666666</ele><time>2026-05-02T12:32:50.72Z</time></trkpt><trkpt lat="44.5443963" lon="9.830504"><ele>890.8333333333333</ele><time>2026-05-02T12:32:51.721Z</time></trkpt><trkpt lat="44.5444576" lon="9.8304268"><ele>892.0</ele><time>2026-05-02T12:32:52.719Z</time></trkpt><trkpt lat="44.544521" lon="9.8303464"><ele>891.3333333333333</ele><time>2026-05-02T12:32:53.719Z</time></trkpt><trkpt lat="44.5445849" lon="9.8302652"><ele>890.6666666666666</ele><time>2026-05-02T12:32:54.719Z</time></trkpt><trkpt lat="44.5446505" lon="9.83018"><ele>890.0</ele><time>2026-05-02T12:32:55.719Z</time></trkpt><trkpt lat="44.5447182" lon="9.8300951"><ele>889.3333333333333</ele><time>2026-05-02T12:32:56.719Z</time></trkpt><trkpt lat="44.5447807" lon="9.8300011"><ele>888.6666666666666</ele><time>2026-05-02T12:32:57.719Z</time></trkpt><trkpt lat="44.5448411" lon="9.8299114"><ele>888.0</ele><time>2026-05-02T12:32:58.719Z</time></trkpt><trkpt lat="44.5448939" lon="9.8298249"><ele>888.0</ele><time>2026-05-02T12:32:59.719Z</time></trkpt><trkpt lat="44.5449452" lon="9.8297382"><ele>888.0</ele><time>2026-05-02T12:33:00.719Z</time></trkpt><trkpt lat="44.5449958" lon="9.8296509"><ele>888.0</ele><time>2026-05-02T12:33:01.719Z</time></trkpt><trkpt lat="44.5450429" lon="9.8295649"><ele>888.0</ele><time>2026-05-02T12:33:02.719Z</time></trkpt><trkpt lat="44.5450898" lon="9.8294783"><ele>888.0</ele><time>2026-05-02T12:33:03.719Z</time></trkpt><trkpt lat="44.5451389" lon="9.8293899"><ele>888.0</ele><time>2026-05-02T12:33:04.719Z</time></trkpt><trkpt lat="44.5451865" lon="9.8292983"><ele>888.0</ele><time>2026-05-02T12:33:05.72Z</time></trkpt><trkpt lat="44.5452317" lon="9.8292042"><ele>888.0</ele><time>2026-05-02T12:33:06.719Z</time></trkpt><trkpt lat="44.5452813" lon="9.8291197"><ele>888.0</ele><time>2026-05-02T12:33:07.72Z</time></trkpt><trkpt lat="44.5453327" lon="9.8290294"><ele>888.0</ele><time>2026-05-02T12:33:08.719Z</time></trkpt><trkpt lat="44.545382" lon="9.828935"><ele>888.0</ele><time>2026-05-02T12:33:09.72Z</time></trkpt><trkpt lat="44.5454296" lon="9.8288351"><ele>888.0</ele><time>2026-05-02T12:33:10.72Z</time></trkpt><trkpt lat="44.5454782" lon="9.8287315"><ele>888.0</ele><time>2026-05-02T12:33:11.719Z</time></trkpt><trkpt lat="44.5455259" lon="9.8286263"><ele>888.0</ele><time>2026-05-02T12:33:12.718Z</time></trkpt><trkpt lat="44.5455758" lon="9.8285182"><ele>888.0</ele><time>2026-05-02T12:33:13.719Z</time></trkpt><trkpt lat="44.5456208" lon="9.8284048"><ele>888.0</ele><time>2026-05-02T12:33:14.718Z</time></trkpt><trkpt lat="44.5456666" lon="9.8282907"><ele>888.0</ele><time>2026-05-02T12:33:15.718Z</time></trkpt><trkpt lat="44.5457141" lon="9.8281763"><ele>887.1666666666666</ele><time>2026-05-02T12:33:16.718Z</time></trkpt><trkpt lat="44.545767" lon="9.8280694"><ele>886.3333333333333</ele><time>2026-05-02T12:33:17.718Z</time></trkpt><trkpt lat="44.5458148" lon="9.8279676"><ele>885.5</ele><time>2026-05-02T12:33:18.718Z</time></trkpt><trkpt lat="44.5458638" lon="9.8278691"><ele>884.6666666666666</ele><time>2026-05-02T12:33:19.718Z</time></trkpt><trkpt lat="44.5459124" lon="9.827771"><ele>883.8333333333333</ele><time>2026-05-02T12:33:20.718Z</time></trkpt><trkpt lat="44.5459596" lon="9.8276605"><ele>883.0</ele><time>2026-05-02T12:33:21.718Z</time></trkpt><trkpt lat="44.5459975" lon="9.8275499"><ele>882.9999999999999</ele><time>2026-05-02T12:33:22.718Z</time></trkpt><trkpt lat="44.5460223" lon="9.8274462"><ele>883.0</ele><time>2026-05-02T12:33:23.718Z</time></trkpt><trkpt lat="44.5460336" lon="9.8273399"><ele>883.0</ele><time>2026-05-02T12:33:24.719Z</time></trkpt><trkpt lat="44.5460375" lon="9.8272428"><ele>883.0</ele><time>2026-05-02T12:33:25.718Z</time></trkpt><trkpt lat="44.5460455" lon="9.8271297"><ele>882.9999999999999</ele><time>2026-05-02T12:33:26.718Z</time></trkpt><trkpt lat="44.5460695" lon="9.8270298"><ele>883.0</ele><time>2026-05-02T12:33:27.718Z</time></trkpt><trkpt lat="44.5461074" lon="9.8269401"><ele>882.9999999999999</ele><time>2026-05-02T12:33:28.718Z</time></trkpt><trkpt lat="44.5461493" lon="9.8268671"><ele>883.0</ele><time>2026-05-02T12:33:29.718Z</time></trkpt><trkpt lat="44.5462084" lon="9.8268073"><ele>883.0</ele><time>2026-05-02T12:33:30.718Z</time></trkpt><trkpt lat="44.5463101" lon="9.8267596"><ele>883.0</ele><time>2026-05-02T12:33:31.718Z</time></trkpt><trkpt lat="44.5463891" lon="9.8266942"><ele>882.9999999999999</ele><time>2026-05-02T12:33:32.718Z</time></trkpt><trkpt lat="44.5464671" lon="9.8266375"><ele>883.0</ele><time>2026-05-02T12:33:33.718Z</time></trkpt><trkpt lat="44.5465442" lon="9.8265767"><ele>882.4</ele><time>2026-05-02T12:33:34.718Z</time></trkpt><trkpt lat="44.5466294" lon="9.8264981"><ele>881.8</ele><time>2026-05-02T12:33:35.718Z</time></trkpt><trkpt lat="44.546713" lon="9.826415"><ele>881.2</ele><time>2026-05-02T12:33:36.719Z</time></trkpt><trkpt lat="44.5468005" lon="9.826333"><ele>880.6</ele><time>2026-05-02T12:33:37.718Z</time></trkpt><trkpt lat="44.5468778" lon="9.8262524"><ele>880.0</ele><time>2026-05-02T12:33:38.719Z</time></trkpt><trkpt lat="44.5469497" lon="9.8261731"><ele>879.9999999999999</ele><time>2026-05-02T12:33:39.718Z</time></trkpt><trkpt lat="44.5470254" lon="9.8260845"><ele>880.0</ele><time>2026-05-02T12:33:40.718Z</time></trkpt><trkpt lat="44.5470608" lon="9.8259931"><ele>880.0</ele><time>2026-05-02T12:33:41.719Z</time></trkpt><trkpt lat="44.5470916" lon="9.8259011"><ele>880.0</ele><time>2026-05-02T12:33:42.718Z</time></trkpt><trkpt lat="44.5471165" lon="9.8257997"><ele>879.9999999999999</ele><time>2026-05-02T12:33:43.718Z</time></trkpt><trkpt lat="44.5471349" lon="9.8256924"><ele>880.0</ele><time>2026-05-02T12:33:44.718Z</time></trkpt><trkpt lat="44.5471478" lon="9.8255931"><ele>879.8</ele><time>2026-05-02T12:33:45.718Z</time></trkpt><trkpt lat="44.5471828" lon="9.8254385"><ele>879.6</ele><time>2026-05-02T12:33:47.718Z</time></trkpt><trkpt lat="44.5472289" lon="9.8253746"><ele>879.4000000000001</ele><time>2026-05-02T12:33:49.718Z</time></trkpt><trkpt lat="44.5473157" lon="9.8254514"><ele>879.2</ele><time>2026-05-02T12:33:50.719Z</time></trkpt><trkpt lat="44.5473908" lon="9.8255086"><ele>879.0</ele><time>2026-05-02T12:33:51.718Z</time></trkpt><trkpt lat="44.5474816" lon="9.8255759"><ele>879.0</ele><time>2026-05-02T12:33:52.718Z</time></trkpt><trkpt lat="44.5475659" lon="9.8256287"><ele>879.0000000000001</ele><time>2026-05-02T12:33:53.718Z</time></trkpt><trkpt lat="44.5476477" lon="9.8256855"><ele>879.0000000000001</ele><time>2026-05-02T12:33:54.718Z</time></trkpt><trkpt lat="44.5477359" lon="9.8257402"><ele>879.0</ele><time>2026-05-02T12:33:55.718Z</time></trkpt><trkpt lat="44.547821" lon="9.8257959"><ele>879.0</ele><time>2026-05-02T12:33:56.719Z</time></trkpt><trkpt lat="44.5479099" lon="9.8258547"><ele>879.1666666666666</ele><time>2026-05-02T12:33:57.718Z</time></trkpt><trkpt lat="44.547991" lon="9.8259187"><ele>879.3333333333333</ele><time>2026-05-02T12:33:58.719Z</time></trkpt><trkpt lat="44.5480706" lon="9.8259822"><ele>879.5</ele><time>2026-05-02T12:33:59.718Z</time></trkpt><trkpt lat="44.5481482" lon="9.8260326"><ele>879.6666666666666</ele><time>2026-05-02T12:34:00.718Z</time></trkpt><trkpt lat="44.5482165" lon="9.8260419"><ele>879.8333333333333</ele><time>2026-05-02T12:34:01.719Z</time></trkpt><trkpt lat="44.5482856" lon="9.8260552"><ele>880.0</ele><time>2026-05-02T12:34:02.718Z</time></trkpt><trkpt lat="44.5483637" lon="9.8260528"><ele>879.1666666666666</ele><time>2026-05-02T12:34:03.719Z</time></trkpt><trkpt lat="44.5484864" lon="9.8260618"><ele>878.3333333333333</ele><time>2026-05-02T12:34:05.718Z</time></trkpt><trkpt lat="44.5485574" lon="9.8260462"><ele>877.5</ele><time>2026-05-02T12:34:06.718Z</time></trkpt><trkpt lat="44.5486392" lon="9.8260404"><ele>876.6666666666667</ele><time>2026-05-02T12:34:07.719Z</time></trkpt><trkpt lat="44.5487029" lon="9.8260274"><ele>875.8333333333334</ele><time>2026-05-02T12:34:08.718Z</time></trkpt><trkpt lat="44.5487809" lon="9.8260195"><ele>875.0</ele><time>2026-05-02T12:34:09.719Z</time></trkpt><trkpt lat="44.5488495" lon="9.8260046"><ele>875.0</ele><time>2026-05-02T12:34:10.718Z</time></trkpt><trkpt lat="44.5489142" lon="9.8260014"><ele>875.0</ele><time>2026-05-02T12:34:11.719Z</time></trkpt><trkpt lat="44.5490432" lon="9.825969"><ele>875.0</ele><time>2026-05-02T12:34:13.718Z</time></trkpt><trkpt lat="44.5491465" lon="9.8259331"><ele>875.0</ele><time>2026-05-02T12:34:15.719Z</time></trkpt><trkpt lat="44.5492036" lon="9.8258938"><ele>875.0</ele><time>2026-05-02T12:34:16.718Z</time></trkpt><trkpt lat="44.5492851" lon="9.8258515"><ele>875.8</ele><time>2026-05-02T12:34:18.718Z</time></trkpt><trkpt lat="44.5494116" lon="9.8257904"><ele>876.6</ele><time>2026-05-02T12:34:20.718Z</time></trkpt><trkpt lat="44.5495116" lon="9.8257548"><ele>877.4000000000001</ele><time>2026-05-02T12:34:21.718Z</time></trkpt><trkpt lat="44.5495768" lon="9.8257101"><ele>878.2</ele><time>2026-05-02T12:34:22.718Z</time></trkpt><trkpt lat="44.5496403" lon="9.8256758"><ele>879.0</ele><time>2026-05-02T12:34:23.718Z</time></trkpt><trkpt lat="44.5497255" lon="9.8256288"><ele>879.0</ele><time>2026-05-02T12:34:24.718Z</time></trkpt><trkpt lat="44.5497902" lon="9.825613"><ele>879.0</ele><time>2026-05-02T12:34:26.718Z</time></trkpt><trkpt lat="44.5498929" lon="9.8256031"><ele>879.0</ele><time>2026-05-02T12:34:28.718Z</time></trkpt><trkpt lat="44.549929" lon="9.8256762"><ele>879.0</ele><time>2026-05-02T12:34:30.719Z</time></trkpt><trkpt lat="44.5499392" lon="9.825774"><ele>879.0</ele><time>2026-05-02T12:34:31.718Z</time></trkpt><trkpt lat="44.5499323" lon="9.8259478"><ele>879.0</ele><time>2026-05-02T12:34:33.718Z</time></trkpt><trkpt lat="44.5499626" lon="9.8260473"><ele>877.6</ele><time>2026-05-02T12:34:34.719Z</time></trkpt><trkpt lat="44.5499949" lon="9.8261273"><ele>876.2</ele><time>2026-05-02T12:34:35.718Z</time></trkpt><trkpt lat="44.5500753" lon="9.8262357"><ele>874.8000000000001</ele><time>2026-05-02T12:34:37.719Z</time></trkpt><trkpt lat="44.5501687" lon="9.826372"><ele>873.4000000000001</ele><time>2026-05-02T12:34:39.718Z</time></trkpt><trkpt lat="44.5502607" lon="9.8264161"><ele>872.0</ele><time>2026-05-02T12:34:40.719Z</time></trkpt><trkpt lat="44.5503473" lon="9.8264197"><ele>870.1666666666667</ele><time>2026-05-02T12:34:41.718Z</time></trkpt><trkpt lat="44.5504186" lon="9.8264414"><ele>868.3333333333334</ele><time>2026-05-02T12:34:42.719Z</time></trkpt><trkpt lat="44.5504888" lon="9.82646"><ele>866.5</ele><time>2026-05-02T12:34:43.718Z</time></trkpt><trkpt lat="44.5505827" lon="9.8264531"><ele>864.6666666666667</ele><time>2026-05-02T12:34:44.719Z</time></trkpt><trkpt lat="44.5506648" lon="9.8264611"><ele>862.8333333333334</ele><time>2026-05-02T12:34:45.718Z</time></trkpt><trkpt lat="44.5507476" lon="9.8264729"><ele>861.0</ele><time>2026-05-02T12:34:46.718Z</time></trkpt><trkpt lat="44.5508727" lon="9.8265424"><ele>861.0</ele><time>2026-05-02T12:34:48.718Z</time></trkpt><trkpt lat="44.5509628" lon="9.8265302"><ele>861.0</ele><time>2026-05-02T12:34:49.718Z</time></trkpt><trkpt lat="44.5510095" lon="9.8264595"><ele>861.0</ele><time>2026-05-02T12:34:50.719Z</time></trkpt><trkpt lat="44.5510693" lon="9.8264316"><ele>861.0</ele><time>2026-05-02T12:34:51.718Z</time></trkpt><trkpt lat="44.5511447" lon="9.8264245"><ele>861.0</ele><time>2026-05-02T12:34:52.718Z</time></trkpt><trkpt lat="44.5512663" lon="9.8264253"><ele>861.0</ele><time>2026-05-02T12:34:54.718Z</time></trkpt><trkpt lat="44.5513428" lon="9.8263644"><ele>858.0</ele><time>2026-05-02T12:34:55.718Z</time></trkpt><trkpt lat="44.5514156" lon="9.8263305"><ele>855.0</ele><time>2026-05-02T12:34:56.718Z</time></trkpt><trkpt lat="44.5514834" lon="9.8263047"><ele>852.0</ele><time>2026-05-02T12:34:57.718Z</time></trkpt><trkpt lat="44.5515579" lon="9.8263293"><ele>849.0</ele><time>2026-05-02T12:34:58.718Z</time></trkpt><trkpt lat="44.5516243" lon="9.8262987"><ele>846.0</ele><time>2026-05-02T12:34:59.718Z</time></trkpt><trkpt lat="44.5517082" lon="9.8262592"><ele>843.0</ele><time>2026-05-02T12:35:00.718Z</time></trkpt><trkpt lat="44.5517752" lon="9.8262382"><ele>843.0</ele><time>2026-05-02T12:35:01.718Z</time></trkpt><trkpt lat="44.5519085" lon="9.8262472"><ele>843.0</ele><time>2026-05-02T12:35:03.718Z</time></trkpt><trkpt lat="44.5519954" lon="9.8262798"><ele>843.0</ele><time>2026-05-02T12:35:04.718Z</time></trkpt><trkpt lat="44.552069" lon="9.8262868"><ele>843.0</ele><time>2026-05-02T12:35:05.718Z</time></trkpt><trkpt lat="44.5521696" lon="9.8262154"><ele>843.0</ele><time>2026-05-02T12:35:06.718Z</time></trkpt><trkpt lat="44.5522494" lon="9.8261265"><ele>842.0</ele><time>2026-05-02T12:35:09.719Z</time></trkpt><trkpt lat="44.5523294" lon="9.8260455"><ele>841.0</ele><time>2026-05-02T12:35:12.718Z</time></trkpt><trkpt lat="44.5524412" lon="9.8259572"><ele>840.0</ele><time>2026-05-02T12:35:14.718Z</time></trkpt><trkpt lat="44.5524944" lon="9.8258937"><ele>839.0</ele><time>2026-05-02T12:35:15.719Z</time></trkpt><trkpt lat="44.5525994" lon="9.8257544"><ele>838.0</ele><time>2026-05-02T12:35:17.719Z</time></trkpt><trkpt lat="44.5526346" lon="9.8255052"><ele>837.9999999999999</ele><time>2026-05-02T12:35:19.718Z</time></trkpt><trkpt lat="44.5526529" lon="9.8253708"><ele>838.0</ele><time>2026-05-02T12:35:21.718Z</time></trkpt><trkpt lat="44.5526825" lon="9.8252566"><ele>838.0</ele><time>2026-05-02T12:35:22.718Z</time></trkpt><trkpt lat="44.5527193" lon="9.8251645"><ele>838.0</ele><time>2026-05-02T12:35:23.718Z</time></trkpt><trkpt lat="44.5527435" lon="9.8250738"><ele>837.9999999999999</ele><time>2026-05-02T12:35:24.718Z</time></trkpt><trkpt lat="44.5527523" lon="9.8249493"><ele>838.0</ele><time>2026-05-02T12:35:25.718Z</time></trkpt><trkpt lat="44.5527589" lon="9.8248584"><ele>839.8</ele><time>2026-05-02T12:35:26.718Z</time></trkpt><trkpt lat="44.5527288" lon="9.8247352"><ele>841.5999999999999</ele><time>2026-05-02T12:35:28.718Z</time></trkpt><trkpt lat="44.5527414" lon="9.824587"><ele>843.4000000000001</ele><time>2026-05-02T12:35:30.718Z</time></trkpt><trkpt lat="44.5527693" lon="9.8244855"><ele>845.2</ele><time>2026-05-02T12:35:33.719Z</time></trkpt><trkpt lat="44.5528544" lon="9.8244539"><ele>847.0</ele><time>2026-05-02T12:35:36.718Z</time></trkpt><trkpt lat="44.5528951" lon="9.82458"><ele>847.8</ele><time>2026-05-02T12:35:37.718Z</time></trkpt><trkpt lat="44.5529203" lon="9.8246681"><ele>848.6</ele><time>2026-05-02T12:35:39.719Z</time></trkpt><trkpt lat="44.5529391" lon="9.824782"><ele>849.4</ele><time>2026-05-02T12:35:46.718Z</time></trkpt><trkpt lat="44.5529656" lon="9.8249781"><ele>850.1999999999999</ele><time>2026-05-02T12:35:48.718Z</time></trkpt><trkpt lat="44.5530066" lon="9.8250809"><ele>851.0</ele><time>2026-05-02T12:35:49.718Z</time></trkpt><trkpt lat="44.5530564" lon="9.8251571"><ele>848.6666666666667</ele><time>2026-05-02T12:35:50.718Z</time></trkpt><trkpt lat="44.5530983" lon="9.8252471"><ele>846.3333333333334</ele><time>2026-05-02T12:35:51.718Z</time></trkpt><trkpt lat="44.5531271" lon="9.8253515"><ele>844.0</ele><time>2026-05-02T12:35:52.718Z</time></trkpt><trkpt lat="44.5531468" lon="9.8254614"><ele>841.6666666666667</ele><time>2026-05-02T12:35:53.719Z</time></trkpt><trkpt lat="44.5532005" lon="9.8255392"><ele>839.3333333333334</ele><time>2026-05-02T12:35:54.718Z</time></trkpt><trkpt lat="44.5532548" lon="9.8256056"><ele>837.0</ele><time>2026-05-02T12:35:55.719Z</time></trkpt><trkpt lat="44.5533583" lon="9.8257263"><ele>837.0</ele><time>2026-05-02T12:35:57.719Z</time></trkpt><trkpt lat="44.5534004" lon="9.8258989"><ele>837.0</ele><time>2026-05-02T12:35:59.718Z</time></trkpt><trkpt lat="44.5534287" lon="9.8259976"><ele>837.0</ele><time>2026-05-02T12:36:00.718Z</time></trkpt><trkpt lat="44.5534672" lon="9.8261033"><ele>837.0</ele><time>2026-05-02T12:36:01.718Z</time></trkpt><trkpt lat="44.5535128" lon="9.8262067"><ele>837.0</ele><time>2026-05-02T12:36:02.718Z</time></trkpt><trkpt lat="44.5535488" lon="9.826299"><ele>833.6</ele><time>2026-05-02T12:36:03.718Z</time></trkpt><trkpt lat="44.5536157" lon="9.826407"><ele>830.2</ele><time>2026-05-02T12:36:05.718Z</time></trkpt><trkpt lat="44.5536913" lon="9.8264726"><ele>826.8</ele><time>2026-05-02T12:36:07.718Z</time></trkpt><trkpt lat="44.5537832" lon="9.8265809"><ele>823.4</ele><time>2026-05-02T12:36:09.718Z</time></trkpt><trkpt lat="44.5538416" lon="9.8266476"><ele>820.0</ele><time>2026-05-02T12:36:10.718Z</time></trkpt><trkpt lat="44.5538964" lon="9.8267132"><ele>823.4999999999999</ele><time>2026-05-02T12:36:11.718Z</time></trkpt><trkpt lat="44.5539565" lon="9.8267771"><ele>827.0</ele><time>2026-05-02T12:36:12.718Z</time></trkpt><trkpt lat="44.5539739" lon="9.8268863"><ele>830.5</ele><time>2026-05-02T12:36:13.718Z</time></trkpt><trkpt lat="44.5540138" lon="9.8269695"><ele>834.0</ele><time>2026-05-02T12:36:14.718Z</time></trkpt><trkpt lat="44.5540355" lon="9.8270664"><ele>837.4999999999999</ele><time>2026-05-02T12:36:15.718Z</time></trkpt><trkpt lat="44.5541374" lon="9.8271587"><ele>841.0</ele><time>2026-05-02T12:36:17.718Z</time></trkpt><trkpt lat="44.5542025" lon="9.8272176"><ele>841.0</ele><time>2026-05-02T12:36:18.718Z</time></trkpt><trkpt lat="44.554277" lon="9.8273069"><ele>841.0</ele><time>2026-05-02T12:36:19.718Z</time></trkpt><trkpt lat="44.5543429" lon="9.8274341"><ele>841.0</ele><time>2026-05-02T12:36:20.719Z</time></trkpt><trkpt lat="44.5543805" lon="9.8275652"><ele>841.0</ele><time>2026-05-02T12:36:21.718Z</time></trkpt><trkpt lat="44.5544272" lon="9.8276709"><ele>841.0</ele><time>2026-05-02T12:36:22.718Z</time></trkpt><trkpt lat="44.5544676" lon="9.8277857"><ele>839.4</ele><time>2026-05-02T12:36:23.718Z</time></trkpt><trkpt lat="44.5544938" lon="9.8279105"><ele>837.8</ele><time>2026-05-02T12:36:24.718Z</time></trkpt><trkpt lat="44.5545142" lon="9.8280268"><ele>836.1999999999999</ele><time>2026-05-02T12:36:25.718Z</time></trkpt><trkpt lat="44.554532" lon="9.8281346"><ele>834.5999999999999</ele><time>2026-05-02T12:36:26.718Z</time></trkpt><trkpt lat="44.5545416" lon="9.8282895"><ele>833.0</ele><time>2026-05-02T12:36:28.718Z</time></trkpt><trkpt lat="44.5546148" lon="9.8284411"><ele>838.0000000000001</ele><time>2026-05-02T12:36:30.718Z</time></trkpt><trkpt lat="44.5546489" lon="9.8285342"><ele>843.0</ele><time>2026-05-02T12:36:31.718Z</time></trkpt><trkpt lat="44.554669" lon="9.8286298"><ele>848.0</ele><time>2026-05-02T12:36:32.718Z</time></trkpt><trkpt lat="44.5547114" lon="9.8287214"><ele>853.0</ele><time>2026-05-02T12:36:33.718Z</time></trkpt><trkpt lat="44.5547548" lon="9.828811"><ele>858.0000000000001</ele><time>2026-05-02T12:36:34.718Z</time></trkpt><trkpt lat="44.5547985" lon="9.8288972"><ele>863.0</ele><time>2026-05-02T12:36:35.718Z</time></trkpt><trkpt lat="44.5548391" lon="9.829065"><ele>863.0</ele><time>2026-05-02T12:36:37.718Z</time></trkpt><trkpt lat="44.5548744" lon="9.8292454"><ele>863.0</ele><time>2026-05-02T12:36:39.718Z</time></trkpt><trkpt lat="44.5549585" lon="9.8293679"><ele>863.0</ele><time>2026-05-02T12:36:41.718Z</time></trkpt><trkpt lat="44.5550561" lon="9.829315"><ele>863.0</ele><time>2026-05-02T12:36:43.718Z</time></trkpt><trkpt lat="44.555161" lon="9.8292492"><ele>863.0000000000001</ele><time>2026-05-02T12:36:45.718Z</time></trkpt><trkpt lat="44.5551945" lon="9.8291644"><ele>863.0</ele><time>2026-05-02T12:36:46.72Z</time></trkpt><trkpt lat="44.5552207" lon="9.8290805"><ele>863.0</ele><time>2026-05-02T12:36:47.718Z</time></trkpt><trkpt lat="44.5552802" lon="9.8289439"><ele>863.0</ele><time>2026-05-02T12:36:49.718Z</time></trkpt><trkpt lat="44.5553427" lon="9.8288788"><ele>863.0000000000001</ele><time>2026-05-02T12:36:51.718Z</time></trkpt><trkpt lat="44.5554325" lon="9.8289504"><ele>863.0</ele><time>2026-05-02T12:36:53.719Z</time></trkpt><trkpt lat="44.5554811" lon="9.8290158"><ele>867.5000000000001</ele><time>2026-05-02T12:36:54.718Z</time></trkpt><trkpt lat="44.5555219" lon="9.8290946"><ele>872.0</ele><time>2026-05-02T12:36:55.719Z</time></trkpt><trkpt lat="44.5555416" lon="9.8291822"><ele>876.5</ele><time>2026-05-02T12:36:56.719Z</time></trkpt><trkpt lat="44.5556217" lon="9.8293405"><ele>881.0</ele><time>2026-05-02T12:36:58.719Z</time></trkpt><trkpt lat="44.5556451" lon="9.8294307"><ele>885.5000000000001</ele><time>2026-05-02T12:36:59.718Z</time></trkpt><trkpt lat="44.5556917" lon="9.8295405"><ele>890.0</ele><time>2026-05-02T12:37:00.718Z</time></trkpt><trkpt lat="44.5557226" lon="9.8296228"><ele>890.0</ele><time>2026-05-02T12:37:01.718Z</time></trkpt><trkpt lat="44.5557606" lon="9.8297092"><ele>890.0</ele><time>2026-05-02T12:37:02.718Z</time></trkpt><trkpt lat="44.5558107" lon="9.8298928"><ele>890.0</ele><time>2026-05-02T12:37:04.718Z</time></trkpt><trkpt lat="44.5558644" lon="9.8300711"><ele>890.0</ele><time>2026-05-02T12:37:06.718Z</time></trkpt><trkpt lat="44.5559548" lon="9.8302214"><ele>889.5000000000001</ele><time>2026-05-02T12:37:08.719Z</time></trkpt><trkpt lat="44.5560036" lon="9.8302855"><ele>889.0</ele><time>2026-05-02T12:37:09.718Z</time></trkpt><trkpt lat="44.556074" lon="9.8303362"><ele>888.5</ele><time>2026-05-02T12:37:10.718Z</time></trkpt><trkpt lat="44.5561939" lon="9.8304342"><ele>888.0</ele><time>2026-05-02T12:37:12.718Z</time></trkpt><trkpt lat="44.556258" lon="9.8304848"><ele>887.5000000000001</ele><time>2026-05-02T12:37:13.719Z</time></trkpt><trkpt lat="44.5563124" lon="9.8305429"><ele>887.0</ele><time>2026-05-02T12:37:14.718Z</time></trkpt><trkpt lat="44.556375" lon="9.8306296"><ele>889.4000000000001</ele><time>2026-05-02T12:37:15.719Z</time></trkpt><trkpt lat="44.5564073" lon="9.8307321"><ele>891.8000000000001</ele><time>2026-05-02T12:37:16.718Z</time></trkpt><trkpt lat="44.5564431" lon="9.8308095"><ele>894.2</ele><time>2026-05-02T12:37:17.718Z</time></trkpt><trkpt lat="44.556486" lon="9.8308935"><ele>896.6</ele><time>2026-05-02T12:37:18.719Z</time></trkpt><trkpt lat="44.5565574" lon="9.8310222"><ele>899.0</ele><time>2026-05-02T12:37:19.718Z</time></trkpt><trkpt lat="44.5566719" lon="9.8311093"><ele>899.0000000000001</ele><time>2026-05-02T12:37:21.718Z</time></trkpt><trkpt lat="44.5567281" lon="9.8311835"><ele>899.0</ele><time>2026-05-02T12:37:22.718Z</time></trkpt><trkpt lat="44.5568023" lon="9.8312416"><ele>899.0</ele><time>2026-05-02T12:37:23.718Z</time></trkpt><trkpt lat="44.5568838" lon="9.8313052"><ele>899.0</ele><time>2026-05-02T12:37:25.718Z</time></trkpt><trkpt lat="44.5569477" lon="9.8313563"><ele>899.0000000000001</ele><time>2026-05-02T12:37:26.718Z</time></trkpt><trkpt lat="44.5570101" lon="9.8314096"><ele>899.0</ele><time>2026-05-02T12:37:27.718Z</time></trkpt><trkpt lat="44.5570857" lon="9.8315697"><ele>902.6</ele><time>2026-05-02T12:37:29.718Z</time></trkpt><trkpt lat="44.5571436" lon="9.8316804"><ele>906.2</ele><time>2026-05-02T12:37:30.718Z</time></trkpt><trkpt lat="44.5572125" lon="9.8317879"><ele>909.8000000000001</ele><time>2026-05-02T12:37:31.718Z</time></trkpt><trkpt lat="44.5572741" lon="9.831877"><ele>913.4000000000001</ele><time>2026-05-02T12:37:32.718Z</time></trkpt><trkpt lat="44.5573408" lon="9.8319641"><ele>917.0</ele><time>2026-05-02T12:37:33.718Z</time></trkpt><trkpt lat="44.5574509" lon="9.8319569"><ele>917.0</ele><time>2026-05-02T12:37:34.718Z</time></trkpt><trkpt lat="44.5575369" lon="9.8319854"><ele>917.0</ele><time>2026-05-02T12:37:35.719Z</time></trkpt><trkpt lat="44.5576066" lon="9.8319985"><ele>917.0</ele><time>2026-05-02T12:37:36.719Z</time></trkpt><trkpt lat="44.5577293" lon="9.8320371"><ele>917.0</ele><time>2026-05-02T12:37:38.719Z</time></trkpt><trkpt lat="44.5578088" lon="9.8321158"><ele>917.0</ele><time>2026-05-02T12:37:40.719Z</time></trkpt><trkpt lat="44.5578171" lon="9.8322213"><ele>917.0</ele><time>2026-05-02T12:37:56.719Z</time></trkpt><trkpt lat="44.5578312" lon="9.8323118"><ele>917.0</ele><time>2026-05-02T12:37:57.718Z</time></trkpt><trkpt lat="44.5578398" lon="9.8324022"><ele>917.0</ele><time>2026-05-02T12:37:58.718Z</time></trkpt><trkpt lat="44.5578546" lon="9.832498"><ele>917.0</ele><time>2026-05-02T12:37:59.718Z</time></trkpt><trkpt lat="44.5578679" lon="9.8326008"><ele>917.0</ele><time>2026-05-02T12:38:00.718Z</time></trkpt><trkpt lat="44.5578837" lon="9.8326978"><ele>917.0</ele><time>2026-05-02T12:38:01.718Z</time></trkpt><trkpt lat="44.5578942" lon="9.8328011"><ele>917.0</ele><time>2026-05-02T12:38:02.719Z</time></trkpt><trkpt lat="44.5579054" lon="9.8329116"><ele>922.6666666666667</ele><time>2026-05-02T12:38:03.719Z</time></trkpt><trkpt lat="44.5579134" lon="9.8330312"><ele>928.3333333333334</ele><time>2026-05-02T12:38:04.719Z</time></trkpt><trkpt lat="44.557919" lon="9.8331575"><ele>934.0</ele><time>2026-05-02T12:38:05.719Z</time></trkpt><trkpt lat="44.5579178" lon="9.8332732"><ele>939.6666666666667</ele><time>2026-05-02T12:38:06.718Z</time></trkpt><trkpt lat="44.5579184" lon="9.8333823"><ele>945.3333333333334</ele><time>2026-05-02T12:38:07.718Z</time></trkpt><trkpt lat="44.5579396" lon="9.8334659"><ele>951.0</ele><time>2026-05-02T12:38:08.718Z</time></trkpt><trkpt lat="44.5579964" lon="9.8335924"><ele>952.1999999999999</ele><time>2026-05-02T12:38:10.719Z</time></trkpt><trkpt lat="44.5581481" lon="9.8335856"><ele>953.3999999999999</ele><time>2026-05-02T12:38:12.718Z</time></trkpt><trkpt lat="44.5582398" lon="9.8336079"><ele>954.6</ele><time>2026-05-02T12:38:14.718Z</time></trkpt><trkpt lat="44.5582547" lon="9.8337208"><ele>955.8</ele><time>2026-05-02T12:38:17.718Z</time></trkpt><trkpt lat="44.5581914" lon="9.8338601"><ele>957.0</ele><time>2026-05-02T12:38:19.718Z</time></trkpt><trkpt lat="44.5581564" lon="9.8339389"><ele>957.0</ele><time>2026-05-02T12:38:20.718Z</time></trkpt><trkpt lat="44.5581254" lon="9.8340182"><ele>957.0</ele><time>2026-05-02T12:38:21.718Z</time></trkpt><trkpt lat="44.5580891" lon="9.8341627"><ele>957.0</ele><time>2026-05-02T12:38:23.718Z</time></trkpt><trkpt lat="44.5580983" lon="9.8342823"><ele>957.0</ele><time>2026-05-02T12:38:25.718Z</time></trkpt><trkpt lat="44.5581273" lon="9.834377"><ele>957.0</ele><time>2026-05-02T12:38:27.718Z</time></trkpt><trkpt lat="44.5581957" lon="9.8343748"><ele>957.0</ele><time>2026-05-02T12:38:29.718Z</time></trkpt><trkpt lat="44.5582698" lon="9.8343722"><ele>958.6666666666666</ele><time>2026-05-02T12:38:31.718Z</time></trkpt><trkpt lat="44.558341" lon="9.8343462"><ele>960.3333333333333</ele><time>2026-05-02T12:38:34.719Z</time></trkpt><trkpt lat="44.558421" lon="9.8343828"><ele>962.0</ele><time>2026-05-02T12:38:37.718Z</time></trkpt><trkpt lat="44.5584437" lon="9.8344791"><ele>963.6666666666666</ele><time>2026-05-02T12:38:39.718Z</time></trkpt><trkpt lat="44.5584605" lon="9.8345852"><ele>965.3333333333333</ele><time>2026-05-02T12:38:41.718Z</time></trkpt><trkpt lat="44.5584787" lon="9.8347072"><ele>967.0</ele><time>2026-05-02T12:38:43.718Z</time></trkpt><trkpt lat="44.5585256" lon="9.834884"><ele>966.9999999999999</ele><time>2026-05-02T12:38:45.718Z</time></trkpt><trkpt lat="44.5585734" lon="9.8349475"><ele>967.0</ele><time>2026-05-02T12:38:47.718Z</time></trkpt><trkpt lat="44.5586233" lon="9.8350199"><ele>967.0</ele><time>2026-05-02T12:38:49.719Z</time></trkpt><trkpt lat="44.5587125" lon="9.8351044"><ele>967.0</ele><time>2026-05-02T12:38:51.718Z</time></trkpt><trkpt lat="44.5587592" lon="9.8351934"><ele>966.9999999999999</ele><time>2026-05-02T12:38:53.718Z</time></trkpt><trkpt lat="44.5587929" lon="9.8352974"><ele>967.0</ele><time>2026-05-02T12:38:55.719Z</time></trkpt><trkpt lat="44.5588395" lon="9.8353855"><ele>962.2</ele><time>2026-05-02T12:38:58.718Z</time></trkpt><trkpt lat="44.5588729" lon="9.835483"><ele>957.4000000000001</ele><time>2026-05-02T12:39:00.718Z</time></trkpt><trkpt lat="44.5589198" lon="9.8356638"><ele>952.5999999999999</ele><time>2026-05-02T12:39:02.718Z</time></trkpt><trkpt lat="44.5589142" lon="9.8358122"><ele>947.8</ele><time>2026-05-02T12:39:04.719Z</time></trkpt><trkpt lat="44.5589405" lon="9.8359512"><ele>943.0</ele><time>2026-05-02T12:39:06.718Z</time></trkpt><trkpt lat="44.5589402" lon="9.8360486"><ele>942.3333333333333</ele><time>2026-05-02T12:39:08.718Z</time></trkpt><trkpt lat="44.5589944" lon="9.8361572"><ele>941.6666666666666</ele><time>2026-05-02T12:39:11.718Z</time></trkpt><trkpt lat="44.5590269" lon="9.8362483"><ele>941.0</ele><time>2026-05-02T12:39:13.719Z</time></trkpt><trkpt lat="44.5590496" lon="9.8363642"><ele>940.3333333333333</ele><time>2026-05-02T12:39:15.718Z</time></trkpt><trkpt lat="44.5590692" lon="9.8364612"><ele>939.6666666666666</ele><time>2026-05-02T12:39:17.718Z</time></trkpt><trkpt lat="44.5590832" lon="9.8365683"><ele>939.0</ele><time>2026-05-02T12:39:19.718Z</time></trkpt><trkpt lat="44.5590822" lon="9.8366689"><ele>939.0</ele><time>2026-05-02T12:39:22.718Z</time></trkpt><trkpt lat="44.5591144" lon="9.836796"><ele>939.0</ele><time>2026-05-02T12:39:25.718Z</time></trkpt><trkpt lat="44.5591302" lon="9.836915"><ele>939.0</ele><time>2026-05-02T12:39:28.717Z</time></trkpt><trkpt lat="44.5591442" lon="9.8370494"><ele>939.0</ele><time>2026-05-02T12:39:31.717Z</time></trkpt><trkpt lat="44.5591642" lon="9.8371395"><ele>939.0</ele><time>2026-05-02T12:39:33.717Z</time></trkpt><trkpt lat="44.5592027" lon="9.8372171"><ele>939.0</ele><time>2026-05-02T12:39:36.717Z</time></trkpt><trkpt lat="44.5592511" lon="9.837299"><ele>938.5</ele><time>2026-05-02T12:39:38.718Z</time></trkpt><trkpt lat="44.5592957" lon="9.837385"><ele>938.0</ele><time>2026-05-02T12:39:40.717Z</time></trkpt><trkpt lat="44.5593463" lon="9.8374487"><ele>937.5</ele><time>2026-05-02T12:40:23.717Z</time></trkpt><trkpt lat="44.5593923" lon="9.8375256"><ele>937.0</ele><time>2026-05-02T12:40:27.717Z</time></trkpt><trkpt lat="44.5594584" lon="9.8375841"><ele>936.5</ele><time>2026-05-02T12:40:32.718Z</time></trkpt><trkpt lat="44.5595384" lon="9.8376205"><ele>936.0</ele><time>2026-05-02T12:40:35.717Z</time></trkpt><trkpt lat="44.5596134" lon="9.8376384"><ele>933.3333333333334</ele><time>2026-05-02T12:40:38.717Z</time></trkpt><trkpt lat="44.5596795" lon="9.837649"><ele>930.6666666666667</ele><time>2026-05-02T12:40:40.717Z</time></trkpt><trkpt lat="44.5597587" lon="9.8376757"><ele>928.0</ele><time>2026-05-02T12:40:42.717Z</time></trkpt><trkpt lat="44.5598374" lon="9.8376989"><ele>925.3333333333334</ele><time>2026-05-02T12:40:44.718Z</time></trkpt><trkpt lat="44.5599018" lon="9.8377107"><ele>922.6666666666667</ele><time>2026-05-02T12:40:46.717Z</time></trkpt><trkpt lat="44.5599848" lon="9.8376927"><ele>920.0</ele><time>2026-05-02T12:40:49.718Z</time></trkpt><trkpt lat="44.5600615" lon="9.8376723"><ele>920.0000000000001</ele><time>2026-05-02T12:40:51.717Z</time></trkpt><trkpt lat="44.5601503" lon="9.8376795"><ele>920.0</ele><time>2026-05-02T12:40:53.717Z</time></trkpt><trkpt lat="44.5602366" lon="9.8376584"><ele>920.0</ele><time>2026-05-02T12:40:55.717Z</time></trkpt><trkpt lat="44.5603117" lon="9.8376278"><ele>920.0</ele><time>2026-05-02T12:40:57.717Z</time></trkpt><trkpt lat="44.5603844" lon="9.8376045"><ele>920.0000000000001</ele><time>2026-05-02T12:40:59.717Z</time></trkpt><trkpt lat="44.5604658" lon="9.8376091"><ele>920.0</ele><time>2026-05-02T12:41:06.717Z</time></trkpt><trkpt lat="44.5605437" lon="9.8376236"><ele>918.3333333333334</ele><time>2026-05-02T12:41:08.717Z</time></trkpt><trkpt lat="44.5606233" lon="9.8376415"><ele>916.6666666666667</ele><time>2026-05-02T12:41:10.717Z</time></trkpt><trkpt lat="44.5606937" lon="9.837659"><ele>915.0</ele><time>2026-05-02T12:41:12.717Z</time></trkpt><trkpt lat="44.5607684" lon="9.8376637"><ele>913.3333333333333</ele><time>2026-05-02T12:41:14.717Z</time></trkpt><trkpt lat="44.5608447" lon="9.8376288"><ele>911.6666666666666</ele><time>2026-05-02T12:41:17.717Z</time></trkpt><trkpt lat="44.5608465" lon="9.837511"><ele>910.0</ele><time>2026-05-02T12:41:20.717Z</time></trkpt><trkpt lat="44.5608408" lon="9.8374037"><ele>908.9999999999999</ele><time>2026-05-02T12:41:22.717Z</time></trkpt><trkpt lat="44.560838" lon="9.8373046"><ele>908.0</ele><time>2026-05-02T12:41:24.717Z</time></trkpt><trkpt lat="44.5608404" lon="9.8371917"><ele>907.0</ele><time>2026-05-02T12:41:26.717Z</time></trkpt><trkpt lat="44.5608303" lon="9.837078"><ele>906.0</ele><time>2026-05-02T12:41:28.718Z</time></trkpt><trkpt lat="44.5608209" lon="9.8369754"><ele>904.9999999999999</ele><time>2026-05-02T12:41:30.717Z</time></trkpt><trkpt lat="44.5607789" lon="9.8368754"><ele>904.0</ele><time>2026-05-02T12:41:32.717Z</time></trkpt><trkpt lat="44.5607496" lon="9.8367683"><ele>902.9999999999999</ele><time>2026-05-02T12:41:34.717Z</time></trkpt><trkpt lat="44.5607355" lon="9.8366672"><ele>902.0</ele><time>2026-05-02T12:41:36.717Z</time></trkpt><trkpt lat="44.5607379" lon="9.8365427"><ele>901.0</ele><time>2026-05-02T12:41:38.717Z</time></trkpt><trkpt lat="44.5607812" lon="9.8363973"><ele>900.0</ele><time>2026-05-02T12:41:40.717Z</time></trkpt><trkpt lat="44.5608446" lon="9.836403"><ele>898.9999999999999</ele><time>2026-05-02T12:41:42.717Z</time></trkpt><trkpt lat="44.5609141" lon="9.8363981"><ele>898.0</ele><time>2026-05-02T12:41:44.718Z</time></trkpt><trkpt lat="44.5610377" lon="9.8363888"><ele>898.0</ele><time>2026-05-02T12:41:45.718Z</time></trkpt><trkpt lat="44.5611631" lon="9.8363623"><ele>898.0</ele><time>2026-05-02T12:41:47.717Z</time></trkpt><trkpt lat="44.561196" lon="9.8364743"><ele>898.0</ele><time>2026-05-02T12:41:48.718Z</time></trkpt><trkpt lat="44.561259" lon="9.8365179"><ele>898.0</ele><time>2026-05-02T12:41:51.717Z</time></trkpt><trkpt lat="44.5612395" lon="9.8366307"><ele>898.0</ele><time>2026-05-02T12:41:52.717Z</time></trkpt><trkpt lat="44.5612405" lon="9.8367536"><ele>895.4285714285713</ele><time>2026-05-02T12:41:54.717Z</time></trkpt><trkpt lat="44.5612799" lon="9.836841"><ele>892.8571428571428</ele><time>2026-05-02T12:41:55.718Z</time></trkpt><trkpt lat="44.561315" lon="9.8369177"><ele>890.2857142857142</ele><time>2026-05-02T12:41:56.717Z</time></trkpt><trkpt lat="44.5613319" lon="9.8370066"><ele>887.7142857142857</ele><time>2026-05-02T12:41:57.717Z</time></trkpt><trkpt lat="44.5613753" lon="9.8370963"><ele>885.1428571428571</ele><time>2026-05-02T12:41:58.717Z</time></trkpt><trkpt lat="44.5614116" lon="9.8371756"><ele>882.5714285714284</ele><time>2026-05-02T12:41:59.717Z</time></trkpt><trkpt lat="44.5614611" lon="9.8372606"><ele>880.0</ele><time>2026-05-02T12:42:00.717Z</time></trkpt><trkpt lat="44.5615018" lon="9.8373375"><ele>879.9999999999999</ele><time>2026-05-02T12:42:01.717Z</time></trkpt><trkpt lat="44.5615351" lon="9.8374218"><ele>880.0</ele><time>2026-05-02T12:42:02.717Z</time></trkpt><trkpt lat="44.5615695" lon="9.8375252"><ele>880.0</ele><time>2026-05-02T12:42:03.718Z</time></trkpt><trkpt lat="44.5615653" lon="9.8376544"><ele>880.0</ele><time>2026-05-02T12:42:04.718Z</time></trkpt><trkpt lat="44.5615769" lon="9.8378157"><ele>879.9999999999999</ele><time>2026-05-02T12:42:05.717Z</time></trkpt><trkpt lat="44.561576" lon="9.8379331"><ele>880.0</ele><time>2026-05-02T12:42:06.718Z</time></trkpt><trkpt lat="44.5615998" lon="9.838059"><ele>880.8</ele><time>2026-05-02T12:42:07.718Z</time></trkpt><trkpt lat="44.5616153" lon="9.8381676"><ele>881.6</ele><time>2026-05-02T12:42:08.717Z</time></trkpt><trkpt lat="44.5616549" lon="9.8383271"><ele>882.4000000000001</ele><time>2026-05-02T12:42:09.718Z</time></trkpt><trkpt lat="44.561703" lon="9.8384568"><ele>883.2</ele><time>2026-05-02T12:42:10.717Z</time></trkpt><trkpt lat="44.5617959" lon="9.8385518"><ele>884.0</ele><time>2026-05-02T12:42:11.718Z</time></trkpt><trkpt lat="44.5618733" lon="9.8386196"><ele>885.2</ele><time>2026-05-02T12:42:12.717Z</time></trkpt><trkpt lat="44.5619341" lon="9.8387141"><ele>886.4000000000001</ele><time>2026-05-02T12:42:13.718Z</time></trkpt><trkpt lat="44.5620038" lon="9.8388085"><ele>887.6</ele><time>2026-05-02T12:42:14.717Z</time></trkpt><trkpt lat="44.5620797" lon="9.8388948"><ele>888.8</ele><time>2026-05-02T12:42:15.717Z</time></trkpt><trkpt lat="44.5621195" lon="9.839001"><ele>890.0</ele><time>2026-05-02T12:42:16.717Z</time></trkpt><trkpt lat="44.5621714" lon="9.8391102"><ele>884.1666666666667</ele><time>2026-05-02T12:42:17.717Z</time></trkpt><trkpt lat="44.562218" lon="9.8392156"><ele>878.3333333333334</ele><time>2026-05-02T12:42:18.717Z</time></trkpt><trkpt lat="44.5622732" lon="9.8392997"><ele>872.5</ele><time>2026-05-02T12:42:19.717Z</time></trkpt><trkpt lat="44.5623301" lon="9.8394056"><ele>866.6666666666667</ele><time>2026-05-02T12:42:20.718Z</time></trkpt><trkpt lat="44.5623808" lon="9.8395112"><ele>860.8333333333334</ele><time>2026-05-02T12:42:21.717Z</time></trkpt><trkpt lat="44.5623842" lon="9.8396364"><ele>855.0</ele><time>2026-05-02T12:42:22.717Z</time></trkpt><trkpt lat="44.562385" lon="9.8397571"><ele>854.4</ele><time>2026-05-02T12:42:23.717Z</time></trkpt><trkpt lat="44.5624026" lon="9.8398842"><ele>853.8</ele><time>2026-05-02T12:42:24.717Z</time></trkpt><trkpt lat="44.5623823" lon="9.8400233"><ele>853.2</ele><time>2026-05-02T12:42:25.718Z</time></trkpt><trkpt lat="44.5623869" lon="9.8401458"><ele>852.6</ele><time>2026-05-02T12:42:26.717Z</time></trkpt><trkpt lat="44.5623771" lon="9.8402773"><ele>852.0</ele><time>2026-05-02T12:42:27.717Z</time></trkpt><trkpt lat="44.5623278" lon="9.8403814"><ele>850.8333333333334</ele><time>2026-05-02T12:42:28.717Z</time></trkpt><trkpt lat="44.5622781" lon="9.8404912"><ele>849.6666666666667</ele><time>2026-05-02T12:42:29.717Z</time></trkpt><trkpt lat="44.5622217" lon="9.8405941"><ele>848.5</ele><time>2026-05-02T12:42:30.717Z</time></trkpt><trkpt lat="44.5621703" lon="9.8406955"><ele>847.3333333333334</ele><time>2026-05-02T12:42:31.717Z</time></trkpt><trkpt lat="44.5621169" lon="9.8407805"><ele>846.1666666666667</ele><time>2026-05-02T12:42:32.719Z</time></trkpt><trkpt lat="44.5620607" lon="9.8408596"><ele>845.0</ele><time>2026-05-02T12:42:33.717Z</time></trkpt><trkpt lat="44.5619982" lon="9.8409421"><ele>844.9999999999999</ele><time>2026-05-02T12:42:34.717Z</time></trkpt><trkpt lat="44.5619452" lon="9.8410123"><ele>845.0</ele><time>2026-05-02T12:42:35.717Z</time></trkpt><trkpt lat="44.5618875" lon="9.8410675"><ele>845.0</ele><time>2026-05-02T12:42:36.717Z</time></trkpt><trkpt lat="44.5618224" lon="9.8411144"><ele>845.0</ele><time>2026-05-02T12:42:37.718Z</time></trkpt><trkpt lat="44.5617492" lon="9.8411471"><ele>845.0</ele><time>2026-05-02T12:42:38.717Z</time></trkpt><trkpt lat="44.5616785" lon="9.841188"><ele>844.9999999999999</ele><time>2026-05-02T12:42:39.717Z</time></trkpt><trkpt lat="44.5616098" lon="9.8412387"><ele>845.0</ele><time>2026-05-02T12:42:40.717Z</time></trkpt><trkpt lat="44.5615468" lon="9.841284"><ele>845.0000000000001</ele><time>2026-05-02T12:42:41.717Z</time></trkpt><trkpt lat="44.561488" lon="9.8413411"><ele>845.0</ele><time>2026-05-02T12:42:42.717Z</time></trkpt><trkpt lat="44.5614494" lon="9.8414298"><ele>845.0</ele><time>2026-05-02T12:42:43.717Z</time></trkpt><trkpt lat="44.5614155" lon="9.8415242"><ele>845.0</ele><time>2026-05-02T12:42:44.717Z</time></trkpt><trkpt lat="44.5613336" lon="9.8416386"><ele>845.0000000000001</ele><time>2026-05-02T12:42:46.717Z</time></trkpt><trkpt lat="44.5612245" lon="9.8416616"><ele>845.0</ele><time>2026-05-02T12:42:48.717Z</time></trkpt><trkpt lat="44.5611316" lon="9.8416524"><ele>844.9999999999999</ele><time>2026-05-02T12:42:50.717Z</time></trkpt><trkpt lat="44.5610974" lon="9.8417278"><ele>845.0</ele><time>2026-05-02T12:42:52.717Z</time></trkpt><trkpt lat="44.5611401" lon="9.8418072"><ele>845.0</ele><time>2026-05-02T12:42:55.717Z</time></trkpt><trkpt lat="44.5612019" lon="9.8418597"><ele>845.0</ele><time>2026-05-02T12:42:57.717Z</time></trkpt><trkpt lat="44.5612723" lon="9.8418775"><ele>845.0</ele><time>2026-05-02T12:42:59.717Z</time></trkpt><trkpt lat="44.561349" lon="9.8418702"><ele>844.9999999999999</ele><time>2026-05-02T12:43:01.717Z</time></trkpt><trkpt lat="44.5614198" lon="9.8418507"><ele>845.0</ele><time>2026-05-02T12:43:03.718Z</time></trkpt><trkpt lat="44.5615048" lon="9.8418384"><ele>841.6</ele><time>2026-05-02T12:43:21.717Z</time></trkpt><trkpt lat="44.5615754" lon="9.8418459"><ele>838.2</ele><time>2026-05-02T12:43:24.717Z</time></trkpt><trkpt lat="44.5617042" lon="9.8418475"><ele>834.8</ele><time>2026-05-02T12:43:25.717Z</time></trkpt><trkpt lat="44.5617733" lon="9.8418509"><ele>831.4</ele><time>2026-05-02T12:43:26.717Z</time></trkpt><trkpt lat="44.5618822" lon="9.8418559"><ele>828.0</ele><time>2026-05-02T12:43:27.717Z</time></trkpt><trkpt lat="44.5619703" lon="9.8418227"><ele>828.0</ele><time>2026-05-02T12:43:28.717Z</time></trkpt><trkpt lat="44.5620537" lon="9.8418232"><ele>828.0</ele><time>2026-05-02T12:43:29.717Z</time></trkpt><trkpt lat="44.5621778" lon="9.8418219"><ele>828.0</ele><time>2026-05-02T12:43:30.717Z</time></trkpt><trkpt lat="44.5622446" lon="9.8418537"><ele>828.0</ele><time>2026-05-02T12:43:31.717Z</time></trkpt><trkpt lat="44.5623198" lon="9.8418696"><ele>828.0</ele><time>2026-05-02T12:43:32.717Z</time></trkpt><trkpt lat="44.5623898" lon="9.8418747"><ele>828.0</ele><time>2026-05-02T12:43:33.717Z</time></trkpt><trkpt lat="44.5624842" lon="9.8417658"><ele>830.0</ele><time>2026-05-02T12:43:35.718Z</time></trkpt><trkpt lat="44.5625189" lon="9.8416725"><ele>832.0</ele><time>2026-05-02T12:43:36.717Z</time></trkpt><trkpt lat="44.562521" lon="9.8415429"><ele>834.0</ele><time>2026-05-02T12:43:37.717Z</time></trkpt><trkpt lat="44.562544" lon="9.8413984"><ele>836.0</ele><time>2026-05-02T12:43:38.718Z</time></trkpt><trkpt lat="44.5625678" lon="9.8412642"><ele>838.0</ele><time>2026-05-02T12:43:39.717Z</time></trkpt><trkpt lat="44.5626064" lon="9.8411263"><ele>837.9999999999999</ele><time>2026-05-02T12:43:40.717Z</time></trkpt><trkpt lat="44.562682" lon="9.841033"><ele>838.0</ele><time>2026-05-02T12:43:41.717Z</time></trkpt><trkpt lat="44.5627375" lon="9.8409331"><ele>838.0</ele><time>2026-05-02T12:43:42.718Z</time></trkpt><trkpt lat="44.5628026" lon="9.8408717"><ele>838.0</ele><time>2026-05-02T12:43:43.717Z</time></trkpt><trkpt lat="44.5628708" lon="9.8408089"><ele>837.9999999999999</ele><time>2026-05-02T12:43:44.717Z</time></trkpt><trkpt lat="44.5629367" lon="9.840739"><ele>838.0</ele><time>2026-05-02T12:43:45.718Z</time></trkpt><trkpt lat="44.5630094" lon="9.8406949"><ele>836.1666666666666</ele><time>2026-05-02T12:43:46.717Z</time></trkpt><trkpt lat="44.5630859" lon="9.8407105"><ele>834.3333333333333</ele><time>2026-05-02T12:43:47.717Z</time></trkpt><trkpt lat="44.5632043" lon="9.8407832"><ele>832.5</ele><time>2026-05-02T12:43:48.717Z</time></trkpt><trkpt lat="44.5632817" lon="9.8408242"><ele>830.6666666666667</ele><time>2026-05-02T12:43:49.718Z</time></trkpt><trkpt lat="44.5633497" lon="9.8408569"><ele>828.8333333333334</ele><time>2026-05-02T12:43:50.718Z</time></trkpt><trkpt lat="44.5634213" lon="9.8408347"><ele>827.0</ele><time>2026-05-02T12:43:51.717Z</time></trkpt><trkpt lat="44.5634391" lon="9.840724"><ele>827.0</ele><time>2026-05-02T12:43:52.717Z</time></trkpt><trkpt lat="44.5635485" lon="9.8406856"><ele>827.0</ele><time>2026-05-02T12:43:54.717Z</time></trkpt><trkpt lat="44.563612" lon="9.8406858"><ele>827.0</ele><time>2026-05-02T12:43:55.717Z</time></trkpt><trkpt lat="44.5637142" lon="9.8407725"><ele>827.0</ele><time>2026-05-02T12:43:56.717Z</time></trkpt><trkpt lat="44.5637883" lon="9.8408069"><ele>827.0</ele><time>2026-05-02T12:43:57.717Z</time></trkpt><trkpt lat="44.5638866" lon="9.8408569"><ele>825.0</ele><time>2026-05-02T12:43:58.717Z</time></trkpt><trkpt lat="44.5639697" lon="9.8409115"><ele>823.0</ele><time>2026-05-02T12:43:59.717Z</time></trkpt><trkpt lat="44.5640138" lon="9.8409843"><ele>821.0</ele><time>2026-05-02T12:44:00.717Z</time></trkpt><trkpt lat="44.564044" lon="9.8411175"><ele>819.0</ele><time>2026-05-02T12:44:01.717Z</time></trkpt><trkpt lat="44.5640184" lon="9.8413119"><ele>817.0</ele><time>2026-05-02T12:44:02.717Z</time></trkpt><trkpt lat="44.5639812" lon="9.8415032"><ele>816.4999999999999</ele><time>2026-05-02T12:44:04.717Z</time></trkpt><trkpt lat="44.5639452" lon="9.8415826"><ele>816.0</ele><time>2026-05-02T12:44:05.717Z</time></trkpt><trkpt lat="44.5639172" lon="9.841684"><ele>815.5</ele><time>2026-05-02T12:44:06.717Z</time></trkpt><trkpt lat="44.5639009" lon="9.841774"><ele>815.0</ele><time>2026-05-02T12:44:07.717Z</time></trkpt><trkpt lat="44.5639784" lon="9.8418739"><ele>814.4999999999999</ele><time>2026-05-02T12:44:09.717Z</time></trkpt><trkpt lat="44.5640274" lon="9.8419399"><ele>814.0</ele><time>2026-05-02T12:44:10.718Z</time></trkpt><trkpt lat="44.5640776" lon="9.8420043"><ele>813.1666666666666</ele><time>2026-05-02T12:44:11.718Z</time></trkpt><trkpt lat="44.5641343" lon="9.8420704"><ele>812.3333333333333</ele><time>2026-05-02T12:44:12.717Z</time></trkpt><trkpt lat="44.5641963" lon="9.8421166"><ele>811.5</ele><time>2026-05-02T12:44:13.718Z</time></trkpt><trkpt lat="44.5642571" lon="9.8421404"><ele>810.6666666666667</ele><time>2026-05-02T12:44:14.717Z</time></trkpt><trkpt lat="44.5643198" lon="9.84223"><ele>809.8333333333334</ele><time>2026-05-02T12:44:16.717Z</time></trkpt><trkpt lat="44.5643308" lon="9.842334"><ele>809.0</ele><time>2026-05-02T12:44:18.717Z</time></trkpt><trkpt lat="44.564299" lon="9.8424933"><ele>809.0000000000001</ele><time>2026-05-02T12:44:20.717Z</time></trkpt><trkpt lat="44.5642911" lon="9.8425971"><ele>809.0</ele><time>2026-05-02T12:44:21.717Z</time></trkpt><trkpt lat="44.5642931" lon="9.8426872"><ele>809.0</ele><time>2026-05-02T12:44:22.717Z</time></trkpt><trkpt lat="44.5643571" lon="9.8427691"><ele>809.0</ele><time>2026-05-02T12:44:23.717Z</time></trkpt><trkpt lat="44.5644155" lon="9.8428692"><ele>809.0000000000001</ele><time>2026-05-02T12:44:24.717Z</time></trkpt><trkpt lat="44.5644774" lon="9.8429699"><ele>809.0</ele><time>2026-05-02T12:44:25.717Z</time></trkpt><trkpt lat="44.5645278" lon="9.843079"><ele>808.0</ele><time>2026-05-02T12:44:26.717Z</time></trkpt><trkpt lat="44.564566" lon="9.8431984"><ele>807.0</ele><time>2026-05-02T12:44:27.717Z</time></trkpt><trkpt lat="44.5645791" lon="9.843337"><ele>806.0</ele><time>2026-05-02T12:44:28.717Z</time></trkpt><trkpt lat="44.5646176" lon="9.8434582"><ele>805.0</ele><time>2026-05-02T12:44:29.717Z</time></trkpt><trkpt lat="44.5646661" lon="9.843554"><ele>804.0</ele><time>2026-05-02T12:44:30.717Z</time></trkpt><trkpt lat="44.5647216" lon="9.8436369"><ele>801.8333333333334</ele><time>2026-05-02T12:44:31.717Z</time></trkpt><trkpt lat="44.5647942" lon="9.8437138"><ele>799.6666666666667</ele><time>2026-05-02T12:44:32.718Z</time></trkpt><trkpt lat="44.5648644" lon="9.8437717"><ele>797.5</ele><time>2026-05-02T12:44:33.717Z</time></trkpt><trkpt lat="44.564927" lon="9.8438068"><ele>795.3333333333334</ele><time>2026-05-02T12:44:34.717Z</time></trkpt><trkpt lat="44.564986" lon="9.843838"><ele>793.1666666666667</ele><time>2026-05-02T12:44:35.717Z</time></trkpt><trkpt lat="44.5650985" lon="9.8438816"><ele>791.0</ele><time>2026-05-02T12:44:37.717Z</time></trkpt><trkpt lat="44.5651624" lon="9.843907"><ele>791.0000000000001</ele><time>2026-05-02T12:44:38.718Z</time></trkpt><trkpt lat="44.5652788" lon="9.8438195"><ele>791.0</ele><time>2026-05-02T12:44:40.718Z</time></trkpt><trkpt lat="44.5653387" lon="9.8437478"><ele>791.0</ele><time>2026-05-02T12:44:41.717Z</time></trkpt><trkpt lat="44.5653925" lon="9.843671"><ele>791.0</ele><time>2026-05-02T12:44:42.717Z</time></trkpt><trkpt lat="44.5654585" lon="9.8436077"><ele>791.0000000000001</ele><time>2026-05-02T12:44:43.717Z</time></trkpt><trkpt lat="44.5655349" lon="9.8436159"><ele>791.0</ele><time>2026-05-02T12:44:44.717Z</time></trkpt><trkpt lat="44.5656104" lon="9.843608"><ele>789.1999999999999</ele><time>2026-05-02T12:44:45.717Z</time></trkpt><trkpt lat="44.5656859" lon="9.8436484"><ele>787.4</ele><time>2026-05-02T12:44:46.717Z</time></trkpt><trkpt lat="44.5657489" lon="9.8437557"><ele>785.6</ele><time>2026-05-02T12:44:47.717Z</time></trkpt><trkpt lat="44.5658105" lon="9.8438374"><ele>783.8</ele><time>2026-05-02T12:44:48.717Z</time></trkpt><trkpt lat="44.5658798" lon="9.8439237"><ele>782.0</ele><time>2026-05-02T12:44:49.718Z</time></trkpt><trkpt lat="44.5659044" lon="9.8440544"><ele>782.0000000000001</ele><time>2026-05-02T12:44:50.717Z</time></trkpt><trkpt lat="44.5659449" lon="9.8441589"><ele>782.0</ele><time>2026-05-02T12:44:51.718Z</time></trkpt><trkpt lat="44.5659839" lon="9.8442555"><ele>782.0</ele><time>2026-05-02T12:44:52.717Z</time></trkpt><trkpt lat="44.5660659" lon="9.8443898"><ele>782.0</ele><time>2026-05-02T12:44:54.717Z</time></trkpt><trkpt lat="44.566131" lon="9.8444483"><ele>782.0000000000001</ele><time>2026-05-02T12:44:55.717Z</time></trkpt><trkpt lat="44.5661932" lon="9.8445105"><ele>782.0</ele><time>2026-05-02T12:44:56.717Z</time></trkpt><trkpt lat="44.5662859" lon="9.8446115"><ele>778.8</ele><time>2026-05-02T12:44:58.718Z</time></trkpt><trkpt lat="44.5662928" lon="9.8447308"><ele>775.6</ele><time>2026-05-02T12:45:00.717Z</time></trkpt><trkpt lat="44.566263" lon="9.8448438"><ele>772.4</ele><time>2026-05-02T12:45:02.717Z</time></trkpt><trkpt lat="44.5661842" lon="9.8449333"><ele>769.1999999999999</ele><time>2026-05-02T12:45:04.718Z</time></trkpt><trkpt lat="44.5660787" lon="9.8449679"><ele>766.0</ele><time>2026-05-02T12:45:06.717Z</time></trkpt><trkpt lat="44.5659731" lon="9.8449711"><ele>766.0</ele><time>2026-05-02T12:45:08.717Z</time></trkpt><trkpt lat="44.5658483" lon="9.8449842"><ele>766.0</ele><time>2026-05-02T12:45:10.718Z</time></trkpt><trkpt lat="44.5657633" lon="9.8450062"><ele>766.0</ele><time>2026-05-02T12:45:11.719Z</time></trkpt><trkpt lat="44.5656583" lon="9.845036"><ele>766.0</ele><time>2026-05-02T12:45:12.717Z</time></trkpt><trkpt lat="44.565561" lon="9.8450561"><ele>766.0</ele><time>2026-05-02T12:45:13.717Z</time></trkpt><trkpt lat="44.5654594" lon="9.8450885"><ele>766.0</ele><time>2026-05-02T12:45:14.717Z</time></trkpt><trkpt lat="44.5653656" lon="9.8451059"><ele>766.0</ele><time>2026-05-02T12:45:15.717Z</time></trkpt><trkpt lat="44.5652678" lon="9.845149"><ele>766.0</ele><time>2026-05-02T12:45:16.717Z</time></trkpt><trkpt lat="44.5651654" lon="9.8451781"><ele>766.0</ele><time>2026-05-02T12:45:17.717Z</time></trkpt><trkpt lat="44.5650841" lon="9.8452033"><ele>766.0</ele><time>2026-05-02T12:45:18.717Z</time></trkpt><trkpt lat="44.565001" lon="9.8452943"><ele>763.5999999999999</ele><time>2026-05-02T12:45:19.717Z</time></trkpt><trkpt lat="44.5649296" lon="9.845353"><ele>761.2</ele><time>2026-05-02T12:45:20.717Z</time></trkpt><trkpt lat="44.5648528" lon="9.8454281"><ele>758.8</ele><time>2026-05-02T12:45:21.717Z</time></trkpt><trkpt lat="44.5648007" lon="9.8455666"><ele>756.4000000000001</ele><time>2026-05-02T12:45:22.717Z</time></trkpt><trkpt lat="44.564746" lon="9.8456783"><ele>754.0</ele><time>2026-05-02T12:45:23.717Z</time></trkpt><trkpt lat="44.5647054" lon="9.8457567"><ele>754.0</ele><time>2026-05-02T12:45:24.717Z</time></trkpt><trkpt lat="44.5646579" lon="9.8458567"><ele>754.0</ele><time>2026-05-02T12:45:25.717Z</time></trkpt><trkpt lat="44.5645592" lon="9.8458285"><ele>754.0</ele><time>2026-05-02T12:45:26.717Z</time></trkpt><trkpt lat="44.5644783" lon="9.8458432"><ele>754.0</ele><time>2026-05-02T12:45:27.717Z</time></trkpt><trkpt lat="44.564364" lon="9.8458348"><ele>754.0</ele><time>2026-05-02T12:45:28.717Z</time></trkpt><trkpt lat="44.5642617" lon="9.845814"><ele>755.4000000000001</ele><time>2026-05-02T12:45:29.717Z</time></trkpt><trkpt lat="44.5641618" lon="9.845794"><ele>756.8</ele><time>2026-05-02T12:45:30.717Z</time></trkpt><trkpt lat="44.5640721" lon="9.8457806"><ele>758.2</ele><time>2026-05-02T12:45:31.717Z</time></trkpt><trkpt lat="44.563972" lon="9.8457455"><ele>759.5999999999999</ele><time>2026-05-02T12:45:32.717Z</time></trkpt><trkpt lat="44.563881" lon="9.845715"><ele>761.0</ele><time>2026-05-02T12:45:33.718Z</time></trkpt><trkpt lat="44.5637996" lon="9.8457262"><ele>761.0</ele><time>2026-05-02T12:45:34.717Z</time></trkpt><trkpt lat="44.5637275" lon="9.8457329"><ele>761.0</ele><time>2026-05-02T12:45:35.718Z</time></trkpt><trkpt lat="44.5635987" lon="9.8457941"><ele>761.0</ele><time>2026-05-02T12:45:37.717Z</time></trkpt><trkpt lat="44.5635363" lon="9.8458613"><ele>761.0</ele><time>2026-05-02T12:45:38.717Z</time></trkpt><trkpt lat="44.5634835" lon="9.8459458"><ele>761.0</ele><time>2026-05-02T12:45:39.718Z</time></trkpt><trkpt lat="44.5634508" lon="9.8460336"><ele>761.0</ele><time>2026-05-02T12:45:40.717Z</time></trkpt><trkpt lat="44.563401" lon="9.8461326"><ele>759.1666666666666</ele><time>2026-05-02T12:45:41.718Z</time></trkpt><trkpt lat="44.563364" lon="9.8462151"><ele>757.3333333333333</ele><time>2026-05-02T12:45:42.717Z</time></trkpt><trkpt lat="44.5633056" lon="9.8462908"><ele>755.5</ele><time>2026-05-02T12:45:43.718Z</time></trkpt><trkpt lat="44.5632515" lon="9.8463656"><ele>753.6666666666666</ele><time>2026-05-02T12:45:44.717Z</time></trkpt><trkpt lat="44.563191" lon="9.8464176"><ele>751.8333333333334</ele><time>2026-05-02T12:45:45.718Z</time></trkpt><trkpt lat="44.5631181" lon="9.8464427"><ele>750.0</ele><time>2026-05-02T12:45:46.717Z</time></trkpt><trkpt lat="44.5630128" lon="9.8464136"><ele>750.0</ele><time>2026-05-02T12:45:47.717Z</time></trkpt><trkpt lat="44.5629094" lon="9.8464006"><ele>750.0</ele><time>2026-05-02T12:45:48.719Z</time></trkpt><trkpt lat="44.5628261" lon="9.8463802"><ele>750.0</ele><time>2026-05-02T12:45:49.717Z</time></trkpt><trkpt lat="44.5627511" lon="9.8463091"><ele>750.0</ele><time>2026-05-02T12:45:50.717Z</time></trkpt><trkpt lat="44.5626634" lon="9.8462493"><ele>750.0</ele><time>2026-05-02T12:45:51.717Z</time></trkpt><trkpt lat="44.5625741" lon="9.8462035"><ele>751.4</ele><time>2026-05-02T12:45:52.718Z</time></trkpt><trkpt lat="44.5624828" lon="9.8461566"><ele>752.8</ele><time>2026-05-02T12:45:53.717Z</time></trkpt><trkpt lat="44.5624057" lon="9.8461361"><ele>754.2</ele><time>2026-05-02T12:45:54.717Z</time></trkpt><trkpt lat="44.5623301" lon="9.8461438"><ele>755.6</ele><time>2026-05-02T12:46:01.717Z</time></trkpt><trkpt lat="44.5622351" lon="9.846161"><ele>757.0</ele><time>2026-05-02T12:46:03.717Z</time></trkpt><trkpt lat="44.5621236" lon="9.8461033"><ele>758.6</ele><time>2026-05-02T12:46:05.718Z</time></trkpt><trkpt lat="44.5620143" lon="9.8460679"><ele>760.2</ele><time>2026-05-02T12:46:07.717Z</time></trkpt><trkpt lat="44.561895" lon="9.8460234"><ele>761.8</ele><time>2026-05-02T12:46:09.718Z</time></trkpt><trkpt lat="44.5617789" lon="9.8459746"><ele>763.4</ele><time>2026-05-02T12:46:11.718Z</time></trkpt><trkpt lat="44.5617157" lon="9.8459463"><ele>765.0</ele><time>2026-05-02T12:46:12.717Z</time></trkpt><trkpt lat="44.5616532" lon="9.845917"><ele>766.2857142857143</ele><time>2026-05-02T12:46:13.718Z</time></trkpt><trkpt lat="44.5615912" lon="9.8458869"><ele>767.5714285714286</ele><time>2026-05-02T12:46:14.717Z</time></trkpt><trkpt lat="44.5615254" lon="9.8458645"><ele>768.8571428571429</ele><time>2026-05-02T12:46:15.718Z</time></trkpt><trkpt lat="44.561459" lon="9.8458446"><ele>770.1428571428571</ele><time>2026-05-02T12:46:16.717Z</time></trkpt><trkpt lat="44.5613878" lon="9.8458278"><ele>771.4285714285714</ele><time>2026-05-02T12:46:17.718Z</time></trkpt><trkpt lat="44.5613151" lon="9.8458265"><ele>772.7142857142858</ele><time>2026-05-02T12:46:18.717Z</time></trkpt><trkpt lat="44.5612407" lon="9.8458339"><ele>774.0</ele><time>2026-05-02T12:46:19.717Z</time></trkpt><trkpt lat="44.5611646" lon="9.8458642"><ele>774.2</ele><time>2026-05-02T12:46:20.717Z</time></trkpt><trkpt lat="44.5610905" lon="9.8458886"><ele>774.4000000000001</ele><time>2026-05-02T12:46:21.717Z</time></trkpt><trkpt lat="44.5609804" lon="9.8459715"><ele>774.6</ele><time>2026-05-02T12:46:23.718Z</time></trkpt><trkpt lat="44.5609066" lon="9.8460266"><ele>774.8</ele><time>2026-05-02T12:46:24.718Z</time></trkpt><trkpt lat="44.5608123" lon="9.8461056"><ele>775.0</ele><time>2026-05-02T12:46:25.717Z</time></trkpt><trkpt lat="44.5607368" lon="9.8462106"><ele>775.0</ele><time>2026-05-02T12:46:26.717Z</time></trkpt><trkpt lat="44.560673" lon="9.8463292"><ele>775.0</ele><time>2026-05-02T12:46:27.717Z</time></trkpt><trkpt lat="44.5605917" lon="9.8464096"><ele>775.0</ele><time>2026-05-02T12:46:28.717Z</time></trkpt><trkpt lat="44.5605174" lon="9.8464817"><ele>775.0</ele><time>2026-05-02T12:46:29.717Z</time></trkpt><trkpt lat="44.5604346" lon="9.8465594"><ele>775.0</ele><time>2026-05-02T12:46:30.717Z</time></trkpt><trkpt lat="44.5603529" lon="9.8466456"><ele>776.0</ele><time>2026-05-02T12:46:31.717Z</time></trkpt><trkpt lat="44.5602736" lon="9.8467235"><ele>777.0</ele><time>2026-05-02T12:46:32.717Z</time></trkpt><trkpt lat="44.5602021" lon="9.8468186"><ele>778.0</ele><time>2026-05-02T12:46:33.718Z</time></trkpt><trkpt lat="44.5601385" lon="9.8469237"><ele>779.0</ele><time>2026-05-02T12:46:34.717Z</time></trkpt><trkpt lat="44.5600705" lon="9.8470231"><ele>780.0</ele><time>2026-05-02T12:46:35.717Z</time></trkpt><trkpt lat="44.560011" lon="9.8471493"><ele>780.0</ele><time>2026-05-02T12:46:36.717Z</time></trkpt><trkpt lat="44.559934" lon="9.8472403"><ele>780.0</ele><time>2026-05-02T12:46:37.717Z</time></trkpt><trkpt lat="44.5598541" lon="9.8473112"><ele>780.0</ele><time>2026-05-02T12:46:38.717Z</time></trkpt><trkpt lat="44.5597754" lon="9.8473712"><ele>780.0</ele><time>2026-05-02T12:46:39.717Z</time></trkpt><trkpt lat="44.5597081" lon="9.8474605"><ele>780.0</ele><time>2026-05-02T12:46:40.717Z</time></trkpt><trkpt lat="44.55964" lon="9.847543"><ele>780.2</ele><time>2026-05-02T12:46:41.717Z</time></trkpt><trkpt lat="44.5596127" lon="9.8476557"><ele>780.4</ele><time>2026-05-02T12:46:42.717Z</time></trkpt><trkpt lat="44.5595853" lon="9.8477874"><ele>780.5999999999999</ele><time>2026-05-02T12:46:43.717Z</time></trkpt><trkpt lat="44.5596031" lon="9.8479174"><ele>780.8</ele><time>2026-05-02T12:46:44.717Z</time></trkpt><trkpt lat="44.5596318" lon="9.8480449"><ele>781.0</ele><time>2026-05-02T12:46:45.717Z</time></trkpt><trkpt lat="44.5596746" lon="9.8481753"><ele>781.0</ele><time>2026-05-02T12:46:46.717Z</time></trkpt><trkpt lat="44.5597214" lon="9.8483092"><ele>781.0</ele><time>2026-05-02T12:46:47.717Z</time></trkpt><trkpt lat="44.5597704" lon="9.8484412"><ele>781.0</ele><time>2026-05-02T12:46:48.717Z</time></trkpt><trkpt lat="44.5598102" lon="9.8485797"><ele>781.0</ele><time>2026-05-02T12:46:49.717Z</time></trkpt><trkpt lat="44.5598413" lon="9.8487306"><ele>781.0</ele><time>2026-05-02T12:46:50.717Z</time></trkpt><trkpt lat="44.5598551" lon="9.8488714"><ele>782.4</ele><time>2026-05-02T12:46:51.717Z</time></trkpt><trkpt lat="44.5598651" lon="9.8490115"><ele>783.8</ele><time>2026-05-02T12:46:52.717Z</time></trkpt><trkpt lat="44.5598674" lon="9.8491798"><ele>785.1999999999999</ele><time>2026-05-02T12:46:53.717Z</time></trkpt><trkpt lat="44.5598302" lon="9.8493286"><ele>786.5999999999999</ele><time>2026-05-02T12:46:54.718Z</time></trkpt><trkpt lat="44.5597673" lon="9.849461"><ele>788.0</ele><time>2026-05-02T12:46:55.717Z</time></trkpt><trkpt lat="44.559713" lon="9.849582"><ele>788.0</ele><time>2026-05-02T12:46:56.717Z</time></trkpt><trkpt lat="44.5596484" lon="9.8496909"><ele>788.0</ele><time>2026-05-02T12:46:57.717Z</time></trkpt><trkpt lat="44.5595868" lon="9.8497993"><ele>788.0</ele><time>2026-05-02T12:46:58.717Z</time></trkpt><trkpt lat="44.5595453" lon="9.8499156"><ele>788.0</ele><time>2026-05-02T12:46:59.717Z</time></trkpt><trkpt lat="44.5595327" lon="9.8500265"><ele>788.0</ele><time>2026-05-02T12:47:00.717Z</time></trkpt><trkpt lat="44.559543" lon="9.8501483"><ele>786.0</ele><time>2026-05-02T12:47:01.719Z</time></trkpt><trkpt lat="44.5595775" lon="9.850262"><ele>784.0</ele><time>2026-05-02T12:47:02.717Z</time></trkpt><trkpt lat="44.5596004" lon="9.8503776"><ele>782.0</ele><time>2026-05-02T12:47:03.717Z</time></trkpt><trkpt lat="44.5595991" lon="9.8505055"><ele>780.0</ele><time>2026-05-02T12:47:04.717Z</time></trkpt><trkpt lat="44.5595735" lon="9.8506317"><ele>778.0</ele><time>2026-05-02T12:47:05.717Z</time></trkpt><trkpt lat="44.5595362" lon="9.8507541"><ele>779.5999999999999</ele><time>2026-05-02T12:47:06.718Z</time></trkpt><trkpt lat="44.5594886" lon="9.8508694"><ele>781.1999999999999</ele><time>2026-05-02T12:47:07.717Z</time></trkpt><trkpt lat="44.5594333" lon="9.8509897"><ele>782.8</ele><time>2026-05-02T12:47:08.717Z</time></trkpt><trkpt lat="44.5593801" lon="9.8511171"><ele>784.4</ele><time>2026-05-02T12:47:09.717Z</time></trkpt><trkpt lat="44.5593327" lon="9.8512408"><ele>786.0</ele><time>2026-05-02T12:47:10.717Z</time></trkpt><trkpt lat="44.5592754" lon="9.8513466"><ele>786.0</ele><time>2026-05-02T12:47:11.717Z</time></trkpt><trkpt lat="44.5592044" lon="9.851427"><ele>786.0</ele><time>2026-05-02T12:47:12.718Z</time></trkpt><trkpt lat="44.5591287" lon="9.8514889"><ele>786.0</ele><time>2026-05-02T12:47:13.718Z</time></trkpt><trkpt lat="44.5590428" lon="9.851542"><ele>786.0</ele><time>2026-05-02T12:47:14.718Z</time></trkpt><trkpt lat="44.5589614" lon="9.8515877"><ele>786.0</ele><time>2026-05-02T12:47:15.717Z</time></trkpt><trkpt lat="44.5588875" lon="9.8516229"><ele>786.0</ele><time>2026-05-02T12:47:16.718Z</time></trkpt><trkpt lat="44.5588061" lon="9.8516499"><ele>786.0</ele><time>2026-05-02T12:47:17.717Z</time></trkpt><trkpt lat="44.5587185" lon="9.8516524"><ele>786.0</ele><time>2026-05-02T12:47:18.717Z</time></trkpt><trkpt lat="44.5586391" lon="9.8516602"><ele>786.0</ele><time>2026-05-02T12:47:19.717Z</time></trkpt><trkpt lat="44.558552" lon="9.8516818"><ele>786.0</ele><time>2026-05-02T12:47:20.717Z</time></trkpt><trkpt lat="44.5584667" lon="9.8517076"><ele>786.0</ele><time>2026-05-02T12:47:21.718Z</time></trkpt><trkpt lat="44.5583772" lon="9.8517577"><ele>786.0</ele><time>2026-05-02T12:47:22.718Z</time></trkpt><trkpt lat="44.5583031" lon="9.851827"><ele>786.1999999999999</ele><time>2026-05-02T12:47:23.717Z</time></trkpt><trkpt lat="44.5582436" lon="9.8519229"><ele>786.4</ele><time>2026-05-02T12:47:24.718Z</time></trkpt><trkpt lat="44.5581948" lon="9.8520374"><ele>786.6</ele><time>2026-05-02T12:47:25.717Z</time></trkpt><trkpt lat="44.5581442" lon="9.8521579"><ele>786.8</ele><time>2026-05-02T12:47:26.717Z</time></trkpt><trkpt lat="44.5580857" lon="9.8522743"><ele>787.0</ele><time>2026-05-02T12:47:27.717Z</time></trkpt><trkpt lat="44.5580251" lon="9.8523733"><ele>786.9999999999999</ele><time>2026-05-02T12:47:28.718Z</time></trkpt><trkpt lat="44.55796" lon="9.8524657"><ele>787.0</ele><time>2026-05-02T12:47:29.717Z</time></trkpt><trkpt lat="44.5578939" lon="9.8525458"><ele>787.0</ele><time>2026-05-02T12:47:30.717Z</time></trkpt><trkpt lat="44.5578056" lon="9.8526201"><ele>787.0</ele><time>2026-05-02T12:47:31.717Z</time></trkpt><trkpt lat="44.5577609" lon="9.8527108"><ele>786.9999999999999</ele><time>2026-05-02T12:47:32.717Z</time></trkpt><trkpt lat="44.5577236" lon="9.8528091"><ele>787.0</ele><time>2026-05-02T12:47:33.718Z</time></trkpt><trkpt lat="44.5577078" lon="9.8529121"><ele>786.9999999999999</ele><time>2026-05-02T12:47:34.717Z</time></trkpt><trkpt lat="44.5577204" lon="9.8530165"><ele>787.0</ele><time>2026-05-02T12:47:35.717Z</time></trkpt><trkpt lat="44.5577591" lon="9.8531151"><ele>787.0</ele><time>2026-05-02T12:47:36.718Z</time></trkpt><trkpt lat="44.5577964" lon="9.8532053"><ele>787.0</ele><time>2026-05-02T12:47:37.717Z</time></trkpt><trkpt lat="44.5578601" lon="9.8532631"><ele>786.9999999999999</ele><time>2026-05-02T12:47:38.717Z</time></trkpt><trkpt lat="44.5579264" lon="9.8533253"><ele>787.0</ele><time>2026-05-02T12:47:39.717Z</time></trkpt><trkpt lat="44.5580301" lon="9.8533635"><ele>787.3333333333333</ele><time>2026-05-02T12:47:40.718Z</time></trkpt><trkpt lat="44.5580461" lon="9.8534592"><ele>787.6666666666666</ele><time>2026-05-02T12:47:41.719Z</time></trkpt><trkpt lat="44.5580862" lon="9.8535454"><ele>788.0</ele><time>2026-05-02T12:47:42.717Z</time></trkpt><trkpt lat="44.5580561" lon="9.8536662"><ele>788.3333333333333</ele><time>2026-05-02T12:47:43.718Z</time></trkpt><trkpt lat="44.5580257" lon="9.853777"><ele>788.6666666666666</ele><time>2026-05-02T12:47:44.718Z</time></trkpt><trkpt lat="44.5579841" lon="9.8538896"><ele>789.0</ele><time>2026-05-02T12:47:45.718Z</time></trkpt><trkpt lat="44.557937" lon="9.8539943"><ele>789.0</ele><time>2026-05-02T12:47:46.717Z</time></trkpt><trkpt lat="44.5578859" lon="9.854107"><ele>789.0</ele><time>2026-05-02T12:47:47.717Z</time></trkpt><trkpt lat="44.557838" lon="9.8542252"><ele>789.0</ele><time>2026-05-02T12:47:48.718Z</time></trkpt><trkpt lat="44.5577933" lon="9.8543438"><ele>789.0</ele><time>2026-05-02T12:47:49.717Z</time></trkpt><trkpt lat="44.5577424" lon="9.8544523"><ele>789.0</ele><time>2026-05-02T12:47:50.717Z</time></trkpt><trkpt lat="44.5576861" lon="9.8545554"><ele>789.6666666666666</ele><time>2026-05-02T12:47:51.717Z</time></trkpt><trkpt lat="44.5576242" lon="9.8546503"><ele>790.3333333333333</ele><time>2026-05-02T12:47:52.717Z</time></trkpt><trkpt lat="44.5575631" lon="9.8547456"><ele>791.0</ele><time>2026-05-02T12:47:53.717Z</time></trkpt><trkpt lat="44.557517" lon="9.8548581"><ele>791.6666666666666</ele><time>2026-05-02T12:47:54.718Z</time></trkpt><trkpt lat="44.5574924" lon="9.8549775"><ele>792.3333333333333</ele><time>2026-05-02T12:47:55.717Z</time></trkpt><trkpt lat="44.5574794" lon="9.8550938"><ele>793.0</ele><time>2026-05-02T12:47:56.717Z</time></trkpt><trkpt lat="44.5574743" lon="9.8551912"><ele>793.0</ele><time>2026-05-02T12:47:57.717Z</time></trkpt><trkpt lat="44.5574608" lon="9.8553418"><ele>793.0</ele><time>2026-05-02T12:47:59.717Z</time></trkpt><trkpt lat="44.55744" lon="9.8554737"><ele>793.0</ele><time>2026-05-02T12:48:01.717Z</time></trkpt><trkpt lat="44.5574572" lon="9.8555834"><ele>793.0</ele><time>2026-05-02T12:48:03.717Z</time></trkpt><trkpt lat="44.5575152" lon="9.8556628"><ele>793.0</ele><time>2026-05-02T12:48:05.717Z</time></trkpt><trkpt lat="44.557595" lon="9.855782"><ele>793.0000000000001</ele><time>2026-05-02T12:48:07.718Z</time></trkpt><trkpt lat="44.5576422" lon="9.8558529"><ele>793.0</ele><time>2026-05-02T12:48:08.717Z</time></trkpt><trkpt lat="44.5576903" lon="9.8559247"><ele>793.0</ele><time>2026-05-02T12:48:09.717Z</time></trkpt><trkpt lat="44.5577384" lon="9.8559911"><ele>793.0</ele><time>2026-05-02T12:48:10.717Z</time></trkpt><trkpt lat="44.5577936" lon="9.856054"><ele>793.0</ele><time>2026-05-02T12:48:11.717Z</time></trkpt><trkpt lat="44.5578486" lon="9.8561297"><ele>793.0000000000001</ele><time>2026-05-02T12:48:12.718Z</time></trkpt><trkpt lat="44.5578997" lon="9.8562039"><ele>793.0</ele><time>2026-05-02T12:48:13.717Z</time></trkpt><trkpt lat="44.5579744" lon="9.8563624"><ele>790.8571428571429</ele><time>2026-05-02T12:48:15.717Z</time></trkpt><trkpt lat="44.558004" lon="9.8564512"><ele>788.7142857142858</ele><time>2026-05-02T12:48:16.718Z</time></trkpt><trkpt lat="44.5580278" lon="9.8565427"><ele>786.5714285714287</ele><time>2026-05-02T12:48:17.717Z</time></trkpt><trkpt lat="44.5580458" lon="9.8566409"><ele>784.4285714285714</ele><time>2026-05-02T12:48:18.717Z</time></trkpt><trkpt lat="44.5580468" lon="9.8567426"><ele>782.2857142857142</ele><time>2026-05-02T12:48:19.717Z</time></trkpt><trkpt lat="44.5580789" lon="9.8568481"><ele>780.1428571428572</ele><time>2026-05-02T12:48:20.717Z</time></trkpt><trkpt lat="44.5580956" lon="9.8569563"><ele>778.0</ele><time>2026-05-02T12:48:21.717Z</time></trkpt><trkpt lat="44.5581058" lon="9.8570639"><ele>777.9999999999999</ele><time>2026-05-02T12:48:22.717Z</time></trkpt><trkpt lat="44.5581059" lon="9.8571843"><ele>778.0</ele><time>2026-05-02T12:48:23.718Z</time></trkpt><trkpt lat="44.5581143" lon="9.8573055"><ele>778.0</ele><time>2026-05-02T12:48:24.717Z</time></trkpt><trkpt lat="44.5581458" lon="9.8574125"><ele>778.0</ele><time>2026-05-02T12:48:25.717Z</time></trkpt><trkpt lat="44.5581737" lon="9.8575174"><ele>777.9999999999999</ele><time>2026-05-02T12:48:26.718Z</time></trkpt><trkpt lat="44.558212" lon="9.8576034"><ele>778.0</ele><time>2026-05-02T12:48:27.717Z</time></trkpt><trkpt lat="44.5582424" lon="9.8576958"><ele>779.4999999999999</ele><time>2026-05-02T12:48:28.718Z</time></trkpt><trkpt lat="44.5582691" lon="9.8577842"><ele>781.0</ele><time>2026-05-02T12:48:29.717Z</time></trkpt><trkpt lat="44.558282" lon="9.8579474"><ele>782.5</ele><time>2026-05-02T12:48:31.718Z</time></trkpt><trkpt lat="44.5582754" lon="9.8580471"><ele>784.0</ele><time>2026-05-02T12:48:32.717Z</time></trkpt><trkpt lat="44.5582937" lon="9.8581562"><ele>785.4999999999999</ele><time>2026-05-02T12:48:33.717Z</time></trkpt><trkpt lat="44.5582988" lon="9.8582558"><ele>787.0</ele><time>2026-05-02T12:48:34.717Z</time></trkpt><trkpt lat="44.5583242" lon="9.8583539"><ele>787.0</ele><time>2026-05-02T12:48:35.717Z</time></trkpt><trkpt lat="44.5583472" lon="9.858443"><ele>787.0</ele><time>2026-05-02T12:48:36.718Z</time></trkpt><trkpt lat="44.5583694" lon="9.8585346"><ele>787.0</ele><time>2026-05-02T12:48:37.717Z</time></trkpt><trkpt lat="44.5583776" lon="9.8586326"><ele>787.0</ele><time>2026-05-02T12:48:38.718Z</time></trkpt><trkpt lat="44.5584037" lon="9.8587485"><ele>787.0</ele><time>2026-05-02T12:48:39.717Z</time></trkpt><trkpt lat="44.5583772" lon="9.8588363"><ele>787.0</ele><time>2026-05-02T12:48:40.717Z</time></trkpt><trkpt lat="44.5583731" lon="9.8589434"><ele>787.0</ele><time>2026-05-02T12:48:41.717Z</time></trkpt><trkpt lat="44.5583666" lon="9.8590697"><ele>787.8</ele><time>2026-05-02T12:48:42.717Z</time></trkpt><trkpt lat="44.5584016" lon="9.8591837"><ele>788.6</ele><time>2026-05-02T12:48:43.717Z</time></trkpt><trkpt lat="44.5584469" lon="9.859322"><ele>789.4</ele><time>2026-05-02T12:48:45.717Z</time></trkpt><trkpt lat="44.5584076" lon="9.8594248"><ele>790.1999999999999</ele><time>2026-05-02T12:48:47.717Z</time></trkpt><trkpt lat="44.5583668" lon="9.8595249"><ele>791.0</ele><time>2026-05-02T12:48:49.718Z</time></trkpt><trkpt lat="44.5583419" lon="9.8597073"><ele>791.3333333333334</ele><time>2026-05-02T12:48:51.717Z</time></trkpt><trkpt lat="44.5583338" lon="9.8598214"><ele>791.6666666666667</ele><time>2026-05-02T12:48:52.717Z</time></trkpt><trkpt lat="44.558326" lon="9.8599427"><ele>792.0</ele><time>2026-05-02T12:48:53.717Z</time></trkpt><trkpt lat="44.5583424" lon="9.8600704"><ele>792.3333333333333</ele><time>2026-05-02T12:48:54.717Z</time></trkpt><trkpt lat="44.5583555" lon="9.8601856"><ele>792.6666666666666</ele><time>2026-05-02T12:48:55.718Z</time></trkpt><trkpt lat="44.5583457" lon="9.860309"><ele>793.0</ele><time>2026-05-02T12:48:56.717Z</time></trkpt><trkpt lat="44.5582917" lon="9.8604529"><ele>793.1666666666666</ele><time>2026-05-02T12:48:57.717Z</time></trkpt><trkpt lat="44.5583116" lon="9.8605932"><ele>793.3333333333333</ele><time>2026-05-02T12:48:58.717Z</time></trkpt><trkpt lat="44.5583027" lon="9.8607078"><ele>793.5</ele><time>2026-05-02T12:48:59.717Z</time></trkpt><trkpt lat="44.5583144" lon="9.8608027"><ele>793.6666666666667</ele><time>2026-05-02T12:49:00.717Z</time></trkpt><trkpt lat="44.5582709" lon="9.8608845"><ele>793.8333333333334</ele><time>2026-05-02T12:49:01.717Z</time></trkpt><trkpt lat="44.5582441" lon="9.8609657"><ele>794.0</ele><time>2026-05-02T12:49:02.717Z</time></trkpt><trkpt lat="44.558211" lon="9.861057"><ele>794.0</ele><time>2026-05-02T12:49:03.717Z</time></trkpt><trkpt lat="44.55817" lon="9.8611494"><ele>794.0</ele><time>2026-05-02T12:49:04.717Z</time></trkpt><trkpt lat="44.5581193" lon="9.8612365"><ele>794.0</ele><time>2026-05-02T12:49:05.717Z</time></trkpt><trkpt lat="44.5580786" lon="9.8613098"><ele>794.0</ele><time>2026-05-02T12:49:06.717Z</time></trkpt><trkpt lat="44.5580009" lon="9.8614405"><ele>794.0</ele><time>2026-05-02T12:49:08.717Z</time></trkpt><trkpt lat="44.5579587" lon="9.8615872"><ele>794.0000000000001</ele><time>2026-05-02T12:49:10.717Z</time></trkpt><trkpt lat="44.557965" lon="9.8616769"><ele>794.0</ele><time>2026-05-02T12:49:12.718Z</time></trkpt><trkpt lat="44.5579721" lon="9.8617966"><ele>794.0</ele><time>2026-05-02T12:49:14.717Z</time></trkpt><trkpt lat="44.5579882" lon="9.8618926"><ele>794.0</ele><time>2026-05-02T12:49:16.717Z</time></trkpt><trkpt lat="44.5580162" lon="9.8620202"><ele>794.0000000000001</ele><time>2026-05-02T12:49:18.717Z</time></trkpt><trkpt lat="44.5580548" lon="9.8621414"><ele>794.0</ele><time>2026-05-02T12:49:20.717Z</time></trkpt><trkpt lat="44.5580862" lon="9.8622456"><ele>793.8333333333334</ele><time>2026-05-02T12:49:22.717Z</time></trkpt><trkpt lat="44.558092" lon="9.8623349"><ele>793.6666666666667</ele><time>2026-05-02T12:49:25.717Z</time></trkpt><trkpt lat="44.5581184" lon="9.8624376"><ele>793.5</ele><time>2026-05-02T12:49:28.717Z</time></trkpt><trkpt lat="44.5581444" lon="9.862613"><ele>793.3333333333333</ele><time>2026-05-02T12:49:30.717Z</time></trkpt><trkpt lat="44.558169" lon="9.8627093"><ele>793.1666666666666</ele><time>2026-05-02T12:49:31.717Z</time></trkpt><trkpt lat="44.5582102" lon="9.8628174"><ele>793.0</ele><time>2026-05-02T12:49:32.717Z</time></trkpt><trkpt lat="44.5582345" lon="9.862917"><ele>792.9999999999999</ele><time>2026-05-02T12:49:33.717Z</time></trkpt><trkpt lat="44.5582672" lon="9.8629993"><ele>793.0</ele><time>2026-05-02T12:49:34.718Z</time></trkpt><trkpt lat="44.5583418" lon="9.8631492"><ele>793.0</ele><time>2026-05-02T12:49:36.717Z</time></trkpt><trkpt lat="44.5583852" lon="9.8632196"><ele>793.0</ele><time>2026-05-02T12:49:37.717Z</time></trkpt><trkpt lat="44.5584339" lon="9.863283"><ele>792.9999999999999</ele><time>2026-05-02T12:49:38.717Z</time></trkpt><trkpt lat="44.5584865" lon="9.8633395"><ele>793.0</ele><time>2026-05-02T12:49:39.717Z</time></trkpt><trkpt lat="44.5585249" lon="9.8634151"><ele>791.9999999999999</ele><time>2026-05-02T12:49:40.717Z</time></trkpt><trkpt lat="44.5585618" lon="9.8635023"><ele>791.0</ele><time>2026-05-02T12:49:41.718Z</time></trkpt><trkpt lat="44.5585936" lon="9.8635953"><ele>790.0</ele><time>2026-05-02T12:49:42.717Z</time></trkpt><trkpt lat="44.5586275" lon="9.8636843"><ele>789.0</ele><time>2026-05-02T12:49:43.718Z</time></trkpt><trkpt lat="44.558665" lon="9.8637884"><ele>787.9999999999999</ele><time>2026-05-02T12:49:44.717Z</time></trkpt><trkpt lat="44.5586976" lon="9.8638941"><ele>787.0</ele><time>2026-05-02T12:49:45.717Z</time></trkpt><trkpt lat="44.5587238" lon="9.8640034"><ele>787.0</ele><time>2026-05-02T12:49:46.717Z</time></trkpt><trkpt lat="44.5587675" lon="9.8641154"><ele>787.0</ele><time>2026-05-02T12:49:47.717Z</time></trkpt><trkpt lat="44.5588253" lon="9.8642217"><ele>787.0</ele><time>2026-05-02T12:49:48.717Z</time></trkpt><trkpt lat="44.558888" lon="9.8643338"><ele>787.0</ele><time>2026-05-02T12:49:49.717Z</time></trkpt><trkpt lat="44.5589551" lon="9.8644523"><ele>787.0</ele><time>2026-05-02T12:49:50.717Z</time></trkpt><trkpt lat="44.5590297" lon="9.8645668"><ele>787.4000000000001</ele><time>2026-05-02T12:49:51.717Z</time></trkpt><trkpt lat="44.5591101" lon="9.8646748"><ele>787.8000000000001</ele><time>2026-05-02T12:49:52.717Z</time></trkpt><trkpt lat="44.5591761" lon="9.8647661"><ele>788.2</ele><time>2026-05-02T12:49:53.717Z</time></trkpt><trkpt lat="44.5592233" lon="9.8648483"><ele>788.6</ele><time>2026-05-02T12:49:54.717Z</time></trkpt><trkpt lat="44.5592644" lon="9.8649465"><ele>789.0</ele><time>2026-05-02T12:49:55.717Z</time></trkpt><trkpt lat="44.5592724" lon="9.8650964"><ele>789.1666666666666</ele><time>2026-05-02T12:49:56.719Z</time></trkpt><trkpt lat="44.5592975" lon="9.8652047"><ele>789.3333333333333</ele><time>2026-05-02T12:49:57.717Z</time></trkpt><trkpt lat="44.5593223" lon="9.8653173"><ele>789.5</ele><time>2026-05-02T12:49:58.717Z</time></trkpt><trkpt lat="44.5593523" lon="9.8653997"><ele>789.6666666666666</ele><time>2026-05-02T12:49:59.717Z</time></trkpt><trkpt lat="44.5593849" lon="9.8654928"><ele>789.8333333333333</ele><time>2026-05-02T12:50:00.717Z</time></trkpt><trkpt lat="44.5594292" lon="9.8656479"><ele>790.0</ele><time>2026-05-02T12:50:02.717Z</time></trkpt><trkpt lat="44.5594612" lon="9.8657908"><ele>790.0</ele><time>2026-05-02T12:50:04.717Z</time></trkpt><trkpt lat="44.5594873" lon="9.8659256"><ele>790.0</ele><time>2026-05-02T12:50:06.717Z</time></trkpt><trkpt lat="44.5595241" lon="9.8660338"><ele>790.0</ele><time>2026-05-02T12:50:08.717Z</time></trkpt><trkpt lat="44.5595376" lon="9.866157"><ele>790.0</ele><time>2026-05-02T12:50:10.717Z</time></trkpt><trkpt lat="44.5595461" lon="9.8663067"><ele>790.0</ele><time>2026-05-02T12:50:12.717Z</time></trkpt><trkpt lat="44.5595546" lon="9.8664572"><ele>789.3333333333333</ele><time>2026-05-02T12:50:14.717Z</time></trkpt><trkpt lat="44.5595984" lon="9.8665999"><ele>788.6666666666666</ele><time>2026-05-02T12:50:16.717Z</time></trkpt><trkpt lat="44.5596419" lon="9.8666643"><ele>788.0</ele><time>2026-05-02T12:50:17.717Z</time></trkpt><trkpt lat="44.55969" lon="9.8667269"><ele>787.3333333333333</ele><time>2026-05-02T12:50:18.718Z</time></trkpt><trkpt lat="44.5597218" lon="9.8668083"><ele>786.6666666666666</ele><time>2026-05-02T12:50:19.717Z</time></trkpt><trkpt lat="44.5597248" lon="9.8669871"><ele>786.0</ele><time>2026-05-02T12:50:21.717Z</time></trkpt><trkpt lat="44.5597256" lon="9.8670849"><ele>786.0</ele><time>2026-05-02T12:50:22.718Z</time></trkpt><trkpt lat="44.5597409" lon="9.8671754"><ele>786.0</ele><time>2026-05-02T12:50:23.717Z</time></trkpt><trkpt lat="44.5597157" lon="9.8673175"><ele>786.0</ele><time>2026-05-02T12:50:25.718Z</time></trkpt><trkpt lat="44.5596656" lon="9.867413"><ele>786.0</ele><time>2026-05-02T12:50:27.717Z</time></trkpt><trkpt lat="44.5596557" lon="9.8675319"><ele>786.0</ele><time>2026-05-02T12:50:30.717Z</time></trkpt><trkpt lat="44.5597369" lon="9.8675132"><ele>786.0</ele><time>2026-05-02T12:50:34.717Z</time></trkpt><trkpt lat="44.5598175" lon="9.867524"><ele>786.0</ele><time>2026-05-02T12:50:48.717Z</time></trkpt><trkpt lat="44.5598916" lon="9.8675773"><ele>786.0</ele><time>2026-05-02T12:50:50.718Z</time></trkpt><trkpt lat="44.5599863" lon="9.8676344"><ele>786.0</ele><time>2026-05-02T12:50:52.717Z</time></trkpt><trkpt lat="44.5601048" lon="9.8676946"><ele>786.0</ele><time>2026-05-02T12:50:54.717Z</time></trkpt><trkpt lat="44.5601951" lon="9.8677127"><ele>786.0</ele><time>2026-05-02T12:50:56.718Z</time></trkpt><trkpt lat="44.5602859" lon="9.867742"><ele>783.5999999999999</ele><time>2026-05-02T12:50:58.717Z</time></trkpt><trkpt lat="44.5603758" lon="9.8677639"><ele>781.2</ele><time>2026-05-02T12:51:00.718Z</time></trkpt><trkpt lat="44.5604619" lon="9.8677004"><ele>778.8</ele><time>2026-05-02T12:51:02.717Z</time></trkpt><trkpt lat="44.5605522" lon="9.8676527"><ele>776.4000000000001</ele><time>2026-05-02T12:51:04.718Z</time></trkpt><trkpt lat="44.5606419" lon="9.8676558"><ele>774.0</ele><time>2026-05-02T12:51:06.717Z</time></trkpt><trkpt lat="44.5607304" lon="9.8676712"><ele>774.0</ele><time>2026-05-02T12:51:08.718Z</time></trkpt><trkpt lat="44.5608061" lon="9.8676542"><ele>774.0</ele><time>2026-05-02T12:51:10.717Z</time></trkpt><trkpt lat="44.5608538" lon="9.8675918"><ele>774.0</ele><time>2026-05-02T12:51:13.717Z</time></trkpt><trkpt lat="44.5609289" lon="9.8675604"><ele>774.0</ele><time>2026-05-02T12:51:15.718Z</time></trkpt><trkpt lat="44.5610333" lon="9.8675543"><ele>774.0</ele><time>2026-05-02T12:51:17.717Z</time></trkpt><trkpt lat="44.5611348" lon="9.8675735"><ele>774.0</ele><time>2026-05-02T12:51:19.717Z</time></trkpt><trkpt lat="44.5612247" lon="9.8675727"><ele>772.4000000000001</ele><time>2026-05-02T12:51:21.717Z</time></trkpt><trkpt lat="44.5613123" lon="9.8675687"><ele>770.8</ele><time>2026-05-02T12:51:23.719Z</time></trkpt><trkpt lat="44.5614136" lon="9.8675377"><ele>769.2</ele><time>2026-05-02T12:51:25.717Z</time></trkpt><trkpt lat="44.561511" lon="9.8674591"><ele>767.5999999999999</ele><time>2026-05-02T12:51:27.719Z</time></trkpt><trkpt lat="44.5616048" lon="9.8673682"><ele>766.0</ele><time>2026-05-02T12:51:29.717Z</time></trkpt><trkpt lat="44.5617162" lon="9.8672803"><ele>766.0</ele><time>2026-05-02T12:51:31.717Z</time></trkpt><trkpt lat="44.5617862" lon="9.8672465"><ele>766.0</ele><time>2026-05-02T12:51:32.718Z</time></trkpt><trkpt lat="44.5618434" lon="9.8672067"><ele>766.0</ele><time>2026-05-02T12:51:33.717Z</time></trkpt><trkpt lat="44.5618985" lon="9.8671596"><ele>766.0</ele><time>2026-05-02T12:51:34.718Z</time></trkpt><trkpt lat="44.5619742" lon="9.867091"><ele>766.0</ele><time>2026-05-02T12:51:35.717Z</time></trkpt><trkpt lat="44.5620416" lon="9.8670599"><ele>766.0</ele><time>2026-05-02T12:51:36.718Z</time></trkpt><trkpt lat="44.5621462" lon="9.8669796"><ele>763.4</ele><time>2026-05-02T12:51:38.718Z</time></trkpt><trkpt lat="44.562239" lon="9.866904"><ele>760.8</ele><time>2026-05-02T12:51:40.718Z</time></trkpt><trkpt lat="44.5623162" lon="9.8668499"><ele>758.1999999999999</ele><time>2026-05-02T12:51:42.718Z</time></trkpt><trkpt lat="44.5623993" lon="9.8667853"><ele>755.5999999999999</ele><time>2026-05-02T12:51:44.717Z</time></trkpt><trkpt lat="44.5624743" lon="9.8666876"><ele>753.0</ele><time>2026-05-02T12:51:47.717Z</time></trkpt><trkpt lat="44.5624964" lon="9.8665849"><ele>753.0</ele><time>2026-05-02T12:51:49.717Z</time></trkpt><trkpt lat="44.5625037" lon="9.8664744"><ele>753.0</ele><time>2026-05-02T12:51:51.717Z</time></trkpt><trkpt lat="44.5624904" lon="9.866374"><ele>753.0</ele><time>2026-05-02T12:51:54.717Z</time></trkpt><trkpt lat="44.5624429" lon="9.8663007"><ele>753.0</ele><time>2026-05-02T12:52:03.717Z</time></trkpt><trkpt lat="44.5624238" lon="9.8661818"><ele>753.0</ele><time>2026-05-02T12:52:06.717Z</time></trkpt><trkpt lat="44.5624421" lon="9.8660757"><ele>753.0</ele><time>2026-05-02T12:52:08.717Z</time></trkpt><trkpt lat="44.5624766" lon="9.8659829"><ele>753.0</ele><time>2026-05-02T12:52:10.717Z</time></trkpt><trkpt lat="44.5625388" lon="9.8659287"><ele>753.0</ele><time>2026-05-02T12:52:13.717Z</time></trkpt><trkpt lat="44.5626489" lon="9.8659737"><ele>753.0</ele><time>2026-05-02T12:52:21.717Z</time></trkpt><trkpt lat="44.5626993" lon="9.866052"><ele>753.0</ele><time>2026-05-02T12:52:23.717Z</time></trkpt><trkpt lat="44.5627551" lon="9.866187"><ele>753.0</ele><time>2026-05-02T12:52:25.717Z</time></trkpt><trkpt lat="44.5627749" lon="9.8663225"><ele>753.0</ele><time>2026-05-02T12:52:27.717Z</time></trkpt><trkpt lat="44.5628026" lon="9.8664711"><ele>753.0</ele><time>2026-05-02T12:52:29.719Z</time></trkpt><trkpt lat="44.5628133" lon="9.8665671"><ele>753.0</ele><time>2026-05-02T12:52:30.717Z</time></trkpt><trkpt lat="44.5628202" lon="9.8666602"><ele>753.0</ele><time>2026-05-02T12:52:31.717Z</time></trkpt><trkpt lat="44.5628169" lon="9.8667702"><ele>753.0</ele><time>2026-05-02T12:52:32.717Z</time></trkpt><trkpt lat="44.5628043" lon="9.8668669"><ele>753.0</ele><time>2026-05-02T12:52:33.718Z</time></trkpt><trkpt lat="44.5627976" lon="9.8669707"><ele>751.8333333333334</ele><time>2026-05-02T12:52:34.717Z</time></trkpt><trkpt lat="44.5627932" lon="9.8670707"><ele>750.6666666666666</ele><time>2026-05-02T12:52:35.717Z</time></trkpt><trkpt lat="44.5627693" lon="9.8671645"><ele>749.5</ele><time>2026-05-02T12:52:36.717Z</time></trkpt><trkpt lat="44.5627523" lon="9.8672529"><ele>748.3333333333333</ele><time>2026-05-02T12:52:37.717Z</time></trkpt><trkpt lat="44.5627257" lon="9.8673596"><ele>747.1666666666666</ele><time>2026-05-02T12:52:38.717Z</time></trkpt><trkpt lat="44.5626941" lon="9.8675115"><ele>746.0</ele><time>2026-05-02T12:52:40.717Z</time></trkpt><trkpt lat="44.562651" lon="9.8676466"><ele>742.1666666666666</ele><time>2026-05-02T12:52:42.717Z</time></trkpt><trkpt lat="44.5626155" lon="9.8677363"><ele>738.3333333333333</ele><time>2026-05-02T12:52:43.718Z</time></trkpt><trkpt lat="44.5625744" lon="9.8678076"><ele>734.5</ele><time>2026-05-02T12:52:44.717Z</time></trkpt><trkpt lat="44.5625495" lon="9.8679114"><ele>730.6666666666666</ele><time>2026-05-02T12:52:45.717Z</time></trkpt><trkpt lat="44.5625232" lon="9.8679987"><ele>726.8333333333334</ele><time>2026-05-02T12:52:46.717Z</time></trkpt><trkpt lat="44.5624783" lon="9.8681322"><ele>723.0</ele><time>2026-05-02T12:52:48.716Z</time></trkpt><trkpt lat="44.5623843" lon="9.8681994"><ele>723.0</ele><time>2026-05-02T12:52:50.716Z</time></trkpt><trkpt lat="44.5622874" lon="9.8682379"><ele>723.0</ele><time>2026-05-02T12:52:52.716Z</time></trkpt><trkpt lat="44.5621905" lon="9.8682941"><ele>723.0</ele><time>2026-05-02T12:52:54.716Z</time></trkpt><trkpt lat="44.5621483" lon="9.8683644"><ele>723.0</ele><time>2026-05-02T12:52:57.717Z</time></trkpt><trkpt lat="44.5621345" lon="9.8684527"><ele>723.0</ele><time>2026-05-02T12:53:00.716Z</time></trkpt><trkpt lat="44.5621261" lon="9.8685664"><ele>723.0</ele><time>2026-05-02T12:53:04.717Z</time></trkpt><trkpt lat="44.5620728" lon="9.86868"><ele>725.0</ele><time>2026-05-02T12:53:06.716Z</time></trkpt><trkpt lat="44.5620304" lon="9.8687756"><ele>727.0</ele><time>2026-05-02T12:53:07.716Z</time></trkpt><trkpt lat="44.5619927" lon="9.8688503"><ele>729.0</ele><time>2026-05-02T12:53:08.716Z</time></trkpt><trkpt lat="44.5619574" lon="9.8689391"><ele>731.0</ele><time>2026-05-02T12:53:09.716Z</time></trkpt><trkpt lat="44.5619264" lon="9.8690588"><ele>733.0</ele><time>2026-05-02T12:53:11.716Z</time></trkpt><trkpt lat="44.561857" lon="9.8691571"><ele>735.0</ele><time>2026-05-02T12:53:14.717Z</time></trkpt><trkpt lat="44.5618432" lon="9.8692666"><ele>735.0</ele><time>2026-05-02T12:53:17.716Z</time></trkpt><trkpt lat="44.5618977" lon="9.8693542"><ele>735.0</ele><time>2026-05-02T12:53:19.716Z</time></trkpt><trkpt lat="44.5619717" lon="9.8694162"><ele>735.0</ele><time>2026-05-02T12:53:21.716Z</time></trkpt><trkpt lat="44.5620252" lon="9.8694748"><ele>735.0</ele><time>2026-05-02T12:53:27.716Z</time></trkpt><trkpt lat="44.562104" lon="9.8695268"><ele>735.0</ele><time>2026-05-02T12:53:29.716Z</time></trkpt><trkpt lat="44.5621664" lon="9.869508"><ele>735.0</ele><time>2026-05-02T12:53:30.716Z</time></trkpt><trkpt lat="44.5622777" lon="9.8695308"><ele>735.0</ele><time>2026-05-02T12:53:32.716Z</time></trkpt><trkpt lat="44.5623439" lon="9.8695521"><ele>735.0</ele><time>2026-05-02T12:53:33.718Z</time></trkpt><trkpt lat="44.5624366" lon="9.8696001"><ele>735.0</ele><time>2026-05-02T12:53:34.716Z</time></trkpt><trkpt lat="44.5625391" lon="9.8696395"><ele>735.0</ele><time>2026-05-02T12:53:36.716Z</time></trkpt><trkpt lat="44.5626794" lon="9.8696156"><ele>735.0</ele><time>2026-05-02T12:53:38.716Z</time></trkpt><trkpt lat="44.5627493" lon="9.8695851"><ele>735.0</ele><time>2026-05-02T12:53:39.716Z</time></trkpt><trkpt lat="44.5628591" lon="9.8695935"><ele>735.0</ele><time>2026-05-02T12:53:41.716Z</time></trkpt><trkpt lat="44.5629742" lon="9.8696485"><ele>735.0</ele><time>2026-05-02T12:53:43.718Z</time></trkpt><trkpt lat="44.5630406" lon="9.8696704"><ele>735.0</ele><time>2026-05-02T12:53:44.716Z</time></trkpt><trkpt lat="44.5631624" lon="9.8697115"><ele>735.0</ele><time>2026-05-02T12:53:46.716Z</time></trkpt><trkpt lat="44.5632342" lon="9.8697495"><ele>730.4</ele><time>2026-05-02T12:53:47.716Z</time></trkpt><trkpt lat="44.5633005" lon="9.8697933"><ele>725.8</ele><time>2026-05-02T12:53:48.716Z</time></trkpt><trkpt lat="44.5633492" lon="9.8698583"><ele>721.2</ele><time>2026-05-02T12:53:49.716Z</time></trkpt><trkpt lat="44.5633757" lon="9.8700053"><ele>716.6</ele><time>2026-05-02T12:53:51.716Z</time></trkpt><trkpt lat="44.5633259" lon="9.8701737"><ele>712.0</ele><time>2026-05-02T12:53:53.716Z</time></trkpt><trkpt lat="44.5632816" lon="9.8702695"><ele>711.5</ele><time>2026-05-02T12:53:54.716Z</time></trkpt><trkpt lat="44.5632408" lon="9.870343"><ele>711.0</ele><time>2026-05-02T12:53:55.716Z</time></trkpt><trkpt lat="44.5632018" lon="9.8704198"><ele>710.5</ele><time>2026-05-02T12:53:56.716Z</time></trkpt><trkpt lat="44.5631579" lon="9.8705449"><ele>710.0</ele><time>2026-05-02T12:53:58.716Z</time></trkpt><trkpt lat="44.5631502" lon="9.8706821"><ele>709.5</ele><time>2026-05-02T12:54:07.718Z</time></trkpt><trkpt lat="44.5631458" lon="9.8707897"><ele>709.0</ele><time>2026-05-02T12:54:09.716Z</time></trkpt><trkpt lat="44.5631402" lon="9.8709391"><ele>708.1666666666667</ele><time>2026-05-02T12:54:11.717Z</time></trkpt><trkpt lat="44.5631482" lon="9.871042"><ele>707.3333333333334</ele><time>2026-05-02T12:54:13.716Z</time></trkpt><trkpt lat="44.5632086" lon="9.871147"><ele>706.5</ele><time>2026-05-02T12:54:15.716Z</time></trkpt><trkpt lat="44.5632355" lon="9.8712297"><ele>705.6666666666666</ele><time>2026-05-02T12:54:16.717Z</time></trkpt><trkpt lat="44.5632911" lon="9.8713323"><ele>704.8333333333333</ele><time>2026-05-02T12:54:18.716Z</time></trkpt><trkpt lat="44.5633295" lon="9.8714493"><ele>704.0</ele><time>2026-05-02T12:54:20.716Z</time></trkpt><trkpt lat="44.5633561" lon="9.8715298"><ele>704.0</ele><time>2026-05-02T12:54:22.717Z</time></trkpt><trkpt lat="44.5634016" lon="9.8716043"><ele>704.0</ele><time>2026-05-02T12:54:24.716Z</time></trkpt><trkpt lat="44.5634458" lon="9.8716848"><ele>704.0</ele><time>2026-05-02T12:54:26.717Z</time></trkpt><trkpt lat="44.5634864" lon="9.8717743"><ele>704.0</ele><time>2026-05-02T12:54:28.717Z</time></trkpt><trkpt lat="44.5635168" lon="9.8718559"><ele>704.0</ele><time>2026-05-02T12:54:31.716Z</time></trkpt><trkpt lat="44.5635775" lon="9.8719164"><ele>704.0</ele><time>2026-05-02T12:54:33.716Z</time></trkpt><trkpt lat="44.5636582" lon="9.8719877"><ele>700.5</ele><time>2026-05-02T12:54:35.716Z</time></trkpt><trkpt lat="44.5637289" lon="9.8720687"><ele>697.0</ele><time>2026-05-02T12:54:37.716Z</time></trkpt><trkpt lat="44.5637717" lon="9.8721747"><ele>693.5</ele><time>2026-05-02T12:54:39.716Z</time></trkpt><trkpt lat="44.5637949" lon="9.8722744"><ele>690.0</ele><time>2026-05-02T12:54:41.716Z</time></trkpt><trkpt lat="44.563813" lon="9.8723793"><ele>686.5</ele><time>2026-05-02T12:54:44.716Z</time></trkpt><trkpt lat="44.5637779" lon="9.8725352"><ele>683.0</ele><time>2026-05-02T12:54:46.716Z</time></trkpt><trkpt lat="44.5637456" lon="9.8726612"><ele>682.3333333333333</ele><time>2026-05-02T12:54:48.716Z</time></trkpt><trkpt lat="44.5637059" lon="9.8727751"><ele>681.6666666666666</ele><time>2026-05-02T12:54:51.717Z</time></trkpt><trkpt lat="44.5637135" lon="9.8728678"><ele>681.0</ele><time>2026-05-02T12:54:53.716Z</time></trkpt><trkpt lat="44.5637219" lon="9.8729854"><ele>680.3333333333334</ele><time>2026-05-02T12:54:56.716Z</time></trkpt><trkpt lat="44.5637207" lon="9.8730819"><ele>679.6666666666667</ele><time>2026-05-02T12:54:58.716Z</time></trkpt><trkpt lat="44.5637248" lon="9.8732079"><ele>679.0</ele><time>2026-05-02T12:55:00.716Z</time></trkpt><trkpt lat="44.5637625" lon="9.8733044"><ele>679.0</ele><time>2026-05-02T12:55:06.716Z</time></trkpt><trkpt lat="44.5637897" lon="9.8733962"><ele>679.0</ele><time>2026-05-02T12:55:08.716Z</time></trkpt><trkpt lat="44.563849" lon="9.8734925"><ele>679.0</ele><time>2026-05-02T12:55:09.717Z</time></trkpt><trkpt lat="44.5639137" lon="9.8735885"><ele>679.0</ele><time>2026-05-02T12:55:11.716Z</time></trkpt><trkpt lat="44.5639604" lon="9.8736535"><ele>679.0</ele><time>2026-05-02T12:55:13.717Z</time></trkpt><trkpt lat="44.5640086" lon="9.8737216"><ele>679.0</ele><time>2026-05-02T12:55:15.716Z</time></trkpt><trkpt lat="44.5640586" lon="9.8737985"><ele>678.2857142857143</ele><time>2026-05-02T12:55:18.717Z</time></trkpt><trkpt lat="44.5641017" lon="9.8738738"><ele>677.5714285714286</ele><time>2026-05-02T12:55:20.716Z</time></trkpt><trkpt lat="44.5641477" lon="9.873962"><ele>676.8571428571429</ele><time>2026-05-02T12:55:22.717Z</time></trkpt><trkpt lat="44.5641702" lon="9.8740659"><ele>676.1428571428571</ele><time>2026-05-02T12:55:24.716Z</time></trkpt><trkpt lat="44.5641627" lon="9.8741725"><ele>675.4285714285714</ele><time>2026-05-02T12:55:27.717Z</time></trkpt><trkpt lat="44.5641954" lon="9.8742652"><ele>674.7142857142858</ele><time>2026-05-02T12:55:29.716Z</time></trkpt><trkpt lat="44.5642506" lon="9.8743078"><ele>674.0</ele><time>2026-05-02T12:55:31.716Z</time></trkpt><trkpt lat="44.5643243" lon="9.874318"><ele>674.0</ele><time>2026-05-02T12:55:34.716Z</time></trkpt><trkpt lat="44.5644162" lon="9.8743294"><ele>674.0</ele><time>2026-05-02T12:55:36.717Z</time></trkpt><trkpt lat="44.5645012" lon="9.8743961"><ele>674.0</ele><time>2026-05-02T12:55:38.716Z</time></trkpt><trkpt lat="44.5645633" lon="9.8744889"><ele>674.0</ele><time>2026-05-02T12:55:40.716Z</time></trkpt><trkpt lat="44.5646116" lon="9.8745932"><ele>674.0</ele><time>2026-05-02T12:55:43.716Z</time></trkpt><trkpt lat="44.564601" lon="9.8746913"><ele>674.0</ele><time>2026-05-02T12:55:46.716Z</time></trkpt><trkpt lat="44.5646052" lon="9.8748058"><ele>671.5714285714287</ele><time>2026-05-02T12:55:49.717Z</time></trkpt><trkpt lat="44.5646148" lon="9.8748981"><ele>669.1428571428571</ele><time>2026-05-02T12:55:52.716Z</time></trkpt><trkpt lat="44.5646298" lon="9.8750017"><ele>666.7142857142858</ele><time>2026-05-02T12:55:55.716Z</time></trkpt><trkpt lat="44.5646548" lon="9.8750951"><ele>664.2857142857143</ele><time>2026-05-02T12:55:58.716Z</time></trkpt><trkpt lat="44.5646907" lon="9.8751742"><ele>661.8571428571429</ele><time>2026-05-02T12:56:00.716Z</time></trkpt><trkpt lat="44.5647287" lon="9.8752682"><ele>659.4285714285714</ele><time>2026-05-02T12:56:03.716Z</time></trkpt><trkpt lat="44.564793" lon="9.8752283"><ele>657.0</ele><time>2026-05-02T12:56:07.716Z</time></trkpt><trkpt lat="44.5648506" lon="9.8751637"><ele>657.0</ele><time>2026-05-02T13:03:06.716Z</time></trkpt><trkpt lat="44.5649525" lon="9.8751015"><ele>657.0</ele><time>2026-05-02T13:03:08.716Z</time></trkpt><trkpt lat="44.56506" lon="9.8750261"><ele>657.0</ele><time>2026-05-02T13:03:10.716Z</time></trkpt><trkpt lat="44.5651238" lon="9.8749983"><ele>657.0</ele><time>2026-05-02T13:03:11.717Z</time></trkpt><trkpt lat="44.5651875" lon="9.874974"><ele>657.0</ele><time>2026-05-02T13:03:12.716Z</time></trkpt><trkpt lat="44.5652569" lon="9.8749683"><ele>657.0</ele><time>2026-05-02T13:03:13.716Z</time></trkpt><trkpt lat="44.5653243" lon="9.8749766"><ele>655.8571428571428</ele><time>2026-05-02T13:03:14.717Z</time></trkpt><trkpt lat="44.5653868" lon="9.8750168"><ele>654.7142857142858</ele><time>2026-05-02T13:03:15.717Z</time></trkpt><trkpt lat="44.5654414" lon="9.8750723"><ele>653.5714285714286</ele><time>2026-05-02T13:03:16.716Z</time></trkpt><trkpt lat="44.5654939" lon="9.8751298"><ele>652.4285714285713</ele><time>2026-05-02T13:03:17.716Z</time></trkpt><trkpt lat="44.5655384" lon="9.8751944"><ele>651.2857142857142</ele><time>2026-05-02T13:03:18.717Z</time></trkpt><trkpt lat="44.565548" lon="9.8753024"><ele>650.1428571428571</ele><time>2026-05-02T13:03:19.716Z</time></trkpt><trkpt lat="44.5655715" lon="9.8753965"><ele>649.0</ele><time>2026-05-02T13:03:20.716Z</time></trkpt><trkpt lat="44.5655966" lon="9.8754872"><ele>649.0</ele><time>2026-05-02T13:03:21.716Z</time></trkpt><trkpt lat="44.5656215" lon="9.8755904"><ele>649.0</ele><time>2026-05-02T13:03:22.716Z</time></trkpt><trkpt lat="44.5656539" lon="9.8756938"><ele>649.0</ele><time>2026-05-02T13:03:23.716Z</time></trkpt><trkpt lat="44.5656913" lon="9.8757938"><ele>649.0</ele><time>2026-05-02T13:03:24.716Z</time></trkpt><trkpt lat="44.5657215" lon="9.8758862"><ele>649.0</ele><time>2026-05-02T13:03:25.717Z</time></trkpt><trkpt lat="44.5657324" lon="9.8759789"><ele>649.0</ele><time>2026-05-02T13:03:26.718Z</time></trkpt><trkpt lat="44.5657917" lon="9.8761371"><ele>648.5</ele><time>2026-05-02T13:03:28.716Z</time></trkpt><trkpt lat="44.5658413" lon="9.8762014"><ele>648.0</ele><time>2026-05-02T13:03:29.717Z</time></trkpt><trkpt lat="44.5658755" lon="9.8762807"><ele>647.5</ele><time>2026-05-02T13:03:30.716Z</time></trkpt><trkpt lat="44.5658983" lon="9.876374"><ele>647.0</ele><time>2026-05-02T13:03:31.717Z</time></trkpt><trkpt lat="44.5659653" lon="9.8764926"><ele>646.5</ele><time>2026-05-02T13:03:33.717Z</time></trkpt><trkpt lat="44.5660488" lon="9.8764694"><ele>646.0</ele><time>2026-05-02T13:03:35.716Z</time></trkpt><trkpt lat="44.5661274" lon="9.8763446"><ele>646.0</ele><time>2026-05-02T13:03:37.716Z</time></trkpt><trkpt lat="44.5661603" lon="9.8762456"><ele>646.0</ele><time>2026-05-02T13:03:38.716Z</time></trkpt><trkpt lat="44.566186" lon="9.8761262"><ele>646.0</ele><time>2026-05-02T13:03:39.716Z</time></trkpt><trkpt lat="44.5662006" lon="9.8759972"><ele>646.0</ele><time>2026-05-02T13:03:40.717Z</time></trkpt><trkpt lat="44.5662089" lon="9.8758635"><ele>646.0</ele><time>2026-05-02T13:03:41.716Z</time></trkpt><trkpt lat="44.5662278" lon="9.8757384"><ele>646.0</ele><time>2026-05-02T13:03:42.716Z</time></trkpt><trkpt lat="44.5662753" lon="9.8756288"><ele>643.8</ele><time>2026-05-02T13:03:43.716Z</time></trkpt><trkpt lat="44.5663406" lon="9.8755373"><ele>641.5999999999999</ele><time>2026-05-02T13:03:44.716Z</time></trkpt><trkpt lat="44.5664131" lon="9.8754737"><ele>639.4</ele><time>2026-05-02T13:03:45.716Z</time></trkpt><trkpt lat="44.566501" lon="9.8754435"><ele>637.2</ele><time>2026-05-02T13:03:46.716Z</time></trkpt><trkpt lat="44.566588" lon="9.8754588"><ele>635.0</ele><time>2026-05-02T13:03:47.716Z</time></trkpt><trkpt lat="44.5666788" lon="9.8755156"><ele>635.0</ele><time>2026-05-02T13:03:48.716Z</time></trkpt><trkpt lat="44.5667727" lon="9.8756057"><ele>635.0</ele><time>2026-05-02T13:03:49.716Z</time></trkpt><trkpt lat="44.5668566" lon="9.8757228"><ele>635.0</ele><time>2026-05-02T13:03:50.716Z</time></trkpt><trkpt lat="44.5669274" lon="9.8758623"><ele>635.0</ele><time>2026-05-02T13:03:51.716Z</time></trkpt><trkpt lat="44.5669794" lon="9.8760206"><ele>634.4</ele><time>2026-05-02T13:03:52.716Z</time></trkpt><trkpt lat="44.5670163" lon="9.8761717"><ele>633.8</ele><time>2026-05-02T13:03:53.717Z</time></trkpt><trkpt lat="44.5670428" lon="9.8762967"><ele>633.2</ele><time>2026-05-02T13:03:54.716Z</time></trkpt><trkpt lat="44.5670647" lon="9.8764132"><ele>632.6</ele><time>2026-05-02T13:03:55.716Z</time></trkpt><trkpt lat="44.5670964" lon="9.876495"><ele>632.0</ele><time>2026-05-02T13:03:56.716Z</time></trkpt><trkpt lat="44.5672052" lon="9.8765352"><ele>628.8000000000001</ele><time>2026-05-02T13:03:58.716Z</time></trkpt><trkpt lat="44.567255" lon="9.8764069"><ele>625.6</ele><time>2026-05-02T13:04:00.716Z</time></trkpt><trkpt lat="44.5672618" lon="9.8762968"><ele>622.4000000000001</ele><time>2026-05-02T13:04:01.717Z</time></trkpt><trkpt lat="44.567272" lon="9.8761731"><ele>619.2</ele><time>2026-05-02T13:04:02.716Z</time></trkpt><trkpt lat="44.5672874" lon="9.8760333"><ele>616.0</ele><time>2026-05-02T13:04:03.716Z</time></trkpt><trkpt lat="44.5672953" lon="9.8758907"><ele>615.8333333333334</ele><time>2026-05-02T13:04:04.716Z</time></trkpt><trkpt lat="44.5673057" lon="9.8757457"><ele>615.6666666666667</ele><time>2026-05-02T13:04:05.716Z</time></trkpt><trkpt lat="44.5672836" lon="9.8756267"><ele>615.5</ele><time>2026-05-02T13:04:06.716Z</time></trkpt><trkpt lat="44.5672895" lon="9.8755299"><ele>615.3333333333334</ele><time>2026-05-02T13:04:07.716Z</time></trkpt><trkpt lat="44.5673137" lon="9.8754472"><ele>615.1666666666666</ele><time>2026-05-02T13:04:08.716Z</time></trkpt><trkpt lat="44.5674129" lon="9.8754377"><ele>615.0</ele><time>2026-05-02T13:04:10.716Z</time></trkpt><trkpt lat="44.5674486" lon="9.8755118"><ele>615.0</ele><time>2026-05-02T13:04:11.716Z</time></trkpt><trkpt lat="44.5674679" lon="9.8756158"><ele>615.0</ele><time>2026-05-02T13:04:12.716Z</time></trkpt><trkpt lat="44.5674891" lon="9.8757391"><ele>615.0</ele><time>2026-05-02T13:04:13.716Z</time></trkpt><trkpt lat="44.567518" lon="9.8758714"><ele>615.0</ele><time>2026-05-02T13:04:14.716Z</time></trkpt><trkpt lat="44.5675709" lon="9.876002"><ele>615.0</ele><time>2026-05-02T13:04:15.716Z</time></trkpt><trkpt lat="44.5676348" lon="9.8761319"><ele>615.2</ele><time>2026-05-02T13:04:16.716Z</time></trkpt><trkpt lat="44.5676957" lon="9.8762613"><ele>615.4</ele><time>2026-05-02T13:04:17.716Z</time></trkpt><trkpt lat="44.567759" lon="9.8763916"><ele>615.6</ele><time>2026-05-02T13:04:18.716Z</time></trkpt><trkpt lat="44.5678164" lon="9.8765234"><ele>615.8</ele><time>2026-05-02T13:04:19.717Z</time></trkpt><trkpt lat="44.5678707" lon="9.8766568"><ele>616.0</ele><time>2026-05-02T13:04:20.716Z</time></trkpt><trkpt lat="44.5679202" lon="9.8767881"><ele>612.8</ele><time>2026-05-02T13:04:21.717Z</time></trkpt><trkpt lat="44.5679734" lon="9.8769188"><ele>609.6</ele><time>2026-05-02T13:04:22.716Z</time></trkpt><trkpt lat="44.5680332" lon="9.8770339"><ele>606.4</ele><time>2026-05-02T13:04:23.716Z</time></trkpt><trkpt lat="44.5681042" lon="9.8771125"><ele>603.2</ele><time>2026-05-02T13:04:24.716Z</time></trkpt><trkpt lat="44.5681797" lon="9.8771603"><ele>600.0</ele><time>2026-05-02T13:04:25.717Z</time></trkpt><trkpt lat="44.5682532" lon="9.8771744"><ele>599.9999999999999</ele><time>2026-05-02T13:04:26.716Z</time></trkpt><trkpt lat="44.568324" lon="9.8771555"><ele>600.0</ele><time>2026-05-02T13:04:27.716Z</time></trkpt><trkpt lat="44.5683804" lon="9.8771046"><ele>600.0</ele><time>2026-05-02T13:04:28.716Z</time></trkpt><trkpt lat="44.5684184" lon="9.87703"><ele>600.0</ele><time>2026-05-02T13:04:29.716Z</time></trkpt><trkpt lat="44.5684362" lon="9.876939"><ele>600.0</ele><time>2026-05-02T13:04:30.716Z</time></trkpt><trkpt lat="44.568431" lon="9.8768425"><ele>599.9999999999999</ele><time>2026-05-02T13:04:31.716Z</time></trkpt><trkpt lat="44.568403" lon="9.8767478"><ele>600.0</ele><time>2026-05-02T13:04:32.716Z</time></trkpt><trkpt lat="44.5683557" lon="9.8766708"><ele>600.1666666666666</ele><time>2026-05-02T13:04:33.716Z</time></trkpt><trkpt lat="44.5682791" lon="9.8765427"><ele>600.3333333333334</ele><time>2026-05-02T13:04:35.716Z</time></trkpt><trkpt lat="44.5683222" lon="9.8764771"><ele>600.5</ele><time>2026-05-02T13:04:37.716Z</time></trkpt><trkpt lat="44.5683855" lon="9.8765053"><ele>600.6666666666667</ele><time>2026-05-02T13:04:39.716Z</time></trkpt><trkpt lat="44.5684557" lon="9.876567"><ele>600.8333333333334</ele><time>2026-05-02T13:04:41.716Z</time></trkpt><trkpt lat="44.5685372" lon="9.876637"><ele>601.0</ele><time>2026-05-02T13:04:43.717Z</time></trkpt><trkpt lat="44.5686276" lon="9.876723"><ele>598.8</ele><time>2026-05-02T13:04:45.716Z</time></trkpt><trkpt lat="44.5687201" lon="9.8768157"><ele>596.6</ele><time>2026-05-02T13:04:47.717Z</time></trkpt><trkpt lat="44.5687994" lon="9.8769313"><ele>594.4</ele><time>2026-05-02T13:04:49.716Z</time></trkpt><trkpt lat="44.5688428" lon="9.8770952"><ele>592.2</ele><time>2026-05-02T13:04:51.716Z</time></trkpt><trkpt lat="44.5688555" lon="9.8771869"><ele>590.0</ele><time>2026-05-02T13:04:52.716Z</time></trkpt><trkpt lat="44.5688594" lon="9.8772859"><ele>590.0</ele><time>2026-05-02T13:04:53.718Z</time></trkpt><trkpt lat="44.5688586" lon="9.8773903"><ele>590.0</ele><time>2026-05-02T13:04:54.716Z</time></trkpt><trkpt lat="44.5688487" lon="9.8775014"><ele>590.0</ele><time>2026-05-02T13:04:55.717Z</time></trkpt><trkpt lat="44.5688282" lon="9.8776118"><ele>590.0</ele><time>2026-05-02T13:04:56.716Z</time></trkpt><trkpt lat="44.5687939" lon="9.8777182"><ele>590.0</ele><time>2026-05-02T13:04:57.716Z</time></trkpt><trkpt lat="44.5687444" lon="9.8778195"><ele>590.0</ele><time>2026-05-02T13:04:58.717Z</time></trkpt><trkpt lat="44.5686821" lon="9.8779095"><ele>589.8</ele><time>2026-05-02T13:04:59.716Z</time></trkpt><trkpt lat="44.5686026" lon="9.8779833"><ele>589.6</ele><time>2026-05-02T13:05:00.716Z</time></trkpt><trkpt lat="44.5685154" lon="9.8780387"><ele>589.4</ele><time>2026-05-02T13:05:01.716Z</time></trkpt><trkpt lat="44.5684258" lon="9.8780843"><ele>589.2</ele><time>2026-05-02T13:05:02.716Z</time></trkpt><trkpt lat="44.5683354" lon="9.878128"><ele>589.0</ele><time>2026-05-02T13:05:03.717Z</time></trkpt><trkpt lat="44.5682481" lon="9.8781827"><ele>589.0</ele><time>2026-05-02T13:05:04.716Z</time></trkpt><trkpt lat="44.568163" lon="9.8782463"><ele>589.0</ele><time>2026-05-02T13:05:05.716Z</time></trkpt><trkpt lat="44.5680856" lon="9.8783388"><ele>589.0</ele><time>2026-05-02T13:05:06.717Z</time></trkpt><trkpt lat="44.5680102" lon="9.8784355"><ele>589.0</ele><time>2026-05-02T13:05:07.716Z</time></trkpt><trkpt lat="44.567938" lon="9.8785377"><ele>589.0</ele><time>2026-05-02T13:05:08.716Z</time></trkpt><trkpt lat="44.5678647" lon="9.878635"><ele>588.4</ele><time>2026-05-02T13:05:09.716Z</time></trkpt><trkpt lat="44.5677928" lon="9.8787334"><ele>587.8</ele><time>2026-05-02T13:05:10.716Z</time></trkpt><trkpt lat="44.5677177" lon="9.8788423"><ele>587.2</ele><time>2026-05-02T13:05:11.717Z</time></trkpt><trkpt lat="44.5676499" lon="9.8789647"><ele>586.6</ele><time>2026-05-02T13:05:12.716Z</time></trkpt><trkpt lat="44.5675789" lon="9.8790896"><ele>586.0</ele><time>2026-05-02T13:05:13.716Z</time></trkpt><trkpt lat="44.5675095" lon="9.879222"><ele>585.0</ele><time>2026-05-02T13:05:14.717Z</time></trkpt><trkpt lat="44.5674484" lon="9.8793616"><ele>584.0</ele><time>2026-05-02T13:05:15.716Z</time></trkpt><trkpt lat="44.5674035" lon="9.8795116"><ele>583.0</ele><time>2026-05-02T13:05:16.717Z</time></trkpt><trkpt lat="44.5673652" lon="9.8796591"><ele>582.0</ele><time>2026-05-02T13:05:17.716Z</time></trkpt><trkpt lat="44.5673301" lon="9.8798009"><ele>582.0</ele><time>2026-05-02T13:05:18.716Z</time></trkpt><trkpt lat="44.5673037" lon="9.8799423"><ele>582.0</ele><time>2026-05-02T13:05:19.717Z</time></trkpt><trkpt lat="44.567293" lon="9.8800762"><ele>582.0</ele><time>2026-05-02T13:05:20.716Z</time></trkpt><trkpt lat="44.5673125" lon="9.8802051"><ele>582.0</ele><time>2026-05-02T13:05:21.716Z</time></trkpt><trkpt lat="44.5673578" lon="9.8803189"><ele>582.0</ele><time>2026-05-02T13:05:22.716Z</time></trkpt><trkpt lat="44.5674296" lon="9.8804181"><ele>582.6</ele><time>2026-05-02T13:05:23.716Z</time></trkpt><trkpt lat="44.5675141" lon="9.8805071"><ele>583.2</ele><time>2026-05-02T13:05:24.716Z</time></trkpt><trkpt lat="44.5675977" lon="9.8806019"><ele>583.8</ele><time>2026-05-02T13:05:25.716Z</time></trkpt><trkpt lat="44.5676875" lon="9.8807025"><ele>584.4</ele><time>2026-05-02T13:05:26.716Z</time></trkpt><trkpt lat="44.5677788" lon="9.8808083"><ele>585.0</ele><time>2026-05-02T13:05:27.717Z</time></trkpt><trkpt lat="44.5678754" lon="9.8809161"><ele>583.5</ele><time>2026-05-02T13:05:28.716Z</time></trkpt><trkpt lat="44.5679731" lon="9.8810242"><ele>582.0</ele><time>2026-05-02T13:05:29.716Z</time></trkpt><trkpt lat="44.5680741" lon="9.8811314"><ele>580.5</ele><time>2026-05-02T13:05:30.716Z</time></trkpt><trkpt lat="44.5681751" lon="9.8812403"><ele>579.0</ele><time>2026-05-02T13:05:31.716Z</time></trkpt><trkpt lat="44.5682769" lon="9.881351"><ele>579.0</ele><time>2026-05-02T13:05:32.716Z</time></trkpt><trkpt lat="44.5683774" lon="9.8814571"><ele>579.0</ele><time>2026-05-02T13:05:33.716Z</time></trkpt><trkpt lat="44.5684767" lon="9.8815613"><ele>579.0</ele><time>2026-05-02T13:05:34.716Z</time></trkpt><trkpt lat="44.5685732" lon="9.8816626"><ele>579.0</ele><time>2026-05-02T13:05:35.716Z</time></trkpt><trkpt lat="44.5686654" lon="9.8817613"><ele>576.8</ele><time>2026-05-02T13:05:36.716Z</time></trkpt><trkpt lat="44.5687428" lon="9.8818701"><ele>574.5999999999999</ele><time>2026-05-02T13:05:37.716Z</time></trkpt><trkpt lat="44.5687946" lon="9.8819998"><ele>572.4</ele><time>2026-05-02T13:05:38.715Z</time></trkpt><trkpt lat="44.5688208" lon="9.8821431"><ele>570.1999999999999</ele><time>2026-05-02T13:05:39.715Z</time></trkpt><trkpt lat="44.5688315" lon="9.8823039"><ele>568.0</ele><time>2026-05-02T13:05:40.715Z</time></trkpt><trkpt lat="44.5688441" lon="9.8824586"><ele>567.4</ele><time>2026-05-02T13:05:41.716Z</time></trkpt><trkpt lat="44.5688554" lon="9.8825979"><ele>566.8</ele><time>2026-05-02T13:05:42.715Z</time></trkpt><trkpt lat="44.5688562" lon="9.882712"><ele>566.2</ele><time>2026-05-02T13:05:43.715Z</time></trkpt><trkpt lat="44.5688418" lon="9.8828088"><ele>565.6</ele><time>2026-05-02T13:05:44.716Z</time></trkpt><trkpt lat="44.5687592" lon="9.8829265"><ele>565.0</ele><time>2026-05-02T13:05:46.715Z</time></trkpt><trkpt lat="44.568641" lon="9.8829005"><ele>565.0</ele><time>2026-05-02T13:05:48.716Z</time></trkpt><trkpt lat="44.5685779" lon="9.8829077"><ele>565.0</ele><time>2026-05-02T13:42:44.714Z</time></trkpt><trkpt lat="44.5686487" lon="9.8828969"><ele>565.0</ele><time>2026-05-02T13:42:59.715Z</time></trkpt><trkpt lat="44.5687289" lon="9.8829301"><ele>565.0</ele><time>2026-05-02T13:43:02.714Z</time></trkpt><trkpt lat="44.5687922" lon="9.8829632"><ele>565.0</ele><time>2026-05-02T13:43:04.714Z</time></trkpt><trkpt lat="44.568859" lon="9.8830146"><ele>565.0</ele><time>2026-05-02T13:43:06.714Z</time></trkpt><trkpt lat="44.5688932" lon="9.8831457"><ele>565.0</ele><time>2026-05-02T13:43:08.715Z</time></trkpt><trkpt lat="44.5689053" lon="9.8833"><ele>565.0</ele><time>2026-05-02T13:43:10.714Z</time></trkpt><trkpt lat="44.5689223" lon="9.8834647"><ele>565.0</ele><time>2026-05-02T13:43:12.714Z</time></trkpt><trkpt lat="44.5689352" lon="9.8835519"><ele>565.0</ele><time>2026-05-02T13:43:13.715Z</time></trkpt><trkpt lat="44.5689455" lon="9.8836481"><ele>565.0</ele><time>2026-05-02T13:43:14.714Z</time></trkpt><trkpt lat="44.5689477" lon="9.8837507"><ele>565.0</ele><time>2026-05-02T13:43:15.715Z</time></trkpt><trkpt lat="44.5689454" lon="9.8838575"><ele>564.5</ele><time>2026-05-02T13:43:16.715Z</time></trkpt><trkpt lat="44.5689335" lon="9.8839657"><ele>564.0</ele><time>2026-05-02T13:43:17.715Z</time></trkpt><trkpt lat="44.5689053" lon="9.8840684"><ele>563.5</ele><time>2026-05-02T13:43:18.714Z</time></trkpt><trkpt lat="44.5688664" lon="9.8841729"><ele>563.0</ele><time>2026-05-02T13:43:19.714Z</time></trkpt><trkpt lat="44.5688179" lon="9.884271"><ele>562.5</ele><time>2026-05-02T13:43:20.714Z</time></trkpt><trkpt lat="44.568764" lon="9.8843678"><ele>562.0</ele><time>2026-05-02T13:43:21.714Z</time></trkpt><trkpt lat="44.5687063" lon="9.8844576"><ele>562.6</ele><time>2026-05-02T13:43:22.715Z</time></trkpt><trkpt lat="44.5686444" lon="9.8845536"><ele>563.2</ele><time>2026-05-02T13:43:23.714Z</time></trkpt><trkpt lat="44.568582" lon="9.8846488"><ele>563.8</ele><time>2026-05-02T13:43:24.714Z</time></trkpt><trkpt lat="44.5685228" lon="9.8847444"><ele>564.4</ele><time>2026-05-02T13:43:25.714Z</time></trkpt><trkpt lat="44.5684669" lon="9.8848413"><ele>565.0</ele><time>2026-05-02T13:43:26.714Z</time></trkpt><trkpt lat="44.5684048" lon="9.8849362"><ele>565.0</ele><time>2026-05-02T13:43:27.714Z</time></trkpt><trkpt lat="44.5683421" lon="9.8850304"><ele>565.0</ele><time>2026-05-02T13:43:28.714Z</time></trkpt><trkpt lat="44.5682769" lon="9.8851245"><ele>565.0</ele><time>2026-05-02T13:43:29.715Z</time></trkpt><trkpt lat="44.5682116" lon="9.8852209"><ele>565.0</ele><time>2026-05-02T13:43:30.714Z</time></trkpt><trkpt lat="44.5681466" lon="9.8853203"><ele>565.0</ele><time>2026-05-02T13:43:31.715Z</time></trkpt><trkpt lat="44.5680841" lon="9.8854137"><ele>564.2</ele><time>2026-05-02T13:43:32.715Z</time></trkpt><trkpt lat="44.5680237" lon="9.8855108"><ele>563.4</ele><time>2026-05-02T13:43:33.715Z</time></trkpt><trkpt lat="44.5679632" lon="9.8856071"><ele>562.6</ele><time>2026-05-02T13:43:34.714Z</time></trkpt><trkpt lat="44.5679015" lon="9.8857036"><ele>561.8</ele><time>2026-05-02T13:43:35.714Z</time></trkpt><trkpt lat="44.5678482" lon="9.885799"><ele>561.0</ele><time>2026-05-02T13:43:36.714Z</time></trkpt><trkpt lat="44.5678099" lon="9.8859126"><ele>560.3333333333334</ele><time>2026-05-02T13:43:37.714Z</time></trkpt><trkpt lat="44.5677853" lon="9.88603"><ele>559.6666666666666</ele><time>2026-05-02T13:43:38.714Z</time></trkpt><trkpt lat="44.5677754" lon="9.8861504"><ele>559.0</ele><time>2026-05-02T13:43:39.715Z</time></trkpt><trkpt lat="44.5677917" lon="9.8862704"><ele>558.3333333333333</ele><time>2026-05-02T13:43:40.714Z</time></trkpt><trkpt lat="44.567827" lon="9.8863779"><ele>557.6666666666666</ele><time>2026-05-02T13:43:41.714Z</time></trkpt><trkpt lat="44.5678693" lon="9.8864814"><ele>557.0</ele><time>2026-05-02T13:43:42.714Z</time></trkpt><trkpt lat="44.5679111" lon="9.8865877"><ele>557.0</ele><time>2026-05-02T13:43:43.714Z</time></trkpt><trkpt lat="44.5679481" lon="9.8867061"><ele>557.0</ele><time>2026-05-02T13:43:44.714Z</time></trkpt><trkpt lat="44.5679715" lon="9.886826"><ele>557.0</ele><time>2026-05-02T13:43:45.714Z</time></trkpt><trkpt lat="44.5679845" lon="9.8869541"><ele>557.0</ele><time>2026-05-02T13:43:46.714Z</time></trkpt><trkpt lat="44.5679846" lon="9.8870821"><ele>557.0</ele><time>2026-05-02T13:43:47.714Z</time></trkpt><trkpt lat="44.5679797" lon="9.8872129"><ele>557.6</ele><time>2026-05-02T13:43:48.715Z</time></trkpt><trkpt lat="44.56797" lon="9.8873444"><ele>558.2</ele><time>2026-05-02T13:43:49.714Z</time></trkpt><trkpt lat="44.5679699" lon="9.8874833"><ele>558.8</ele><time>2026-05-02T13:43:50.714Z</time></trkpt><trkpt lat="44.5679861" lon="9.8876129"><ele>559.4</ele><time>2026-05-02T13:43:51.715Z</time></trkpt><trkpt lat="44.5680527" lon="9.8877355"><ele>560.0</ele><time>2026-05-02T13:43:52.714Z</time></trkpt><trkpt lat="44.5681215" lon="9.8878368"><ele>561.8</ele><time>2026-05-02T13:43:53.714Z</time></trkpt><trkpt lat="44.568199" lon="9.8879283"><ele>563.6</ele><time>2026-05-02T13:43:54.714Z</time></trkpt><trkpt lat="44.5682815" lon="9.888015"><ele>565.4</ele><time>2026-05-02T13:43:55.714Z</time></trkpt><trkpt lat="44.5683641" lon="9.8881"><ele>567.2</ele><time>2026-05-02T13:43:56.714Z</time></trkpt><trkpt lat="44.5684495" lon="9.8881762"><ele>569.0</ele><time>2026-05-02T13:43:57.714Z</time></trkpt><trkpt lat="44.5685486" lon="9.8882315"><ele>569.0</ele><time>2026-05-02T13:43:58.714Z</time></trkpt><trkpt lat="44.5686539" lon="9.8882625"><ele>569.0</ele><time>2026-05-02T13:43:59.714Z</time></trkpt><trkpt lat="44.5687576" lon="9.8882861"><ele>569.0</ele><time>2026-05-02T13:44:00.714Z</time></trkpt><trkpt lat="44.5688631" lon="9.8883066"><ele>569.0</ele><time>2026-05-02T13:44:01.714Z</time></trkpt><trkpt lat="44.5689663" lon="9.888333"><ele>569.0</ele><time>2026-05-02T13:44:02.715Z</time></trkpt><trkpt lat="44.5690689" lon="9.8883558"><ele>568.8</ele><time>2026-05-02T13:44:03.714Z</time></trkpt><trkpt lat="44.5691738" lon="9.8883779"><ele>568.5999999999999</ele><time>2026-05-02T13:44:04.714Z</time></trkpt><trkpt lat="44.569276" lon="9.8883996"><ele>568.4</ele><time>2026-05-02T13:44:05.714Z</time></trkpt><trkpt lat="44.5693662" lon="9.8884245"><ele>568.1999999999999</ele><time>2026-05-02T13:44:06.714Z</time></trkpt><trkpt lat="44.5694462" lon="9.888462"><ele>568.0</ele><time>2026-05-02T13:44:07.714Z</time></trkpt><trkpt lat="44.5695169" lon="9.8885138"><ele>566.8333333333334</ele><time>2026-05-02T13:44:08.714Z</time></trkpt><trkpt lat="44.5695759" lon="9.8885914"><ele>565.6666666666667</ele><time>2026-05-02T13:44:09.714Z</time></trkpt><trkpt lat="44.5696206" lon="9.888688"><ele>564.5</ele><time>2026-05-02T13:44:10.714Z</time></trkpt><trkpt lat="44.5696565" lon="9.8888011"><ele>563.3333333333334</ele><time>2026-05-02T13:44:11.714Z</time></trkpt><trkpt lat="44.5696809" lon="9.8889249"><ele>562.1666666666666</ele><time>2026-05-02T13:44:12.714Z</time></trkpt><trkpt lat="44.5697001" lon="9.8890551"><ele>561.0</ele><time>2026-05-02T13:44:13.714Z</time></trkpt><trkpt lat="44.5697201" lon="9.889194"><ele>563.0</ele><time>2026-05-02T13:44:14.715Z</time></trkpt><trkpt lat="44.5697429" lon="9.8893355"><ele>565.0</ele><time>2026-05-02T13:44:15.714Z</time></trkpt><trkpt lat="44.5697665" lon="9.8894755"><ele>567.0</ele><time>2026-05-02T13:44:16.715Z</time></trkpt><trkpt lat="44.5697889" lon="9.8896184"><ele>569.0</ele><time>2026-05-02T13:44:17.714Z</time></trkpt><trkpt lat="44.5698132" lon="9.8897607"><ele>571.0</ele><time>2026-05-02T13:44:18.714Z</time></trkpt><trkpt lat="44.5698469" lon="9.8898985"><ele>571.0</ele><time>2026-05-02T13:44:19.714Z</time></trkpt><trkpt lat="44.5698953" lon="9.890031"><ele>571.0</ele><time>2026-05-02T13:44:20.714Z</time></trkpt><trkpt lat="44.5699553" lon="9.8901553"><ele>571.0</ele><time>2026-05-02T13:44:21.714Z</time></trkpt><trkpt lat="44.5700268" lon="9.890267"><ele>571.0</ele><time>2026-05-02T13:44:22.715Z</time></trkpt><trkpt lat="44.5700962" lon="9.8903745"><ele>571.0</ele><time>2026-05-02T13:44:23.714Z</time></trkpt><trkpt lat="44.5701645" lon="9.8904769"><ele>569.8</ele><time>2026-05-02T13:44:24.714Z</time></trkpt><trkpt lat="44.5702373" lon="9.890574"><ele>568.6</ele><time>2026-05-02T13:44:25.714Z</time></trkpt><trkpt lat="44.5703077" lon="9.890674"><ele>567.4</ele><time>2026-05-02T13:44:26.714Z</time></trkpt><trkpt lat="44.5703757" lon="9.8907635"><ele>566.2</ele><time>2026-05-02T13:44:27.715Z</time></trkpt><trkpt lat="44.5704467" lon="9.8908563"><ele>565.0</ele><time>2026-05-02T13:44:28.714Z</time></trkpt><trkpt lat="44.5705174" lon="9.8909522"><ele>565.0</ele><time>2026-05-02T13:44:29.714Z</time></trkpt><trkpt lat="44.5705811" lon="9.8910541"><ele>565.0</ele><time>2026-05-02T13:44:30.714Z</time></trkpt><trkpt lat="44.5706296" lon="9.8911637"><ele>565.0</ele><time>2026-05-02T13:44:31.715Z</time></trkpt><trkpt lat="44.5706604" lon="9.8912899"><ele>565.0</ele><time>2026-05-02T13:44:32.714Z</time></trkpt><trkpt lat="44.5706606" lon="9.8914209"><ele>565.0</ele><time>2026-05-02T13:44:33.714Z</time></trkpt><trkpt lat="44.5706274" lon="9.8915465"><ele>565.0</ele><time>2026-05-02T13:44:34.714Z</time></trkpt><trkpt lat="44.5705735" lon="9.8916551"><ele>565.0</ele><time>2026-05-02T13:44:35.714Z</time></trkpt><trkpt lat="44.5705127" lon="9.8917508"><ele>565.0</ele><time>2026-05-02T13:44:36.715Z</time></trkpt><trkpt lat="44.5704485" lon="9.8918478"><ele>565.0</ele><time>2026-05-02T13:44:37.714Z</time></trkpt><trkpt lat="44.5703792" lon="9.8919451"><ele>565.0</ele><time>2026-05-02T13:44:38.714Z</time></trkpt><trkpt lat="44.5703125" lon="9.8920426"><ele>565.4</ele><time>2026-05-02T13:44:39.714Z</time></trkpt><trkpt lat="44.5702541" lon="9.8921492"><ele>565.8</ele><time>2026-05-02T13:44:40.714Z</time></trkpt><trkpt lat="44.5702098" lon="9.892277"><ele>566.2</ele><time>2026-05-02T13:44:41.714Z</time></trkpt><trkpt lat="44.5701796" lon="9.8924146"><ele>566.6</ele><time>2026-05-02T13:44:42.714Z</time></trkpt><trkpt lat="44.5701652" lon="9.8925601"><ele>567.0</ele><time>2026-05-02T13:44:43.714Z</time></trkpt><trkpt lat="44.5701558" lon="9.8927065"><ele>566.2</ele><time>2026-05-02T13:44:44.714Z</time></trkpt><trkpt lat="44.5701443" lon="9.892847"><ele>565.4000000000001</ele><time>2026-05-02T13:44:45.714Z</time></trkpt><trkpt lat="44.570135" lon="9.8929853"><ele>564.5999999999999</ele><time>2026-05-02T13:44:46.714Z</time></trkpt><trkpt lat="44.5701348" lon="9.8931238"><ele>563.8</ele><time>2026-05-02T13:44:47.714Z</time></trkpt><trkpt lat="44.5701507" lon="9.893259"><ele>563.0</ele><time>2026-05-02T13:44:48.715Z</time></trkpt><trkpt lat="44.5701887" lon="9.8933893"><ele>562.1999999999999</ele><time>2026-05-02T13:44:49.714Z</time></trkpt><trkpt lat="44.5702387" lon="9.8935131"><ele>561.4</ele><time>2026-05-02T13:44:50.714Z</time></trkpt><trkpt lat="44.5702911" lon="9.8936379"><ele>560.5999999999999</ele><time>2026-05-02T13:44:51.714Z</time></trkpt><trkpt lat="44.5703406" lon="9.8937634"><ele>559.8</ele><time>2026-05-02T13:44:52.715Z</time></trkpt><trkpt lat="44.5703908" lon="9.8938914"><ele>559.0</ele><time>2026-05-02T13:44:53.714Z</time></trkpt><trkpt lat="44.5704397" lon="9.894019"><ele>557.2</ele><time>2026-05-02T13:44:54.714Z</time></trkpt><trkpt lat="44.5704838" lon="9.8941539"><ele>555.4</ele><time>2026-05-02T13:44:55.714Z</time></trkpt><trkpt lat="44.5705125" lon="9.8942953"><ele>553.6</ele><time>2026-05-02T13:44:56.714Z</time></trkpt><trkpt lat="44.5705159" lon="9.894443"><ele>551.8</ele><time>2026-05-02T13:44:57.715Z</time></trkpt><trkpt lat="44.5704991" lon="9.8945879"><ele>550.0</ele><time>2026-05-02T13:44:58.714Z</time></trkpt><trkpt lat="44.5704714" lon="9.8947323"><ele>549.0</ele><time>2026-05-02T13:44:59.714Z</time></trkpt><trkpt lat="44.5704427" lon="9.8948823"><ele>548.0</ele><time>2026-05-02T13:45:00.714Z</time></trkpt><trkpt lat="44.5704208" lon="9.8950353"><ele>547.0</ele><time>2026-05-02T13:45:01.714Z</time></trkpt><trkpt lat="44.5704087" lon="9.895197"><ele>546.0</ele><time>2026-05-02T13:45:02.714Z</time></trkpt><trkpt lat="44.5704061" lon="9.8953616"><ele>544.5</ele><time>2026-05-02T13:45:03.714Z</time></trkpt><trkpt lat="44.5704131" lon="9.895526"><ele>543.0</ele><time>2026-05-02T13:45:04.714Z</time></trkpt><trkpt lat="44.5704217" lon="9.8956919"><ele>541.5</ele><time>2026-05-02T13:45:05.714Z</time></trkpt><trkpt lat="44.5704265" lon="9.8958594"><ele>540.0</ele><time>2026-05-02T13:45:06.714Z</time></trkpt><trkpt lat="44.5704324" lon="9.896028"><ele>539.5</ele><time>2026-05-02T13:45:07.714Z</time></trkpt><trkpt lat="44.5704392" lon="9.8962022"><ele>539.0</ele><time>2026-05-02T13:45:08.714Z</time></trkpt><trkpt lat="44.5704434" lon="9.8963755"><ele>538.5</ele><time>2026-05-02T13:45:09.714Z</time></trkpt><trkpt lat="44.5704503" lon="9.8965472"><ele>538.0</ele><time>2026-05-02T13:45:10.714Z</time></trkpt><trkpt lat="44.5704625" lon="9.8967204"><ele>538.5</ele><time>2026-05-02T13:45:11.714Z</time></trkpt><trkpt lat="44.5704958" lon="9.8968947"><ele>539.0</ele><time>2026-05-02T13:45:12.715Z</time></trkpt><trkpt lat="44.5705455" lon="9.8970579"><ele>539.5</ele><time>2026-05-02T13:45:13.714Z</time></trkpt><trkpt lat="44.5706054" lon="9.8972068"><ele>540.0</ele><time>2026-05-02T13:45:14.714Z</time></trkpt><trkpt lat="44.5706687" lon="9.8973429"><ele>540.0</ele><time>2026-05-02T13:45:15.714Z</time></trkpt><trkpt lat="44.5707353" lon="9.8974681"><ele>540.0</ele><time>2026-05-02T13:45:16.714Z</time></trkpt><trkpt lat="44.5708025" lon="9.8975817"><ele>540.0</ele><time>2026-05-02T13:45:17.714Z</time></trkpt><trkpt lat="44.5708645" lon="9.8976938"><ele>540.0</ele><time>2026-05-02T13:45:18.714Z</time></trkpt><trkpt lat="44.5709218" lon="9.8978083"><ele>540.0</ele><time>2026-05-02T13:45:19.714Z</time></trkpt><trkpt lat="44.5709708" lon="9.8979106"><ele>540.5</ele><time>2026-05-02T13:45:20.714Z</time></trkpt><trkpt lat="44.5710113" lon="9.8980096"><ele>541.0</ele><time>2026-05-02T13:45:21.715Z</time></trkpt><trkpt lat="44.5710533" lon="9.8981054"><ele>541.5</ele><time>2026-05-02T13:45:22.715Z</time></trkpt><trkpt lat="44.5710996" lon="9.8981944"><ele>542.0</ele><time>2026-05-02T13:45:23.714Z</time></trkpt><trkpt lat="44.5711481" lon="9.8982821"><ele>542.5</ele><time>2026-05-02T13:45:24.714Z</time></trkpt><trkpt lat="44.571199" lon="9.8983642"><ele>543.0</ele><time>2026-05-02T13:45:25.714Z</time></trkpt><trkpt lat="44.571247" lon="9.8984472"><ele>542.0</ele><time>2026-05-02T13:45:26.714Z</time></trkpt><trkpt lat="44.5712877" lon="9.8985288"><ele>541.0</ele><time>2026-05-02T13:45:27.714Z</time></trkpt><trkpt lat="44.5713266" lon="9.898607"><ele>540.0</ele><time>2026-05-02T13:45:28.714Z</time></trkpt><trkpt lat="44.5713615" lon="9.898685"><ele>539.0</ele><time>2026-05-02T13:45:29.714Z</time></trkpt><trkpt lat="44.5714057" lon="9.8987725"><ele>538.0</ele><time>2026-05-02T13:45:30.715Z</time></trkpt><trkpt lat="44.5714516" lon="9.8988607"><ele>537.0</ele><time>2026-05-02T13:45:31.714Z</time></trkpt><trkpt lat="44.5714944" lon="9.8989468"><ele>536.0</ele><time>2026-05-02T13:45:32.714Z</time></trkpt><trkpt lat="44.5715342" lon="9.899032"><ele>536.0</ele><time>2026-05-02T13:45:33.714Z</time></trkpt><trkpt lat="44.5715714" lon="9.8991281"><ele>536.0</ele><time>2026-05-02T13:45:34.715Z</time></trkpt><trkpt lat="44.5716075" lon="9.8992368"><ele>536.0</ele><time>2026-05-02T13:45:35.714Z</time></trkpt><trkpt lat="44.5716449" lon="9.8993558"><ele>536.0</ele><time>2026-05-02T13:45:36.714Z</time></trkpt><trkpt lat="44.5716816" lon="9.8994796"><ele>536.0</ele><time>2026-05-02T13:45:37.714Z</time></trkpt><trkpt lat="44.5717222" lon="9.8995972"><ele>536.0</ele><time>2026-05-02T13:45:38.714Z</time></trkpt><trkpt lat="44.5717761" lon="9.8996995"><ele>537.4</ele><time>2026-05-02T13:45:39.714Z</time></trkpt><trkpt lat="44.571842" lon="9.8997925"><ele>538.8</ele><time>2026-05-02T13:45:40.715Z</time></trkpt><trkpt lat="44.5719197" lon="9.8998686"><ele>540.1999999999999</ele><time>2026-05-02T13:45:41.714Z</time></trkpt><trkpt lat="44.5720066" lon="9.8999403"><ele>541.6</ele><time>2026-05-02T13:45:42.714Z</time></trkpt><trkpt lat="44.5721052" lon="9.8999916"><ele>543.0</ele><time>2026-05-02T13:45:43.714Z</time></trkpt><trkpt lat="44.5722043" lon="9.9000341"><ele>542.4</ele><time>2026-05-02T13:45:44.714Z</time></trkpt><trkpt lat="44.5723057" lon="9.9000629"><ele>541.8</ele><time>2026-05-02T13:45:45.714Z</time></trkpt><trkpt lat="44.5724096" lon="9.9000911"><ele>541.2</ele><time>2026-05-02T13:45:46.714Z</time></trkpt><trkpt lat="44.5725134" lon="9.9001213"><ele>540.6</ele><time>2026-05-02T13:45:47.715Z</time></trkpt><trkpt lat="44.5726149" lon="9.9001524"><ele>540.0</ele><time>2026-05-02T13:45:48.714Z</time></trkpt><trkpt lat="44.5727205" lon="9.9001804"><ele>540.0</ele><time>2026-05-02T13:45:49.714Z</time></trkpt><trkpt lat="44.5728242" lon="9.9002007"><ele>540.0</ele><time>2026-05-02T13:45:50.715Z</time></trkpt><trkpt lat="44.5729296" lon="9.9002181"><ele>540.0</ele><time>2026-05-02T13:45:51.715Z</time></trkpt><trkpt lat="44.573036" lon="9.900233"><ele>540.0</ele><time>2026-05-02T13:45:52.715Z</time></trkpt><trkpt lat="44.5731419" lon="9.900247"><ele>540.0</ele><time>2026-05-02T13:45:53.714Z</time></trkpt><trkpt lat="44.5732464" lon="9.9002773"><ele>537.4</ele><time>2026-05-02T13:45:54.714Z</time></trkpt><trkpt lat="44.5733415" lon="9.9003337"><ele>534.8</ele><time>2026-05-02T13:45:55.714Z</time></trkpt><trkpt lat="44.5734179" lon="9.9004219"><ele>532.2</ele><time>2026-05-02T13:45:56.714Z</time></trkpt><trkpt lat="44.5734756" lon="9.900536"><ele>529.6</ele><time>2026-05-02T13:45:57.715Z</time></trkpt><trkpt lat="44.5735117" lon="9.9006674"><ele>527.0</ele><time>2026-05-02T13:45:58.714Z</time></trkpt><trkpt lat="44.573528" lon="9.9008158"><ele>528.25</ele><time>2026-05-02T13:45:59.714Z</time></trkpt><trkpt lat="44.5735469" lon="9.9009647"><ele>529.5</ele><time>2026-05-02T13:46:00.714Z</time></trkpt><trkpt lat="44.5735843" lon="9.9011125"><ele>530.75</ele><time>2026-05-02T13:46:01.714Z</time></trkpt><trkpt lat="44.5736411" lon="9.9012497"><ele>532.0</ele><time>2026-05-02T13:46:02.714Z</time></trkpt><trkpt lat="44.5737088" lon="9.9013838"><ele>525.75</ele><time>2026-05-02T13:46:03.714Z</time></trkpt><trkpt lat="44.5737761" lon="9.901522"><ele>519.5</ele><time>2026-05-02T13:46:04.714Z</time></trkpt><trkpt lat="44.5738445" lon="9.9016587"><ele>513.25</ele><time>2026-05-02T13:46:05.714Z</time></trkpt><trkpt lat="44.5739084" lon="9.9017985"><ele>507.0</ele><time>2026-05-02T13:46:06.715Z</time></trkpt><trkpt lat="44.5739491" lon="9.9019508"><ele>506.75</ele><time>2026-05-02T13:46:07.714Z</time></trkpt><trkpt lat="44.5739795" lon="9.9020936"><ele>506.5</ele><time>2026-05-02T13:46:08.714Z</time></trkpt><trkpt lat="44.5739765" lon="9.9022908"><ele>506.25</ele><time>2026-05-02T13:46:09.714Z</time></trkpt><trkpt lat="44.5739186" lon="9.9024245"><ele>506.0</ele><time>2026-05-02T13:46:10.714Z</time></trkpt><trkpt lat="44.5738832" lon="9.9025685"><ele>505.3333333333333</ele><time>2026-05-02T13:46:11.714Z</time></trkpt><trkpt lat="44.5738448" lon="9.9026938"><ele>504.66666666666663</ele><time>2026-05-02T13:46:12.714Z</time></trkpt><trkpt lat="44.5738217" lon="9.90282"><ele>504.0</ele><time>2026-05-02T13:46:13.714Z</time></trkpt><trkpt lat="44.5738201" lon="9.9029423"><ele>503.33333333333337</ele><time>2026-05-02T13:46:14.714Z</time></trkpt><trkpt lat="44.5738544" lon="9.9030485"><ele>502.6666666666667</ele><time>2026-05-02T13:46:15.714Z</time></trkpt><trkpt lat="44.5739095" lon="9.9031087"><ele>502.0</ele><time>2026-05-02T13:46:16.715Z</time></trkpt><trkpt lat="44.5739741" lon="9.9031682"><ele>502.0</ele><time>2026-05-02T13:46:17.715Z</time></trkpt><trkpt lat="44.5740502" lon="9.9030599"><ele>502.00000000000006</ele><time>2026-05-02T13:46:18.714Z</time></trkpt><trkpt lat="44.5740956" lon="9.9029794"><ele>502.00000000000006</ele><time>2026-05-02T13:46:19.714Z</time></trkpt><trkpt lat="44.5741423" lon="9.902886"><ele>502.0</ele><time>2026-05-02T13:46:20.714Z</time></trkpt><trkpt lat="44.5741486" lon="9.9027208"><ele>502.0</ele><time>2026-05-02T13:46:21.715Z</time></trkpt><trkpt lat="44.5741833" lon="9.9025859"><ele>502.8</ele><time>2026-05-02T13:46:22.714Z</time></trkpt><trkpt lat="44.574229" lon="9.9024449"><ele>503.6</ele><time>2026-05-02T13:46:23.714Z</time></trkpt><trkpt lat="44.574285" lon="9.9023095"><ele>504.40000000000003</ele><time>2026-05-02T13:46:24.714Z</time></trkpt><trkpt lat="44.5743443" lon="9.9021818"><ele>505.20000000000005</ele><time>2026-05-02T13:46:25.714Z</time></trkpt><trkpt lat="44.5744051" lon="9.9020557"><ele>506.0</ele><time>2026-05-02T13:46:26.714Z</time></trkpt><trkpt lat="44.5744614" lon="9.9019306"><ele>506.0</ele><time>2026-05-02T13:46:27.714Z</time></trkpt><trkpt lat="44.5745184" lon="9.9018093"><ele>506.0</ele><time>2026-05-02T13:46:28.714Z</time></trkpt><trkpt lat="44.5745764" lon="9.901688"><ele>506.0</ele><time>2026-05-02T13:46:29.715Z</time></trkpt><trkpt lat="44.5746321" lon="9.9015667"><ele>506.0</ele><time>2026-05-02T13:46:30.714Z</time></trkpt><trkpt lat="44.5746878" lon="9.9014474"><ele>506.0</ele><time>2026-05-02T13:46:31.714Z</time></trkpt><trkpt lat="44.5747427" lon="9.90133"><ele>504.0</ele><time>2026-05-02T13:46:32.714Z</time></trkpt><trkpt lat="44.574801" lon="9.9012134"><ele>502.0</ele><time>2026-05-02T13:46:33.714Z</time></trkpt><trkpt lat="44.5748551" lon="9.9011026"><ele>500.0</ele><time>2026-05-02T13:46:34.714Z</time></trkpt><trkpt lat="44.5749059" lon="9.9009878"><ele>498.0</ele><time>2026-05-02T13:46:35.714Z</time></trkpt><trkpt lat="44.574958" lon="9.9008786"><ele>496.0</ele><time>2026-05-02T13:46:36.714Z</time></trkpt><trkpt lat="44.5750091" lon="9.9007714"><ele>496.0</ele><time>2026-05-02T13:46:37.714Z</time></trkpt><trkpt lat="44.5750711" lon="9.9007087"><ele>496.0</ele><time>2026-05-02T13:46:38.714Z</time></trkpt><trkpt lat="44.5751887" lon="9.9006682"><ele>496.0</ele><time>2026-05-02T13:46:40.715Z</time></trkpt><trkpt lat="44.5752861" lon="9.9007604"><ele>496.0</ele><time>2026-05-02T13:46:42.715Z</time></trkpt><trkpt lat="44.5752936" lon="9.9009301"><ele>496.0</ele><time>2026-05-02T13:46:44.715Z</time></trkpt><trkpt lat="44.5752419" lon="9.9011013"><ele>495.33333333333337</ele><time>2026-05-02T13:46:46.715Z</time></trkpt><trkpt lat="44.5752049" lon="9.9011921"><ele>494.6666666666667</ele><time>2026-05-02T13:46:47.714Z</time></trkpt><trkpt lat="44.5751867" lon="9.9012979"><ele>494.0</ele><time>2026-05-02T13:46:48.714Z</time></trkpt><trkpt lat="44.5751817" lon="9.9014113"><ele>493.33333333333337</ele><time>2026-05-02T13:46:49.714Z</time></trkpt><trkpt lat="44.5751866" lon="9.9015231"><ele>492.6666666666667</ele><time>2026-05-02T13:46:50.715Z</time></trkpt><trkpt lat="44.5752101" lon="9.9016331"><ele>492.0</ele><time>2026-05-02T13:46:51.715Z</time></trkpt><trkpt lat="44.5752476" lon="9.9017425"><ele>491.8333333333333</ele><time>2026-05-02T13:46:52.714Z</time></trkpt><trkpt lat="44.5752925" lon="9.9018465"><ele>491.66666666666663</ele><time>2026-05-02T13:46:53.714Z</time></trkpt><trkpt lat="44.5753546" lon="9.90194"><ele>491.5</ele><time>2026-05-02T13:46:54.714Z</time></trkpt><trkpt lat="44.5754271" lon="9.9020203"><ele>491.3333333333333</ele><time>2026-05-02T13:46:55.714Z</time></trkpt><trkpt lat="44.575505" lon="9.9020824"><ele>491.16666666666663</ele><time>2026-05-02T13:46:56.714Z</time></trkpt><trkpt lat="44.5755857" lon="9.9021255"><ele>491.0</ele><time>2026-05-02T13:46:57.714Z</time></trkpt><trkpt lat="44.5756788" lon="9.9021718"><ele>489.8</ele><time>2026-05-02T13:46:58.715Z</time></trkpt><trkpt lat="44.5757595" lon="9.9022108"><ele>488.6</ele><time>2026-05-02T13:46:59.714Z</time></trkpt><trkpt lat="44.5758387" lon="9.9022569"><ele>487.4</ele><time>2026-05-02T13:47:00.714Z</time></trkpt><trkpt lat="44.5759059" lon="9.9023048"><ele>486.2</ele><time>2026-05-02T13:47:01.714Z</time></trkpt><trkpt lat="44.5759984" lon="9.9023939"><ele>485.0</ele><time>2026-05-02T13:47:02.715Z</time></trkpt><trkpt lat="44.5760793" lon="9.9024809"><ele>485.0</ele><time>2026-05-02T13:47:03.714Z</time></trkpt><trkpt lat="44.5761545" lon="9.9025744"><ele>485.0</ele><time>2026-05-02T13:47:04.714Z</time></trkpt><trkpt lat="44.5762269" lon="9.9026626"><ele>485.0</ele><time>2026-05-02T13:47:05.714Z</time></trkpt><trkpt lat="44.5762991" lon="9.9027676"><ele>485.0</ele><time>2026-05-02T13:47:06.714Z</time></trkpt><trkpt lat="44.5763531" lon="9.9028888"><ele>485.0</ele><time>2026-05-02T13:47:07.714Z</time></trkpt><trkpt lat="44.5763886" lon="9.9030129"><ele>481.2</ele><time>2026-05-02T13:47:08.714Z</time></trkpt><trkpt lat="44.5764057" lon="9.9031499"><ele>477.4</ele><time>2026-05-02T13:47:09.715Z</time></trkpt><trkpt lat="44.5763878" lon="9.9032769"><ele>473.6</ele><time>2026-05-02T13:47:10.714Z</time></trkpt><trkpt lat="44.5763459" lon="9.9034052"><ele>469.8</ele><time>2026-05-02T13:47:11.716Z</time></trkpt><trkpt lat="44.5763102" lon="9.9035275"><ele>466.0</ele><time>2026-05-02T13:47:12.714Z</time></trkpt><trkpt lat="44.5762772" lon="9.9036558"><ele>464.8</ele><time>2026-05-02T13:47:13.715Z</time></trkpt><trkpt lat="44.5762359" lon="9.9037947"><ele>463.6</ele><time>2026-05-02T13:47:14.714Z</time></trkpt><trkpt lat="44.576201" lon="9.9039335"><ele>462.4</ele><time>2026-05-02T13:47:15.714Z</time></trkpt><trkpt lat="44.5761703" lon="9.9040674"><ele>461.2</ele><time>2026-05-02T13:47:16.714Z</time></trkpt><trkpt lat="44.576146" lon="9.9041994"><ele>460.0</ele><time>2026-05-02T13:47:17.714Z</time></trkpt><trkpt lat="44.5761402" lon="9.9043268"><ele>461.33333333333337</ele><time>2026-05-02T13:47:18.714Z</time></trkpt><trkpt lat="44.5761551" lon="9.9044479"><ele>462.6666666666667</ele><time>2026-05-02T13:47:19.714Z</time></trkpt><trkpt lat="44.5761975" lon="9.9045562"><ele>464.0</ele><time>2026-05-02T13:47:20.714Z</time></trkpt><trkpt lat="44.5762603" lon="9.9046375"><ele>465.33333333333337</ele><time>2026-05-02T13:47:21.714Z</time></trkpt><trkpt lat="44.5763389" lon="9.9046858"><ele>466.6666666666667</ele><time>2026-05-02T13:47:22.714Z</time></trkpt><trkpt lat="44.5764383" lon="9.9047149"><ele>468.0</ele><time>2026-05-02T13:47:23.714Z</time></trkpt><trkpt lat="44.5765527" lon="9.9047366"><ele>468.0</ele><time>2026-05-02T13:47:24.714Z</time></trkpt><trkpt lat="44.5766745" lon="9.9047701"><ele>468.0</ele><time>2026-05-02T13:47:25.715Z</time></trkpt><trkpt lat="44.5767982" lon="9.9047984"><ele>468.0</ele><time>2026-05-02T13:47:26.715Z</time></trkpt><trkpt lat="44.5769177" lon="9.9048318"><ele>468.0</ele><time>2026-05-02T13:47:27.714Z</time></trkpt><trkpt lat="44.5770307" lon="9.9048801"><ele>467.25</ele><time>2026-05-02T13:47:28.714Z</time></trkpt><trkpt lat="44.5771472" lon="9.9049448"><ele>466.5</ele><time>2026-05-02T13:47:29.714Z</time></trkpt><trkpt lat="44.5772392" lon="9.9050408"><ele>465.75</ele><time>2026-05-02T13:47:30.714Z</time></trkpt><trkpt lat="44.5773418" lon="9.9051385"><ele>465.0</ele><time>2026-05-02T13:47:31.714Z</time></trkpt><trkpt lat="44.5774173" lon="9.9052523"><ele>465.0</ele><time>2026-05-02T13:47:32.714Z</time></trkpt><trkpt lat="44.5775151" lon="9.9053521"><ele>465.0</ele><time>2026-05-02T13:47:33.714Z</time></trkpt><trkpt lat="44.5776056" lon="9.9054615"><ele>465.0</ele><time>2026-05-02T13:47:34.714Z</time></trkpt><trkpt lat="44.5776903" lon="9.9055798"><ele>465.0</ele><time>2026-05-02T13:47:35.714Z</time></trkpt><trkpt lat="44.5777571" lon="9.9056837"><ele>465.0</ele><time>2026-05-02T13:47:36.715Z</time></trkpt><trkpt lat="44.5778231" lon="9.9057987"><ele>465.0</ele><time>2026-05-02T13:47:37.714Z</time></trkpt><trkpt lat="44.5778703" lon="9.9059262"><ele>465.0</ele><time>2026-05-02T13:47:38.714Z</time></trkpt><trkpt lat="44.5778945" lon="9.9060611"><ele>465.0</ele><time>2026-05-02T13:47:39.714Z</time></trkpt><trkpt lat="44.5779038" lon="9.9062018"><ele>465.0</ele><time>2026-05-02T13:47:40.714Z</time></trkpt><trkpt lat="44.5779129" lon="9.9063369"><ele>459.8</ele><time>2026-05-02T13:47:41.714Z</time></trkpt><trkpt lat="44.5779129" lon="9.9064715"><ele>454.6</ele><time>2026-05-02T13:47:42.714Z</time></trkpt><trkpt lat="44.5779163" lon="9.9066077"><ele>449.4</ele><time>2026-05-02T13:47:43.714Z</time></trkpt><trkpt lat="44.5779175" lon="9.9067385"><ele>444.2</ele><time>2026-05-02T13:47:44.714Z</time></trkpt><trkpt lat="44.577924" lon="9.9068684"><ele>439.0</ele><time>2026-05-02T13:47:45.714Z</time></trkpt><trkpt lat="44.5779567" lon="9.9069929"><ele>439.00000000000006</ele><time>2026-05-02T13:47:46.715Z</time></trkpt><trkpt lat="44.5780098" lon="9.9070899"><ele>439.0</ele><time>2026-05-02T13:47:47.714Z</time></trkpt><trkpt lat="44.5780903" lon="9.9071444"><ele>439.0</ele><time>2026-05-02T13:47:48.714Z</time></trkpt><trkpt lat="44.5781743" lon="9.9071525"><ele>439.0</ele><time>2026-05-02T13:47:49.714Z</time></trkpt><trkpt lat="44.5782553" lon="9.9071082"><ele>439.00000000000006</ele><time>2026-05-02T13:47:50.714Z</time></trkpt><trkpt lat="44.5783155" lon="9.9070168"><ele>439.0</ele><time>2026-05-02T13:47:51.714Z</time></trkpt><trkpt lat="44.5783481" lon="9.906897"><ele>439.0</ele><time>2026-05-02T13:47:52.715Z</time></trkpt><trkpt lat="44.5783545" lon="9.9067654"><ele>439.0</ele><time>2026-05-02T13:47:53.714Z</time></trkpt><trkpt lat="44.5783482" lon="9.9066255"><ele>439.0</ele><time>2026-05-02T13:47:54.714Z</time></trkpt><trkpt lat="44.578351" lon="9.9064827"><ele>439.0</ele><time>2026-05-02T13:47:55.714Z</time></trkpt><trkpt lat="44.5783587" lon="9.9063316"><ele>439.0</ele><time>2026-05-02T13:47:56.716Z</time></trkpt><trkpt lat="44.5783693" lon="9.9061775"><ele>439.0</ele><time>2026-05-02T13:47:57.714Z</time></trkpt><trkpt lat="44.578391" lon="9.9060233"><ele>439.0</ele><time>2026-05-02T13:47:58.714Z</time></trkpt><trkpt lat="44.5784209" lon="9.9058692"><ele>439.0</ele><time>2026-05-02T13:47:59.714Z</time></trkpt><trkpt lat="44.5784584" lon="9.9057172"><ele>439.0</ele><time>2026-05-02T13:48:00.714Z</time></trkpt><trkpt lat="44.5784994" lon="9.9055635"><ele>439.4</ele><time>2026-05-02T13:48:01.715Z</time></trkpt><trkpt lat="44.5785312" lon="9.9054041"><ele>439.79999999999995</ele><time>2026-05-02T13:48:02.714Z</time></trkpt><trkpt lat="44.5785359" lon="9.9052454"><ele>440.20000000000005</ele><time>2026-05-02T13:48:03.714Z</time></trkpt><trkpt lat="44.5785176" lon="9.9050963"><ele>440.6</ele><time>2026-05-02T13:48:04.714Z</time></trkpt><trkpt lat="44.5784899" lon="9.9049509"><ele>441.0</ele><time>2026-05-02T13:48:05.714Z</time></trkpt><trkpt lat="44.5784743" lon="9.904826"><ele>441.0</ele><time>2026-05-02T13:48:06.715Z</time></trkpt><trkpt lat="44.5784819" lon="9.9047056"><ele>441.0</ele><time>2026-05-02T13:48:07.714Z</time></trkpt><trkpt lat="44.5785165" lon="9.9046047"><ele>441.0</ele><time>2026-05-02T13:48:08.715Z</time></trkpt><trkpt lat="44.5785767" lon="9.9045329"><ele>441.0</ele><time>2026-05-02T13:48:09.714Z</time></trkpt><trkpt lat="44.5786535" lon="9.9045046"><ele>441.0</ele><time>2026-05-02T13:48:10.714Z</time></trkpt><trkpt lat="44.5787308" lon="9.9045222"><ele>441.0</ele><time>2026-05-02T13:48:11.714Z</time></trkpt><trkpt lat="44.5787956" lon="9.9045869"><ele>436.6</ele><time>2026-05-02T13:48:12.714Z</time></trkpt><trkpt lat="44.5788445" lon="9.9046842"><ele>432.20000000000005</ele><time>2026-05-02T13:48:13.714Z</time></trkpt><trkpt lat="44.5788753" lon="9.9047981"><ele>427.79999999999995</ele><time>2026-05-02T13:48:14.715Z</time></trkpt><trkpt lat="44.5788987" lon="9.9049249"><ele>423.4</ele><time>2026-05-02T13:48:15.714Z</time></trkpt><trkpt lat="44.5789245" lon="9.9050529"><ele>419.0</ele><time>2026-05-02T13:48:16.714Z</time></trkpt><trkpt lat="44.5789493" lon="9.905191"><ele>419.0</ele><time>2026-05-02T13:48:17.714Z</time></trkpt><trkpt lat="44.5789755" lon="9.9053281"><ele>419.0</ele><time>2026-05-02T13:48:18.716Z</time></trkpt><trkpt lat="44.5790064" lon="9.9054682"><ele>419.0</ele><time>2026-05-02T13:48:19.714Z</time></trkpt><trkpt lat="44.5790426" lon="9.9056182"><ele>419.0</ele><time>2026-05-02T13:48:20.714Z</time></trkpt><trkpt lat="44.5790786" lon="9.9057663"><ele>419.0</ele><time>2026-05-02T13:48:21.714Z</time></trkpt><trkpt lat="44.5791145" lon="9.9059195"><ele>419.0</ele><time>2026-05-02T13:48:22.715Z</time></trkpt><trkpt lat="44.5791461" lon="9.906073"><ele>419.0</ele><time>2026-05-02T13:48:23.715Z</time></trkpt><trkpt lat="44.5791774" lon="9.9062212"><ele>419.0</ele><time>2026-05-02T13:48:24.714Z</time></trkpt><trkpt lat="44.5792213" lon="9.9063633"><ele>419.0</ele><time>2026-05-02T13:48:25.714Z</time></trkpt><trkpt lat="44.5792817" lon="9.9064943"><ele>419.0</ele><time>2026-05-02T13:48:26.715Z</time></trkpt><trkpt lat="44.5793459" lon="9.9066172"><ele>419.79999999999995</ele><time>2026-05-02T13:48:27.714Z</time></trkpt><trkpt lat="44.5794166" lon="9.9067452"><ele>420.59999999999997</ele><time>2026-05-02T13:48:28.715Z</time></trkpt><trkpt lat="44.5794845" lon="9.9068715"><ele>421.4</ele><time>2026-05-02T13:48:29.715Z</time></trkpt><trkpt lat="44.5795526" lon="9.9069936"><ele>422.2</ele><time>2026-05-02T13:48:30.714Z</time></trkpt><trkpt lat="44.5796213" lon="9.9071155"><ele>423.0</ele><time>2026-05-02T13:48:31.714Z</time></trkpt><trkpt lat="44.5796967" lon="9.9072282"><ele>421.0</ele><time>2026-05-02T13:48:32.715Z</time></trkpt><trkpt lat="44.579776" lon="9.907338"><ele>419.0</ele><time>2026-05-02T13:48:33.714Z</time></trkpt><trkpt lat="44.5798639" lon="9.9074296"><ele>417.0</ele><time>2026-05-02T13:48:34.714Z</time></trkpt><trkpt lat="44.5799632" lon="9.9074954"><ele>415.0</ele><time>2026-05-02T13:48:35.714Z</time></trkpt><trkpt lat="44.5800655" lon="9.9075413"><ele>413.0</ele><time>2026-05-02T13:48:36.714Z</time></trkpt><trkpt lat="44.5801668" lon="9.9075783"><ele>413.0</ele><time>2026-05-02T13:48:37.715Z</time></trkpt><trkpt lat="44.5802672" lon="9.9076221"><ele>413.0</ele><time>2026-05-02T13:48:38.715Z</time></trkpt><trkpt lat="44.5803671" lon="9.9076777"><ele>413.0</ele><time>2026-05-02T13:48:39.714Z</time></trkpt><trkpt lat="44.5804547" lon="9.9077506"><ele>413.0</ele><time>2026-05-02T13:48:40.714Z</time></trkpt><trkpt lat="44.5805324" lon="9.9078517"><ele>413.0</ele><time>2026-05-02T13:48:41.714Z</time></trkpt><trkpt lat="44.5805856" lon="9.9079739"><ele>409.79999999999995</ele><time>2026-05-02T13:48:42.714Z</time></trkpt><trkpt lat="44.5806145" lon="9.9081093"><ele>406.6</ele><time>2026-05-02T13:48:43.714Z</time></trkpt><trkpt lat="44.5806203" lon="9.9082528"><ele>403.4</ele><time>2026-05-02T13:48:44.714Z</time></trkpt><trkpt lat="44.580612" lon="9.9084012"><ele>400.20000000000005</ele><time>2026-05-02T13:48:45.714Z</time></trkpt><trkpt lat="44.580605" lon="9.9085491"><ele>397.0</ele><time>2026-05-02T13:48:46.714Z</time></trkpt><trkpt lat="44.5806096" lon="9.9086997"><ele>396.8</ele><time>2026-05-02T13:48:47.714Z</time></trkpt><trkpt lat="44.5806426" lon="9.9088419"><ele>396.6</ele><time>2026-05-02T13:48:48.715Z</time></trkpt><trkpt lat="44.5807056" lon="9.908967"><ele>396.40000000000003</ele><time>2026-05-02T13:48:49.714Z</time></trkpt><trkpt lat="44.580789" lon="9.9090707"><ele>396.20000000000005</ele><time>2026-05-02T13:48:50.714Z</time></trkpt><trkpt lat="44.5808805" lon="9.9091651"><ele>396.0</ele><time>2026-05-02T13:48:51.714Z</time></trkpt><trkpt lat="44.58097" lon="9.9092631"><ele>396.4</ele><time>2026-05-02T13:48:52.714Z</time></trkpt><trkpt lat="44.5810488" lon="9.9093715"><ele>396.8</ele><time>2026-05-02T13:48:53.714Z</time></trkpt><trkpt lat="44.5811201" lon="9.9094862"><ele>397.2</ele><time>2026-05-02T13:48:54.714Z</time></trkpt><trkpt lat="44.5811779" lon="9.9096247"><ele>397.59999999999997</ele><time>2026-05-02T13:48:55.715Z</time></trkpt><trkpt lat="44.5812297" lon="9.9097579"><ele>398.0</ele><time>2026-05-02T13:48:56.714Z</time></trkpt><trkpt lat="44.5812719" lon="9.9098934"><ele>396.59999999999997</ele><time>2026-05-02T13:48:57.714Z</time></trkpt><trkpt lat="44.5813051" lon="9.9100315"><ele>395.2</ele><time>2026-05-02T13:48:58.714Z</time></trkpt><trkpt lat="44.581337" lon="9.9101705"><ele>393.8</ele><time>2026-05-02T13:48:59.714Z</time></trkpt><trkpt lat="44.5813707" lon="9.9103054"><ele>392.4</ele><time>2026-05-02T13:49:00.715Z</time></trkpt><trkpt lat="44.5814055" lon="9.9104402"><ele>391.0</ele><time>2026-05-02T13:49:01.715Z</time></trkpt><trkpt lat="44.5814442" lon="9.9105755"><ele>391.0</ele><time>2026-05-02T13:49:02.714Z</time></trkpt><trkpt lat="44.5814839" lon="9.9107136"><ele>391.0</ele><time>2026-05-02T13:49:03.714Z</time></trkpt><trkpt lat="44.5815274" lon="9.910849"><ele>391.0</ele><time>2026-05-02T13:49:04.715Z</time></trkpt><trkpt lat="44.5815826" lon="9.9109751"><ele>391.0</ele><time>2026-05-02T13:49:05.714Z</time></trkpt><trkpt lat="44.5816558" lon="9.9110896"><ele>391.0</ele><time>2026-05-02T13:49:06.714Z</time></trkpt><trkpt lat="44.5817376" lon="9.9111916"><ele>389.6</ele><time>2026-05-02T13:49:07.714Z</time></trkpt><trkpt lat="44.5818223" lon="9.9112861"><ele>388.20000000000005</ele><time>2026-05-02T13:49:08.714Z</time></trkpt><trkpt lat="44.5819057" lon="9.9113847"><ele>386.79999999999995</ele><time>2026-05-02T13:49:09.714Z</time></trkpt><trkpt lat="44.5819746" lon="9.9114942"><ele>385.4</ele><time>2026-05-02T13:49:10.714Z</time></trkpt><trkpt lat="44.5820282" lon="9.911622"><ele>384.0</ele><time>2026-05-02T13:49:11.714Z</time></trkpt><trkpt lat="44.5820766" lon="9.9117563"><ele>384.0</ele><time>2026-05-02T13:49:12.714Z</time></trkpt><trkpt lat="44.5820891" lon="9.9119107"><ele>384.0</ele><time>2026-05-02T13:49:13.715Z</time></trkpt><trkpt lat="44.5820971" lon="9.9120617"><ele>384.0</ele><time>2026-05-02T13:49:14.714Z</time></trkpt><trkpt lat="44.5821001" lon="9.912217"><ele>384.0</ele><time>2026-05-02T13:49:15.714Z</time></trkpt><trkpt lat="44.5821048" lon="9.912369"><ele>384.0</ele><time>2026-05-02T13:49:16.714Z</time></trkpt><trkpt lat="44.5821133" lon="9.9125154"><ele>383.8333333333333</ele><time>2026-05-02T13:49:17.714Z</time></trkpt><trkpt lat="44.5821208" lon="9.9126472"><ele>383.6666666666667</ele><time>2026-05-02T13:49:18.714Z</time></trkpt><trkpt lat="44.5821227" lon="9.9127656"><ele>383.5</ele><time>2026-05-02T13:49:19.714Z</time></trkpt><trkpt lat="44.5821201" lon="9.912876"><ele>383.33333333333337</ele><time>2026-05-02T13:49:20.714Z</time></trkpt><trkpt lat="44.5821228" lon="9.9129832"><ele>383.1666666666667</ele><time>2026-05-02T13:49:21.714Z</time></trkpt><trkpt lat="44.5821298" lon="9.9130852"><ele>383.0</ele><time>2026-05-02T13:49:22.715Z</time></trkpt><trkpt lat="44.5821376" lon="9.9131788"><ele>383.0</ele><time>2026-05-02T13:49:23.714Z</time></trkpt><trkpt lat="44.5821787" lon="9.9133225"><ele>383.0</ele><time>2026-05-02T13:49:25.715Z</time></trkpt><trkpt lat="44.5822583" lon="9.9133931"><ele>383.0</ele><time>2026-05-02T13:49:27.714Z</time></trkpt><trkpt lat="44.5823182" lon="9.9133235"><ele>383.0</ele><time>2026-05-02T13:49:29.714Z</time></trkpt><trkpt lat="44.5823617" lon="9.9132247"><ele>383.0</ele><time>2026-05-02T13:49:31.715Z</time></trkpt><trkpt lat="44.582397" lon="9.9131287"><ele>383.0</ele><time>2026-05-02T13:49:33.714Z</time></trkpt><trkpt lat="44.5824391" lon="9.9130581"><ele>383.0</ele><time>2026-05-02T13:49:35.715Z</time></trkpt><trkpt lat="44.5825109" lon="9.9130095"><ele>383.0</ele><time>2026-05-02T13:49:38.714Z</time></trkpt><trkpt lat="44.5825373" lon="9.9128941"><ele>383.0</ele><time>2026-05-02T14:03:26.711Z</time></trkpt><trkpt lat="44.5826074" lon="9.91284"><ele>383.0</ele><time>2026-05-02T14:03:28.711Z</time></trkpt><trkpt lat="44.5826968" lon="9.9127739"><ele>383.0</ele><time>2026-05-02T14:03:30.712Z</time></trkpt><trkpt lat="44.5827853" lon="9.9126793"><ele>383.0</ele><time>2026-05-02T14:03:32.711Z</time></trkpt><trkpt lat="44.5828357" lon="9.9126253"><ele>383.0</ele><time>2026-05-02T14:03:33.711Z</time></trkpt><trkpt lat="44.5828918" lon="9.9125743"><ele>383.0</ele><time>2026-05-02T14:03:34.712Z</time></trkpt><trkpt lat="44.5829538" lon="9.9125172"><ele>383.0</ele><time>2026-05-02T14:03:35.711Z</time></trkpt><trkpt lat="44.5830127" lon="9.9124477"><ele>383.0</ele><time>2026-05-02T14:03:36.711Z</time></trkpt><trkpt lat="44.5830707" lon="9.9123744"><ele>383.0</ele><time>2026-05-02T14:03:37.711Z</time></trkpt><trkpt lat="44.5831232" lon="9.9122816"><ele>383.0</ele><time>2026-05-02T14:03:38.711Z</time></trkpt><trkpt lat="44.5831695" lon="9.9121783"><ele>381.0</ele><time>2026-05-02T14:03:39.711Z</time></trkpt><trkpt lat="44.5832102" lon="9.9120701"><ele>379.0</ele><time>2026-05-02T14:03:40.711Z</time></trkpt><trkpt lat="44.5832525" lon="9.9119586"><ele>377.0</ele><time>2026-05-02T14:03:41.712Z</time></trkpt><trkpt lat="44.5832935" lon="9.9118476"><ele>375.0</ele><time>2026-05-02T14:03:42.711Z</time></trkpt><trkpt lat="44.5833275" lon="9.9117332"><ele>373.0</ele><time>2026-05-02T14:03:43.712Z</time></trkpt><trkpt lat="44.5833344" lon="9.9116182"><ele>371.0</ele><time>2026-05-02T14:03:44.711Z</time></trkpt><trkpt lat="44.5833109" lon="9.9115005"><ele>371.0</ele><time>2026-05-02T14:03:45.712Z</time></trkpt><trkpt lat="44.5832691" lon="9.9114002"><ele>371.0</ele><time>2026-05-02T14:03:46.712Z</time></trkpt><trkpt lat="44.5832114" lon="9.9113075"><ele>371.0</ele><time>2026-05-02T14:03:47.711Z</time></trkpt><trkpt lat="44.5831504" lon="9.9112138"><ele>371.0</ele><time>2026-05-02T14:03:48.711Z</time></trkpt><trkpt lat="44.5830974" lon="9.9111122"><ele>371.0</ele><time>2026-05-02T14:03:49.711Z</time></trkpt><trkpt lat="44.5830542" lon="9.9110048"><ele>371.0</ele><time>2026-05-02T14:03:50.711Z</time></trkpt><trkpt lat="44.5830349" lon="9.9108853"><ele>370.33333333333337</ele><time>2026-05-02T14:03:51.712Z</time></trkpt><trkpt lat="44.5830542" lon="9.9107706"><ele>369.6666666666667</ele><time>2026-05-02T14:03:52.711Z</time></trkpt><trkpt lat="44.5830936" lon="9.9106661"><ele>369.0</ele><time>2026-05-02T14:03:53.711Z</time></trkpt><trkpt lat="44.5831351" lon="9.9105616"><ele>368.3333333333333</ele><time>2026-05-02T14:03:54.712Z</time></trkpt><trkpt lat="44.5831747" lon="9.9104541"><ele>367.66666666666663</ele><time>2026-05-02T14:03:55.711Z</time></trkpt><trkpt lat="44.5832166" lon="9.9103496"><ele>367.0</ele><time>2026-05-02T14:03:56.711Z</time></trkpt><trkpt lat="44.5832725" lon="9.9102715"><ele>367.0</ele><time>2026-05-02T14:03:57.713Z</time></trkpt><trkpt lat="44.5833444" lon="9.9102272"><ele>367.0</ele><time>2026-05-02T14:03:58.711Z</time></trkpt><trkpt lat="44.5834267" lon="9.9102354"><ele>367.0</ele><time>2026-05-02T14:03:59.711Z</time></trkpt><trkpt lat="44.5835002" lon="9.9102834"><ele>367.0</ele><time>2026-05-02T14:04:00.711Z</time></trkpt><trkpt lat="44.5835685" lon="9.9103275"><ele>367.0</ele><time>2026-05-02T14:04:01.711Z</time></trkpt><trkpt lat="44.5836402" lon="9.9103255"><ele>367.0</ele><time>2026-05-02T14:04:02.711Z</time></trkpt><trkpt lat="44.5837038" lon="9.9102828"><ele>364.3333333333333</ele><time>2026-05-02T14:04:03.711Z</time></trkpt><trkpt lat="44.5837488" lon="9.9102017"><ele>361.66666666666663</ele><time>2026-05-02T14:04:04.712Z</time></trkpt><trkpt lat="44.5837655" lon="9.9100941"><ele>359.0</ele><time>2026-05-02T14:04:05.711Z</time></trkpt><trkpt lat="44.5837667" lon="9.9099783"><ele>356.3333333333333</ele><time>2026-05-02T14:04:06.711Z</time></trkpt><trkpt lat="44.5837612" lon="9.9098514"><ele>353.6666666666667</ele><time>2026-05-02T14:04:07.711Z</time></trkpt><trkpt lat="44.5837386" lon="9.9097094"><ele>351.0</ele><time>2026-05-02T14:04:08.711Z</time></trkpt><trkpt lat="44.5837166" lon="9.9095738"><ele>350.6</ele><time>2026-05-02T14:04:09.711Z</time></trkpt><trkpt lat="44.5836914" lon="9.9094332"><ele>350.20000000000005</ele><time>2026-05-02T14:04:10.711Z</time></trkpt><trkpt lat="44.5836666" lon="9.9092921"><ele>349.79999999999995</ele><time>2026-05-02T14:04:11.711Z</time></trkpt><trkpt lat="44.5836421" lon="9.9091477"><ele>349.4</ele><time>2026-05-02T14:04:12.711Z</time></trkpt><trkpt lat="44.5836169" lon="9.9090074"><ele>349.0</ele><time>2026-05-02T14:04:13.712Z</time></trkpt><trkpt lat="44.5835919" lon="9.908867"><ele>348.2</ele><time>2026-05-02T14:04:14.711Z</time></trkpt><trkpt lat="44.5835612" lon="9.9087314"><ele>347.4</ele><time>2026-05-02T14:04:15.711Z</time></trkpt><trkpt lat="44.5835162" lon="9.9086012"><ele>346.6</ele><time>2026-05-02T14:04:16.711Z</time></trkpt><trkpt lat="44.5834696" lon="9.9084842"><ele>345.8</ele><time>2026-05-02T14:04:17.712Z</time></trkpt><trkpt lat="44.58343" lon="9.9083705"><ele>345.0</ele><time>2026-05-02T14:04:18.711Z</time></trkpt><trkpt lat="44.5834162" lon="9.9082697"><ele>345.0</ele><time>2026-05-02T14:04:19.711Z</time></trkpt><trkpt lat="44.5834322" lon="9.9081807"><ele>345.0</ele><time>2026-05-02T14:04:20.711Z</time></trkpt><trkpt lat="44.5834779" lon="9.908108"><ele>345.0</ele><time>2026-05-02T14:04:21.711Z</time></trkpt><trkpt lat="44.5835455" lon="9.9080581"><ele>345.0</ele><time>2026-05-02T14:04:22.711Z</time></trkpt><trkpt lat="44.5836166" lon="9.9080328"><ele>345.0</ele><time>2026-05-02T14:04:23.711Z</time></trkpt><trkpt lat="44.5836908" lon="9.908025"><ele>345.0</ele><time>2026-05-02T14:04:24.711Z</time></trkpt><trkpt lat="44.5837647" lon="9.9080453"><ele>345.0</ele><time>2026-05-02T14:04:25.711Z</time></trkpt><trkpt lat="44.5838346" lon="9.9080897"><ele>344.4</ele><time>2026-05-02T14:04:26.711Z</time></trkpt><trkpt lat="44.5839009" lon="9.9081602"><ele>343.8</ele><time>2026-05-02T14:04:27.711Z</time></trkpt><trkpt lat="44.5839676" lon="9.9082487"><ele>343.20000000000005</ele><time>2026-05-02T14:04:28.712Z</time></trkpt><trkpt lat="44.5840331" lon="9.9083346"><ele>342.6</ele><time>2026-05-02T14:04:29.711Z</time></trkpt><trkpt lat="44.5841023" lon="9.9084181"><ele>342.0</ele><time>2026-05-02T14:04:30.712Z</time></trkpt><trkpt lat="44.5841805" lon="9.9084933"><ele>342.0</ele><time>2026-05-02T14:04:31.712Z</time></trkpt><trkpt lat="44.5842681" lon="9.9085545"><ele>342.0</ele><time>2026-05-02T14:04:32.711Z</time></trkpt><trkpt lat="44.5843593" lon="9.9085981"><ele>342.0</ele><time>2026-05-02T14:04:33.711Z</time></trkpt><trkpt lat="44.5844551" lon="9.9086199"><ele>342.0</ele><time>2026-05-02T14:04:34.712Z</time></trkpt><trkpt lat="44.58455" lon="9.9086232"><ele>342.0</ele><time>2026-05-02T14:04:35.711Z</time></trkpt><trkpt lat="44.5846421" lon="9.908635"><ele>339.20000000000005</ele><time>2026-05-02T14:04:36.711Z</time></trkpt><trkpt lat="44.5847314" lon="9.9086607"><ele>336.4</ele><time>2026-05-02T14:04:37.713Z</time></trkpt><trkpt lat="44.584813" lon="9.9087063"><ele>333.6</ele><time>2026-05-02T14:04:38.711Z</time></trkpt><trkpt lat="44.5849009" lon="9.908756"><ele>330.79999999999995</ele><time>2026-05-02T14:04:39.711Z</time></trkpt><trkpt lat="44.5849754" lon="9.9088412"><ele>328.0</ele><time>2026-05-02T14:04:40.711Z</time></trkpt><trkpt lat="44.5850421" lon="9.9089522"><ele>328.0</ele><time>2026-05-02T14:04:41.711Z</time></trkpt><trkpt lat="44.5851094" lon="9.9090423"><ele>328.0</ele><time>2026-05-02T14:04:42.711Z</time></trkpt><trkpt lat="44.5851771" lon="9.909142"><ele>328.0</ele><time>2026-05-02T14:04:43.711Z</time></trkpt><trkpt lat="44.5852445" lon="9.9092266"><ele>328.0</ele><time>2026-05-02T14:04:44.711Z</time></trkpt><trkpt lat="44.5853173" lon="9.9092852"><ele>328.0</ele><time>2026-05-02T14:04:45.711Z</time></trkpt><trkpt lat="44.5853936" lon="9.9093096"><ele>328.0</ele><time>2026-05-02T14:04:46.711Z</time></trkpt><trkpt lat="44.5854792" lon="9.9093089"><ele>326.2857142857143</ele><time>2026-05-02T14:04:47.712Z</time></trkpt><trkpt lat="44.5855653" lon="9.9092941"><ele>324.57142857142856</ele><time>2026-05-02T14:04:48.711Z</time></trkpt><trkpt lat="44.5856482" lon="9.9092787"><ele>322.8571428571429</ele><time>2026-05-02T14:04:49.711Z</time></trkpt><trkpt lat="44.5857168" lon="9.9092644"><ele>321.1428571428571</ele><time>2026-05-02T14:04:50.711Z</time></trkpt><trkpt lat="44.585783" lon="9.9092566"><ele>319.42857142857144</ele><time>2026-05-02T14:04:51.711Z</time></trkpt><trkpt lat="44.5858534" lon="9.9092508"><ele>317.7142857142857</ele><time>2026-05-02T14:04:52.711Z</time></trkpt><trkpt lat="44.5859203" lon="9.9092274"><ele>316.0</ele><time>2026-05-02T14:04:53.711Z</time></trkpt><trkpt lat="44.5859825" lon="9.9091739"><ele>316.0</ele><time>2026-05-02T14:04:54.712Z</time></trkpt><trkpt lat="44.5860394" lon="9.9091095"><ele>316.0</ele><time>2026-05-02T14:04:55.711Z</time></trkpt><trkpt lat="44.5860932" lon="9.909057"><ele>316.0</ele><time>2026-05-02T14:04:56.711Z</time></trkpt><trkpt lat="44.586174" lon="9.9090663"><ele>316.0</ele><time>2026-05-02T14:04:58.711Z</time></trkpt><trkpt lat="44.5862332" lon="9.9091227"><ele>316.0</ele><time>2026-05-02T14:05:11.711Z</time></trkpt><trkpt lat="44.5862761" lon="9.9092563"><ele>316.0</ele><time>2026-05-02T14:05:14.711Z</time></trkpt><trkpt lat="44.5862865" lon="9.9094254"><ele>316.5</ele><time>2026-05-02T14:05:16.711Z</time></trkpt><trkpt lat="44.586286" lon="9.9095289"><ele>317.0</ele><time>2026-05-02T14:05:17.711Z</time></trkpt><trkpt lat="44.5862901" lon="9.9096403"><ele>317.5</ele><time>2026-05-02T14:05:18.711Z</time></trkpt><trkpt lat="44.586294" lon="9.9097613"><ele>318.0</ele><time>2026-05-02T14:05:19.711Z</time></trkpt><trkpt lat="44.5862962" lon="9.9098867"><ele>318.5</ele><time>2026-05-02T14:05:20.711Z</time></trkpt><trkpt lat="44.5862925" lon="9.9100069"><ele>319.0</ele><time>2026-05-02T14:05:21.712Z</time></trkpt><trkpt lat="44.5862928" lon="9.9101349"><ele>319.0</ele><time>2026-05-02T14:05:22.711Z</time></trkpt><trkpt lat="44.5862975" lon="9.9102763"><ele>319.0</ele><time>2026-05-02T14:05:23.711Z</time></trkpt><trkpt lat="44.5863008" lon="9.9104163"><ele>319.0</ele><time>2026-05-02T14:05:24.711Z</time></trkpt><trkpt lat="44.5863049" lon="9.9105561"><ele>319.0</ele><time>2026-05-02T14:05:25.711Z</time></trkpt><trkpt lat="44.5863208" lon="9.9106906"><ele>319.0</ele><time>2026-05-02T14:05:26.712Z</time></trkpt><trkpt lat="44.5863576" lon="9.9108262"><ele>317.2</ele><time>2026-05-02T14:05:27.711Z</time></trkpt><trkpt lat="44.5864084" lon="9.9109469"><ele>315.4</ele><time>2026-05-02T14:05:28.711Z</time></trkpt><trkpt lat="44.5864716" lon="9.9110566"><ele>313.6</ele><time>2026-05-02T14:05:29.712Z</time></trkpt><trkpt lat="44.5865477" lon="9.9111432"><ele>311.8</ele><time>2026-05-02T14:05:30.712Z</time></trkpt><trkpt lat="44.5866272" lon="9.9112066"><ele>310.0</ele><time>2026-05-02T14:05:31.711Z</time></trkpt><trkpt lat="44.5867154" lon="9.9112427"><ele>310.0</ele><time>2026-05-02T14:05:32.711Z</time></trkpt><trkpt lat="44.5868045" lon="9.9112523"><ele>310.0</ele><time>2026-05-02T14:05:33.711Z</time></trkpt><trkpt lat="44.5868975" lon="9.9112395"><ele>310.0</ele><time>2026-05-02T14:05:34.711Z</time></trkpt><trkpt lat="44.5869979" lon="9.9112303"><ele>310.0</ele><time>2026-05-02T14:05:35.711Z</time></trkpt><trkpt lat="44.5871" lon="9.911224"><ele>310.0</ele><time>2026-05-02T14:05:36.711Z</time></trkpt><trkpt lat="44.5872017" lon="9.911219"><ele>311.8</ele><time>2026-05-02T14:05:37.712Z</time></trkpt><trkpt lat="44.587303" lon="9.9112265"><ele>313.6</ele><time>2026-05-02T14:05:38.711Z</time></trkpt><trkpt lat="44.5874043" lon="9.9112448"><ele>315.4</ele><time>2026-05-02T14:05:39.711Z</time></trkpt><trkpt lat="44.587507" lon="9.9112687"><ele>317.2</ele><time>2026-05-02T14:05:40.712Z</time></trkpt><trkpt lat="44.5876082" lon="9.9113009"><ele>319.0</ele><time>2026-05-02T14:05:41.712Z</time></trkpt><trkpt lat="44.5877115" lon="9.9113321"><ele>319.0</ele><time>2026-05-02T14:05:42.712Z</time></trkpt><trkpt lat="44.5878136" lon="9.9113663"><ele>319.0</ele><time>2026-05-02T14:05:43.712Z</time></trkpt><trkpt lat="44.5879131" lon="9.9114043"><ele>319.0</ele><time>2026-05-02T14:05:44.711Z</time></trkpt><trkpt lat="44.5880156" lon="9.9114465"><ele>319.0</ele><time>2026-05-02T14:05:45.711Z</time></trkpt><trkpt lat="44.5881146" lon="9.9114927"><ele>319.0</ele><time>2026-05-02T14:05:46.711Z</time></trkpt><trkpt lat="44.5882109" lon="9.9115358"><ele>320.8333333333333</ele><time>2026-05-02T14:05:47.711Z</time></trkpt><trkpt lat="44.5882959" lon="9.9115774"><ele>322.66666666666663</ele><time>2026-05-02T14:05:48.711Z</time></trkpt><trkpt lat="44.5883466" lon="9.9116343"><ele>324.5</ele><time>2026-05-02T14:05:49.711Z</time></trkpt><trkpt lat="44.5883506" lon="9.9118035"><ele>326.3333333333333</ele><time>2026-05-02T14:05:51.711Z</time></trkpt><trkpt lat="44.5883163" lon="9.9119043"><ele>328.1666666666667</ele><time>2026-05-02T14:05:52.711Z</time></trkpt><trkpt lat="44.5882593" lon="9.9119901"><ele>330.0</ele><time>2026-05-02T14:05:53.711Z</time></trkpt><trkpt lat="44.588206" lon="9.9120657"><ele>330.1666666666667</ele><time>2026-05-02T14:05:54.711Z</time></trkpt><trkpt lat="44.5881236" lon="9.9121107"><ele>330.3333333333333</ele><time>2026-05-02T14:05:55.711Z</time></trkpt><trkpt lat="44.5880445" lon="9.9121438"><ele>330.5</ele><time>2026-05-02T14:05:56.711Z</time></trkpt><trkpt lat="44.5879639" lon="9.912177"><ele>330.66666666666663</ele><time>2026-05-02T14:05:57.711Z</time></trkpt><trkpt lat="44.5878866" lon="9.9121976"><ele>330.8333333333333</ele><time>2026-05-02T14:05:58.711Z</time></trkpt><trkpt lat="44.5878231" lon="9.912308"><ele>331.0</ele><time>2026-05-02T14:05:59.712Z</time></trkpt><trkpt lat="44.5877677" lon="9.912389"><ele>332.6</ele><time>2026-05-02T14:06:00.711Z</time></trkpt><trkpt lat="44.587727" lon="9.9125765"><ele>334.20000000000005</ele><time>2026-05-02T14:06:02.711Z</time></trkpt><trkpt lat="44.587754" lon="9.9127438"><ele>335.79999999999995</ele><time>2026-05-02T14:06:03.711Z</time></trkpt><trkpt lat="44.587742" lon="9.9128611"><ele>337.4</ele><time>2026-05-02T14:06:04.711Z</time></trkpt><trkpt lat="44.5877321" lon="9.9129843"><ele>339.0</ele><time>2026-05-02T14:06:05.711Z</time></trkpt><trkpt lat="44.5877133" lon="9.9131035"><ele>339.0</ele><time>2026-05-02T14:06:06.711Z</time></trkpt><trkpt lat="44.5876863" lon="9.9132241"><ele>339.0</ele><time>2026-05-02T14:06:07.711Z</time></trkpt><trkpt lat="44.5876518" lon="9.9133449"><ele>339.0</ele><time>2026-05-02T14:06:08.711Z</time></trkpt><trkpt lat="44.5876117" lon="9.913458"><ele>339.0</ele><time>2026-05-02T14:06:09.712Z</time></trkpt><trkpt lat="44.5875668" lon="9.9135724"><ele>339.0</ele><time>2026-05-02T14:06:10.711Z</time></trkpt><trkpt lat="44.5875147" lon="9.9136875"><ele>341.3333333333333</ele><time>2026-05-02T14:06:11.711Z</time></trkpt><trkpt lat="44.5874624" lon="9.9138025"><ele>343.6666666666667</ele><time>2026-05-02T14:06:12.711Z</time></trkpt><trkpt lat="44.5874179" lon="9.9139063"><ele>346.0</ele><time>2026-05-02T14:06:13.711Z</time></trkpt><trkpt lat="44.5873948" lon="9.914002"><ele>348.33333333333337</ele><time>2026-05-02T14:06:14.711Z</time></trkpt><trkpt lat="44.5873552" lon="9.914095"><ele>350.6666666666667</ele><time>2026-05-02T14:06:15.711Z</time></trkpt><trkpt lat="44.5872927" lon="9.9141836"><ele>353.0</ele><time>2026-05-02T14:06:16.712Z</time></trkpt><trkpt lat="44.5872213" lon="9.9142427"><ele>355.4</ele><time>2026-05-02T14:06:17.711Z</time></trkpt><trkpt lat="44.5871715" lon="9.9144031"><ele>357.79999999999995</ele><time>2026-05-02T14:06:19.711Z</time></trkpt><trkpt lat="44.587207" lon="9.9144908"><ele>360.2</ele><time>2026-05-02T14:06:20.712Z</time></trkpt><trkpt lat="44.5872815" lon="9.9146143"><ele>362.6</ele><time>2026-05-02T14:06:22.712Z</time></trkpt><trkpt lat="44.5873891" lon="9.914621"><ele>365.0</ele><time>2026-05-02T14:06:23.712Z</time></trkpt><trkpt lat="44.587466" lon="9.9146381"><ele>365.0</ele><time>2026-05-02T14:06:24.711Z</time></trkpt><trkpt lat="44.5875507" lon="9.9146467"><ele>365.0</ele><time>2026-05-02T14:06:25.712Z</time></trkpt><trkpt lat="44.587629" lon="9.9146276"><ele>365.0</ele><time>2026-05-02T14:06:26.711Z</time></trkpt><trkpt lat="44.587709" lon="9.9146107"><ele>365.0</ele><time>2026-05-02T14:06:27.711Z</time></trkpt><trkpt lat="44.5877981" lon="9.9146"><ele>365.0</ele><time>2026-05-02T14:06:28.712Z</time></trkpt><trkpt lat="44.5878584" lon="9.9146257"><ele>365.0</ele><time>2026-05-02T14:06:29.711Z</time></trkpt><trkpt lat="44.5879706" lon="9.9146244"><ele>366.4</ele><time>2026-05-02T14:06:30.711Z</time></trkpt><trkpt lat="44.5880713" lon="9.9145975"><ele>367.8</ele><time>2026-05-02T14:06:31.711Z</time></trkpt><trkpt lat="44.5881739" lon="9.9145669"><ele>369.20000000000005</ele><time>2026-05-02T14:06:32.713Z</time></trkpt><trkpt lat="44.5882729" lon="9.9145463"><ele>370.6</ele><time>2026-05-02T14:06:33.711Z</time></trkpt><trkpt lat="44.5883696" lon="9.9145431"><ele>372.0</ele><time>2026-05-02T14:06:34.711Z</time></trkpt><trkpt lat="44.5884602" lon="9.9145729"><ele>372.0</ele><time>2026-05-02T14:06:35.711Z</time></trkpt><trkpt lat="44.588541" lon="9.9146416"><ele>372.0</ele><time>2026-05-02T14:06:36.711Z</time></trkpt><trkpt lat="44.588621" lon="9.9147299"><ele>372.0</ele><time>2026-05-02T14:06:37.712Z</time></trkpt><trkpt lat="44.5887069" lon="9.9148139"><ele>372.0</ele><time>2026-05-02T14:06:38.712Z</time></trkpt><trkpt lat="44.5888053" lon="9.914869"><ele>372.0</ele><time>2026-05-02T14:06:39.712Z</time></trkpt><trkpt lat="44.5889143" lon="9.9149019"><ele>372.6</ele><time>2026-05-02T14:06:40.711Z</time></trkpt><trkpt lat="44.589026" lon="9.914925"><ele>373.20000000000005</ele><time>2026-05-02T14:06:41.711Z</time></trkpt><trkpt lat="44.5891215" lon="9.9149303"><ele>373.8</ele><time>2026-05-02T14:06:42.711Z</time></trkpt><trkpt lat="44.5892093" lon="9.9149021"><ele>374.4</ele><time>2026-05-02T14:06:43.711Z</time></trkpt><trkpt lat="44.5892922" lon="9.9148357"><ele>375.0</ele><time>2026-05-02T14:06:44.711Z</time></trkpt><trkpt lat="44.5893661" lon="9.9147268"><ele>375.0</ele><time>2026-05-02T14:06:45.711Z</time></trkpt><trkpt lat="44.5894481" lon="9.9146085"><ele>375.0</ele><time>2026-05-02T14:06:46.711Z</time></trkpt><trkpt lat="44.5895323" lon="9.9145282"><ele>375.0</ele><time>2026-05-02T14:06:47.711Z</time></trkpt><trkpt lat="44.5896581" lon="9.9144751"><ele>375.0</ele><time>2026-05-02T14:06:48.712Z</time></trkpt><trkpt lat="44.5897677" lon="9.9144241"><ele>380.5</ele><time>2026-05-02T14:06:49.712Z</time></trkpt><trkpt lat="44.5898825" lon="9.9143879"><ele>386.0</ele><time>2026-05-02T14:06:50.711Z</time></trkpt><trkpt lat="44.5899976" lon="9.9143563"><ele>391.5</ele><time>2026-05-02T14:06:51.711Z</time></trkpt><trkpt lat="44.590114" lon="9.9143165"><ele>397.0</ele><time>2026-05-02T14:06:52.711Z</time></trkpt><trkpt lat="44.5902193" lon="9.9142696"><ele>396.40000000000003</ele><time>2026-05-02T14:06:53.711Z</time></trkpt><trkpt lat="44.5903213" lon="9.914221"><ele>395.8</ele><time>2026-05-02T14:06:54.711Z</time></trkpt><trkpt lat="44.5904146" lon="9.9141884"><ele>395.2</ele><time>2026-05-02T14:06:55.711Z</time></trkpt><trkpt lat="44.590501" lon="9.9141719"><ele>394.6</ele><time>2026-05-02T14:06:56.712Z</time></trkpt><trkpt lat="44.5905838" lon="9.9141931"><ele>394.0</ele><time>2026-05-02T14:06:57.711Z</time></trkpt><trkpt lat="44.5906554" lon="9.9142346"><ele>396.0</ele><time>2026-05-02T14:06:58.711Z</time></trkpt><trkpt lat="44.5907063" lon="9.914291"><ele>398.0</ele><time>2026-05-02T14:06:59.711Z</time></trkpt><trkpt lat="44.5907479" lon="9.9143628"><ele>400.0</ele><time>2026-05-02T14:07:00.711Z</time></trkpt><trkpt lat="44.5907706" lon="9.9145175"><ele>402.0</ele><time>2026-05-02T14:07:02.712Z</time></trkpt><trkpt lat="44.5906999" lon="9.914643"><ele>404.0</ele><time>2026-05-02T14:07:04.712Z</time></trkpt><trkpt lat="44.5906239" lon="9.9147753"><ele>404.0</ele><time>2026-05-02T14:07:06.711Z</time></trkpt><trkpt lat="44.5906193" lon="9.9149486"><ele>404.0</ele><time>2026-05-02T14:07:08.711Z</time></trkpt><trkpt lat="44.5906466" lon="9.9150624"><ele>404.0</ele><time>2026-05-02T14:07:09.71Z</time></trkpt><trkpt lat="44.5906836" lon="9.9151748"><ele>404.0</ele><time>2026-05-02T14:07:10.71Z</time></trkpt><trkpt lat="44.5907233" lon="9.9152979"><ele>404.0</ele><time>2026-05-02T14:07:11.711Z</time></trkpt><trkpt lat="44.5907604" lon="9.9154247"><ele>406.6</ele><time>2026-05-02T14:07:12.71Z</time></trkpt><trkpt lat="44.5908003" lon="9.9155562"><ele>409.2</ele><time>2026-05-02T14:07:13.711Z</time></trkpt><trkpt lat="44.5908436" lon="9.9156876"><ele>411.8</ele><time>2026-05-02T14:07:14.711Z</time></trkpt><trkpt lat="44.5908864" lon="9.9158112"><ele>414.40000000000003</ele><time>2026-05-02T14:07:15.71Z</time></trkpt><trkpt lat="44.5909277" lon="9.9159229"><ele>417.0</ele><time>2026-05-02T14:07:16.71Z</time></trkpt><trkpt lat="44.5909516" lon="9.9160182"><ele>417.0</ele><time>2026-05-02T14:07:17.71Z</time></trkpt><trkpt lat="44.5909319" lon="9.9161644"><ele>417.0</ele><time>2026-05-02T14:07:19.71Z</time></trkpt><trkpt lat="44.5908536" lon="9.9161842"><ele>417.0</ele><time>2026-05-02T14:07:21.71Z</time></trkpt><trkpt lat="44.5907687" lon="9.9161078"><ele>417.0</ele><time>2026-05-02T14:07:23.711Z</time></trkpt><trkpt lat="44.5906953" lon="9.9159781"><ele>417.0</ele><time>2026-05-02T14:07:25.71Z</time></trkpt><trkpt lat="44.5906064" lon="9.9158722"><ele>417.0</ele><time>2026-05-02T14:07:27.71Z</time></trkpt><trkpt lat="44.590509" lon="9.9158303"><ele>417.0</ele><time>2026-05-02T14:07:29.711Z</time></trkpt><trkpt lat="44.5904389" lon="9.9159181"><ele>417.0</ele><time>2026-05-02T14:07:31.711Z</time></trkpt><trkpt lat="44.5904052" lon="9.9160792"><ele>417.0</ele><time>2026-05-02T14:07:33.71Z</time></trkpt><trkpt lat="44.5904102" lon="9.916174"><ele>417.0</ele><time>2026-05-02T14:07:34.71Z</time></trkpt><trkpt lat="44.5904184" lon="9.9162659"><ele>417.0</ele><time>2026-05-02T14:07:35.71Z</time></trkpt><trkpt lat="44.5904291" lon="9.9163637"><ele>419.5</ele><time>2026-05-02T14:07:36.71Z</time></trkpt><trkpt lat="44.5904041" lon="9.9165369"><ele>422.0</ele><time>2026-05-02T14:07:38.71Z</time></trkpt><trkpt lat="44.5903818" lon="9.916678"><ele>424.5</ele><time>2026-05-02T14:07:40.71Z</time></trkpt><trkpt lat="44.5903962" lon="9.916828"><ele>427.0</ele><time>2026-05-02T14:07:42.711Z</time></trkpt><trkpt lat="44.5904073" lon="9.9170042"><ele>428.57142857142856</ele><time>2026-05-02T14:07:44.711Z</time></trkpt><trkpt lat="44.5904195" lon="9.917101"><ele>430.1428571428571</ele><time>2026-05-02T14:07:45.711Z</time></trkpt><trkpt lat="44.5904275" lon="9.9171907"><ele>431.7142857142857</ele><time>2026-05-02T14:07:46.711Z</time></trkpt><trkpt lat="44.5904336" lon="9.9172896"><ele>433.2857142857143</ele><time>2026-05-02T14:07:47.711Z</time></trkpt><trkpt lat="44.5904245" lon="9.917395"><ele>434.85714285714283</ele><time>2026-05-02T14:07:48.71Z</time></trkpt><trkpt lat="44.5904192" lon="9.9174935"><ele>436.42857142857144</ele><time>2026-05-02T14:07:49.711Z</time></trkpt><trkpt lat="44.5904023" lon="9.9176058"><ele>438.0</ele><time>2026-05-02T14:07:50.71Z</time></trkpt><trkpt lat="44.5903779" lon="9.9177238"><ele>439.14285714285717</ele><time>2026-05-02T14:07:51.711Z</time></trkpt><trkpt lat="44.5903621" lon="9.9178373"><ele>440.2857142857143</ele><time>2026-05-02T14:07:52.711Z</time></trkpt><trkpt lat="44.5903509" lon="9.9179358"><ele>441.42857142857144</ele><time>2026-05-02T14:07:53.711Z</time></trkpt><trkpt lat="44.5903328" lon="9.9180437"><ele>442.57142857142856</ele><time>2026-05-02T14:07:54.71Z</time></trkpt><trkpt lat="44.5903255" lon="9.9181393"><ele>443.71428571428567</ele><time>2026-05-02T14:07:55.71Z</time></trkpt><trkpt lat="44.5903085" lon="9.9182342"><ele>444.85714285714283</ele><time>2026-05-02T14:07:56.71Z</time></trkpt><trkpt lat="44.5902878" lon="9.9183351"><ele>446.0</ele><time>2026-05-02T14:07:57.71Z</time></trkpt><trkpt lat="44.5902541" lon="9.9184267"><ele>447.99999999999994</ele><time>2026-05-02T14:07:58.71Z</time></trkpt><trkpt lat="44.590225" lon="9.9185234"><ele>450.0</ele><time>2026-05-02T14:07:59.71Z</time></trkpt><trkpt lat="44.5901975" lon="9.9186175"><ele>452.0</ele><time>2026-05-02T14:08:00.711Z</time></trkpt><trkpt lat="44.5901652" lon="9.918728"><ele>454.0</ele><time>2026-05-02T14:08:01.71Z</time></trkpt><trkpt lat="44.5901329" lon="9.9188305"><ele>455.99999999999994</ele><time>2026-05-02T14:08:02.711Z</time></trkpt><trkpt lat="44.5900921" lon="9.918924"><ele>458.0</ele><time>2026-05-02T14:08:03.71Z</time></trkpt><trkpt lat="44.5900534" lon="9.9190245"><ele>458.0</ele><time>2026-05-02T14:08:04.711Z</time></trkpt><trkpt lat="44.5900156" lon="9.9191072"><ele>458.0</ele><time>2026-05-02T14:08:05.71Z</time></trkpt><trkpt lat="44.5899856" lon="9.9192054"><ele>458.0</ele><time>2026-05-02T14:08:06.71Z</time></trkpt><trkpt lat="44.5899577" lon="9.9192976"><ele>458.0</ele><time>2026-05-02T14:08:07.71Z</time></trkpt><trkpt lat="44.5899331" lon="9.9193907"><ele>458.0</ele><time>2026-05-02T14:08:08.711Z</time></trkpt><trkpt lat="44.5899247" lon="9.9194921"><ele>458.0</ele><time>2026-05-02T14:08:09.71Z</time></trkpt><trkpt lat="44.5899232" lon="9.9195931"><ele>458.0</ele><time>2026-05-02T14:08:10.71Z</time></trkpt><trkpt lat="44.5899128" lon="9.9196908"><ele>459.3333333333333</ele><time>2026-05-02T14:08:11.71Z</time></trkpt><trkpt lat="44.5899286" lon="9.91978"><ele>460.66666666666663</ele><time>2026-05-02T14:08:12.71Z</time></trkpt><trkpt lat="44.5899374" lon="9.9199054"><ele>462.0</ele><time>2026-05-02T14:08:14.71Z</time></trkpt><trkpt lat="44.5899416" lon="9.9200117"><ele>463.33333333333337</ele><time>2026-05-02T14:08:16.71Z</time></trkpt><trkpt lat="44.58994" lon="9.9201667"><ele>464.6666666666667</ele><time>2026-05-02T14:08:18.71Z</time></trkpt><trkpt lat="44.5899387" lon="9.9202631"><ele>466.0</ele><time>2026-05-02T14:08:19.71Z</time></trkpt><trkpt lat="44.589931" lon="9.920388"><ele>466.00000000000006</ele><time>2026-05-02T14:08:20.71Z</time></trkpt><trkpt lat="44.5899199" lon="9.9204834"><ele>466.0</ele><time>2026-05-02T14:08:21.711Z</time></trkpt><trkpt lat="44.5898788" lon="9.9206124"><ele>466.0</ele><time>2026-05-02T14:08:23.71Z</time></trkpt><trkpt lat="44.5899134" lon="9.9205165"><ele>466.0</ele><time>2026-05-02T14:08:32.711Z</time></trkpt><trkpt lat="44.589933" lon="9.9204036"><ele>466.00000000000006</ele><time>2026-05-02T14:08:34.711Z</time></trkpt><trkpt lat="44.5899531" lon="9.9202534"><ele>466.0</ele><time>2026-05-02T14:08:36.71Z</time></trkpt><trkpt lat="44.5899688" lon="9.9200453"><ele>466.00000000000006</ele><time>2026-05-02T14:08:38.71Z</time></trkpt><trkpt lat="44.5899719" lon="9.9199419"><ele>466.0</ele><time>2026-05-02T14:08:39.71Z</time></trkpt><trkpt lat="44.5899903" lon="9.9197884"><ele>466.0</ele><time>2026-05-02T14:08:41.71Z</time></trkpt><trkpt lat="44.590003" lon="9.9197016"><ele>466.0</ele><time>2026-05-02T14:08:42.711Z</time></trkpt><trkpt lat="44.5900217" lon="9.9195731"><ele>466.00000000000006</ele><time>2026-05-02T14:08:44.71Z</time></trkpt><trkpt lat="44.5900898" lon="9.9195528"><ele>466.0</ele><time>2026-05-02T14:08:48.71Z</time></trkpt><trkpt lat="44.5901395" lon="9.9196203"><ele>466.00000000000006</ele><time>2026-05-02T14:08:50.711Z</time></trkpt><trkpt lat="44.5902605" lon="9.9196295"><ele>466.0</ele><time>2026-05-02T14:08:52.711Z</time></trkpt><trkpt lat="44.5903336" lon="9.9196359"><ele>466.0</ele><time>2026-05-02T14:08:54.711Z</time></trkpt><trkpt lat="44.5903894" lon="9.9197536"><ele>466.0</ele><time>2026-05-02T14:08:56.711Z</time></trkpt><trkpt lat="44.5904018" lon="9.9198452"><ele>466.00000000000006</ele><time>2026-05-02T14:08:57.71Z</time></trkpt><trkpt lat="44.5903772" lon="9.9199552"><ele>466.0</ele><time>2026-05-02T14:08:58.71Z</time></trkpt><trkpt lat="44.590374" lon="9.9200691"><ele>470.0</ele><time>2026-05-02T14:09:00.711Z</time></trkpt><trkpt lat="44.5903746" lon="9.9201861"><ele>474.0</ele><time>2026-05-02T14:09:02.71Z</time></trkpt><trkpt lat="44.5903925" lon="9.9203062"><ele>478.0</ele><time>2026-05-02T14:09:04.71Z</time></trkpt><trkpt lat="44.5904484" lon="9.92045"><ele>482.0</ele><time>2026-05-02T14:09:06.711Z</time></trkpt><trkpt lat="44.5904891" lon="9.9206153"><ele>486.0</ele><time>2026-05-02T14:09:08.71Z</time></trkpt><trkpt lat="44.5905229" lon="9.9207669"><ele>486.0</ele><time>2026-05-02T14:09:10.711Z</time></trkpt><trkpt lat="44.5905773" lon="9.9208843"><ele>486.0</ele><time>2026-05-02T14:09:12.71Z</time></trkpt><trkpt lat="44.5906082" lon="9.9210344"><ele>486.0</ele><time>2026-05-02T14:09:14.711Z</time></trkpt><trkpt lat="44.5906761" lon="9.9211853"><ele>486.0</ele><time>2026-05-02T14:09:16.711Z</time></trkpt><trkpt lat="44.5907193" lon="9.921259"><ele>486.0</ele><time>2026-05-02T14:09:17.71Z</time></trkpt><trkpt lat="44.5907635" lon="9.9213252"><ele>486.6666666666667</ele><time>2026-05-02T14:09:18.71Z</time></trkpt><trkpt lat="44.5908117" lon="9.9213957"><ele>487.33333333333337</ele><time>2026-05-02T14:09:19.71Z</time></trkpt><trkpt lat="44.5908658" lon="9.921462"><ele>488.0</ele><time>2026-05-02T14:09:20.71Z</time></trkpt><trkpt lat="44.5909173" lon="9.9215255"><ele>488.6666666666667</ele><time>2026-05-02T14:09:21.71Z</time></trkpt><trkpt lat="44.5909955" lon="9.9216376"><ele>489.33333333333337</ele><time>2026-05-02T14:09:23.71Z</time></trkpt><trkpt lat="44.5910468" lon="9.9217625"><ele>490.0</ele><time>2026-05-02T14:09:25.71Z</time></trkpt><trkpt lat="44.591056" lon="9.9218765"><ele>491.6</ele><time>2026-05-02T14:09:27.71Z</time></trkpt><trkpt lat="44.591007" lon="9.9219946"><ele>493.2</ele><time>2026-05-02T14:09:30.71Z</time></trkpt><trkpt lat="44.5909488" lon="9.9221039"><ele>494.79999999999995</ele><time>2026-05-02T14:09:32.71Z</time></trkpt><trkpt lat="44.5909008" lon="9.9222383"><ele>496.4</ele><time>2026-05-02T14:09:34.71Z</time></trkpt><trkpt lat="44.5908854" lon="9.922325"><ele>498.0</ele><time>2026-05-02T14:09:35.711Z</time></trkpt><trkpt lat="44.5908303" lon="9.9224683"><ele>498.0</ele><time>2026-05-02T14:09:37.71Z</time></trkpt><trkpt lat="44.5907873" lon="9.9226065"><ele>498.0</ele><time>2026-05-02T14:09:39.71Z</time></trkpt><trkpt lat="44.5907816" lon="9.9227147"><ele>498.0</ele><time>2026-05-02T14:09:42.71Z</time></trkpt><trkpt lat="44.5908443" lon="9.9226974"><ele>498.0</ele><time>2026-05-02T14:09:44.711Z</time></trkpt><trkpt lat="44.5909282" lon="9.9226469"><ele>498.0</ele><time>2026-05-02T14:09:46.71Z</time></trkpt><trkpt lat="44.5910115" lon="9.9226034"><ele>498.0</ele><time>2026-05-02T14:09:49.71Z</time></trkpt><trkpt lat="44.5910713" lon="9.9225486"><ele>498.0</ele><time>2026-05-02T14:09:52.711Z</time></trkpt><trkpt lat="44.5911155" lon="9.9224774"><ele>497.99999999999994</ele><time>2026-05-02T14:10:00.71Z</time></trkpt><trkpt lat="44.5912184" lon="9.9224366"><ele>497.99999999999994</ele><time>2026-05-02T14:10:02.71Z</time></trkpt><trkpt lat="44.5913227" lon="9.9224359"><ele>498.0</ele><time>2026-05-02T14:10:04.71Z</time></trkpt><trkpt lat="44.5914152" lon="9.9225204"><ele>498.0</ele><time>2026-05-02T14:10:06.711Z</time></trkpt><trkpt lat="44.5913967" lon="9.9226485"><ele>503.0</ele><time>2026-05-02T14:10:07.71Z</time></trkpt><trkpt lat="44.5914357" lon="9.9227976"><ele>508.0</ele><time>2026-05-02T14:10:09.711Z</time></trkpt><trkpt lat="44.5914493" lon="9.922899"><ele>513.0</ele><time>2026-05-02T14:10:10.71Z</time></trkpt><trkpt lat="44.5914438" lon="9.9230022"><ele>518.0</ele><time>2026-05-02T14:10:11.711Z</time></trkpt><trkpt lat="44.5914421" lon="9.9230984"><ele>523.0</ele><time>2026-05-02T14:10:12.71Z</time></trkpt><trkpt lat="44.5914545" lon="9.9231852"><ele>528.0</ele><time>2026-05-02T14:10:13.71Z</time></trkpt><trkpt lat="44.5914568" lon="9.9232793"><ele>528.0</ele><time>2026-05-02T14:10:14.71Z</time></trkpt><trkpt lat="44.5914225" lon="9.9233618"><ele>528.0</ele><time>2026-05-02T14:10:15.71Z</time></trkpt><trkpt lat="44.5913816" lon="9.9234322"><ele>528.0</ele><time>2026-05-02T14:10:16.71Z</time></trkpt><trkpt lat="44.5913012" lon="9.9235444"><ele>528.0</ele><time>2026-05-02T14:10:18.71Z</time></trkpt><trkpt lat="44.5912514" lon="9.9236664"><ele>528.0</ele><time>2026-05-02T14:10:20.71Z</time></trkpt><trkpt lat="44.591222" lon="9.9238125"><ele>529.4</ele><time>2026-05-02T14:10:22.711Z</time></trkpt><trkpt lat="44.5912122" lon="9.9239303"><ele>530.8</ele><time>2026-05-02T14:10:24.711Z</time></trkpt><trkpt lat="44.5913009" lon="9.9239865"><ele>532.2</ele><time>2026-05-02T14:10:27.71Z</time></trkpt><trkpt lat="44.59137" lon="9.9239621"><ele>533.6</ele><time>2026-05-02T14:10:29.71Z</time></trkpt><trkpt lat="44.5914788" lon="9.923953"><ele>535.0</ele><time>2026-05-02T14:10:31.71Z</time></trkpt><trkpt lat="44.5915967" lon="9.9239365"><ele>535.0</ele><time>2026-05-02T14:10:33.71Z</time></trkpt><trkpt lat="44.5916597" lon="9.9239312"><ele>535.0</ele><time>2026-05-02T14:10:34.71Z</time></trkpt><trkpt lat="44.5917593" lon="9.9239304"><ele>535.0</ele><time>2026-05-02T14:10:36.711Z</time></trkpt><trkpt lat="44.5918346" lon="9.9239794"><ele>535.0</ele><time>2026-05-02T14:10:38.71Z</time></trkpt><trkpt lat="44.5918075" lon="9.924119"><ele>535.0</ele><time>2026-05-02T14:10:40.71Z</time></trkpt><trkpt lat="44.591766" lon="9.9242448"><ele>535.0</ele><time>2026-05-02T14:10:42.71Z</time></trkpt><trkpt lat="44.591753" lon="9.9243681"><ele>533.8</ele><time>2026-05-02T14:10:44.71Z</time></trkpt><trkpt lat="44.5917805" lon="9.9244503"><ele>532.6</ele><time>2026-05-02T14:10:46.711Z</time></trkpt><trkpt lat="44.5918294" lon="9.9245207"><ele>531.4</ele><time>2026-05-02T14:10:52.71Z</time></trkpt><trkpt lat="44.5919201" lon="9.9246364"><ele>530.2</ele><time>2026-05-02T14:10:54.71Z</time></trkpt><trkpt lat="44.5920038" lon="9.9246938"><ele>529.0</ele><time>2026-05-02T14:10:56.71Z</time></trkpt><trkpt lat="44.5921094" lon="9.9247003"><ele>532.5714285714286</ele><time>2026-05-02T14:10:58.71Z</time></trkpt><trkpt lat="44.5921685" lon="9.9246415"><ele>536.1428571428571</ele><time>2026-05-02T14:10:59.71Z</time></trkpt><trkpt lat="44.5922158" lon="9.9245829"><ele>539.7142857142857</ele><time>2026-05-02T14:11:00.71Z</time></trkpt><trkpt lat="44.5922711" lon="9.9245236"><ele>543.2857142857142</ele><time>2026-05-02T14:11:01.71Z</time></trkpt><trkpt lat="44.5923321" lon="9.9244875"><ele>546.8571428571428</ele><time>2026-05-02T14:11:03.711Z</time></trkpt><trkpt lat="44.5924005" lon="9.9244975"><ele>550.4285714285714</ele><time>2026-05-02T14:11:06.71Z</time></trkpt><trkpt lat="44.5924924" lon="9.9244932"><ele>554.0</ele><time>2026-05-02T14:11:08.71Z</time></trkpt><trkpt lat="44.5926011" lon="9.9245048"><ele>554.0</ele><time>2026-05-02T14:11:10.71Z</time></trkpt><trkpt lat="44.5927099" lon="9.9245794"><ele>554.0</ele><time>2026-05-02T14:11:12.711Z</time></trkpt><trkpt lat="44.592772" lon="9.9246055"><ele>554.0</ele><time>2026-05-02T14:11:13.71Z</time></trkpt><trkpt lat="44.592888" lon="9.924603"><ele>554.0</ele><time>2026-05-02T14:11:15.71Z</time></trkpt><trkpt lat="44.5929528" lon="9.9245972"><ele>554.0</ele><time>2026-05-02T14:11:16.71Z</time></trkpt><trkpt lat="44.5930389" lon="9.924543"><ele>557.1666666666666</ele><time>2026-05-02T14:11:17.711Z</time></trkpt><trkpt lat="44.5931173" lon="9.9245161"><ele>560.3333333333333</ele><time>2026-05-02T14:11:18.71Z</time></trkpt><trkpt lat="44.5931993" lon="9.9244934"><ele>563.5</ele><time>2026-05-02T14:11:19.71Z</time></trkpt><trkpt lat="44.5932746" lon="9.9244915"><ele>566.6666666666666</ele><time>2026-05-02T14:11:20.711Z</time></trkpt><trkpt lat="44.5933472" lon="9.9244871"><ele>569.8333333333334</ele><time>2026-05-02T14:11:21.71Z</time></trkpt><trkpt lat="44.5934222" lon="9.9244804"><ele>573.0</ele><time>2026-05-02T14:11:22.71Z</time></trkpt><trkpt lat="44.5934973" lon="9.9244728"><ele>573.0</ele><time>2026-05-02T14:11:23.71Z</time></trkpt><trkpt lat="44.5935726" lon="9.9244774"><ele>573.0</ele><time>2026-05-02T14:11:24.71Z</time></trkpt><trkpt lat="44.5936529" lon="9.9244524"><ele>573.0</ele><time>2026-05-02T14:11:25.71Z</time></trkpt><trkpt lat="44.593733" lon="9.9244293"><ele>573.0</ele><time>2026-05-02T14:11:26.71Z</time></trkpt><trkpt lat="44.593808" lon="9.9244057"><ele>573.0</ele><time>2026-05-02T14:11:27.71Z</time></trkpt><trkpt lat="44.5938761" lon="9.9243874"><ele>573.0</ele><time>2026-05-02T14:11:28.71Z</time></trkpt><trkpt lat="44.5939465" lon="9.9243657"><ele>575.6666666666666</ele><time>2026-05-02T14:11:29.71Z</time></trkpt><trkpt lat="44.5940131" lon="9.9243242"><ele>578.3333333333334</ele><time>2026-05-02T14:11:30.71Z</time></trkpt><trkpt lat="44.5940755" lon="9.9242905"><ele>581.0</ele><time>2026-05-02T14:11:31.711Z</time></trkpt><trkpt lat="44.5941496" lon="9.9242119"><ele>583.6666666666667</ele><time>2026-05-02T14:11:32.71Z</time></trkpt><trkpt lat="44.5942055" lon="9.9241428"><ele>586.3333333333334</ele><time>2026-05-02T14:11:33.71Z</time></trkpt><trkpt lat="44.5942691" lon="9.9240698"><ele>589.0</ele><time>2026-05-02T14:11:34.71Z</time></trkpt><trkpt lat="44.5943191" lon="9.9240059"><ele>589.0</ele><time>2026-05-02T14:11:35.71Z</time></trkpt><trkpt lat="44.5943681" lon="9.9239264"><ele>589.0</ele><time>2026-05-02T14:11:36.71Z</time></trkpt><trkpt lat="44.5944253" lon="9.9238523"><ele>589.0</ele><time>2026-05-02T14:11:37.71Z</time></trkpt><trkpt lat="44.5944996" lon="9.923802"><ele>589.0</ele><time>2026-05-02T14:11:38.71Z</time></trkpt><trkpt lat="44.594608" lon="9.9237044"><ele>589.0</ele><time>2026-05-02T14:11:40.71Z</time></trkpt><trkpt lat="44.5946705" lon="9.9236529"><ele>589.0</ele><time>2026-05-02T14:11:41.71Z</time></trkpt><trkpt lat="44.5947942" lon="9.9237088"><ele>591.1666666666667</ele><time>2026-05-02T14:11:43.71Z</time></trkpt><trkpt lat="44.5948812" lon="9.9238343"><ele>593.3333333333334</ele><time>2026-05-02T14:11:45.71Z</time></trkpt><trkpt lat="44.5949055" lon="9.9239514"><ele>595.5</ele><time>2026-05-02T14:11:46.71Z</time></trkpt><trkpt lat="44.5949289" lon="9.9240504"><ele>597.6666666666666</ele><time>2026-05-02T14:11:47.71Z</time></trkpt><trkpt lat="44.5949385" lon="9.92416"><ele>599.8333333333333</ele><time>2026-05-02T14:11:48.71Z</time></trkpt><trkpt lat="44.5949502" lon="9.9242765"><ele>602.0</ele><time>2026-05-02T14:11:49.71Z</time></trkpt><trkpt lat="44.5949494" lon="9.9243849"><ele>604.1666666666666</ele><time>2026-05-02T14:11:50.71Z</time></trkpt><trkpt lat="44.5949893" lon="9.9245496"><ele>606.3333333333333</ele><time>2026-05-02T14:11:52.71Z</time></trkpt><trkpt lat="44.5950289" lon="9.924622"><ele>608.5</ele><time>2026-05-02T14:11:53.71Z</time></trkpt><trkpt lat="44.5950882" lon="9.9247074"><ele>610.6666666666666</ele><time>2026-05-02T14:11:54.71Z</time></trkpt><trkpt lat="44.5951414" lon="9.9247815"><ele>612.8333333333334</ele><time>2026-05-02T14:11:55.711Z</time></trkpt><trkpt lat="44.5951906" lon="9.9248599"><ele>615.0</ele><time>2026-05-02T14:11:56.71Z</time></trkpt><trkpt lat="44.5952293" lon="9.9249429"><ele>615.0</ele><time>2026-05-02T14:11:57.71Z</time></trkpt><trkpt lat="44.5952005" lon="9.9250582"><ele>615.0</ele><time>2026-05-02T14:11:58.71Z</time></trkpt><trkpt lat="44.595191" lon="9.9251795"><ele>615.0</ele><time>2026-05-02T14:11:59.711Z</time></trkpt><trkpt lat="44.5951716" lon="9.9253039"><ele>615.0</ele><time>2026-05-02T14:12:00.71Z</time></trkpt><trkpt lat="44.5951668" lon="9.9254021"><ele>615.0</ele><time>2026-05-02T14:12:01.71Z</time></trkpt><trkpt lat="44.5952229" lon="9.9255134"><ele>615.0</ele><time>2026-05-02T14:12:03.71Z</time></trkpt><trkpt lat="44.5953268" lon="9.9254677"><ele>619.1428571428571</ele><time>2026-05-02T14:12:05.712Z</time></trkpt><trkpt lat="44.5953896" lon="9.9254269"><ele>623.2857142857143</ele><time>2026-05-02T14:12:06.71Z</time></trkpt><trkpt lat="44.5954553" lon="9.9253843"><ele>627.4285714285714</ele><time>2026-05-02T14:12:07.71Z</time></trkpt><trkpt lat="44.5955316" lon="9.9253854"><ele>631.5714285714286</ele><time>2026-05-02T14:12:08.711Z</time></trkpt><trkpt lat="44.59558" lon="9.925454"><ele>635.7142857142858</ele><time>2026-05-02T14:12:09.71Z</time></trkpt><trkpt lat="44.5956311" lon="9.9255119"><ele>639.8571428571429</ele><time>2026-05-02T14:12:10.71Z</time></trkpt><trkpt lat="44.5956741" lon="9.925579"><ele>644.0</ele><time>2026-05-02T14:12:11.71Z</time></trkpt><trkpt lat="44.5957163" lon="9.9256617"><ele>644.0</ele><time>2026-05-02T14:12:12.711Z</time></trkpt><trkpt lat="44.5957619" lon="9.9258091"><ele>644.0</ele><time>2026-05-02T14:12:14.711Z</time></trkpt><trkpt lat="44.5958564" lon="9.9258504"><ele>644.0</ele><time>2026-05-02T14:12:16.71Z</time></trkpt><trkpt lat="44.5958977" lon="9.9257694"><ele>644.0</ele><time>2026-05-02T14:12:19.71Z</time></trkpt><trkpt lat="44.595966" lon="9.9256895"><ele>644.0</ele><time>2026-05-02T14:12:34.71Z</time></trkpt><trkpt lat="44.5960222" lon="9.9255977"><ele>644.0</ele><time>2026-05-02T14:12:36.711Z</time></trkpt><trkpt lat="44.596093" lon="9.9254875"><ele>644.0</ele><time>2026-05-02T14:12:38.711Z</time></trkpt><trkpt lat="44.596156" lon="9.9253982"><ele>644.0</ele><time>2026-05-02T14:12:40.71Z</time></trkpt><trkpt lat="44.5962262" lon="9.9252681"><ele>644.0</ele><time>2026-05-02T14:12:42.71Z</time></trkpt><trkpt lat="44.5962957" lon="9.9251134"><ele>644.0</ele><time>2026-05-02T14:12:44.711Z</time></trkpt><trkpt lat="44.5963349" lon="9.9250328"><ele>645.5</ele><time>2026-05-02T14:12:45.71Z</time></trkpt><trkpt lat="44.5963697" lon="9.9249418"><ele>647.0</ele><time>2026-05-02T14:12:46.71Z</time></trkpt><trkpt lat="44.5964042" lon="9.9248457"><ele>648.5</ele><time>2026-05-02T14:12:47.711Z</time></trkpt><trkpt lat="44.5964509" lon="9.9247604"><ele>650.0</ele><time>2026-05-02T14:12:48.71Z</time></trkpt><trkpt lat="44.5964988" lon="9.9246784"><ele>651.5</ele><time>2026-05-02T14:12:49.71Z</time></trkpt><trkpt lat="44.5965564" lon="9.9246066"><ele>653.0</ele><time>2026-05-02T14:12:50.711Z</time></trkpt><trkpt lat="44.5966254" lon="9.924559"><ele>653.0</ele><time>2026-05-02T14:12:51.71Z</time></trkpt><trkpt lat="44.5967093" lon="9.9245045"><ele>653.0</ele><time>2026-05-02T14:12:52.71Z</time></trkpt><trkpt lat="44.5967845" lon="9.9244907"><ele>653.0</ele><time>2026-05-02T14:12:53.711Z</time></trkpt><trkpt lat="44.5968584" lon="9.9244436"><ele>653.0</ele><time>2026-05-02T14:12:54.71Z</time></trkpt><trkpt lat="44.5969232" lon="9.9243809"><ele>653.0</ele><time>2026-05-02T14:12:55.71Z</time></trkpt><trkpt lat="44.5969708" lon="9.9243097"><ele>653.0</ele><time>2026-05-02T14:12:56.71Z</time></trkpt><trkpt lat="44.5970118" lon="9.9242296"><ele>653.6666666666666</ele><time>2026-05-02T14:12:57.711Z</time></trkpt><trkpt lat="44.5970493" lon="9.9241419"><ele>654.3333333333333</ele><time>2026-05-02T14:12:58.71Z</time></trkpt><trkpt lat="44.5970826" lon="9.9240528"><ele>655.0</ele><time>2026-05-02T14:12:59.711Z</time></trkpt><trkpt lat="44.5971206" lon="9.9239817"><ele>655.6666666666666</ele><time>2026-05-02T14:13:00.71Z</time></trkpt><trkpt lat="44.597166" lon="9.9239142"><ele>656.3333333333334</ele><time>2026-05-02T14:13:01.71Z</time></trkpt><trkpt lat="44.5972546" lon="9.923813"><ele>657.0</ele><time>2026-05-02T14:13:03.71Z</time></trkpt><trkpt lat="44.5973194" lon="9.9237864"><ele>657.0</ele><time>2026-05-02T14:13:04.711Z</time></trkpt><trkpt lat="44.5973873" lon="9.9237796"><ele>657.0</ele><time>2026-05-02T14:13:05.71Z</time></trkpt><trkpt lat="44.5974621" lon="9.9237808"><ele>657.0</ele><time>2026-05-02T14:13:06.71Z</time></trkpt><trkpt lat="44.5975433" lon="9.9237887"><ele>657.0</ele><time>2026-05-02T14:13:07.711Z</time></trkpt><trkpt lat="44.5976255" lon="9.9238037"><ele>657.0</ele><time>2026-05-02T14:13:08.711Z</time></trkpt><trkpt lat="44.5977061" lon="9.9238241"><ele>657.0</ele><time>2026-05-02T14:13:09.71Z</time></trkpt><trkpt lat="44.5977915" lon="9.9238499"><ele>657.4000000000001</ele><time>2026-05-02T14:13:10.71Z</time></trkpt><trkpt lat="44.5978802" lon="9.9238754"><ele>657.8000000000001</ele><time>2026-05-02T14:13:11.711Z</time></trkpt><trkpt lat="44.597969" lon="9.9238902"><ele>658.2</ele><time>2026-05-02T14:13:12.71Z</time></trkpt><trkpt lat="44.5980637" lon="9.9238912"><ele>658.6</ele><time>2026-05-02T14:13:13.71Z</time></trkpt><trkpt lat="44.5981537" lon="9.9238862"><ele>659.0</ele><time>2026-05-02T14:13:14.71Z</time></trkpt><trkpt lat="44.5982444" lon="9.9238731"><ele>659.0</ele><time>2026-05-02T14:13:15.71Z</time></trkpt><trkpt lat="44.5983349" lon="9.9238585"><ele>659.0</ele><time>2026-05-02T14:13:16.71Z</time></trkpt><trkpt lat="44.5984275" lon="9.9238568"><ele>659.0</ele><time>2026-05-02T14:13:17.71Z</time></trkpt><trkpt lat="44.5985204" lon="9.9238607"><ele>659.0</ele><time>2026-05-02T14:13:18.711Z</time></trkpt><trkpt lat="44.5986123" lon="9.9238771"><ele>659.0</ele><time>2026-05-02T14:13:19.71Z</time></trkpt><trkpt lat="44.5987001" lon="9.9239149"><ele>659.8000000000001</ele><time>2026-05-02T14:13:20.71Z</time></trkpt><trkpt lat="44.5987867" lon="9.9239742"><ele>660.6</ele><time>2026-05-02T14:13:21.712Z</time></trkpt><trkpt lat="44.5988754" lon="9.9240396"><ele>661.4</ele><time>2026-05-02T14:13:22.71Z</time></trkpt><trkpt lat="44.5989676" lon="9.9241017"><ele>662.2</ele><time>2026-05-02T14:13:23.711Z</time></trkpt><trkpt lat="44.5990606" lon="9.924148"><ele>663.0</ele><time>2026-05-02T14:13:24.71Z</time></trkpt><trkpt lat="44.599155" lon="9.9241768"><ele>663.0</ele><time>2026-05-02T14:13:25.71Z</time></trkpt><trkpt lat="44.5992466" lon="9.9241813"><ele>663.0</ele><time>2026-05-02T14:13:26.71Z</time></trkpt><trkpt lat="44.599335" lon="9.9241714"><ele>663.0</ele><time>2026-05-02T14:13:27.71Z</time></trkpt><trkpt lat="44.599418" lon="9.9241674"><ele>663.0</ele><time>2026-05-02T14:13:28.709Z</time></trkpt><trkpt lat="44.5994848" lon="9.9241778"><ele>663.0</ele><time>2026-05-02T14:13:29.709Z</time></trkpt><trkpt lat="44.5995351" lon="9.9242448"><ele>663.0</ele><time>2026-05-02T14:13:31.71Z</time></trkpt><trkpt lat="44.5994717" lon="9.9243568"><ele>666.1666666666666</ele><time>2026-05-02T14:13:34.709Z</time></trkpt><trkpt lat="44.5993676" lon="9.9244243"><ele>669.3333333333334</ele><time>2026-05-02T14:13:36.709Z</time></trkpt><trkpt lat="44.5993117" lon="9.9244741"><ele>672.5</ele><time>2026-05-02T14:13:37.709Z</time></trkpt><trkpt lat="44.5992525" lon="9.9245394"><ele>675.6666666666667</ele><time>2026-05-02T14:13:38.709Z</time></trkpt><trkpt lat="44.5991924" lon="9.9246002"><ele>678.8333333333334</ele><time>2026-05-02T14:13:39.709Z</time></trkpt><trkpt lat="44.5991332" lon="9.9246654"><ele>682.0</ele><time>2026-05-02T14:13:40.709Z</time></trkpt><trkpt lat="44.5990688" lon="9.9247381"><ele>682.0</ele><time>2026-05-02T14:13:41.709Z</time></trkpt><trkpt lat="44.5990048" lon="9.9248147"><ele>682.0</ele><time>2026-05-02T14:13:42.71Z</time></trkpt><trkpt lat="44.5989328" lon="9.9248846"><ele>682.0</ele><time>2026-05-02T14:13:43.709Z</time></trkpt><trkpt lat="44.5988581" lon="9.9249562"><ele>682.0</ele><time>2026-05-02T14:13:44.709Z</time></trkpt><trkpt lat="44.5987863" lon="9.9250346"><ele>682.0</ele><time>2026-05-02T14:13:45.709Z</time></trkpt><trkpt lat="44.598714" lon="9.9251181"><ele>682.0</ele><time>2026-05-02T14:13:46.709Z</time></trkpt><trkpt lat="44.5986407" lon="9.9252091"><ele>682.8</ele><time>2026-05-02T14:13:47.709Z</time></trkpt><trkpt lat="44.5985622" lon="9.9252956"><ele>683.6</ele><time>2026-05-02T14:13:48.709Z</time></trkpt><trkpt lat="44.5984835" lon="9.9253821"><ele>684.4</ele><time>2026-05-02T14:13:49.709Z</time></trkpt><trkpt lat="44.5984035" lon="9.9254753"><ele>685.1999999999999</ele><time>2026-05-02T14:13:50.71Z</time></trkpt><trkpt lat="44.5983212" lon="9.9255707"><ele>686.0</ele><time>2026-05-02T14:13:51.709Z</time></trkpt><trkpt lat="44.5982443" lon="9.9256631"><ele>686.0</ele><time>2026-05-02T14:13:52.709Z</time></trkpt><trkpt lat="44.5981683" lon="9.9257506"><ele>686.0</ele><time>2026-05-02T14:13:53.71Z</time></trkpt><trkpt lat="44.5980954" lon="9.9258434"><ele>686.0</ele><time>2026-05-02T14:13:54.709Z</time></trkpt><trkpt lat="44.5980269" lon="9.9259371"><ele>686.0</ele><time>2026-05-02T14:13:55.709Z</time></trkpt><trkpt lat="44.5979704" lon="9.9260402"><ele>686.0</ele><time>2026-05-02T14:13:56.709Z</time></trkpt><trkpt lat="44.5979266" lon="9.9261502"><ele>688.4</ele><time>2026-05-02T14:13:57.709Z</time></trkpt><trkpt lat="44.5979056" lon="9.9262809"><ele>690.8</ele><time>2026-05-02T14:13:58.71Z</time></trkpt><trkpt lat="44.5978936" lon="9.9264162"><ele>693.1999999999999</ele><time>2026-05-02T14:13:59.709Z</time></trkpt><trkpt lat="44.5978804" lon="9.9265534"><ele>695.5999999999999</ele><time>2026-05-02T14:14:00.709Z</time></trkpt><trkpt lat="44.5978655" lon="9.9266938"><ele>698.0</ele><time>2026-05-02T14:14:01.709Z</time></trkpt><trkpt lat="44.5978502" lon="9.9268379"><ele>699.0</ele><time>2026-05-02T14:14:02.71Z</time></trkpt><trkpt lat="44.5978357" lon="9.9269869"><ele>700.0</ele><time>2026-05-02T14:14:03.71Z</time></trkpt><trkpt lat="44.597818" lon="9.9271328"><ele>701.0</ele><time>2026-05-02T14:14:04.709Z</time></trkpt><trkpt lat="44.5978055" lon="9.9272779"><ele>702.0</ele><time>2026-05-02T14:14:05.709Z</time></trkpt><trkpt lat="44.5977946" lon="9.9274171"><ele>703.0</ele><time>2026-05-02T14:14:06.709Z</time></trkpt><trkpt lat="44.5977949" lon="9.9275538"><ele>702.5999999999999</ele><time>2026-05-02T14:14:07.709Z</time></trkpt><trkpt lat="44.5978298" lon="9.9276902"><ele>702.1999999999999</ele><time>2026-05-02T14:14:08.709Z</time></trkpt><trkpt lat="44.5978875" lon="9.9278223"><ele>701.8</ele><time>2026-05-02T14:14:09.709Z</time></trkpt><trkpt lat="44.597954" lon="9.9279565"><ele>701.4</ele><time>2026-05-02T14:14:10.709Z</time></trkpt><trkpt lat="44.5980147" lon="9.9281003"><ele>701.0</ele><time>2026-05-02T14:14:11.709Z</time></trkpt><trkpt lat="44.5980677" lon="9.9282551"><ele>700.0</ele><time>2026-05-02T14:14:12.71Z</time></trkpt><trkpt lat="44.5981063" lon="9.9284119"><ele>699.0</ele><time>2026-05-02T14:14:13.711Z</time></trkpt><trkpt lat="44.5981325" lon="9.9285677"><ele>698.0</ele><time>2026-05-02T14:14:14.709Z</time></trkpt><trkpt lat="44.5981474" lon="9.9287248"><ele>697.0</ele><time>2026-05-02T14:14:15.709Z</time></trkpt><trkpt lat="44.5981551" lon="9.9288797"><ele>697.0</ele><time>2026-05-02T14:14:16.709Z</time></trkpt><trkpt lat="44.5981615" lon="9.9290315"><ele>697.0</ele><time>2026-05-02T14:14:17.709Z</time></trkpt><trkpt lat="44.5981703" lon="9.929179"><ele>697.0</ele><time>2026-05-02T14:14:18.709Z</time></trkpt><trkpt lat="44.5981829" lon="9.9293208"><ele>697.0</ele><time>2026-05-02T14:14:19.709Z</time></trkpt><trkpt lat="44.5981905" lon="9.9294451"><ele>697.0</ele><time>2026-05-02T14:14:20.71Z</time></trkpt><trkpt lat="44.5982019" lon="9.9295429"><ele>697.0</ele><time>2026-05-02T14:14:21.709Z</time></trkpt><trkpt lat="44.5982063" lon="9.9296433"><ele>697.0</ele><time>2026-05-02T14:14:23.709Z</time></trkpt><trkpt lat="44.5982061" lon="9.9295482"><ele>697.0</ele><time>2026-05-02T14:14:38.709Z</time></trkpt><trkpt lat="44.5981849" lon="9.9294096"><ele>697.0</ele><time>2026-05-02T14:14:40.709Z</time></trkpt><trkpt lat="44.5981677" lon="9.9292776"><ele>697.0</ele><time>2026-05-02T14:14:42.709Z</time></trkpt><trkpt lat="44.5981579" lon="9.9291547"><ele>697.0</ele><time>2026-05-02T14:14:44.709Z</time></trkpt><trkpt lat="44.5981504" lon="9.9290621"><ele>697.0</ele><time>2026-05-02T14:15:05.709Z</time></trkpt><trkpt lat="44.5981225" lon="9.9289663"><ele>697.0</ele><time>2026-05-02T14:15:08.709Z</time></trkpt><trkpt lat="44.5981791" lon="9.9290095"><ele>697.0</ele><time>2026-05-02T14:15:11.709Z</time></trkpt><trkpt lat="44.598169" lon="9.9290968"><ele>697.0</ele><time>2026-05-02T14:15:12.709Z</time></trkpt><trkpt lat="44.5981671" lon="9.9291874"><ele>697.0</ele><time>2026-05-02T14:15:13.709Z</time></trkpt><trkpt lat="44.5981703" lon="9.9292897"><ele>697.0</ele><time>2026-05-02T14:15:14.71Z</time></trkpt><trkpt lat="44.5981762" lon="9.9293972"><ele>697.0</ele><time>2026-05-02T14:15:15.709Z</time></trkpt><trkpt lat="44.5981924" lon="9.9295071"><ele>695.6666666666667</ele><time>2026-05-02T14:15:16.71Z</time></trkpt><trkpt lat="44.5982079" lon="9.9296103"><ele>694.3333333333334</ele><time>2026-05-02T14:15:17.709Z</time></trkpt><trkpt lat="44.598236" lon="9.9297049"><ele>693.0</ele><time>2026-05-02T14:15:18.709Z</time></trkpt><trkpt lat="44.5982652" lon="9.9297994"><ele>691.6666666666666</ele><time>2026-05-02T14:15:19.709Z</time></trkpt><trkpt lat="44.5983066" lon="9.9298919"><ele>690.3333333333333</ele><time>2026-05-02T14:15:20.709Z</time></trkpt><trkpt lat="44.5983635" lon="9.9299782"><ele>689.0</ele><time>2026-05-02T14:15:21.71Z</time></trkpt><trkpt lat="44.5984207" lon="9.930065"><ele>689.2</ele><time>2026-05-02T14:15:22.709Z</time></trkpt><trkpt lat="44.5984782" lon="9.9301527"><ele>689.4000000000001</ele><time>2026-05-02T14:15:23.71Z</time></trkpt><trkpt lat="44.5985425" lon="9.9302449"><ele>689.6</ele><time>2026-05-02T14:15:24.709Z</time></trkpt><trkpt lat="44.5986118" lon="9.9303427"><ele>689.8</ele><time>2026-05-02T14:15:25.71Z</time></trkpt><trkpt lat="44.5986776" lon="9.9304491"><ele>690.0</ele><time>2026-05-02T14:15:26.709Z</time></trkpt><trkpt lat="44.5987443" lon="9.9305578"><ele>690.0</ele><time>2026-05-02T14:15:27.711Z</time></trkpt><trkpt lat="44.598816" lon="9.9306534"><ele>690.0</ele><time>2026-05-02T14:15:28.71Z</time></trkpt><trkpt lat="44.5988948" lon="9.9307327"><ele>690.0</ele><time>2026-05-02T14:15:29.709Z</time></trkpt><trkpt lat="44.5989861" lon="9.9308097"><ele>690.0</ele><time>2026-05-02T14:15:30.709Z</time></trkpt><trkpt lat="44.5990813" lon="9.9308835"><ele>690.0</ele><time>2026-05-02T14:15:31.709Z</time></trkpt><trkpt lat="44.5991744" lon="9.930968"><ele>689.2</ele><time>2026-05-02T14:15:32.709Z</time></trkpt><trkpt lat="44.5992684" lon="9.9310528"><ele>688.4</ele><time>2026-05-02T14:15:33.709Z</time></trkpt><trkpt lat="44.5993518" lon="9.9311545"><ele>687.5999999999999</ele><time>2026-05-02T14:15:34.71Z</time></trkpt><trkpt lat="44.5994201" lon="9.9312686"><ele>686.8</ele><time>2026-05-02T14:15:35.709Z</time></trkpt><trkpt lat="44.599473" lon="9.9314195"><ele>686.0</ele><time>2026-05-02T14:15:36.71Z</time></trkpt><trkpt lat="44.5995305" lon="9.9315388"><ele>686.0</ele><time>2026-05-02T14:15:37.709Z</time></trkpt><trkpt lat="44.5996027" lon="9.9316539"><ele>686.0</ele><time>2026-05-02T14:15:38.71Z</time></trkpt><trkpt lat="44.5996856" lon="9.9317604"><ele>686.0</ele><time>2026-05-02T14:15:39.709Z</time></trkpt><trkpt lat="44.5997729" lon="9.9318596"><ele>686.0</ele><time>2026-05-02T14:15:40.71Z</time></trkpt><trkpt lat="44.5998694" lon="9.9319439"><ele>686.0</ele><time>2026-05-02T14:15:41.709Z</time></trkpt><trkpt lat="44.59997" lon="9.9320111"><ele>683.0</ele><time>2026-05-02T14:15:42.71Z</time></trkpt><trkpt lat="44.6000827" lon="9.932059"><ele>680.0</ele><time>2026-05-02T14:15:43.709Z</time></trkpt><trkpt lat="44.6001981" lon="9.9321017"><ele>677.0</ele><time>2026-05-02T14:15:44.71Z</time></trkpt><trkpt lat="44.6003134" lon="9.932137"><ele>674.0</ele><time>2026-05-02T14:15:45.709Z</time></trkpt><trkpt lat="44.6004205" lon="9.9321645"><ele>674.0</ele><time>2026-05-02T14:15:46.709Z</time></trkpt><trkpt lat="44.6005222" lon="9.9322047"><ele>674.0</ele><time>2026-05-02T14:15:47.709Z</time></trkpt><trkpt lat="44.6006149" lon="9.9322655"><ele>674.0</ele><time>2026-05-02T14:15:48.709Z</time></trkpt><trkpt lat="44.600695" lon="9.9323386"><ele>674.0</ele><time>2026-05-02T14:15:49.71Z</time></trkpt><trkpt lat="44.6007616" lon="9.9324364"><ele>674.0</ele><time>2026-05-02T14:15:50.709Z</time></trkpt><trkpt lat="44.6008464" lon="9.9324928"><ele>674.0</ele><time>2026-05-02T14:15:51.71Z</time></trkpt><trkpt lat="44.6009444" lon="9.9325384"><ele>674.0</ele><time>2026-05-02T14:15:52.709Z</time></trkpt><trkpt lat="44.6010395" lon="9.9325618"><ele>674.0</ele><time>2026-05-02T14:15:53.709Z</time></trkpt><trkpt lat="44.6011508" lon="9.9325748"><ele>674.0</ele><time>2026-05-02T14:15:54.709Z</time></trkpt><trkpt lat="44.6012562" lon="9.9325965"><ele>674.0</ele><time>2026-05-02T14:15:55.709Z</time></trkpt><trkpt lat="44.6013524" lon="9.9326338"><ele>671.8000000000001</ele><time>2026-05-02T14:15:56.709Z</time></trkpt><trkpt lat="44.6014518" lon="9.9326884"><ele>669.6</ele><time>2026-05-02T14:15:57.71Z</time></trkpt><trkpt lat="44.6015322" lon="9.9327834"><ele>667.4</ele><time>2026-05-02T14:15:58.709Z</time></trkpt><trkpt lat="44.6016158" lon="9.9328737"><ele>665.2</ele><time>2026-05-02T14:15:59.709Z</time></trkpt><trkpt lat="44.6016978" lon="9.9329725"><ele>663.0</ele><time>2026-05-02T14:16:00.71Z</time></trkpt><trkpt lat="44.6017747" lon="9.9330759"><ele>663.0</ele><time>2026-05-02T14:16:01.709Z</time></trkpt><trkpt lat="44.6018552" lon="9.9331695"><ele>663.0</ele><time>2026-05-02T14:16:02.709Z</time></trkpt><trkpt lat="44.6019346" lon="9.9332626"><ele>663.0</ele><time>2026-05-02T14:16:03.709Z</time></trkpt><trkpt lat="44.6020165" lon="9.9333539"><ele>663.0</ele><time>2026-05-02T14:16:04.709Z</time></trkpt><trkpt lat="44.6021065" lon="9.9334408"><ele>663.0</ele><time>2026-05-02T14:16:05.709Z</time></trkpt><trkpt lat="44.6021961" lon="9.9335261"><ele>663.4</ele><time>2026-05-02T14:16:06.709Z</time></trkpt><trkpt lat="44.6022882" lon="9.9336104"><ele>663.8</ele><time>2026-05-02T14:16:07.709Z</time></trkpt><trkpt lat="44.6023729" lon="9.9337026"><ele>664.2</ele><time>2026-05-02T14:16:08.709Z</time></trkpt><trkpt lat="44.6024476" lon="9.9338107"><ele>664.6</ele><time>2026-05-02T14:16:09.709Z</time></trkpt><trkpt lat="44.6025119" lon="9.933931"><ele>665.0</ele><time>2026-05-02T14:16:10.709Z</time></trkpt><trkpt lat="44.6025742" lon="9.9340499"><ele>665.0</ele><time>2026-05-02T14:16:11.709Z</time></trkpt><trkpt lat="44.6026343" lon="9.9341697"><ele>665.0</ele><time>2026-05-02T14:16:12.709Z</time></trkpt><trkpt lat="44.6026966" lon="9.9342871"><ele>665.0</ele><time>2026-05-02T14:16:13.709Z</time></trkpt><trkpt lat="44.6027621" lon="9.9343959"><ele>665.0</ele><time>2026-05-02T14:16:14.709Z</time></trkpt><trkpt lat="44.6028269" lon="9.9345088"><ele>665.0</ele><time>2026-05-02T14:16:15.709Z</time></trkpt><trkpt lat="44.6028933" lon="9.9346271"><ele>665.8</ele><time>2026-05-02T14:16:16.709Z</time></trkpt><trkpt lat="44.6029523" lon="9.9347581"><ele>666.6</ele><time>2026-05-02T14:16:17.709Z</time></trkpt><trkpt lat="44.6030101" lon="9.9348913"><ele>667.4000000000001</ele><time>2026-05-02T14:16:18.709Z</time></trkpt><trkpt lat="44.6030627" lon="9.9350326"><ele>668.2</ele><time>2026-05-02T14:16:19.709Z</time></trkpt><trkpt lat="44.603121" lon="9.9351571"><ele>669.0</ele><time>2026-05-02T14:16:20.709Z</time></trkpt><trkpt lat="44.6031843" lon="9.9352601"><ele>667.6666666666666</ele><time>2026-05-02T14:16:21.709Z</time></trkpt><trkpt lat="44.6032548" lon="9.9353343"><ele>666.3333333333334</ele><time>2026-05-02T14:16:22.709Z</time></trkpt><trkpt lat="44.6033251" lon="9.9353836"><ele>665.0</ele><time>2026-05-02T14:16:23.709Z</time></trkpt><trkpt lat="44.6033968" lon="9.93542"><ele>663.6666666666667</ele><time>2026-05-02T14:16:24.71Z</time></trkpt><trkpt lat="44.6034954" lon="9.9354205"><ele>662.3333333333334</ele><time>2026-05-02T14:16:25.709Z</time></trkpt><trkpt lat="44.6035561" lon="9.9353827"><ele>661.0</ele><time>2026-05-02T14:16:26.71Z</time></trkpt><trkpt lat="44.6036281" lon="9.9353458"><ele>660.1999999999999</ele><time>2026-05-02T14:16:27.709Z</time></trkpt><trkpt lat="44.6037148" lon="9.9352757"><ele>659.4</ele><time>2026-05-02T14:16:28.709Z</time></trkpt><trkpt lat="44.6038056" lon="9.9352077"><ele>658.6</ele><time>2026-05-02T14:16:29.709Z</time></trkpt><trkpt lat="44.603892" lon="9.9351604"><ele>657.8</ele><time>2026-05-02T14:16:30.709Z</time></trkpt><trkpt lat="44.6039824" lon="9.935118"><ele>657.0</ele><time>2026-05-02T14:16:31.709Z</time></trkpt><trkpt lat="44.6040644" lon="9.9350946"><ele>657.0</ele><time>2026-05-02T14:16:32.71Z</time></trkpt><trkpt lat="44.6041474" lon="9.935087"><ele>657.0</ele><time>2026-05-02T14:16:33.709Z</time></trkpt><trkpt lat="44.604238" lon="9.9351025"><ele>657.0</ele><time>2026-05-02T14:16:34.709Z</time></trkpt><trkpt lat="44.6043265" lon="9.9351411"><ele>657.0</ele><time>2026-05-02T14:16:35.71Z</time></trkpt><trkpt lat="44.6044016" lon="9.9352281"><ele>657.0</ele><time>2026-05-02T14:16:36.709Z</time></trkpt><trkpt lat="44.6044773" lon="9.9353253"><ele>657.8</ele><time>2026-05-02T14:16:37.709Z</time></trkpt><trkpt lat="44.6045466" lon="9.9354392"><ele>658.6</ele><time>2026-05-02T14:16:38.709Z</time></trkpt><trkpt lat="44.6046056" lon="9.9355604"><ele>659.4</ele><time>2026-05-02T14:16:39.709Z</time></trkpt><trkpt lat="44.6046719" lon="9.9356864"><ele>660.1999999999999</ele><time>2026-05-02T14:16:40.709Z</time></trkpt><trkpt lat="44.6047368" lon="9.9358125"><ele>661.0</ele><time>2026-05-02T14:16:41.709Z</time></trkpt><trkpt lat="44.6048086" lon="9.9359376"><ele>661.0</ele><time>2026-05-02T14:16:42.71Z</time></trkpt><trkpt lat="44.6048753" lon="9.9360631"><ele>661.0</ele><time>2026-05-02T14:16:43.709Z</time></trkpt><trkpt lat="44.6049373" lon="9.9361905"><ele>661.0</ele><time>2026-05-02T14:16:44.709Z</time></trkpt><trkpt lat="44.6049984" lon="9.9363206"><ele>661.0</ele><time>2026-05-02T14:16:45.71Z</time></trkpt><trkpt lat="44.6050552" lon="9.9364511"><ele>661.0</ele><time>2026-05-02T14:16:46.709Z</time></trkpt><trkpt lat="44.6050991" lon="9.9365889"><ele>661.0</ele><time>2026-05-02T14:16:47.709Z</time></trkpt><trkpt lat="44.605137" lon="9.9367144"><ele>661.0</ele><time>2026-05-02T14:16:48.709Z</time></trkpt><trkpt lat="44.605179" lon="9.9368401"><ele>661.0</ele><time>2026-05-02T14:16:49.71Z</time></trkpt><trkpt lat="44.6052192" lon="9.9369636"><ele>661.0</ele><time>2026-05-02T14:16:50.709Z</time></trkpt><trkpt lat="44.6052604" lon="9.9370899"><ele>661.0</ele><time>2026-05-02T14:16:51.71Z</time></trkpt><trkpt lat="44.605305" lon="9.9372156"><ele>663.1999999999999</ele><time>2026-05-02T14:16:52.71Z</time></trkpt><trkpt lat="44.6053538" lon="9.9373431"><ele>665.4</ele><time>2026-05-02T14:16:53.709Z</time></trkpt><trkpt lat="44.6054005" lon="9.9374754"><ele>667.6</ele><time>2026-05-02T14:16:54.709Z</time></trkpt><trkpt lat="44.60544" lon="9.9376069"><ele>669.8</ele><time>2026-05-02T14:16:55.71Z</time></trkpt><trkpt lat="44.6054771" lon="9.9377419"><ele>672.0</ele><time>2026-05-02T14:16:56.709Z</time></trkpt><trkpt lat="44.6055228" lon="9.9378622"><ele>667.6</ele><time>2026-05-02T14:16:57.709Z</time></trkpt><trkpt lat="44.6055863" lon="9.9379673"><ele>663.2</ele><time>2026-05-02T14:16:58.709Z</time></trkpt><trkpt lat="44.6056659" lon="9.9380449"><ele>658.8</ele><time>2026-05-02T14:16:59.709Z</time></trkpt><trkpt lat="44.6057504" lon="9.9381134"><ele>654.4</ele><time>2026-05-02T14:17:00.709Z</time></trkpt><trkpt lat="44.6058348" lon="9.9381738"><ele>650.0</ele><time>2026-05-02T14:17:01.709Z</time></trkpt><trkpt lat="44.6059193" lon="9.9382313"><ele>650.0</ele><time>2026-05-02T14:17:02.709Z</time></trkpt><trkpt lat="44.6060077" lon="9.938276"><ele>650.0</ele><time>2026-05-02T14:17:03.709Z</time></trkpt><trkpt lat="44.6060744" lon="9.938318"><ele>650.0</ele><time>2026-05-02T14:17:04.71Z</time></trkpt><trkpt lat="44.6061414" lon="9.9383622"><ele>650.0</ele><time>2026-05-02T14:17:05.709Z</time></trkpt><trkpt lat="44.6061974" lon="9.9384064"><ele>650.0</ele><time>2026-05-02T14:17:06.709Z</time></trkpt><trkpt lat="44.6062594" lon="9.9384492"><ele>650.0</ele><time>2026-05-02T14:17:07.709Z</time></trkpt><trkpt lat="44.6063524" lon="9.9385263"><ele>650.2</ele><time>2026-05-02T14:17:09.709Z</time></trkpt><trkpt lat="44.6064413" lon="9.9386273"><ele>650.4</ele><time>2026-05-02T14:17:11.709Z</time></trkpt><trkpt lat="44.6065264" lon="9.9387443"><ele>650.5999999999999</ele><time>2026-05-02T14:17:13.709Z</time></trkpt><trkpt lat="44.6065948" lon="9.9388001"><ele>650.8</ele><time>2026-05-02T14:17:15.71Z</time></trkpt><trkpt lat="44.6066795" lon="9.9387883"><ele>651.0</ele><time>2026-05-02T14:17:17.709Z</time></trkpt><trkpt lat="44.6067585" lon="9.9387805"><ele>651.0</ele><time>2026-05-02T14:17:19.709Z</time></trkpt><trkpt lat="44.6068489" lon="9.9388468"><ele>651.0</ele><time>2026-05-02T14:17:21.709Z</time></trkpt><trkpt lat="44.6069281" lon="9.9388902"><ele>651.0</ele><time>2026-05-02T14:17:23.709Z</time></trkpt><trkpt lat="44.6069812" lon="9.9388218"><ele>651.0</ele><time>2026-05-02T14:17:26.709Z</time></trkpt><trkpt lat="44.6069564" lon="9.9387331"><ele>651.0</ele><time>2026-05-02T14:17:28.709Z</time></trkpt><trkpt lat="44.6069052" lon="9.9386103"><ele>651.0</ele><time>2026-05-02T14:17:30.709Z</time></trkpt><trkpt lat="44.6068738" lon="9.9385269"><ele>651.0</ele><time>2026-05-02T14:17:31.709Z</time></trkpt><trkpt lat="44.6068566" lon="9.9383976"><ele>651.0</ele><time>2026-05-02T14:17:33.709Z</time></trkpt><trkpt lat="44.6068702" lon="9.9382769"><ele>651.0</ele><time>2026-05-02T14:17:35.709Z</time></trkpt><trkpt lat="44.606868" lon="9.9381646"><ele>651.0</ele><time>2026-05-02T14:17:37.709Z</time></trkpt><trkpt lat="44.6069017" lon="9.9380472"><ele>651.0</ele><time>2026-05-02T14:17:39.71Z</time></trkpt><trkpt lat="44.6069731" lon="9.9379655"><ele>651.0</ele><time>2026-05-02T14:17:41.71Z</time></trkpt><trkpt lat="44.6070561" lon="9.9379632"><ele>655.1999999999999</ele><time>2026-05-02T14:17:44.709Z</time></trkpt><trkpt lat="44.6071308" lon="9.9379452"><ele>659.4</ele><time>2026-05-02T14:17:46.709Z</time></trkpt><trkpt lat="44.6072272" lon="9.9378513"><ele>663.6</ele><time>2026-05-02T14:17:48.709Z</time></trkpt><trkpt lat="44.607312" lon="9.9377573"><ele>667.8</ele><time>2026-05-02T14:17:50.709Z</time></trkpt><trkpt lat="44.6074005" lon="9.9377117"><ele>672.0</ele><time>2026-05-02T14:17:52.71Z</time></trkpt><trkpt lat="44.6074879" lon="9.9376786"><ele>672.0</ele><time>2026-05-02T14:17:54.709Z</time></trkpt><trkpt lat="44.607575" lon="9.9376305"><ele>672.0</ele><time>2026-05-02T14:17:56.709Z</time></trkpt><trkpt lat="44.6076619" lon="9.9376312"><ele>672.0</ele><time>2026-05-02T14:17:58.709Z</time></trkpt><trkpt lat="44.6077437" lon="9.9376557"><ele>672.0</ele><time>2026-05-02T14:18:00.709Z</time></trkpt><trkpt lat="44.607816" lon="9.9377038"><ele>672.0</ele><time>2026-05-02T14:18:02.709Z</time></trkpt><trkpt lat="44.6078747" lon="9.9377993"><ele>672.0</ele><time>2026-05-02T14:18:04.71Z</time></trkpt><trkpt lat="44.6079273" lon="9.9378955"><ele>673.8</ele><time>2026-05-02T14:18:06.711Z</time></trkpt><trkpt lat="44.6079919" lon="9.9379777"><ele>675.6</ele><time>2026-05-02T14:18:08.709Z</time></trkpt><trkpt lat="44.6080774" lon="9.9380613"><ele>677.4</ele><time>2026-05-02T14:18:10.709Z</time></trkpt><trkpt lat="44.6081692" lon="9.938124"><ele>679.1999999999999</ele><time>2026-05-02T14:18:12.709Z</time></trkpt><trkpt lat="44.608276" lon="9.9381652"><ele>681.0</ele><time>2026-05-02T14:18:14.709Z</time></trkpt><trkpt lat="44.6083373" lon="9.9381904"><ele>681.0</ele><time>2026-05-02T14:18:15.709Z</time></trkpt><trkpt lat="44.6084021" lon="9.9382308"><ele>681.0</ele><time>2026-05-02T14:18:16.709Z</time></trkpt><trkpt lat="44.6084655" lon="9.9382765"><ele>681.0</ele><time>2026-05-02T14:18:17.71Z</time></trkpt><trkpt lat="44.6085275" lon="9.9383285"><ele>681.0</ele><time>2026-05-02T14:18:18.71Z</time></trkpt><trkpt lat="44.6085927" lon="9.9383674"><ele>681.0</ele><time>2026-05-02T14:18:19.709Z</time></trkpt><trkpt lat="44.6086923" lon="9.9384332"><ele>681.0</ele><time>2026-05-02T14:18:21.709Z</time></trkpt><trkpt lat="44.6087948" lon="9.9385013"><ele>679.0</ele><time>2026-05-02T14:18:23.709Z</time></trkpt><trkpt lat="44.6089077" lon="9.9385491"><ele>677.0</ele><time>2026-05-02T14:18:25.71Z</time></trkpt><trkpt lat="44.6089761" lon="9.9385419"><ele>675.0</ele><time>2026-05-02T14:18:26.709Z</time></trkpt><trkpt lat="44.6090475" lon="9.9385372"><ele>673.0</ele><time>2026-05-02T14:18:27.709Z</time></trkpt><trkpt lat="44.6091692" lon="9.9385655"><ele>671.0</ele><time>2026-05-02T14:18:29.709Z</time></trkpt><trkpt lat="44.6092326" lon="9.9385919"><ele>669.0</ele><time>2026-05-02T14:18:30.71Z</time></trkpt><trkpt lat="44.6093365" lon="9.938684"><ele>669.0</ele><time>2026-05-02T14:18:32.71Z</time></trkpt><trkpt lat="44.6093895" lon="9.9387404"><ele>669.0</ele><time>2026-05-02T14:18:33.709Z</time></trkpt><trkpt lat="44.6094963" lon="9.9388218"><ele>669.0</ele><time>2026-05-02T14:18:35.709Z</time></trkpt><trkpt lat="44.6095593" lon="9.9388399"><ele>669.0</ele><time>2026-05-02T14:18:36.71Z</time></trkpt><trkpt lat="44.6096276" lon="9.9388467"><ele>669.0</ele><time>2026-05-02T14:18:37.71Z</time></trkpt><trkpt lat="44.6096926" lon="9.9388377"><ele>669.0</ele><time>2026-05-02T14:18:38.71Z</time></trkpt><trkpt lat="44.6097988" lon="9.938771"><ele>668.4000000000001</ele><time>2026-05-02T14:18:40.71Z</time></trkpt><trkpt lat="44.6099156" lon="9.9386839"><ele>667.8</ele><time>2026-05-02T14:18:42.709Z</time></trkpt><trkpt lat="44.6099809" lon="9.9386401"><ele>667.2</ele><time>2026-05-02T14:18:43.709Z</time></trkpt><trkpt lat="44.6100428" lon="9.9385913"><ele>666.5999999999999</ele><time>2026-05-02T14:18:44.709Z</time></trkpt><trkpt lat="44.6100925" lon="9.9385335"><ele>666.0</ele><time>2026-05-02T14:18:45.709Z</time></trkpt><trkpt lat="44.6101851" lon="9.9384328"><ele>667.1999999999999</ele><time>2026-05-02T14:18:47.709Z</time></trkpt><trkpt lat="44.610266" lon="9.9383581"><ele>668.4</ele><time>2026-05-02T14:18:49.71Z</time></trkpt><trkpt lat="44.6103614" lon="9.9382851"><ele>669.6</ele><time>2026-05-02T14:18:51.709Z</time></trkpt><trkpt lat="44.6104713" lon="9.9382321"><ele>670.8</ele><time>2026-05-02T14:18:53.709Z</time></trkpt><trkpt lat="44.6105765" lon="9.9382366"><ele>672.0</ele><time>2026-05-02T14:18:55.709Z</time></trkpt><trkpt lat="44.6106761" lon="9.9381745"><ele>672.0</ele><time>2026-05-02T14:18:57.709Z</time></trkpt><trkpt lat="44.6107727" lon="9.93808"><ele>672.0</ele><time>2026-05-02T14:18:59.709Z</time></trkpt><trkpt lat="44.6108597" lon="9.9379515"><ele>672.0</ele><time>2026-05-02T14:19:01.709Z</time></trkpt><trkpt lat="44.6109115" lon="9.9378899"><ele>672.0</ele><time>2026-05-02T14:19:02.71Z</time></trkpt><trkpt lat="44.6109723" lon="9.9378118"><ele>672.0</ele><time>2026-05-02T14:19:03.709Z</time></trkpt><trkpt lat="44.6110651" lon="9.9377002"><ele>672.0</ele><time>2026-05-02T14:19:05.709Z</time></trkpt><trkpt lat="44.6111116" lon="9.9376258"><ele>672.0</ele><time>2026-05-02T14:19:06.709Z</time></trkpt><trkpt lat="44.6111615" lon="9.9375662"><ele>672.0</ele><time>2026-05-02T14:19:07.709Z</time></trkpt><trkpt lat="44.6112599" lon="9.9374774"><ele>672.0</ele><time>2026-05-02T14:19:09.709Z</time></trkpt><trkpt lat="44.6113685" lon="9.9374634"><ele>672.0</ele><time>2026-05-02T14:19:11.71Z</time></trkpt><trkpt lat="44.6114762" lon="9.9374421"><ele>672.8</ele><time>2026-05-02T14:19:13.709Z</time></trkpt><trkpt lat="44.6115888" lon="9.9373846"><ele>673.6</ele><time>2026-05-02T14:19:15.709Z</time></trkpt><trkpt lat="44.6116814" lon="9.9373144"><ele>674.4</ele><time>2026-05-02T14:19:17.71Z</time></trkpt><trkpt lat="44.6117699" lon="9.9372819"><ele>675.1999999999999</ele><time>2026-05-02T14:19:19.709Z</time></trkpt><trkpt lat="44.61184" lon="9.9372639"><ele>676.0</ele><time>2026-05-02T14:19:21.709Z</time></trkpt><trkpt lat="44.6118972" lon="9.9372261"><ele>676.0</ele><time>2026-05-02T14:19:23.709Z</time></trkpt><trkpt lat="44.6119744" lon="9.9371874"><ele>676.0</ele><time>2026-05-02T14:19:25.709Z</time></trkpt><trkpt lat="44.6120247" lon="9.9372536"><ele>676.0</ele><time>2026-05-02T14:19:27.709Z</time></trkpt><trkpt lat="44.612089" lon="9.9372944"><ele>676.0</ele><time>2026-05-02T14:19:29.71Z</time></trkpt><trkpt lat="44.6121791" lon="9.9372908"><ele>676.0</ele><time>2026-05-02T14:19:31.709Z</time></trkpt><trkpt lat="44.6122445" lon="9.9372466"><ele>676.0</ele><time>2026-05-02T14:19:33.709Z</time></trkpt><trkpt lat="44.6122991" lon="9.9371956"><ele>677.0</ele><time>2026-05-02T14:19:36.709Z</time></trkpt><trkpt lat="44.6123607" lon="9.9371723"><ele>678.0</ele><time>2026-05-02T14:19:38.709Z</time></trkpt><trkpt lat="44.6124655" lon="9.9372574"><ele>679.0</ele><time>2026-05-02T14:19:40.709Z</time></trkpt><trkpt lat="44.6125233" lon="9.937338"><ele>680.0</ele><time>2026-05-02T14:19:42.71Z</time></trkpt><trkpt lat="44.6126311" lon="9.9373732"><ele>681.0</ele><time>2026-05-02T14:19:44.709Z</time></trkpt><trkpt lat="44.6127225" lon="9.9373818"><ele>682.5999999999999</ele><time>2026-05-02T14:19:46.709Z</time></trkpt><trkpt lat="44.6128248" lon="9.9373503"><ele>684.2</ele><time>2026-05-02T14:19:48.709Z</time></trkpt><trkpt lat="44.6128901" lon="9.9373303"><ele>685.8</ele><time>2026-05-02T14:19:49.71Z</time></trkpt><trkpt lat="44.6129971" lon="9.9373153"><ele>687.4000000000001</ele><time>2026-05-02T14:19:51.709Z</time></trkpt><trkpt lat="44.6131023" lon="9.9373148"><ele>689.0</ele><time>2026-05-02T14:19:53.709Z</time></trkpt><trkpt lat="44.6132076" lon="9.9372442"><ele>689.0</ele><time>2026-05-02T14:19:55.709Z</time></trkpt><trkpt lat="44.6132564" lon="9.937184"><ele>689.0</ele><time>2026-05-02T14:19:56.709Z</time></trkpt><trkpt lat="44.6133534" lon="9.9370879"><ele>689.0</ele><time>2026-05-02T14:19:58.709Z</time></trkpt><trkpt lat="44.6134708" lon="9.93705"><ele>689.0</ele><time>2026-05-02T14:20:00.709Z</time></trkpt><trkpt lat="44.6135782" lon="9.9370472"><ele>689.0</ele><time>2026-05-02T14:20:02.709Z</time></trkpt><trkpt lat="44.6136917" lon="9.9371021"><ele>691.8000000000001</ele><time>2026-05-02T14:20:04.709Z</time></trkpt><trkpt lat="44.6137928" lon="9.9371725"><ele>694.6</ele><time>2026-05-02T14:20:06.709Z</time></trkpt><trkpt lat="44.6138921" lon="9.9373105"><ele>697.4</ele><time>2026-05-02T14:20:08.71Z</time></trkpt><trkpt lat="44.6139408" lon="9.9373702"><ele>700.2</ele><time>2026-05-02T14:20:09.709Z</time></trkpt><trkpt lat="44.6140549" lon="9.9374569"><ele>703.0</ele><time>2026-05-02T14:20:11.71Z</time></trkpt><trkpt lat="44.6141598" lon="9.9375198"><ele>703.0</ele><time>2026-05-02T14:20:13.709Z</time></trkpt><trkpt lat="44.6142284" lon="9.9375479"><ele>703.0</ele><time>2026-05-02T14:20:14.709Z</time></trkpt><trkpt lat="44.6142934" lon="9.9375703"><ele>703.0</ele><time>2026-05-02T14:20:15.709Z</time></trkpt><trkpt lat="44.614358" lon="9.9375847"><ele>703.0</ele><time>2026-05-02T14:20:16.709Z</time></trkpt><trkpt lat="44.6144775" lon="9.9376156"><ele>703.0</ele><time>2026-05-02T14:20:18.709Z</time></trkpt><trkpt lat="44.6145852" lon="9.9376294"><ele>703.0</ele><time>2026-05-02T14:20:20.71Z</time></trkpt><trkpt lat="44.6146825" lon="9.9377128"><ele>704.5</ele><time>2026-05-02T14:20:22.711Z</time></trkpt><trkpt lat="44.614771" lon="9.9378072"><ele>706.0</ele><time>2026-05-02T14:20:24.709Z</time></trkpt><trkpt lat="44.6148667" lon="9.9379051"><ele>707.5</ele><time>2026-05-02T14:20:26.709Z</time></trkpt><trkpt lat="44.6149087" lon="9.9379723"><ele>709.0</ele><time>2026-05-02T14:20:27.71Z</time></trkpt><trkpt lat="44.6149126" lon="9.9380761"><ele>710.5</ele><time>2026-05-02T14:20:28.709Z</time></trkpt><trkpt lat="44.6149416" lon="9.9381706"><ele>712.0</ele><time>2026-05-02T14:20:29.709Z</time></trkpt><trkpt lat="44.6149733" lon="9.9382666"><ele>711.9999999999999</ele><time>2026-05-02T14:20:30.71Z</time></trkpt><trkpt lat="44.6150074" lon="9.9383514"><ele>712.0</ele><time>2026-05-02T14:20:31.709Z</time></trkpt><trkpt lat="44.615063" lon="9.9384134"><ele>712.0</ele><time>2026-05-02T14:20:32.709Z</time></trkpt><trkpt lat="44.6151228" lon="9.9384706"><ele>712.0</ele><time>2026-05-02T14:20:33.709Z</time></trkpt><trkpt lat="44.6151866" lon="9.9385095"><ele>712.0</ele><time>2026-05-02T14:20:34.71Z</time></trkpt><trkpt lat="44.6152582" lon="9.938522"><ele>711.9999999999999</ele><time>2026-05-02T14:20:35.709Z</time></trkpt><trkpt lat="44.6153406" lon="9.9385116"><ele>712.0</ele><time>2026-05-02T14:20:36.709Z</time></trkpt><trkpt lat="44.6154191" lon="9.9385066"><ele>712.2857142857142</ele><time>2026-05-02T14:20:37.71Z</time></trkpt><trkpt lat="44.6154984" lon="9.9384998"><ele>712.5714285714286</ele><time>2026-05-02T14:20:38.709Z</time></trkpt><trkpt lat="44.6155715" lon="9.9384971"><ele>712.8571428571429</ele><time>2026-05-02T14:20:39.709Z</time></trkpt><trkpt lat="44.6156268" lon="9.9385411"><ele>713.1428571428571</ele><time>2026-05-02T14:20:40.709Z</time></trkpt><trkpt lat="44.6156782" lon="9.938617"><ele>713.4285714285714</ele><time>2026-05-02T14:20:41.709Z</time></trkpt><trkpt lat="44.6157324" lon="9.9386913"><ele>713.7142857142857</ele><time>2026-05-02T14:20:42.709Z</time></trkpt><trkpt lat="44.6157896" lon="9.9387577"><ele>714.0</ele><time>2026-05-02T14:20:43.709Z</time></trkpt><trkpt lat="44.6158423" lon="9.9388187"><ele>714.0</ele><time>2026-05-02T14:20:44.709Z</time></trkpt><trkpt lat="44.6159048" lon="9.9389368"><ele>714.0</ele><time>2026-05-02T14:20:46.709Z</time></trkpt><trkpt lat="44.6159479" lon="9.9390226"><ele>714.0</ele><time>2026-05-02T14:20:47.709Z</time></trkpt><trkpt lat="44.6159957" lon="9.9390928"><ele>714.0</ele><time>2026-05-02T14:20:48.709Z</time></trkpt><trkpt lat="44.6160616" lon="9.9391534"><ele>714.0</ele><time>2026-05-02T14:20:49.71Z</time></trkpt><trkpt lat="44.6161305" lon="9.9392021"><ele>714.0</ele><time>2026-05-02T14:20:50.709Z</time></trkpt><trkpt lat="44.6161928" lon="9.9392694"><ele>714.3333333333334</ele><time>2026-05-02T14:20:51.709Z</time></trkpt><trkpt lat="44.6162528" lon="9.9393286"><ele>714.6666666666666</ele><time>2026-05-02T14:20:52.709Z</time></trkpt><trkpt lat="44.6163078" lon="9.9393775"><ele>715.0</ele><time>2026-05-02T14:20:53.709Z</time></trkpt><trkpt lat="44.6164029" lon="9.9394372"><ele>715.3333333333333</ele><time>2026-05-02T14:20:55.709Z</time></trkpt><trkpt lat="44.6164685" lon="9.9394678"><ele>715.6666666666666</ele><time>2026-05-02T14:21:03.709Z</time></trkpt><trkpt lat="44.6165703" lon="9.9395055"><ele>716.0</ele><time>2026-05-02T14:21:05.709Z</time></trkpt><trkpt lat="44.6166739" lon="9.9395334"><ele>716.0</ele><time>2026-05-02T14:21:07.709Z</time></trkpt><trkpt lat="44.6167367" lon="9.9394609"><ele>716.0</ele><time>2026-05-02T14:21:08.709Z</time></trkpt><trkpt lat="44.6168448" lon="9.9393752"><ele>716.0</ele><time>2026-05-02T14:21:10.709Z</time></trkpt><trkpt lat="44.616907" lon="9.9393505"><ele>716.0</ele><time>2026-05-02T14:21:11.709Z</time></trkpt><trkpt lat="44.6169761" lon="9.9393236"><ele>716.0</ele><time>2026-05-02T14:21:12.709Z</time></trkpt><trkpt lat="44.6170429" lon="9.9392905"><ele>716.0</ele><time>2026-05-02T14:21:13.709Z</time></trkpt><trkpt lat="44.617113" lon="9.9392739"><ele>716.3333333333333</ele><time>2026-05-02T14:21:14.709Z</time></trkpt><trkpt lat="44.6171804" lon="9.9392541"><ele>716.6666666666666</ele><time>2026-05-02T14:21:15.711Z</time></trkpt><trkpt lat="44.6172606" lon="9.9391875"><ele>717.0</ele><time>2026-05-02T14:21:16.71Z</time></trkpt><trkpt lat="44.6173349" lon="9.9391586"><ele>717.3333333333334</ele><time>2026-05-02T14:21:17.71Z</time></trkpt><trkpt lat="44.6174268" lon="9.9391047"><ele>717.6666666666667</ele><time>2026-05-02T14:21:18.709Z</time></trkpt><trkpt lat="44.6174959" lon="9.9390594"><ele>718.0</ele><time>2026-05-02T14:21:19.709Z</time></trkpt><trkpt lat="44.6175634" lon="9.9389972"><ele>720.3333333333334</ele><time>2026-05-02T14:21:20.709Z</time></trkpt><trkpt lat="44.6176269" lon="9.9389502"><ele>722.6666666666667</ele><time>2026-05-02T14:21:21.709Z</time></trkpt><trkpt lat="44.6177156" lon="9.9389087"><ele>725.0</ele><time>2026-05-02T14:21:22.709Z</time></trkpt><trkpt lat="44.6178019" lon="9.9388787"><ele>727.3333333333334</ele><time>2026-05-02T14:21:23.709Z</time></trkpt><trkpt lat="44.6178867" lon="9.9388622"><ele>729.6666666666666</ele><time>2026-05-02T14:21:24.708Z</time></trkpt><trkpt lat="44.6179634" lon="9.9388778"><ele>732.0</ele><time>2026-05-02T14:21:25.708Z</time></trkpt><trkpt lat="44.6180437" lon="9.9388683"><ele>732.6</ele><time>2026-05-02T14:21:26.708Z</time></trkpt><trkpt lat="44.618142" lon="9.9388508"><ele>733.2</ele><time>2026-05-02T14:21:27.709Z</time></trkpt><trkpt lat="44.6182396" lon="9.9388282"><ele>733.8</ele><time>2026-05-02T14:21:28.708Z</time></trkpt><trkpt lat="44.6183329" lon="9.938796"><ele>734.4</ele><time>2026-05-02T14:21:29.708Z</time></trkpt><trkpt lat="44.6184114" lon="9.9387871"><ele>735.0</ele><time>2026-05-02T14:21:30.708Z</time></trkpt><trkpt lat="44.6185018" lon="9.9387959"><ele>735.0</ele><time>2026-05-02T14:21:31.708Z</time></trkpt><trkpt lat="44.6185601" lon="9.9388514"><ele>735.0</ele><time>2026-05-02T14:21:32.708Z</time></trkpt><trkpt lat="44.6186308" lon="9.9388986"><ele>735.0</ele><time>2026-05-02T14:21:33.708Z</time></trkpt><trkpt lat="44.6187146" lon="9.9389617"><ele>735.0</ele><time>2026-05-02T14:21:34.708Z</time></trkpt><trkpt lat="44.6187715" lon="9.9390192"><ele>735.0</ele><time>2026-05-02T14:21:35.708Z</time></trkpt><trkpt lat="44.6188096" lon="9.9391036"><ele>735.0</ele><time>2026-05-02T14:21:36.708Z</time></trkpt><trkpt lat="44.6188483" lon="9.9391915"><ele>734.7142857142857</ele><time>2026-05-02T14:21:37.709Z</time></trkpt><trkpt lat="44.6189011" lon="9.9392671"><ele>734.4285714285714</ele><time>2026-05-02T14:21:38.708Z</time></trkpt><trkpt lat="44.6189653" lon="9.9393285"><ele>734.1428571428571</ele><time>2026-05-02T14:21:39.708Z</time></trkpt><trkpt lat="44.619016" lon="9.939396"><ele>733.8571428571429</ele><time>2026-05-02T14:21:40.709Z</time></trkpt><trkpt lat="44.6190685" lon="9.9394649"><ele>733.5714285714286</ele><time>2026-05-02T14:21:41.708Z</time></trkpt><trkpt lat="44.61912" lon="9.9395272"><ele>733.2857142857142</ele><time>2026-05-02T14:21:42.709Z</time></trkpt><trkpt lat="44.6191925" lon="9.9395875"><ele>733.0</ele><time>2026-05-02T14:21:43.708Z</time></trkpt><trkpt lat="44.6192761" lon="9.9396358"><ele>733.0</ele><time>2026-05-02T14:21:44.708Z</time></trkpt><trkpt lat="44.6193626" lon="9.9396886"><ele>733.0</ele><time>2026-05-02T14:21:45.708Z</time></trkpt><trkpt lat="44.6194484" lon="9.9397401"><ele>733.0</ele><time>2026-05-02T14:21:46.708Z</time></trkpt><trkpt lat="44.619536" lon="9.9397963"><ele>733.0</ele><time>2026-05-02T14:21:47.708Z</time></trkpt><trkpt lat="44.6196223" lon="9.9398542"><ele>733.0</ele><time>2026-05-02T14:21:48.708Z</time></trkpt><trkpt lat="44.6197033" lon="9.9399204"><ele>732.5999999999999</ele><time>2026-05-02T14:21:49.708Z</time></trkpt><trkpt lat="44.619784" lon="9.9399921"><ele>732.1999999999999</ele><time>2026-05-02T14:21:50.709Z</time></trkpt><trkpt lat="44.6198658" lon="9.9400678"><ele>731.8</ele><time>2026-05-02T14:21:51.708Z</time></trkpt><trkpt lat="44.6199507" lon="9.9401478"><ele>731.4</ele><time>2026-05-02T14:21:52.708Z</time></trkpt><trkpt lat="44.6200306" lon="9.9402299"><ele>731.0</ele><time>2026-05-02T14:21:53.708Z</time></trkpt><trkpt lat="44.6201098" lon="9.9403086"><ele>731.0</ele><time>2026-05-02T14:21:54.709Z</time></trkpt><trkpt lat="44.6201914" lon="9.9403721"><ele>731.0</ele><time>2026-05-02T14:21:55.708Z</time></trkpt><trkpt lat="44.6202674" lon="9.940403"><ele>731.0</ele><time>2026-05-02T14:21:56.708Z</time></trkpt><trkpt lat="44.6203394" lon="9.9404108"><ele>731.0</ele><time>2026-05-02T14:21:57.708Z</time></trkpt><trkpt lat="44.620405" lon="9.9403748"><ele>731.0</ele><time>2026-05-02T14:21:58.705Z</time></trkpt><trkpt lat="44.6204647" lon="9.9403178"><ele>731.0</ele><time>2026-05-02T14:21:59.708Z</time></trkpt><trkpt lat="44.620517" lon="9.9402435"><ele>731.5</ele><time>2026-05-02T14:22:00.708Z</time></trkpt><trkpt lat="44.620577" lon="9.9401532"><ele>732.0</ele><time>2026-05-02T14:22:01.708Z</time></trkpt><trkpt lat="44.6206426" lon="9.9400728"><ele>732.5</ele><time>2026-05-02T14:22:02.708Z</time></trkpt><trkpt lat="44.620713" lon="9.9400014"><ele>733.0</ele><time>2026-05-02T14:22:03.708Z</time></trkpt><trkpt lat="44.6207922" lon="9.9399313"><ele>733.5</ele><time>2026-05-02T14:22:04.708Z</time></trkpt><trkpt lat="44.6208684" lon="9.9398596"><ele>734.0</ele><time>2026-05-02T14:22:05.708Z</time></trkpt><trkpt lat="44.6209457" lon="9.9397844"><ele>736.3333333333333</ele><time>2026-05-02T14:22:06.709Z</time></trkpt><trkpt lat="44.6210197" lon="9.9396969"><ele>738.6666666666666</ele><time>2026-05-02T14:22:07.709Z</time></trkpt><trkpt lat="44.6210917" lon="9.9396135"><ele>741.0</ele><time>2026-05-02T14:22:08.708Z</time></trkpt><trkpt lat="44.6211568" lon="9.9395315"><ele>743.3333333333334</ele><time>2026-05-02T14:22:09.708Z</time></trkpt><trkpt lat="44.6212207" lon="9.9394711"><ele>745.6666666666667</ele><time>2026-05-02T14:22:10.708Z</time></trkpt><trkpt lat="44.6212823" lon="9.9394427"><ele>748.0</ele><time>2026-05-02T14:22:11.709Z</time></trkpt><trkpt lat="44.6214019" lon="9.9394466"><ele>748.0</ele><time>2026-05-02T14:22:13.709Z</time></trkpt><trkpt lat="44.6215264" lon="9.9394757"><ele>748.0</ele><time>2026-05-02T14:22:15.709Z</time></trkpt><trkpt lat="44.6216399" lon="9.9395191"><ele>748.0</ele><time>2026-05-02T14:22:17.709Z</time></trkpt><trkpt lat="44.6217455" lon="9.9395711"><ele>748.0</ele><time>2026-05-02T14:22:19.709Z</time></trkpt><trkpt lat="44.6218556" lon="9.9396138"><ele>748.0</ele><time>2026-05-02T14:22:21.708Z</time></trkpt><trkpt lat="44.6219573" lon="9.9396651"><ele>748.0</ele><time>2026-05-02T14:22:23.708Z</time></trkpt><trkpt lat="44.6220569" lon="9.9397001"><ele>748.0</ele><time>2026-05-02T14:22:25.708Z</time></trkpt><trkpt lat="44.6221513" lon="9.9397424"><ele>748.0</ele><time>2026-05-02T14:22:27.708Z</time></trkpt><trkpt lat="44.6222523" lon="9.9398014"><ele>748.0</ele><time>2026-05-02T14:22:29.708Z</time></trkpt><trkpt lat="44.6223612" lon="9.93986"><ele>747.5714285714286</ele><time>2026-05-02T14:22:31.708Z</time></trkpt><trkpt lat="44.6224234" lon="9.9398832"><ele>747.1428571428572</ele><time>2026-05-02T14:22:32.708Z</time></trkpt><trkpt lat="44.6224834" lon="9.9399152"><ele>746.7142857142858</ele><time>2026-05-02T14:22:33.708Z</time></trkpt><trkpt lat="44.6225483" lon="9.9399477"><ele>746.2857142857142</ele><time>2026-05-02T14:22:34.709Z</time></trkpt><trkpt lat="44.6226117" lon="9.9399813"><ele>745.8571428571429</ele><time>2026-05-02T14:22:35.708Z</time></trkpt><trkpt lat="44.6226814" lon="9.9400195"><ele>745.4285714285714</ele><time>2026-05-02T14:22:36.709Z</time></trkpt><trkpt lat="44.6227459" lon="9.940051"><ele>745.0</ele><time>2026-05-02T14:22:37.708Z</time></trkpt><trkpt lat="44.6228166" lon="9.9400856"><ele>743.1666666666667</ele><time>2026-05-02T14:22:38.709Z</time></trkpt><trkpt lat="44.6228858" lon="9.9401205"><ele>741.3333333333334</ele><time>2026-05-02T14:22:39.708Z</time></trkpt><trkpt lat="44.6229596" lon="9.9401545"><ele>739.5</ele><time>2026-05-02T14:22:40.708Z</time></trkpt><trkpt lat="44.6230331" lon="9.940188"><ele>737.6666666666666</ele><time>2026-05-02T14:22:41.708Z</time></trkpt><trkpt lat="44.6231072" lon="9.9402249"><ele>735.8333333333333</ele><time>2026-05-02T14:22:42.708Z</time></trkpt><trkpt lat="44.6231825" lon="9.9402596"><ele>734.0</ele><time>2026-05-02T14:22:43.708Z</time></trkpt><trkpt lat="44.6232612" lon="9.9402935"><ele>734.0</ele><time>2026-05-02T14:22:44.708Z</time></trkpt><trkpt lat="44.623339" lon="9.9403257"><ele>734.0</ele><time>2026-05-02T14:22:45.708Z</time></trkpt><trkpt lat="44.6234226" lon="9.9403634"><ele>734.0</ele><time>2026-05-02T14:22:46.709Z</time></trkpt><trkpt lat="44.6235047" lon="9.9403968"><ele>734.0</ele><time>2026-05-02T14:22:47.708Z</time></trkpt><trkpt lat="44.6235868" lon="9.9404307"><ele>734.0</ele><time>2026-05-02T14:22:48.708Z</time></trkpt><trkpt lat="44.6236703" lon="9.9404688"><ele>734.0</ele><time>2026-05-02T14:22:49.709Z</time></trkpt><trkpt lat="44.6237517" lon="9.9405072"><ele>733.6666666666666</ele><time>2026-05-02T14:22:50.709Z</time></trkpt><trkpt lat="44.6238341" lon="9.9405468"><ele>733.3333333333333</ele><time>2026-05-02T14:22:51.708Z</time></trkpt><trkpt lat="44.6239158" lon="9.9405853"><ele>733.0</ele><time>2026-05-02T14:22:52.709Z</time></trkpt><trkpt lat="44.6239964" lon="9.940623"><ele>732.6666666666666</ele><time>2026-05-02T14:22:53.708Z</time></trkpt><trkpt lat="44.6240781" lon="9.9406575"><ele>732.3333333333334</ele><time>2026-05-02T14:22:54.708Z</time></trkpt><trkpt lat="44.6241576" lon="9.9406909"><ele>732.0</ele><time>2026-05-02T14:22:55.709Z</time></trkpt><trkpt lat="44.6242397" lon="9.9407285"><ele>732.0</ele><time>2026-05-02T14:22:56.709Z</time></trkpt><trkpt lat="44.6243181" lon="9.9407681"><ele>732.0</ele><time>2026-05-02T14:22:57.708Z</time></trkpt><trkpt lat="44.6243979" lon="9.9408081"><ele>732.0</ele><time>2026-05-02T14:22:58.708Z</time></trkpt><trkpt lat="44.6244828" lon="9.9408509"><ele>732.0</ele><time>2026-05-02T14:22:59.708Z</time></trkpt><trkpt lat="44.6245704" lon="9.9408979"><ele>732.0</ele><time>2026-05-02T14:23:00.709Z</time></trkpt><trkpt lat="44.6246619" lon="9.9409433"><ele>732.0</ele><time>2026-05-02T14:23:01.708Z</time></trkpt><trkpt lat="44.6247535" lon="9.9409782"><ele>730.4000000000001</ele><time>2026-05-02T14:23:02.709Z</time></trkpt><trkpt lat="44.6248437" lon="9.9410152"><ele>728.8000000000001</ele><time>2026-05-02T14:23:03.709Z</time></trkpt><trkpt lat="44.624928" lon="9.9410539"><ele>727.2</ele><time>2026-05-02T14:23:04.709Z</time></trkpt><trkpt lat="44.6250069" lon="9.9410925"><ele>725.6</ele><time>2026-05-02T14:23:05.708Z</time></trkpt><trkpt lat="44.6250925" lon="9.9411726"><ele>724.0</ele><time>2026-05-02T14:23:06.709Z</time></trkpt><trkpt lat="44.6251476" lon="9.9412662"><ele>724.0</ele><time>2026-05-02T14:23:07.708Z</time></trkpt><trkpt lat="44.6251994" lon="9.9413815"><ele>724.0</ele><time>2026-05-02T14:23:08.709Z</time></trkpt><trkpt lat="44.6252472" lon="9.9414993"><ele>724.0</ele><time>2026-05-02T14:23:09.708Z</time></trkpt><trkpt lat="44.6253063" lon="9.9416187"><ele>724.0</ele><time>2026-05-02T14:23:10.709Z</time></trkpt><trkpt lat="44.6253616" lon="9.9417419"><ele>724.0</ele><time>2026-05-02T14:23:11.708Z</time></trkpt><trkpt lat="44.6254162" lon="9.9418661"><ele>725.2</ele><time>2026-05-02T14:23:12.708Z</time></trkpt><trkpt lat="44.6254725" lon="9.9419938"><ele>726.4000000000001</ele><time>2026-05-02T14:23:13.708Z</time></trkpt><trkpt lat="44.6255284" lon="9.9421278"><ele>727.6</ele><time>2026-05-02T14:23:14.709Z</time></trkpt><trkpt lat="44.6255797" lon="9.942258"><ele>728.8</ele><time>2026-05-02T14:23:15.708Z</time></trkpt><trkpt lat="44.6256246" lon="9.9423886"><ele>730.0</ele><time>2026-05-02T14:23:16.708Z</time></trkpt><trkpt lat="44.6256598" lon="9.9425274"><ele>729.2</ele><time>2026-05-02T14:23:17.708Z</time></trkpt><trkpt lat="44.6256919" lon="9.9426687"><ele>728.4</ele><time>2026-05-02T14:23:18.708Z</time></trkpt><trkpt lat="44.625724" lon="9.9428112"><ele>727.5999999999999</ele><time>2026-05-02T14:23:19.709Z</time></trkpt><trkpt lat="44.6257618" lon="9.9429514"><ele>726.8</ele><time>2026-05-02T14:23:20.708Z</time></trkpt><trkpt lat="44.6258019" lon="9.9430941"><ele>726.0</ele><time>2026-05-02T14:23:21.708Z</time></trkpt><trkpt lat="44.6258383" lon="9.9432387"><ele>725.5999999999999</ele><time>2026-05-02T14:23:22.708Z</time></trkpt><trkpt lat="44.6258709" lon="9.9433828"><ele>725.2</ele><time>2026-05-02T14:23:23.708Z</time></trkpt><trkpt lat="44.6258883" lon="9.9435298"><ele>724.8</ele><time>2026-05-02T14:23:24.708Z</time></trkpt><trkpt lat="44.6258824" lon="9.9436837"><ele>724.4000000000001</ele><time>2026-05-02T14:23:25.708Z</time></trkpt><trkpt lat="44.6258588" lon="9.9438366"><ele>724.0</ele><time>2026-05-02T14:23:26.708Z</time></trkpt><trkpt lat="44.6258277" lon="9.9439839"><ele>724.0</ele><time>2026-05-02T14:23:27.708Z</time></trkpt><trkpt lat="44.6257953" lon="9.9441345"><ele>724.0</ele><time>2026-05-02T14:23:28.708Z</time></trkpt><trkpt lat="44.6257696" lon="9.944287"><ele>724.0</ele><time>2026-05-02T14:23:29.708Z</time></trkpt><trkpt lat="44.625744" lon="9.944429"><ele>724.0</ele><time>2026-05-02T14:23:30.709Z</time></trkpt><trkpt lat="44.6257189" lon="9.9445692"><ele>724.0</ele><time>2026-05-02T14:23:31.708Z</time></trkpt><trkpt lat="44.6256859" lon="9.9447105"><ele>724.2</ele><time>2026-05-02T14:23:32.708Z</time></trkpt><trkpt lat="44.625646" lon="9.9448506"><ele>724.4000000000001</ele><time>2026-05-02T14:23:33.708Z</time></trkpt><trkpt lat="44.6255998" lon="9.9449904"><ele>724.6</ele><time>2026-05-02T14:23:34.708Z</time></trkpt><trkpt lat="44.6255496" lon="9.9451275"><ele>724.8</ele><time>2026-05-02T14:23:35.708Z</time></trkpt><trkpt lat="44.6255061" lon="9.9452645"><ele>725.0</ele><time>2026-05-02T14:23:36.708Z</time></trkpt><trkpt lat="44.6254634" lon="9.9453974"><ele>726.0</ele><time>2026-05-02T14:23:37.708Z</time></trkpt><trkpt lat="44.6254245" lon="9.9455309"><ele>727.0</ele><time>2026-05-02T14:23:38.708Z</time></trkpt><trkpt lat="44.6253926" lon="9.9456597"><ele>728.0</ele><time>2026-05-02T14:23:39.709Z</time></trkpt><trkpt lat="44.6253891" lon="9.9457917"><ele>729.0</ele><time>2026-05-02T14:23:40.708Z</time></trkpt><trkpt lat="44.6254108" lon="9.9459164"><ele>730.0</ele><time>2026-05-02T14:23:41.708Z</time></trkpt><trkpt lat="44.6254435" lon="9.9460389"><ele>731.0</ele><time>2026-05-02T14:23:42.708Z</time></trkpt><trkpt lat="44.6254813" lon="9.9461677"><ele>732.0</ele><time>2026-05-02T14:23:43.708Z</time></trkpt><trkpt lat="44.6254996" lon="9.9462993"><ele>733.0</ele><time>2026-05-02T14:23:44.709Z</time></trkpt><trkpt lat="44.6254918" lon="9.9464312"><ele>734.0</ele><time>2026-05-02T14:23:45.708Z</time></trkpt><trkpt lat="44.6254587" lon="9.9465592"><ele>735.0</ele><time>2026-05-02T14:23:46.708Z</time></trkpt><trkpt lat="44.6254116" lon="9.9466779"><ele>736.6</ele><time>2026-05-02T14:23:47.708Z</time></trkpt><trkpt lat="44.6253587" lon="9.9467963"><ele>738.2</ele><time>2026-05-02T14:23:48.709Z</time></trkpt><trkpt lat="44.6253028" lon="9.9469124"><ele>739.8</ele><time>2026-05-02T14:23:49.708Z</time></trkpt><trkpt lat="44.6252435" lon="9.9470338"><ele>741.4</ele><time>2026-05-02T14:23:50.708Z</time></trkpt><trkpt lat="44.6251709" lon="9.9471439"><ele>743.0</ele><time>2026-05-02T14:23:51.709Z</time></trkpt><trkpt lat="44.6250878" lon="9.9472414"><ele>736.75</ele><time>2026-05-02T14:23:52.708Z</time></trkpt><trkpt lat="44.6250053" lon="9.9473463"><ele>730.5</ele><time>2026-05-02T14:23:53.708Z</time></trkpt><trkpt lat="44.6249278" lon="9.9474777"><ele>724.25</ele><time>2026-05-02T14:23:54.708Z</time></trkpt><trkpt lat="44.6248689" lon="9.94761"><ele>718.0</ele><time>2026-05-02T14:23:55.708Z</time></trkpt><trkpt lat="44.6248233" lon="9.94776"><ele>718.0</ele><time>2026-05-02T14:23:56.709Z</time></trkpt><trkpt lat="44.6247632" lon="9.9478777"><ele>718.0</ele><time>2026-05-02T14:23:57.708Z</time></trkpt><trkpt lat="44.6246873" lon="9.9479578"><ele>718.0</ele><time>2026-05-02T14:23:58.708Z</time></trkpt><trkpt lat="44.6246029" lon="9.9479953"><ele>718.0</ele><time>2026-05-02T14:23:59.708Z</time></trkpt><trkpt lat="44.624521" lon="9.9480311"><ele>718.0</ele><time>2026-05-02T14:24:00.708Z</time></trkpt><trkpt lat="44.6244578" lon="9.9480997"><ele>711.4</ele><time>2026-05-02T14:24:01.708Z</time></trkpt><trkpt lat="44.6244175" lon="9.9481859"><ele>704.8</ele><time>2026-05-02T14:24:02.708Z</time></trkpt><trkpt lat="44.6243814" lon="9.9482773"><ele>698.2</ele><time>2026-05-02T14:24:03.708Z</time></trkpt><trkpt lat="44.6243565" lon="9.9483852"><ele>691.6</ele><time>2026-05-02T14:24:04.708Z</time></trkpt><trkpt lat="44.6244113" lon="9.9485598"><ele>685.0</ele><time>2026-05-02T14:24:05.708Z</time></trkpt><trkpt lat="44.624399" lon="9.9487035"><ele>685.0</ele><time>2026-05-02T14:24:06.708Z</time></trkpt><trkpt lat="44.6243701" lon="9.9488631"><ele>685.0</ele><time>2026-05-02T14:24:07.708Z</time></trkpt><trkpt lat="44.6243291" lon="9.9490107"><ele>685.0</ele><time>2026-05-02T14:24:08.708Z</time></trkpt><trkpt lat="44.624283" lon="9.9491561"><ele>685.0</ele><time>2026-05-02T14:24:09.709Z</time></trkpt><trkpt lat="44.6242386" lon="9.9492977"><ele>685.2</ele><time>2026-05-02T14:24:10.708Z</time></trkpt><trkpt lat="44.6242038" lon="9.9494392"><ele>685.4</ele><time>2026-05-02T14:24:11.708Z</time></trkpt><trkpt lat="44.6241778" lon="9.949586"><ele>685.5999999999999</ele><time>2026-05-02T14:24:12.708Z</time></trkpt><trkpt lat="44.6241633" lon="9.9497347"><ele>685.8</ele><time>2026-05-02T14:24:13.708Z</time></trkpt><trkpt lat="44.6241693" lon="9.949868"><ele>686.0</ele><time>2026-05-02T14:24:14.709Z</time></trkpt><trkpt lat="44.624196" lon="9.9500246"><ele>685.5</ele><time>2026-05-02T14:24:15.708Z</time></trkpt><trkpt lat="44.6242203" lon="9.9501743"><ele>685.0</ele><time>2026-05-02T14:24:16.708Z</time></trkpt><trkpt lat="44.6242313" lon="9.9503296"><ele>684.5</ele><time>2026-05-02T14:24:17.708Z</time></trkpt><trkpt lat="44.6242112" lon="9.9504859"><ele>684.0</ele><time>2026-05-02T14:24:18.708Z</time></trkpt><trkpt lat="44.6241782" lon="9.9506424"><ele>684.0</ele><time>2026-05-02T14:24:19.708Z</time></trkpt><trkpt lat="44.6241495" lon="9.9508006"><ele>684.0</ele><time>2026-05-02T14:24:20.708Z</time></trkpt><trkpt lat="44.6241193" lon="9.9509415"><ele>684.0</ele><time>2026-05-02T14:24:21.708Z</time></trkpt><trkpt lat="44.6240986" lon="9.9510899"><ele>684.0</ele><time>2026-05-02T14:24:22.708Z</time></trkpt><trkpt lat="44.62408" lon="9.9512417"><ele>684.0</ele><time>2026-05-02T14:24:23.708Z</time></trkpt><trkpt lat="44.6240691" lon="9.9513872"><ele>684.8000000000001</ele><time>2026-05-02T14:24:24.71Z</time></trkpt><trkpt lat="44.624046" lon="9.9515373"><ele>685.6</ele><time>2026-05-02T14:24:25.708Z</time></trkpt><trkpt lat="44.6240213" lon="9.9516689"><ele>686.4</ele><time>2026-05-02T14:24:26.708Z</time></trkpt><trkpt lat="44.6239552" lon="9.9517778"><ele>687.2</ele><time>2026-05-02T14:24:27.708Z</time></trkpt><trkpt lat="44.6238567" lon="9.9518418"><ele>688.0</ele><time>2026-05-02T14:24:28.708Z</time></trkpt><trkpt lat="44.6237602" lon="9.9518695"><ele>688.6666666666667</ele><time>2026-05-02T14:24:29.708Z</time></trkpt><trkpt lat="44.6236809" lon="9.9519216"><ele>689.3333333333334</ele><time>2026-05-02T14:24:30.708Z</time></trkpt><trkpt lat="44.6236242" lon="9.9520082"><ele>690.0</ele><time>2026-05-02T14:24:31.709Z</time></trkpt><trkpt lat="44.6235937" lon="9.9520942"><ele>690.6666666666666</ele><time>2026-05-02T14:24:32.708Z</time></trkpt><trkpt lat="44.6235746" lon="9.952216"><ele>691.3333333333333</ele><time>2026-05-02T14:24:33.708Z</time></trkpt><trkpt lat="44.6235638" lon="9.9523431"><ele>692.0</ele><time>2026-05-02T14:24:34.708Z</time></trkpt><trkpt lat="44.6235471" lon="9.9524809"><ele>685.8</ele><time>2026-05-02T14:24:35.708Z</time></trkpt><trkpt lat="44.6235253" lon="9.9526287"><ele>679.6</ele><time>2026-05-02T14:24:36.708Z</time></trkpt><trkpt lat="44.6235023" lon="9.9527846"><ele>673.4</ele><time>2026-05-02T14:24:37.708Z</time></trkpt><trkpt lat="44.6234782" lon="9.9529389"><ele>667.1999999999999</ele><time>2026-05-02T14:24:38.708Z</time></trkpt><trkpt lat="44.6234541" lon="9.9530901"><ele>661.0</ele><time>2026-05-02T14:24:39.708Z</time></trkpt><trkpt lat="44.6234312" lon="9.9532397"><ele>658.5</ele><time>2026-05-02T14:24:40.708Z</time></trkpt><trkpt lat="44.6234037" lon="9.9533801"><ele>656.0</ele><time>2026-05-02T14:24:41.709Z</time></trkpt><trkpt lat="44.623364" lon="9.9535063"><ele>653.5</ele><time>2026-05-02T14:24:42.708Z</time></trkpt><trkpt lat="44.6233213" lon="9.9536202"><ele>651.0</ele><time>2026-05-02T14:24:43.708Z</time></trkpt><trkpt lat="44.6233019" lon="9.9537268"><ele>648.5</ele><time>2026-05-02T14:24:44.708Z</time></trkpt><trkpt lat="44.6233127" lon="9.9538295"><ele>646.0</ele><time>2026-05-02T14:24:45.708Z</time></trkpt><trkpt lat="44.6233576" lon="9.9539033"><ele>646.0000000000001</ele><time>2026-05-02T14:24:46.708Z</time></trkpt><trkpt lat="44.6234241" lon="9.9539288"><ele>646.0</ele><time>2026-05-02T14:24:47.709Z</time></trkpt><trkpt lat="44.6234928" lon="9.9539231"><ele>646.0</ele><time>2026-05-02T14:24:48.708Z</time></trkpt><trkpt lat="44.6235638" lon="9.9539051"><ele>646.0</ele><time>2026-05-02T14:24:49.709Z</time></trkpt><trkpt lat="44.623634" lon="9.9538782"><ele>646.0</ele><time>2026-05-02T14:24:50.708Z</time></trkpt><trkpt lat="44.6237075" lon="9.9538514"><ele>646.0000000000001</ele><time>2026-05-02T14:24:51.709Z</time></trkpt><trkpt lat="44.6237823" lon="9.9538234"><ele>646.0</ele><time>2026-05-02T14:24:52.708Z</time></trkpt><trkpt lat="44.6238614" lon="9.9537864"><ele>643.5</ele><time>2026-05-02T14:24:53.708Z</time></trkpt><trkpt lat="44.6239401" lon="9.9537278"><ele>641.0</ele><time>2026-05-02T14:24:54.709Z</time></trkpt><trkpt lat="44.6240174" lon="9.9536672"><ele>638.5</ele><time>2026-05-02T14:24:55.709Z</time></trkpt><trkpt lat="44.6240907" lon="9.9536016"><ele>636.0</ele><time>2026-05-02T14:24:56.709Z</time></trkpt><trkpt lat="44.6241664" lon="9.9535355"><ele>633.5</ele><time>2026-05-02T14:24:57.709Z</time></trkpt><trkpt lat="44.6242421" lon="9.9534644"><ele>631.0</ele><time>2026-05-02T14:24:58.708Z</time></trkpt><trkpt lat="44.624319" lon="9.9533914"><ele>635.8</ele><time>2026-05-02T14:24:59.708Z</time></trkpt><trkpt lat="44.6243978" lon="9.9533245"><ele>640.6</ele><time>2026-05-02T14:25:00.708Z</time></trkpt><trkpt lat="44.6244784" lon="9.9532548"><ele>645.4</ele><time>2026-05-02T14:25:01.708Z</time></trkpt><trkpt lat="44.6245627" lon="9.9531857"><ele>650.2</ele><time>2026-05-02T14:25:02.708Z</time></trkpt><trkpt lat="44.6246535" lon="9.953136"><ele>655.0</ele><time>2026-05-02T14:25:03.709Z</time></trkpt><trkpt lat="44.6247521" lon="9.9531123"><ele>655.0</ele><time>2026-05-02T14:25:04.708Z</time></trkpt><trkpt lat="44.6248525" lon="9.9531145"><ele>655.0</ele><time>2026-05-02T14:25:05.708Z</time></trkpt><trkpt lat="44.6249549" lon="9.9531391"><ele>655.0</ele><time>2026-05-02T14:25:06.708Z</time></trkpt><trkpt lat="44.625053" lon="9.9531604"><ele>655.0</ele><time>2026-05-02T14:25:07.708Z</time></trkpt><trkpt lat="44.625155" lon="9.9531997"><ele>655.0</ele><time>2026-05-02T14:25:08.708Z</time></trkpt><trkpt lat="44.6252526" lon="9.9532587"><ele>655.2</ele><time>2026-05-02T14:25:09.708Z</time></trkpt><trkpt lat="44.6253336" lon="9.9533612"><ele>655.4</ele><time>2026-05-02T14:25:10.709Z</time></trkpt><trkpt lat="44.625405" lon="9.9534751"><ele>655.5999999999999</ele><time>2026-05-02T14:25:11.708Z</time></trkpt><trkpt lat="44.6254578" lon="9.9535923"><ele>655.8</ele><time>2026-05-02T14:25:12.708Z</time></trkpt><trkpt lat="44.6255131" lon="9.9537093"><ele>656.0</ele><time>2026-05-02T14:25:13.708Z</time></trkpt><trkpt lat="44.6255738" lon="9.9538193"><ele>652.8</ele><time>2026-05-02T14:25:14.709Z</time></trkpt><trkpt lat="44.6256403" lon="9.953923"><ele>649.5999999999999</ele><time>2026-05-02T14:25:15.708Z</time></trkpt><trkpt lat="44.6257087" lon="9.9540296"><ele>646.4</ele><time>2026-05-02T14:25:16.708Z</time></trkpt><trkpt lat="44.625775" lon="9.9541327"><ele>643.2</ele><time>2026-05-02T14:25:17.708Z</time></trkpt><trkpt lat="44.625853" lon="9.954234"><ele>640.0</ele><time>2026-05-02T14:25:18.708Z</time></trkpt><trkpt lat="44.626009" lon="9.9544291"><ele>640.2</ele><time>2026-05-02T14:25:20.708Z</time></trkpt><trkpt lat="44.6260798" lon="9.9545221"><ele>640.4</ele><time>2026-05-02T14:25:21.709Z</time></trkpt><trkpt lat="44.6261534" lon="9.954611"><ele>640.5999999999999</ele><time>2026-05-02T14:25:22.708Z</time></trkpt><trkpt lat="44.6262268" lon="9.9546959"><ele>640.8</ele><time>2026-05-02T14:25:23.709Z</time></trkpt><trkpt lat="44.6262959" lon="9.9547854"><ele>641.0</ele><time>2026-05-02T14:25:24.708Z</time></trkpt><trkpt lat="44.626363" lon="9.9548681"><ele>641.0</ele><time>2026-05-02T14:25:25.709Z</time></trkpt><trkpt lat="44.6264337" lon="9.9549355"><ele>641.0</ele><time>2026-05-02T14:25:26.708Z</time></trkpt><trkpt lat="44.6265096" lon="9.9549879"><ele>641.0</ele><time>2026-05-02T14:25:27.708Z</time></trkpt><trkpt lat="44.6265909" lon="9.9550225"><ele>641.0</ele><time>2026-05-02T14:25:28.709Z</time></trkpt><trkpt lat="44.62667" lon="9.955045"><ele>641.0</ele><time>2026-05-02T14:25:29.708Z</time></trkpt><trkpt lat="44.6267557" lon="9.9550655"><ele>641.0</ele><time>2026-05-02T14:25:30.708Z</time></trkpt><trkpt lat="44.6268399" lon="9.9550951"><ele>637.8</ele><time>2026-05-02T14:25:31.708Z</time></trkpt><trkpt lat="44.6269194" lon="9.955133"><ele>634.5999999999999</ele><time>2026-05-02T14:25:32.708Z</time></trkpt><trkpt lat="44.6270123" lon="9.9551727"><ele>631.4</ele><time>2026-05-02T14:25:33.708Z</time></trkpt><trkpt lat="44.627112" lon="9.9551798"><ele>628.2</ele><time>2026-05-02T14:25:34.708Z</time></trkpt><trkpt lat="44.6272114" lon="9.9551649"><ele>625.0</ele><time>2026-05-02T14:25:35.708Z</time></trkpt><trkpt lat="44.6273073" lon="9.9551511"><ele>623.8</ele><time>2026-05-02T14:25:36.708Z</time></trkpt><trkpt lat="44.6274096" lon="9.955147"><ele>622.6</ele><time>2026-05-02T14:25:37.708Z</time></trkpt><trkpt lat="44.6275073" lon="9.9551381"><ele>621.4</ele><time>2026-05-02T14:25:38.708Z</time></trkpt><trkpt lat="44.6276056" lon="9.9551217"><ele>620.2</ele><time>2026-05-02T14:25:39.708Z</time></trkpt><trkpt lat="44.6276849" lon="9.9550397"><ele>619.0</ele><time>2026-05-02T14:25:40.708Z</time></trkpt><trkpt lat="44.6277707" lon="9.9549783"><ele>621.25</ele><time>2026-05-02T14:25:41.708Z</time></trkpt><trkpt lat="44.6278615" lon="9.9548972"><ele>623.5</ele><time>2026-05-02T14:25:42.709Z</time></trkpt><trkpt lat="44.6279664" lon="9.9548321"><ele>625.75</ele><time>2026-05-02T14:25:43.708Z</time></trkpt><trkpt lat="44.6280772" lon="9.9547894"><ele>628.0</ele><time>2026-05-02T14:25:44.708Z</time></trkpt><trkpt lat="44.6281978" lon="9.954793"><ele>628.0</ele><time>2026-05-02T14:25:45.708Z</time></trkpt><trkpt lat="44.628296" lon="9.9548369"><ele>628.0</ele><time>2026-05-02T14:25:46.71Z</time></trkpt><trkpt lat="44.6284015" lon="9.9548083"><ele>628.0</ele><time>2026-05-02T14:25:47.708Z</time></trkpt><trkpt lat="44.6284811" lon="9.9548444"><ele>628.0</ele><time>2026-05-02T14:25:48.71Z</time></trkpt><trkpt lat="44.6285563" lon="9.9548839"><ele>628.0</ele><time>2026-05-02T14:25:49.708Z</time></trkpt><trkpt lat="44.628628" lon="9.9549171"><ele>625.1999999999999</ele><time>2026-05-02T14:25:50.709Z</time></trkpt><trkpt lat="44.6285906" lon="9.9550689"><ele>622.4</ele><time>2026-05-02T14:25:51.708Z</time></trkpt><trkpt lat="44.6285208" lon="9.9551802"><ele>619.5999999999999</ele><time>2026-05-02T14:25:53.708Z</time></trkpt><trkpt lat="44.6284505" lon="9.9552287"><ele>616.8</ele><time>2026-05-02T14:25:54.708Z</time></trkpt><trkpt lat="44.6283693" lon="9.9552955"><ele>614.0</ele><time>2026-05-02T14:25:55.708Z</time></trkpt><trkpt lat="44.6282831" lon="9.9553762"><ele>614.0</ele><time>2026-05-02T14:25:56.708Z</time></trkpt><trkpt lat="44.6281986" lon="9.9554652"><ele>614.0</ele><time>2026-05-02T14:25:57.708Z</time></trkpt><trkpt lat="44.6281187" lon="9.9555624"><ele>614.0</ele><time>2026-05-02T14:25:58.708Z</time></trkpt><trkpt lat="44.6280477" lon="9.9556635"><ele>614.0</ele><time>2026-05-02T14:25:59.708Z</time></trkpt><trkpt lat="44.6279733" lon="9.9557639"><ele>614.0</ele><time>2026-05-02T14:26:00.708Z</time></trkpt><trkpt lat="44.6278933" lon="9.9558544"><ele>611.4</ele><time>2026-05-02T14:26:01.708Z</time></trkpt><trkpt lat="44.6278039" lon="9.9559396"><ele>608.8</ele><time>2026-05-02T14:26:02.708Z</time></trkpt><trkpt lat="44.6277059" lon="9.9560244"><ele>606.2</ele><time>2026-05-02T14:26:03.708Z</time></trkpt><trkpt lat="44.6276065" lon="9.9561045"><ele>603.6</ele><time>2026-05-02T14:26:04.708Z</time></trkpt><trkpt lat="44.6275145" lon="9.9561741"><ele>601.0</ele><time>2026-05-02T14:26:05.708Z</time></trkpt><trkpt lat="44.6274215" lon="9.9562344"><ele>601.0</ele><time>2026-05-02T14:26:06.708Z</time></trkpt><trkpt lat="44.6273392" lon="9.9562906"><ele>601.0</ele><time>2026-05-02T14:26:07.708Z</time></trkpt><trkpt lat="44.6272754" lon="9.9563475"><ele>601.0</ele><time>2026-05-02T14:26:08.708Z</time></trkpt><trkpt lat="44.627215" lon="9.9563911"><ele>601.0</ele><time>2026-05-02T14:26:09.709Z</time></trkpt><trkpt lat="44.6271669" lon="9.9565189"><ele>601.0</ele><time>2026-05-02T14:26:11.708Z</time></trkpt><trkpt lat="44.6271666" lon="9.9566169"><ele>601.0</ele><time>2026-05-02T14:26:13.708Z</time></trkpt><trkpt lat="44.627234" lon="9.9566537"><ele>601.0</ele><time>2026-05-02T14:26:16.708Z</time></trkpt><trkpt lat="44.6272952" lon="9.9566125"><ele>601.0</ele><time>2026-05-02T14:26:33.708Z</time></trkpt><trkpt lat="44.6273616" lon="9.9565808"><ele>601.0</ele><time>2026-05-02T14:26:36.709Z</time></trkpt><trkpt lat="44.6274622" lon="9.9565788"><ele>601.0</ele><time>2026-05-02T14:26:38.708Z</time></trkpt><trkpt lat="44.6275273" lon="9.9565876"><ele>601.0</ele><time>2026-05-02T14:26:39.708Z</time></trkpt><trkpt lat="44.6275961" lon="9.9565989"><ele>601.0</ele><time>2026-05-02T14:26:40.709Z</time></trkpt><trkpt lat="44.62767" lon="9.9566174"><ele>601.0</ele><time>2026-05-02T14:26:41.709Z</time></trkpt><trkpt lat="44.6277541" lon="9.9566336"><ele>600.0</ele><time>2026-05-02T14:26:42.708Z</time></trkpt><trkpt lat="44.6278362" lon="9.9566637"><ele>599.0</ele><time>2026-05-02T14:26:43.708Z</time></trkpt><trkpt lat="44.627912" lon="9.9566905"><ele>598.0</ele><time>2026-05-02T14:26:44.708Z</time></trkpt><trkpt lat="44.6279889" lon="9.9567198"><ele>597.0</ele><time>2026-05-02T14:26:45.709Z</time></trkpt><trkpt lat="44.6280504" lon="9.9567444"><ele>596.0</ele><time>2026-05-02T14:26:46.708Z</time></trkpt><trkpt lat="44.6281266" lon="9.9568331"><ele>595.0</ele><time>2026-05-02T14:26:48.708Z</time></trkpt><trkpt lat="44.628165" lon="9.9569531"><ele>592.6</ele><time>2026-05-02T14:26:50.708Z</time></trkpt><trkpt lat="44.628044" lon="9.9570697"><ele>590.2</ele><time>2026-05-02T14:26:53.708Z</time></trkpt><trkpt lat="44.6279743" lon="9.9570875"><ele>587.8</ele><time>2026-05-02T14:26:54.708Z</time></trkpt><trkpt lat="44.6278691" lon="9.9570181"><ele>585.4</ele><time>2026-05-02T14:26:55.708Z</time></trkpt><trkpt lat="44.627791" lon="9.9570176"><ele>583.0</ele><time>2026-05-02T14:26:56.709Z</time></trkpt><trkpt lat="44.6277053" lon="9.9570159"><ele>583.0</ele><time>2026-05-02T14:26:57.709Z</time></trkpt><trkpt lat="44.6276239" lon="9.9570262"><ele>583.0</ele><time>2026-05-02T14:26:58.708Z</time></trkpt><trkpt lat="44.6275532" lon="9.9570617"><ele>583.0</ele><time>2026-05-02T14:26:59.709Z</time></trkpt><trkpt lat="44.6274885" lon="9.9571207"><ele>583.0</ele><time>2026-05-02T14:27:00.708Z</time></trkpt><trkpt lat="44.6274287" lon="9.9571896"><ele>583.0</ele><time>2026-05-02T14:27:01.709Z</time></trkpt><trkpt lat="44.6273638" lon="9.9572554"><ele>583.0</ele><time>2026-05-02T14:27:02.708Z</time></trkpt><trkpt lat="44.6272939" lon="9.9572999"><ele>583.0000000000001</ele><time>2026-05-02T14:27:03.708Z</time></trkpt><trkpt lat="44.6272263" lon="9.9573379"><ele>583.0</ele><time>2026-05-02T14:27:04.708Z</time></trkpt><trkpt lat="44.6271527" lon="9.9573072"><ele>583.0</ele><time>2026-05-02T14:27:05.708Z</time></trkpt><trkpt lat="44.6270887" lon="9.957286"><ele>583.0</ele><time>2026-05-02T14:27:06.708Z</time></trkpt><trkpt lat="44.6270214" lon="9.9572631"><ele>583.0</ele><time>2026-05-02T14:27:07.708Z</time></trkpt><trkpt lat="44.6269555" lon="9.9572146"><ele>583.0000000000001</ele><time>2026-05-02T14:27:08.708Z</time></trkpt><trkpt lat="44.6268818" lon="9.9571762"><ele>583.0</ele><time>2026-05-02T14:27:09.709Z</time></trkpt><trkpt lat="44.6268021" lon="9.9571436"><ele>582.4285714285714</ele><time>2026-05-02T14:27:10.708Z</time></trkpt><trkpt lat="44.6267245" lon="9.9571132"><ele>581.8571428571429</ele><time>2026-05-02T14:27:11.708Z</time></trkpt><trkpt lat="44.6266528" lon="9.9570864"><ele>581.2857142857142</ele><time>2026-05-02T14:27:12.708Z</time></trkpt><trkpt lat="44.6265822" lon="9.9570836"><ele>580.7142857142858</ele><time>2026-05-02T14:27:13.708Z</time></trkpt><trkpt lat="44.6265098" lon="9.9571152"><ele>580.1428571428571</ele><time>2026-05-02T14:27:14.709Z</time></trkpt><trkpt lat="44.6264441" lon="9.9571476"><ele>579.5714285714286</ele><time>2026-05-02T14:27:15.709Z</time></trkpt><trkpt lat="44.6263779" lon="9.9572043"><ele>579.0</ele><time>2026-05-02T14:27:16.708Z</time></trkpt><trkpt lat="44.6263255" lon="9.9572671"><ele>579.0</ele><time>2026-05-02T14:27:17.708Z</time></trkpt><trkpt lat="44.6262872" lon="9.9573396"><ele>579.0</ele><time>2026-05-02T14:27:18.709Z</time></trkpt><trkpt lat="44.6262553" lon="9.9574321"><ele>579.0</ele><time>2026-05-02T14:27:19.708Z</time></trkpt><trkpt lat="44.6262336" lon="9.9575414"><ele>579.0</ele><time>2026-05-02T14:27:20.708Z</time></trkpt><trkpt lat="44.6262188" lon="9.9576613"><ele>579.0</ele><time>2026-05-02T14:27:21.708Z</time></trkpt><trkpt lat="44.6262055" lon="9.9577913"><ele>579.0</ele><time>2026-05-02T14:27:22.708Z</time></trkpt><trkpt lat="44.6261916" lon="9.9579255"><ele>575.8</ele><time>2026-05-02T14:27:23.709Z</time></trkpt><trkpt lat="44.6261767" lon="9.9580615"><ele>572.5999999999999</ele><time>2026-05-02T14:27:24.708Z</time></trkpt><trkpt lat="44.6261587" lon="9.9581925"><ele>569.4</ele><time>2026-05-02T14:27:25.708Z</time></trkpt><trkpt lat="44.6261444" lon="9.9583275"><ele>566.1999999999999</ele><time>2026-05-02T14:27:26.708Z</time></trkpt><trkpt lat="44.6261247" lon="9.9584421"><ele>563.0</ele><time>2026-05-02T14:27:27.708Z</time></trkpt><trkpt lat="44.6261074" lon="9.958548"><ele>560.4</ele><time>2026-05-02T14:27:28.709Z</time></trkpt><trkpt lat="44.626083" lon="9.9586429"><ele>557.8</ele><time>2026-05-02T14:27:29.708Z</time></trkpt><trkpt lat="44.6260277" lon="9.9587933"><ele>555.2</ele><time>2026-05-02T14:27:31.708Z</time></trkpt><trkpt lat="44.625961" lon="9.9588847"><ele>552.6</ele><time>2026-05-02T14:27:33.708Z</time></trkpt><trkpt lat="44.6258641" lon="9.9589083"><ele>550.0</ele><time>2026-05-02T14:27:35.708Z</time></trkpt><trkpt lat="44.6257683" lon="9.9588793"><ele>550.0</ele><time>2026-05-02T14:27:37.708Z</time></trkpt><trkpt lat="44.6257131" lon="9.9589559"><ele>550.0</ele><time>2026-05-02T14:27:40.708Z</time></trkpt><trkpt lat="44.6257194" lon="9.9590542"><ele>550.0</ele><time>2026-05-02T14:27:45.709Z</time></trkpt><trkpt lat="44.6256846" lon="9.9591556"><ele>550.0</ele><time>2026-05-02T14:27:50.709Z</time></trkpt><trkpt lat="44.6256274" lon="9.9592462"><ele>550.0</ele><time>2026-05-02T14:27:53.708Z</time></trkpt><trkpt lat="44.6255674" lon="9.9592992"><ele>550.0</ele><time>2026-05-02T14:27:56.708Z</time></trkpt><trkpt lat="44.6255099" lon="9.9593873"><ele>547.0</ele><time>2026-05-02T14:27:58.708Z</time></trkpt><trkpt lat="44.6255775" lon="9.9594165"><ele>544.0</ele><time>2026-05-02T14:28:01.708Z</time></trkpt><trkpt lat="44.6256403" lon="9.9593957"><ele>541.0</ele><time>2026-05-02T14:28:04.708Z</time></trkpt><trkpt lat="44.6256678" lon="9.9595205"><ele>538.0</ele><time>2026-05-02T14:28:07.708Z</time></trkpt><trkpt lat="44.6256682" lon="9.9596321"><ele>535.0</ele><time>2026-05-02T14:28:09.709Z</time></trkpt><trkpt lat="44.6256519" lon="9.9597418"><ele>532.0</ele><time>2026-05-02T14:28:11.708Z</time></trkpt><trkpt lat="44.6256188" lon="9.9598364"><ele>532.0</ele><time>2026-05-02T14:28:13.708Z</time></trkpt><trkpt lat="44.6255533" lon="9.9599031"><ele>532.0</ele><time>2026-05-02T14:28:15.709Z</time></trkpt><trkpt lat="44.6254763" lon="9.9599558"><ele>532.0</ele><time>2026-05-02T14:28:17.708Z</time></trkpt><trkpt lat="44.625413" lon="9.9600287"><ele>532.0</ele><time>2026-05-02T14:28:19.708Z</time></trkpt><trkpt lat="44.6253474" lon="9.9601126"><ele>532.0</ele><time>2026-05-02T14:28:22.708Z</time></trkpt><trkpt lat="44.6252866" lon="9.9601472"><ele>532.0</ele><time>2026-05-02T14:28:24.709Z</time></trkpt><trkpt lat="44.6252213" lon="9.9602094"><ele>529.4</ele><time>2026-05-02T14:28:26.708Z</time></trkpt><trkpt lat="44.6251645" lon="9.9603178"><ele>526.8000000000001</ele><time>2026-05-02T14:28:28.708Z</time></trkpt><trkpt lat="44.6251276" lon="9.9604682"><ele>524.2</ele><time>2026-05-02T14:28:30.708Z</time></trkpt><trkpt lat="44.6251216" lon="9.960587"><ele>521.6</ele><time>2026-05-02T14:28:32.709Z</time></trkpt><trkpt lat="44.6250891" lon="9.9607055"><ele>519.0</ele><time>2026-05-02T14:28:34.708Z</time></trkpt><trkpt lat="44.6250549" lon="9.9607889"><ele>515.8333333333334</ele><time>2026-05-02T14:28:36.708Z</time></trkpt><trkpt lat="44.6250625" lon="9.9608941"><ele>512.6666666666666</ele><time>2026-05-02T14:28:38.708Z</time></trkpt><trkpt lat="44.6251274" lon="9.9609665"><ele>509.5</ele><time>2026-05-02T14:28:40.708Z</time></trkpt><trkpt lat="44.6251495" lon="9.9610505"><ele>506.3333333333333</ele><time>2026-05-02T14:28:42.708Z</time></trkpt><trkpt lat="44.6251153" lon="9.9611758"><ele>503.16666666666663</ele><time>2026-05-02T14:28:44.709Z</time></trkpt><trkpt lat="44.6251026" lon="9.9613221"><ele>500.0</ele><time>2026-05-02T14:28:46.708Z</time></trkpt><trkpt lat="44.6251162" lon="9.9614595"><ele>499.99999999999994</ele><time>2026-05-02T14:28:48.708Z</time></trkpt><trkpt lat="44.625118" lon="9.961585"><ele>500.0</ele><time>2026-05-02T14:28:50.708Z</time></trkpt><trkpt lat="44.6251584" lon="9.9616952"><ele>500.0</ele><time>2026-05-02T14:28:52.708Z</time></trkpt><trkpt lat="44.6251744" lon="9.9618045"><ele>500.0</ele><time>2026-05-02T14:28:54.708Z</time></trkpt><trkpt lat="44.6251465" lon="9.9619158"><ele>499.99999999999994</ele><time>2026-05-02T14:28:57.708Z</time></trkpt><trkpt lat="44.6251002" lon="9.961989"><ele>500.0</ele><time>2026-05-02T14:28:59.708Z</time></trkpt><trkpt lat="44.6250432" lon="9.9620852"><ele>496.2</ele><time>2026-05-02T14:29:01.709Z</time></trkpt><trkpt lat="44.6249674" lon="9.962131"><ele>492.4</ele><time>2026-05-02T14:29:03.709Z</time></trkpt><trkpt lat="44.6248775" lon="9.9621475"><ele>488.6</ele><time>2026-05-02T14:29:05.708Z</time></trkpt><trkpt lat="44.624782" lon="9.9621435"><ele>484.8</ele><time>2026-05-02T14:29:07.708Z</time></trkpt><trkpt lat="44.624677" lon="9.9621414"><ele>481.0</ele><time>2026-05-02T14:29:09.708Z</time></trkpt><trkpt lat="44.6245968" lon="9.9621819"><ele>481.0</ele><time>2026-05-02T14:29:11.709Z</time></trkpt><trkpt lat="44.6245368" lon="9.9622304"><ele>481.0</ele><time>2026-05-02T14:29:22.708Z</time></trkpt><trkpt lat="44.624499" lon="9.9623199"><ele>481.0</ele><time>2026-05-02T14:29:24.708Z</time></trkpt><trkpt lat="44.6244249" lon="9.9623749"><ele>481.0</ele><time>2026-05-02T14:29:26.708Z</time></trkpt><trkpt lat="44.624315" lon="9.9624509"><ele>481.0</ele><time>2026-05-02T14:29:28.708Z</time></trkpt><trkpt lat="44.6242176" lon="9.9625078"><ele>477.83333333333337</ele><time>2026-05-02T14:29:30.709Z</time></trkpt><trkpt lat="44.6241573" lon="9.9625482"><ele>474.6666666666667</ele><time>2026-05-02T14:29:31.708Z</time></trkpt><trkpt lat="44.6240512" lon="9.9625709"><ele>471.5</ele><time>2026-05-02T14:29:33.708Z</time></trkpt><trkpt lat="44.6239613" lon="9.9626036"><ele>468.33333333333337</ele><time>2026-05-02T14:29:35.708Z</time></trkpt><trkpt lat="44.6238969" lon="9.9626775"><ele>465.1666666666667</ele><time>2026-05-02T14:29:38.709Z</time></trkpt><trkpt lat="44.6238202" lon="9.9627275"><ele>462.0</ele><time>2026-05-02T14:29:40.708Z</time></trkpt><trkpt lat="44.6237363" lon="9.9627383"><ele>462.0</ele><time>2026-05-02T14:29:42.708Z</time></trkpt><trkpt lat="44.6236388" lon="9.9627349"><ele>462.00000000000006</ele><time>2026-05-02T14:29:44.709Z</time></trkpt><trkpt lat="44.623566" lon="9.9627847"><ele>462.00000000000006</ele><time>2026-05-02T14:29:46.708Z</time></trkpt><trkpt lat="44.6234498" lon="9.9628962"><ele>462.0</ele><time>2026-05-02T14:29:48.708Z</time></trkpt><trkpt lat="44.6233706" lon="9.9630063"><ele>462.0</ele><time>2026-05-02T14:29:50.708Z</time></trkpt><trkpt lat="44.6232863" lon="9.963081"><ele>462.0</ele><time>2026-05-02T14:29:52.708Z</time></trkpt><trkpt lat="44.6232075" lon="9.9630795"><ele>462.00000000000006</ele><time>2026-05-02T14:29:53.708Z</time></trkpt><trkpt lat="44.6231049" lon="9.9630897"><ele>462.00000000000006</ele><time>2026-05-02T14:29:55.708Z</time></trkpt><trkpt lat="44.623027" lon="9.9630595"><ele>462.0</ele><time>2026-05-02T14:29:57.708Z</time></trkpt><trkpt lat="44.6229006" lon="9.9630108"><ele>462.0</ele><time>2026-05-02T14:29:59.707Z</time></trkpt><trkpt lat="44.6228113" lon="9.9629745"><ele>461.0</ele><time>2026-05-02T14:30:00.707Z</time></trkpt><trkpt lat="44.6227474" lon="9.9629557"><ele>460.0</ele><time>2026-05-02T14:30:01.707Z</time></trkpt><trkpt lat="44.6226797" lon="9.9629379"><ele>459.0</ele><time>2026-05-02T14:30:02.707Z</time></trkpt><trkpt lat="44.6225853" lon="9.9629403"><ele>458.0</ele><time>2026-05-02T14:30:03.708Z</time></trkpt><trkpt lat="44.6225055" lon="9.9629369"><ele>457.0</ele><time>2026-05-02T14:30:04.707Z</time></trkpt><trkpt lat="44.6224426" lon="9.9628826"><ele>456.0</ele><time>2026-05-02T14:30:05.707Z</time></trkpt><trkpt lat="44.6223709" lon="9.9628548"><ele>456.0</ele><time>2026-05-02T14:30:06.708Z</time></trkpt><trkpt lat="44.6222988" lon="9.9628442"><ele>456.0</ele><time>2026-05-02T14:30:07.707Z</time></trkpt><trkpt lat="44.622223" lon="9.9628659"><ele>456.0</ele><time>2026-05-02T14:30:10.707Z</time></trkpt><trkpt lat="44.6221803" lon="9.962936"><ele>456.0</ele><time>2026-05-02T14:30:12.707Z</time></trkpt><trkpt lat="44.6220817" lon="9.9629842"><ele>456.0</ele><time>2026-05-02T14:30:14.707Z</time></trkpt><trkpt lat="44.6219957" lon="9.9629697"><ele>456.0</ele><time>2026-05-02T14:30:16.707Z</time></trkpt><trkpt lat="44.6219239" lon="9.9629258"><ele>456.20000000000005</ele><time>2026-05-02T14:30:18.707Z</time></trkpt><trkpt lat="44.6218407" lon="9.9628742"><ele>456.40000000000003</ele><time>2026-05-02T14:30:20.708Z</time></trkpt><trkpt lat="44.621728" lon="9.9628379"><ele>456.6</ele><time>2026-05-02T14:30:22.708Z</time></trkpt><trkpt lat="44.6216515" lon="9.9628485"><ele>456.8</ele><time>2026-05-02T14:30:24.707Z</time></trkpt><trkpt lat="44.6216005" lon="9.9629623"><ele>457.0</ele><time>2026-05-02T14:30:26.708Z</time></trkpt><trkpt lat="44.6215601" lon="9.9630614"><ele>457.00000000000006</ele><time>2026-05-02T14:30:28.707Z</time></trkpt><trkpt lat="44.6215235" lon="9.963147"><ele>457.0</ele><time>2026-05-02T14:30:30.707Z</time></trkpt><trkpt lat="44.6214616" lon="9.9632351"><ele>457.0</ele><time>2026-05-02T14:30:33.707Z</time></trkpt><trkpt lat="44.621411" lon="9.963292"><ele>457.0</ele><time>2026-05-02T14:30:35.707Z</time></trkpt><trkpt lat="44.6213719" lon="9.9634006"><ele>457.00000000000006</ele><time>2026-05-02T14:30:38.707Z</time></trkpt><trkpt lat="44.6213458" lon="9.9634931"><ele>457.0</ele><time>2026-05-02T14:30:41.707Z</time></trkpt><trkpt lat="44.621312" lon="9.9636112"><ele>454.50000000000006</ele><time>2026-05-02T14:30:44.707Z</time></trkpt><trkpt lat="44.6213046" lon="9.9637053"><ele>452.0</ele><time>2026-05-02T14:30:47.707Z</time></trkpt><trkpt lat="44.6213726" lon="9.9638003"><ele>449.5</ele><time>2026-05-02T14:30:50.707Z</time></trkpt><trkpt lat="44.6214385" lon="9.9638739"><ele>447.0</ele><time>2026-05-02T14:30:52.707Z</time></trkpt><trkpt lat="44.6215011" lon="9.9638877"><ele>444.50000000000006</ele><time>2026-05-02T14:30:54.707Z</time></trkpt><trkpt lat="44.6215638" lon="9.9639549"><ele>442.0</ele><time>2026-05-02T14:30:57.707Z</time></trkpt><trkpt lat="44.6215941" lon="9.9640348"><ele>442.00000000000006</ele><time>2026-05-02T14:30:59.707Z</time></trkpt><trkpt lat="44.621625" lon="9.9641344"><ele>442.0</ele><time>2026-05-02T14:31:01.707Z</time></trkpt><trkpt lat="44.6216575" lon="9.9642593"><ele>442.0</ele><time>2026-05-02T14:31:03.707Z</time></trkpt><trkpt lat="44.6217237" lon="9.9643602"><ele>442.0</ele><time>2026-05-02T14:31:05.707Z</time></trkpt><trkpt lat="44.6217779" lon="9.9644342"><ele>442.00000000000006</ele><time>2026-05-02T14:31:07.708Z</time></trkpt><trkpt lat="44.6218186" lon="9.9645136"><ele>442.0</ele><time>2026-05-02T14:31:09.707Z</time></trkpt><trkpt lat="44.6218737" lon="9.9646162"><ele>440.40000000000003</ele><time>2026-05-02T14:31:11.707Z</time></trkpt><trkpt lat="44.6219324" lon="9.9647063"><ele>438.80000000000007</ele><time>2026-05-02T14:31:13.707Z</time></trkpt><trkpt lat="44.622006" lon="9.9648064"><ele>437.2</ele><time>2026-05-02T14:31:15.707Z</time></trkpt><trkpt lat="44.622045" lon="9.9649234"><ele>435.6</ele><time>2026-05-02T14:31:17.707Z</time></trkpt><trkpt lat="44.6220951" lon="9.965066"><ele>434.0</ele><time>2026-05-02T14:31:19.707Z</time></trkpt><trkpt lat="44.6221262" lon="9.9652097"><ele>431.99999999999994</ele><time>2026-05-02T14:31:21.708Z</time></trkpt><trkpt lat="44.6221343" lon="9.9653606"><ele>430.0</ele><time>2026-05-02T14:31:23.707Z</time></trkpt><trkpt lat="44.6221216" lon="9.9655192"><ele>428.0</ele><time>2026-05-02T14:31:25.707Z</time></trkpt><trkpt lat="44.6221333" lon="9.9656069"><ele>426.0</ele><time>2026-05-02T14:31:26.707Z</time></trkpt><trkpt lat="44.6221501" lon="9.9657349"><ele>423.99999999999994</ele><time>2026-05-02T14:31:28.707Z</time></trkpt><trkpt lat="44.6221789" lon="9.9658203"><ele>422.0</ele><time>2026-05-02T14:31:29.707Z</time></trkpt><trkpt lat="44.6222204" lon="9.9659475"><ele>419.40000000000003</ele><time>2026-05-02T14:31:31.707Z</time></trkpt><trkpt lat="44.6222374" lon="9.9661086"><ele>416.8</ele><time>2026-05-02T14:31:33.707Z</time></trkpt><trkpt lat="44.6222691" lon="9.9662486"><ele>414.2</ele><time>2026-05-02T14:31:35.707Z</time></trkpt><trkpt lat="44.6223196" lon="9.9663461"><ele>411.6</ele><time>2026-05-02T14:31:37.708Z</time></trkpt><trkpt lat="44.6223368" lon="9.9664548"><ele>409.0</ele><time>2026-05-02T14:31:40.707Z</time></trkpt><trkpt lat="44.6223306" lon="9.9665784"><ele>409.0</ele><time>2026-05-02T14:31:43.707Z</time></trkpt><trkpt lat="44.6223251" lon="9.9666677"><ele>409.0</ele><time>2026-05-02T14:31:44.707Z</time></trkpt><trkpt lat="44.6223449" lon="9.9667926"><ele>409.0</ele><time>2026-05-02T14:31:47.707Z</time></trkpt><trkpt lat="44.6223616" lon="9.9669271"><ele>409.0</ele><time>2026-05-02T14:31:49.707Z</time></trkpt><trkpt lat="44.6223918" lon="9.9670693"><ele>409.0</ele><time>2026-05-02T14:31:51.707Z</time></trkpt><trkpt lat="44.6224409" lon="9.9671935"><ele>406.33333333333337</ele><time>2026-05-02T14:31:53.707Z</time></trkpt><trkpt lat="44.6224985" lon="9.9672798"><ele>403.6666666666667</ele><time>2026-05-02T14:31:55.707Z</time></trkpt><trkpt lat="44.6225816" lon="9.9672782"><ele>401.0</ele><time>2026-05-02T14:31:58.707Z</time></trkpt><trkpt lat="44.6226408" lon="9.9672303"><ele>398.33333333333337</ele><time>2026-05-02T14:32:00.708Z</time></trkpt><trkpt lat="44.6227058" lon="9.967202"><ele>395.6666666666667</ele><time>2026-05-02T14:32:02.708Z</time></trkpt><trkpt lat="44.6227708" lon="9.9672235"><ele>393.0</ele><time>2026-05-02T14:32:04.707Z</time></trkpt><trkpt lat="44.6228541" lon="9.9672529"><ele>392.1666666666667</ele><time>2026-05-02T14:32:07.707Z</time></trkpt><trkpt lat="44.6229105" lon="9.9673128"><ele>391.33333333333337</ele><time>2026-05-02T14:32:52.707Z</time></trkpt><trkpt lat="44.6229783" lon="9.9673717"><ele>390.5</ele><time>2026-05-02T14:32:54.708Z</time></trkpt><trkpt lat="44.6230691" lon="9.9674367"><ele>389.6666666666667</ele><time>2026-05-02T14:32:56.707Z</time></trkpt><trkpt lat="44.6231357" lon="9.9675155"><ele>388.83333333333337</ele><time>2026-05-02T14:32:58.707Z</time></trkpt><trkpt lat="44.6231847" lon="9.9676241"><ele>388.0</ele><time>2026-05-02T14:33:00.708Z</time></trkpt><trkpt lat="44.6232234" lon="9.9677614"><ele>386.33333333333337</ele><time>2026-05-02T14:33:02.708Z</time></trkpt><trkpt lat="44.6232538" lon="9.967886"><ele>384.6666666666667</ele><time>2026-05-02T14:33:04.707Z</time></trkpt><trkpt lat="44.623283" lon="9.9679896"><ele>383.0</ele><time>2026-05-02T14:33:06.707Z</time></trkpt><trkpt lat="44.6233457" lon="9.9680721"><ele>381.33333333333337</ele><time>2026-05-02T14:33:08.707Z</time></trkpt><trkpt lat="44.6234199" lon="9.9681309"><ele>379.6666666666667</ele><time>2026-05-02T14:33:10.707Z</time></trkpt><trkpt lat="44.623488" lon="9.9682066"><ele>378.0</ele><time>2026-05-02T14:33:12.707Z</time></trkpt><trkpt lat="44.6235119" lon="9.9683356"><ele>376.6666666666667</ele><time>2026-05-02T14:33:14.707Z</time></trkpt><trkpt lat="44.6235416" lon="9.9684668"><ele>375.3333333333333</ele><time>2026-05-02T14:33:16.707Z</time></trkpt><trkpt lat="44.6235457" lon="9.9685855"><ele>374.0</ele><time>2026-05-02T14:33:18.708Z</time></trkpt><trkpt lat="44.6235443" lon="9.9687108"><ele>372.66666666666663</ele><time>2026-05-02T14:33:21.707Z</time></trkpt><trkpt lat="44.6235386" lon="9.9687992"><ele>371.3333333333333</ele><time>2026-05-02T14:33:23.707Z</time></trkpt><trkpt lat="44.6235391" lon="9.9689051"><ele>370.0</ele><time>2026-05-02T14:33:26.707Z</time></trkpt><trkpt lat="44.6235314" lon="9.9689953"><ele>370.0</ele><time>2026-05-02T14:33:28.707Z</time></trkpt><trkpt lat="44.6234872" lon="9.9690959"><ele>370.0</ele><time>2026-05-02T14:33:30.707Z</time></trkpt><trkpt lat="44.6234433" lon="9.9692062"><ele>370.0</ele><time>2026-05-02T14:33:32.707Z</time></trkpt><trkpt lat="44.6233946" lon="9.9692771"><ele>370.0</ele><time>2026-05-02T14:33:34.707Z</time></trkpt><trkpt lat="44.6233201" lon="9.9692906"><ele>370.0</ele><time>2026-05-02T14:33:51.707Z</time></trkpt><trkpt lat="44.6232365" lon="9.9692715"><ele>370.0</ele><time>2026-05-02T14:33:53.707Z</time></trkpt><trkpt lat="44.623168" lon="9.9692526"><ele>370.0</ele><time>2026-05-02T14:33:54.709Z</time></trkpt><trkpt lat="44.6230937" lon="9.9692266"><ele>370.0</ele><time>2026-05-02T14:33:55.708Z</time></trkpt><trkpt lat="44.6230219" lon="9.9692052"><ele>370.0</ele><time>2026-05-02T14:33:56.708Z</time></trkpt><trkpt lat="44.62295" lon="9.9691774"><ele>370.0</ele><time>2026-05-02T14:33:57.707Z</time></trkpt><trkpt lat="44.6228789" lon="9.9691538"><ele>370.0</ele><time>2026-05-02T14:33:58.707Z</time></trkpt><trkpt lat="44.622816" lon="9.9691404"><ele>370.0</ele><time>2026-05-02T14:33:59.708Z</time></trkpt><trkpt lat="44.6227274" lon="9.9691085"><ele>370.0</ele><time>2026-05-02T14:34:01.707Z</time></trkpt><trkpt lat="44.6228405" lon="9.9691024"><ele>370.0</ele><time>2026-05-02T14:34:07.707Z</time></trkpt><trkpt lat="44.6228994" lon="9.9691394"><ele>370.0</ele><time>2026-05-02T14:34:08.707Z</time></trkpt><trkpt lat="44.6229625" lon="9.9691723"><ele>370.0</ele><time>2026-05-02T14:34:09.707Z</time></trkpt><trkpt lat="44.6230202" lon="9.9692124"><ele>370.0</ele><time>2026-05-02T14:34:10.707Z</time></trkpt><trkpt lat="44.6230846" lon="9.9692332"><ele>370.0</ele><time>2026-05-02T14:34:11.707Z</time></trkpt><trkpt lat="44.6231768" lon="9.9692685"><ele>370.0</ele><time>2026-05-02T14:34:13.707Z</time></trkpt><trkpt lat="44.6232756" lon="9.9692816"><ele>370.0</ele><time>2026-05-02T14:34:15.707Z</time></trkpt><trkpt lat="44.6233416" lon="9.9692735"><ele>370.0</ele><time>2026-05-02T14:34:17.708Z</time></trkpt><trkpt lat="44.6234065" lon="9.9692484"><ele>370.0</ele><time>2026-05-02T14:34:19.707Z</time></trkpt><trkpt lat="44.6234625" lon="9.969157"><ele>370.0</ele><time>2026-05-02T14:34:21.707Z</time></trkpt><trkpt lat="44.6235204" lon="9.9690151"><ele>370.0</ele><time>2026-05-02T14:34:23.707Z</time></trkpt><trkpt lat="44.6235381" lon="9.9688897"><ele>370.0</ele><time>2026-05-02T14:34:25.707Z</time></trkpt><trkpt lat="44.6235478" lon="9.9687163"><ele>370.0</ele><time>2026-05-02T14:34:27.707Z</time></trkpt><trkpt lat="44.6235484" lon="9.9686226"><ele>370.0</ele><time>2026-05-02T14:34:28.707Z</time></trkpt><trkpt lat="44.6235497" lon="9.9685322"><ele>370.0</ele><time>2026-05-02T14:34:29.707Z</time></trkpt><trkpt lat="44.6235376" lon="9.9684352"><ele>370.0</ele><time>2026-05-02T14:34:30.707Z</time></trkpt><trkpt lat="44.6235179" lon="9.9683262"><ele>370.0</ele><time>2026-05-02T14:34:31.707Z</time></trkpt><trkpt lat="44.6234915" lon="9.9682344"><ele>371.3333333333333</ele><time>2026-05-02T14:34:32.707Z</time></trkpt><trkpt lat="44.6234142" lon="9.9681341"><ele>372.66666666666663</ele><time>2026-05-02T14:34:34.708Z</time></trkpt><trkpt lat="44.6233531" lon="9.9680962"><ele>374.0</ele><time>2026-05-02T14:34:35.707Z</time></trkpt><trkpt lat="44.6232933" lon="9.9679837"><ele>375.3333333333333</ele><time>2026-05-02T14:34:37.707Z</time></trkpt><trkpt lat="44.6232618" lon="9.9678912"><ele>376.6666666666667</ele><time>2026-05-02T14:34:38.707Z</time></trkpt><trkpt lat="44.6232304" lon="9.9677714"><ele>378.0</ele><time>2026-05-02T14:34:39.707Z</time></trkpt><trkpt lat="44.6231952" lon="9.9676552"><ele>378.0</ele><time>2026-05-02T14:34:40.707Z</time></trkpt><trkpt lat="44.6231575" lon="9.9675609"><ele>378.0</ele><time>2026-05-02T14:34:41.707Z</time></trkpt><trkpt lat="44.623124" lon="9.9674637"><ele>378.0</ele><time>2026-05-02T14:34:42.707Z</time></trkpt><trkpt lat="44.623033" lon="9.9673995"><ele>378.0</ele><time>2026-05-02T14:34:43.707Z</time></trkpt><trkpt lat="44.6229543" lon="9.9673385"><ele>378.0</ele><time>2026-05-02T14:34:44.707Z</time></trkpt><trkpt lat="44.622874" lon="9.9672722"><ele>378.0</ele><time>2026-05-02T14:34:45.707Z</time></trkpt><trkpt lat="44.6227968" lon="9.967222"><ele>378.0</ele><time>2026-05-02T14:34:47.708Z</time></trkpt><trkpt lat="44.6228507" lon="9.9672707"><ele>378.0</ele><time>2026-05-02T14:38:50.706Z</time></trkpt><trkpt lat="44.6229128" lon="9.9673075"><ele>378.0</ele><time>2026-05-02T14:38:52.706Z</time></trkpt><trkpt lat="44.6229877" lon="9.9673636"><ele>378.0</ele><time>2026-05-02T14:38:54.706Z</time></trkpt><trkpt lat="44.6230762" lon="9.9674398"><ele>378.0</ele><time>2026-05-02T14:38:56.706Z</time></trkpt><trkpt lat="44.6231553" lon="9.9675336"><ele>378.0</ele><time>2026-05-02T14:38:58.706Z</time></trkpt><trkpt lat="44.6232076" lon="9.9676569"><ele>378.0</ele><time>2026-05-02T14:39:00.706Z</time></trkpt><trkpt lat="44.623251" lon="9.9678142"><ele>378.0</ele><time>2026-05-02T14:39:02.706Z</time></trkpt><trkpt lat="44.6232731" lon="9.967956"><ele>378.0</ele><time>2026-05-02T14:39:04.706Z</time></trkpt><trkpt lat="44.6233316" lon="9.96806"><ele>378.0</ele><time>2026-05-02T14:39:06.706Z</time></trkpt><trkpt lat="44.6234224" lon="9.9681278"><ele>378.0</ele><time>2026-05-02T14:39:08.706Z</time></trkpt><trkpt lat="44.6234886" lon="9.9682121"><ele>378.0</ele><time>2026-05-02T14:39:10.706Z</time></trkpt><trkpt lat="44.6235239" lon="9.9683549"><ele>378.0</ele><time>2026-05-02T14:39:12.707Z</time></trkpt><trkpt lat="44.6235482" lon="9.9684913"><ele>378.0</ele><time>2026-05-02T14:39:14.705Z</time></trkpt><trkpt lat="44.6235519" lon="9.9686173"><ele>378.0</ele><time>2026-05-02T14:39:16.706Z</time></trkpt><trkpt lat="44.6235516" lon="9.9687234"><ele>378.0</ele><time>2026-05-02T14:39:18.705Z</time></trkpt><trkpt lat="44.6235369" lon="9.9688285"><ele>378.0</ele><time>2026-05-02T14:39:20.705Z</time></trkpt><trkpt lat="44.6235307" lon="9.968946"><ele>376.6666666666667</ele><time>2026-05-02T14:39:23.705Z</time></trkpt><trkpt lat="44.6234861" lon="9.9690453"><ele>375.3333333333333</ele><time>2026-05-02T14:39:26.706Z</time></trkpt><trkpt lat="44.6234508" lon="9.9691596"><ele>374.0</ele><time>2026-05-02T14:39:28.705Z</time></trkpt><trkpt lat="44.6233813" lon="9.9692756"><ele>372.66666666666663</ele><time>2026-05-02T14:39:30.705Z</time></trkpt><trkpt lat="44.6233173" lon="9.9692839"><ele>371.3333333333333</ele><time>2026-05-02T14:39:31.705Z</time></trkpt><trkpt lat="44.6232532" lon="9.9692747"><ele>370.0</ele><time>2026-05-02T14:39:32.705Z</time></trkpt><trkpt lat="44.6231792" lon="9.96924"><ele>369.99999999999994</ele><time>2026-05-02T14:39:33.706Z</time></trkpt><trkpt lat="44.6231055" lon="9.9692142"><ele>370.0</ele><time>2026-05-02T14:39:34.705Z</time></trkpt><trkpt lat="44.6230369" lon="9.9691827"><ele>370.0</ele><time>2026-05-02T14:39:35.706Z</time></trkpt><trkpt lat="44.6229662" lon="9.9691607"><ele>370.0</ele><time>2026-05-02T14:39:36.705Z</time></trkpt><trkpt lat="44.6228929" lon="9.9691272"><ele>370.0</ele><time>2026-05-02T14:39:37.705Z</time></trkpt><trkpt lat="44.6228264" lon="9.9690963"><ele>369.99999999999994</ele><time>2026-05-02T14:39:38.706Z</time></trkpt><trkpt lat="44.6227578" lon="9.9690598"><ele>370.0</ele><time>2026-05-02T14:39:39.705Z</time></trkpt><trkpt lat="44.6226929" lon="9.9690141"><ele>370.16666666666663</ele><time>2026-05-02T14:39:40.705Z</time></trkpt><trkpt lat="44.6226296" lon="9.9689675"><ele>370.3333333333333</ele><time>2026-05-02T14:39:41.705Z</time></trkpt><trkpt lat="44.6225747" lon="9.9689075"><ele>370.5</ele><time>2026-05-02T14:39:42.706Z</time></trkpt><trkpt lat="44.6224719" lon="9.968809"><ele>370.6666666666667</ele><time>2026-05-02T14:39:44.705Z</time></trkpt><trkpt lat="44.6224128" lon="9.9687668"><ele>370.83333333333337</ele><time>2026-05-02T14:39:45.705Z</time></trkpt><trkpt lat="44.6223198" lon="9.9687315"><ele>371.0</ele><time>2026-05-02T14:39:47.706Z</time></trkpt><trkpt lat="44.6222542" lon="9.9687776"><ele>371.0</ele><time>2026-05-02T14:39:49.705Z</time></trkpt><trkpt lat="44.6222077" lon="9.968877"><ele>371.0</ele><time>2026-05-02T14:39:52.705Z</time></trkpt><trkpt lat="44.6222542" lon="9.9689434"><ele>371.0</ele><time>2026-05-02T14:41:00.705Z</time></trkpt><trkpt lat="44.6223194" lon="9.9689825"><ele>371.0</ele><time>2026-05-02T14:42:47.706Z</time></trkpt><trkpt lat="44.6223576" lon="9.9690607"><ele>371.0</ele><time>2026-05-02T14:42:53.705Z</time></trkpt><trkpt lat="44.6222922" lon="9.9690438"><ele>371.0</ele><time>2026-05-02T15:37:45.7Z</time></trkpt><trkpt lat="44.6222465" lon="9.9689722"><ele>371.0</ele><time>2026-05-02T15:37:53.7Z</time></trkpt><trkpt lat="44.6222396" lon="9.9688648"><ele>371.0</ele><time>2026-05-02T15:49:05.699Z</time></trkpt><trkpt lat="44.6222406" lon="9.9687689"><ele>371.0</ele><time>2026-05-02T15:49:10.701Z</time></trkpt><trkpt lat="44.6221928" lon="9.9686819"><ele>371.0</ele><time>2026-05-02T15:49:19.699Z</time></trkpt><trkpt lat="44.6221426" lon="9.9686225"><ele>371.0</ele><time>2026-05-02T15:49:22.699Z</time></trkpt></trkseg></trk></gpx>